﻿<?xml version="1.0" encoding="utf-8"?><gpx creator="Garmin Desktop App" version="1.1" xsi:schemaLocation="http://www.topografix.com/GPX/1/1 http://www.topografix.com/GPX/1/1/gpx.xsd http://www.garmin.com/xmlschemas/WaypointExtension/v1 http://www8.garmin.com/xmlschemas/WaypointExtensionv1.xsd http://www.garmin.com/xmlschemas/TrackPointExtension/v1 http://www.garmin.com/xmlschemas/TrackPointExtensionv1.xsd http://www.garmin.com/xmlschemas/GpxExtensions/v3 http://www8.garmin.com/xmlschemas/GpxExtensionsv3.xsd http://www.garmin.com/xmlschemas/ActivityExtension/v1 http://www8.garmin.com/xmlschemas/ActivityExtensionv1.xsd http://www.garmin.com/xmlschemas/AdventuresExtensions/v1 http://www8.garmin.com/xmlschemas/AdventuresExtensionv1.xsd http://www.garmin.com/xmlschemas/PressureExtension/v1 http://www.garmin.com/xmlschemas/PressureExtensionv1.xsd http://www.garmin.com/xmlschemas/TripExtensions/v1 http://www.garmin.com/xmlschemas/TripExtensionsv1.xsd http://www.garmin.com/xmlschemas/TripMetaDataExtensions/v1 http://www.garmin.com/xmlschemas/TripMetaDataExtensionsv1.xsd http://www.garmin.com/xmlschemas/ViaPointTransportationModeExtensions/v1 http://www.garmin.com/xmlschemas/ViaPointTransportationModeExtensionsv1.xsd http://www.garmin.com/xmlschemas/CreationTimeExtension/v1 http://www.garmin.com/xmlschemas/CreationTimeExtensionsv1.xsd http://www.garmin.com/xmlschemas/AccelerationExtension/v1 http://www.garmin.com/xmlschemas/AccelerationExtensionv1.xsd http://www.garmin.com/xmlschemas/PowerExtension/v1 http://www.garmin.com/xmlschemas/PowerExtensionv1.xsd http://www.garmin.com/xmlschemas/VideoExtension/v1 http://www.garmin.com/xmlschemas/VideoExtensionv1.xsd" xmlns="http://www.topografix.com/GPX/1/1" xmlns:xsi="http://www.w3.org/2001/XMLSchema-instance" xmlns:wptx1="http://www.garmin.com/xmlschemas/WaypointExtension/v1" xmlns:gpxtrx="http://www.garmin.com/xmlschemas/GpxExtensions/v3" xmlns:gpxtpx="http://www.garmin.com/xmlschemas/TrackPointExtension/v1" xmlns:gpxx="http://www.garmin.com/xmlschemas/GpxExtensions/v3" xmlns:trp="http://www.garmin.com/xmlschemas/TripExtensions/v1" xmlns:adv="http://www.garmin.com/xmlschemas/AdventuresExtensions/v1" xmlns:prs="http://www.garmin.com/xmlschemas/PressureExtension/v1" xmlns:tmd="http://www.garmin.com/xmlschemas/TripMetaDataExtensions/v1" xmlns:vptm="http://www.garmin.com/xmlschemas/ViaPointTransportationModeExtensions/v1" xmlns:ctx="http://www.garmin.com/xmlschemas/CreationTimeExtension/v1" xmlns:gpxacc="http://www.garmin.com/xmlschemas/AccelerationExtension/v1" xmlns:gpxpx="http://www.garmin.com/xmlschemas/PowerExtension/v1" xmlns:vidx1="http://www.garmin.com/xmlschemas/VideoExtension/v1">

  <metadata>
    <link href="http://www.garmin.com">
      <text>Garmin International</text>
    </link>
    <time>2021-01-25T14:09:02Z</time>
    <bounds maxlat="46.037090867757797" maxlon="7.38314718939364" minlat="45.823418386280537" minlon="7.153752353042364" />
  </metadata>

  <trk>
    <name>bourg-san-pierre-col-de-mille2016-07-05</name>
    <extensions>
      <gpxx:TrackExtension>
        <gpxx:DisplayColor>Yellow</gpxx:DisplayColor>
      </gpxx:TrackExtension>
      <gpxtrkx:TrackStatsExtension xmlns:gpxtrkx="http://www.garmin.com/xmlschemas/TrackStatsExtension/v1">
        <gpxtrkx:Distance>12241</gpxtrkx:Distance>
        <gpxtrkx:TotalElapsedTime>17664</gpxtrkx:TotalElapsedTime>
        <gpxtrkx:MovingTime>12858</gpxtrkx:MovingTime>
        <gpxtrkx:StoppedTime>4797</gpxtrkx:StoppedTime>
        <gpxtrkx:MovingSpeed>1</gpxtrkx:MovingSpeed>
        <gpxtrkx:MaxSpeed>2</gpxtrkx:MaxSpeed>
        <gpxtrkx:MaxElevation>2484</gpxtrkx:MaxElevation>
        <gpxtrkx:MinElevation>1621</gpxtrkx:MinElevation>
        <gpxtrkx:Ascent>1032</gpxtrkx:Ascent>
        <gpxtrkx:Descent>176</gpxtrkx:Descent>
        <gpxtrkx:AvgAscentRate>0</gpxtrkx:AvgAscentRate>
        <gpxtrkx:MaxAscentRate>0</gpxtrkx:MaxAscentRate>
        <gpxtrkx:AvgDescentRate>0</gpxtrkx:AvgDescentRate>
        <gpxtrkx:MaxDescentRate>-0</gpxtrkx:MaxDescentRate>
      </gpxtrkx:TrackStatsExtension>
    </extensions>
    <trkseg>
      <trkpt lat="45.951455058529973" lon="7.208106061443687">
        <ele>1625.73</ele>
        <time>2016-07-05T07:30:58Z</time>
      </trkpt>
      <trkpt lat="45.951460590586066" lon="7.208113018423319">
        <ele>1625.73</ele>
        <time>2016-07-05T07:30:59Z</time>
      </trkpt>
      <trkpt lat="45.951508199796081" lon="7.208127100020647">
        <ele>1626.6900000000001</ele>
        <time>2016-07-05T07:31:12Z</time>
      </trkpt>
      <trkpt lat="45.951513983309269" lon="7.208154508844018">
        <ele>1626.6900000000001</ele>
        <time>2016-07-05T07:31:22Z</time>
      </trkpt>
      <trkpt lat="45.951583972200751" lon="7.208170350641012">
        <ele>1627.1700000000001</ele>
        <time>2016-07-05T07:31:31Z</time>
      </trkpt>
      <trkpt lat="45.951604004949331" lon="7.208176469430327">
        <ele>1626.6900000000001</ele>
        <time>2016-07-05T07:31:33Z</time>
      </trkpt>
      <trkpt lat="45.951714813709259" lon="7.208228940144181">
        <ele>1626.6900000000001</ele>
        <time>2016-07-05T07:31:47Z</time>
      </trkpt>
      <trkpt lat="45.951793435961008" lon="7.208261210471392">
        <ele>1627.1700000000001</ele>
        <time>2016-07-05T07:31:58Z</time>
      </trkpt>
      <trkpt lat="45.951889827847481" lon="7.2082762978971">
        <ele>1627.6500000000001</ele>
        <time>2016-07-05T07:32:09Z</time>
      </trkpt>
      <trkpt lat="45.951989907771349" lon="7.208305047824979">
        <ele>1627.1700000000001</ele>
        <time>2016-07-05T07:32:22Z</time>
      </trkpt>
      <trkpt lat="45.952096777036786" lon="7.20830119214952">
        <ele>1627.6500000000001</ele>
        <time>2016-07-05T07:32:34Z</time>
      </trkpt>
      <trkpt lat="45.952197862789035" lon="7.208320051431656">
        <ele>1628.1300000000001</ele>
        <time>2016-07-05T07:32:45Z</time>
      </trkpt>
      <trkpt lat="45.952279586344957" lon="7.208353662863374">
        <ele>1628.6099999999999</ele>
        <time>2016-07-05T07:32:56Z</time>
      </trkpt>
      <trkpt lat="45.952374218031764" lon="7.208377635106444">
        <ele>1628.6099999999999</ele>
        <time>2016-07-05T07:33:06Z</time>
      </trkpt>
      <trkpt lat="45.952488295733929" lon="7.208431279286742">
        <ele>1629.0899999999999</ele>
        <time>2016-07-05T07:33:18Z</time>
      </trkpt>
      <trkpt lat="45.952516961842775" lon="7.208447121083736">
        <ele>1629.0899999999999</ele>
        <time>2016-07-05T07:33:21Z</time>
      </trkpt>
      <trkpt lat="45.95262567512691" lon="7.208520127460361">
        <ele>1629.5699999999999</ele>
        <time>2016-07-05T07:33:33Z</time>
      </trkpt>
      <trkpt lat="45.952720222994685" lon="7.208578633144498">
        <ele>1630.05</ele>
        <time>2016-07-05T07:33:43Z</time>
      </trkpt>
      <trkpt lat="45.952808316797018" lon="7.208642922341824">
        <ele>1630.53</ele>
        <time>2016-07-05T07:33:53Z</time>
      </trkpt>
      <trkpt lat="45.952913844957948" lon="7.208708804100752">
        <ele>1630.53</ele>
        <time>2016-07-05T07:34:04Z</time>
      </trkpt>
      <trkpt lat="45.953059522435069" lon="7.208825061097741">
        <ele>1631.49</ele>
        <time>2016-07-05T07:34:19Z</time>
      </trkpt>
      <trkpt lat="45.953190363943577" lon="7.208924638107419">
        <ele>1631.49</ele>
        <time>2016-07-05T07:34:33Z</time>
      </trkpt>
      <trkpt lat="45.95329119823873" lon="7.209021365270019">
        <ele>1631.49</ele>
        <time>2016-07-05T07:34:44Z</time>
      </trkpt>
      <trkpt lat="45.953432684764266" lon="7.20913820900023">
        <ele>1631.98</ele>
        <time>2016-07-05T07:34:58Z</time>
      </trkpt>
      <trkpt lat="45.953579284250736" lon="7.209233762696385">
        <ele>1631.49</ele>
        <time>2016-07-05T07:35:12Z</time>
      </trkpt>
      <trkpt lat="45.953670311719179" lon="7.209300734102726">
        <ele>1631.98</ele>
        <time>2016-07-05T07:35:23Z</time>
      </trkpt>
      <trkpt lat="45.953765111044049" lon="7.209377428516746">
        <ele>1631.49</ele>
        <time>2016-07-05T07:35:35Z</time>
      </trkpt>
      <trkpt lat="45.953827640041709" lon="7.209414057433605">
        <ele>1630.53</ele>
        <time>2016-07-05T07:35:42Z</time>
      </trkpt>
      <trkpt lat="45.953904753550887" lon="7.209470635280013">
        <ele>1630.05</ele>
        <time>2016-07-05T07:35:54Z</time>
      </trkpt>
      <trkpt lat="45.953960241749883" lon="7.209505587816238">
        <ele>1629.5699999999999</ele>
        <time>2016-07-05T07:36:07Z</time>
      </trkpt>
      <trkpt lat="45.954078594222665" lon="7.209590999409556">
        <ele>1628.1300000000001</ele>
        <time>2016-07-05T07:36:20Z</time>
      </trkpt>
      <trkpt lat="45.954186888411641" lon="7.209646068513393">
        <ele>1626.6900000000001</ele>
        <time>2016-07-05T07:36:35Z</time>
      </trkpt>
      <trkpt lat="45.954351676627994" lon="7.209889981895685">
        <ele>1625.73</ele>
        <time>2016-07-05T07:36:50Z</time>
      </trkpt>
      <trkpt lat="45.954479919746518" lon="7.209947565570474">
        <ele>1625.25</ele>
        <time>2016-07-05T07:37:02Z</time>
      </trkpt>
      <trkpt lat="45.954632135108113" lon="7.210004143416882">
        <ele>1624.77</ele>
        <time>2016-07-05T07:37:16Z</time>
      </trkpt>
      <trkpt lat="45.95477856695652" lon="7.210068935528398">
        <ele>1623.8</ele>
        <time>2016-07-05T07:37:31Z</time>
      </trkpt>
      <trkpt lat="45.95484402962029" lon="7.210081592202187">
        <ele>1623.8</ele>
        <time>2016-07-05T07:37:42Z</time>
      </trkpt>
      <trkpt lat="45.954891303554177" lon="7.210091147571802">
        <ele>1623.8</ele>
        <time>2016-07-05T07:37:52Z</time>
      </trkpt>
      <trkpt lat="45.954900188371539" lon="7.210124172270298">
        <ele>1623.3199999999999</ele>
        <time>2016-07-05T07:37:56Z</time>
      </trkpt>
      <trkpt lat="45.954941092059016" lon="7.210114197805524">
        <ele>1623.3199999999999</ele>
        <time>2016-07-05T07:38:00Z</time>
      </trkpt>
      <trkpt lat="45.955130942165852" lon="7.210159376263619">
        <ele>1623.3199999999999</ele>
        <time>2016-07-05T07:38:16Z</time>
      </trkpt>
      <trkpt lat="45.955307884141803" lon="7.210207991302013">
        <ele>1622.8399999999999</ele>
        <time>2016-07-05T07:38:30Z</time>
      </trkpt>
      <trkpt lat="45.955476695671678" lon="7.210262306034565">
        <ele>1622.3599999999999</ele>
        <time>2016-07-05T07:38:44Z</time>
      </trkpt>
      <trkpt lat="45.955652631819248" lon="7.210292145609856">
        <ele>1622.3599999999999</ele>
        <time>2016-07-05T07:38:59Z</time>
      </trkpt>
      <trkpt lat="45.955837285146117" lon="7.210296504199505">
        <ele>1621.8800000000001</ele>
        <time>2016-07-05T07:39:14Z</time>
      </trkpt>
      <trkpt lat="45.955994864925742" lon="7.210299773141742">
        <ele>1621.8800000000001</ele>
        <time>2016-07-05T07:39:28Z</time>
      </trkpt>
      <trkpt lat="45.956123610958457" lon="7.210330283269286">
        <ele>1621.8800000000001</ele>
        <time>2016-07-05T07:39:41Z</time>
      </trkpt>
      <trkpt lat="45.956266103312373" lon="7.210301700979471">
        <ele>1621.4000000000001</ele>
        <time>2016-07-05T07:39:53Z</time>
      </trkpt>
      <trkpt lat="45.956432148814201" lon="7.210274543613195">
        <ele>1621.4000000000001</ele>
        <time>2016-07-05T07:40:07Z</time>
      </trkpt>
      <trkpt lat="45.956560559570789" lon="7.210259791463614">
        <ele>1621.4000000000001</ele>
        <time>2016-07-05T07:40:19Z</time>
      </trkpt>
      <trkpt lat="45.956724174320698" lon="7.210252080112696">
        <ele>1621.4000000000001</ele>
        <time>2016-07-05T07:40:32Z</time>
      </trkpt>
      <trkpt lat="45.956795085221529" lon="7.210250571370125">
        <ele>1621.4000000000001</ele>
        <time>2016-07-05T07:40:38Z</time>
      </trkpt>
      <trkpt lat="45.956911090761423" lon="7.210261719301343">
        <ele>1621.4000000000001</ele>
        <time>2016-07-05T07:40:49Z</time>
      </trkpt>
      <trkpt lat="45.957075878977776" lon="7.210293654352427">
        <ele>1621.8800000000001</ele>
        <time>2016-07-05T07:41:03Z</time>
      </trkpt>
      <trkpt lat="45.957151651382446" lon="7.210295749828219">
        <ele>1622.3599999999999</ele>
        <time>2016-07-05T07:41:10Z</time>
      </trkpt>
      <trkpt lat="45.957287773489952" lon="7.210273034870625">
        <ele>1622.8399999999999</ele>
        <time>2016-07-05T07:41:23Z</time>
      </trkpt>
      <trkpt lat="45.957297999411821" lon="7.210269598290324">
        <ele>1622.8399999999999</ele>
        <time>2016-07-05T07:41:24Z</time>
      </trkpt>
      <trkpt lat="45.95741618424654" lon="7.2102415189147">
        <ele>1623.8</ele>
        <time>2016-07-05T07:41:35Z</time>
      </trkpt>
      <trkpt lat="45.957448873668909" lon="7.210239423438907">
        <ele>1623.8</ele>
        <time>2016-07-05T07:41:38Z</time>
      </trkpt>
      <trkpt lat="45.957566890865564" lon="7.210221234709024">
        <ele>1625.25</ele>
        <time>2016-07-05T07:41:50Z</time>
      </trkpt>
      <trkpt lat="45.957648530602455" lon="7.210191311314702">
        <ele>1626.21</ele>
        <time>2016-07-05T07:41:59Z</time>
      </trkpt>
      <trkpt lat="45.957735786214471" lon="7.210172452032566">
        <ele>1627.6500000000001</ele>
        <time>2016-07-05T07:42:10Z</time>
      </trkpt>
      <trkpt lat="45.957833016291261" lon="7.210156861692667">
        <ele>1628.6099999999999</ele>
        <time>2016-07-05T07:42:21Z</time>
      </trkpt>
      <trkpt lat="45.957930078729987" lon="7.210132721811533">
        <ele>1629.5699999999999</ele>
        <time>2016-07-05T07:42:32Z</time>
      </trkpt>
      <trkpt lat="45.957990176975727" lon="7.210124088451266">
        <ele>1630.05</ele>
        <time>2016-07-05T07:42:38Z</time>
      </trkpt>
      <trkpt lat="45.958094280213118" lon="7.21010522916913">
        <ele>1630.53</ele>
        <time>2016-07-05T07:42:50Z</time>
      </trkpt>
      <trkpt lat="45.958199976012111" lon="7.210034402087331">
        <ele>1631.98</ele>
        <time>2016-07-05T07:43:04Z</time>
      </trkpt>
      <trkpt lat="45.958308856934309" lon="7.209991235285997">
        <ele>1633.4200000000001</ele>
        <time>2016-07-05T07:43:16Z</time>
      </trkpt>
      <trkpt lat="45.958401644602418" lon="7.2099928278476">
        <ele>1633.9000000000001</ele>
        <time>2016-07-05T07:43:28Z</time>
      </trkpt>
      <trkpt lat="45.958510441705585" lon="7.20996156334877">
        <ele>1633.9000000000001</ele>
        <time>2016-07-05T07:43:38Z</time>
      </trkpt>
      <trkpt lat="45.958607420325279" lon="7.210066001862288">
        <ele>1634.3800000000001</ele>
        <time>2016-07-05T07:43:50Z</time>
      </trkpt>
      <trkpt lat="45.958626782521605" lon="7.210098607465625">
        <ele>1634.3800000000001</ele>
        <time>2016-07-05T07:44:00Z</time>
      </trkpt>
      <trkpt lat="45.958681181073189" lon="7.210205141454935">
        <ele>1634.3800000000001</ele>
        <time>2016-07-05T07:44:10Z</time>
      </trkpt>
      <trkpt lat="45.958726946264505" lon="7.210294157266617">
        <ele>1634.8599999999999</ele>
        <time>2016-07-05T07:44:19Z</time>
      </trkpt>
      <trkpt lat="45.9587755613029" lon="7.210431536659598">
        <ele>1635.3399999999999</ele>
        <time>2016-07-05T07:44:29Z</time>
      </trkpt>
      <trkpt lat="45.958807077258825" lon="7.210535975173116">
        <ele>1635.8199999999999</ele>
        <time>2016-07-05T07:44:37Z</time>
      </trkpt>
      <trkpt lat="45.958831887692213" lon="7.210678635165095">
        <ele>1636.78</ele>
        <time>2016-07-05T07:44:48Z</time>
      </trkpt>
      <trkpt lat="45.958826271817088" lon="7.210801932960749">
        <ele>1637.26</ele>
        <time>2016-07-05T07:44:56Z</time>
      </trkpt>
      <trkpt lat="45.958807077258825" lon="7.210969319567084">
        <ele>1636.78</ele>
        <time>2016-07-05T07:45:10Z</time>
      </trkpt>
      <trkpt lat="45.958813279867172" lon="7.211098065599799">
        <ele>1638.22</ele>
        <time>2016-07-05T07:45:20Z</time>
      </trkpt>
      <trkpt lat="45.958846053108573" lon="7.211221782490611">
        <ele>1639.1900000000001</ele>
        <time>2016-07-05T07:45:31Z</time>
      </trkpt>
      <trkpt lat="45.958915371447802" lon="7.21127157099545">
        <ele>1640.1500000000001</ele>
        <time>2016-07-05T07:45:40Z</time>
      </trkpt>
      <trkpt lat="45.958959795534611" lon="7.21128087490797">
        <ele>1640.1500000000001</ele>
        <time>2016-07-05T07:45:45Z</time>
      </trkpt>
      <trkpt lat="45.959064569324255" lon="7.211314486339688">
        <ele>1641.1099999999999</ele>
        <time>2016-07-05T07:45:56Z</time>
      </trkpt>
      <trkpt lat="45.959148975089192" lon="7.211344325914979">
        <ele>1642.0699999999999</ele>
        <time>2016-07-05T07:46:06Z</time>
      </trkpt>
      <trkpt lat="45.959201194345951" lon="7.211364442482591">
        <ele>1642.55</ele>
        <time>2016-07-05T07:46:14Z</time>
      </trkpt>
      <trkpt lat="45.959275625646114" lon="7.211387241259217">
        <ele>1643.99</ele>
        <time>2016-07-05T07:46:25Z</time>
      </trkpt>
      <trkpt lat="45.959352822974324" lon="7.211404088884592">
        <ele>1644.95</ele>
        <time>2016-07-05T07:46:34Z</time>
      </trkpt>
      <trkpt lat="45.959462877362967" lon="7.211456643417478">
        <ele>1645.9100000000001</ele>
        <time>2016-07-05T07:46:46Z</time>
      </trkpt>
      <trkpt lat="45.959547786042094" lon="7.211477681994438">
        <ele>1647.3599999999999</ele>
        <time>2016-07-05T07:46:54Z</time>
      </trkpt>
      <trkpt lat="45.959588270634413" lon="7.211479023098946">
        <ele>1647.8399999999999</ele>
        <time>2016-07-05T07:46:58Z</time>
      </trkpt>
      <trkpt lat="45.959685835987329" lon="7.211507186293602">
        <ele>1648.8</ele>
        <time>2016-07-05T07:47:09Z</time>
      </trkpt>
      <trkpt lat="45.959777031093836" lon="7.21155303530395">
        <ele>1649.76</ele>
        <time>2016-07-05T07:47:19Z</time>
      </trkpt>
      <trkpt lat="45.959866214543581" lon="7.21159846521914">
        <ele>1650.72</ele>
        <time>2016-07-05T07:47:29Z</time>
      </trkpt>
      <trkpt lat="45.959963779896498" lon="7.211596956476569">
        <ele>1652.1600000000001</ele>
        <time>2016-07-05T07:47:40Z</time>
      </trkpt>
      <trkpt lat="45.959985572844744" lon="7.211588909849525">
        <ele>1652.1600000000001</ele>
        <time>2016-07-05T07:47:42Z</time>
      </trkpt>
      <trkpt lat="45.960016334429383" lon="7.211591675877571">
        <ele>1652.6400000000001</ele>
        <time>2016-07-05T07:47:45Z</time>
      </trkpt>
      <trkpt lat="45.960137536749244" lon="7.211585473269224">
        <ele>1654.0899999999999</ele>
        <time>2016-07-05T07:47:57Z</time>
      </trkpt>
      <trkpt lat="45.960211548954248" lon="7.211606595665216">
        <ele>1655.05</ele>
        <time>2016-07-05T07:48:07Z</time>
      </trkpt>
      <trkpt lat="45.960303833708167" lon="7.211632411926985">
        <ele>1656.01</ele>
        <time>2016-07-05T07:48:17Z</time>
      </trkpt>
      <trkpt lat="45.960395783185959" lon="7.21165026538074">
        <ele>1656.49</ele>
        <time>2016-07-05T07:48:27Z</time>
      </trkpt>
      <trkpt lat="45.960483038797975" lon="7.211667783558369">
        <ele>1656.97</ele>
        <time>2016-07-05T07:48:36Z</time>
      </trkpt>
      <trkpt lat="45.960577838122845" lon="7.2116678673774">
        <ele>1657.9300000000001</ele>
        <time>2016-07-05T07:48:46Z</time>
      </trkpt>
      <trkpt lat="45.960666853934526" lon="7.211654707789421">
        <ele>1658.8900000000001</ele>
        <time>2016-07-05T07:48:55Z</time>
      </trkpt>
      <trkpt lat="45.960674146190286" lon="7.211651606485248">
        <ele>1658.8900000000001</ele>
        <time>2016-07-05T07:48:56Z</time>
      </trkpt>
      <trkpt lat="45.960770286619663" lon="7.211618749424815">
        <ele>1659.8499999999999</ele>
        <time>2016-07-05T07:49:06Z</time>
      </trkpt>
      <trkpt lat="45.960852345451713" lon="7.211607014760375">
        <ele>1659.8499999999999</ele>
        <time>2016-07-05T07:49:14Z</time>
      </trkpt>
      <trkpt lat="45.960967428982258" lon="7.211618581786752">
        <ele>1661.3</ele>
        <time>2016-07-05T07:49:28Z</time>
      </trkpt>
      <trkpt lat="45.961028281599283" lon="7.211616653949022">
        <ele>1661.78</ele>
        <time>2016-07-05T07:49:37Z</time>
      </trkpt>
      <trkpt lat="45.961103467270732" lon="7.211615480482578">
        <ele>1663.22</ele>
        <time>2016-07-05T07:49:47Z</time>
      </trkpt>
      <trkpt lat="45.961192231625319" lon="7.211609361693263">
        <ele>1664.1800000000001</ele>
        <time>2016-07-05T07:49:58Z</time>
      </trkpt>
      <trkpt lat="45.961279235780239" lon="7.211622772738338">
        <ele>1666.0999999999999</ele>
        <time>2016-07-05T07:50:10Z</time>
      </trkpt>
      <trkpt lat="45.961357522755861" lon="7.211658982560039">
        <ele>1667.54</ele>
        <time>2016-07-05T07:50:20Z</time>
      </trkpt>
      <trkpt lat="45.961464894935489" lon="7.211683373898268">
        <ele>1668.51</ele>
        <time>2016-07-05T07:50:34Z</time>
      </trkpt>
      <trkpt lat="45.961582409217954" lon="7.211698712781072">
        <ele>1670.4300000000001</ele>
        <time>2016-07-05T07:50:49Z</time>
      </trkpt>
      <trkpt lat="45.961655080318451" lon="7.211712878197432">
        <ele>1671.3900000000001</ele>
        <time>2016-07-05T07:50:59Z</time>
      </trkpt>
      <trkpt lat="45.961731523275375" lon="7.211732994765043">
        <ele>1673.3099999999999</ele>
        <time>2016-07-05T07:51:11Z</time>
      </trkpt>
      <trkpt lat="45.961787179112434" lon="7.21176509745419">
        <ele>1674.75</ele>
        <time>2016-07-05T07:51:22Z</time>
      </trkpt>
      <trkpt lat="45.96188080497086" lon="7.211833577603102">
        <ele>1676.2</ele>
        <time>2016-07-05T07:51:34Z</time>
      </trkpt>
      <trkpt lat="45.96194626763463" lon="7.211922844871879">
        <ele>1676.2</ele>
        <time>2016-07-05T07:51:43Z</time>
      </trkpt>
      <trkpt lat="45.961964875459671" lon="7.21193952485919">
        <ele>1676.2</ele>
        <time>2016-07-05T07:51:45Z</time>
      </trkpt>
      <trkpt lat="45.962062356993556" lon="7.211970454081893">
        <ele>1677.1600000000001</ele>
        <time>2016-07-05T07:51:56Z</time>
      </trkpt>
      <trkpt lat="45.962143745273352" lon="7.211972381919622">
        <ele>1678.1199999999999</ele>
        <time>2016-07-05T07:52:09Z</time>
      </trkpt>
      <trkpt lat="45.962248938158154" lon="7.211989816278219">
        <ele>1679.5599999999999</ele>
        <time>2016-07-05T07:52:22Z</time>
      </trkpt>
      <trkpt lat="45.962316496297717" lon="7.211977494880557">
        <ele>1681</ele>
        <time>2016-07-05T07:52:31Z</time>
      </trkpt>
      <trkpt lat="45.962380366399884" lon="7.21197028644383">
        <ele>1681.96</ele>
        <time>2016-07-05T07:52:40Z</time>
      </trkpt>
      <trkpt lat="45.962463933974504" lon="7.211975650861859">
        <ele>1683.8900000000001</ele>
        <time>2016-07-05T07:52:52Z</time>
      </trkpt>
      <trkpt lat="45.962539706379175" lon="7.211961736902595">
        <ele>1685.3299999999999</ele>
        <time>2016-07-05T07:53:03Z</time>
      </trkpt>
      <trkpt lat="45.962606677785516" lon="7.211947236210108">
        <ele>1686.77</ele>
        <time>2016-07-05T07:53:12Z</time>
      </trkpt>
      <trkpt lat="45.962690245360136" lon="7.211943380534649">
        <ele>1688.21</ele>
        <time>2016-07-05T07:53:23Z</time>
      </trkpt>
      <trkpt lat="45.962770963087678" lon="7.211936172097921">
        <ele>1689.6500000000001</ele>
        <time>2016-07-05T07:53:36Z</time>
      </trkpt>
      <trkpt lat="45.962830306962132" lon="7.211945643648505">
        <ele>1691.5799999999999</ele>
        <time>2016-07-05T07:53:47Z</time>
      </trkpt>
      <trkpt lat="45.962876575067639" lon="7.211957797408104">
        <ele>1692.54</ele>
        <time>2016-07-05T07:53:53Z</time>
      </trkpt>
      <trkpt lat="45.962941031903028" lon="7.211975231766701">
        <ele>1693.98</ele>
        <time>2016-07-05T07:54:03Z</time>
      </trkpt>
      <trkpt lat="45.963022504001856" lon="7.212037174031138">
        <ele>1695.9000000000001</ele>
        <time>2016-07-05T07:54:17Z</time>
      </trkpt>
      <trkpt lat="45.963077070191503" lon="7.212068773806095">
        <ele>1697.8299999999999</ele>
        <time>2016-07-05T07:54:29Z</time>
      </trkpt>
      <trkpt lat="45.96314731054008" lon="7.212117053568363">
        <ele>1699.75</ele>
        <time>2016-07-05T07:54:43Z</time>
      </trkpt>
      <trkpt lat="45.963203720748425" lon="7.212157789617777">
        <ele>1701.6700000000001</ele>
        <time>2016-07-05T07:54:54Z</time>
      </trkpt>
      <trkpt lat="45.963263232260942" lon="7.212170697748661">
        <ele>1703.1099999999999</ele>
        <time>2016-07-05T07:55:04Z</time>
      </trkpt>
      <trkpt lat="45.963360127061605" lon="7.21219995059073">
        <ele>1705.04</ele>
        <time>2016-07-05T07:55:17Z</time>
      </trkpt>
      <trkpt lat="45.963429696857929" lon="7.212267424911261">
        <ele>1706.48</ele>
        <time>2016-07-05T07:55:29Z</time>
      </trkpt>
      <trkpt lat="45.963511085137725" lon="7.212350741028786">
        <ele>1706.48</ele>
        <time>2016-07-05T07:55:39Z</time>
      </trkpt>
      <trkpt lat="45.963598759844899" lon="7.212435649707913">
        <ele>1707.4400000000001</ele>
        <time>2016-07-05T07:55:50Z</time>
      </trkpt>
      <trkpt lat="45.963655253872275" lon="7.212527934461832">
        <ele>1708.4000000000001</ele>
        <time>2016-07-05T07:56:00Z</time>
      </trkpt>
      <trkpt lat="45.963731864467263" lon="7.212552493438125">
        <ele>1709.8399999999999</ele>
        <time>2016-07-05T07:56:11Z</time>
      </trkpt>
      <trkpt lat="45.963760446757078" lon="7.212550230324268">
        <ele>1709.8399999999999</ele>
        <time>2016-07-05T07:56:14Z</time>
      </trkpt>
      <trkpt lat="45.963790453970432" lon="7.212554924190044">
        <ele>1710.3199999999999</ele>
        <time>2016-07-05T07:56:17Z</time>
      </trkpt>
      <trkpt lat="45.963876284658909" lon="7.212544362992048">
        <ele>1710.8</ele>
        <time>2016-07-05T07:56:29Z</time>
      </trkpt>
      <trkpt lat="45.963971167802811" lon="7.2125537507236">
        <ele>1712.25</ele>
        <time>2016-07-05T07:56:40Z</time>
      </trkpt>
      <trkpt lat="45.964049622416496" lon="7.212601862847805">
        <ele>1713.21</ele>
        <time>2016-07-05T07:56:50Z</time>
      </trkpt>
      <trkpt lat="45.964076947420835" lon="7.212635390460491">
        <ele>1713.6900000000001</ele>
        <time>2016-07-05T07:56:54Z</time>
      </trkpt>
      <trkpt lat="45.964120030403137" lon="7.212687274441123">
        <ele>1714.1700000000001</ele>
        <time>2016-07-05T07:57:00Z</time>
      </trkpt>
      <trkpt lat="45.964196976274252" lon="7.212734716013074">
        <ele>1715.1300000000001</ele>
        <time>2016-07-05T07:57:10Z</time>
      </trkpt>
      <trkpt lat="45.964296385645866" lon="7.2127506416291">
        <ele>1716.5699999999999</ele>
        <time>2016-07-05T07:57:20Z</time>
      </trkpt>
      <trkpt lat="45.964387329295278" lon="7.212773524224758">
        <ele>1717.53</ele>
        <time>2016-07-05T07:57:32Z</time>
      </trkpt>
      <trkpt lat="45.964472154155374" lon="7.212812919169664">
        <ele>1718.97</ele>
        <time>2016-07-05T07:57:42Z</time>
      </trkpt>
      <trkpt lat="45.964560834690928" lon="7.212846027687192">
        <ele>1719.9400000000001</ele>
        <time>2016-07-05T07:57:54Z</time>
      </trkpt>
      <trkpt lat="45.964629482477903" lon="7.21288257278502">
        <ele>1720.9000000000001</ele>
        <time>2016-07-05T07:58:04Z</time>
      </trkpt>
      <trkpt lat="45.964705673977733" lon="7.212915094569325">
        <ele>1722.8199999999999</ele>
        <time>2016-07-05T07:58:16Z</time>
      </trkpt>
      <trkpt lat="45.964793600142002" lon="7.212936384603381">
        <ele>1724.26</ele>
        <time>2016-07-05T07:58:27Z</time>
      </trkpt>
      <trkpt lat="45.964892422780395" lon="7.212952561676502">
        <ele>1726.1800000000001</ele>
        <time>2016-07-05T07:58:40Z</time>
      </trkpt>
      <trkpt lat="45.964956125244498" lon="7.21299790777266">
        <ele>1727.6300000000001</ele>
        <time>2016-07-05T07:58:50Z</time>
      </trkpt>
      <trkpt lat="45.965009685605764" lon="7.213020958006382">
        <ele>1728.5899999999999</ele>
        <time>2016-07-05T07:59:00Z</time>
      </trkpt>
      <trkpt lat="45.965077076107264" lon="7.213102346286178">
        <ele>1730.03</ele>
        <time>2016-07-05T07:59:13Z</time>
      </trkpt>
      <trkpt lat="45.965145640075207" lon="7.213173508644104">
        <ele>1731.47</ele>
        <time>2016-07-05T07:59:24Z</time>
      </trkpt>
      <trkpt lat="45.965212695300579" lon="7.213224722072482">
        <ele>1732.4300000000001</ele>
        <time>2016-07-05T07:59:34Z</time>
      </trkpt>
      <trkpt lat="45.965257873758674" lon="7.213302170857787">
        <ele>1733.8800000000001</ele>
        <time>2016-07-05T07:59:43Z</time>
      </trkpt>
      <trkpt lat="45.965217724442482" lon="7.213353803381324">
        <ele>1734.8399999999999</ele>
        <time>2016-07-05T07:59:52Z</time>
      </trkpt>
      <trkpt lat="45.965140024200082" lon="7.213314324617386">
        <ele>1736.76</ele>
        <time>2016-07-05T08:00:03Z</time>
      </trkpt>
      <trkpt lat="45.965053187683225" lon="7.213299907743931">
        <ele>1738.6800000000001</ele>
        <time>2016-07-05T08:00:15Z</time>
      </trkpt>
      <trkpt lat="45.964970793575048" lon="7.213291693478823">
        <ele>1740.5999999999999</ele>
        <time>2016-07-05T08:00:27Z</time>
      </trkpt>
      <trkpt lat="45.964892422780395" lon="7.213297393172979">
        <ele>1742.05</ele>
        <time>2016-07-05T08:00:39Z</time>
      </trkpt>
      <trkpt lat="45.964823272079229" lon="7.213342068716884">
        <ele>1743.49</ele>
        <time>2016-07-05T08:00:49Z</time>
      </trkpt>
      <trkpt lat="45.964763425290585" lon="7.213382553309202">
        <ele>1745.4100000000001</ele>
        <time>2016-07-05T08:01:00Z</time>
      </trkpt>
      <trkpt lat="45.964691424742341" lon="7.213391941040754">
        <ele>1746.3699999999999</ele>
        <time>2016-07-05T08:01:11Z</time>
      </trkpt>
      <trkpt lat="45.964602828025818" lon="7.213395377621055">
        <ele>1747.8099999999999</ele>
        <time>2016-07-05T08:01:23Z</time>
      </trkpt>
      <trkpt lat="45.964484978467226" lon="7.213378781452775">
        <ele>1749.74</ele>
        <time>2016-07-05T08:01:35Z</time>
      </trkpt>
      <trkpt lat="45.964403003454208" lon="7.21339856274426">
        <ele>1750.7</ele>
        <time>2016-07-05T08:01:46Z</time>
      </trkpt>
      <trkpt lat="45.964361429214478" lon="7.213441981002688">
        <ele>1752.6199999999999</ele>
        <time>2016-07-05T08:01:56Z</time>
      </trkpt>
      <trkpt lat="45.964366542175412" lon="7.213503168895841">
        <ele>1753.5799999999999</ele>
        <time>2016-07-05T08:02:06Z</time>
      </trkpt>
      <trkpt lat="45.964449942111969" lon="7.213464193046093">
        <ele>1755.5</ele>
        <time>2016-07-05T08:02:18Z</time>
      </trkpt>
      <trkpt lat="45.964531078934669" lon="7.213498894125223">
        <ele>1756.47</ele>
        <time>2016-07-05T08:02:27Z</time>
      </trkpt>
      <trkpt lat="45.964603247120976" lon="7.213583216071129">
        <ele>1757.9100000000001</ele>
        <time>2016-07-05T08:02:39Z</time>
      </trkpt>
      <trkpt lat="45.964681450277567" lon="7.213616659864783">
        <ele>1759.3499999999999</ele>
        <time>2016-07-05T08:02:49Z</time>
      </trkpt>
      <trkpt lat="45.964778764173388" lon="7.213624874129891">
        <ele>1760.79</ele>
        <time>2016-07-05T08:03:02Z</time>
      </trkpt>
      <trkpt lat="45.964851602911949" lon="7.213701568543911">
        <ele>1761.75</ele>
        <time>2016-07-05T08:03:12Z</time>
      </trkpt>
      <trkpt lat="45.964858727529645" lon="7.213793098926544">
        <ele>1762.71</ele>
        <time>2016-07-05T08:03:21Z</time>
      </trkpt>
      <trkpt lat="45.964861661195755" lon="7.213804079219699">
        <ele>1762.71</ele>
        <time>2016-07-05T08:03:22Z</time>
      </trkpt>
      <trkpt lat="45.964836766943336" lon="7.213915474712849">
        <ele>1764.1600000000001</ele>
        <time>2016-07-05T08:03:32Z</time>
      </trkpt>
      <trkpt lat="45.964815141633153" lon="7.214021002873778">
        <ele>1765.5999999999999</ele>
        <time>2016-07-05T08:03:41Z</time>
      </trkpt>
      <trkpt lat="45.964817991480231" lon="7.214111695066094">
        <ele>1766.5599999999999</ele>
        <time>2016-07-05T08:03:49Z</time>
      </trkpt>
      <trkpt lat="45.964810447767377" lon="7.2141925804317">
        <ele>1768</ele>
        <time>2016-07-05T08:03:58Z</time>
      </trkpt>
      <trkpt lat="45.964819751679897" lon="7.214270615950227">
        <ele>1769.9200000000001</ele>
        <time>2016-07-05T08:04:08Z</time>
      </trkpt>
      <trkpt lat="45.964900134131312" lon="7.214332139119506">
        <ele>1770.8900000000001</ele>
        <time>2016-07-05T08:04:18Z</time>
      </trkpt>
      <trkpt lat="45.964987808838487" lon="7.214332642033696">
        <ele>1771.8499999999999</ele>
        <time>2016-07-05T08:04:29Z</time>
      </trkpt>
      <trkpt lat="45.9650959353894" lon="7.214354434981942">
        <ele>1773.29</ele>
        <time>2016-07-05T08:04:40Z</time>
      </trkpt>
      <trkpt lat="45.965193081647158" lon="7.214348567649722">
        <ele>1775.21</ele>
        <time>2016-07-05T08:04:52Z</time>
      </trkpt>
      <trkpt lat="45.965275643393397" lon="7.214360050857067">
        <ele>1777.1300000000001</ele>
        <time>2016-07-05T08:05:04Z</time>
      </trkpt>
      <trkpt lat="45.965350158512592" lon="7.214421909302473">
        <ele>1778.5799999999999</ele>
        <time>2016-07-05T08:05:15Z</time>
      </trkpt>
      <trkpt lat="45.96539449878037" lon="7.214519893750548">
        <ele>1780.02</ele>
        <time>2016-07-05T08:05:26Z</time>
      </trkpt>
      <trkpt lat="45.965402461588383" lon="7.214621314778924">
        <ele>1781.46</ele>
        <time>2016-07-05T08:05:35Z</time>
      </trkpt>
      <trkpt lat="45.965386452153325" lon="7.2147296089679">
        <ele>1782.9000000000001</ele>
        <time>2016-07-05T08:05:45Z</time>
      </trkpt>
      <trkpt lat="45.965384608134627" lon="7.214787863194943">
        <ele>1783.8599999999999</ele>
        <time>2016-07-05T08:05:50Z</time>
      </trkpt>
      <trkpt lat="45.965413609519601" lon="7.214906718581915">
        <ele>1784.3399999999999</ele>
        <time>2016-07-05T08:06:00Z</time>
      </trkpt>
      <trkpt lat="45.965413022786379" lon="7.214937647804618">
        <ele>1784.8199999999999</ele>
        <time>2016-07-05T08:06:03Z</time>
      </trkpt>
      <trkpt lat="45.965421823784709" lon="7.214967822656035">
        <ele>1784.8199999999999</ele>
        <time>2016-07-05T08:06:06Z</time>
      </trkpt>
      <trkpt lat="45.965474713593721" lon="7.215046528726816">
        <ele>1786.27</ele>
        <time>2016-07-05T08:06:15Z</time>
      </trkpt>
      <trkpt lat="45.96553179435432" lon="7.215128922834992">
        <ele>1787.71</ele>
        <time>2016-07-05T08:06:26Z</time>
      </trkpt>
      <trkpt lat="45.965590048581362" lon="7.215148452669382">
        <ele>1789.1500000000001</ele>
        <time>2016-07-05T08:06:36Z</time>
      </trkpt>
      <trkpt lat="45.965650649741292" lon="7.215043595060706">
        <ele>1791.0699999999999</ele>
        <time>2016-07-05T08:06:48Z</time>
      </trkpt>
      <trkpt lat="45.965649308636785" lon="7.214964386075735">
        <ele>1792.52</ele>
        <time>2016-07-05T08:06:57Z</time>
      </trkpt>
      <trkpt lat="45.965649643912911" lon="7.214943431317806">
        <ele>1793</ele>
        <time>2016-07-05T08:07:00Z</time>
      </trkpt>
      <trkpt lat="45.965719381347299" lon="7.214871430769563">
        <ele>1794.4400000000001</ele>
        <time>2016-07-05T08:07:11Z</time>
      </trkpt>
      <trkpt lat="45.965794147923589" lon="7.214823067188263">
        <ele>1796.3599999999999</ele>
        <time>2016-07-05T08:07:22Z</time>
      </trkpt>
      <trkpt lat="45.965871345251799" lon="7.214796245098114">
        <ele>1798.28</ele>
        <time>2016-07-05T08:07:35Z</time>
      </trkpt>
      <trkpt lat="45.965948291122913" lon="7.214810997247696">
        <ele>1800.21</ele>
        <time>2016-07-05T08:07:46Z</time>
      </trkpt>
      <trkpt lat="45.966036301106215" lon="7.214859277009964">
        <ele>1801.6500000000001</ele>
        <time>2016-07-05T08:07:58Z</time>
      </trkpt>
      <trkpt lat="45.966043761000037" lon="7.214859947562218">
        <ele>1801.6500000000001</ele>
        <time>2016-07-05T08:07:59Z</time>
      </trkpt>
      <trkpt lat="45.966145014390349" lon="7.214887104928494">
        <ele>1803.0899999999999</ele>
        <time>2016-07-05T08:08:12Z</time>
      </trkpt>
      <trkpt lat="45.966230928897858" lon="7.214934211224318">
        <ele>1805.01</ele>
        <time>2016-07-05T08:08:24Z</time>
      </trkpt>
      <trkpt lat="45.96630728803575" lon="7.215004786849022">
        <ele>1806.45</ele>
        <time>2016-07-05T08:08:35Z</time>
      </trkpt>
      <trkpt lat="45.966354394331574" lon="7.215004535391927">
        <ele>1807.4200000000001</ele>
        <time>2016-07-05T08:08:42Z</time>
      </trkpt>
      <trkpt lat="45.966379288583994" lon="7.215004786849022">
        <ele>1807.9000000000001</ele>
        <time>2016-07-05T08:08:45Z</time>
      </trkpt>
      <trkpt lat="45.96646218560636" lon="7.214984921738505">
        <ele>1809.3399999999999</ele>
        <time>2016-07-05T08:08:56Z</time>
      </trkpt>
      <trkpt lat="45.966570815071464" lon="7.215001937001944">
        <ele>1811.26</ele>
        <time>2016-07-05T08:09:09Z</time>
      </trkpt>
      <trkpt lat="45.966645916923881" lon="7.215013168752194">
        <ele>1812.7</ele>
        <time>2016-07-05T08:09:19Z</time>
      </trkpt>
      <trkpt lat="45.966669302433729" lon="7.215017024427652">
        <ele>1812.7</ele>
        <time>2016-07-05T08:09:22Z</time>
      </trkpt>
      <trkpt lat="45.966751864179969" lon="7.215082738548517">
        <ele>1814.6300000000001</ele>
        <time>2016-07-05T08:09:34Z</time>
      </trkpt>
      <trkpt lat="45.96683107316494" lon="7.215135376900435">
        <ele>1816.0699999999999</ele>
        <time>2016-07-05T08:09:46Z</time>
      </trkpt>
      <trkpt lat="45.966901229694486" lon="7.215170916169882">
        <ele>1817.51</ele>
        <time>2016-07-05T08:09:56Z</time>
      </trkpt>
      <trkpt lat="45.966965099796653" lon="7.215239061042666">
        <ele>1818.95</ele>
        <time>2016-07-05T08:10:06Z</time>
      </trkpt>
      <trkpt lat="45.967001896351576" lon="7.215337380766869">
        <ele>1820.3900000000001</ele>
        <time>2016-07-05T08:10:15Z</time>
      </trkpt>
      <trkpt lat="45.967019749805331" lon="7.215431928634644">
        <ele>1821.8399999999999</ele>
        <time>2016-07-05T08:10:25Z</time>
      </trkpt>
      <trkpt lat="45.967034250497818" lon="7.215549862012267">
        <ele>1823.76</ele>
        <time>2016-07-05T08:10:37Z</time>
      </trkpt>
      <trkpt lat="45.967041878029704" lon="7.215676596388221">
        <ele>1825.6800000000001</ele>
        <time>2016-07-05T08:10:48Z</time>
      </trkpt>
      <trkpt lat="45.967070963233709" lon="7.215761002153158">
        <ele>1827.1199999999999</ele>
        <time>2016-07-05T08:10:57Z</time>
      </trkpt>
      <trkpt lat="45.967101808637381" lon="7.215868039056659">
        <ele>1828.5599999999999</ele>
        <time>2016-07-05T08:11:08Z</time>
      </trkpt>
      <trkpt lat="45.967119829729199" lon="7.215898716822267">
        <ele>1829.05</ele>
        <time>2016-07-05T08:11:12Z</time>
      </trkpt>
      <trkpt lat="45.967171546071768" lon="7.216015895828605">
        <ele>1830.49</ele>
        <time>2016-07-05T08:11:24Z</time>
      </trkpt>
      <trkpt lat="45.967212785035372" lon="7.216118322685361">
        <ele>1831.9300000000001</ele>
        <time>2016-07-05T08:11:34Z</time>
      </trkpt>
      <trkpt lat="45.967222340404987" lon="7.216144474223256">
        <ele>1831.9300000000001</ele>
        <time>2016-07-05T08:11:36Z</time>
      </trkpt>
      <trkpt lat="45.967247318476439" lon="7.216228963807225">
        <ele>1832.8900000000001</ele>
        <time>2016-07-05T08:11:44Z</time>
      </trkpt>
      <trkpt lat="45.96726156771183" lon="7.21626047976315">
        <ele>1833.8499999999999</ele>
        <time>2016-07-05T08:11:47Z</time>
      </trkpt>
      <trkpt lat="45.96728352829814" lon="7.2162941750139">
        <ele>1834.3299999999999</ele>
        <time>2016-07-05T08:11:52Z</time>
      </trkpt>
      <trkpt lat="45.967349074780941" lon="7.216372210532427">
        <ele>1835.77</ele>
        <time>2016-07-05T08:12:02Z</time>
      </trkpt>
      <trkpt lat="45.967429541051388" lon="7.216456029564142">
        <ele>1837.22</ele>
        <time>2016-07-05T08:12:14Z</time>
      </trkpt>
      <trkpt lat="45.967492237687111" lon="7.21652333624661">
        <ele>1838.6600000000001</ele>
        <time>2016-07-05T08:12:25Z</time>
      </trkpt>
      <trkpt lat="45.967559712007642" lon="7.216562144458294">
        <ele>1840.5799999999999</ele>
        <time>2016-07-05T08:12:36Z</time>
      </trkpt>
      <trkpt lat="45.967639675363898" lon="7.216614028438926">
        <ele>1841.54</ele>
        <time>2016-07-05T08:12:45Z</time>
      </trkpt>
      <trkpt lat="45.96773162484169" lon="7.216618554666638">
        <ele>1842.98</ele>
        <time>2016-07-05T08:12:55Z</time>
      </trkpt>
      <trkpt lat="45.967738749459386" lon="7.21659910865128">
        <ele>1842.5</ele>
        <time>2016-07-05T08:12:57Z</time>
      </trkpt>
      <trkpt lat="45.967755597084761" lon="7.216523252427578">
        <ele>1843.47</ele>
        <time>2016-07-05T08:13:04Z</time>
      </trkpt>
      <trkpt lat="45.967760877683759" lon="7.216456867754459">
        <ele>1843.95</ele>
        <time>2016-07-05T08:13:10Z</time>
      </trkpt>
      <trkpt lat="45.96783229149878" lon="7.216313621029258">
        <ele>1845.3900000000001</ele>
        <time>2016-07-05T08:13:22Z</time>
      </trkpt>
      <trkpt lat="45.967911668121815" lon="7.21622628159821">
        <ele>1846.3499999999999</ele>
        <time>2016-07-05T08:13:34Z</time>
      </trkpt>
      <trkpt lat="45.967965479940176" lon="7.216134080663323">
        <ele>1848.27</ele>
        <time>2016-07-05T08:13:45Z</time>
      </trkpt>
      <trkpt lat="45.968027589842677" lon="7.216023942455649">
        <ele>1850.1900000000001</ele>
        <time>2016-07-05T08:13:56Z</time>
      </trkpt>
      <trkpt lat="45.968087771907449" lon="7.215955797582865">
        <ele>1851.1600000000001</ele>
        <time>2016-07-05T08:14:06Z</time>
      </trkpt>
      <trkpt lat="45.968144685029984" lon="7.215932328253985">
        <ele>1852.1199999999999</ele>
        <time>2016-07-05T08:14:18Z</time>
      </trkpt>
      <trkpt lat="45.968223391100764" lon="7.215847922489047">
        <ele>1853.5599999999999</ele>
        <time>2016-07-05T08:14:29Z</time>
      </trkpt>
      <trkpt lat="45.968264294788241" lon="7.215785728767514">
        <ele>1854.52</ele>
        <time>2016-07-05T08:14:37Z</time>
      </trkpt>
      <trkpt lat="45.968302600085735" lon="7.215734347701073">
        <ele>1855.48</ele>
        <time>2016-07-05T08:14:43Z</time>
      </trkpt>
      <trkpt lat="45.968399662524462" lon="7.215696461498737">
        <ele>1857.4000000000001</ele>
        <time>2016-07-05T08:14:55Z</time>
      </trkpt>
      <trkpt lat="45.968475686386228" lon="7.215748177841306">
        <ele>1858.8499999999999</ele>
        <time>2016-07-05T08:15:07Z</time>
      </trkpt>
      <trkpt lat="45.968547100201249" lon="7.215805761516094">
        <ele>1860.77</ele>
        <time>2016-07-05T08:15:17Z</time>
      </trkpt>
      <trkpt lat="45.968590015545487" lon="7.215888323262334">
        <ele>1862.21</ele>
        <time>2016-07-05T08:15:26Z</time>
      </trkpt>
      <trkpt lat="45.968665452674031" lon="7.215959401801229">
        <ele>1863.6500000000001</ele>
        <time>2016-07-05T08:15:37Z</time>
      </trkpt>
      <trkpt lat="45.968739883974195" lon="7.216012878343463">
        <ele>1865.5799999999999</ele>
        <time>2016-07-05T08:15:48Z</time>
      </trkpt>
      <trkpt lat="45.968813560903072" lon="7.21607037819922">
        <ele>1867.5</ele>
        <time>2016-07-05T08:16:00Z</time>
      </trkpt>
      <trkpt lat="45.968906516209245" lon="7.216173140332103">
        <ele>1869.4200000000001</ele>
        <time>2016-07-05T08:16:13Z</time>
      </trkpt>
      <trkpt lat="45.968959992751479" lon="7.216245224699378">
        <ele>1870.8599999999999</ele>
        <time>2016-07-05T08:16:23Z</time>
      </trkpt>
      <trkpt lat="45.969017911702394" lon="7.21632300876081">
        <ele>1872.3</ele>
        <time>2016-07-05T08:16:33Z</time>
      </trkpt>
      <trkpt lat="45.969028808176517" lon="7.216335749253631">
        <ele>1872.79</ele>
        <time>2016-07-05T08:16:35Z</time>
      </trkpt>
      <trkpt lat="45.96907390281558" lon="7.216396350413561">
        <ele>1873.27</ele>
        <time>2016-07-05T08:16:42Z</time>
      </trkpt>
      <trkpt lat="45.969097958877683" lon="7.216421831399202">
        <ele>1873.75</ele>
        <time>2016-07-05T08:16:46Z</time>
      </trkpt>
      <trkpt lat="45.969113046303391" lon="7.216450497508049">
        <ele>1874.23</ele>
        <time>2016-07-05T08:16:49Z</time>
      </trkpt>
      <trkpt lat="45.969168618321419" lon="7.21651260741055">
        <ele>1875.6700000000001</ele>
        <time>2016-07-05T08:16:59Z</time>
      </trkpt>
      <trkpt lat="45.969247072935104" lon="7.216563066467643">
        <ele>1877.1099999999999</ele>
        <time>2016-07-05T08:17:09Z</time>
      </trkpt>
      <trkpt lat="45.969270877540112" lon="7.216578740626574">
        <ele>1877.1099999999999</ele>
        <time>2016-07-05T08:17:12Z</time>
      </trkpt>
      <trkpt lat="45.969334999099374" lon="7.216638922691345">
        <ele>1878.55</ele>
        <time>2016-07-05T08:17:22Z</time>
      </trkpt>
      <trkpt lat="45.969398450106382" lon="7.21666457131505">
        <ele>1880</ele>
        <time>2016-07-05T08:17:30Z</time>
      </trkpt>
      <trkpt lat="45.969493752345443" lon="7.216661302372813">
        <ele>1880.96</ele>
        <time>2016-07-05T08:17:41Z</time>
      </trkpt>
      <trkpt lat="45.969570782035589" lon="7.21660397015512">
        <ele>1882.8800000000001</ele>
        <time>2016-07-05T08:17:52Z</time>
      </trkpt>
      <trkpt lat="45.96965879201889" lon="7.216561390087009">
        <ele>1884.3199999999999</ele>
        <time>2016-07-05T08:18:03Z</time>
      </trkpt>
      <trkpt lat="45.969734229147434" lon="7.216542195528746">
        <ele>1885.76</ele>
        <time>2016-07-05T08:18:12Z</time>
      </trkpt>
      <trkpt lat="45.969771947711706" lon="7.216518055647612">
        <ele>1886.24</ele>
        <time>2016-07-05T08:18:17Z</time>
      </trkpt>
      <trkpt lat="45.969834644347429" lon="7.216434152796865">
        <ele>1887.6900000000001</ele>
        <time>2016-07-05T08:18:27Z</time>
      </trkpt>
      <trkpt lat="45.969881247729063" lon="7.216341700404882">
        <ele>1889.6099999999999</ele>
        <time>2016-07-05T08:18:37Z</time>
      </trkpt>
      <trkpt lat="45.969948386773467" lon="7.216262491419911">
        <ele>1891.53</ele>
        <time>2016-07-05T08:18:48Z</time>
      </trkpt>
      <trkpt lat="45.969966407865286" lon="7.216255534440279">
        <ele>1891.53</ele>
        <time>2016-07-05T08:18:50Z</time>
      </trkpt>
      <trkpt lat="45.969994654878974" lon="7.216229299083352">
        <ele>1892.01</ele>
        <time>2016-07-05T08:18:54Z</time>
      </trkpt>
      <trkpt lat="45.97005408257246" lon="7.216163165867329">
        <ele>1892.97</ele>
        <time>2016-07-05T08:19:03Z</time>
      </trkpt>
      <trkpt lat="45.9700623806566" lon="7.216149251908064">
        <ele>1893.45</ele>
        <time>2016-07-05T08:19:05Z</time>
      </trkpt>
      <trkpt lat="45.970107307657599" lon="7.216057386249304">
        <ele>1894.9000000000001</ele>
        <time>2016-07-05T08:19:14Z</time>
      </trkpt>
      <trkpt lat="45.970152653753757" lon="7.215916654095054">
        <ele>1896.3399999999999</ele>
        <time>2016-07-05T08:19:26Z</time>
      </trkpt>
      <trkpt lat="45.97024217247963" lon="7.21585538238287">
        <ele>1898.26</ele>
        <time>2016-07-05T08:19:38Z</time>
      </trkpt>
      <trkpt lat="45.970249297097325" lon="7.215853370726109">
        <ele>1898.26</ele>
        <time>2016-07-05T08:19:39Z</time>
      </trkpt>
      <trkpt lat="45.970309898257256" lon="7.215925455093384">
        <ele>1899.7</ele>
        <time>2016-07-05T08:19:49Z</time>
      </trkpt>
      <trkpt lat="45.97029154188931" lon="7.216030061244965">
        <ele>1901.6300000000001</ele>
        <time>2016-07-05T08:19:58Z</time>
      </trkpt>
      <trkpt lat="45.970284752547741" lon="7.216125698760152">
        <ele>1903.0699999999999</ele>
        <time>2016-07-05T08:20:06Z</time>
      </trkpt>
      <trkpt lat="45.970278298482299" lon="7.216244386509061">
        <ele>1904.03</ele>
        <time>2016-07-05T08:20:16Z</time>
      </trkpt>
      <trkpt lat="45.970261869952083" lon="7.21636064350605">
        <ele>1905.47</ele>
        <time>2016-07-05T08:20:25Z</time>
      </trkpt>
      <trkpt lat="45.970213003456593" lon="7.216457538306713">
        <ele>1906.4300000000001</ele>
        <time>2016-07-05T08:20:35Z</time>
      </trkpt>
      <trkpt lat="45.970181068405509" lon="7.216540351510048">
        <ele>1907.3900000000001</ele>
        <time>2016-07-05T08:20:44Z</time>
      </trkpt>
      <trkpt lat="45.9701435174793" lon="7.216578489169478">
        <ele>1907.8699999999999</ele>
        <time>2016-07-05T08:20:56Z</time>
      </trkpt>
      <trkpt lat="45.970127172768116" lon="7.216691728681326">
        <ele>1909.3199999999999</ele>
        <time>2016-07-05T08:21:05Z</time>
      </trkpt>
      <trkpt lat="45.970127508044243" lon="7.216804716736078">
        <ele>1911.24</ele>
        <time>2016-07-05T08:21:14Z</time>
      </trkpt>
      <trkpt lat="45.970108732581139" lon="7.216960033401847">
        <ele>1912.2</ele>
        <time>2016-07-05T08:21:26Z</time>
      </trkpt>
      <trkpt lat="45.970081156119704" lon="7.217038068920374">
        <ele>1913.6400000000001</ele>
        <time>2016-07-05T08:21:33Z</time>
      </trkpt>
      <trkpt lat="45.970029691234231" lon="7.217162037268281">
        <ele>1915.0799999999999</ele>
        <time>2016-07-05T08:21:45Z</time>
      </trkpt>
      <trkpt lat="45.969975627958775" lon="7.217269325628877">
        <ele>1916.53</ele>
        <time>2016-07-05T08:21:56Z</time>
      </trkpt>
      <trkpt lat="45.969937155023217" lon="7.21733788959682">
        <ele>1917.97</ele>
        <time>2016-07-05T08:22:03Z</time>
      </trkpt>
      <trkpt lat="45.9699104167521" lon="7.217359850183129">
        <ele>1918.45</ele>
        <time>2016-07-05T08:22:07Z</time>
      </trkpt>
      <trkpt lat="45.969880912452936" lon="7.217400167137384">
        <ele>1918.9300000000001</ele>
        <time>2016-07-05T08:22:12Z</time>
      </trkpt>
      <trkpt lat="45.969808241352439" lon="7.217485243454576">
        <ele>1920.3699999999999</ele>
        <time>2016-07-05T08:22:23Z</time>
      </trkpt>
      <trkpt lat="45.969739928841591" lon="7.217563195154071">
        <ele>1921.8099999999999</ele>
        <time>2016-07-05T08:22:33Z</time>
      </trkpt>
      <trkpt lat="45.969680836424232" lon="7.217608205974102">
        <ele>1923.25</ele>
        <time>2016-07-05T08:22:41Z</time>
      </trkpt>
      <trkpt lat="45.969593832269311" lon="7.217678613960743">
        <ele>1924.7</ele>
        <time>2016-07-05T08:22:53Z</time>
      </trkpt>
      <trkpt lat="45.969498613849282" lon="7.21773854456842">
        <ele>1926.6199999999999</ele>
        <time>2016-07-05T08:23:06Z</time>
      </trkpt>
      <trkpt lat="45.969416135922074" lon="7.217793026939035">
        <ele>1928.0599999999999</ele>
        <time>2016-07-05T08:23:17Z</time>
      </trkpt>
      <trkpt lat="45.969320582225919" lon="7.21782504580915">
        <ele>1929.5</ele>
        <time>2016-07-05T08:23:29Z</time>
      </trkpt>
      <trkpt lat="45.969238691031933" lon="7.217876091599464">
        <ele>1931.9100000000001</ele>
        <time>2016-07-05T08:23:42Z</time>
      </trkpt>
      <trkpt lat="45.969265764579177" lon="7.217954462394118">
        <ele>1933.8299999999999</ele>
        <time>2016-07-05T08:23:53Z</time>
      </trkpt>
      <trkpt lat="45.969331730157137" lon="7.217950858175755">
        <ele>1935.27</ele>
        <time>2016-07-05T08:24:02Z</time>
      </trkpt>
      <trkpt lat="45.969421500340104" lon="7.217958066612482">
        <ele>1936.71</ele>
        <time>2016-07-05T08:24:12Z</time>
      </trkpt>
      <trkpt lat="45.969476150348783" lon="7.217972483485937">
        <ele>1937.1900000000001</ele>
        <time>2016-07-05T08:24:19Z</time>
      </trkpt>
      <trkpt lat="45.969569440931082" lon="7.217982457950711">
        <ele>1938.6400000000001</ele>
        <time>2016-07-05T08:24:30Z</time>
      </trkpt>
      <trkpt lat="45.969641357660294" lon="7.217976422980428">
        <ele>1939.5999999999999</ele>
        <time>2016-07-05T08:24:40Z</time>
      </trkpt>
      <trkpt lat="45.969709753990173" lon="7.217970723286271">
        <ele>1941.04</ele>
        <time>2016-07-05T08:24:50Z</time>
      </trkpt>
      <trkpt lat="45.969790304079652" lon="7.217981535941362">
        <ele>1942.48</ele>
        <time>2016-07-05T08:25:00Z</time>
      </trkpt>
      <trkpt lat="45.969876302406192" lon="7.217976255342364">
        <ele>1943.9200000000001</ele>
        <time>2016-07-05T08:25:12Z</time>
      </trkpt>
      <trkpt lat="45.969971520826221" lon="7.217970974743366">
        <ele>1945.3599999999999</ele>
        <time>2016-07-05T08:25:23Z</time>
      </trkpt>
      <trkpt lat="45.970055591315031" lon="7.217981368303299">
        <ele>1946.8099999999999</ele>
        <time>2016-07-05T08:25:33Z</time>
      </trkpt>
      <trkpt lat="45.970128094777465" lon="7.218006178736687">
        <ele>1948.25</ele>
        <time>2016-07-05T08:25:42Z</time>
      </trkpt>
      <trkpt lat="45.97020654939115" lon="7.21804054453969">
        <ele>1949.6900000000001</ele>
        <time>2016-07-05T08:25:52Z</time>
      </trkpt>
      <trkpt lat="45.970278969034553" lon="7.218048088252544">
        <ele>1950.6500000000001</ele>
        <time>2016-07-05T08:26:01Z</time>
      </trkpt>
      <trkpt lat="45.970351807773113" lon="7.218047836795449">
        <ele>1952.5699999999999</ele>
        <time>2016-07-05T08:26:12Z</time>
      </trkpt>
      <trkpt lat="45.970444679260254" lon="7.218057811260223">
        <ele>1954.02</ele>
        <time>2016-07-05T08:26:23Z</time>
      </trkpt>
      <trkpt lat="45.970525480806828" lon="7.218075748533011">
        <ele>1955.46</ele>
        <time>2016-07-05T08:26:33Z</time>
      </trkpt>
      <trkpt lat="45.970615418627858" lon="7.21805764362216">
        <ele>1956.9000000000001</ele>
        <time>2016-07-05T08:26:45Z</time>
      </trkpt>
      <trkpt lat="45.970691274851561" lon="7.218041718006134">
        <ele>1958.3399999999999</ele>
        <time>2016-07-05T08:26:56Z</time>
      </trkpt>
      <trkpt lat="45.970751708373427" lon="7.218014476820827">
        <ele>1959.78</ele>
        <time>2016-07-05T08:27:05Z</time>
      </trkpt>
      <trkpt lat="45.970826307311654" lon="7.218003077432513">
        <ele>1961.23</ele>
        <time>2016-07-05T08:27:16Z</time>
      </trkpt>
      <trkpt lat="45.97090870141983" lon="7.21798874437809">
        <ele>1963.1500000000001</ele>
        <time>2016-07-05T08:27:28Z</time>
      </trkpt>
      <trkpt lat="45.970997717231512" lon="7.217972818762064">
        <ele>1965.0699999999999</ele>
        <time>2016-07-05T08:27:40Z</time>
      </trkpt>
      <trkpt lat="45.971087655052543" lon="7.217958904802799">
        <ele>1966.99</ele>
        <time>2016-07-05T08:27:53Z</time>
      </trkpt>
      <trkpt lat="45.971141802147031" lon="7.217932250350714">
        <ele>1968.4400000000001</ele>
        <time>2016-07-05T08:28:03Z</time>
      </trkpt>
      <trkpt lat="45.971203912049532" lon="7.217860668897629">
        <ele>1970.3599999999999</ele>
        <time>2016-07-05T08:28:14Z</time>
      </trkpt>
      <trkpt lat="45.971216065809131" lon="7.217825464904308">
        <ele>1970.8399999999999</ele>
        <time>2016-07-05T08:28:25Z</time>
      </trkpt>
      <trkpt lat="45.971180694177747" lon="7.2178172506392">
        <ele>1970.3599999999999</ele>
        <time>2016-07-05T08:28:35Z</time>
      </trkpt>
      <trkpt lat="45.971182957291603" lon="7.217809036374092">
        <ele>1970.3599999999999</ele>
        <time>2016-07-05T08:28:44Z</time>
      </trkpt>
      <trkpt lat="45.971192177385092" lon="7.217834517359734">
        <ele>1968.9200000000001</ele>
        <time>2016-07-05T08:28:52Z</time>
      </trkpt>
      <trkpt lat="45.97119796089828" lon="7.217820435762405">
        <ele>1969.4000000000001</ele>
        <time>2016-07-05T08:29:24Z</time>
      </trkpt>
      <trkpt lat="45.971169881522655" lon="7.217838624492288">
        <ele>1969.4000000000001</ele>
        <time>2016-07-05T08:29:51Z</time>
      </trkpt>
      <trkpt lat="45.971173737198114" lon="7.217812137678266">
        <ele>1969.4000000000001</ele>
        <time>2016-07-05T08:30:16Z</time>
      </trkpt>
      <trkpt lat="45.971188573166728" lon="7.217839462682605">
        <ele>1969.8800000000001</ele>
        <time>2016-07-05T08:30:36Z</time>
      </trkpt>
      <trkpt lat="45.971181700006127" lon="7.217863602563739">
        <ele>1969.8800000000001</ele>
        <time>2016-07-05T08:31:00Z</time>
      </trkpt>
      <trkpt lat="45.971170635893941" lon="7.217874331399798">
        <ele>1970.3599999999999</ele>
        <time>2016-07-05T08:31:23Z</time>
      </trkpt>
      <trkpt lat="45.971171474084258" lon="7.217879947274923">
        <ele>1970.3599999999999</ele>
        <time>2016-07-05T08:31:46Z</time>
      </trkpt>
      <trkpt lat="45.971166444942355" lon="7.217888077721">
        <ele>1970.8399999999999</ele>
        <time>2016-07-05T08:32:15Z</time>
      </trkpt>
      <trkpt lat="45.971166947856545" lon="7.217875672504306">
        <ele>1971.3199999999999</ele>
        <time>2016-07-05T08:32:46Z</time>
      </trkpt>
      <trkpt lat="45.971180526539683" lon="7.217843485996127">
        <ele>1972.28</ele>
        <time>2016-07-05T08:32:56Z</time>
      </trkpt>
      <trkpt lat="45.971199721097946" lon="7.217833092436194">
        <ele>1971.8</ele>
        <time>2016-07-05T08:33:13Z</time>
      </trkpt>
      <trkpt lat="45.971198799088597" lon="7.217834182083607">
        <ele>1971.3199999999999</ele>
        <time>2016-07-05T08:33:37Z</time>
      </trkpt>
      <trkpt lat="45.971181029453874" lon="7.21784021705389">
        <ele>1971.8</ele>
        <time>2016-07-05T08:34:13Z</time>
      </trkpt>
      <trkpt lat="45.971204834058881" lon="7.217836864292622">
        <ele>1971.8</ele>
        <time>2016-07-05T08:34:42Z</time>
      </trkpt>
      <trkpt lat="45.971161499619484" lon="7.217858070507646">
        <ele>1971.8</ele>
        <time>2016-07-05T08:35:16Z</time>
      </trkpt>
      <trkpt lat="45.971146831288934" lon="7.21788028255105">
        <ele>1972.28</ele>
        <time>2016-07-05T08:35:52Z</time>
      </trkpt>
      <trkpt lat="45.971167953684926" lon="7.217859495431185">
        <ele>1972.28</ele>
        <time>2016-07-05T08:36:25Z</time>
      </trkpt>
      <trkpt lat="45.971149681136012" lon="7.217872403562069">
        <ele>1972.28</ele>
        <time>2016-07-05T08:36:54Z</time>
      </trkpt>
      <trkpt lat="45.971148256212473" lon="7.217862261459231">
        <ele>1972.76</ele>
        <time>2016-07-05T08:37:30Z</time>
      </trkpt>
      <trkpt lat="45.971153285354376" lon="7.217849101871252">
        <ele>1972.76</ele>
        <time>2016-07-05T08:38:04Z</time>
      </trkpt>
      <trkpt lat="45.971185471862555" lon="7.217822028324008">
        <ele>1973.24</ele>
        <time>2016-07-05T08:38:41Z</time>
      </trkpt>
      <trkpt lat="45.971154039725661" lon="7.217867877334356">
        <ele>1973.24</ele>
        <time>2016-07-05T08:39:07Z</time>
      </trkpt>
      <trkpt lat="45.971157308667898" lon="7.217835104092956">
        <ele>1973.24</ele>
        <time>2016-07-05T08:39:48Z</time>
      </trkpt>
      <trkpt lat="45.971148256212473" lon="7.217852370813489">
        <ele>1973.72</ele>
        <time>2016-07-05T08:40:23Z</time>
      </trkpt>
      <trkpt lat="45.971177509054542" lon="7.217850778251886">
        <ele>1973.72</ele>
        <time>2016-07-05T08:41:02Z</time>
      </trkpt>
      <trkpt lat="45.971144149079919" lon="7.217882964760065">
        <ele>1973.72</ele>
        <time>2016-07-05T08:41:35Z</time>
      </trkpt>
      <trkpt lat="45.971132665872574" lon="7.217863770201802">
        <ele>1974.2</ele>
        <time>2016-07-05T08:42:11Z</time>
      </trkpt>
      <trkpt lat="45.971185304224491" lon="7.217817585915327">
        <ele>1974.2</ele>
        <time>2016-07-05T08:42:52Z</time>
      </trkpt>
      <trkpt lat="45.971160493791103" lon="7.217824542894959">
        <ele>1974.2</ele>
        <time>2016-07-05T08:43:26Z</time>
      </trkpt>
      <trkpt lat="45.971154794096947" lon="7.217857902869582">
        <ele>1974.6900000000001</ele>
        <time>2016-07-05T08:44:07Z</time>
      </trkpt>
      <trkpt lat="45.971141885966063" lon="7.217854717746377">
        <ele>1974.6900000000001</ele>
        <time>2016-07-05T08:44:42Z</time>
      </trkpt>
      <trkpt lat="45.971124703064561" lon="7.217800403013825">
        <ele>1974.6900000000001</ele>
        <time>2016-07-05T08:45:13Z</time>
      </trkpt>
      <trkpt lat="45.971104502677917" lon="7.217849856242538">
        <ele>1975.1700000000001</ele>
        <time>2016-07-05T08:45:44Z</time>
      </trkpt>
      <trkpt lat="45.971081117168069" lon="7.217823872342706">
        <ele>1975.6500000000001</ele>
        <time>2016-07-05T08:46:13Z</time>
      </trkpt>
      <trkpt lat="45.971074746921659" lon="7.217836864292622">
        <ele>1975.6500000000001</ele>
        <time>2016-07-05T08:46:53Z</time>
      </trkpt>
      <trkpt lat="45.971081703901291" lon="7.21782211214304">
        <ele>1976.1300000000001</ele>
        <time>2016-07-05T08:47:29Z</time>
      </trkpt>
      <trkpt lat="45.971143897622824" lon="7.217839378863573">
        <ele>1976.1300000000001</ele>
        <time>2016-07-05T08:48:00Z</time>
      </trkpt>
      <trkpt lat="45.971173401921988" lon="7.217824291437864">
        <ele>1976.1300000000001</ele>
        <time>2016-07-05T08:48:39Z</time>
      </trkpt>
      <trkpt lat="45.971151441335678" lon="7.217820435762405">
        <ele>1976.1300000000001</ele>
        <time>2016-07-05T08:49:17Z</time>
      </trkpt>
      <trkpt lat="45.971136773005128" lon="7.217837199568749">
        <ele>1976.6099999999999</ele>
        <time>2016-07-05T08:49:50Z</time>
      </trkpt>
      <trkpt lat="45.971158063039184" lon="7.217816999182105">
        <ele>1977.0899999999999</ele>
        <time>2016-07-05T08:50:01Z</time>
      </trkpt>
      <trkpt lat="45.971168540418148" lon="7.217820938676596">
        <ele>1977.5699999999999</ele>
        <time>2016-07-05T08:50:12Z</time>
      </trkpt>
      <trkpt lat="45.971174323931336" lon="7.21782747656107">
        <ele>1977.5699999999999</ele>
        <time>2016-07-05T08:50:26Z</time>
      </trkpt>
      <trkpt lat="45.971189411357045" lon="7.217811634764075">
        <ele>1978.05</ele>
        <time>2016-07-05T08:50:39Z</time>
      </trkpt>
      <trkpt lat="45.971203660592437" lon="7.217844827100635">
        <ele>1977.5699999999999</ele>
        <time>2016-07-05T08:50:50Z</time>
      </trkpt>
      <trkpt lat="45.971210030838847" lon="7.217822866514325">
        <ele>1977.5699999999999</ele>
        <time>2016-07-05T08:51:06Z</time>
      </trkpt>
      <trkpt lat="45.971208605915308" lon="7.217839378863573">
        <ele>1978.05</ele>
        <time>2016-07-05T08:51:18Z</time>
      </trkpt>
      <trkpt lat="45.97122386097908" lon="7.217843653634191">
        <ele>1978.05</ele>
        <time>2016-07-05T08:51:30Z</time>
      </trkpt>
      <trkpt lat="45.971226878464222" lon="7.217818927019835">
        <ele>1978.05</ele>
        <time>2016-07-05T08:51:45Z</time>
      </trkpt>
      <trkpt lat="45.971264345571399" lon="7.217769557610154">
        <ele>1978.53</ele>
        <time>2016-07-05T08:52:00Z</time>
      </trkpt>
      <trkpt lat="45.971312625333667" lon="7.217728905379772">
        <ele>1979.49</ele>
        <time>2016-07-05T08:52:09Z</time>
      </trkpt>
      <trkpt lat="45.971412202343345" lon="7.217667466029525">
        <ele>1980.45</ele>
        <time>2016-07-05T08:52:21Z</time>
      </trkpt>
      <trkpt lat="45.97152384929359" lon="7.217614492401481">
        <ele>1980.45</ele>
        <time>2016-07-05T08:52:33Z</time>
      </trkpt>
      <trkpt lat="45.971569949761033" lon="7.217621533200145">
        <ele>1980.45</ele>
        <time>2016-07-05T08:52:37Z</time>
      </trkpt>
      <trkpt lat="45.971590569242835" lon="7.217631507664919">
        <ele>1980.45</ele>
        <time>2016-07-05T08:52:39Z</time>
      </trkpt>
      <trkpt lat="45.971650080755353" lon="7.217649109661579">
        <ele>1980.9300000000001</ele>
        <time>2016-07-05T08:52:44Z</time>
      </trkpt>
      <trkpt lat="45.971712106838822" lon="7.217657323926687">
        <ele>1980.9300000000001</ele>
        <time>2016-07-05T08:52:50Z</time>
      </trkpt>
      <trkpt lat="45.971798021346331" lon="7.217688839882612">
        <ele>1981.4100000000001</ele>
        <time>2016-07-05T08:52:58Z</time>
      </trkpt>
      <trkpt lat="45.971876308321953" lon="7.217812556773424">
        <ele>1981.9000000000001</ele>
        <time>2016-07-05T08:53:10Z</time>
      </trkpt>
      <trkpt lat="45.971939591690898" lon="7.217876175418496">
        <ele>1983.3399999999999</ele>
        <time>2016-07-05T08:53:22Z</time>
      </trkpt>
      <trkpt lat="45.971969179809093" lon="7.217894531786442">
        <ele>1983.8199999999999</ele>
        <time>2016-07-05T08:53:27Z</time>
      </trkpt>
      <trkpt lat="45.97206573933363" lon="7.217953959479928">
        <ele>1985.26</ele>
        <time>2016-07-05T08:53:39Z</time>
      </trkpt>
      <trkpt lat="45.972075378522277" lon="7.217954210937023">
        <ele>1985.26</ele>
        <time>2016-07-05T08:53:40Z</time>
      </trkpt>
      <trkpt lat="45.972159281373024" lon="7.218005005270243">
        <ele>1986.7</ele>
        <time>2016-07-05T08:53:51Z</time>
      </trkpt>
      <trkpt lat="45.972208902239799" lon="7.218026714399457">
        <ele>1987.1800000000001</ele>
        <time>2016-07-05T08:54:00Z</time>
      </trkpt>
      <trkpt lat="45.972286770120263" lon="7.218067366629839">
        <ele>1988.1400000000001</ele>
        <time>2016-07-05T08:54:09Z</time>
      </trkpt>
      <trkpt lat="45.972352232784033" lon="7.218109024688602">
        <ele>1989.0999999999999</ele>
        <time>2016-07-05T08:54:16Z</time>
      </trkpt>
      <trkpt lat="45.972422808408737" lon="7.218133667483926">
        <ele>1990.0699999999999</ele>
        <time>2016-07-05T08:54:24Z</time>
      </trkpt>
      <trkpt lat="45.972460024058819" lon="7.218145569786429">
        <ele>1991.03</ele>
        <time>2016-07-05T08:54:28Z</time>
      </trkpt>
      <trkpt lat="45.972477123141289" lon="7.218157975003123">
        <ele>1991.03</ele>
        <time>2016-07-05T08:54:30Z</time>
      </trkpt>
      <trkpt lat="45.972572341561317" lon="7.21818613819778">
        <ele>1992.47</ele>
        <time>2016-07-05T08:54:41Z</time>
      </trkpt>
      <trkpt lat="45.972581561654806" lon="7.218186976388097">
        <ele>1992.47</ele>
        <time>2016-07-05T08:54:42Z</time>
      </trkpt>
      <trkpt lat="45.97265993244946" lon="7.218230059370399">
        <ele>1993.4300000000001</ele>
        <time>2016-07-05T08:54:52Z</time>
      </trkpt>
      <trkpt lat="45.972744841128588" lon="7.218273226171732">
        <ele>1994.8699999999999</ele>
        <time>2016-07-05T08:55:02Z</time>
      </trkpt>
      <trkpt lat="45.97281239926815" lon="7.218302646651864">
        <ele>1995.3499999999999</ele>
        <time>2016-07-05T08:55:10Z</time>
      </trkpt>
      <trkpt lat="45.972826145589352" lon="7.218305245041847">
        <ele>1995.8299999999999</ele>
        <time>2016-07-05T08:55:12Z</time>
      </trkpt>
      <trkpt lat="45.972898984327912" lon="7.218392249196768">
        <ele>1997.28</ele>
        <time>2016-07-05T08:55:23Z</time>
      </trkpt>
      <trkpt lat="45.972908707335591" lon="7.218410354107618">
        <ele>1997.76</ele>
        <time>2016-07-05T08:55:25Z</time>
      </trkpt>
      <trkpt lat="45.972921699285507" lon="7.218443462625146">
        <ele>1997.76</ele>
        <time>2016-07-05T08:55:28Z</time>
      </trkpt>
      <trkpt lat="45.972975930199027" lon="7.218537926673889">
        <ele>1998.24</ele>
        <time>2016-07-05T08:55:38Z</time>
      </trkpt>
      <trkpt lat="45.973037872463465" lon="7.218620907515287">
        <ele>1999.2</ele>
        <time>2016-07-05T08:55:48Z</time>
      </trkpt>
      <trkpt lat="45.973088163882494" lon="7.218721657991409">
        <ele>2000.1600000000001</ele>
        <time>2016-07-05T08:55:58Z</time>
      </trkpt>
      <trkpt lat="45.97312462516129" lon="7.218816289678216">
        <ele>2000.6400000000001</ele>
        <time>2016-07-05T08:56:07Z</time>
      </trkpt>
      <trkpt lat="45.973137700930238" lon="7.218948137015104">
        <ele>2002.0799999999999</ele>
        <time>2016-07-05T08:56:18Z</time>
      </trkpt>
      <trkpt lat="45.973176760599017" lon="7.21904419362545">
        <ele>2003.52</ele>
        <time>2016-07-05T08:56:28Z</time>
      </trkpt>
      <trkpt lat="45.97322428599" lon="7.219132538884878">
        <ele>2004.97</ele>
        <time>2016-07-05T08:56:38Z</time>
      </trkpt>
      <trkpt lat="45.97326141782105" lon="7.219249214977026">
        <ele>2005.9300000000001</ele>
        <time>2016-07-05T08:56:49Z</time>
      </trkpt>
      <trkpt lat="45.973300561308861" lon="7.219331776723266">
        <ele>2007.3699999999999</ele>
        <time>2016-07-05T08:56:59Z</time>
      </trkpt>
      <trkpt lat="45.973352361470461" lon="7.219383576884866">
        <ele>2008.3299999999999</ele>
        <time>2016-07-05T08:57:08Z</time>
      </trkpt>
      <trkpt lat="45.973421093076468" lon="7.219411237165332">
        <ele>2009.77</ele>
        <time>2016-07-05T08:57:18Z</time>
      </trkpt>
      <trkpt lat="45.973489824682474" lon="7.219480639323592">
        <ele>2011.22</ele>
        <time>2016-07-05T08:57:30Z</time>
      </trkpt>
      <trkpt lat="45.973555371165276" lon="7.219570577144623">
        <ele>2013.1400000000001</ele>
        <time>2016-07-05T08:57:41Z</time>
      </trkpt>
      <trkpt lat="45.973592419177294" lon="7.219630340114236">
        <ele>2014.0999999999999</ele>
        <time>2016-07-05T08:57:49Z</time>
      </trkpt>
      <trkpt lat="45.973645057529211" lon="7.219722792506218">
        <ele>2015.54</ele>
        <time>2016-07-05T08:58:01Z</time>
      </trkpt>
      <trkpt lat="45.973689649254084" lon="7.219814406707883">
        <ele>2016.98</ele>
        <time>2016-07-05T08:58:14Z</time>
      </trkpt>
      <trkpt lat="45.973750166594982" lon="7.219883725047112">
        <ele>2018.9100000000001</ele>
        <time>2016-07-05T08:58:25Z</time>
      </trkpt>
      <trkpt lat="45.973793165758252" lon="7.219965616241098">
        <ele>2019.8699999999999</ele>
        <time>2016-07-05T08:58:34Z</time>
      </trkpt>
      <trkpt lat="45.973857790231705" lon="7.220048680901527">
        <ele>2021.79</ele>
        <time>2016-07-05T08:58:46Z</time>
      </trkpt>
      <trkpt lat="45.973917301744223" lon="7.220138786360622">
        <ele>2023.23</ele>
        <time>2016-07-05T08:58:58Z</time>
      </trkpt>
      <trkpt lat="45.973961809650064" lon="7.220225790515542">
        <ele>2024.6700000000001</ele>
        <time>2016-07-05T08:59:10Z</time>
      </trkpt>
      <trkpt lat="45.974023165181279" lon="7.220282536000013">
        <ele>2026.1199999999999</ele>
        <time>2016-07-05T08:59:20Z</time>
      </trkpt>
      <trkpt lat="45.974043365567923" lon="7.2202970366925">
        <ele>2026.5999999999999</ele>
        <time>2016-07-05T08:59:24Z</time>
      </trkpt>
      <trkpt lat="45.974120981991291" lon="7.220362834632397">
        <ele>2027.5599999999999</ele>
        <time>2016-07-05T08:59:35Z</time>
      </trkpt>
      <trkpt lat="45.974198430776596" lon="7.220452520996332">
        <ele>2028.52</ele>
        <time>2016-07-05T08:59:47Z</time>
      </trkpt>
      <trkpt lat="45.974258277565241" lon="7.220509182661772">
        <ele>2029.48</ele>
        <time>2016-07-05T08:59:57Z</time>
      </trkpt>
      <trkpt lat="45.974322482943535" lon="7.220565509051085">
        <ele>2029.96</ele>
        <time>2016-07-05T09:00:07Z</time>
      </trkpt>
      <trkpt lat="45.974370511248708" lon="7.220623763278127">
        <ele>2031.4000000000001</ele>
        <time>2016-07-05T09:00:16Z</time>
      </trkpt>
      <trkpt lat="45.974372858181596" lon="7.220636671409011">
        <ele>2031.4000000000001</ele>
        <time>2016-07-05T09:00:17Z</time>
      </trkpt>
      <trkpt lat="45.974322482943535" lon="7.220732476562262">
        <ele>2032.8399999999999</ele>
        <time>2016-07-05T09:00:28Z</time>
      </trkpt>
      <trkpt lat="45.974232377484441" lon="7.220670199021697">
        <ele>2034.29</ele>
        <time>2016-07-05T09:00:41Z</time>
      </trkpt>
      <trkpt lat="45.974139338359237" lon="7.220666846260428">
        <ele>2035.73</ele>
        <time>2016-07-05T09:00:53Z</time>
      </trkpt>
      <trkpt lat="45.974060883745551" lon="7.220651842653751">
        <ele>2036.6900000000001</ele>
        <time>2016-07-05T09:01:05Z</time>
      </trkpt>
      <trkpt lat="45.973982010036707" lon="7.220623008906841">
        <ele>2038.6099999999999</ele>
        <time>2016-07-05T09:01:17Z</time>
      </trkpt>
      <trkpt lat="45.97388930618763" lon="7.220588391646743">
        <ele>2040.05</ele>
        <time>2016-07-05T09:01:29Z</time>
      </trkpt>
      <trkpt lat="45.973800960928202" lon="7.220564587041736">
        <ele>2041.98</ele>
        <time>2016-07-05T09:01:42Z</time>
      </trkpt>
      <trkpt lat="45.973706999793649" lon="7.220546063035727">
        <ele>2043.4200000000001</ele>
        <time>2016-07-05T09:01:55Z</time>
      </trkpt>
      <trkpt lat="45.973632065579295" lon="7.220531646162272">
        <ele>2045.3399999999999</ele>
        <time>2016-07-05T09:02:07Z</time>
      </trkpt>
      <trkpt lat="45.973565177991986" lon="7.220527622848749">
        <ele>2047.26</ele>
        <time>2016-07-05T09:02:20Z</time>
      </trkpt>
      <trkpt lat="45.973465768620372" lon="7.220468781888485">
        <ele>2048.71</ele>
        <time>2016-07-05T09:02:33Z</time>
      </trkpt>
      <trkpt lat="45.973374405875802" lon="7.220409773290157">
        <ele>2050.1500000000001</ele>
        <time>2016-07-05T09:02:47Z</time>
      </trkpt>
      <trkpt lat="45.973301567137241" lon="7.220354117453098">
        <ele>2051.5900000000001</ele>
        <time>2016-07-05T09:02:58Z</time>
      </trkpt>
      <trkpt lat="45.973226632922888" lon="7.220329139381647">
        <ele>2052.5500000000002</ele>
        <time>2016-07-05T09:03:09Z</time>
      </trkpt>
      <trkpt lat="45.973198553547263" lon="7.220411282032728">
        <ele>2054.4699999999998</ele>
        <time>2016-07-05T09:03:22Z</time>
      </trkpt>
      <trkpt lat="45.97327021881938" lon="7.220431985333562">
        <ele>2055.9200000000001</ele>
        <time>2016-07-05T09:03:33Z</time>
      </trkpt>
      <trkpt lat="45.973316319286823" lon="7.220479091629386">
        <ele>2056.8800000000001</ele>
        <time>2016-07-05T09:03:41Z</time>
      </trkpt>
      <trkpt lat="45.973374405875802" lon="7.220550924539566">
        <ele>2057.8400000000001</ele>
        <time>2016-07-05T09:03:50Z</time>
      </trkpt>
      <trkpt lat="45.973428469151258" lon="7.22061462700367">
        <ele>2058.8000000000002</ele>
        <time>2016-07-05T09:04:00Z</time>
      </trkpt>
      <trkpt lat="45.973491417244077" lon="7.220712946727872">
        <ele>2060.2399999999998</ele>
        <time>2016-07-05T09:04:12Z</time>
      </trkpt>
      <trkpt lat="45.973552688956261" lon="7.220808500424027">
        <ele>2061.6799999999998</ele>
        <time>2016-07-05T09:04:24Z</time>
      </trkpt>
      <trkpt lat="45.97360298037529" lon="7.220871448516846">
        <ele>2063.1300000000001</ele>
        <time>2016-07-05T09:04:34Z</time>
      </trkpt>
      <trkpt lat="45.973656456917524" lon="7.220956273376942">
        <ele>2064.0900000000001</ele>
        <time>2016-07-05T09:04:46Z</time>
      </trkpt>
      <trkpt lat="45.973675483837724" lon="7.221022825688124">
        <ele>2065.5300000000002</ele>
        <time>2016-07-05T09:05:00Z</time>
      </trkpt>
      <trkpt lat="45.973729882389307" lon="7.221096167340875">
        <ele>2067.4499999999998</ele>
        <time>2016-07-05T09:05:13Z</time>
      </trkpt>
      <trkpt lat="45.973795177415013" lon="7.221184009686112">
        <ele>2068.8899999999999</ele>
        <time>2016-07-05T09:05:26Z</time>
      </trkpt>
      <trkpt lat="45.973848067224026" lon="7.221239497885108">
        <ele>2070.3400000000001</ele>
        <time>2016-07-05T09:05:37Z</time>
      </trkpt>
      <trkpt lat="45.973914451897144" lon="7.221301021054387">
        <ele>2072.2600000000002</ele>
        <time>2016-07-05T09:05:49Z</time>
      </trkpt>
      <trkpt lat="45.973958456888795" lon="7.221403531730175">
        <ele>2073.6999999999998</ele>
        <time>2016-07-05T09:06:01Z</time>
      </trkpt>
      <trkpt lat="45.974006652832031" lon="7.221487602218986">
        <ele>2075.1399999999999</ele>
        <time>2016-07-05T09:06:12Z</time>
      </trkpt>
      <trkpt lat="45.974072199314833" lon="7.221565470099449">
        <ele>2076.5900000000001</ele>
        <time>2016-07-05T09:06:22Z</time>
      </trkpt>
      <trkpt lat="45.974118383601308" lon="7.221689438447356">
        <ele>2078.5100000000002</ele>
        <time>2016-07-05T09:06:36Z</time>
      </trkpt>
      <trkpt lat="45.974167669191957" lon="7.221756745129824">
        <ele>2079.9499999999998</ele>
        <time>2016-07-05T09:06:46Z</time>
      </trkpt>
      <trkpt lat="45.974224414676428" lon="7.221846850588918">
        <ele>2081.3899999999999</ele>
        <time>2016-07-05T09:06:58Z</time>
      </trkpt>
      <trkpt lat="45.974285015836358" lon="7.221909966319799">
        <ele>2083.3099999999999</ele>
        <time>2016-07-05T09:07:09Z</time>
      </trkpt>
      <trkpt lat="45.974332625046372" lon="7.221966460347176">
        <ele>2084.7600000000002</ele>
        <time>2016-07-05T09:07:19Z</time>
      </trkpt>
      <trkpt lat="45.974361542612314" lon="7.222001580521464">
        <ele>2085.2399999999998</ele>
        <time>2016-07-05T09:07:25Z</time>
      </trkpt>
      <trkpt lat="45.974416863173246" lon="7.222018009051681">
        <ele>2087.1599999999999</ele>
        <time>2016-07-05T09:07:36Z</time>
      </trkpt>
      <trkpt lat="45.974482158198953" lon="7.222099062055349">
        <ele>2088.1199999999999</ele>
        <time>2016-07-05T09:07:47Z</time>
      </trkpt>
      <trkpt lat="45.974539574235678" lon="7.222161842510104">
        <ele>2089.0799999999999</ele>
        <time>2016-07-05T09:07:57Z</time>
      </trkpt>
      <trkpt lat="45.974556002765894" lon="7.222164859995246">
        <ele>2089.0799999999999</ele>
        <time>2016-07-05T09:07:59Z</time>
      </trkpt>
      <trkpt lat="45.974639402702451" lon="7.222221186384559">
        <ele>2091</ele>
        <time>2016-07-05T09:08:12Z</time>
      </trkpt>
      <trkpt lat="45.974706625565886" lon="7.222276674583554">
        <ele>2091.9699999999998</ele>
        <time>2016-07-05T09:08:22Z</time>
      </trkpt>
      <trkpt lat="45.974774770438671" lon="7.222345322370529">
        <ele>2094.3699999999999</ele>
        <time>2016-07-05T09:08:34Z</time>
      </trkpt>
      <trkpt lat="45.97482698969543" lon="7.222398882731795">
        <ele>2094.3699999999999</ele>
        <time>2016-07-05T09:08:43Z</time>
      </trkpt>
      <trkpt lat="45.974895721301436" lon="7.222426878288388">
        <ele>2095.8099999999999</ele>
        <time>2016-07-05T09:08:54Z</time>
      </trkpt>
      <trkpt lat="45.974956406280398" lon="7.222474152222276">
        <ele>2096.77</ele>
        <time>2016-07-05T09:09:04Z</time>
      </trkpt>
      <trkpt lat="45.975052127614617" lon="7.222514385357499">
        <ele>2098.21</ele>
        <time>2016-07-05T09:09:16Z</time>
      </trkpt>
      <trkpt lat="45.975115243345499" lon="7.222547493875027">
        <ele>2099.6599999999999</ele>
        <time>2016-07-05T09:09:26Z</time>
      </trkpt>
      <trkpt lat="45.975169809535146" lon="7.222606670111418">
        <ele>2101.0999999999999</ele>
        <time>2016-07-05T09:09:37Z</time>
      </trkpt>
      <trkpt lat="45.975200571119785" lon="7.22268202342093">
        <ele>2102.54</ele>
        <time>2016-07-05T09:09:47Z</time>
      </trkpt>
      <trkpt lat="45.975233931094408" lon="7.222794340923429">
        <ele>2104.46</ele>
        <time>2016-07-05T09:09:59Z</time>
      </trkpt>
      <trkpt lat="45.975262178108096" lon="7.22287212498486">
        <ele>2105.9099999999999</ele>
        <time>2016-07-05T09:10:10Z</time>
      </trkpt>
      <trkpt lat="45.975299729034305" lon="7.222918979823589">
        <ele>2106.8699999999999</ele>
        <time>2016-07-05T09:10:19Z</time>
      </trkpt>
      <trkpt lat="45.975317247211933" lon="7.222942868247628">
        <ele>2106.8699999999999</ele>
        <time>2016-07-05T09:10:22Z</time>
      </trkpt>
      <trkpt lat="45.975362844765186" lon="7.222989052534103">
        <ele>2107.3499999999999</ele>
        <time>2016-07-05T09:10:29Z</time>
      </trkpt>
      <trkpt lat="45.975462924689054" lon="7.223034230992198">
        <ele>2108.3099999999999</ele>
        <time>2016-07-05T09:10:40Z</time>
      </trkpt>
      <trkpt lat="45.975537523627281" lon="7.223094329237938">
        <ele>2109.27</ele>
        <time>2016-07-05T09:10:50Z</time>
      </trkpt>
      <trkpt lat="45.975586893036962" lon="7.223191726952791">
        <ele>2109.27</ele>
        <time>2016-07-05T09:10:59Z</time>
      </trkpt>
      <trkpt lat="45.97560784779489" lon="7.223305720835924">
        <ele>2110.71</ele>
        <time>2016-07-05T09:11:08Z</time>
      </trkpt>
      <trkpt lat="45.975619498640299" lon="7.22342818044126">
        <ele>2112.1500000000001</ele>
        <time>2016-07-05T09:11:21Z</time>
      </trkpt>
      <trkpt lat="45.9756366815418" lon="7.223549718037248">
        <ele>2113.5999999999999</ele>
        <time>2016-07-05T09:11:32Z</time>
      </trkpt>
      <trkpt lat="45.975632993504405" lon="7.223583497107029">
        <ele>2113.5999999999999</ele>
        <time>2016-07-05T09:11:35Z</time>
      </trkpt>
      <trkpt lat="45.975625198334455" lon="7.223615432158113">
        <ele>2113.5999999999999</ele>
        <time>2016-07-05T09:11:38Z</time>
      </trkpt>
      <trkpt lat="45.975595694035292" lon="7.223695646971464">
        <ele>2114.5599999999999</ele>
        <time>2016-07-05T09:11:46Z</time>
      </trkpt>
      <trkpt lat="45.975565603002906" lon="7.223797822371125">
        <ele>2115.52</ele>
        <time>2016-07-05T09:11:55Z</time>
      </trkpt>
      <trkpt lat="45.975531572476029" lon="7.223890190944076">
        <ele>2116.96</ele>
        <time>2016-07-05T09:12:04Z</time>
      </trkpt>
      <trkpt lat="45.975526543334126" lon="7.223897399380803">
        <ele>2116.96</ele>
        <time>2016-07-05T09:12:05Z</time>
      </trkpt>
      <trkpt lat="45.975487902760506" lon="7.224009465426207">
        <ele>2117.9200000000001</ele>
        <time>2016-07-05T09:12:16Z</time>
      </trkpt>
      <trkpt lat="45.975439371541142" lon="7.224124129861593">
        <ele>2118.8800000000001</ele>
        <time>2016-07-05T09:12:27Z</time>
      </trkpt>
      <trkpt lat="45.97545001655817" lon="7.224263101816177">
        <ele>2119.8400000000001</ele>
        <time>2016-07-05T09:12:38Z</time>
      </trkpt>
      <trkpt lat="45.975461667403579" lon="7.22433652728796">
        <ele>2120.3200000000002</ele>
        <time>2016-07-05T09:12:44Z</time>
      </trkpt>
      <trkpt lat="45.975459069013596" lon="7.224386231973767">
        <ele>2120.3200000000002</ele>
        <time>2016-07-05T09:12:47Z</time>
      </trkpt>
      <trkpt lat="45.975431073457003" lon="7.224541800096631">
        <ele>2120.8099999999999</ele>
        <time>2016-07-05T09:12:58Z</time>
      </trkpt>
      <trkpt lat="45.975414225831628" lon="7.224686639383435">
        <ele>2120.8099999999999</ele>
        <time>2016-07-05T09:13:09Z</time>
      </trkpt>
      <trkpt lat="45.9754260443151" lon="7.22476844675839">
        <ele>2121.77</ele>
        <time>2016-07-05T09:13:21Z</time>
      </trkpt>
      <trkpt lat="45.97542017698288" lon="7.224775571376085">
        <ele>2121.77</ele>
        <time>2016-07-05T09:13:32Z</time>
      </trkpt>
      <trkpt lat="45.975398048758507" lon="7.22483541816473">
        <ele>2122.73</ele>
        <time>2016-07-05T09:13:39Z</time>
      </trkpt>
      <trkpt lat="45.975332586094737" lon="7.224920829758048">
        <ele>2122.73</ele>
        <time>2016-07-05T09:13:48Z</time>
      </trkpt>
      <trkpt lat="45.975277349352837" lon="7.225068267434835">
        <ele>2123.21</ele>
        <time>2016-07-05T09:13:59Z</time>
      </trkpt>
      <trkpt lat="45.975217502564192" lon="7.225231546908617">
        <ele>2123.21</ele>
        <time>2016-07-05T09:14:11Z</time>
      </trkpt>
      <trkpt lat="45.975155895575881" lon="7.225333470851183">
        <ele>2124.1700000000001</ele>
        <time>2016-07-05T09:14:20Z</time>
      </trkpt>
      <trkpt lat="45.975145921111107" lon="7.225356856361032">
        <ele>2124.1700000000001</ele>
        <time>2016-07-05T09:14:22Z</time>
      </trkpt>
      <trkpt lat="45.975115243345499" lon="7.225415864959359">
        <ele>2124.6500000000001</ele>
        <time>2016-07-05T09:14:27Z</time>
      </trkpt>
      <trkpt lat="45.975094120949507" lon="7.225444698706269">
        <ele>2125.1300000000001</ele>
        <time>2016-07-05T09:14:30Z</time>
      </trkpt>
      <trkpt lat="45.975081883370876" lon="7.225476047024131">
        <ele>2125.1300000000001</ele>
        <time>2016-07-05T09:14:33Z</time>
      </trkpt>
      <trkpt lat="45.975013235583901" lon="7.225592387840152">
        <ele>2126.0900000000001</ele>
        <time>2016-07-05T09:14:44Z</time>
      </trkpt>
      <trkpt lat="45.97496286034584" lon="7.22570177167654">
        <ele>2128.02</ele>
        <time>2016-07-05T09:14:55Z</time>
      </trkpt>
      <trkpt lat="45.974908797070384" lon="7.225799504667521">
        <ele>2128.98</ele>
        <time>2016-07-05T09:15:05Z</time>
      </trkpt>
      <trkpt lat="45.974902594462037" lon="7.225822554901242">
        <ele>2128.98</ele>
        <time>2016-07-05T09:15:07Z</time>
      </trkpt>
      <trkpt lat="45.97486169077456" lon="7.225932693108916">
        <ele>2130.4200000000001</ele>
        <time>2016-07-05T09:15:17Z</time>
      </trkpt>
      <trkpt lat="45.974843082949519" lon="7.226020703092217">
        <ele>2131.3800000000001</ele>
        <time>2016-07-05T09:15:25Z</time>
      </trkpt>
      <trkpt lat="45.974850039929152" lon="7.226028582081199">
        <ele>2131.3800000000001</ele>
        <time>2016-07-05T09:15:27Z</time>
      </trkpt>
      <trkpt lat="45.974888009950519" lon="7.226112736389041">
        <ele>2132.3400000000001</ele>
        <time>2016-07-05T09:15:34Z</time>
      </trkpt>
      <trkpt lat="45.974924638867378" lon="7.226183563470841">
        <ele>2132.8200000000002</ele>
        <time>2016-07-05T09:15:40Z</time>
      </trkpt>
      <trkpt lat="45.974966129288077" lon="7.226210972294211">
        <ele>2132.3400000000001</ele>
        <time>2016-07-05T09:15:44Z</time>
      </trkpt>
      <trkpt lat="45.975022874772549" lon="7.226207368075848">
        <ele>2132.8200000000002</ele>
        <time>2016-07-05T09:15:51Z</time>
      </trkpt>
      <trkpt lat="45.975101245567203" lon="7.226194627583027">
        <ele>2134.2600000000002</ele>
        <time>2016-07-05T09:16:01Z</time>
      </trkpt>
      <trkpt lat="45.975144663825631" lon="7.226188089698553">
        <ele>2135.23</ele>
        <time>2016-07-05T09:16:06Z</time>
      </trkpt>
      <trkpt lat="45.975215574726462" lon="7.226145509630442">
        <ele>2136.6700000000001</ele>
        <time>2016-07-05T09:16:16Z</time>
      </trkpt>
      <trkpt lat="45.975303668528795" lon="7.226095469668508">
        <ele>2137.6300000000001</ele>
        <time>2016-07-05T09:16:28Z</time>
      </trkpt>
      <trkpt lat="45.975377345457673" lon="7.226050458848476">
        <ele>2138.1100000000001</ele>
        <time>2016-07-05T09:16:37Z</time>
      </trkpt>
      <trkpt lat="45.975445825606585" lon="7.226006118580699">
        <ele>2139.5500000000002</ele>
        <time>2016-07-05T09:16:47Z</time>
      </trkpt>
      <trkpt lat="45.975494608283043" lon="7.225995557382703">
        <ele>2140.0300000000002</ele>
        <time>2016-07-05T09:16:52Z</time>
      </trkpt>
      <trkpt lat="45.975583791732788" lon="7.225991617888212">
        <ele>2140.9899999999998</ele>
        <time>2016-07-05T09:17:03Z</time>
      </trkpt>
      <trkpt lat="45.975667694583535" lon="7.225972590968013">
        <ele>2141.9499999999998</ele>
        <time>2016-07-05T09:17:14Z</time>
      </trkpt>
      <trkpt lat="45.975676914677024" lon="7.225967729464173">
        <ele>2142.4400000000001</ele>
        <time>2016-07-05T09:17:15Z</time>
      </trkpt>
      <trkpt lat="45.975759057328105" lon="7.225943841040134">
        <ele>2142.9200000000001</ele>
        <time>2016-07-05T09:17:24Z</time>
      </trkpt>
      <trkpt lat="45.97585067152977" lon="7.225926825776696">
        <ele>2143.4000000000001</ele>
        <time>2016-07-05T09:17:34Z</time>
      </trkpt>
      <trkpt lat="45.975944213569164" lon="7.225934537127614">
        <ele>2144.3600000000001</ele>
        <time>2016-07-05T09:17:45Z</time>
      </trkpt>
      <trkpt lat="45.97602610476315" lon="7.22591869533062">
        <ele>2145.8000000000002</ele>
        <time>2016-07-05T09:17:55Z</time>
      </trkpt>
      <trkpt lat="45.976109085604548" lon="7.225912408903241">
        <ele>2147.2399999999998</ele>
        <time>2016-07-05T09:18:06Z</time>
      </trkpt>
      <trkpt lat="45.9761893004179" lon="7.22590796649456">
        <ele>2148.6799999999998</ele>
        <time>2016-07-05T09:18:17Z</time>
      </trkpt>
      <trkpt lat="45.976255182176828" lon="7.225886508822441">
        <ele>2150.1300000000001</ele>
        <time>2016-07-05T09:18:28Z</time>
      </trkpt>
      <trkpt lat="45.976316956803203" lon="7.225876785814762">
        <ele>2151.5700000000002</ele>
        <time>2016-07-05T09:18:38Z</time>
      </trkpt>
      <trkpt lat="45.976396165788174" lon="7.225860189646483">
        <ele>2153.4899999999998</ele>
        <time>2016-07-05T09:18:49Z</time>
      </trkpt>
      <trkpt lat="45.976468669250607" lon="7.225839821621776">
        <ele>2154.9299999999998</ele>
        <time>2016-07-05T09:19:00Z</time>
      </trkpt>
      <trkpt lat="45.976546285673976" lon="7.225798331201077">
        <ele>2156.3699999999999</ele>
        <time>2016-07-05T09:19:12Z</time>
      </trkpt>
      <trkpt lat="45.976614011451602" lon="7.22575206309557">
        <ele>2157.8200000000002</ele>
        <time>2016-07-05T09:19:23Z</time>
      </trkpt>
      <trkpt lat="45.976655669510365" lon="7.225678972899914">
        <ele>2159.7399999999998</ele>
        <time>2016-07-05T09:19:36Z</time>
      </trkpt>
      <trkpt lat="45.976705877110362" lon="7.225604122504592">
        <ele>2161.6599999999999</ele>
        <time>2016-07-05T09:19:48Z</time>
      </trkpt>
      <trkpt lat="45.976761281490326" lon="7.22555567510426">
        <ele>2163.5799999999999</ele>
        <time>2016-07-05T09:20:01Z</time>
      </trkpt>
      <trkpt lat="45.97681081853807" lon="7.225619209930301">
        <ele>2165.0300000000002</ele>
        <time>2016-07-05T09:20:12Z</time>
      </trkpt>
      <trkpt lat="45.976774524897337" lon="7.225721972063184">
        <ele>2165.9899999999998</ele>
        <time>2016-07-05T09:20:22Z</time>
      </trkpt>
      <trkpt lat="45.976723646745086" lon="7.225818866863847">
        <ele>2167.4299999999998</ele>
        <time>2016-07-05T09:20:35Z</time>
      </trkpt>
      <trkpt lat="45.976701518520713" lon="7.225874522700906">
        <ele>2169.3499999999999</ele>
        <time>2016-07-05T09:20:41Z</time>
      </trkpt>
      <trkpt lat="45.976665141060948" lon="7.226005364209414">
        <ele>2169.3499999999999</ele>
        <time>2016-07-05T09:20:54Z</time>
      </trkpt>
      <trkpt lat="45.976640414446592" lon="7.22611122764647">
        <ele>2170.79</ele>
        <time>2016-07-05T09:21:06Z</time>
      </trkpt>
      <trkpt lat="45.976629853248596" lon="7.226169817149639">
        <ele>2172.2399999999998</ele>
        <time>2016-07-05T09:21:17Z</time>
      </trkpt>
      <trkpt lat="45.976617364212871" lon="7.226255564019084">
        <ele>2174.1599999999999</ele>
        <time>2016-07-05T09:21:27Z</time>
      </trkpt>
      <trkpt lat="45.976625243201852" lon="7.226339215412736">
        <ele>2175.5999999999999</ele>
        <time>2016-07-05T09:21:37Z</time>
      </trkpt>
      <trkpt lat="45.976643767207861" lon="7.226453879848123">
        <ele>2177.04</ele>
        <time>2016-07-05T09:21:49Z</time>
      </trkpt>
      <trkpt lat="45.976646952331066" lon="7.226564269512892">
        <ele>2178.9699999999998</ele>
        <time>2016-07-05T09:22:01Z</time>
      </trkpt>
      <trkpt lat="45.976646617054939" lon="7.226636270061135">
        <ele>2180.8899999999999</ele>
        <time>2016-07-05T09:22:12Z</time>
      </trkpt>
      <trkpt lat="45.976629434153438" lon="7.226720592007041">
        <ele>2182.3299999999999</ele>
        <time>2016-07-05T09:22:23Z</time>
      </trkpt>
      <trkpt lat="45.976616945117712" lon="7.226800890639424">
        <ele>2184.25</ele>
        <time>2016-07-05T09:22:35Z</time>
      </trkpt>
      <trkpt lat="45.976611748337746" lon="7.226862916722894">
        <ele>2186.6599999999999</ele>
        <time>2016-07-05T09:22:43Z</time>
      </trkpt>
      <trkpt lat="45.976602025330067" lon="7.226978167891502">
        <ele>2187.6199999999999</ele>
        <time>2016-07-05T09:22:57Z</time>
      </trkpt>
      <trkpt lat="45.976582746952772" lon="7.227040361613035">
        <ele>2189.54</ele>
        <time>2016-07-05T09:23:08Z</time>
      </trkpt>
      <trkpt lat="45.976574700325727" lon="7.22714371047914">
        <ele>2190.98</ele>
        <time>2016-07-05T09:23:19Z</time>
      </trkpt>
      <trkpt lat="45.976594481617212" lon="7.22718863748014">
        <ele>2192.4200000000001</ele>
        <time>2016-07-05T09:23:30Z</time>
      </trkpt>
      <trkpt lat="45.976587776094675" lon="7.227270193397999">
        <ele>2193.8699999999999</ele>
        <time>2016-07-05T09:23:41Z</time>
      </trkpt>
      <trkpt lat="45.97656455822289" lon="7.227281089872122">
        <ele>2193.3899999999999</ele>
        <time>2016-07-05T09:23:54Z</time>
      </trkpt>
      <trkpt lat="45.976571096107364" lon="7.227265499532223">
        <ele>2193.8699999999999</ele>
        <time>2016-07-05T09:24:16Z</time>
      </trkpt>
      <trkpt lat="45.976548716425896" lon="7.227263068780303">
        <ele>2193.8699999999999</ele>
        <time>2016-07-05T09:24:33Z</time>
      </trkpt>
      <trkpt lat="45.976546788588166" lon="7.22728100605309">
        <ele>2193.8699999999999</ele>
        <time>2016-07-05T09:24:50Z</time>
      </trkpt>
      <trkpt lat="45.976553075015545" lon="7.227284358814359">
        <ele>2193.8699999999999</ele>
        <time>2016-07-05T09:25:04Z</time>
      </trkpt>
      <trkpt lat="45.976532371714711" lon="7.227282514795661">
        <ele>2193.8699999999999</ele>
        <time>2016-07-05T09:25:15Z</time>
      </trkpt>
      <trkpt lat="45.976541256532073" lon="7.22728343680501">
        <ele>2193.8699999999999</ele>
        <time>2016-07-05T09:25:25Z</time>
      </trkpt>
      <trkpt lat="45.97655332647264" lon="7.22729760222137">
        <ele>2193.3899999999999</ele>
        <time>2016-07-05T09:25:28Z</time>
      </trkpt>
      <trkpt lat="45.976567575708032" lon="7.227324340492487">
        <ele>2193.8699999999999</ele>
        <time>2016-07-05T09:25:38Z</time>
      </trkpt>
      <trkpt lat="45.976565396413207" lon="7.227331046015024">
        <ele>2193.8699999999999</ele>
        <time>2016-07-05T09:25:39Z</time>
      </trkpt>
      <trkpt lat="45.976592721417546" lon="7.227362897247076">
        <ele>2194.8299999999999</ele>
        <time>2016-07-05T09:25:47Z</time>
      </trkpt>
      <trkpt lat="45.976624740287662" lon="7.227397179231048">
        <ele>2194.3499999999999</ele>
        <time>2016-07-05T09:25:58Z</time>
      </trkpt>
      <trkpt lat="45.976642845198512" lon="7.22743489779532">
        <ele>2195.3099999999999</ele>
        <time>2016-07-05T09:26:09Z</time>
      </trkpt>
      <trkpt lat="45.976654579862952" lon="7.227483596652746">
        <ele>2195.3099999999999</ele>
        <time>2016-07-05T09:26:21Z</time>
      </trkpt>
      <trkpt lat="45.97664711996913" lon="7.227472700178623">
        <ele>2195.3099999999999</ele>
        <time>2016-07-05T09:26:34Z</time>
      </trkpt>
      <trkpt lat="45.976678049191833" lon="7.22746716812253">
        <ele>2195.3099999999999</ele>
        <time>2016-07-05T09:26:47Z</time>
      </trkpt>
      <trkpt lat="45.976688778027892" lon="7.227455349639058">
        <ele>2194.8299999999999</ele>
        <time>2016-07-05T09:27:00Z</time>
      </trkpt>
      <trkpt lat="45.976698836311698" lon="7.22745006904006">
        <ele>2194.8299999999999</ele>
        <time>2016-07-05T09:27:14Z</time>
      </trkpt>
      <trkpt lat="45.976710235700011" lon="7.227463815361261">
        <ele>2194.3499999999999</ele>
        <time>2016-07-05T09:27:24Z</time>
      </trkpt>
      <trkpt lat="45.976697998121381" lon="7.227452667430043">
        <ele>2194.3499999999999</ele>
        <time>2016-07-05T09:27:37Z</time>
      </trkpt>
      <trkpt lat="45.976712414994836" lon="7.227471107617021">
        <ele>2194.3499999999999</ele>
        <time>2016-07-05T09:27:50Z</time>
      </trkpt>
      <trkpt lat="45.976735213771462" lon="7.227460546419025">
        <ele>2194.3499999999999</ele>
        <time>2016-07-05T09:27:59Z</time>
      </trkpt>
      <trkpt lat="45.976756252348423" lon="7.22740363329649">
        <ele>2194.3499999999999</ele>
        <time>2016-07-05T09:28:10Z</time>
      </trkpt>
      <trkpt lat="45.976765975356102" lon="7.22740413621068">
        <ele>2194.8299999999999</ele>
        <time>2016-07-05T09:28:19Z</time>
      </trkpt>
      <trkpt lat="45.976770836859941" lon="7.227370776236057">
        <ele>2194.8299999999999</ele>
        <time>2016-07-05T09:28:29Z</time>
      </trkpt>
      <trkpt lat="45.976764718070626" lon="7.227278323844075">
        <ele>2194.3499999999999</ele>
        <time>2016-07-05T09:28:37Z</time>
      </trkpt>
      <trkpt lat="45.97677418962121" lon="7.227247981354594">
        <ele>2194.3499999999999</ele>
        <time>2016-07-05T09:28:41Z</time>
      </trkpt>
      <trkpt lat="45.976788774132729" lon="7.227196097373962">
        <ele>2194.3499999999999</ele>
        <time>2016-07-05T09:28:47Z</time>
      </trkpt>
      <trkpt lat="45.976811489090323" lon="7.227124348282814">
        <ele>2193.8699999999999</ele>
        <time>2016-07-05T09:28:53Z</time>
      </trkpt>
      <trkpt lat="45.976840406656265" lon="7.227049581706524">
        <ele>2193.3899999999999</ele>
        <time>2016-07-05T09:29:03Z</time>
      </trkpt>
      <trkpt lat="45.976876281201839" lon="7.22691991366446">
        <ele>2190.98</ele>
        <time>2016-07-05T09:29:15Z</time>
      </trkpt>
      <trkpt lat="45.976915592327714" lon="7.226872136816382">
        <ele>2190.02</ele>
        <time>2016-07-05T09:29:24Z</time>
      </trkpt>
      <trkpt lat="45.976923136040568" lon="7.226821426302195">
        <ele>2189.0599999999999</ele>
        <time>2016-07-05T09:29:34Z</time>
      </trkpt>
      <trkpt lat="45.976948533207178" lon="7.226717909798026">
        <ele>2189.0599999999999</ele>
        <time>2016-07-05T09:29:42Z</time>
      </trkpt>
      <trkpt lat="45.976945850998163" lon="7.226668456569314">
        <ele>2188.0999999999999</ele>
        <time>2016-07-05T09:29:51Z</time>
      </trkpt>
      <trkpt lat="45.976950712502003" lon="7.226620763540268">
        <ele>2187.6199999999999</ele>
        <time>2016-07-05T09:30:00Z</time>
      </trkpt>
      <trkpt lat="45.976966889575124" lon="7.226564353331924">
        <ele>2187.1399999999999</ele>
        <time>2016-07-05T09:30:09Z</time>
      </trkpt>
      <trkpt lat="45.976964123547077" lon="7.226528311148286">
        <ele>2186.1799999999998</ele>
        <time>2016-07-05T09:30:18Z</time>
      </trkpt>
      <trkpt lat="45.976926321163774" lon="7.226486569270492">
        <ele>2184.25</ele>
        <time>2016-07-05T09:30:28Z</time>
      </trkpt>
      <trkpt lat="45.976914502680302" lon="7.226437199860811">
        <ele>2182.8099999999999</ele>
        <time>2016-07-05T09:30:33Z</time>
      </trkpt>
      <trkpt lat="45.976952221244574" lon="7.22631256096065">
        <ele>2181.3699999999999</ele>
        <time>2016-07-05T09:30:43Z</time>
      </trkpt>
      <trkpt lat="45.976972421631217" lon="7.226238716393709">
        <ele>2179.9299999999998</ele>
        <time>2016-07-05T09:30:51Z</time>
      </trkpt>
      <trkpt lat="45.97697988152504" lon="7.226241650059819">
        <ele>2179.9299999999998</ele>
        <time>2016-07-05T09:30:55Z</time>
      </trkpt>
      <trkpt lat="45.976997148245573" lon="7.22619722597301">
        <ele>2179.4499999999998</ele>
        <time>2016-07-05T09:30:58Z</time>
      </trkpt>
      <trkpt lat="45.977051630616188" lon="7.22614785656333">
        <ele>2178.48</ele>
        <time>2016-07-05T09:31:05Z</time>
      </trkpt>
      <trkpt lat="45.977068226784468" lon="7.226122375577688">
        <ele>2178</ele>
        <time>2016-07-05T09:31:07Z</time>
      </trkpt>
      <trkpt lat="45.977116841822863" lon="7.226048111915588">
        <ele>2177.52</ele>
        <time>2016-07-05T09:31:14Z</time>
      </trkpt>
      <trkpt lat="45.97715774551034" lon="7.225994719192386">
        <ele>2177.04</ele>
        <time>2016-07-05T09:31:19Z</time>
      </trkpt>
      <trkpt lat="45.977191356942058" lon="7.22595976665616">
        <ele>2177.04</ele>
        <time>2016-07-05T09:31:25Z</time>
      </trkpt>
      <trkpt lat="45.977235613390803" lon="7.225932106375694">
        <ele>2176.5599999999999</ele>
        <time>2016-07-05T09:31:34Z</time>
      </trkpt>
      <trkpt lat="45.977271487936378" lon="7.225912492722273">
        <ele>2175.5999999999999</ele>
        <time>2016-07-05T09:31:39Z</time>
      </trkpt>
      <trkpt lat="45.977358156815171" lon="7.225813837721944">
        <ele>2174.1599999999999</ele>
        <time>2016-07-05T09:31:51Z</time>
      </trkpt>
      <trkpt lat="45.977397216483951" lon="7.225758517161012">
        <ele>2174.6399999999999</ele>
        <time>2016-07-05T09:31:59Z</time>
      </trkpt>
      <trkpt lat="45.977404424920678" lon="7.22573596984148">
        <ele>2174.6399999999999</ele>
        <time>2016-07-05T09:32:01Z</time>
      </trkpt>
      <trkpt lat="45.977470893412828" lon="7.225665394216776">
        <ele>2174.1599999999999</ele>
        <time>2016-07-05T09:32:10Z</time>
      </trkpt>
      <trkpt lat="45.977530153468251" lon="7.225659610703588">
        <ele>2174.6399999999999</ele>
        <time>2016-07-05T09:32:19Z</time>
      </trkpt>
      <trkpt lat="45.977540547028184" lon="7.225643768906593">
        <ele>2174.1599999999999</ele>
        <time>2016-07-05T09:32:21Z</time>
      </trkpt>
      <trkpt lat="45.977613050490618" lon="7.225573780015111">
        <ele>2174.1599999999999</ele>
        <time>2016-07-05T09:32:31Z</time>
      </trkpt>
      <trkpt lat="45.977683458477259" lon="7.225490128621459">
        <ele>2174.6399999999999</ele>
        <time>2016-07-05T09:32:41Z</time>
      </trkpt>
      <trkpt lat="45.977754117920995" lon="7.225414775311947">
        <ele>2175.1199999999999</ele>
        <time>2016-07-05T09:32:50Z</time>
      </trkpt>
      <trkpt lat="45.977831482887268" lon="7.225305056199431">
        <ele>2175.1199999999999</ele>
        <time>2016-07-05T09:33:02Z</time>
      </trkpt>
      <trkpt lat="45.977904908359051" lon="7.225221572443843">
        <ele>2175.1199999999999</ele>
        <time>2016-07-05T09:33:13Z</time>
      </trkpt>
      <trkpt lat="45.977987386286259" lon="7.225135993212462">
        <ele>2175.1199999999999</ele>
        <time>2016-07-05T09:33:24Z</time>
      </trkpt>
      <trkpt lat="45.97803340293467" lon="7.225098442286253">
        <ele>2176.0799999999999</ele>
        <time>2016-07-05T09:33:30Z</time>
      </trkpt>
      <trkpt lat="45.978102469816804" lon="7.225059382617474">
        <ele>2175.5999999999999</ele>
        <time>2016-07-05T09:33:37Z</time>
      </trkpt>
      <trkpt lat="45.978120407089591" lon="7.225067177787423">
        <ele>2176.0799999999999</ele>
        <time>2016-07-05T09:33:39Z</time>
      </trkpt>
      <trkpt lat="45.978136751800776" lon="7.225066758692265">
        <ele>2176.0799999999999</ele>
        <time>2016-07-05T09:33:41Z</time>
      </trkpt>
      <trkpt lat="45.97816533409059" lon="7.225069440901279">
        <ele>2176.5599999999999</ele>
        <time>2016-07-05T09:33:44Z</time>
      </trkpt>
      <trkpt lat="45.9782356582582" lon="7.224989058449864">
        <ele>2177.52</ele>
        <time>2016-07-05T09:33:56Z</time>
      </trkpt>
      <trkpt lat="45.978271281346679" lon="7.224921500310302">
        <ele>2178</ele>
        <time>2016-07-05T09:34:06Z</time>
      </trkpt>
      <trkpt lat="45.978310508653522" lon="7.224853523075581">
        <ele>2179.4499999999998</ele>
        <time>2016-07-05T09:34:15Z</time>
      </trkpt>
      <trkpt lat="45.978389298543334" lon="7.224758137017489">
        <ele>2179.4499999999998</ele>
        <time>2016-07-05T09:34:25Z</time>
      </trkpt>
      <trkpt lat="45.978447971865535" lon="7.22468538209796">
        <ele>2179.9299999999998</ele>
        <time>2016-07-05T09:34:35Z</time>
      </trkpt>
      <trkpt lat="45.978513266891241" lon="7.224666522815824">
        <ele>2181.3699999999999</ele>
        <time>2016-07-05T09:34:45Z</time>
      </trkpt>
      <trkpt lat="45.978584177792072" lon="7.224612627178431">
        <ele>2182.8099999999999</ele>
        <time>2016-07-05T09:34:57Z</time>
      </trkpt>
      <trkpt lat="45.978647712618113" lon="7.224541632458568">
        <ele>2184.73</ele>
        <time>2016-07-05T09:35:09Z</time>
      </trkpt>
      <trkpt lat="45.978670343756676" lon="7.224513804540038">
        <ele>2185.21</ele>
        <time>2016-07-05T09:35:20Z</time>
      </trkpt>
      <trkpt lat="45.978689286857843" lon="7.224485808983445">
        <ele>2186.1799999999998</ele>
        <time>2016-07-05T09:35:30Z</time>
      </trkpt>
      <trkpt lat="45.978742009028792" lon="7.224428560584784">
        <ele>2187.6199999999999</ele>
        <time>2016-07-05T09:35:41Z</time>
      </trkpt>
      <trkpt lat="45.978770339861512" lon="7.22439126111567">
        <ele>2187.6199999999999</ele>
        <time>2016-07-05T09:35:45Z</time>
      </trkpt>
      <trkpt lat="45.978822726756334" lon="7.224306771531701">
        <ele>2188.0999999999999</ele>
        <time>2016-07-05T09:35:54Z</time>
      </trkpt>
      <trkpt lat="45.978866815567017" lon="7.224241560325027">
        <ele>2189.0599999999999</ele>
        <time>2016-07-05T09:36:04Z</time>
      </trkpt>
      <trkpt lat="45.978915262967348" lon="7.224205266684294">
        <ele>2190.98</ele>
        <time>2016-07-05T09:36:14Z</time>
      </trkpt>
      <trkpt lat="45.978956250473857" lon="7.22417525947094">
        <ele>2193.3899999999999</ele>
        <time>2016-07-05T09:36:27Z</time>
      </trkpt>
      <trkpt lat="45.979002518579364" lon="7.224095547571778">
        <ele>2194.3499999999999</ele>
        <time>2016-07-05T09:36:38Z</time>
      </trkpt>
      <trkpt lat="45.979004111140966" lon="7.224089009687305">
        <ele>2194.8299999999999</ele>
        <time>2016-07-05T09:36:39Z</time>
      </trkpt>
      <trkpt lat="45.979080721735954" lon="7.224007789045572">
        <ele>2196.75</ele>
        <time>2016-07-05T09:36:52Z</time>
      </trkpt>
      <trkpt lat="45.979086756706238" lon="7.223984822630882">
        <ele>2197.23</ele>
        <time>2016-07-05T09:37:00Z</time>
      </trkpt>
      <trkpt lat="45.979112153872848" lon="7.223952300846577">
        <ele>2198.1900000000001</ele>
        <time>2016-07-05T09:37:12Z</time>
      </trkpt>
      <trkpt lat="45.979148028418422" lon="7.223896477371454">
        <ele>2200.1100000000001</ele>
        <time>2016-07-05T09:37:26Z</time>
      </trkpt>
      <trkpt lat="45.979165127500892" lon="7.223861273378134">
        <ele>2201.5599999999999</ele>
        <time>2016-07-05T09:37:37Z</time>
      </trkpt>
      <trkpt lat="45.979211227968335" lon="7.22384937107563">
        <ele>2203.48</ele>
        <time>2016-07-05T09:37:49Z</time>
      </trkpt>
      <trkpt lat="45.97923151217401" lon="7.223817771300674">
        <ele>2204.4400000000001</ele>
        <time>2016-07-05T09:37:59Z</time>
      </trkpt>
      <trkpt lat="45.979266967624426" lon="7.223740322515369">
        <ele>2206.8400000000001</ele>
        <time>2016-07-05T09:38:13Z</time>
      </trkpt>
      <trkpt lat="45.979294208809733" lon="7.223721127957106">
        <ele>2207.8099999999999</ele>
        <time>2016-07-05T09:38:23Z</time>
      </trkpt>
      <trkpt lat="45.979325892403722" lon="7.22370570525527">
        <ele>2209.25</ele>
        <time>2016-07-05T09:38:34Z</time>
      </trkpt>
      <trkpt lat="45.979353133589029" lon="7.223672261461616">
        <ele>2211.1700000000001</ele>
        <time>2016-07-05T09:38:45Z</time>
      </trkpt>
      <trkpt lat="45.979388672858477" lon="7.223648875951767">
        <ele>2212.6100000000001</ele>
        <time>2016-07-05T09:38:56Z</time>
      </trkpt>
      <trkpt lat="45.979406191036105" lon="7.223607217893004">
        <ele>2214.0500000000002</ele>
        <time>2016-07-05T09:39:06Z</time>
      </trkpt>
      <trkpt lat="45.979427313432097" lon="7.223577881231904">
        <ele>2215.5</ele>
        <time>2016-07-05T09:39:16Z</time>
      </trkpt>
      <trkpt lat="45.979462517425418" lon="7.22350001335144">
        <ele>2216.9400000000001</ele>
        <time>2016-07-05T09:39:26Z</time>
      </trkpt>
      <trkpt lat="45.979493027552962" lon="7.223473861813545">
        <ele>2217.4200000000001</ele>
        <time>2016-07-05T09:39:40Z</time>
      </trkpt>
      <trkpt lat="45.979518089443445" lon="7.223433125764132">
        <ele>2218.8600000000001</ele>
        <time>2016-07-05T09:39:49Z</time>
      </trkpt>
      <trkpt lat="45.979549521580338" lon="7.223367914557457">
        <ele>2220.7800000000002</ele>
        <time>2016-07-05T09:40:02Z</time>
      </trkpt>
      <trkpt lat="45.979572739452124" lon="7.223346792161465">
        <ele>2221.7399999999998</ele>
        <time>2016-07-05T09:40:12Z</time>
      </trkpt>
      <trkpt lat="45.979598639532924" lon="7.223311085253954">
        <ele>2223.6700000000001</ele>
        <time>2016-07-05T09:40:22Z</time>
      </trkpt>
      <trkpt lat="45.979620181024075" lon="7.223246963694692">
        <ele>2225.1100000000001</ele>
        <time>2016-07-05T09:40:34Z</time>
      </trkpt>
      <trkpt lat="45.979620767757297" lon="7.223205976188183">
        <ele>2226.5500000000002</ele>
        <time>2016-07-05T09:40:44Z</time>
      </trkpt>
      <trkpt lat="45.97964976914227" lon="7.223182423040271">
        <ele>2228.4699999999998</ele>
        <time>2016-07-05T09:40:55Z</time>
      </trkpt>
      <trkpt lat="45.979683380573988" lon="7.223246041685343">
        <ele>2229.4299999999998</ele>
        <time>2016-07-05T09:41:06Z</time>
      </trkpt>
      <trkpt lat="45.979703664779663" lon="7.223296919837594">
        <ele>2230.8800000000001</ele>
        <time>2016-07-05T09:41:17Z</time>
      </trkpt>
      <trkpt lat="45.979710286483169" lon="7.223263643682003">
        <ele>2232.3200000000002</ele>
        <time>2016-07-05T09:41:28Z</time>
      </trkpt>
      <trkpt lat="45.979729481041431" lon="7.223218213766813">
        <ele>2233.7600000000002</ele>
        <time>2016-07-05T09:41:38Z</time>
      </trkpt>
      <trkpt lat="45.979763008654118" lon="7.223188458010554">
        <ele>2234.7199999999998</ele>
        <time>2016-07-05T09:41:49Z</time>
      </trkpt>
      <trkpt lat="45.97978220321238" lon="7.223132885992527">
        <ele>2236.6399999999999</ele>
        <time>2016-07-05T09:42:03Z</time>
      </trkpt>
      <trkpt lat="45.979813970625401" lon="7.223095335066319">
        <ele>2237.6100000000001</ele>
        <time>2016-07-05T09:42:17Z</time>
      </trkpt>
      <trkpt lat="45.979817742481828" lon="7.22307831980288">
        <ele>2240.0100000000002</ele>
        <time>2016-07-05T09:42:20Z</time>
      </trkpt>
      <trkpt lat="45.979852275922894" lon="7.223005564883351">
        <ele>2238.5700000000002</ele>
        <time>2016-07-05T09:42:35Z</time>
      </trkpt>
      <trkpt lat="45.979880187660456" lon="7.222957033663988">
        <ele>2238.5700000000002</ele>
        <time>2016-07-05T09:42:47Z</time>
      </trkpt>
      <trkpt lat="45.979926036670804" lon="7.222918896004558">
        <ele>2243.3699999999999</ele>
        <time>2016-07-05T09:42:57Z</time>
      </trkpt>
      <trkpt lat="45.979926623404026" lon="7.222912358120084">
        <ele>2243.3699999999999</ele>
        <time>2016-07-05T09:42:58Z</time>
      </trkpt>
      <trkpt lat="45.979981105774641" lon="7.222804399207234">
        <ele>2245.3000000000002</ele>
        <time>2016-07-05T09:43:15Z</time>
      </trkpt>
      <trkpt lat="45.980023602023721" lon="7.222720412537456">
        <ele>2247.6999999999998</ele>
        <time>2016-07-05T09:43:32Z</time>
      </trkpt>
      <trkpt lat="45.980029720813036" lon="7.222695853561163">
        <ele>2248.6599999999999</ele>
        <time>2016-07-05T09:43:45Z</time>
      </trkpt>
      <trkpt lat="45.980047155171633" lon="7.222648747265339">
        <ele>2250.0999999999999</ele>
        <time>2016-07-05T09:43:57Z</time>
      </trkpt>
      <trkpt lat="45.980092082172632" lon="7.222569286823273">
        <ele>2251.0599999999999</ele>
        <time>2016-07-05T09:44:06Z</time>
      </trkpt>
      <trkpt lat="45.980138434097171" lon="7.222533579915762">
        <ele>2252.5100000000002</ele>
        <time>2016-07-05T09:44:17Z</time>
      </trkpt>
      <trkpt lat="45.980176571756601" lon="7.222482953220606">
        <ele>2254.4299999999998</ele>
        <time>2016-07-05T09:44:29Z</time>
      </trkpt>
      <trkpt lat="45.980222672224045" lon="7.222426040098071">
        <ele>2256.3499999999999</ele>
        <time>2016-07-05T09:44:40Z</time>
      </trkpt>
      <trkpt lat="45.980252763256431" lon="7.22239033319056">
        <ele>2257.3099999999999</ele>
        <time>2016-07-05T09:44:51Z</time>
      </trkpt>
      <trkpt lat="45.980328368023038" lon="7.222328390926123">
        <ele>2258.75</ele>
        <time>2016-07-05T09:45:05Z</time>
      </trkpt>
      <trkpt lat="45.980371702462435" lon="7.222343981266022">
        <ele>2260.1999999999998</ele>
        <time>2016-07-05T09:45:15Z</time>
      </trkpt>
      <trkpt lat="45.980397686362267" lon="7.222288157790899">
        <ele>2262.1199999999999</ele>
        <time>2016-07-05T09:45:27Z</time>
      </trkpt>
      <trkpt lat="45.980442781001329" lon="7.22227449528873">
        <ele>2263.5599999999999</ele>
        <time>2016-07-05T09:45:37Z</time>
      </trkpt>
      <trkpt lat="45.980478739365935" lon="7.222272483631969">
        <ele>2264.52</ele>
        <time>2016-07-05T09:45:49Z</time>
      </trkpt>
      <trkpt lat="45.980510171502829" lon="7.222259575501084">
        <ele>2265.96</ele>
        <time>2016-07-05T09:45:59Z</time>
      </trkpt>
      <trkpt lat="45.980531629174948" lon="7.222243649885058">
        <ele>2266.9299999999998</ele>
        <time>2016-07-05T09:46:08Z</time>
      </trkpt>
      <trkpt lat="45.980579908937216" lon="7.22220953553915">
        <ele>2267.8899999999999</ele>
        <time>2016-07-05T09:46:17Z</time>
      </trkpt>
      <trkpt lat="45.980599774047732" lon="7.222179276868701">
        <ele>2269.3299999999999</ele>
        <time>2016-07-05T09:46:28Z</time>
      </trkpt>
      <trkpt lat="45.980627350509167" lon="7.222155220806599">
        <ele>2270.77</ele>
        <time>2016-07-05T09:46:40Z</time>
      </trkpt>
      <trkpt lat="45.980646125972271" lon="7.222116831690073">
        <ele>2272.21</ele>
        <time>2016-07-05T09:46:49Z</time>
      </trkpt>
      <trkpt lat="45.980655094608665" lon="7.222055140882731">
        <ele>2273.6599999999999</ele>
        <time>2016-07-05T09:46:58Z</time>
      </trkpt>
      <trkpt lat="45.980673702433705" lon="7.221961012110114">
        <ele>2274.1399999999999</ele>
        <time>2016-07-05T09:47:08Z</time>
      </trkpt>
      <trkpt lat="45.980690382421017" lon="7.221887167543173">
        <ele>2275.0999999999999</ele>
        <time>2016-07-05T09:47:20Z</time>
      </trkpt>
      <trkpt lat="45.980739668011665" lon="7.221870236098766">
        <ele>2276.0599999999999</ele>
        <time>2016-07-05T09:47:30Z</time>
      </trkpt>
      <trkpt lat="45.980778057128191" lon="7.221824806183577">
        <ele>2274.6199999999999</ele>
        <time>2016-07-05T09:47:39Z</time>
      </trkpt>
      <trkpt lat="45.980807226151228" lon="7.221714416518807">
        <ele>2273.6599999999999</ele>
        <time>2016-07-05T09:47:49Z</time>
      </trkpt>
      <trkpt lat="45.980834383517504" lon="7.221617018803954">
        <ele>2273.6599999999999</ele>
        <time>2016-07-05T09:47:59Z</time>
      </trkpt>
      <trkpt lat="45.980858104303479" lon="7.221513418480754">
        <ele>2273.6599999999999</ele>
        <time>2016-07-05T09:48:09Z</time>
      </trkpt>
      <trkpt lat="45.980858691036701" lon="7.221501767635346">
        <ele>2273.6599999999999</ele>
        <time>2016-07-05T09:48:10Z</time>
      </trkpt>
      <trkpt lat="45.980895655229688" lon="7.221381152048707">
        <ele>2273.6599999999999</ele>
        <time>2016-07-05T09:48:22Z</time>
      </trkpt>
      <trkpt lat="45.98090504296124" lon="7.221353240311146">
        <ele>2273.6599999999999</ele>
        <time>2016-07-05T09:48:33Z</time>
      </trkpt>
      <trkpt lat="45.980907222256064" lon="7.221342846751213">
        <ele>2274.1399999999999</ele>
        <time>2016-07-05T09:48:45Z</time>
      </trkpt>
      <trkpt lat="45.980910072103143" lon="7.221349971368909">
        <ele>2274.1399999999999</ele>
        <time>2016-07-05T09:48:57Z</time>
      </trkpt>
      <trkpt lat="45.98091091029346" lon="7.221336225047708">
        <ele>2274.1399999999999</ele>
        <time>2016-07-05T09:49:09Z</time>
      </trkpt>
      <trkpt lat="45.980917615815997" lon="7.221291298046708">
        <ele>2274.1399999999999</ele>
        <time>2016-07-05T09:49:22Z</time>
      </trkpt>
      <trkpt lat="45.980922477319837" lon="7.221262883394957">
        <ele>2274.1399999999999</ele>
        <time>2016-07-05T09:49:39Z</time>
      </trkpt>
      <trkpt lat="45.980960195884109" lon="7.221100525930524">
        <ele>2273.6599999999999</ele>
        <time>2016-07-05T09:49:51Z</time>
      </trkpt>
      <trkpt lat="45.981012918055058" lon="7.220971109345555">
        <ele>2274.1399999999999</ele>
        <time>2016-07-05T09:50:02Z</time>
      </trkpt>
      <trkpt lat="45.981044853106141" lon="7.220907658338547">
        <ele>2274.6199999999999</ele>
        <time>2016-07-05T09:50:08Z</time>
      </trkpt>
      <trkpt lat="45.981087768450379" lon="7.220828114077449">
        <ele>2275.0999999999999</ele>
        <time>2016-07-05T09:50:17Z</time>
      </trkpt>
      <trkpt lat="45.981126325204968" lon="7.220754940062761">
        <ele>2275.5799999999999</ele>
        <time>2016-07-05T09:50:24Z</time>
      </trkpt>
      <trkpt lat="45.981182064861059" lon="7.220633318647742">
        <ele>2275.5799999999999</ele>
        <time>2016-07-05T09:50:34Z</time>
      </trkpt>
      <trkpt lat="45.981238726526499" lon="7.220503566786647">
        <ele>2275.5799999999999</ele>
        <time>2016-07-05T09:50:44Z</time>
      </trkpt>
      <trkpt lat="45.981282060965896" lon="7.220417568460107">
        <ele>2276.0599999999999</ele>
        <time>2016-07-05T09:50:53Z</time>
      </trkpt>
      <trkpt lat="45.981305027380586" lon="7.220386052504182">
        <ele>2276.0599999999999</ele>
        <time>2016-07-05T09:50:57Z</time>
      </trkpt>
      <trkpt lat="45.981354899704456" lon="7.220306843519211">
        <ele>2276.54</ele>
        <time>2016-07-05T09:51:04Z</time>
      </trkpt>
      <trkpt lat="45.981406448408961" lon="7.220191592350602">
        <ele>2277.02</ele>
        <time>2016-07-05T09:51:14Z</time>
      </trkpt>
      <trkpt lat="45.981434360146523" lon="7.22013627178967">
        <ele>2277.02</ele>
        <time>2016-07-05T09:51:18Z</time>
      </trkpt>
      <trkpt lat="45.981506612151861" lon="7.220029653981328">
        <ele>2277.5</ele>
        <time>2016-07-05T09:51:28Z</time>
      </trkpt>
      <trkpt lat="45.981564531102777" lon="7.219915660098195">
        <ele>2277.02</ele>
        <time>2016-07-05T09:51:37Z</time>
      </trkpt>
      <trkpt lat="45.981615157797933" lon="7.219845168292522">
        <ele>2277.02</ele>
        <time>2016-07-05T09:51:43Z</time>
      </trkpt>
      <trkpt lat="45.981690678745508" lon="7.219767468050122">
        <ele>2277.02</ele>
        <time>2016-07-05T09:51:53Z</time>
      </trkpt>
      <trkpt lat="45.981740467250347" lon="7.219685576856136">
        <ele>2277.02</ele>
        <time>2016-07-05T09:52:01Z</time>
      </trkpt>
      <trkpt lat="45.981804756447673" lon="7.219586502760649">
        <ele>2276.54</ele>
        <time>2016-07-05T09:52:11Z</time>
      </trkpt>
      <trkpt lat="45.981858484447002" lon="7.219465300440788">
        <ele>2276.0599999999999</ele>
        <time>2016-07-05T09:52:21Z</time>
      </trkpt>
      <trkpt lat="45.981891006231308" lon="7.219385504722595">
        <ele>2275.5799999999999</ele>
        <time>2016-07-05T09:52:27Z</time>
      </trkpt>
      <trkpt lat="45.981927299872041" lon="7.21935004927218">
        <ele>2276.0599999999999</ele>
        <time>2016-07-05T09:52:32Z</time>
      </trkpt>
      <trkpt lat="45.98198932595551" lon="7.21921375952661">
        <ele>2276.54</ele>
        <time>2016-07-05T09:52:44Z</time>
      </trkpt>
      <trkpt lat="45.982038192451" lon="7.219051318243146">
        <ele>2275.0999999999999</ele>
        <time>2016-07-05T09:52:55Z</time>
      </trkpt>
      <trkpt lat="45.982116814702749" lon="7.218855600804091">
        <ele>2273.6599999999999</ele>
        <time>2016-07-05T09:53:08Z</time>
      </trkpt>
      <trkpt lat="45.98220675252378" lon="7.218764489516616">
        <ele>2273.6599999999999</ele>
        <time>2016-07-05T09:53:18Z</time>
      </trkpt>
      <trkpt lat="45.982207171618938" lon="7.21874856390059">
        <ele>2274.1399999999999</ele>
        <time>2016-07-05T09:53:20Z</time>
      </trkpt>
      <trkpt lat="45.98221555352211" lon="7.218723082914949">
        <ele>2274.1399999999999</ele>
        <time>2016-07-05T09:53:22Z</time>
      </trkpt>
      <trkpt lat="45.982241285964847" lon="7.218666588887572">
        <ele>2275.0999999999999</ele>
        <time>2016-07-05T09:53:28Z</time>
      </trkpt>
      <trkpt lat="45.982321668416262" lon="7.218582518398762">
        <ele>2276.0599999999999</ele>
        <time>2016-07-05T09:53:38Z</time>
      </trkpt>
      <trkpt lat="45.982331642881036" lon="7.218567179515958">
        <ele>2276.0599999999999</ele>
        <time>2016-07-05T09:53:40Z</time>
      </trkpt>
      <trkpt lat="45.982372378930449" lon="7.218401972204447">
        <ele>2275.0999999999999</ele>
        <time>2016-07-05T09:53:52Z</time>
      </trkpt>
      <trkpt lat="45.982386879622936" lon="7.218235088512301">
        <ele>2274.1399999999999</ele>
        <time>2016-07-05T09:54:04Z</time>
      </trkpt>
      <trkpt lat="45.982381096109748" lon="7.21818077377975">
        <ele>2273.1700000000001</ele>
        <time>2016-07-05T09:54:08Z</time>
      </trkpt>
      <trkpt lat="45.982426693663001" lon="7.217984469607472">
        <ele>2273.1700000000001</ele>
        <time>2016-07-05T09:54:21Z</time>
      </trkpt>
      <trkpt lat="45.982484193518758" lon="7.217824039980769">
        <ele>2272.21</ele>
        <time>2016-07-05T09:54:32Z</time>
      </trkpt>
      <trkpt lat="45.982542196288705" lon="7.217663191258907">
        <ele>2271.25</ele>
        <time>2016-07-05T09:54:44Z</time>
      </trkpt>
      <trkpt lat="45.982602965086699" lon="7.217539055272937">
        <ele>2270.29</ele>
        <time>2016-07-05T09:54:55Z</time>
      </trkpt>
      <trkpt lat="45.982635151594877" lon="7.217352390289307">
        <ele>2267.8899999999999</ele>
        <time>2016-07-05T09:55:10Z</time>
      </trkpt>
      <trkpt lat="45.982683515176177" lon="7.217158684507012">
        <ele>2265.96</ele>
        <time>2016-07-05T09:55:23Z</time>
      </trkpt>
      <trkpt lat="45.982719724997878" lon="7.217083498835564">
        <ele>2265.48</ele>
        <time>2016-07-05T09:55:29Z</time>
      </trkpt>
      <trkpt lat="45.982764232903719" lon="7.216973695904017">
        <ele>2264.52</ele>
        <time>2016-07-05T09:55:38Z</time>
      </trkpt>
      <trkpt lat="45.982784684747458" lon="7.216929607093334">
        <ele>2265</ele>
        <time>2016-07-05T09:55:42Z</time>
      </trkpt>
      <trkpt lat="45.982862384989858" lon="7.2167500667274">
        <ele>2263.5599999999999</ele>
        <time>2016-07-05T09:55:56Z</time>
      </trkpt>
      <trkpt lat="45.982897421345115" lon="7.216648980975151">
        <ele>2262.5999999999999</ele>
        <time>2016-07-05T09:56:04Z</time>
      </trkpt>
      <trkpt lat="45.982942096889019" lon="7.216499699279666">
        <ele>2262.1199999999999</ele>
        <time>2016-07-05T09:56:16Z</time>
      </trkpt>
      <trkpt lat="45.982968416064978" lon="7.216435493901372">
        <ele>2262.1199999999999</ele>
        <time>2016-07-05T09:56:22Z</time>
      </trkpt>
      <trkpt lat="45.98298174329102" lon="7.216419484466314">
        <ele>2263.0799999999999</ele>
        <time>2016-07-05T09:56:32Z</time>
      </trkpt>
      <trkpt lat="45.982992555946112" lon="7.216387465596199">
        <ele>2262.5999999999999</ele>
        <time>2016-07-05T09:56:41Z</time>
      </trkpt>
      <trkpt lat="45.983011582866311" lon="7.21628000959754">
        <ele>2261.1599999999999</ele>
        <time>2016-07-05T09:56:48Z</time>
      </trkpt>
      <trkpt lat="45.983067490160465" lon="7.216112455353141">
        <ele>2259.2399999999998</ele>
        <time>2016-07-05T09:56:59Z</time>
      </trkpt>
      <trkpt lat="45.983090121299028" lon="7.216052692383528">
        <ele>2260.1999999999998</ele>
        <time>2016-07-05T09:57:03Z</time>
      </trkpt>
      <trkpt lat="45.983145944774151" lon="7.21596191637218">
        <ele>2258.75</ele>
        <time>2016-07-05T09:57:10Z</time>
      </trkpt>
      <trkpt lat="45.983166983351111" lon="7.215886060148478">
        <ele>2258.75</ele>
        <time>2016-07-05T09:57:15Z</time>
      </trkpt>
      <trkpt lat="45.983225321397185" lon="7.215762762352824">
        <ele>2257.3099999999999</ele>
        <time>2016-07-05T09:57:24Z</time>
      </trkpt>
      <trkpt lat="45.983248790726066" lon="7.215730827301741">
        <ele>2257.79</ele>
        <time>2016-07-05T09:57:27Z</time>
      </trkpt>
      <trkpt lat="45.983267398551106" lon="7.215650361031294">
        <ele>2257.3099999999999</ele>
        <time>2016-07-05T09:57:32Z</time>
      </trkpt>
      <trkpt lat="45.983287012204528" lon="7.215625802055001">
        <ele>2257.3099999999999</ele>
        <time>2016-07-05T09:57:34Z</time>
      </trkpt>
      <trkpt lat="45.983351720497012" lon="7.215514741837978">
        <ele>2257.3099999999999</ele>
        <time>2016-07-05T09:57:44Z</time>
      </trkpt>
      <trkpt lat="45.983356079086661" lon="7.215501163154841">
        <ele>2257.3099999999999</ele>
        <time>2016-07-05T09:57:45Z</time>
      </trkpt>
      <trkpt lat="45.983407879248261" lon="7.215313827618957">
        <ele>2254.9099999999999</ele>
        <time>2016-07-05T09:57:58Z</time>
      </trkpt>
      <trkpt lat="45.983451548963785" lon="7.215203354135156">
        <ele>2253.4699999999998</ele>
        <time>2016-07-05T09:58:07Z</time>
      </trkpt>
      <trkpt lat="45.983528746291995" lon="7.215015012770891">
        <ele>2252.9899999999998</ele>
        <time>2016-07-05T09:58:20Z</time>
      </trkpt>
      <trkpt lat="45.983592197299004" lon="7.214901689440012">
        <ele>2252.5100000000002</ele>
        <time>2016-07-05T09:58:29Z</time>
      </trkpt>
      <trkpt lat="45.983660509809852" lon="7.214818960055709">
        <ele>2252.5100000000002</ele>
        <time>2016-07-05T09:58:39Z</time>
      </trkpt>
      <trkpt lat="45.983730666339397" lon="7.214707145467401">
        <ele>2251.54</ele>
        <time>2016-07-05T09:58:49Z</time>
      </trkpt>
      <trkpt lat="45.983789842575788" lon="7.214614525437355">
        <ele>2251.54</ele>
        <time>2016-07-05T09:58:58Z</time>
      </trkpt>
      <trkpt lat="45.983836781233549" lon="7.214499106630683">
        <ele>2251.0599999999999</ele>
        <time>2016-07-05T09:59:09Z</time>
      </trkpt>
      <trkpt lat="45.983903249725699" lon="7.214414197951555">
        <ele>2250.5799999999999</ele>
        <time>2016-07-05T09:59:18Z</time>
      </trkpt>
      <trkpt lat="45.983968628570437" lon="7.214348400011659">
        <ele>2250.5799999999999</ele>
        <time>2016-07-05T09:59:25Z</time>
      </trkpt>
      <trkpt lat="45.984032331034541" lon="7.214302467182279">
        <ele>2251.0599999999999</ele>
        <time>2016-07-05T09:59:32Z</time>
      </trkpt>
      <trkpt lat="45.984081951901317" lon="7.214252259582281">
        <ele>2251.0599999999999</ele>
        <time>2016-07-05T09:59:37Z</time>
      </trkpt>
      <trkpt lat="45.984144313260913" lon="7.214197777211666">
        <ele>2251.54</ele>
        <time>2016-07-05T09:59:46Z</time>
      </trkpt>
      <trkpt lat="45.98417934961617" lon="7.214159220457077">
        <ele>2251.0599999999999</ele>
        <time>2016-07-05T09:59:50Z</time>
      </trkpt>
      <trkpt lat="45.984275238588452" lon="7.214104318991303">
        <ele>2251.54</ele>
        <time>2016-07-05T10:00:01Z</time>
      </trkpt>
      <trkpt lat="45.98429904319346" lon="7.214097529649735">
        <ele>2251.54</ele>
        <time>2016-07-05T10:00:12Z</time>
      </trkpt>
      <trkpt lat="45.984337935224175" lon="7.214069198817015">
        <ele>2251.54</ele>
        <time>2016-07-05T10:00:17Z</time>
      </trkpt>
      <trkpt lat="45.98439384251833" lon="7.21407582052052">
        <ele>2252.0300000000002</ele>
        <time>2016-07-05T10:00:26Z</time>
      </trkpt>
      <trkpt lat="45.984407085925341" lon="7.214056374505162">
        <ele>2251.54</ele>
        <time>2016-07-05T10:00:38Z</time>
      </trkpt>
      <trkpt lat="45.984415551647544" lon="7.214056206867099">
        <ele>2251.54</ele>
        <time>2016-07-05T10:00:49Z</time>
      </trkpt>
      <trkpt lat="45.984420161694288" lon="7.214048830792308">
        <ele>2251.54</ele>
        <time>2016-07-05T10:01:02Z</time>
      </trkpt>
      <trkpt lat="45.984441032633185" lon="7.214052183553577">
        <ele>2251.54</ele>
        <time>2016-07-05T10:01:13Z</time>
      </trkpt>
      <trkpt lat="45.984459891915321" lon="7.214071378111839">
        <ele>2251.54</ele>
        <time>2016-07-05T10:01:27Z</time>
      </trkpt>
      <trkpt lat="45.984476739540696" lon="7.214044220745564">
        <ele>2251.54</ele>
        <time>2016-07-05T10:01:38Z</time>
      </trkpt>
      <trkpt lat="45.984526108950377" lon="7.213996192440391">
        <ele>2251.54</ele>
        <time>2016-07-05T10:01:44Z</time>
      </trkpt>
      <trkpt lat="45.984555277973413" lon="7.213945230469108">
        <ele>2251.0599999999999</ele>
        <time>2016-07-05T10:01:49Z</time>
      </trkpt>
      <trkpt lat="45.984580758959055" lon="7.213896447792649">
        <ele>2251.54</ele>
        <time>2016-07-05T10:01:53Z</time>
      </trkpt>
      <trkpt lat="45.984678156673908" lon="7.213827967643738">
        <ele>2251.0599999999999</ele>
        <time>2016-07-05T10:02:04Z</time>
      </trkpt>
      <trkpt lat="45.984767926856875" lon="7.213787231594324">
        <ele>2250.5799999999999</ele>
        <time>2016-07-05T10:02:14Z</time>
      </trkpt>
      <trkpt lat="45.984784355387092" lon="7.213770719245076">
        <ele>2250.5799999999999</ele>
        <time>2016-07-05T10:02:16Z</time>
      </trkpt>
      <trkpt lat="45.984843531623483" lon="7.213700646534562">
        <ele>2250.0999999999999</ele>
        <time>2016-07-05T10:02:23Z</time>
      </trkpt>
      <trkpt lat="45.984909748658538" lon="7.21365949138999">
        <ele>2249.6199999999999</ele>
        <time>2016-07-05T10:02:30Z</time>
      </trkpt>
      <trkpt lat="45.984948808327317" lon="7.213645745068789">
        <ele>2249.6199999999999</ele>
        <time>2016-07-05T10:02:34Z</time>
      </trkpt>
      <trkpt lat="45.985078727826476" lon="7.213583299890161">
        <ele>2248.6599999999999</ele>
        <time>2016-07-05T10:02:47Z</time>
      </trkpt>
      <trkpt lat="45.985136982053518" lon="7.213549520820379">
        <ele>2247.6999999999998</ele>
        <time>2016-07-05T10:02:54Z</time>
      </trkpt>
      <trkpt lat="45.985157266259193" lon="7.213569218292832">
        <ele>2247.6999999999998</ele>
        <time>2016-07-05T10:03:05Z</time>
      </trkpt>
      <trkpt lat="45.985234631225467" lon="7.213593609631062">
        <ele>2247.2199999999998</ele>
        <time>2016-07-05T10:03:15Z</time>
      </trkpt>
      <trkpt lat="45.985280480235815" lon="7.213654378429055">
        <ele>2248.1799999999998</ele>
        <time>2016-07-05T10:03:26Z</time>
      </trkpt>
      <trkpt lat="45.985312331467867" lon="7.213708190247417">
        <ele>2249.6199999999999</ele>
        <time>2016-07-05T10:03:36Z</time>
      </trkpt>
      <trkpt lat="45.985324652865529" lon="7.21372059546411">
        <ele>2250.0999999999999</ele>
        <time>2016-07-05T10:03:46Z</time>
      </trkpt>
      <trkpt lat="45.985364215448499" lon="7.213752027601004">
        <ele>2249.6199999999999</ele>
        <time>2016-07-05T10:03:56Z</time>
      </trkpt>
      <trkpt lat="45.985370920971036" lon="7.213764516636729">
        <ele>2250.5799999999999</ele>
        <time>2016-07-05T10:03:59Z</time>
      </trkpt>
      <trkpt lat="45.985371172428131" lon="7.213765690103173">
        <ele>2250.5799999999999</ele>
        <time>2016-07-05T10:04:16Z</time>
      </trkpt>
      <trkpt lat="45.98541559651494" lon="7.213829979300499">
        <ele>2251.0599999999999</ele>
        <time>2016-07-05T10:04:27Z</time>
      </trkpt>
      <trkpt lat="45.985446106642485" lon="7.213886557146907">
        <ele>2252.0300000000002</ele>
        <time>2016-07-05T10:04:37Z</time>
      </trkpt>
      <trkpt lat="45.985469156876206" lon="7.213965430855751">
        <ele>2252.5100000000002</ele>
        <time>2016-07-05T10:04:46Z</time>
      </trkpt>
      <trkpt lat="45.985502852126956" lon="7.214037347584963">
        <ele>2253.4699999999998</ele>
        <time>2016-07-05T10:04:55Z</time>
      </trkpt>
      <trkpt lat="45.985538559034467" lon="7.214112030342221">
        <ele>2254.4299999999998</ele>
        <time>2016-07-05T10:05:05Z</time>
      </trkpt>
      <trkpt lat="45.985557334497571" lon="7.214162573218346">
        <ele>2255.3899999999999</ele>
        <time>2016-07-05T10:05:14Z</time>
      </trkpt>
      <trkpt lat="45.98557636141777" lon="7.214228790253401">
        <ele>2256.8299999999999</ele>
        <time>2016-07-05T10:05:25Z</time>
      </trkpt>
      <trkpt lat="45.985603267326951" lon="7.214279668405652">
        <ele>2257.79</ele>
        <time>2016-07-05T10:05:35Z</time>
      </trkpt>
      <trkpt lat="45.985614415258169" lon="7.214306239038706">
        <ele>2258.75</ele>
        <time>2016-07-05T10:05:38Z</time>
      </trkpt>
      <trkpt lat="45.985655235126615" lon="7.214391818270087">
        <ele>2259.7199999999998</ele>
        <time>2016-07-05T10:05:47Z</time>
      </trkpt>
      <trkpt lat="45.985682224854827" lon="7.214463902637363">
        <ele>2260.6799999999998</ele>
        <time>2016-07-05T10:05:58Z</time>
      </trkpt>
      <trkpt lat="45.985708963125944" lon="7.214529616758227">
        <ele>2262.5999999999999</ele>
        <time>2016-07-05T10:06:10Z</time>
      </trkpt>
      <trkpt lat="45.985738383606076" lon="7.214575549587607">
        <ele>2264.52</ele>
        <time>2016-07-05T10:06:20Z</time>
      </trkpt>
      <trkpt lat="45.98576445132494" lon="7.214599940925837">
        <ele>2264.52</ele>
        <time>2016-07-05T10:06:28Z</time>
      </trkpt>
      <trkpt lat="45.985762439668179" lon="7.214635312557221">
        <ele>2265</ele>
        <time>2016-07-05T10:06:40Z</time>
      </trkpt>
      <trkpt lat="45.985802505165339" lon="7.214661464095116">
        <ele>2265.96</ele>
        <time>2016-07-05T10:06:50Z</time>
      </trkpt>
      <trkpt lat="45.985826058313251" lon="7.214654590934515">
        <ele>2265.48</ele>
        <time>2016-07-05T10:06:59Z</time>
      </trkpt>
      <trkpt lat="45.985858161002398" lon="7.214705804362893">
        <ele>2266.4499999999998</ele>
        <time>2016-07-05T10:07:08Z</time>
      </trkpt>
      <trkpt lat="45.98587391898036" lon="7.214729860424995">
        <ele>2265.48</ele>
        <time>2016-07-05T10:07:20Z</time>
      </trkpt>
      <trkpt lat="45.98587048240006" lon="7.214762466028333">
        <ele>2266.9299999999998</ele>
        <time>2016-07-05T10:07:26Z</time>
      </trkpt>
      <trkpt lat="45.985834440216422" lon="7.214783169329166">
        <ele>2267.4099999999999</ele>
        <time>2016-07-05T10:07:37Z</time>
      </trkpt>
      <trkpt lat="45.98583091981709" lon="7.214764812961221">
        <ele>2267.4099999999999</ele>
        <time>2016-07-05T10:07:46Z</time>
      </trkpt>
      <trkpt lat="45.985839972272515" lon="7.214751066640019">
        <ele>2266.9299999999998</ele>
        <time>2016-07-05T10:07:56Z</time>
      </trkpt>
      <trkpt lat="45.985848354175687" lon="7.214749474078417">
        <ele>2267.4099999999999</ele>
        <time>2016-07-05T10:08:08Z</time>
      </trkpt>
      <trkpt lat="45.985843576490879" lon="7.214748049154878">
        <ele>2266.4499999999998</ele>
        <time>2016-07-05T10:08:19Z</time>
      </trkpt>
      <trkpt lat="45.985824633389711" lon="7.21476573497057">
        <ele>2266.4499999999998</ele>
        <time>2016-07-05T10:08:51Z</time>
      </trkpt>
      <trkpt lat="45.985829830169678" lon="7.214763136580586">
        <ele>2266.9299999999998</ele>
        <time>2016-07-05T10:09:18Z</time>
      </trkpt>
      <trkpt lat="45.985829075798392" lon="7.214759197086096">
        <ele>2266.9299999999998</ele>
        <time>2016-07-05T10:09:44Z</time>
      </trkpt>
      <trkpt lat="45.985841397196054" lon="7.214751485735178">
        <ele>2266.9299999999998</ele>
        <time>2016-07-05T10:10:07Z</time>
      </trkpt>
      <trkpt lat="45.985846258699894" lon="7.214738745242357">
        <ele>2266.9299999999998</ele>
        <time>2016-07-05T10:10:26Z</time>
      </trkpt>
      <trkpt lat="45.985831758007407" lon="7.214751485735178">
        <ele>2266.9299999999998</ele>
        <time>2016-07-05T10:10:50Z</time>
      </trkpt>
      <trkpt lat="45.985835110768676" lon="7.214752156287432">
        <ele>2266.9299999999998</ele>
        <time>2016-07-05T10:11:14Z</time>
      </trkpt>
      <trkpt lat="45.985833769664168" lon="7.214751234278083">
        <ele>2266.9299999999998</ele>
        <time>2016-07-05T10:11:33Z</time>
      </trkpt>
      <trkpt lat="45.985833182930946" lon="7.214750060811639">
        <ele>2266.9299999999998</ele>
        <time>2016-07-05T10:11:56Z</time>
      </trkpt>
      <trkpt lat="45.985832763835788" lon="7.214747797697783">
        <ele>2266.9299999999998</ele>
        <time>2016-07-05T10:12:20Z</time>
      </trkpt>
      <trkpt lat="45.985837960615754" lon="7.214747713878751">
        <ele>2267.4099999999999</ele>
        <time>2016-07-05T10:12:52Z</time>
      </trkpt>
      <trkpt lat="45.985838295891881" lon="7.214754587039352">
        <ele>2267.4099999999999</ele>
        <time>2016-07-05T10:13:14Z</time>
      </trkpt>
      <trkpt lat="45.98583871498704" lon="7.214749222621322">
        <ele>2267.4099999999999</ele>
        <time>2016-07-05T10:13:43Z</time>
      </trkpt>
      <trkpt lat="45.98584265448153" lon="7.214748552069068">
        <ele>2267.4099999999999</ele>
        <time>2016-07-05T10:14:10Z</time>
      </trkpt>
      <trkpt lat="45.985834104940295" lon="7.214754167944193">
        <ele>2267.4099999999999</ele>
        <time>2016-07-05T10:14:29Z</time>
      </trkpt>
      <trkpt lat="45.985839301720262" lon="7.214745366945863">
        <ele>2267.4099999999999</ele>
        <time>2016-07-05T10:14:56Z</time>
      </trkpt>
      <trkpt lat="45.985835110768676" lon="7.214751234278083">
        <ele>2267.8899999999999</ele>
        <time>2016-07-05T10:15:24Z</time>
      </trkpt>
      <trkpt lat="45.985838966444135" lon="7.214749809354544">
        <ele>2267.8899999999999</ele>
        <time>2016-07-05T10:15:54Z</time>
      </trkpt>
      <trkpt lat="45.985837541520596" lon="7.214750982820988">
        <ele>2267.4099999999999</ele>
        <time>2016-07-05T10:16:19Z</time>
      </trkpt>
      <trkpt lat="45.985834775492549" lon="7.214750815182924">
        <ele>2267.4099999999999</ele>
        <time>2016-07-05T10:16:39Z</time>
      </trkpt>
      <trkpt lat="45.985836535692215" lon="7.214747210964561">
        <ele>2267.4099999999999</ele>
        <time>2016-07-05T10:17:04Z</time>
      </trkpt>
      <trkpt lat="45.985838044434786" lon="7.214747965335846">
        <ele>2267.8899999999999</ele>
        <time>2016-07-05T10:17:24Z</time>
      </trkpt>
      <trkpt lat="45.985838798806071" lon="7.214739667251706">
        <ele>2267.4099999999999</ele>
        <time>2016-07-05T10:17:52Z</time>
      </trkpt>
      <trkpt lat="45.985835865139961" lon="7.214744528755546">
        <ele>2267.4099999999999</ele>
        <time>2016-07-05T10:18:12Z</time>
      </trkpt>
      <trkpt lat="45.985839134082198" lon="7.214749474078417">
        <ele>2267.4099999999999</ele>
        <time>2016-07-05T10:18:40Z</time>
      </trkpt>
      <trkpt lat="45.985835446044803" lon="7.214743103832007">
        <ele>2267.4099999999999</ele>
        <time>2016-07-05T10:19:06Z</time>
      </trkpt>
      <trkpt lat="45.985829327255487" lon="7.214745031669736">
        <ele>2267.4099999999999</ele>
        <time>2016-07-05T10:19:30Z</time>
      </trkpt>
      <trkpt lat="45.985835278406739" lon="7.214754335582256">
        <ele>2267.4099999999999</ele>
        <time>2016-07-05T10:19:53Z</time>
      </trkpt>
      <trkpt lat="45.98583921790123" lon="7.214756095781922">
        <ele>2267.8899999999999</ele>
        <time>2016-07-05T10:20:21Z</time>
      </trkpt>
      <trkpt lat="45.985839888453484" lon="7.214747713878751">
        <ele>2267.4099999999999</ele>
        <time>2016-07-05T10:20:50Z</time>
      </trkpt>
      <trkpt lat="45.985840642824769" lon="7.214744864031673">
        <ele>2267.8899999999999</ele>
        <time>2016-07-05T10:21:13Z</time>
      </trkpt>
      <trkpt lat="45.985842403024435" lon="7.214750060811639">
        <ele>2267.8899999999999</ele>
        <time>2016-07-05T10:21:42Z</time>
      </trkpt>
      <trkpt lat="45.985838882625103" lon="7.214746037498117">
        <ele>2267.8899999999999</ele>
        <time>2016-07-05T10:22:08Z</time>
      </trkpt>
      <trkpt lat="45.985838882625103" lon="7.214748887345195">
        <ele>2267.4099999999999</ele>
        <time>2016-07-05T10:22:34Z</time>
      </trkpt>
      <trkpt lat="45.985831590369344" lon="7.214751234278083">
        <ele>2267.8899999999999</ele>
        <time>2016-07-05T10:23:01Z</time>
      </trkpt>
      <trkpt lat="45.98583628423512" lon="7.21474620513618">
        <ele>2267.8899999999999</ele>
        <time>2016-07-05T10:23:24Z</time>
      </trkpt>
      <trkpt lat="45.985838463529944" lon="7.214750647544861">
        <ele>2267.8899999999999</ele>
        <time>2016-07-05T10:23:53Z</time>
      </trkpt>
      <trkpt lat="45.98583578132093" lon="7.214747043326497">
        <ele>2267.8899999999999</ele>
        <time>2016-07-05T10:24:24Z</time>
      </trkpt>
      <trkpt lat="45.985837792977691" lon="7.214749306440353">
        <ele>2267.8899999999999</ele>
        <time>2016-07-05T10:24:50Z</time>
      </trkpt>
      <trkpt lat="45.985832763835788" lon="7.214746037498117">
        <ele>2268.3699999999999</ele>
        <time>2016-07-05T10:25:21Z</time>
      </trkpt>
      <trkpt lat="45.985835613682866" lon="7.214742349460721">
        <ele>2267.8899999999999</ele>
        <time>2016-07-05T10:25:52Z</time>
      </trkpt>
      <trkpt lat="45.985834859311581" lon="7.214745199307799">
        <ele>2267.8899999999999</ele>
        <time>2016-07-05T10:26:31Z</time>
      </trkpt>
      <trkpt lat="45.985837792977691" lon="7.214738996699452">
        <ele>2268.3699999999999</ele>
        <time>2016-07-05T10:27:00Z</time>
      </trkpt>
      <trkpt lat="45.985839469358325" lon="7.214747043326497">
        <ele>2268.3699999999999</ele>
        <time>2016-07-05T10:27:26Z</time>
      </trkpt>
      <trkpt lat="45.985831255093217" lon="7.214742349460721">
        <ele>2268.3699999999999</ele>
        <time>2016-07-05T10:27:54Z</time>
      </trkpt>
      <trkpt lat="45.985837457701564" lon="7.214745534583926">
        <ele>2268.3699999999999</ele>
        <time>2016-07-05T10:28:24Z</time>
      </trkpt>
      <trkpt lat="45.985836368054152" lon="7.214740253984928">
        <ele>2268.3699999999999</ele>
        <time>2016-07-05T10:28:56Z</time>
      </trkpt>
      <trkpt lat="45.98583335056901" lon="7.214741846546531">
        <ele>2269.8099999999999</ele>
        <time>2016-07-05T10:29:18Z</time>
      </trkpt>
      <trkpt lat="45.985829075798392" lon="7.214744277298451">
        <ele>2268.3699999999999</ele>
        <time>2016-07-05T10:29:41Z</time>
      </trkpt>
      <trkpt lat="45.985834021121264" lon="7.214748552069068">
        <ele>2268.3699999999999</ele>
        <time>2016-07-05T10:30:08Z</time>
      </trkpt>
      <trkpt lat="45.985833099111915" lon="7.214743020012975">
        <ele>2268.3699999999999</ele>
        <time>2016-07-05T10:30:37Z</time>
      </trkpt>
      <trkpt lat="45.985834607854486" lon="7.214747043326497">
        <ele>2268.3699999999999</ele>
        <time>2016-07-05T10:31:09Z</time>
      </trkpt>
      <trkpt lat="45.985832680016756" lon="7.214741846546531">
        <ele>2268.3699999999999</ele>
        <time>2016-07-05T10:31:32Z</time>
      </trkpt>
      <trkpt lat="45.985836116597056" lon="7.214752910658717">
        <ele>2267.8899999999999</ele>
        <time>2016-07-05T10:31:55Z</time>
      </trkpt>
      <trkpt lat="45.985844917595387" lon="7.21475793980062">
        <ele>2267.8899999999999</ele>
        <time>2016-07-05T10:32:15Z</time>
      </trkpt>
      <trkpt lat="45.985855981707573" lon="7.214757688343525">
        <ele>2267.8899999999999</ele>
        <time>2016-07-05T10:32:37Z</time>
      </trkpt>
      <trkpt lat="45.985847767442465" lon="7.214766824617982">
        <ele>2267.8899999999999</ele>
        <time>2016-07-05T10:33:01Z</time>
      </trkpt>
      <trkpt lat="45.985852209851146" lon="7.214760454371572">
        <ele>2268.3699999999999</ele>
        <time>2016-07-05T10:33:27Z</time>
      </trkpt>
      <trkpt lat="45.985852628946304" lon="7.214763136580586">
        <ele>2267.8899999999999</ele>
        <time>2016-07-05T10:33:56Z</time>
      </trkpt>
      <trkpt lat="45.985843744128942" lon="7.214761544018984">
        <ele>2267.8899999999999</ele>
        <time>2016-07-05T10:34:15Z</time>
      </trkpt>
      <trkpt lat="45.985851539298892" lon="7.214746791869402">
        <ele>2268.3699999999999</ele>
        <time>2016-07-05T10:34:35Z</time>
      </trkpt>
      <trkpt lat="45.985851790755987" lon="7.214748132973909">
        <ele>2268.3699999999999</ele>
        <time>2016-07-05T10:35:08Z</time>
      </trkpt>
      <trkpt lat="45.985859837383032" lon="7.214755760505796">
        <ele>2268.3699999999999</ele>
        <time>2016-07-05T10:35:39Z</time>
      </trkpt>
      <trkpt lat="45.985857490450144" lon="7.214749557897449">
        <ele>2268.8499999999999</ele>
        <time>2016-07-05T10:35:59Z</time>
      </trkpt>
      <trkpt lat="45.985837792977691" lon="7.214751401916146">
        <ele>2268.8499999999999</ele>
        <time>2016-07-05T10:36:09Z</time>
      </trkpt>
      <trkpt lat="45.985832512378693" lon="7.214740253984928">
        <ele>2268.8499999999999</ele>
        <time>2016-07-05T10:36:37Z</time>
      </trkpt>
      <trkpt lat="45.985842067748308" lon="7.214735727757216">
        <ele>2268.3699999999999</ele>
        <time>2016-07-05T10:36:50Z</time>
      </trkpt>
      <trkpt lat="45.98584458231926" lon="7.214741930365562">
        <ele>2268.3699999999999</ele>
        <time>2016-07-05T10:37:15Z</time>
      </trkpt>
      <trkpt lat="45.985832763835788" lon="7.214742265641689">
        <ele>2268.3699999999999</ele>
        <time>2016-07-05T10:37:34Z</time>
      </trkpt>
      <trkpt lat="45.985808875411749" lon="7.214760789647698">
        <ele>2268.3699999999999</ele>
        <time>2016-07-05T10:38:01Z</time>
      </trkpt>
      <trkpt lat="45.985800325870514" lon="7.214752659201622">
        <ele>2268.8499999999999</ele>
        <time>2016-07-05T10:38:20Z</time>
      </trkpt>
      <trkpt lat="45.985815497115254" lon="7.2147520724684">
        <ele>2268.8499999999999</ele>
        <time>2016-07-05T10:38:44Z</time>
      </trkpt>
      <trkpt lat="45.985802337527275" lon="7.214757017791271">
        <ele>2268.8499999999999</ele>
        <time>2016-07-05T10:39:04Z</time>
      </trkpt>
      <trkpt lat="45.985795464366674" lon="7.214768752455711">
        <ele>2268.8499999999999</ele>
        <time>2016-07-05T10:39:20Z</time>
      </trkpt>
      <trkpt lat="45.985844079405069" lon="7.214749809354544">
        <ele>2268.8499999999999</ele>
        <time>2016-07-05T10:39:51Z</time>
      </trkpt>
      <trkpt lat="45.985833769664168" lon="7.214738745242357">
        <ele>2268.8499999999999</ele>
        <time>2016-07-05T10:40:28Z</time>
      </trkpt>
      <trkpt lat="45.985847096890211" lon="7.214740421622992">
        <ele>2268.8499999999999</ele>
        <time>2016-07-05T10:41:01Z</time>
      </trkpt>
      <trkpt lat="45.985815497115254" lon="7.214752826839685">
        <ele>2268.8499999999999</ele>
        <time>2016-07-05T10:41:23Z</time>
      </trkpt>
      <trkpt lat="45.985821112990379" lon="7.214785432443023">
        <ele>2269.8099999999999</ele>
        <time>2016-07-05T10:41:29Z</time>
      </trkpt>
      <trkpt lat="45.985833182930946" lon="7.214774619787931">
        <ele>2269.8099999999999</ele>
        <time>2016-07-05T10:41:38Z</time>
      </trkpt>
      <trkpt lat="45.985822789371014" lon="7.21477990038693">
        <ele>2269.8099999999999</ele>
        <time>2016-07-05T10:41:51Z</time>
      </trkpt>
      <trkpt lat="45.985831171274185" lon="7.214758191257715">
        <ele>2270.29</ele>
        <time>2016-07-05T10:42:09Z</time>
      </trkpt>
      <trkpt lat="45.985835948958993" lon="7.214747378602624">
        <ele>2269.8099999999999</ele>
        <time>2016-07-05T10:42:26Z</time>
      </trkpt>
      <trkpt lat="45.98579864948988" lon="7.214717539027333">
        <ele>2269.8099999999999</ele>
        <time>2016-07-05T10:42:37Z</time>
      </trkpt>
      <trkpt lat="45.9857854899019" lon="7.214699266478419">
        <ele>2269.3299999999999</ele>
        <time>2016-07-05T10:42:39Z</time>
      </trkpt>
      <trkpt lat="45.985753303393722" lon="7.214648639783263">
        <ele>2268.8499999999999</ele>
        <time>2016-07-05T10:42:44Z</time>
      </trkpt>
      <trkpt lat="45.985728157684207" lon="7.214551912620664">
        <ele>2266.4499999999998</ele>
        <time>2016-07-05T10:42:54Z</time>
      </trkpt>
      <trkpt lat="45.985711896792054" lon="7.214490389451385">
        <ele>2265</ele>
        <time>2016-07-05T10:43:00Z</time>
      </trkpt>
      <trkpt lat="45.985659258440137" lon="7.214417215436697">
        <ele>2263.5599999999999</ele>
        <time>2016-07-05T10:43:07Z</time>
      </trkpt>
      <trkpt lat="45.985590107738972" lon="7.214283691719174">
        <ele>2261.1599999999999</ele>
        <time>2016-07-05T10:43:19Z</time>
      </trkpt>
      <trkpt lat="45.985550964251161" lon="7.214193502441049">
        <ele>2259.2399999999998</ele>
        <time>2016-07-05T10:43:28Z</time>
      </trkpt>
      <trkpt lat="45.985522884875536" lon="7.214122759178281">
        <ele>2258.27</ele>
        <time>2016-07-05T10:43:34Z</time>
      </trkpt>
      <trkpt lat="45.985483406111598" lon="7.214035335928202">
        <ele>2256.8299999999999</ele>
        <time>2016-07-05T10:43:41Z</time>
      </trkpt>
      <trkpt lat="45.985548617318273" lon="7.214025780558586">
        <ele>2254.9099999999999</ele>
        <time>2016-07-05T10:43:51Z</time>
      </trkpt>
      <trkpt lat="45.98560469225049" lon="7.214039610698819">
        <ele>2252.5100000000002</ele>
        <time>2016-07-05T10:44:00Z</time>
      </trkpt>
      <trkpt lat="45.985657749697566" lon="7.214000886306167">
        <ele>2252.0300000000002</ele>
        <time>2016-07-05T10:44:09Z</time>
      </trkpt>
      <trkpt lat="45.985723547637463" lon="7.213988481089473">
        <ele>2249.1399999999999</ele>
        <time>2016-07-05T10:44:20Z</time>
      </trkpt>
      <trkpt lat="45.985729498788714" lon="7.213953612372279">
        <ele>2248.1799999999998</ele>
        <time>2016-07-05T10:44:29Z</time>
      </trkpt>
      <trkpt lat="45.985762272030115" lon="7.213953612372279">
        <ele>2245.7800000000002</ele>
        <time>2016-07-05T10:44:40Z</time>
      </trkpt>
      <trkpt lat="45.985772330313921" lon="7.213966939598322">
        <ele>2245.7800000000002</ele>
        <time>2016-07-05T10:44:51Z</time>
      </trkpt>
      <trkpt lat="45.985783562064171" lon="7.213975070044398">
        <ele>2245.7800000000002</ele>
        <time>2016-07-05T10:44:57Z</time>
      </trkpt>
      <trkpt lat="45.985895628109574" lon="7.214074647054076">
        <ele>2245.3000000000002</ele>
        <time>2016-07-05T10:45:09Z</time>
      </trkpt>
      <trkpt lat="45.98605957813561" lon="7.214193837717176">
        <ele>2243.8499999999999</ele>
        <time>2016-07-05T10:45:24Z</time>
      </trkpt>
      <trkpt lat="45.986170470714569" lon="7.214295761659741">
        <ele>2244.8200000000002</ele>
        <time>2016-07-05T10:45:37Z</time>
      </trkpt>
      <trkpt lat="45.986215397715569" lon="7.214330546557903">
        <ele>2244.3299999999999</ele>
        <time>2016-07-05T10:45:48Z</time>
      </trkpt>
      <trkpt lat="45.986313298344612" lon="7.214414197951555">
        <ele>2244.3299999999999</ele>
        <time>2016-07-05T10:45:58Z</time>
      </trkpt>
      <trkpt lat="45.9864451456815" lon="7.214544201269746">
        <ele>2242.8899999999999</ele>
        <time>2016-07-05T10:46:11Z</time>
      </trkpt>
      <trkpt lat="45.986563665792346" lon="7.214696919545531">
        <ele>2241.9299999999998</ele>
        <time>2016-07-05T10:46:24Z</time>
      </trkpt>
      <trkpt lat="45.986666260287166" lon="7.214815439656377">
        <ele>2241.4499999999998</ele>
        <time>2016-07-05T10:46:35Z</time>
      </trkpt>
      <trkpt lat="45.98677203990519" lon="7.214989950880408">
        <ele>2240.0100000000002</ele>
        <time>2016-07-05T10:46:48Z</time>
      </trkpt>
      <trkpt lat="45.986849656328559" lon="7.215097323060036">
        <ele>2239.0500000000002</ele>
        <time>2016-07-05T10:46:57Z</time>
      </trkpt>
      <trkpt lat="45.986957531422377" lon="7.215241491794586">
        <ele>2238.5700000000002</ele>
        <time>2016-07-05T10:47:10Z</time>
      </trkpt>
      <trkpt lat="45.98697479814291" lon="7.215270241722465">
        <ele>2238.0900000000001</ele>
        <time>2016-07-05T10:47:12Z</time>
      </trkpt>
      <trkpt lat="45.987054677680135" lon="7.215403262525797">
        <ele>2237.6100000000001</ele>
        <time>2016-07-05T10:47:22Z</time>
      </trkpt>
      <trkpt lat="45.987188788130879" lon="7.215571068227291">
        <ele>2237.1300000000001</ele>
        <time>2016-07-05T10:47:36Z</time>
      </trkpt>
      <trkpt lat="45.98731879144907" lon="7.215653881430626">
        <ele>2236.6399999999999</ele>
        <time>2016-07-05T10:47:48Z</time>
      </trkpt>
      <trkpt lat="45.987480729818344" lon="7.215684223920107">
        <ele>2236.6399999999999</ele>
        <time>2016-07-05T10:48:01Z</time>
      </trkpt>
      <trkpt lat="45.987617103382945" lon="7.215715907514095">
        <ele>2236.6399999999999</ele>
        <time>2016-07-05T10:48:13Z</time>
      </trkpt>
      <trkpt lat="45.987767055630684" lon="7.215804168954492">
        <ele>2235.1999999999998</ele>
        <time>2016-07-05T10:48:26Z</time>
      </trkpt>
      <trkpt lat="45.987911224365234" lon="7.215928472578526">
        <ele>2234.7199999999998</ele>
        <time>2016-07-05T10:48:40Z</time>
      </trkpt>
      <trkpt lat="45.988020775839686" lon="7.215985301882029">
        <ele>2233.2800000000002</ele>
        <time>2016-07-05T10:48:52Z</time>
      </trkpt>
      <trkpt lat="45.988203920423985" lon="7.21601715311408">
        <ele>2232.8000000000002</ele>
        <time>2016-07-05T10:49:08Z</time>
      </trkpt>
      <trkpt lat="45.988343395292759" lon="7.216033078730106">
        <ele>2232.3200000000002</ele>
        <time>2016-07-05T10:49:20Z</time>
      </trkpt>
      <trkpt lat="45.988496113568544" lon="7.216066438704729">
        <ele>2231.8400000000001</ele>
        <time>2016-07-05T10:49:32Z</time>
      </trkpt>
      <trkpt lat="45.988620417192578" lon="7.216071886941791">
        <ele>2231.3600000000001</ele>
        <time>2016-07-05T10:49:45Z</time>
      </trkpt>
      <trkpt lat="45.988625949248672" lon="7.216069875285029">
        <ele>2231.3600000000001</ele>
        <time>2016-07-05T10:49:50Z</time>
      </trkpt>
      <trkpt lat="45.988664338365197" lon="7.216051686555147">
        <ele>2231.3600000000001</ele>
        <time>2016-07-05T10:49:55Z</time>
      </trkpt>
      <trkpt lat="45.988781433552504" lon="7.21605034545064">
        <ele>2231.8400000000001</ele>
        <time>2016-07-05T10:50:05Z</time>
      </trkpt>
      <trkpt lat="45.988827869296074" lon="7.216046908870339">
        <ele>2231.3600000000001</ele>
        <time>2016-07-05T10:50:09Z</time>
      </trkpt>
      <trkpt lat="45.988947814330459" lon="7.21606208011508">
        <ele>2231.8400000000001</ele>
        <time>2016-07-05T10:50:20Z</time>
      </trkpt>
      <trkpt lat="45.989132383838296" lon="7.216109940782189">
        <ele>2231.3600000000001</ele>
        <time>2016-07-05T10:50:35Z</time>
      </trkpt>
      <trkpt lat="45.989335980266333" lon="7.216185545548797">
        <ele>2230.4000000000001</ele>
        <time>2016-07-05T10:50:51Z</time>
      </trkpt>
      <trkpt lat="45.989492973312736" lon="7.216219156980515">
        <ele>2229.4299999999998</ele>
        <time>2016-07-05T10:51:04Z</time>
      </trkpt>
      <trkpt lat="45.98964418284595" lon="7.216185126453638">
        <ele>2228.9499999999998</ele>
        <time>2016-07-05T10:51:16Z</time>
      </trkpt>
      <trkpt lat="45.989810898900032" lon="7.216199124231935">
        <ele>2229.4299999999998</ele>
        <time>2016-07-05T10:51:29Z</time>
      </trkpt>
      <trkpt lat="45.989940399304032" lon="7.216324852779508">
        <ele>2227.9899999999998</ele>
        <time>2016-07-05T10:51:41Z</time>
      </trkpt>
      <trkpt lat="45.990053219720721" lon="7.216431805863977">
        <ele>2227.5100000000002</ele>
        <time>2016-07-05T10:51:53Z</time>
      </trkpt>
      <trkpt lat="45.990177020430565" lon="7.216484779492021">
        <ele>2227.9899999999998</ele>
        <time>2016-07-05T10:52:04Z</time>
      </trkpt>
      <trkpt lat="45.990305095911026" lon="7.216500705108047">
        <ele>2227.9899999999998</ele>
        <time>2016-07-05T10:52:15Z</time>
      </trkpt>
      <trkpt lat="45.99047533236444" lon="7.216491904109716">
        <ele>2227.0300000000002</ele>
        <time>2016-07-05T10:52:28Z</time>
      </trkpt>
      <trkpt lat="45.990668619051576" lon="7.216511098667979">
        <ele>2225.1100000000001</ele>
        <time>2016-07-05T10:52:43Z</time>
      </trkpt>
      <trkpt lat="45.99083986133337" lon="7.216578153893352">
        <ele>2223.6700000000001</ele>
        <time>2016-07-05T10:52:57Z</time>
      </trkpt>
      <trkpt lat="45.990977324545383" lon="7.216681418940425">
        <ele>2222.71</ele>
        <time>2016-07-05T10:53:09Z</time>
      </trkpt>
      <trkpt lat="45.991093665361404" lon="7.216837992891669">
        <ele>2221.7399999999998</ele>
        <time>2016-07-05T10:53:22Z</time>
      </trkpt>
      <trkpt lat="45.991130713373423" lon="7.216853499412537">
        <ele>2221.2600000000002</ele>
        <time>2016-07-05T10:53:26Z</time>
      </trkpt>
      <trkpt lat="45.991260213777423" lon="7.216717628762126">
        <ele>2220.7800000000002</ele>
        <time>2016-07-05T10:53:39Z</time>
      </trkpt>
      <trkpt lat="45.991327269002795" lon="7.216632720082998">
        <ele>2220.3000000000002</ele>
        <time>2016-07-05T10:53:47Z</time>
      </trkpt>
      <trkpt lat="45.99140371195972" lon="7.21654873341322">
        <ele>2220.3000000000002</ele>
        <time>2016-07-05T10:53:59Z</time>
      </trkpt>
      <trkpt lat="45.991425001993775" lon="7.216496346518397">
        <ele>2219.8200000000002</ele>
        <time>2016-07-05T10:54:03Z</time>
      </trkpt>
      <trkpt lat="45.99146188236773" lon="7.216419484466314">
        <ele>2219.8200000000002</ele>
        <time>2016-07-05T10:54:08Z</time>
      </trkpt>
      <trkpt lat="45.991550730541348" lon="7.216207925230265">
        <ele>2219.3400000000001</ele>
        <time>2016-07-05T10:54:21Z</time>
      </trkpt>
      <trkpt lat="45.991635052487254" lon="7.216000892221928">
        <ele>2218.3800000000001</ele>
        <time>2016-07-05T10:54:34Z</time>
      </trkpt>
      <trkpt lat="45.991708058863878" lon="7.21581338904798">
        <ele>2217.9000000000001</ele>
        <time>2016-07-05T10:54:46Z</time>
      </trkpt>
      <trkpt lat="45.991772683337331" lon="7.215659497305751">
        <ele>2216.46</ele>
        <time>2016-07-05T10:54:57Z</time>
      </trkpt>
      <trkpt lat="45.991808557882905" lon="7.215469898656011">
        <ele>2215.5</ele>
        <time>2016-07-05T10:55:10Z</time>
      </trkpt>
      <trkpt lat="45.991806965321302" lon="7.215400831773877">
        <ele>2215.5</ele>
        <time>2016-07-05T10:55:14Z</time>
      </trkpt>
      <trkpt lat="45.991812078282237" lon="7.215278036892414">
        <ele>2215.5</ele>
        <time>2016-07-05T10:55:21Z</time>
      </trkpt>
      <trkpt lat="45.991816772148013" lon="7.215167479589582">
        <ele>2215.5</ele>
        <time>2016-07-05T10:55:29Z</time>
      </trkpt>
      <trkpt lat="45.991815933957696" lon="7.215119451284409">
        <ele>2214.0500000000002</ele>
        <time>2016-07-05T10:55:32Z</time>
      </trkpt>
      <trkpt lat="45.99181417375803" lon="7.215101597830653">
        <ele>2214.0500000000002</ele>
        <time>2016-07-05T10:55:33Z</time>
      </trkpt>
      <trkpt lat="45.991814341396093" lon="7.214973354712129">
        <ele>2214.0500000000002</ele>
        <time>2016-07-05T10:55:40Z</time>
      </trkpt>
      <trkpt lat="45.991841917857528" lon="7.214731452986598">
        <ele>2212.6100000000001</ele>
        <time>2016-07-05T10:55:54Z</time>
      </trkpt>
      <trkpt lat="45.991805456578732" lon="7.214540177956224">
        <ele>2212.1300000000001</ele>
        <time>2016-07-05T10:56:06Z</time>
      </trkpt>
      <trkpt lat="45.991830434650183" lon="7.214322919026017">
        <ele>2211.6500000000001</ele>
        <time>2016-07-05T10:56:19Z</time>
      </trkpt>
      <trkpt lat="45.991868656128645" lon="7.214116556569934">
        <ele>2210.21</ele>
        <time>2016-07-05T10:56:31Z</time>
      </trkpt>
      <trkpt lat="45.991868991404772" lon="7.213922431692481">
        <ele>2209.25</ele>
        <time>2016-07-05T10:56:43Z</time>
      </trkpt>
      <trkpt lat="45.991876618936658" lon="7.213687319308519">
        <ele>2207.8099999999999</ele>
        <time>2016-07-05T10:56:56Z</time>
      </trkpt>
      <trkpt lat="45.991909140720963" lon="7.213475676253438">
        <ele>2206.8400000000001</ele>
        <time>2016-07-05T10:57:08Z</time>
      </trkpt>
      <trkpt lat="45.991920791566372" lon="7.213405435904861">
        <ele>2206.3600000000001</ele>
        <time>2016-07-05T10:57:12Z</time>
      </trkpt>
      <trkpt lat="45.991958007216454" lon="7.213132688775659">
        <ele>2204.9200000000001</ele>
        <time>2016-07-05T10:57:27Z</time>
      </trkpt>
      <trkpt lat="45.9919798001647" lon="7.21288206987083">
        <ele>2203.96</ele>
        <time>2016-07-05T10:57:41Z</time>
      </trkpt>
      <trkpt lat="45.991977704688907" lon="7.212692135944963">
        <ele>2203</ele>
        <time>2016-07-05T10:57:52Z</time>
      </trkpt>
      <trkpt lat="45.992027744650841" lon="7.212450988590717">
        <ele>2202.04</ele>
        <time>2016-07-05T10:58:05Z</time>
      </trkpt>
      <trkpt lat="45.992074012756348" lon="7.212218474596739">
        <ele>2200.5900000000001</ele>
        <time>2016-07-05T10:58:19Z</time>
      </trkpt>
      <trkpt lat="45.992160681635141" lon="7.212020913138986">
        <ele>2197.71</ele>
        <time>2016-07-05T10:58:31Z</time>
      </trkpt>
      <trkpt lat="45.992188090458512" lon="7.211820837110281">
        <ele>2195.79</ele>
        <time>2016-07-05T10:58:43Z</time>
      </trkpt>
      <trkpt lat="45.992173673585057" lon="7.211630148813129">
        <ele>2193.8699999999999</ele>
        <time>2016-07-05T10:58:54Z</time>
      </trkpt>
      <trkpt lat="45.992156909778714" lon="7.211525458842516">
        <ele>2192.9000000000001</ele>
        <time>2016-07-05T10:59:00Z</time>
      </trkpt>
      <trkpt lat="45.992104858160019" lon="7.21129646524787">
        <ele>2190.98</ele>
        <time>2016-07-05T10:59:13Z</time>
      </trkpt>
      <trkpt lat="45.992099074646831" lon="7.211279198527336">
        <ele>2190.98</ele>
        <time>2016-07-05T10:59:14Z</time>
      </trkpt>
      <trkpt lat="45.992063116282225" lon="7.21101944334805">
        <ele>2188.0999999999999</ele>
        <time>2016-07-05T10:59:28Z</time>
      </trkpt>
      <trkpt lat="45.992004023864865" lon="7.210792629048228">
        <ele>2186.1799999999998</ele>
        <time>2016-07-05T10:59:41Z</time>
      </trkpt>
      <trkpt lat="45.991914086043835" lon="7.210613507777453">
        <ele>2184.25</ele>
        <time>2016-07-05T10:59:53Z</time>
      </trkpt>
      <trkpt lat="45.991870416328311" lon="7.210417790338397">
        <ele>2182.8099999999999</ele>
        <time>2016-07-05T11:00:05Z</time>
      </trkpt>
      <trkpt lat="45.991864884272218" lon="7.210410246625543">
        <ele>2182.8099999999999</ele>
        <time>2016-07-05T11:00:25Z</time>
      </trkpt>
      <trkpt lat="45.991850635036826" lon="7.21035635098815">
        <ele>2182.8099999999999</ele>
        <time>2016-07-05T11:00:43Z</time>
      </trkpt>
      <trkpt lat="45.991839990019798" lon="7.210300276055932">
        <ele>2182.3299999999999</ele>
        <time>2016-07-05T11:00:48Z</time>
      </trkpt>
      <trkpt lat="45.991806294769049" lon="7.210194915533066">
        <ele>2181.8499999999999</ele>
        <time>2016-07-05T11:00:57Z</time>
      </trkpt>
      <trkpt lat="45.991709232330322" lon="7.210063068196178">
        <ele>2180.4099999999999</ele>
        <time>2016-07-05T11:01:09Z</time>
      </trkpt>
      <trkpt lat="45.991619462147355" lon="7.209860729053617">
        <ele>2179.4499999999998</ele>
        <time>2016-07-05T11:01:23Z</time>
      </trkpt>
      <trkpt lat="45.991579983383417" lon="7.209630897268653">
        <ele>2178</ele>
        <time>2016-07-05T11:01:36Z</time>
      </trkpt>
      <trkpt lat="45.991573194041848" lon="7.209413470700383">
        <ele>2176.5599999999999</ele>
        <time>2016-07-05T11:01:48Z</time>
      </trkpt>
      <trkpt lat="45.991576546803117" lon="7.209180789068341">
        <ele>2175.1199999999999</ele>
        <time>2016-07-05T11:02:01Z</time>
      </trkpt>
      <trkpt lat="45.991526758298278" lon="7.208976354449987">
        <ele>2174.1599999999999</ele>
        <time>2016-07-05T11:02:13Z</time>
      </trkpt>
      <trkpt lat="45.991446459665895" lon="7.208769237622619">
        <ele>2173.1999999999998</ele>
        <time>2016-07-05T11:02:26Z</time>
      </trkpt>
      <trkpt lat="45.991389798000455" lon="7.208519373089075">
        <ele>2172.2399999999998</ele>
        <time>2016-07-05T11:02:41Z</time>
      </trkpt>
      <trkpt lat="45.991389378905296" lon="7.208330277353525">
        <ele>2171.7600000000002</ele>
        <time>2016-07-05T11:02:51Z</time>
      </trkpt>
      <trkpt lat="45.991380074992776" lon="7.208098350092769">
        <ele>2170.3099999999999</ele>
        <time>2016-07-05T11:03:04Z</time>
      </trkpt>
      <trkpt lat="45.991377644240856" lon="7.207909589633346">
        <ele>2169.3499999999999</ele>
        <time>2016-07-05T11:03:15Z</time>
      </trkpt>
      <trkpt lat="45.991363562643528" lon="7.207653019577265">
        <ele>2166.9499999999998</ele>
        <time>2016-07-05T11:03:29Z</time>
      </trkpt>
      <trkpt lat="45.991407316178083" lon="7.207446238026023">
        <ele>2165.5100000000002</ele>
        <time>2016-07-05T11:03:40Z</time>
      </trkpt>
      <trkpt lat="45.991430953145027" lon="7.207383122295141">
        <ele>2165.5100000000002</ele>
        <time>2016-07-05T11:03:44Z</time>
      </trkpt>
      <trkpt lat="45.991455847397447" lon="7.207341715693474">
        <ele>2165.9899999999998</ele>
        <time>2016-07-05T11:03:47Z</time>
      </trkpt>
      <trkpt lat="45.991476634517312" lon="7.207250939682126">
        <ele>2165.9899999999998</ele>
        <time>2016-07-05T11:03:53Z</time>
      </trkpt>
      <trkpt lat="45.99154788069427" lon="7.207045499235392">
        <ele>2165.9899999999998</ele>
        <time>2016-07-05T11:04:06Z</time>
      </trkpt>
      <trkpt lat="45.991640836000443" lon="7.20689982175827">
        <ele>2166.9499999999998</ele>
        <time>2016-07-05T11:04:17Z</time>
      </trkpt>
      <trkpt lat="45.991660114377737" lon="7.206881549209356">
        <ele>2166.9499999999998</ele>
        <time>2016-07-05T11:04:19Z</time>
      </trkpt>
      <trkpt lat="45.991727253422141" lon="7.206777110695839">
        <ele>2167.9099999999999</ele>
        <time>2016-07-05T11:04:28Z</time>
      </trkpt>
      <trkpt lat="45.991813167929649" lon="7.206673761829734">
        <ele>2168.3899999999999</ele>
        <time>2016-07-05T11:04:38Z</time>
      </trkpt>
      <trkpt lat="45.991849461570382" lon="7.2066305950284">
        <ele>2168.8699999999999</ele>
        <time>2016-07-05T11:04:42Z</time>
      </trkpt>
      <trkpt lat="45.991887180134654" lon="7.206572843715549">
        <ele>2168.8699999999999</ele>
        <time>2016-07-05T11:04:47Z</time>
      </trkpt>
      <trkpt lat="45.99192556925118" lon="7.206524396315217">
        <ele>2168.8699999999999</ele>
        <time>2016-07-05T11:04:52Z</time>
      </trkpt>
      <trkpt lat="45.991998491808772" lon="7.206409396603704">
        <ele>2169.8299999999999</ele>
        <time>2016-07-05T11:05:02Z</time>
      </trkpt>
      <trkpt lat="45.992005281150341" lon="7.206398835405707">
        <ele>2169.8299999999999</ele>
        <time>2016-07-05T11:05:03Z</time>
      </trkpt>
      <trkpt lat="45.992064876481891" lon="7.206271681934595">
        <ele>2170.79</ele>
        <time>2016-07-05T11:05:13Z</time>
      </trkpt>
      <trkpt lat="45.992123046889901" lon="7.206164058297873">
        <ele>2171.27</ele>
        <time>2016-07-05T11:05:22Z</time>
      </trkpt>
      <trkpt lat="45.992143582552671" lon="7.206120137125254">
        <ele>2171.27</ele>
        <time>2016-07-05T11:05:26Z</time>
      </trkpt>
      <trkpt lat="45.992207368835807" lon="7.206017794087529">
        <ele>2172.2399999999998</ele>
        <time>2016-07-05T11:05:35Z</time>
      </trkpt>
      <trkpt lat="45.992275513708591" lon="7.205909918993712">
        <ele>2172.7199999999998</ele>
        <time>2016-07-05T11:05:44Z</time>
      </trkpt>
      <trkpt lat="45.992280878126621" lon="7.205902123823762">
        <ele>2172.7199999999998</ele>
        <time>2016-07-05T11:05:45Z</time>
      </trkpt>
      <trkpt lat="45.992299737408757" lon="7.205874715000391">
        <ele>2172.7199999999998</ele>
        <time>2016-07-05T11:05:48Z</time>
      </trkpt>
      <trkpt lat="45.992342820391059" lon="7.205802882090211">
        <ele>2173.1999999999998</ele>
        <time>2016-07-05T11:05:54Z</time>
      </trkpt>
      <trkpt lat="45.992398727685213" lon="7.205688385292888">
        <ele>2173.6799999999998</ele>
        <time>2016-07-05T11:06:03Z</time>
      </trkpt>
      <trkpt lat="45.992422616109252" lon="7.205644464120269">
        <ele>2173.6799999999998</ele>
        <time>2016-07-05T11:06:07Z</time>
      </trkpt>
      <trkpt lat="45.992448600009084" lon="7.205588892102242">
        <ele>2174.1599999999999</ele>
        <time>2016-07-05T11:06:12Z</time>
      </trkpt>
      <trkpt lat="45.992509955540299" lon="7.205441957339644">
        <ele>2175.1199999999999</ele>
        <time>2016-07-05T11:06:23Z</time>
      </trkpt>
      <trkpt lat="45.99255932494998" lon="7.205317402258515">
        <ele>2176.0799999999999</ele>
        <time>2016-07-05T11:06:33Z</time>
      </trkpt>
      <trkpt lat="45.99260576069355" lon="7.205190919339657">
        <ele>2176.5599999999999</ele>
        <time>2016-07-05T11:06:42Z</time>
      </trkpt>
      <trkpt lat="45.992621434852481" lon="7.205135179683566">
        <ele>2177.04</ele>
        <time>2016-07-05T11:06:46Z</time>
      </trkpt>
      <trkpt lat="45.992656052112579" lon="7.205008445307612">
        <ele>2177.52</ele>
        <time>2016-07-05T11:06:55Z</time>
      </trkpt>
      <trkpt lat="45.99266778677702" lon="7.204997129738331">
        <ele>2178.48</ele>
        <time>2016-07-05T11:07:04Z</time>
      </trkpt>
      <trkpt lat="45.992680443450809" lon="7.204968798905611">
        <ele>2178</ele>
        <time>2016-07-05T11:07:14Z</time>
      </trkpt>
      <trkpt lat="45.992697877809405" lon="7.204938540235162">
        <ele>2178</ele>
        <time>2016-07-05T11:07:16Z</time>
      </trkpt>
      <trkpt lat="45.992727298289537" lon="7.204888919368386">
        <ele>2178.48</ele>
        <time>2016-07-05T11:07:20Z</time>
      </trkpt>
      <trkpt lat="45.992788150906563" lon="7.204773081466556">
        <ele>2178.9699999999998</ele>
        <time>2016-07-05T11:07:29Z</time>
      </trkpt>
      <trkpt lat="45.992814553901553" lon="7.20474692992866">
        <ele>2178.9699999999998</ele>
        <time>2016-07-05T11:07:32Z</time>
      </trkpt>
      <trkpt lat="45.992837939411402" lon="7.204718180000782">
        <ele>2180.4099999999999</ele>
        <time>2016-07-05T11:07:35Z</time>
      </trkpt>
      <trkpt lat="45.992874149233103" lon="7.204667301848531">
        <ele>2179.9299999999998</ele>
        <time>2016-07-05T11:07:40Z</time>
      </trkpt>
      <trkpt lat="45.992940617725253" lon="7.204580549150705">
        <ele>2180.4099999999999</ele>
        <time>2016-07-05T11:07:49Z</time>
      </trkpt>
      <trkpt lat="45.992993339896202" lon="7.204526821151376">
        <ele>2180.8899999999999</ele>
        <time>2016-07-05T11:07:55Z</time>
      </trkpt>
      <trkpt lat="45.993085792288184" lon="7.204483570531011">
        <ele>2181.3699999999999</ele>
        <time>2016-07-05T11:08:04Z</time>
      </trkpt>
      <trkpt lat="45.993133150041103" lon="7.204448450356722">
        <ele>2181.8499999999999</ele>
        <time>2016-07-05T11:08:09Z</time>
      </trkpt>
      <trkpt lat="45.993191571906209" lon="7.204383742064238">
        <ele>2181.8499999999999</ele>
        <time>2016-07-05T11:08:16Z</time>
      </trkpt>
      <trkpt lat="45.993219651281834" lon="7.204341748729348">
        <ele>2182.3299999999999</ele>
        <time>2016-07-05T11:08:20Z</time>
      </trkpt>
      <trkpt lat="45.993304140865803" lon="7.204234711825848">
        <ele>2182.3299999999999</ele>
        <time>2016-07-05T11:08:30Z</time>
      </trkpt>
      <trkpt lat="45.993385193869472" lon="7.204128513112664">
        <ele>2183.29</ele>
        <time>2016-07-05T11:08:40Z</time>
      </trkpt>
      <trkpt lat="45.993441352620721" lon="7.204079311341047">
        <ele>2183.77</ele>
        <time>2016-07-05T11:08:47Z</time>
      </trkpt>
      <trkpt lat="45.993529362604022" lon="7.204029271379113">
        <ele>2184.73</ele>
        <time>2016-07-05T11:08:56Z</time>
      </trkpt>
      <trkpt lat="45.993610750883818" lon="7.20396900549531">
        <ele>2185.21</ele>
        <time>2016-07-05T11:09:05Z</time>
      </trkpt>
      <trkpt lat="45.993618629872799" lon="7.203962216153741">
        <ele>2185.21</ele>
        <time>2016-07-05T11:09:06Z</time>
      </trkpt>
      <trkpt lat="45.993710998445749" lon="7.203910248354077">
        <ele>2186.6599999999999</ele>
        <time>2016-07-05T11:09:16Z</time>
      </trkpt>
      <trkpt lat="45.993771767243743" lon="7.203847551718354">
        <ele>2186.6599999999999</ele>
        <time>2016-07-05T11:09:24Z</time>
      </trkpt>
      <trkpt lat="45.993857681751251" lon="7.203774629160762">
        <ele>2187.6199999999999</ele>
        <time>2016-07-05T11:09:34Z</time>
      </trkpt>
      <trkpt lat="45.993949295952916" lon="7.203721320256591">
        <ele>2188.5799999999999</ele>
        <time>2016-07-05T11:09:44Z</time>
      </trkpt>
      <trkpt lat="45.994036635383964" lon="7.203679913654923">
        <ele>2189.0599999999999</ele>
        <time>2016-07-05T11:09:53Z</time>
      </trkpt>
      <trkpt lat="45.994064379483461" lon="7.203662982210517">
        <ele>2189.54</ele>
        <time>2016-07-05T11:09:56Z</time>
      </trkpt>
      <trkpt lat="45.994107546284795" lon="7.20363381318748">
        <ele>2190.02</ele>
        <time>2016-07-05T11:10:00Z</time>
      </trkpt>
      <trkpt lat="45.994137888774276" lon="7.203619899228215">
        <ele>2190.02</ele>
        <time>2016-07-05T11:10:03Z</time>
      </trkpt>
      <trkpt lat="45.994250290095806" lon="7.20358494669199">
        <ele>2190.98</ele>
        <time>2016-07-05T11:10:14Z</time>
      </trkpt>
      <trkpt lat="45.994323967024684" lon="7.203550077974796">
        <ele>2191.46</ele>
        <time>2016-07-05T11:10:22Z</time>
      </trkpt>
      <trkpt lat="45.994410300627351" lon="7.203500205650926">
        <ele>2191.9400000000001</ele>
        <time>2016-07-05T11:10:31Z</time>
      </trkpt>
      <trkpt lat="45.994473835453391" lon="7.203467516228557">
        <ele>2192.9000000000001</ele>
        <time>2016-07-05T11:10:42Z</time>
      </trkpt>
      <trkpt lat="45.994471153244376" lon="7.203505067154765">
        <ele>2192.4200000000001</ele>
        <time>2016-07-05T11:10:50Z</time>
      </trkpt>
      <trkpt lat="45.994467968121171" lon="7.203505067154765">
        <ele>2192.4200000000001</ele>
        <time>2016-07-05T11:11:06Z</time>
      </trkpt>
      <trkpt lat="45.994468135759234" lon="7.203505234792829">
        <ele>2192.4200000000001</ele>
        <time>2016-07-05T11:11:16Z</time>
      </trkpt>
      <trkpt lat="45.994475344195962" lon="7.203506240621209">
        <ele>2192.4200000000001</ele>
        <time>2016-07-05T11:11:33Z</time>
      </trkpt>
      <trkpt lat="45.994478529319167" lon="7.203504061326385">
        <ele>2192.4200000000001</ele>
        <time>2016-07-05T11:11:45Z</time>
      </trkpt>
      <trkpt lat="45.99447718821466" lon="7.203479921445251">
        <ele>2192.4200000000001</ele>
        <time>2016-07-05T11:11:56Z</time>
      </trkpt>
      <trkpt lat="45.994542483240366" lon="7.203421834856272">
        <ele>2192.4200000000001</ele>
        <time>2016-07-05T11:12:04Z</time>
      </trkpt>
      <trkpt lat="45.994659326970577" lon="7.203312031924725">
        <ele>2191.9400000000001</ele>
        <time>2016-07-05T11:12:16Z</time>
      </trkpt>
      <trkpt lat="45.994768040254712" lon="7.203179430216551">
        <ele>2191.9400000000001</ele>
        <time>2016-07-05T11:12:28Z</time>
      </trkpt>
      <trkpt lat="45.994863007217646" lon="7.203045152127743">
        <ele>2191.46</ele>
        <time>2016-07-05T11:12:39Z</time>
      </trkpt>
      <trkpt lat="45.994918746873736" lon="7.202971642836928">
        <ele>2190.98</ele>
        <time>2016-07-05T11:12:45Z</time>
      </trkpt>
      <trkpt lat="45.995021006092429" lon="7.202822361141443">
        <ele>2190.98</ele>
        <time>2016-07-05T11:12:57Z</time>
      </trkpt>
      <trkpt lat="45.995031064376235" lon="7.202811548486352">
        <ele>2190.5</ele>
        <time>2016-07-05T11:12:58Z</time>
      </trkpt>
      <trkpt lat="45.995140112936497" lon="7.20268732868135">
        <ele>2190.98</ele>
        <time>2016-07-05T11:13:10Z</time>
      </trkpt>
      <trkpt lat="45.99514564499259" lon="7.202672827988863">
        <ele>2190.98</ele>
        <time>2016-07-05T11:13:11Z</time>
      </trkpt>
      <trkpt lat="45.99523507989943" lon="7.202570904046297">
        <ele>2192.4200000000001</ele>
        <time>2016-07-05T11:13:21Z</time>
      </trkpt>
      <trkpt lat="45.995312528684735" lon="7.202496640384197">
        <ele>2192.9000000000001</ele>
        <time>2016-07-05T11:13:29Z</time>
      </trkpt>
      <trkpt lat="45.995444543659687" lon="7.202381724491715">
        <ele>2193.8699999999999</ele>
        <time>2016-07-05T11:13:42Z</time>
      </trkpt>
      <trkpt lat="45.995537163689733" lon="7.202326403930783">
        <ele>2193.8699999999999</ele>
        <time>2016-07-05T11:13:50Z</time>
      </trkpt>
      <trkpt lat="45.995630705729127" lon="7.202256582677364">
        <ele>2194.3499999999999</ele>
        <time>2016-07-05T11:13:59Z</time>
      </trkpt>
      <trkpt lat="45.995674459263682" lon="7.202236382290721">
        <ele>2194.3499999999999</ele>
        <time>2016-07-05T11:14:03Z</time>
      </trkpt>
      <trkpt lat="45.995817119255662" lon="7.20215474255383">
        <ele>2194.8299999999999</ele>
        <time>2016-07-05T11:14:16Z</time>
      </trkpt>
      <trkpt lat="45.995936393737793" lon="7.202112162485719">
        <ele>2195.3099999999999</ele>
        <time>2016-07-05T11:14:27Z</time>
      </trkpt>
      <trkpt lat="45.996064553037286" lon="7.20210880972445">
        <ele>2196.27</ele>
        <time>2016-07-05T11:14:38Z</time>
      </trkpt>
      <trkpt lat="45.996196987107396" lon="7.202139403671026">
        <ele>2196.75</ele>
        <time>2016-07-05T11:14:50Z</time>
      </trkpt>
      <trkpt lat="45.996303269639611" lon="7.202142085880041">
        <ele>2197.71</ele>
        <time>2016-07-05T11:15:00Z</time>
      </trkpt>
      <trkpt lat="45.996396308764815" lon="7.202127669006586">
        <ele>2198.1900000000001</ele>
        <time>2016-07-05T11:15:09Z</time>
      </trkpt>
      <trkpt lat="45.996526814997196" lon="7.202123980969191">
        <ele>2198.6700000000001</ele>
        <time>2016-07-05T11:15:21Z</time>
      </trkpt>
      <trkpt lat="45.996608287096024" lon="7.202108139172196">
        <ele>2199.6300000000001</ele>
        <time>2016-07-05T11:15:31Z</time>
      </trkpt>
      <trkpt lat="45.996686574071646" lon="7.202112330123782">
        <ele>2201.5599999999999</ele>
        <time>2016-07-05T11:15:39Z</time>
      </trkpt>
      <trkpt lat="45.996801406145096" lon="7.202114425599575">
        <ele>2201.0799999999999</ele>
        <time>2016-07-05T11:15:50Z</time>
      </trkpt>
      <trkpt lat="45.996900144964457" lon="7.20212054438889">
        <ele>2201.5599999999999</ele>
        <time>2016-07-05T11:15:59Z</time>
      </trkpt>
      <trkpt lat="45.997001733630896" lon="7.202120209112763">
        <ele>2202.04</ele>
        <time>2016-07-05T11:16:08Z</time>
      </trkpt>
      <trkpt lat="45.997134670615196" lon="7.202138984575868">
        <ele>2203</ele>
        <time>2016-07-05T11:16:20Z</time>
      </trkpt>
      <trkpt lat="45.997259309515357" lon="7.202160442247987">
        <ele>2203.96</ele>
        <time>2016-07-05T11:16:31Z</time>
      </trkpt>
      <trkpt lat="45.997380344197154" lon="7.20218843780458">
        <ele>2204.4400000000001</ele>
        <time>2016-07-05T11:16:42Z</time>
      </trkpt>
      <trkpt lat="45.997494254261255" lon="7.202224144712091">
        <ele>2205.8800000000001</ele>
        <time>2016-07-05T11:16:53Z</time>
      </trkpt>
      <trkpt lat="45.997538678348064" lon="7.20223143696785">
        <ele>2205.8800000000001</ele>
        <time>2016-07-05T11:16:57Z</time>
      </trkpt>
      <trkpt lat="45.997679075226188" lon="7.202310813590884">
        <ele>2206.8400000000001</ele>
        <time>2016-07-05T11:17:10Z</time>
      </trkpt>
      <trkpt lat="45.997750153765082" lon="7.202353645116091">
        <ele>2207.3200000000002</ele>
        <time>2016-07-05T11:17:17Z</time>
      </trkpt>
      <trkpt lat="45.997799271717668" lon="7.202392788603902">
        <ele>2207.3200000000002</ele>
        <time>2016-07-05T11:17:22Z</time>
      </trkpt>
      <trkpt lat="45.997870434075594" lon="7.20249337144196">
        <ele>2208.29</ele>
        <time>2016-07-05T11:17:31Z</time>
      </trkpt>
      <trkpt lat="45.99792592227459" lon="7.20258423127234">
        <ele>2208.77</ele>
        <time>2016-07-05T11:17:39Z</time>
      </trkpt>
      <trkpt lat="45.998002113774419" lon="7.202679617330432">
        <ele>2209.73</ele>
        <time>2016-07-05T11:17:49Z</time>
      </trkpt>
      <trkpt lat="45.998087525367737" lon="7.202776260674">
        <ele>2210.6900000000001</ele>
        <time>2016-07-05T11:18:00Z</time>
      </trkpt>
      <trkpt lat="45.998182240873575" lon="7.202860582619906">
        <ele>2211.1700000000001</ele>
        <time>2016-07-05T11:18:10Z</time>
      </trkpt>
      <trkpt lat="45.998274693265557" lon="7.202963093295693">
        <ele>2211.6500000000001</ele>
        <time>2016-07-05T11:18:21Z</time>
      </trkpt>
      <trkpt lat="45.998396398499608" lon="7.203054707497358">
        <ele>2213.0900000000001</ele>
        <time>2016-07-05T11:18:34Z</time>
      </trkpt>
      <trkpt lat="45.998501423746347" lon="7.203159481287003">
        <ele>2214.0500000000002</ele>
        <time>2016-07-05T11:18:46Z</time>
      </trkpt>
      <trkpt lat="45.998588092625141" lon="7.203268110752106">
        <ele>2214.5300000000002</ele>
        <time>2016-07-05T11:18:56Z</time>
      </trkpt>
      <trkpt lat="45.998644838109612" lon="7.203341871500015">
        <ele>2215.0100000000002</ele>
        <time>2016-07-05T11:19:03Z</time>
      </trkpt>
      <trkpt lat="45.998664535582066" lon="7.203372800722718">
        <ele>2215.5</ele>
        <time>2016-07-05T11:19:06Z</time>
      </trkpt>
      <trkpt lat="45.998743996024132" lon="7.203470952808857">
        <ele>2215.98</ele>
        <time>2016-07-05T11:19:16Z</time>
      </trkpt>
      <trkpt lat="45.998791856691241" lon="7.203536834567785">
        <ele>2216.46</ele>
        <time>2016-07-05T11:19:22Z</time>
      </trkpt>
      <trkpt lat="45.998883135616779" lon="7.203694162890315">
        <ele>2217.4200000000001</ele>
        <time>2016-07-05T11:19:35Z</time>
      </trkpt>
      <trkpt lat="45.998922782018781" lon="7.20376037992537">
        <ele>2217.9000000000001</ele>
        <time>2016-07-05T11:19:41Z</time>
      </trkpt>
      <trkpt lat="45.998952621594071" lon="7.203806648030877">
        <ele>2218.3800000000001</ele>
        <time>2016-07-05T11:19:45Z</time>
      </trkpt>
      <trkpt lat="45.999013558030128" lon="7.203931957483292">
        <ele>2218.8600000000001</ele>
        <time>2016-07-05T11:19:55Z</time>
      </trkpt>
      <trkpt lat="45.999036775901914" lon="7.203997671604157">
        <ele>2219.3400000000001</ele>
        <time>2016-07-05T11:20:00Z</time>
      </trkpt>
      <trkpt lat="45.999092431738973" lon="7.204112336039543">
        <ele>2219.8200000000002</ele>
        <time>2016-07-05T11:20:09Z</time>
      </trkpt>
      <trkpt lat="45.999154709279537" lon="7.204254157841206">
        <ele>2220.7800000000002</ele>
        <time>2016-07-05T11:20:19Z</time>
      </trkpt>
      <trkpt lat="45.999223105609417" lon="7.204377371817827">
        <ele>2221.2600000000002</ele>
        <time>2016-07-05T11:20:29Z</time>
      </trkpt>
      <trkpt lat="45.999283622950315" lon="7.204497149214149">
        <ele>2221.7399999999998</ele>
        <time>2016-07-05T11:20:38Z</time>
      </trkpt>
      <trkpt lat="45.999322431162" lon="7.204592451453209">
        <ele>2222.2199999999998</ele>
        <time>2016-07-05T11:20:45Z</time>
      </trkpt>
      <trkpt lat="45.999379428103566" lon="7.20472639426589">
        <ele>2222.71</ele>
        <time>2016-07-05T11:20:55Z</time>
      </trkpt>
      <trkpt lat="45.999467186629772" lon="7.204907443374395">
        <ele>2224.1500000000001</ele>
        <time>2016-07-05T11:21:09Z</time>
      </trkpt>
      <trkpt lat="45.999541785567999" lon="7.205052617937326">
        <ele>2225.1100000000001</ele>
        <time>2016-07-05T11:21:21Z</time>
      </trkpt>
      <trkpt lat="45.999627532437444" lon="7.205195026472211">
        <ele>2225.5900000000001</ele>
        <time>2016-07-05T11:21:33Z</time>
      </trkpt>
      <trkpt lat="45.999696766957641" lon="7.20531178638339">
        <ele>2227.9899999999998</ele>
        <time>2016-07-05T11:21:43Z</time>
      </trkpt>
      <trkpt lat="45.9997817594558" lon="7.2054891474545">
        <ele>2227.5100000000002</ele>
        <time>2016-07-05T11:21:56Z</time>
      </trkpt>
      <trkpt lat="45.999863063916564" lon="7.205642955377698">
        <ele>2228.4699999999998</ele>
        <time>2016-07-05T11:22:09Z</time>
      </trkpt>
      <trkpt lat="45.99993959069252" lon="7.205760888755322">
        <ele>2229.4299999999998</ele>
        <time>2016-07-05T11:22:20Z</time>
      </trkpt>
      <trkpt lat="45.999959958717227" lon="7.205780753865838">
        <ele>2229.4299999999998</ele>
        <time>2016-07-05T11:22:22Z</time>
      </trkpt>
      <trkpt lat="45.999996419996023" lon="7.205840349197388">
        <ele>2229.9200000000001</ele>
        <time>2016-07-05T11:22:27Z</time>
      </trkpt>
      <trkpt lat="46.00007051602006" lon="7.205975716933608">
        <ele>2230.8800000000001</ele>
        <time>2016-07-05T11:22:38Z</time>
      </trkpt>
      <trkpt lat="46.000145701691508" lon="7.20612240023911">
        <ele>2231.8400000000001</ele>
        <time>2016-07-05T11:22:50Z</time>
      </trkpt>
      <trkpt lat="46.000192724168301" lon="7.206232119351625">
        <ele>2232.3200000000002</ele>
        <time>2016-07-05T11:22:59Z</time>
      </trkpt>
      <trkpt lat="46.000250894576311" lon="7.206365307793021">
        <ele>2231.8400000000001</ele>
        <time>2016-07-05T11:23:10Z</time>
      </trkpt>
      <trkpt lat="46.000270592048764" lon="7.206420628353953">
        <ele>2233.7600000000002</ele>
        <time>2016-07-05T11:23:15Z</time>
      </trkpt>
      <trkpt lat="46.000282326713204" lon="7.206441331654787">
        <ele>2233.7600000000002</ele>
        <time>2016-07-05T11:23:17Z</time>
      </trkpt>
      <trkpt lat="46.000328427180648" lon="7.206589691340923">
        <ele>2234.7199999999998</ele>
        <time>2016-07-05T11:23:28Z</time>
      </trkpt>
      <trkpt lat="46.000354578718543" lon="7.20667501911521">
        <ele>2234.7199999999998</ele>
        <time>2016-07-05T11:23:34Z</time>
      </trkpt>
      <trkpt lat="46.000419622287154" lon="7.206858163699508">
        <ele>2236.1599999999999</ele>
        <time>2016-07-05T11:23:47Z</time>
      </trkpt>
      <trkpt lat="46.000429010018706" lon="7.206900995224714">
        <ele>2236.1599999999999</ele>
        <time>2016-07-05T11:23:50Z</time>
      </trkpt>
      <trkpt lat="46.000456921756268" lon="7.206987496465445">
        <ele>2236.6399999999999</ele>
        <time>2016-07-05T11:23:56Z</time>
      </trkpt>
      <trkpt lat="46.000483576208353" lon="7.207071986049414">
        <ele>2237.1300000000001</ele>
        <time>2016-07-05T11:24:02Z</time>
      </trkpt>
      <trkpt lat="46.000518864020705" lon="7.207258651033044">
        <ele>2238.0900000000001</ele>
        <time>2016-07-05T11:24:15Z</time>
      </trkpt>
      <trkpt lat="46.0005674790591" lon="7.207391588017345">
        <ele>2238.5700000000002</ele>
        <time>2016-07-05T11:24:25Z</time>
      </trkpt>
      <trkpt lat="46.00061877630651" lon="7.207504408434033">
        <ele>2239.5300000000002</ele>
        <time>2016-07-05T11:24:34Z</time>
      </trkpt>
      <trkpt lat="46.000675186514854" lon="7.207653187215328">
        <ele>2240.4899999999998</ele>
        <time>2016-07-05T11:24:46Z</time>
      </trkpt>
      <trkpt lat="46.000727154314518" lon="7.207805905491114">
        <ele>2241.4499999999998</ele>
        <time>2016-07-05T11:24:57Z</time>
      </trkpt>
      <trkpt lat="46.000768225640059" lon="7.207966418936849">
        <ele>2241.9299999999998</ele>
        <time>2016-07-05T11:25:08Z</time>
      </trkpt>
      <trkpt lat="46.000813404098153" lon="7.208107402548194">
        <ele>2242.8899999999999</ele>
        <time>2016-07-05T11:25:18Z</time>
      </trkpt>
      <trkpt lat="46.000837963074446" lon="7.20817169174552">
        <ele>2243.3699999999999</ele>
        <time>2016-07-05T11:25:23Z</time>
      </trkpt>
      <trkpt lat="46.000879285857081" lon="7.208322398364544">
        <ele>2244.8200000000002</ele>
        <time>2016-07-05T11:25:34Z</time>
      </trkpt>
      <trkpt lat="46.00092614069581" lon="7.208454497158527">
        <ele>2245.3000000000002</ele>
        <time>2016-07-05T11:25:44Z</time>
      </trkpt>
      <trkpt lat="46.000928990542889" lon="7.208470003679395">
        <ele>2246.7399999999998</ele>
        <time>2016-07-05T11:25:45Z</time>
      </trkpt>
      <trkpt lat="46.000934774056077" lon="7.208520546555519">
        <ele>2245.7800000000002</ele>
        <time>2016-07-05T11:25:48Z</time>
      </trkpt>
      <trkpt lat="46.000952795147896" lon="7.208578465506434">
        <ele>2246.2600000000002</ele>
        <time>2016-07-05T11:25:52Z</time>
      </trkpt>
      <trkpt lat="46.000990178436041" lon="7.208738056942821">
        <ele>2247.2199999999998</ele>
        <time>2016-07-05T11:26:03Z</time>
      </trkpt>
      <trkpt lat="46.001033596694469" lon="7.208880465477705">
        <ele>2248.1799999999998</ele>
        <time>2016-07-05T11:26:14Z</time>
      </trkpt>
      <trkpt lat="46.001065615564585" lon="7.208991022780538">
        <ele>2249.1399999999999</ele>
        <time>2016-07-05T11:26:23Z</time>
      </trkpt>
      <trkpt lat="46.001095036044717" lon="7.209117757156491">
        <ele>2250.0999999999999</ele>
        <time>2016-07-05T11:26:32Z</time>
      </trkpt>
      <trkpt lat="46.001103166490793" lon="7.209199815988541">
        <ele>2251.0599999999999</ele>
        <time>2016-07-05T11:26:38Z</time>
      </trkpt>
      <trkpt lat="46.001114984974265" lon="7.20934247598052">
        <ele>2252.0300000000002</ele>
        <time>2016-07-05T11:26:48Z</time>
      </trkpt>
      <trkpt lat="46.001147339120507" lon="7.209459571167827">
        <ele>2252.9899999999998</ele>
        <time>2016-07-05T11:26:57Z</time>
      </trkpt>
      <trkpt lat="46.001162510365248" lon="7.209531152620912">
        <ele>2253.4699999999998</ele>
        <time>2016-07-05T11:27:02Z</time>
      </trkpt>
      <trkpt lat="46.001200145110488" lon="7.209695773199201">
        <ele>2254.9099999999999</ele>
        <time>2016-07-05T11:27:14Z</time>
      </trkpt>
      <trkpt lat="46.001242892816663" lon="7.209867769852281">
        <ele>2256.3499999999999</ele>
        <time>2016-07-05T11:27:27Z</time>
      </trkpt>
      <trkpt lat="46.001253621652722" lon="7.209937339648604">
        <ele>2256.8299999999999</ele>
        <time>2016-07-05T11:27:32Z</time>
      </trkpt>
      <trkpt lat="46.0012789350003" lon="7.21008175984025">
        <ele>2257.79</ele>
        <time>2016-07-05T11:27:42Z</time>
      </trkpt>
      <trkpt lat="46.001295782625675" lon="7.210191562771797">
        <ele>2258.27</ele>
        <time>2016-07-05T11:27:50Z</time>
      </trkpt>
      <trkpt lat="46.001306427642703" lon="7.210309999063611">
        <ele>2259.2399999999998</ele>
        <time>2016-07-05T11:27:58Z</time>
      </trkpt>
      <trkpt lat="46.001322185620666" lon="7.210346292704344">
        <ele>2259.7199999999998</ele>
        <time>2016-07-05T11:28:01Z</time>
      </trkpt>
      <trkpt lat="46.001329394057393" lon="7.210411336272955">
        <ele>2260.1999999999998</ele>
        <time>2016-07-05T11:28:06Z</time>
      </trkpt>
      <trkpt lat="46.001367615535855" lon="7.210562713444233">
        <ele>2261.6399999999999</ele>
        <time>2016-07-05T11:28:18Z</time>
      </trkpt>
      <trkpt lat="46.001420086249709" lon="7.210690537467599">
        <ele>2262.5999999999999</ele>
        <time>2016-07-05T11:28:28Z</time>
      </trkpt>
      <trkpt lat="46.001429054886103" lon="7.21071794629097">
        <ele>2262.5999999999999</ele>
        <time>2016-07-05T11:28:30Z</time>
      </trkpt>
      <trkpt lat="46.001465516164899" lon="7.210836885496974">
        <ele>2263.0799999999999</ele>
        <time>2016-07-05T11:28:39Z</time>
      </trkpt>
      <trkpt lat="46.001480435952544" lon="7.210953142493963">
        <ele>2264.52</ele>
        <time>2016-07-05T11:28:47Z</time>
      </trkpt>
      <trkpt lat="46.00147976540029" lon="7.210983484983444">
        <ele>2264.52</ele>
        <time>2016-07-05T11:28:49Z</time>
      </trkpt>
      <trkpt lat="46.001486303284764" lon="7.211029333993793">
        <ele>2264.52</ele>
        <time>2016-07-05T11:28:52Z</time>
      </trkpt>
      <trkpt lat="46.001513209193945" lon="7.211125390604138">
        <ele>2265.48</ele>
        <time>2016-07-05T11:28:59Z</time>
      </trkpt>
      <trkpt lat="46.001552101224661" lon="7.211198061704636">
        <ele>2265.96</ele>
        <time>2016-07-05T11:29:05Z</time>
      </trkpt>
      <trkpt lat="46.00157012231648" lon="7.21124617382884">
        <ele>2266.4499999999998</ele>
        <time>2016-07-05T11:29:09Z</time>
      </trkpt>
      <trkpt lat="46.001619072631001" lon="7.211299063637853">
        <ele>2266.9299999999998</ele>
        <time>2016-07-05T11:29:15Z</time>
      </trkpt>
      <trkpt lat="46.001647152006626" lon="7.211341727524996">
        <ele>2267.8899999999999</ele>
        <time>2016-07-05T11:29:19Z</time>
      </trkpt>
      <trkpt lat="46.001744801178575" lon="7.211408447474241">
        <ele>2268.8499999999999</ele>
        <time>2016-07-05T11:29:30Z</time>
      </trkpt>
      <trkpt lat="46.001845384016633" lon="7.21146846190095">
        <ele>2270.29</ele>
        <time>2016-07-05T11:29:41Z</time>
      </trkpt>
      <trkpt lat="46.00193808786571" lon="7.211591759696603">
        <ele>2271.73</ele>
        <time>2016-07-05T11:29:53Z</time>
      </trkpt>
      <trkpt lat="46.001972956582904" lon="7.211649930104613">
        <ele>2271.73</ele>
        <time>2016-07-05T11:29:58Z</time>
      </trkpt>
      <trkpt lat="46.002012016251683" lon="7.21178756095469">
        <ele>2272.21</ele>
        <time>2016-07-05T11:30:09Z</time>
      </trkpt>
      <trkpt lat="46.002018051221967" lon="7.211815724149346">
        <ele>2272.6900000000001</ele>
        <time>2016-07-05T11:30:11Z</time>
      </trkpt>
      <trkpt lat="46.002016374841332" lon="7.2118613217026">
        <ele>2273.1700000000001</ele>
        <time>2016-07-05T11:30:14Z</time>
      </trkpt>
      <trkpt lat="46.002030204981565" lon="7.211998030543327">
        <ele>2273.6599999999999</ele>
        <time>2016-07-05T11:30:24Z</time>
      </trkpt>
      <trkpt lat="46.002029869705439" lon="7.21202602609992">
        <ele>2274.1399999999999</ele>
        <time>2016-07-05T11:30:26Z</time>
      </trkpt>
      <trkpt lat="46.002018051221967" lon="7.212081011384726">
        <ele>2274.6199999999999</ele>
        <time>2016-07-05T11:30:30Z</time>
      </trkpt>
      <trkpt lat="46.001973291859031" lon="7.212219731882215">
        <ele>2275.0999999999999</ele>
        <time>2016-07-05T11:30:40Z</time>
      </trkpt>
      <trkpt lat="46.001965329051018" lon="7.212348729372025">
        <ele>2276.0599999999999</ele>
        <time>2016-07-05T11:30:49Z</time>
      </trkpt>
      <trkpt lat="46.00194881670177" lon="7.21245258115232">
        <ele>2277.02</ele>
        <time>2016-07-05T11:30:56Z</time>
      </trkpt>
      <trkpt lat="46.001956444233656" lon="7.212579483166337">
        <ele>2277.98</ele>
        <time>2016-07-05T11:31:05Z</time>
      </trkpt>
      <trkpt lat="46.001953007653356" lon="7.212591972202063">
        <ele>2277.98</ele>
        <time>2016-07-05T11:31:06Z</time>
      </trkpt>
      <trkpt lat="46.001967592164874" lon="7.212675036862493">
        <ele>2278.9400000000001</ele>
        <time>2016-07-05T11:31:12Z</time>
      </trkpt>
      <trkpt lat="46.001977482810616" lon="7.212763549759984">
        <ele>2279.4200000000001</ele>
        <time>2016-07-05T11:31:18Z</time>
      </trkpt>
      <trkpt lat="46.002001035958529" lon="7.212855750694871">
        <ele>2279.9000000000001</ele>
        <time>2016-07-05T11:31:25Z</time>
      </trkpt>
      <trkpt lat="46.002022242173553" lon="7.212910065427423">
        <ele>2280.3800000000001</ele>
        <time>2016-07-05T11:31:30Z</time>
      </trkpt>
      <trkpt lat="46.002101199701428" lon="7.213008385151625">
        <ele>2280.8699999999999</ele>
        <time>2016-07-05T11:31:41Z</time>
      </trkpt>
      <trkpt lat="46.002178229391575" lon="7.213057167828083">
        <ele>2280.8699999999999</ele>
        <time>2016-07-05T11:31:51Z</time>
      </trkpt>
      <trkpt lat="46.002213601022959" lon="7.213089521974325">
        <ele>2280.8699999999999</ele>
        <time>2016-07-05T11:31:56Z</time>
      </trkpt>
      <trkpt lat="46.002262802794576" lon="7.213127324357629">
        <ele>2280.8699999999999</ele>
        <time>2016-07-05T11:32:01Z</time>
      </trkpt>
      <trkpt lat="46.002379143610597" lon="7.213173676282167">
        <ele>2281.3499999999999</ele>
        <time>2016-07-05T11:32:12Z</time>
      </trkpt>
      <trkpt lat="46.002511912956834" lon="7.213196055963635">
        <ele>2281.3499999999999</ele>
        <time>2016-07-05T11:32:23Z</time>
      </trkpt>
      <trkpt lat="46.002551643177867" lon="7.213200833648443">
        <ele>2281.3499999999999</ele>
        <time>2016-07-05T11:32:26Z</time>
      </trkpt>
      <trkpt lat="46.002636887133121" lon="7.213208042085171">
        <ele>2281.3499999999999</ele>
        <time>2016-07-05T11:32:33Z</time>
      </trkpt>
      <trkpt lat="46.002681478857994" lon="7.213254142552614">
        <ele>2281.3499999999999</ele>
        <time>2016-07-05T11:32:44Z</time>
      </trkpt>
      <trkpt lat="46.002684999257326" lon="7.213273756206036">
        <ele>2281.3499999999999</ele>
        <time>2016-07-05T11:32:54Z</time>
      </trkpt>
      <trkpt lat="46.002697236835957" lon="7.213255232200027">
        <ele>2281.3499999999999</ele>
        <time>2016-07-05T11:33:03Z</time>
      </trkpt>
      <trkpt lat="46.002713749185205" lon="7.213237714022398">
        <ele>2281.3499999999999</ele>
        <time>2016-07-05T11:33:12Z</time>
      </trkpt>
      <trkpt lat="46.0027917008847" lon="7.213223213329911">
        <ele>2280.8699999999999</ele>
        <time>2016-07-05T11:33:22Z</time>
      </trkpt>
      <trkpt lat="46.002813493832946" lon="7.213249783962965">
        <ele>2281.3499999999999</ele>
        <time>2016-07-05T11:33:32Z</time>
      </trkpt>
      <trkpt lat="46.002831179648638" lon="7.213276354596019">
        <ele>2281.3499999999999</ele>
        <time>2016-07-05T11:33:44Z</time>
      </trkpt>
      <trkpt lat="46.002818187698722" lon="7.2132358700037">
        <ele>2281.3499999999999</ele>
        <time>2016-07-05T11:34:00Z</time>
      </trkpt>
      <trkpt lat="46.002806620672345" lon="7.213280880823731">
        <ele>2281.3499999999999</ele>
        <time>2016-07-05T11:34:15Z</time>
      </trkpt>
      <trkpt lat="46.00279220379889" lon="7.213271241635084">
        <ele>2280.8699999999999</ele>
        <time>2016-07-05T11:34:24Z</time>
      </trkpt>
      <trkpt lat="46.002797400578856" lon="7.21325003542006">
        <ele>2281.3499999999999</ele>
        <time>2016-07-05T11:34:45Z</time>
      </trkpt>
      <trkpt lat="46.002799160778522" lon="7.213243246078491">
        <ele>2281.3499999999999</ele>
        <time>2016-07-05T11:35:01Z</time>
      </trkpt>
      <trkpt lat="46.002815756946802" lon="7.21326126717031">
        <ele>2281.8299999999999</ele>
        <time>2016-07-05T11:35:10Z</time>
      </trkpt>
      <trkpt lat="46.002822462469339" lon="7.213260931894183">
        <ele>2281.3499999999999</ele>
        <time>2016-07-05T11:35:23Z</time>
      </trkpt>
      <trkpt lat="46.002860181033611" lon="7.213264955207706">
        <ele>2281.8299999999999</ele>
        <time>2016-07-05T11:35:34Z</time>
      </trkpt>
      <trkpt lat="46.002846686169505" lon="7.213237714022398">
        <ele>2281.8299999999999</ele>
        <time>2016-07-05T11:35:47Z</time>
      </trkpt>
      <trkpt lat="46.002849703654647" lon="7.213235199451447">
        <ele>2281.8299999999999</ele>
        <time>2016-07-05T11:36:07Z</time>
      </trkpt>
      <trkpt lat="46.002918602898717" lon="7.213241904973984">
        <ele>2281.8299999999999</ele>
        <time>2016-07-05T11:36:20Z</time>
      </trkpt>
      <trkpt lat="46.00290460512042" lon="7.213222626596689">
        <ele>2281.8299999999999</ele>
        <time>2016-07-05T11:36:27Z</time>
      </trkpt>
      <trkpt lat="46.002972749993205" lon="7.213234361261129">
        <ele>2281.8299999999999</ele>
        <time>2016-07-05T11:36:33Z</time>
      </trkpt>
      <trkpt lat="46.003141310065985" lon="7.213227236643434">
        <ele>2280.8699999999999</ele>
        <time>2016-07-05T11:36:47Z</time>
      </trkpt>
      <trkpt lat="46.003163438290358" lon="7.213226985186338">
        <ele>2280.8699999999999</ele>
        <time>2016-07-05T11:36:49Z</time>
      </trkpt>
      <trkpt lat="46.003285059705377" lon="7.21325296908617">
        <ele>2279.9000000000001</ele>
        <time>2016-07-05T11:37:01Z</time>
      </trkpt>
      <trkpt lat="46.003298051655293" lon="7.213256405666471">
        <ele>2279.9000000000001</ele>
        <time>2016-07-05T11:37:02Z</time>
      </trkpt>
      <trkpt lat="46.003426546230912" lon="7.213267385959625">
        <ele>2278.9400000000001</ele>
        <time>2016-07-05T11:37:13Z</time>
      </trkpt>
      <trkpt lat="46.003541965037584" lon="7.213276438415051">
        <ele>2278.46</ele>
        <time>2016-07-05T11:37:23Z</time>
      </trkpt>
      <trkpt lat="46.003605583682656" lon="7.213282641023397">
        <ele>2277.98</ele>
        <time>2016-07-05T11:37:32Z</time>
      </trkpt>
      <trkpt lat="46.003736341372132" lon="7.21328322775662">
        <ele>2277.02</ele>
        <time>2016-07-05T11:37:43Z</time>
      </trkpt>
      <trkpt lat="46.003849161788821" lon="7.213256908580661">
        <ele>2277.5</ele>
        <time>2016-07-05T11:37:52Z</time>
      </trkpt>
      <trkpt lat="46.003984529525042" lon="7.213213574141264">
        <ele>2275.5799999999999</ele>
        <time>2016-07-05T11:38:04Z</time>
      </trkpt>
      <trkpt lat="46.004117466509342" lon="7.213203851133585">
        <ele>2273.6599999999999</ele>
        <time>2016-07-05T11:38:16Z</time>
      </trkpt>
      <trkpt lat="46.004273034632206" lon="7.21318599767983">
        <ele>2272.21</ele>
        <time>2016-07-05T11:38:28Z</time>
      </trkpt>
      <trkpt lat="46.004372024908662" lon="7.213179711252451">
        <ele>2271.25</ele>
        <time>2016-07-05T11:38:39Z</time>
      </trkpt>
      <trkpt lat="46.004389291629195" lon="7.213184656575322">
        <ele>2271.25</ele>
        <time>2016-07-05T11:38:52Z</time>
      </trkpt>
      <trkpt lat="46.004461208358407" lon="7.213102849200368">
        <ele>2270.77</ele>
        <time>2016-07-05T11:39:02Z</time>
      </trkpt>
      <trkpt lat="46.00448333658278" lon="7.213115924969316">
        <ele>2271.25</ele>
        <time>2016-07-05T11:39:12Z</time>
      </trkpt>
      <trkpt lat="46.004514433443546" lon="7.213104022666812">
        <ele>2271.25</ele>
        <time>2016-07-05T11:39:26Z</time>
      </trkpt>
      <trkpt lat="46.004571933299303" lon="7.213077954947949">
        <ele>2270.77</ele>
        <time>2016-07-05T11:39:36Z</time>
      </trkpt>
      <trkpt lat="46.004659608006477" lon="7.213065130636096">
        <ele>2270.77</ele>
        <time>2016-07-05T11:39:45Z</time>
      </trkpt>
      <trkpt lat="46.004703445360065" lon="7.213053144514561">
        <ele>2270.77</ele>
        <time>2016-07-05T11:39:50Z</time>
      </trkpt>
      <trkpt lat="46.00481023080647" lon="7.21304920502007">
        <ele>2270.77</ele>
        <time>2016-07-05T11:40:01Z</time>
      </trkpt>
      <trkpt lat="46.004873011261225" lon="7.213033530861139">
        <ele>2271.25</ele>
        <time>2016-07-05T11:40:09Z</time>
      </trkpt>
      <trkpt lat="46.004928583279252" lon="7.21302967518568">
        <ele>2271.25</ele>
        <time>2016-07-05T11:40:14Z</time>
      </trkpt>
      <trkpt lat="46.004990357905626" lon="7.213025316596031">
        <ele>2272.21</ele>
        <time>2016-07-05T11:40:22Z</time>
      </trkpt>
      <trkpt lat="46.005042409524322" lon="7.212994722649455">
        <ele>2272.21</ele>
        <time>2016-07-05T11:40:28Z</time>
      </trkpt>
      <trkpt lat="46.005068393424153" lon="7.212992208078504">
        <ele>2272.6900000000001</ele>
        <time>2016-07-05T11:40:31Z</time>
      </trkpt>
      <trkpt lat="46.005105776712298" lon="7.212967900559306">
        <ele>2272.21</ele>
        <time>2016-07-05T11:40:35Z</time>
      </trkpt>
      <trkpt lat="46.005186075344682" lon="7.212915848940611">
        <ele>2273.1700000000001</ele>
        <time>2016-07-05T11:40:44Z</time>
      </trkpt>
      <trkpt lat="46.00525975227356" lon="7.212882656604052">
        <ele>2274.1399999999999</ele>
        <time>2016-07-05T11:40:54Z</time>
      </trkpt>
      <trkpt lat="46.005279365926981" lon="7.212864467874169">
        <ele>2274.6199999999999</ele>
        <time>2016-07-05T11:40:57Z</time>
      </trkpt>
      <trkpt lat="46.005306355655193" lon="7.212845021858811">
        <ele>2275.0999999999999</ele>
        <time>2016-07-05T11:41:00Z</time>
      </trkpt>
      <trkpt lat="46.005372572690248" lon="7.212768914178014">
        <ele>2275.5799999999999</ele>
        <time>2016-07-05T11:41:10Z</time>
      </trkpt>
      <trkpt lat="46.005397466942668" lon="7.212758017703891">
        <ele>2276.0599999999999</ele>
        <time>2016-07-05T11:41:14Z</time>
      </trkpt>
      <trkpt lat="46.0054718144238" lon="7.212683837860823">
        <ele>2277.02</ele>
        <time>2016-07-05T11:41:24Z</time>
      </trkpt>
      <trkpt lat="46.005499474704266" lon="7.212654920294881">
        <ele>2277.5</ele>
        <time>2016-07-05T11:41:28Z</time>
      </trkpt>
      <trkpt lat="46.005538534373045" lon="7.21258744597435">
        <ele>2277.98</ele>
        <time>2016-07-05T11:41:35Z</time>
      </trkpt>
      <trkpt lat="46.005567451938987" lon="7.212538328021765">
        <ele>2278.46</ele>
        <time>2016-07-05T11:41:40Z</time>
      </trkpt>
      <trkpt lat="46.00559645332396" lon="7.212469009682536">
        <ele>2278.9400000000001</ele>
        <time>2016-07-05T11:41:46Z</time>
      </trkpt>
      <trkpt lat="46.005668956786394" lon="7.212412431836128">
        <ele>2279.9000000000001</ele>
        <time>2016-07-05T11:41:56Z</time>
      </trkpt>
      <trkpt lat="46.00574548356235" lon="7.212368007749319">
        <ele>2279.9000000000001</ele>
        <time>2016-07-05T11:42:04Z</time>
      </trkpt>
      <trkpt lat="46.005766354501247" lon="7.212363313883543">
        <ele>2280.3800000000001</ele>
        <time>2016-07-05T11:42:06Z</time>
      </trkpt>
      <trkpt lat="46.005858806893229" lon="7.212316878139973">
        <ele>2279.4200000000001</ele>
        <time>2016-07-05T11:42:15Z</time>
      </trkpt>
      <trkpt lat="46.005943212658167" lon="7.212293073534966">
        <ele>2279.9000000000001</ele>
        <time>2016-07-05T11:42:23Z</time>
      </trkpt>
      <trkpt lat="46.006036335602403" lon="7.212242614477873">
        <ele>2278.46</ele>
        <time>2016-07-05T11:42:32Z</time>
      </trkpt>
      <trkpt lat="46.006053015589714" lon="7.212225096300244">
        <ele>2278.46</ele>
        <time>2016-07-05T11:42:34Z</time>
      </trkpt>
      <trkpt lat="46.006148988381028" lon="7.212138259783387">
        <ele>2279.4200000000001</ele>
        <time>2016-07-05T11:42:46Z</time>
      </trkpt>
      <trkpt lat="46.006174134090543" lon="7.212130632251501">
        <ele>2280.3800000000001</ele>
        <time>2016-07-05T11:42:49Z</time>
      </trkpt>
      <trkpt lat="46.006221324205399" lon="7.212104983627796">
        <ele>2279.4200000000001</ele>
        <time>2016-07-05T11:42:54Z</time>
      </trkpt>
      <trkpt lat="46.006319392472506" lon="7.212026361376047">
        <ele>2279.9000000000001</ele>
        <time>2016-07-05T11:43:05Z</time>
      </trkpt>
      <trkpt lat="46.006387788802385" lon="7.211988056078553">
        <ele>2279.4200000000001</ele>
        <time>2016-07-05T11:43:13Z</time>
      </trkpt>
      <trkpt lat="46.006406480446458" lon="7.211972381919622">
        <ele>2279.9000000000001</ele>
        <time>2016-07-05T11:43:15Z</time>
      </trkpt>
      <trkpt lat="46.006424333900213" lon="7.211940363049507">
        <ele>2279.9000000000001</ele>
        <time>2016-07-05T11:43:18Z</time>
      </trkpt>
      <trkpt lat="46.006480660289526" lon="7.21187992952764">
        <ele>2279.9000000000001</ele>
        <time>2016-07-05T11:43:24Z</time>
      </trkpt>
      <trkpt lat="46.006543776020408" lon="7.2117904946208">
        <ele>2280.3800000000001</ele>
        <time>2016-07-05T11:43:33Z</time>
      </trkpt>
      <trkpt lat="46.006613681092858" lon="7.211707094684243">
        <ele>2280.8699999999999</ele>
        <time>2016-07-05T11:43:43Z</time>
      </trkpt>
      <trkpt lat="46.006629941985011" lon="7.211693683639169">
        <ele>2281.3499999999999</ele>
        <time>2016-07-05T11:43:45Z</time>
      </trkpt>
      <trkpt lat="46.00670462474227" lon="7.211595950648189">
        <ele>2283.27</ele>
        <time>2016-07-05T11:43:56Z</time>
      </trkpt>
      <trkpt lat="46.006712503731251" lon="7.211585557088256">
        <ele>2282.3099999999999</ele>
        <time>2016-07-05T11:43:57Z</time>
      </trkpt>
      <trkpt lat="46.006793305277824" lon="7.211522776633501">
        <ele>2282.79</ele>
        <time>2016-07-05T11:44:07Z</time>
      </trkpt>
      <trkpt lat="46.006827251985669" lon="7.211482878774405">
        <ele>2283.75</ele>
        <time>2016-07-05T11:44:12Z</time>
      </trkpt>
      <trkpt lat="46.006860611960292" lon="7.211418924853206">
        <ele>2284.23</ele>
        <time>2016-07-05T11:44:18Z</time>
      </trkpt>
      <trkpt lat="46.006882404908538" lon="7.211376596242189">
        <ele>2284.71</ele>
        <time>2016-07-05T11:44:22Z</time>
      </trkpt>
      <trkpt lat="46.006922638043761" lon="7.211325885728002">
        <ele>2285.6700000000001</ele>
        <time>2016-07-05T11:44:28Z</time>
      </trkpt>
      <trkpt lat="46.006937641650438" lon="7.211308032274246">
        <ele>2285.1900000000001</ele>
        <time>2016-07-05T11:44:30Z</time>
      </trkpt>
      <trkpt lat="46.00696848705411" lon="7.211256818845868">
        <ele>2285.1900000000001</ele>
        <time>2016-07-05T11:44:35Z</time>
      </trkpt>
      <trkpt lat="46.007018862292171" lon="7.211146345362067">
        <ele>2285.6700000000001</ele>
        <time>2016-07-05T11:44:45Z</time>
      </trkpt>
      <trkpt lat="46.007069991901517" lon="7.21109077334404">
        <ele>2287.1100000000001</ele>
        <time>2016-07-05T11:44:54Z</time>
      </trkpt>
      <trkpt lat="46.00707745179534" lon="7.211066884920001">
        <ele>2288.0799999999999</ele>
        <time>2016-07-05T11:44:57Z</time>
      </trkpt>
      <trkpt lat="46.007121289148927" lon="7.21102480776608">
        <ele>2289.04</ele>
        <time>2016-07-05T11:45:04Z</time>
      </trkpt>
      <trkpt lat="46.007170155644417" lon="7.210978288203478">
        <ele>2290.48</ele>
        <time>2016-07-05T11:45:13Z</time>
      </trkpt>
      <trkpt lat="46.007217429578304" lon="7.210925817489624">
        <ele>2291.9200000000001</ele>
        <time>2016-07-05T11:45:22Z</time>
      </trkpt>
      <trkpt lat="46.007230840623379" lon="7.21087284386158">
        <ele>2291.4400000000001</ele>
        <time>2016-07-05T11:45:26Z</time>
      </trkpt>
      <trkpt lat="46.007277695462108" lon="7.210782235488296">
        <ele>2292.4000000000001</ele>
        <time>2016-07-05T11:45:35Z</time>
      </trkpt>
      <trkpt lat="46.007347349077463" lon="7.210700176656246">
        <ele>2293.8400000000001</ele>
        <time>2016-07-05T11:45:47Z</time>
      </trkpt>
      <trkpt lat="46.007367549464107" lon="7.210667990148068">
        <ele>2293.8400000000001</ele>
        <time>2016-07-05T11:45:50Z</time>
      </trkpt>
      <trkpt lat="46.007386492565274" lon="7.210633624345064">
        <ele>2293.8400000000001</ele>
        <time>2016-07-05T11:45:53Z</time>
      </trkpt>
      <trkpt lat="46.00743711926043" lon="7.210572771728039">
        <ele>2295.2800000000002</ele>
        <time>2016-07-05T11:46:02Z</time>
      </trkpt>
      <trkpt lat="46.007446590811014" lon="7.210547039285302">
        <ele>2294.8000000000002</ele>
        <time>2016-07-05T11:46:04Z</time>
      </trkpt>
      <trkpt lat="46.007472993806005" lon="7.210493814200163">
        <ele>2295.2800000000002</ele>
        <time>2016-07-05T11:46:08Z</time>
      </trkpt>
      <trkpt lat="46.007519597187638" lon="7.210377138108015">
        <ele>2296.25</ele>
        <time>2016-07-05T11:46:18Z</time>
      </trkpt>
      <trkpt lat="46.007575085386634" lon="7.210269430652261">
        <ele>2297.21</ele>
        <time>2016-07-05T11:46:29Z</time>
      </trkpt>
      <trkpt lat="46.007633088156581" lon="7.2102156188339">
        <ele>2298.6500000000001</ele>
        <time>2016-07-05T11:46:38Z</time>
      </trkpt>
      <trkpt lat="46.007711458951235" lon="7.210164153948426">
        <ele>2300.0900000000001</ele>
        <time>2016-07-05T11:46:49Z</time>
      </trkpt>
      <trkpt lat="46.007783627137542" lon="7.210141103714705">
        <ele>2301.0500000000002</ele>
        <time>2016-07-05T11:46:58Z</time>
      </trkpt>
      <trkpt lat="46.007843054831028" lon="7.210136326029897">
        <ele>2302.0100000000002</ele>
        <time>2016-07-05T11:47:07Z</time>
      </trkpt>
      <trkpt lat="46.007873145863414" lon="7.210101708769798">
        <ele>2302.4899999999998</ele>
        <time>2016-07-05T11:47:11Z</time>
      </trkpt>
      <trkpt lat="46.007962161675096" lon="7.210058458149433">
        <ele>2303.9400000000001</ele>
        <time>2016-07-05T11:47:22Z</time>
      </trkpt>
      <trkpt lat="46.008031815290451" lon="7.210012692958117">
        <ele>2305.3800000000001</ele>
        <time>2016-07-05T11:47:33Z</time>
      </trkpt>
      <trkpt lat="46.008102810010314" lon="7.210010513663292">
        <ele>2306.3400000000001</ele>
        <time>2016-07-05T11:47:43Z</time>
      </trkpt>
      <trkpt lat="46.008125189691782" lon="7.210000371560454">
        <ele>2306.8200000000002</ele>
        <time>2016-07-05T11:47:46Z</time>
      </trkpt>
      <trkpt lat="46.008197022601962" lon="7.209968939423561">
        <ele>2307.7800000000002</ele>
        <time>2016-07-05T11:47:54Z</time>
      </trkpt>
      <trkpt lat="46.008282685652375" lon="7.209960138425231">
        <ele>2308.2600000000002</ele>
        <time>2016-07-05T11:48:04Z</time>
      </trkpt>
      <trkpt lat="46.008396595716476" lon="7.209984948858619">
        <ele>2309.6999999999998</ele>
        <time>2016-07-05T11:48:17Z</time>
      </trkpt>
      <trkpt lat="46.008509416133165" lon="7.210002299398184">
        <ele>2311.6300000000001</ele>
        <time>2016-07-05T11:48:31Z</time>
      </trkpt>
      <trkpt lat="46.008585439994931" lon="7.21001772210002">
        <ele>2312.1100000000001</ele>
        <time>2016-07-05T11:48:41Z</time>
      </trkpt>
      <trkpt lat="46.008619889616966" lon="7.210060972720385">
        <ele>2313.0700000000002</ele>
        <time>2016-07-05T11:48:48Z</time>
      </trkpt>
      <trkpt lat="46.008660458028316" lon="7.210089722648263">
        <ele>2314.0300000000002</ele>
        <time>2016-07-05T11:48:53Z</time>
      </trkpt>
      <trkpt lat="46.008729860186577" lon="7.210157616063952">
        <ele>2315.4699999999998</ele>
        <time>2016-07-05T11:49:04Z</time>
      </trkpt>
      <trkpt lat="46.008780905976892" lon="7.21017848700285">
        <ele>2316.4299999999998</ele>
        <time>2016-07-05T11:49:10Z</time>
      </trkpt>
      <trkpt lat="46.008842764422297" lon="7.210182175040245">
        <ele>2317.4000000000001</ele>
        <time>2016-07-05T11:49:21Z</time>
      </trkpt>
      <trkpt lat="46.008895318955183" lon="7.210208158940077">
        <ele>2318.8400000000001</ele>
        <time>2016-07-05T11:49:31Z</time>
      </trkpt>
      <trkpt lat="46.008935635909438" lon="7.210164237767458">
        <ele>2320.7600000000002</ele>
        <time>2016-07-05T11:49:41Z</time>
      </trkpt>
      <trkpt lat="46.008961452171206" lon="7.210135655477643">
        <ele>2322.1999999999998</ele>
        <time>2016-07-05T11:49:51Z</time>
      </trkpt>
      <trkpt lat="46.009000176563859" lon="7.210146049037576">
        <ele>2325.0900000000001</ele>
        <time>2016-07-05T11:50:00Z</time>
      </trkpt>
      <trkpt lat="46.009057760238647" lon="7.210155855864286">
        <ele>2325.5700000000002</ele>
        <time>2016-07-05T11:50:11Z</time>
      </trkpt>
      <trkpt lat="46.009109979495406" lon="7.210129704326391">
        <ele>2327.4899999999998</ele>
        <time>2016-07-05T11:50:22Z</time>
      </trkpt>
      <trkpt lat="46.009176280349493" lon="7.210107408463955">
        <ele>2329.4099999999999</ele>
        <time>2016-07-05T11:50:34Z</time>
      </trkpt>
      <trkpt lat="46.009235875681043" lon="7.210070779547095">
        <ele>2331.3299999999999</ele>
        <time>2016-07-05T11:50:47Z</time>
      </trkpt>
      <trkpt lat="46.009299494326115" lon="7.210066923871636">
        <ele>2333.2600000000002</ele>
        <time>2016-07-05T11:50:57Z</time>
      </trkpt>
      <trkpt lat="46.009355988353491" lon="7.21007832325995">
        <ele>2334.6999999999998</ele>
        <time>2016-07-05T11:51:07Z</time>
      </trkpt>
      <trkpt lat="46.009393455460668" lon="7.210057619959116">
        <ele>2336.1399999999999</ele>
        <time>2016-07-05T11:51:15Z</time>
      </trkpt>
      <trkpt lat="46.00943410769105" lon="7.210070611909032">
        <ele>2338.54</ele>
        <time>2016-07-05T11:51:25Z</time>
      </trkpt>
      <trkpt lat="46.009466797113419" lon="7.210058122873306">
        <ele>2340.4699999999998</ele>
        <time>2016-07-05T11:51:36Z</time>
      </trkpt>
      <trkpt lat="46.009524464607239" lon="7.210022583603859">
        <ele>2342.3899999999999</ele>
        <time>2016-07-05T11:51:47Z</time>
      </trkpt>
      <trkpt lat="46.009573750197887" lon="7.20999232493341">
        <ele>2343.8299999999999</ele>
        <time>2016-07-05T11:51:56Z</time>
      </trkpt>
      <trkpt lat="46.009611049667001" lon="7.209958713501692">
        <ele>2345.75</ele>
        <time>2016-07-05T11:52:06Z</time>
      </trkpt>
      <trkpt lat="46.009639129042625" lon="7.209933483973146">
        <ele>2347.6799999999998</ele>
        <time>2016-07-05T11:52:16Z</time>
      </trkpt>
      <trkpt lat="46.009700065478683" lon="7.209912780672312">
        <ele>2349.5999999999999</ele>
        <time>2016-07-05T11:52:28Z</time>
      </trkpt>
      <trkpt lat="46.009744070470333" lon="7.209897274151444">
        <ele>2351.52</ele>
        <time>2016-07-05T11:52:41Z</time>
      </trkpt>
      <trkpt lat="46.009805845096707" lon="7.209835583344102">
        <ele>2353.4400000000001</ele>
        <time>2016-07-05T11:52:55Z</time>
      </trkpt>
      <trkpt lat="46.009868960827589" lon="7.209763331338763">
        <ele>2355.3699999999999</ele>
        <time>2016-07-05T11:53:06Z</time>
      </trkpt>
      <trkpt lat="46.009925873950124" lon="7.209719829261303">
        <ele>2357.77</ele>
        <time>2016-07-05T11:53:18Z</time>
      </trkpt>
      <trkpt lat="46.009969543665648" lon="7.209686050191522">
        <ele>2359.6900000000001</ele>
        <time>2016-07-05T11:53:29Z</time>
      </trkpt>
      <trkpt lat="46.010006759315729" lon="7.209660736843944">
        <ele>2361.6199999999999</ele>
        <time>2016-07-05T11:53:41Z</time>
      </trkpt>
      <trkpt lat="46.010087560862303" lon="7.209708765149117">
        <ele>2363.54</ele>
        <time>2016-07-05T11:53:55Z</time>
      </trkpt>
      <trkpt lat="46.010135337710381" lon="7.209733575582504">
        <ele>2364.98</ele>
        <time>2016-07-05T11:54:05Z</time>
      </trkpt>
      <trkpt lat="46.010204488411546" lon="7.209712956100702">
        <ele>2366.4200000000001</ele>
        <time>2016-07-05T11:54:17Z</time>
      </trkpt>
      <trkpt lat="46.010261233896017" lon="7.20969183370471">
        <ele>2367.8600000000001</ele>
        <time>2016-07-05T11:54:30Z</time>
      </trkpt>
      <trkpt lat="46.010272298008204" lon="7.209695186465979">
        <ele>2367.8600000000001</ele>
        <time>2016-07-05T11:54:43Z</time>
      </trkpt>
      <trkpt lat="46.010259054601192" lon="7.209653947502375">
        <ele>2367.8600000000001</ele>
        <time>2016-07-05T11:54:55Z</time>
      </trkpt>
      <trkpt lat="46.010257881134748" lon="7.2097113635391">
        <ele>2367.8600000000001</ele>
        <time>2016-07-05T11:55:10Z</time>
      </trkpt>
      <trkpt lat="46.010241536423564" lon="7.209730809554458">
        <ele>2367.8600000000001</ele>
        <time>2016-07-05T11:55:24Z</time>
      </trkpt>
      <trkpt lat="46.010234327986836" lon="7.209724606946111">
        <ele>2368.3499999999999</ele>
        <time>2016-07-05T11:55:38Z</time>
      </trkpt>
      <trkpt lat="46.010251929983497" lon="7.209690324962139">
        <ele>2367.8600000000001</ele>
        <time>2016-07-05T11:55:57Z</time>
      </trkpt>
      <trkpt lat="46.010266933590174" lon="7.209696611389518">
        <ele>2368.3499999999999</ele>
        <time>2016-07-05T11:56:16Z</time>
      </trkpt>
      <trkpt lat="46.010264754295349" lon="7.209733072668314">
        <ele>2368.3499999999999</ele>
        <time>2016-07-05T11:56:30Z</time>
      </trkpt>
      <trkpt lat="46.010252013802528" lon="7.209739107638598">
        <ele>2368.8299999999999</ele>
        <time>2016-07-05T11:56:46Z</time>
      </trkpt>
      <trkpt lat="46.010246649384499" lon="7.209748579189181">
        <ele>2368.8299999999999</ele>
        <time>2016-07-05T11:57:10Z</time>
      </trkpt>
      <trkpt lat="46.010267352685332" lon="7.209693342447281">
        <ele>2368.8299999999999</ele>
        <time>2016-07-05T11:57:29Z</time>
      </trkpt>
      <trkpt lat="46.010242961347103" lon="7.209675321355462">
        <ele>2367.8600000000001</ele>
        <time>2016-07-05T11:57:39Z</time>
      </trkpt>
      <trkpt lat="46.010243464261293" lon="7.209679763764143">
        <ele>2368.3499999999999</ele>
        <time>2016-07-05T11:58:00Z</time>
      </trkpt>
      <trkpt lat="46.010264419019222" lon="7.209711279720068">
        <ele>2368.3499999999999</ele>
        <time>2016-07-05T11:58:24Z</time>
      </trkpt>
      <trkpt lat="46.010263832286" lon="7.20970306545496">
        <ele>2367.8600000000001</ele>
        <time>2016-07-05T11:58:35Z</time>
      </trkpt>
      <trkpt lat="46.010271208360791" lon="7.20968110486865">
        <ele>2368.8299999999999</ele>
        <time>2016-07-05T11:58:43Z</time>
      </trkpt>
      <trkpt lat="46.010265173390508" lon="7.209708681330085">
        <ele>2368.8299999999999</ele>
        <time>2016-07-05T11:58:53Z</time>
      </trkpt>
      <trkpt lat="46.010265424847603" lon="7.209709351882339">
        <ele>2369.3099999999999</ele>
        <time>2016-07-05T11:59:07Z</time>
      </trkpt>
      <trkpt lat="46.010298701003194" lon="7.209710692986846">
        <ele>2370.27</ele>
        <time>2016-07-05T11:59:16Z</time>
      </trkpt>
      <trkpt lat="46.010362738743424" lon="7.209714129567146">
        <ele>2372.1900000000001</ele>
        <time>2016-07-05T11:59:25Z</time>
      </trkpt>
      <trkpt lat="46.010440103709698" lon="7.209715889766812">
        <ele>2374.1100000000001</ele>
        <time>2016-07-05T11:59:35Z</time>
      </trkpt>
      <trkpt lat="46.010501626878977" lon="7.209749752655625">
        <ele>2375.5500000000002</ele>
        <time>2016-07-05T11:59:45Z</time>
      </trkpt>
      <trkpt lat="46.010560635477304" lon="7.209765929728746">
        <ele>2377</ele>
        <time>2016-07-05T11:59:55Z</time>
      </trkpt>
      <trkpt lat="46.010600533336401" lon="7.209799205884337">
        <ele>2378.9200000000001</ele>
        <time>2016-07-05T12:00:04Z</time>
      </trkpt>
      <trkpt lat="46.010663229972124" lon="7.209785375744104">
        <ele>2380.3600000000001</ele>
        <time>2016-07-05T12:00:15Z</time>
      </trkpt>
      <trkpt lat="46.010719975456595" lon="7.209810353815556">
        <ele>2381.3200000000002</ele>
        <time>2016-07-05T12:00:25Z</time>
      </trkpt>
      <trkpt lat="46.010743360966444" lon="7.209796020761132">
        <ele>2382.2800000000002</ele>
        <time>2016-07-05T12:00:30Z</time>
      </trkpt>
      <trkpt lat="46.010805973783135" lon="7.209791662171483">
        <ele>2383.73</ele>
        <time>2016-07-05T12:00:40Z</time>
      </trkpt>
      <trkpt lat="46.010867161676288" lon="7.209801552817226">
        <ele>2385.6500000000001</ele>
        <time>2016-07-05T12:00:50Z</time>
      </trkpt>
      <trkpt lat="46.010943856090307" lon="7.209786381572485">
        <ele>2387.0900000000001</ele>
        <time>2016-07-05T12:01:01Z</time>
      </trkpt>
      <trkpt lat="46.011012252420187" lon="7.209808845072985">
        <ele>2388.5300000000002</ele>
        <time>2016-07-05T12:01:11Z</time>
      </trkpt>
      <trkpt lat="46.011092970147729" lon="7.209828039631248">
        <ele>2389.9699999999998</ele>
        <time>2016-07-05T12:01:22Z</time>
      </trkpt>
      <trkpt lat="46.011152900755405" lon="7.209834661334753">
        <ele>2391.4200000000001</ele>
        <time>2016-07-05T12:01:31Z</time>
      </trkpt>
      <trkpt lat="46.011221129447222" lon="7.209860142320395">
        <ele>2393.3400000000001</ele>
        <time>2016-07-05T12:01:40Z</time>
      </trkpt>
      <trkpt lat="46.011284915730357" lon="7.209862908348441">
        <ele>2393.8200000000002</ele>
        <time>2016-07-05T12:01:49Z</time>
      </trkpt>
      <trkpt lat="46.011336464434862" lon="7.209879336878657">
        <ele>2395.2600000000002</ele>
        <time>2016-07-05T12:01:58Z</time>
      </trkpt>
      <trkpt lat="46.011396646499634" lon="7.209880175068975">
        <ele>2396.2199999999998</ele>
        <time>2016-07-05T12:02:08Z</time>
      </trkpt>
      <trkpt lat="46.011470658704638" lon="7.209890568628907">
        <ele>2397.1799999999998</ele>
        <time>2016-07-05T12:02:19Z</time>
      </trkpt>
      <trkpt lat="46.011548861861229" lon="7.209919486194849">
        <ele>2398.6300000000001</ele>
        <time>2016-07-05T12:02:30Z</time>
      </trkpt>
      <trkpt lat="46.011638715863228" lon="7.209948906674981">
        <ele>2400.5500000000002</ele>
        <time>2016-07-05T12:02:41Z</time>
      </trkpt>
      <trkpt lat="46.011709878221154" lon="7.209970029070973">
        <ele>2402.4699999999998</ele>
        <time>2016-07-05T12:02:51Z</time>
      </trkpt>
      <trkpt lat="46.011786740273237" lon="7.209979584440589">
        <ele>2404.8800000000001</ele>
        <time>2016-07-05T12:03:02Z</time>
      </trkpt>
      <trkpt lat="46.011865362524986" lon="7.209965083748102">
        <ele>2405.8400000000001</ele>
        <time>2016-07-05T12:03:12Z</time>
      </trkpt>
      <trkpt lat="46.011946415528655" lon="7.209959635511041">
        <ele>2406.8000000000002</ele>
        <time>2016-07-05T12:03:24Z</time>
      </trkpt>
      <trkpt lat="46.01203266531229" lon="7.209966005757451">
        <ele>2408.7199999999998</ele>
        <time>2016-07-05T12:03:35Z</time>
      </trkpt>
      <trkpt lat="46.012110868468881" lon="7.209961479529738">
        <ele>2409.1999999999998</ele>
        <time>2016-07-05T12:03:45Z</time>
      </trkpt>
      <trkpt lat="46.012187646701932" lon="7.209972208365798">
        <ele>2411.1199999999999</ele>
        <time>2016-07-05T12:03:55Z</time>
      </trkpt>
      <trkpt lat="46.01224078796804" lon="7.209972878918052">
        <ele>2412.5700000000002</ele>
        <time>2016-07-05T12:04:02Z</time>
      </trkpt>
      <trkpt lat="46.012309938669205" lon="7.209953181445599">
        <ele>2413.5300000000002</ele>
        <time>2016-07-05T12:04:12Z</time>
      </trkpt>
      <trkpt lat="46.012366935610771" lon="7.209904901683331">
        <ele>2414.9699999999998</ele>
        <time>2016-07-05T12:04:22Z</time>
      </trkpt>
      <trkpt lat="46.012414125725627" lon="7.209884030744433">
        <ele>2415.9299999999998</ele>
        <time>2016-07-05T12:04:29Z</time>
      </trkpt>
      <trkpt lat="46.012500124052167" lon="7.209894089028239">
        <ele>2418.3299999999999</ele>
        <time>2016-07-05T12:04:41Z</time>
      </trkpt>
      <trkpt lat="46.012535076588392" lon="7.209853688254952">
        <ele>2419.7800000000002</ele>
        <time>2016-07-05T12:04:51Z</time>
      </trkpt>
      <trkpt lat="46.012591402977705" lon="7.209840025752783">
        <ele>2421.6999999999998</ele>
        <time>2016-07-05T12:05:02Z</time>
      </trkpt>
      <trkpt lat="46.012627109885216" lon="7.209784956648946">
        <ele>2423.1399999999999</ele>
        <time>2016-07-05T12:05:11Z</time>
      </trkpt>
      <trkpt lat="46.012712521478534" lon="7.209751512855291">
        <ele>2424.5799999999999</ele>
        <time>2016-07-05T12:05:22Z</time>
      </trkpt>
      <trkpt lat="46.012769099324942" lon="7.209696024656296">
        <ele>2426.02</ele>
        <time>2016-07-05T12:05:34Z</time>
      </trkpt>
      <trkpt lat="46.012828527018428" lon="7.20963123254478">
        <ele>2427.4699999999998</ele>
        <time>2016-07-05T12:05:45Z</time>
      </trkpt>
      <trkpt lat="46.012848224490881" lon="7.209548838436604">
        <ele>2428.9099999999999</ele>
        <time>2016-07-05T12:05:56Z</time>
      </trkpt>
      <trkpt lat="46.012900611385703" lon="7.209497960284352">
        <ele>2430.8299999999999</ele>
        <time>2016-07-05T12:06:06Z</time>
      </trkpt>
      <trkpt lat="46.012913854792714" lon="7.20944557338953">
        <ele>2432.27</ele>
        <time>2016-07-05T12:06:17Z</time>
      </trkpt>
      <trkpt lat="46.012960877269506" lon="7.209410620853305">
        <ele>2433.23</ele>
        <time>2016-07-05T12:06:28Z</time>
      </trkpt>
      <trkpt lat="46.012968923896551" lon="7.209408776834607">
        <ele>2433.23</ele>
        <time>2016-07-05T12:06:29Z</time>
      </trkpt>
      <trkpt lat="46.013010079041123" lon="7.209367705509067">
        <ele>2434.6799999999998</ele>
        <time>2016-07-05T12:06:38Z</time>
      </trkpt>
      <trkpt lat="46.013064812868834" lon="7.209346666932106">
        <ele>2436.5999999999999</ele>
        <time>2016-07-05T12:06:49Z</time>
      </trkpt>
      <trkpt lat="46.013088952749968" lon="7.209262428805232">
        <ele>2437.5599999999999</ele>
        <time>2016-07-05T12:06:59Z</time>
      </trkpt>
      <trkpt lat="46.013131951913238" lon="7.209181040525436">
        <ele>2439.48</ele>
        <time>2016-07-05T12:07:10Z</time>
      </trkpt>
      <trkpt lat="46.013175705447793" lon="7.20911574549973">
        <ele>2441.4099999999999</ele>
        <time>2016-07-05T12:07:20Z</time>
      </trkpt>
      <trkpt lat="46.01321317255497" lon="7.209056736901403">
        <ele>2442.3699999999999</ele>
        <time>2016-07-05T12:07:29Z</time>
      </trkpt>
      <trkpt lat="46.013221386820078" lon="7.209042487666011">
        <ele>2442.8499999999999</ele>
        <time>2016-07-05T12:07:31Z</time>
      </trkpt>
      <trkpt lat="46.013267990201712" lon="7.20897551625967">
        <ele>2443.8099999999999</ele>
        <time>2016-07-05T12:07:41Z</time>
      </trkpt>
      <trkpt lat="46.013305960223079" lon="7.208916759118438">
        <ele>2445.25</ele>
        <time>2016-07-05T12:07:50Z</time>
      </trkpt>
      <trkpt lat="46.013335548341274" lon="7.208845010027289">
        <ele>2447.1700000000001</ele>
        <time>2016-07-05T12:08:00Z</time>
      </trkpt>
      <trkpt lat="46.013379134237766" lon="7.20880351960659">
        <ele>2448.6199999999999</ele>
        <time>2016-07-05T12:08:09Z</time>
      </trkpt>
      <trkpt lat="46.013404196128249" lon="7.20876244828105">
        <ele>2450.54</ele>
        <time>2016-07-05T12:08:18Z</time>
      </trkpt>
      <trkpt lat="46.013447362929583" lon="7.208687430247665">
        <ele>2451.98</ele>
        <time>2016-07-05T12:08:28Z</time>
      </trkpt>
      <trkpt lat="46.013487596064806" lon="7.208600593730807">
        <ele>2453.9000000000001</ele>
        <time>2016-07-05T12:08:40Z</time>
      </trkpt>
      <trkpt lat="46.013503521680832" lon="7.208527587354183">
        <ele>2455.3400000000001</ele>
        <time>2016-07-05T12:08:49Z</time>
      </trkpt>
      <trkpt lat="46.013527913019061" lon="7.208425663411617">
        <ele>2456.79</ele>
        <time>2016-07-05T12:08:59Z</time>
      </trkpt>
      <trkpt lat="46.013555573299527" lon="7.208338407799602">
        <ele>2459.1900000000001</ele>
        <time>2016-07-05T12:09:10Z</time>
      </trkpt>
      <trkpt lat="46.013549789786339" lon="7.208310663700104">
        <ele>2459.1900000000001</ele>
        <time>2016-07-05T12:09:13Z</time>
      </trkpt>
      <trkpt lat="46.013573426753283" lon="7.208215864375234">
        <ele>2460.6300000000001</ele>
        <time>2016-07-05T12:09:22Z</time>
      </trkpt>
      <trkpt lat="46.013596560806036" lon="7.208142438903451">
        <ele>2462.0700000000002</ele>
        <time>2016-07-05T12:09:31Z</time>
      </trkpt>
      <trkpt lat="46.013639559969306" lon="7.208113269880414">
        <ele>2463.52</ele>
        <time>2016-07-05T12:09:41Z</time>
      </trkpt>
      <trkpt lat="46.013641068711877" lon="7.208054009824991">
        <ele>2464.96</ele>
        <time>2016-07-05T12:09:51Z</time>
      </trkpt>
      <trkpt lat="46.013639476150274" lon="7.208027187734842">
        <ele>2465.4400000000001</ele>
        <time>2016-07-05T12:09:54Z</time>
      </trkpt>
      <trkpt lat="46.013632016256452" lon="7.207929538562894">
        <ele>2466.8800000000001</ele>
        <time>2016-07-05T12:10:07Z</time>
      </trkpt>
      <trkpt lat="46.013641906902194" lon="7.207798445597291">
        <ele>2468.8000000000002</ele>
        <time>2016-07-05T12:10:20Z</time>
      </trkpt>
      <trkpt lat="46.013652132824063" lon="7.2076874691993">
        <ele>2469.7600000000002</ele>
        <time>2016-07-05T12:10:29Z</time>
      </trkpt>
      <trkpt lat="46.013650204986334" lon="7.20766399987042">
        <ele>2469.7600000000002</ele>
        <time>2016-07-05T12:10:32Z</time>
      </trkpt>
      <trkpt lat="46.013665124773979" lon="7.207575319334865">
        <ele>2471.21</ele>
        <time>2016-07-05T12:10:42Z</time>
      </trkpt>
      <trkpt lat="46.013678619638085" lon="7.207463923841715">
        <ele>2472.6500000000001</ele>
        <time>2016-07-05T12:10:52Z</time>
      </trkpt>
      <trkpt lat="46.013685744255781" lon="7.207389157265425">
        <ele>2474.0900000000001</ele>
        <time>2016-07-05T12:11:01Z</time>
      </trkpt>
      <trkpt lat="46.013680212199688" lon="7.207361664623022">
        <ele>2474.0900000000001</ele>
        <time>2016-07-05T12:11:04Z</time>
      </trkpt>
      <trkpt lat="46.01366076618433" lon="7.207261752337217">
        <ele>2475.0500000000002</ele>
        <time>2016-07-05T12:11:14Z</time>
      </trkpt>
      <trkpt lat="46.013704938814044" lon="7.207160415127873">
        <ele>2476.4899999999998</ele>
        <time>2016-07-05T12:11:25Z</time>
      </trkpt>
      <trkpt lat="46.013700999319553" lon="7.207136610522866">
        <ele>2476.9699999999998</ele>
        <time>2016-07-05T12:11:30Z</time>
      </trkpt>
      <trkpt lat="46.013693623244762" lon="7.207007445394993">
        <ele>2477.9400000000001</ele>
        <time>2016-07-05T12:11:41Z</time>
      </trkpt>
      <trkpt lat="46.013690521940589" lon="7.206984646618366">
        <ele>2478.4200000000001</ele>
        <time>2016-07-05T12:11:43Z</time>
      </trkpt>
      <trkpt lat="46.013711895793676" lon="7.206856906414032">
        <ele>2479.3800000000001</ele>
        <time>2016-07-05T12:11:54Z</time>
      </trkpt>
      <trkpt lat="46.013696389272809" lon="7.206773003563285">
        <ele>2479.8600000000001</ele>
        <time>2016-07-05T12:12:01Z</time>
      </trkpt>
      <trkpt lat="46.013711476698518" lon="7.206749701872468">
        <ele>2480.8200000000002</ele>
        <time>2016-07-05T12:12:13Z</time>
      </trkpt>
      <trkpt lat="46.013712398707867" lon="7.206753976643086">
        <ele>2479.8600000000001</ele>
        <time>2016-07-05T12:12:14Z</time>
      </trkpt>
      <trkpt lat="46.013751542195678" lon="7.206706199795008">
        <ele>2479.3800000000001</ele>
        <time>2016-07-05T12:12:22Z</time>
      </trkpt>
      <trkpt lat="46.013750620186329" lon="7.206696812063456">
        <ele>2479.3800000000001</ele>
        <time>2016-07-05T12:12:36Z</time>
      </trkpt>
      <trkpt lat="46.0137590020895" lon="7.206699075177312">
        <ele>2479.3800000000001</ele>
        <time>2016-07-05T12:12:56Z</time>
      </trkpt>
      <trkpt lat="46.013761349022388" lon="7.206690357998014">
        <ele>2479.3800000000001</ele>
        <time>2016-07-05T12:13:06Z</time>
      </trkpt>
      <trkpt lat="46.013742154464126" lon="7.206673929467797">
        <ele>2478.9000000000001</ele>
        <time>2016-07-05T12:13:26Z</time>
      </trkpt>
      <trkpt lat="46.01372430101037" lon="7.206673342734575">
        <ele>2478.9000000000001</ele>
        <time>2016-07-05T12:13:46Z</time>
      </trkpt>
      <trkpt lat="46.013776184991002" lon="7.206629170104861">
        <ele>2479.8600000000001</ele>
        <time>2016-07-05T12:14:04Z</time>
      </trkpt>
      <trkpt lat="46.013768725097179" lon="7.206675605848432">
        <ele>2479.3800000000001</ele>
        <time>2016-07-05T12:14:13Z</time>
      </trkpt>
      <trkpt lat="46.013735281303525" lon="7.206761771813035">
        <ele>2479.3800000000001</ele>
        <time>2016-07-05T12:14:37Z</time>
      </trkpt>
      <trkpt lat="46.013712985441089" lon="7.206804351881146">
        <ele>2479.3800000000001</ele>
        <time>2016-07-05T12:14:58Z</time>
      </trkpt>
      <trkpt lat="46.013705777004361" lon="7.206808961927891">
        <ele>2479.3800000000001</ele>
        <time>2016-07-05T12:15:23Z</time>
      </trkpt>
      <trkpt lat="46.013734024018049" lon="7.206824133172631">
        <ele>2479.8600000000001</ele>
        <time>2016-07-05T12:15:35Z</time>
      </trkpt>
      <trkpt lat="46.013728324323893" lon="7.206860007718206">
        <ele>2479.8600000000001</ele>
        <time>2016-07-05T12:15:55Z</time>
      </trkpt>
      <trkpt lat="46.01371013559401" lon="7.206801921129227">
        <ele>2479.8600000000001</ele>
        <time>2016-07-05T12:16:17Z</time>
      </trkpt>
      <trkpt lat="46.013707118108869" lon="7.206807201728225">
        <ele>2479.8600000000001</ele>
        <time>2016-07-05T12:16:36Z</time>
      </trkpt>
      <trkpt lat="46.013696724548936" lon="7.206814242526889">
        <ele>2480.3400000000001</ele>
        <time>2016-07-05T12:17:02Z</time>
      </trkpt>
      <trkpt lat="46.013700412586331" lon="7.206806447356939">
        <ele>2480.3400000000001</ele>
        <time>2016-07-05T12:17:16Z</time>
      </trkpt>
      <trkpt lat="46.013712231069803" lon="7.206787504255772">
        <ele>2480.3400000000001</ele>
        <time>2016-07-05T12:17:43Z</time>
      </trkpt>
      <trkpt lat="46.013716757297516" lon="7.206781972199678">
        <ele>2480.8200000000002</ele>
        <time>2016-07-05T12:18:07Z</time>
      </trkpt>
      <trkpt lat="46.013716841116548" lon="7.206804854795337">
        <ele>2481.3000000000002</ele>
        <time>2016-07-05T12:18:35Z</time>
      </trkpt>
      <trkpt lat="46.013704603537917" lon="7.206809045746923">
        <ele>2481.3000000000002</ele>
        <time>2016-07-05T12:19:03Z</time>
      </trkpt>
      <trkpt lat="46.013702508062124" lon="7.206822456791997">
        <ele>2481.3000000000002</ele>
        <time>2016-07-05T12:19:26Z</time>
      </trkpt>
      <trkpt lat="46.013697814196348" lon="7.206819355487824">
        <ele>2481.7800000000002</ele>
        <time>2016-07-05T12:19:52Z</time>
      </trkpt>
      <trkpt lat="46.013704687356949" lon="7.206816170364618">
        <ele>2481.7800000000002</ele>
        <time>2016-07-05T12:20:20Z</time>
      </trkpt>
      <trkpt lat="46.013699658215046" lon="7.206805441528559">
        <ele>2481.3000000000002</ele>
        <time>2016-07-05T12:20:41Z</time>
      </trkpt>
      <trkpt lat="46.013705022633076" lon="7.206788929179311">
        <ele>2481.3000000000002</ele>
        <time>2016-07-05T12:21:08Z</time>
      </trkpt>
      <trkpt lat="46.013710554689169" lon="7.206783313304186">
        <ele>2481.3000000000002</ele>
        <time>2016-07-05T12:21:36Z</time>
      </trkpt>
      <trkpt lat="46.013715835288167" lon="7.206783900037408">
        <ele>2481.3000000000002</ele>
        <time>2016-07-05T12:21:56Z</time>
      </trkpt>
      <trkpt lat="46.013720612972975" lon="7.206774344667792">
        <ele>2482.2600000000002</ele>
        <time>2016-07-05T12:22:22Z</time>
      </trkpt>
      <trkpt lat="46.013725055381656" lon="7.206771327182651">
        <ele>2481.7800000000002</ele>
        <time>2016-07-05T12:22:47Z</time>
      </trkpt>
      <trkpt lat="46.013726899400353" lon="7.20676738768816">
        <ele>2481.7800000000002</ele>
        <time>2016-07-05T12:23:19Z</time>
      </trkpt>
      <trkpt lat="46.013725977391005" lon="7.206761436536908">
        <ele>2482.2600000000002</ele>
        <time>2016-07-05T12:23:43Z</time>
      </trkpt>
      <trkpt lat="46.013734862208366" lon="7.206755736842752">
        <ele>2482.2600000000002</ele>
        <time>2016-07-05T12:24:12Z</time>
      </trkpt>
      <trkpt lat="46.013751626014709" lon="7.206752467900515">
        <ele>2482.7399999999998</ele>
        <time>2016-07-05T12:24:26Z</time>
      </trkpt>
      <trkpt lat="46.013736119493842" lon="7.206759843975306">
        <ele>2482.7399999999998</ele>
        <time>2016-07-05T12:24:43Z</time>
      </trkpt>
      <trkpt lat="46.013732263818383" lon="7.20675271935761">
        <ele>2482.2600000000002</ele>
        <time>2016-07-05T12:24:59Z</time>
      </trkpt>
      <trkpt lat="46.013731174170971" lon="7.206731680780649">
        <ele>2482.2600000000002</ele>
        <time>2016-07-05T12:25:14Z</time>
      </trkpt>
    </trkseg>
  </trk>

  <trk>
    <name>champillon-san-remy2016-07-09</name>
    <extensions>
      <gpxx:TrackExtension>
        <gpxx:DisplayColor>Yellow</gpxx:DisplayColor>
      </gpxx:TrackExtension>
      <gpxtrkx:TrackStatsExtension xmlns:gpxtrkx="http://www.garmin.com/xmlschemas/TrackStatsExtension/v1">
        <gpxtrkx:Distance>16706</gpxtrkx:Distance>
        <gpxtrkx:TotalElapsedTime>20669</gpxtrkx:TotalElapsedTime>
        <gpxtrkx:MovingTime>15604</gpxtrkx:MovingTime>
        <gpxtrkx:StoppedTime>5057</gpxtrkx:StoppedTime>
        <gpxtrkx:MovingSpeed>1</gpxtrkx:MovingSpeed>
        <gpxtrkx:MaxSpeed>2</gpxtrkx:MaxSpeed>
        <gpxtrkx:MaxElevation>2719</gpxtrkx:MaxElevation>
        <gpxtrkx:MinElevation>1635</gpxtrkx:MinElevation>
        <gpxtrkx:Ascent>618</gpxtrkx:Ascent>
        <gpxtrkx:Descent>1408</gpxtrkx:Descent>
        <gpxtrkx:AvgAscentRate>0</gpxtrkx:AvgAscentRate>
        <gpxtrkx:MaxAscentRate>0</gpxtrkx:MaxAscentRate>
        <gpxtrkx:AvgDescentRate>0</gpxtrkx:AvgDescentRate>
        <gpxtrkx:MaxDescentRate>-0</gpxtrkx:MaxDescentRate>
      </gpxtrkx:TrackStatsExtension>
    </extensions>
    <trkseg>
      <trkpt lat="45.850123213604093" lon="7.26908172480762">
        <ele>2430.8299999999999</ele>
        <time>2016-07-09T05:48:10Z</time>
      </trkpt>
      <trkpt lat="45.850138049572706" lon="7.268990110605955">
        <ele>2430.8299999999999</ele>
        <time>2016-07-09T05:48:21Z</time>
      </trkpt>
      <trkpt lat="45.850110556930304" lon="7.268935544416308">
        <ele>2432.27</ele>
        <time>2016-07-09T05:48:31Z</time>
      </trkpt>
      <trkpt lat="45.850093625485897" lon="7.268888019025326">
        <ele>2433.71</ele>
        <time>2016-07-09T05:48:42Z</time>
      </trkpt>
      <trkpt lat="45.850060349330306" lon="7.268880559131503">
        <ele>2435.1599999999999</ele>
        <time>2016-07-09T05:48:51Z</time>
      </trkpt>
      <trkpt lat="45.85001315921545" lon="7.26884719915688">
        <ele>2437.0799999999999</ele>
        <time>2016-07-09T05:49:04Z</time>
      </trkpt>
      <trkpt lat="45.849980469793081" lon="7.268882738426328">
        <ele>2438.52</ele>
        <time>2016-07-09T05:49:13Z</time>
      </trkpt>
      <trkpt lat="45.849951719865203" lon="7.268842253834009">
        <ele>2439.96</ele>
        <time>2016-07-09T05:49:23Z</time>
      </trkpt>
      <trkpt lat="45.849993880838156" lon="7.268740078434348">
        <ele>2441.8899999999999</ele>
        <time>2016-07-09T05:49:36Z</time>
      </trkpt>
      <trkpt lat="45.850011482834816" lon="7.268665311858058">
        <ele>2443.8099999999999</ele>
        <time>2016-07-09T05:49:50Z</time>
      </trkpt>
      <trkpt lat="45.849997736513615" lon="7.268624240532517">
        <ele>2445.73</ele>
        <time>2016-07-09T05:50:02Z</time>
      </trkpt>
      <trkpt lat="45.850022798404098" lon="7.26858576759696">
        <ele>2447.1700000000001</ele>
        <time>2016-07-09T05:50:11Z</time>
      </trkpt>
      <trkpt lat="45.850012823939323" lon="7.268533380702138">
        <ele>2448.1300000000001</ele>
        <time>2016-07-09T05:50:23Z</time>
      </trkpt>
      <trkpt lat="45.850009806454182" lon="7.2684714384377">
        <ele>2450.0599999999999</ele>
        <time>2016-07-09T05:50:37Z</time>
      </trkpt>
      <trkpt lat="45.850016847252846" lon="7.268449645489454">
        <ele>2451.5</ele>
        <time>2016-07-09T05:50:48Z</time>
      </trkpt>
      <trkpt lat="45.850018355995417" lon="7.268412932753563">
        <ele>2452.9400000000001</ele>
        <time>2016-07-09T05:51:02Z</time>
      </trkpt>
      <trkpt lat="45.850033611059189" lon="7.268359791487455">
        <ele>2453.9000000000001</ele>
        <time>2016-07-09T05:51:13Z</time>
      </trkpt>
      <trkpt lat="45.850058002397418" lon="7.268301034346223">
        <ele>2455.8200000000002</ele>
        <time>2016-07-09T05:51:23Z</time>
      </trkpt>
      <trkpt lat="45.850041406229138" lon="7.268251832574606">
        <ele>2456.79</ele>
        <time>2016-07-09T05:51:34Z</time>
      </trkpt>
      <trkpt lat="45.850054817274213" lon="7.268189890310168">
        <ele>2458.71</ele>
        <time>2016-07-09T05:51:45Z</time>
      </trkpt>
      <trkpt lat="45.850042914971709" lon="7.268136665225029">
        <ele>2460.6300000000001</ele>
        <time>2016-07-09T05:51:57Z</time>
      </trkpt>
      <trkpt lat="45.850048614665866" lon="7.268078494817019">
        <ele>2461.5900000000001</ele>
        <time>2016-07-09T05:52:06Z</time>
      </trkpt>
      <trkpt lat="45.850069988518953" lon="7.268003644421697">
        <ele>2463.04</ele>
        <time>2016-07-09T05:52:17Z</time>
      </trkpt>
      <trkpt lat="45.850099325180054" lon="7.267919573932886">
        <ele>2464.48</ele>
        <time>2016-07-09T05:52:29Z</time>
      </trkpt>
      <trkpt lat="45.850092703476548" lon="7.267865007743239">
        <ele>2465.4400000000001</ele>
        <time>2016-07-09T05:52:38Z</time>
      </trkpt>
      <trkpt lat="45.850108796730638" lon="7.267816392704845">
        <ele>2466.4000000000001</ele>
        <time>2016-07-09T05:52:50Z</time>
      </trkpt>
      <trkpt lat="45.850133690983057" lon="7.26779367774725">
        <ele>2467.3600000000001</ele>
        <time>2016-07-09T05:53:01Z</time>
      </trkpt>
      <trkpt lat="45.85016512311995" lon="7.267775740474463">
        <ele>2468.3200000000002</ele>
        <time>2016-07-09T05:53:13Z</time>
      </trkpt>
      <trkpt lat="45.850174846127629" lon="7.267710026353598">
        <ele>2469.7600000000002</ele>
        <time>2016-07-09T05:53:26Z</time>
      </trkpt>
      <trkpt lat="45.850175768136978" lon="7.26762855425477">
        <ele>2471.21</ele>
        <time>2016-07-09T05:53:37Z</time>
      </trkpt>
      <trkpt lat="45.850181300193071" lon="7.26764565333724">
        <ele>2471.21</ele>
        <time>2016-07-09T05:53:51Z</time>
      </trkpt>
      <trkpt lat="45.850189933553338" lon="7.267641378566623">
        <ele>2471.21</ele>
        <time>2016-07-09T05:54:07Z</time>
      </trkpt>
      <trkpt lat="45.850180126726627" lon="7.267638947814703">
        <ele>2471.21</ele>
        <time>2016-07-09T05:54:32Z</time>
      </trkpt>
      <trkpt lat="45.85017878562212" lon="7.267623441293836">
        <ele>2471.21</ele>
        <time>2016-07-09T05:54:53Z</time>
      </trkpt>
      <trkpt lat="45.850205104798079" lon="7.267566025257111">
        <ele>2473.1300000000001</ele>
        <time>2016-07-09T05:55:05Z</time>
      </trkpt>
      <trkpt lat="45.850198399275541" lon="7.267523780465126">
        <ele>2474.0900000000001</ele>
        <time>2016-07-09T05:55:13Z</time>
      </trkpt>
      <trkpt lat="45.850249193608761" lon="7.267470555379987">
        <ele>2476.0100000000002</ele>
        <time>2016-07-09T05:55:25Z</time>
      </trkpt>
      <trkpt lat="45.850281463935971" lon="7.267404673621059">
        <ele>2477.9400000000001</ele>
        <time>2016-07-09T05:55:38Z</time>
      </trkpt>
      <trkpt lat="45.850294288247824" lon="7.267348850145936">
        <ele>2479.8600000000001</ele>
        <time>2016-07-09T05:55:49Z</time>
      </trkpt>
      <trkpt lat="45.8503283187747" lon="7.267308030277491">
        <ele>2481.3000000000002</ele>
        <time>2016-07-09T05:55:58Z</time>
      </trkpt>
      <trkpt lat="45.850366456434131" lon="7.26729185320437">
        <ele>2481.7800000000002</ele>
        <time>2016-07-09T05:56:07Z</time>
      </trkpt>
      <trkpt lat="45.850431248545647" lon="7.267213230952621">
        <ele>2483.6999999999998</ele>
        <time>2016-07-09T05:56:21Z</time>
      </trkpt>
      <trkpt lat="45.850497968494892" lon="7.267174422740936">
        <ele>2485.1500000000001</ele>
        <time>2016-07-09T05:56:31Z</time>
      </trkpt>
      <trkpt lat="45.850539710372686" lon="7.267131675034761">
        <ele>2486.5900000000001</ele>
        <time>2016-07-09T05:56:42Z</time>
      </trkpt>
      <trkpt lat="45.850545577704906" lon="7.267119269818068">
        <ele>2488.0300000000002</ele>
        <time>2016-07-09T05:56:51Z</time>
      </trkpt>
      <trkpt lat="45.850495621562004" lon="7.267117593437433">
        <ele>2489.4699999999998</ele>
        <time>2016-07-09T05:57:03Z</time>
      </trkpt>
      <trkpt lat="45.850456561893225" lon="7.267107116058469">
        <ele>2490.9099999999999</ele>
        <time>2016-07-09T05:57:14Z</time>
      </trkpt>
      <trkpt lat="45.850465949624777" lon="7.267065541818738">
        <ele>2492.3600000000001</ele>
        <time>2016-07-09T05:57:22Z</time>
      </trkpt>
      <trkpt lat="45.850510541349649" lon="7.267015418037772">
        <ele>2493.8000000000002</ele>
        <time>2016-07-09T05:57:33Z</time>
      </trkpt>
      <trkpt lat="45.850560246035457" lon="7.266942327842116">
        <ele>2496.1999999999998</ele>
        <time>2016-07-09T05:57:48Z</time>
      </trkpt>
      <trkpt lat="45.850617745891213" lon="7.26689605973661">
        <ele>2497.6399999999999</ele>
        <time>2016-07-09T05:57:58Z</time>
      </trkpt>
      <trkpt lat="45.850665690377355" lon="7.266867225989699">
        <ele>2499.0799999999999</ele>
        <time>2016-07-09T05:58:09Z</time>
      </trkpt>
      <trkpt lat="45.850747665390372" lon="7.266849288716912">
        <ele>2501.4899999999998</ele>
        <time>2016-07-09T05:58:23Z</time>
      </trkpt>
      <trkpt lat="45.850775744765997" lon="7.266843505203724">
        <ele>2502.4499999999998</ele>
        <time>2016-07-09T05:58:29Z</time>
      </trkpt>
      <trkpt lat="45.850795609876513" lon="7.266847947612405">
        <ele>2502.9299999999998</ele>
        <time>2016-07-09T05:58:40Z</time>
      </trkpt>
      <trkpt lat="45.850799046456814" lon="7.266807127743959">
        <ele>2504.3699999999999</ele>
        <time>2016-07-09T05:58:53Z</time>
      </trkpt>
      <trkpt lat="45.850745821371675" lon="7.266774773597717">
        <ele>2505.8099999999999</ele>
        <time>2016-07-09T05:59:00Z</time>
      </trkpt>
      <trkpt lat="45.850678933784366" lon="7.266733618453145">
        <ele>2507.2600000000002</ele>
        <time>2016-07-09T05:59:12Z</time>
      </trkpt>
      <trkpt lat="45.850671054795384" lon="7.266715178266168">
        <ele>2508.2199999999998</ele>
        <time>2016-07-09T05:59:22Z</time>
      </trkpt>
      <trkpt lat="45.850667031481862" lon="7.266713250428438">
        <ele>2508.2199999999998</ele>
        <time>2016-07-09T05:59:24Z</time>
      </trkpt>
      <trkpt lat="45.850665774196386" lon="7.266669748350978">
        <ele>2509.6599999999999</ele>
        <time>2016-07-09T05:59:34Z</time>
      </trkpt>
      <trkpt lat="45.850732494145632" lon="7.266621300950646">
        <ele>2511.0999999999999</ele>
        <time>2016-07-09T05:59:44Z</time>
      </trkpt>
      <trkpt lat="45.85077490657568" lon="7.266591209918261">
        <ele>2513.02</ele>
        <time>2016-07-09T05:59:54Z</time>
      </trkpt>
      <trkpt lat="45.850826874375343" lon="7.266579810529947">
        <ele>2513.98</ele>
        <time>2016-07-09T06:00:02Z</time>
      </trkpt>
      <trkpt lat="45.850891163572669" lon="7.266597244888544">
        <ele>2516.3899999999999</ele>
        <time>2016-07-09T06:00:13Z</time>
      </trkpt>
      <trkpt lat="45.85085260681808" lon="7.266556760296226">
        <ele>2516.3899999999999</ele>
        <time>2016-07-09T06:00:22Z</time>
      </trkpt>
      <trkpt lat="45.850813128054142" lon="7.266525495797396">
        <ele>2518.3099999999999</ele>
        <time>2016-07-09T06:00:34Z</time>
      </trkpt>
      <trkpt lat="45.850865514948964" lon="7.266474366188049">
        <ele>2520.23</ele>
        <time>2016-07-09T06:00:45Z</time>
      </trkpt>
      <trkpt lat="45.850927038118243" lon="7.266469337046146">
        <ele>2522.1599999999999</ele>
        <time>2016-07-09T06:00:57Z</time>
      </trkpt>
      <trkpt lat="45.850902730599046" lon="7.266431367024779">
        <ele>2523.1199999999999</ele>
        <time>2016-07-09T06:01:08Z</time>
      </trkpt>
      <trkpt lat="45.850872723385692" lon="7.266367832198739">
        <ele>2524.0799999999999</ele>
        <time>2016-07-09T06:01:18Z</time>
      </trkpt>
      <trkpt lat="45.850862748920918" lon="7.266338411718607">
        <ele>2526</ele>
        <time>2016-07-09T06:01:28Z</time>
      </trkpt>
      <trkpt lat="45.850850427523255" lon="7.266325587406755">
        <ele>2527.4400000000001</ele>
        <time>2016-07-09T06:01:38Z</time>
      </trkpt>
      <trkpt lat="45.850829724222422" lon="7.266293149441481">
        <ele>2529.3699999999999</ele>
        <time>2016-07-09T06:01:49Z</time>
      </trkpt>
      <trkpt lat="45.850822096690536" lon="7.266256101429462">
        <ele>2530.8099999999999</ele>
        <time>2016-07-09T06:02:00Z</time>
      </trkpt>
      <trkpt lat="45.850897114723921" lon="7.266215281561017">
        <ele>2533.6900000000001</ele>
        <time>2016-07-09T06:02:14Z</time>
      </trkpt>
      <trkpt lat="45.850923014804721" lon="7.266202038154006">
        <ele>2533.21</ele>
        <time>2016-07-09T06:02:26Z</time>
      </trkpt>
      <trkpt lat="45.850918488577008" lon="7.266204217448831">
        <ele>2533.21</ele>
        <time>2016-07-09T06:02:44Z</time>
      </trkpt>
      <trkpt lat="45.850968863815069" lon="7.266201702877879">
        <ele>2534.1700000000001</ele>
        <time>2016-07-09T06:02:55Z</time>
      </trkpt>
      <trkpt lat="45.850969702005386" lon="7.266166247427464">
        <ele>2535.6100000000001</ele>
        <time>2016-07-09T06:03:07Z</time>
      </trkpt>
      <trkpt lat="45.850940532982349" lon="7.266142861917615">
        <ele>2537.54</ele>
        <time>2016-07-09T06:03:19Z</time>
      </trkpt>
      <trkpt lat="45.850936425849795" lon="7.266078991815448">
        <ele>2539.46</ele>
        <time>2016-07-09T06:03:30Z</time>
      </trkpt>
      <trkpt lat="45.850964169949293" lon="7.266070861369371">
        <ele>2540.4200000000001</ele>
        <time>2016-07-09T06:03:33Z</time>
      </trkpt>
      <trkpt lat="45.85106416605413" lon="7.266032556071878">
        <ele>2542.3400000000001</ele>
        <time>2016-07-09T06:03:47Z</time>
      </trkpt>
      <trkpt lat="45.851030722260475" lon="7.266027694568038">
        <ele>2543.79</ele>
        <time>2016-07-09T06:03:57Z</time>
      </trkpt>
      <trkpt lat="45.850994260981679" lon="7.265993328765035">
        <ele>2545.23</ele>
        <time>2016-07-09T06:04:06Z</time>
      </trkpt>
      <trkpt lat="45.850950423628092" lon="7.265942199155688">
        <ele>2547.1500000000001</ele>
        <time>2016-07-09T06:04:18Z</time>
      </trkpt>
      <trkpt lat="45.850941287353635" lon="7.265914874151349">
        <ele>2548.1100000000001</ele>
        <time>2016-07-09T06:04:29Z</time>
      </trkpt>
      <trkpt lat="45.851004319265485" lon="7.265875730663538">
        <ele>2550.0300000000002</ele>
        <time>2016-07-09T06:04:38Z</time>
      </trkpt>
      <trkpt lat="45.851080678403378" lon="7.265842286869884">
        <ele>2551.48</ele>
        <time>2016-07-09T06:04:50Z</time>
      </trkpt>
      <trkpt lat="45.851115714758635" lon="7.265799958258867">
        <ele>2553.4000000000001</ele>
        <time>2016-07-09T06:05:02Z</time>
      </trkpt>
      <trkpt lat="45.851126359775662" lon="7.265737764537334">
        <ele>2555.3200000000002</ele>
        <time>2016-07-09T06:05:13Z</time>
      </trkpt>
      <trkpt lat="45.851163575425744" lon="7.265699626877904">
        <ele>2557.2399999999998</ele>
        <time>2016-07-09T06:05:23Z</time>
      </trkpt>
      <trkpt lat="45.851167682558298" lon="7.265670374035835">
        <ele>2558.21</ele>
        <time>2016-07-09T06:05:32Z</time>
      </trkpt>
      <trkpt lat="45.851157708093524" lon="7.265644893050194">
        <ele>2559.6500000000001</ele>
        <time>2016-07-09T06:05:40Z</time>
      </trkpt>
      <trkpt lat="45.851162653416395" lon="7.265596110373735">
        <ele>2560.6100000000001</ele>
        <time>2016-07-09T06:05:48Z</time>
      </trkpt>
      <trkpt lat="45.851168939843774" lon="7.265498712658882">
        <ele>2562.0500000000002</ele>
        <time>2016-07-09T06:05:57Z</time>
      </trkpt>
      <trkpt lat="45.851206323131919" lon="7.265459736809135">
        <ele>2562.5300000000002</ele>
        <time>2016-07-09T06:06:07Z</time>
      </trkpt>
      <trkpt lat="45.851229373365641" lon="7.265439201146364">
        <ele>2563.0100000000002</ele>
        <time>2016-07-09T06:06:18Z</time>
      </trkpt>
      <trkpt lat="45.851233899593353" lon="7.265403242781758">
        <ele>2563.9699999999998</ele>
        <time>2016-07-09T06:06:26Z</time>
      </trkpt>
      <trkpt lat="45.851202551275492" lon="7.265383880585432">
        <ele>2565.9000000000001</ele>
        <time>2016-07-09T06:06:37Z</time>
      </trkpt>
      <trkpt lat="45.851163910701871" lon="7.265290841460228">
        <ele>2566.8600000000001</ele>
        <time>2016-07-09T06:06:48Z</time>
      </trkpt>
      <trkpt lat="45.851158965379" lon="7.2652508597821">
        <ele>2567.3400000000001</ele>
        <time>2016-07-09T06:06:51Z</time>
      </trkpt>
      <trkpt lat="45.851138094440103" lon="7.265145583078265">
        <ele>2569.2600000000002</ele>
        <time>2016-07-09T06:07:05Z</time>
      </trkpt>
      <trkpt lat="45.851129880174994" lon="7.265067463740706">
        <ele>2570.6999999999998</ele>
        <time>2016-07-09T06:07:14Z</time>
      </trkpt>
      <trkpt lat="45.851134657859802" lon="7.264974005520344">
        <ele>2572.1399999999999</ele>
        <time>2016-07-09T06:07:25Z</time>
      </trkpt>
      <trkpt lat="45.851185452193022" lon="7.264899574220181">
        <ele>2574.0700000000002</ele>
        <time>2016-07-09T06:07:36Z</time>
      </trkpt>
      <trkpt lat="45.851258877664804" lon="7.264880212023854">
        <ele>2575.9899999999998</ele>
        <time>2016-07-09T06:07:49Z</time>
      </trkpt>
      <trkpt lat="45.851340852677822" lon="7.264916086569428">
        <ele>2577.9099999999999</ele>
        <time>2016-07-09T06:08:02Z</time>
      </trkpt>
      <trkpt lat="45.851355101913214" lon="7.264874931424856">
        <ele>2579.3499999999999</ele>
        <time>2016-07-09T06:08:12Z</time>
      </trkpt>
      <trkpt lat="45.85138619877398" lon="7.264846684411168">
        <ele>2581.2800000000002</ele>
        <time>2016-07-09T06:08:22Z</time>
      </trkpt>
      <trkpt lat="45.851420480757952" lon="7.264877948909998">
        <ele>2582.2399999999998</ele>
        <time>2016-07-09T06:08:32Z</time>
      </trkpt>
      <trkpt lat="45.851462222635746" lon="7.26487216539681">
        <ele>2583.6799999999998</ele>
        <time>2016-07-09T06:08:43Z</time>
      </trkpt>
      <trkpt lat="45.851498181000352" lon="7.264878284186125">
        <ele>2585.1199999999999</ele>
        <time>2016-07-09T06:08:54Z</time>
      </trkpt>
      <trkpt lat="45.851557524874806" lon="7.264895550906658">
        <ele>2586.5599999999999</ele>
        <time>2016-07-09T06:09:05Z</time>
      </trkpt>
      <trkpt lat="45.851589627563953" lon="7.264866717159748">
        <ele>2588.4899999999998</ele>
        <time>2016-07-09T06:09:15Z</time>
      </trkpt>
      <trkpt lat="45.851602954789996" lon="7.26487560197711">
        <ele>2588.9699999999998</ele>
        <time>2016-07-09T06:09:33Z</time>
      </trkpt>
      <trkpt lat="45.851622149348259" lon="7.264820700511336">
        <ele>2589.9299999999998</ele>
        <time>2016-07-09T06:09:45Z</time>
      </trkpt>
      <trkpt lat="45.851606139913201" lon="7.264741072431207">
        <ele>2591.8499999999999</ele>
        <time>2016-07-09T06:09:53Z</time>
      </trkpt>
      <trkpt lat="45.851558782160282" lon="7.264664294198155">
        <ele>2593.29</ele>
        <time>2016-07-09T06:10:04Z</time>
      </trkpt>
      <trkpt lat="45.851566744968295" lon="7.264582989737392">
        <ele>2595.6999999999998</ele>
        <time>2016-07-09T06:10:15Z</time>
      </trkpt>
      <trkpt lat="45.851569091901183" lon="7.264510905370116">
        <ele>2597.1399999999999</ele>
        <time>2016-07-09T06:10:25Z</time>
      </trkpt>
      <trkpt lat="45.851623071357608" lon="7.264446867629886">
        <ele>2599.54</ele>
        <time>2016-07-09T06:10:37Z</time>
      </trkpt>
      <trkpt lat="45.851638661697507" lon="7.264397079125047">
        <ele>2600.98</ele>
        <time>2016-07-09T06:10:48Z</time>
      </trkpt>
      <trkpt lat="45.851664310321212" lon="7.26432591676712">
        <ele>2602.9099999999999</ele>
        <time>2016-07-09T06:10:59Z</time>
      </trkpt>
      <trkpt lat="45.851712170988321" lon="7.264252826571465">
        <ele>2604.3499999999999</ele>
        <time>2016-07-09T06:11:11Z</time>
      </trkpt>
      <trkpt lat="45.851728683337569" lon="7.26420521736145">
        <ele>2605.79</ele>
        <time>2016-07-09T06:11:21Z</time>
      </trkpt>
      <trkpt lat="45.851726168766618" lon="7.26412164978683">
        <ele>2607.71</ele>
        <time>2016-07-09T06:11:33Z</time>
      </trkpt>
      <trkpt lat="45.851717032492161" lon="7.264056522399187">
        <ele>2609.6399999999999</ele>
        <time>2016-07-09T06:11:44Z</time>
      </trkpt>
      <trkpt lat="45.851768162101507" lon="7.264011846855283">
        <ele>2611.0799999999999</ele>
        <time>2016-07-09T06:11:55Z</time>
      </trkpt>
      <trkpt lat="45.851751733571291" lon="7.263967171311379">
        <ele>2613</ele>
        <time>2016-07-09T06:12:07Z</time>
      </trkpt>
      <trkpt lat="45.851721055805683" lon="7.263905145227909">
        <ele>2615.8800000000001</ele>
        <time>2016-07-09T06:12:19Z</time>
      </trkpt>
      <trkpt lat="45.851708902046084" lon="7.263859547674656">
        <ele>2615.8800000000001</ele>
        <time>2016-07-09T06:12:29Z</time>
      </trkpt>
      <trkpt lat="45.851708482950926" lon="7.263835575431585">
        <ele>2616.8499999999999</ele>
        <time>2016-07-09T06:12:40Z</time>
      </trkpt>
      <trkpt lat="45.851685684174299" lon="7.263767933472991">
        <ele>2618.29</ele>
        <time>2016-07-09T06:12:51Z</time>
      </trkpt>
      <trkpt lat="45.851657437160611" lon="7.26372828707099">
        <ele>2620.21</ele>
        <time>2016-07-09T06:13:01Z</time>
      </trkpt>
      <trkpt lat="45.851620975881815" lon="7.263653771951795">
        <ele>2622.1300000000001</ele>
        <time>2016-07-09T06:13:14Z</time>
      </trkpt>
      <trkpt lat="45.851575881242752" lon="7.263589901849628">
        <ele>2624.0599999999999</ele>
        <time>2016-07-09T06:13:27Z</time>
      </trkpt>
      <trkpt lat="45.851531373336911" lon="7.263571294024587">
        <ele>2625.98</ele>
        <time>2016-07-09T06:13:39Z</time>
      </trkpt>
      <trkpt lat="45.851514525711536" lon="7.26352795958519">
        <ele>2626.9400000000001</ele>
        <time>2016-07-09T06:13:54Z</time>
      </trkpt>
      <trkpt lat="45.851479154080153" lon="7.263471046462655">
        <ele>2628.8600000000001</ele>
        <time>2016-07-09T06:14:06Z</time>
      </trkpt>
      <trkpt lat="45.851461132988334" lon="7.263389574363828">
        <ele>2630.3000000000002</ele>
        <time>2016-07-09T06:14:17Z</time>
      </trkpt>
      <trkpt lat="45.851439004763961" lon="7.263331571593881">
        <ele>2631.27</ele>
        <time>2016-07-09T06:14:27Z</time>
      </trkpt>
      <trkpt lat="45.851434478536248" lon="7.263237945735455">
        <ele>2632.71</ele>
        <time>2016-07-09T06:14:39Z</time>
      </trkpt>
      <trkpt lat="45.851399442180991" lon="7.263157060369849">
        <ele>2634.1500000000001</ele>
        <time>2016-07-09T06:14:52Z</time>
      </trkpt>
      <trkpt lat="45.851363064721227" lon="7.263079024851322">
        <ele>2636.0700000000002</ele>
        <time>2016-07-09T06:15:05Z</time>
      </trkpt>
      <trkpt lat="45.851361807435751" lon="7.262994619086385">
        <ele>2637.0300000000002</ele>
        <time>2016-07-09T06:15:17Z</time>
      </trkpt>
      <trkpt lat="45.851332973688841" lon="7.262926222756505">
        <ele>2638.96</ele>
        <time>2016-07-09T06:15:28Z</time>
      </trkpt>
      <trkpt lat="45.851311180740595" lon="7.262885067611933">
        <ele>2640.4000000000001</ele>
        <time>2016-07-09T06:15:37Z</time>
      </trkpt>
      <trkpt lat="45.851283269003034" lon="7.262857239693403">
        <ele>2641.3600000000001</ele>
        <time>2016-07-09T06:15:46Z</time>
      </trkpt>
      <trkpt lat="45.851267511025071" lon="7.262752549722791">
        <ele>2642.8000000000002</ele>
        <time>2016-07-09T06:15:57Z</time>
      </trkpt>
      <trkpt lat="45.851226942613721" lon="7.2627192735672">
        <ele>2644.7199999999998</ele>
        <time>2016-07-09T06:16:09Z</time>
      </trkpt>
      <trkpt lat="45.851180590689182" lon="7.262699492275715">
        <ele>2647.1300000000001</ele>
        <time>2016-07-09T06:16:20Z</time>
      </trkpt>
      <trkpt lat="45.85114479996264" lon="7.262640399858356">
        <ele>2647.1300000000001</ele>
        <time>2016-07-09T06:16:31Z</time>
      </trkpt>
      <trkpt lat="45.851114960387349" lon="7.262582732364535">
        <ele>2648.5700000000002</ele>
        <time>2016-07-09T06:16:41Z</time>
      </trkpt>
      <trkpt lat="45.851063244044781" lon="7.262519951909781">
        <ele>2650.4899999999998</ele>
        <time>2016-07-09T06:16:54Z</time>
      </trkpt>
      <trkpt lat="45.851023094728589" lon="7.262457422912121">
        <ele>2651.4499999999998</ele>
        <time>2016-07-09T06:17:05Z</time>
      </trkpt>
      <trkpt lat="45.850988058373332" lon="7.262466978281736">
        <ele>2651.9299999999998</ele>
        <time>2016-07-09T06:17:17Z</time>
      </trkpt>
      <trkpt lat="45.850947070866823" lon="7.262417860329151">
        <ele>2653.8600000000001</ele>
        <time>2016-07-09T06:17:26Z</time>
      </trkpt>
      <trkpt lat="45.850913962349296" lon="7.262415932491422">
        <ele>2655.3000000000002</ele>
        <time>2016-07-09T06:17:36Z</time>
      </trkpt>
      <trkpt lat="45.850907089188695" lon="7.262380057945848">
        <ele>2657.2199999999998</ele>
        <time>2016-07-09T06:17:46Z</time>
      </trkpt>
      <trkpt lat="45.850864928215742" lon="7.262378549203277">
        <ele>2658.6599999999999</ele>
        <time>2016-07-09T06:17:55Z</time>
      </trkpt>
      <trkpt lat="45.850803907960653" lon="7.262364719063044">
        <ele>2660.1100000000001</ele>
        <time>2016-07-09T06:18:07Z</time>
      </trkpt>
      <trkpt lat="45.850761914625764" lon="7.262275367975235">
        <ele>2661.5500000000002</ele>
        <time>2016-07-09T06:18:20Z</time>
      </trkpt>
      <trkpt lat="45.850703828036785" lon="7.262205043807626">
        <ele>2663.9499999999998</ele>
        <time>2016-07-09T06:18:33Z</time>
      </trkpt>
      <trkpt lat="45.85063811391592" lon="7.262167911976576">
        <ele>2665.3899999999999</ele>
        <time>2016-07-09T06:18:45Z</time>
      </trkpt>
      <trkpt lat="45.850584721192718" lon="7.2621182911098">
        <ele>2665.8699999999999</ele>
        <time>2016-07-09T06:18:55Z</time>
      </trkpt>
      <trkpt lat="45.850568795576692" lon="7.262144023552537">
        <ele>2666.8299999999999</ele>
        <time>2016-07-09T06:19:04Z</time>
      </trkpt>
      <trkpt lat="45.850510122254491" lon="7.262151902541518">
        <ele>2668.2800000000002</ele>
        <time>2016-07-09T06:19:14Z</time>
      </trkpt>
      <trkpt lat="45.850435355678201" lon="7.262182412669063">
        <ele>2669.2399999999998</ele>
        <time>2016-07-09T06:19:27Z</time>
      </trkpt>
      <trkpt lat="45.850435439497232" lon="7.262188950553536">
        <ele>2669.2399999999998</ele>
        <time>2016-07-09T06:19:28Z</time>
      </trkpt>
      <trkpt lat="45.850386656820774" lon="7.262294143438339">
        <ele>2671.1599999999999</ele>
        <time>2016-07-09T06:19:41Z</time>
      </trkpt>
      <trkpt lat="45.850333347916603" lon="7.26236111484468">
        <ele>2673.0799999999999</ele>
        <time>2016-07-09T06:19:53Z</time>
      </trkpt>
      <trkpt lat="45.850259587168694" lon="7.262422554194927">
        <ele>2674.52</ele>
        <time>2016-07-09T06:20:05Z</time>
      </trkpt>
      <trkpt lat="45.850176522508264" lon="7.262420793995261">
        <ele>2676.4499999999998</ele>
        <time>2016-07-09T06:20:18Z</time>
      </trkpt>
      <trkpt lat="45.850120950490236" lon="7.262300010770559">
        <ele>2677.8899999999999</ele>
        <time>2016-07-09T06:20:30Z</time>
      </trkpt>
      <trkpt lat="45.850062444806099" lon="7.262256341055036">
        <ele>2679.3299999999999</ele>
        <time>2016-07-09T06:20:43Z</time>
      </trkpt>
      <trkpt lat="45.849999077618122" lon="7.262217197567225">
        <ele>2681.25</ele>
        <time>2016-07-09T06:20:54Z</time>
      </trkpt>
      <trkpt lat="45.849943337962031" lon="7.262131199240685">
        <ele>2683.1799999999998</ele>
        <time>2016-07-09T06:21:07Z</time>
      </trkpt>
      <trkpt lat="45.849914168938994" lon="7.262087278068066">
        <ele>2685.0999999999999</ele>
        <time>2016-07-09T06:21:19Z</time>
      </trkpt>
      <trkpt lat="45.849893046543002" lon="7.262045284733176">
        <ele>2685.5799999999999</ele>
        <time>2016-07-09T06:21:35Z</time>
      </trkpt>
      <trkpt lat="45.849883910268545" lon="7.262011002749205">
        <ele>2686.54</ele>
        <time>2016-07-09T06:21:39Z</time>
      </trkpt>
      <trkpt lat="45.849819118157029" lon="7.261945540085435">
        <ele>2687.98</ele>
        <time>2016-07-09T06:21:50Z</time>
      </trkpt>
      <trkpt lat="45.849795481190085" lon="7.261847304180265">
        <ele>2689.9099999999999</ele>
        <time>2016-07-09T06:22:01Z</time>
      </trkpt>
      <trkpt lat="45.84975466132164" lon="7.261757450178266">
        <ele>2692.3099999999999</ele>
        <time>2016-07-09T06:22:13Z</time>
      </trkpt>
      <trkpt lat="45.849724737927318" lon="7.261637169867754">
        <ele>2694.23</ele>
        <time>2016-07-09T06:22:27Z</time>
      </trkpt>
      <trkpt lat="45.849701436236501" lon="7.261547315865755">
        <ele>2695.1900000000001</ele>
        <time>2016-07-09T06:22:38Z</time>
      </trkpt>
      <trkpt lat="45.849705543369055" lon="7.26151579990983">
        <ele>2695.6700000000001</ele>
        <time>2016-07-09T06:22:46Z</time>
      </trkpt>
      <trkpt lat="45.849704705178738" lon="7.261529294773936">
        <ele>2695.1900000000001</ele>
        <time>2016-07-09T06:22:50Z</time>
      </trkpt>
      <trkpt lat="45.849732784554362" lon="7.261527702212334">
        <ele>2694.23</ele>
        <time>2016-07-09T06:23:00Z</time>
      </trkpt>
      <trkpt lat="45.849730018526316" lon="7.261515045538545">
        <ele>2694.71</ele>
        <time>2016-07-09T06:23:25Z</time>
      </trkpt>
      <trkpt lat="45.84973462857306" lon="7.26153876632452">
        <ele>2694.71</ele>
        <time>2016-07-09T06:23:58Z</time>
      </trkpt>
      <trkpt lat="45.849749213084579" lon="7.261527366936207">
        <ele>2694.71</ele>
        <time>2016-07-09T06:24:21Z</time>
      </trkpt>
      <trkpt lat="45.849731862545013" lon="7.261533737182617">
        <ele>2695.1900000000001</ele>
        <time>2016-07-09T06:24:46Z</time>
      </trkpt>
      <trkpt lat="45.849736053496599" lon="7.261517643928528">
        <ele>2695.1900000000001</ele>
        <time>2016-07-09T06:25:09Z</time>
      </trkpt>
      <trkpt lat="45.849742339923978" lon="7.261530049145222">
        <ele>2695.6700000000001</ele>
        <time>2016-07-09T06:25:37Z</time>
      </trkpt>
      <trkpt lat="45.849744938313961" lon="7.261527115479112">
        <ele>2696.1500000000001</ele>
        <time>2016-07-09T06:26:11Z</time>
      </trkpt>
      <trkpt lat="45.849753739312291" lon="7.261548237875104">
        <ele>2696.1500000000001</ele>
        <time>2016-07-09T06:26:40Z</time>
      </trkpt>
      <trkpt lat="45.849755499511957" lon="7.261540107429028">
        <ele>2696.1500000000001</ele>
        <time>2016-07-09T06:27:09Z</time>
      </trkpt>
      <trkpt lat="45.849745525047183" lon="7.261520577594638">
        <ele>2696.1500000000001</ele>
        <time>2016-07-09T06:27:43Z</time>
      </trkpt>
      <trkpt lat="45.84974049590528" lon="7.261520409956574">
        <ele>2696.1500000000001</ele>
        <time>2016-07-09T06:28:10Z</time>
      </trkpt>
      <trkpt lat="45.849749967455864" lon="7.26152409799397">
        <ele>2696.6399999999999</ele>
        <time>2016-07-09T06:28:34Z</time>
      </trkpt>
      <trkpt lat="45.849738484248519" lon="7.261530971154571">
        <ele>2696.6399999999999</ele>
        <time>2016-07-09T06:29:04Z</time>
      </trkpt>
      <trkpt lat="45.849752901121974" lon="7.261536167934537">
        <ele>2697.1199999999999</ele>
        <time>2016-07-09T06:29:34Z</time>
      </trkpt>
      <trkpt lat="45.849748961627483" lon="7.261523343622685">
        <ele>2697.1199999999999</ele>
        <time>2016-07-09T06:30:10Z</time>
      </trkpt>
      <trkpt lat="45.849746447056532" lon="7.26153482683003">
        <ele>2697.5999999999999</ele>
        <time>2016-07-09T06:30:44Z</time>
      </trkpt>
      <trkpt lat="45.849761785939336" lon="7.26151630282402">
        <ele>2697.5999999999999</ele>
        <time>2016-07-09T06:31:08Z</time>
      </trkpt>
      <trkpt lat="45.849755415692925" lon="7.261522421613336">
        <ele>2697.5999999999999</ele>
        <time>2016-07-09T06:31:33Z</time>
      </trkpt>
      <trkpt lat="45.849765725433826" lon="7.261525942012668">
        <ele>2697.5999999999999</ele>
        <time>2016-07-09T06:31:59Z</time>
      </trkpt>
      <trkpt lat="45.849763210862875" lon="7.261524517089129">
        <ele>2697.5999999999999</ele>
        <time>2016-07-09T06:32:21Z</time>
      </trkpt>
      <trkpt lat="45.849767904728651" lon="7.26152703166008">
        <ele>2697.5999999999999</ele>
        <time>2016-07-09T06:32:43Z</time>
      </trkpt>
      <trkpt lat="45.849762540310621" lon="7.261518146842718">
        <ele>2698.0799999999999</ele>
        <time>2016-07-09T06:32:53Z</time>
      </trkpt>
      <trkpt lat="45.849758600816131" lon="7.261540442705154">
        <ele>2699.04</ele>
        <time>2016-07-09T06:33:02Z</time>
      </trkpt>
      <trkpt lat="45.84974586032331" lon="7.261544214561582">
        <ele>2699.04</ele>
        <time>2016-07-09T06:33:13Z</time>
      </trkpt>
      <trkpt lat="45.849733371287584" lon="7.261503394693136">
        <ele>2699.52</ele>
        <time>2016-07-09T06:33:25Z</time>
      </trkpt>
      <trkpt lat="45.849763713777065" lon="7.261389316990972">
        <ele>2700</ele>
        <time>2016-07-09T06:33:37Z</time>
      </trkpt>
      <trkpt lat="45.849763127043843" lon="7.261376744136214">
        <ele>2700</ele>
        <time>2016-07-09T06:33:38Z</time>
      </trkpt>
      <trkpt lat="45.849789446219802" lon="7.261263588443399">
        <ele>2700.48</ele>
        <time>2016-07-09T06:33:49Z</time>
      </trkpt>
      <trkpt lat="45.849793720990419" lon="7.261177590116859">
        <ele>2700</ele>
        <time>2016-07-09T06:33:59Z</time>
      </trkpt>
      <trkpt lat="45.849805539473891" lon="7.261064099147916">
        <ele>2699.52</ele>
        <time>2016-07-09T06:34:08Z</time>
      </trkpt>
      <trkpt lat="45.849810736253858" lon="7.261013807728887">
        <ele>2699.52</ele>
        <time>2016-07-09T06:34:12Z</time>
      </trkpt>
      <trkpt lat="45.849824566394091" lon="7.260887073352933">
        <ele>2700</ele>
        <time>2016-07-09T06:34:22Z</time>
      </trkpt>
      <trkpt lat="45.849834624677896" lon="7.260791184380651">
        <ele>2700.96</ele>
        <time>2016-07-09T06:34:31Z</time>
      </trkpt>
      <trkpt lat="45.849837642163038" lon="7.260677190497518">
        <ele>2702.4000000000001</ele>
        <time>2016-07-09T06:34:41Z</time>
      </trkpt>
      <trkpt lat="45.849840408191085" lon="7.260576440021396">
        <ele>2703.8499999999999</ele>
        <time>2016-07-09T06:34:52Z</time>
      </trkpt>
      <trkpt lat="45.849873768165708" lon="7.260489352047443">
        <ele>2705.29</ele>
        <time>2016-07-09T06:35:02Z</time>
      </trkpt>
      <trkpt lat="45.849912911653519" lon="7.26041248999536">
        <ele>2706.73</ele>
        <time>2016-07-09T06:35:13Z</time>
      </trkpt>
      <trkpt lat="45.849908301606774" lon="7.260320289060473">
        <ele>2708.6500000000001</ele>
        <time>2016-07-09T06:35:24Z</time>
      </trkpt>
      <trkpt lat="45.84989002905786" lon="7.260250467807055">
        <ele>2710.0900000000001</ele>
        <time>2016-07-09T06:35:33Z</time>
      </trkpt>
      <trkpt lat="45.849884580820799" lon="7.260237643495202">
        <ele>2710.0900000000001</ele>
        <time>2016-07-09T06:35:34Z</time>
      </trkpt>
      <trkpt lat="45.849879551678896" lon="7.26017645560205">
        <ele>2711.0599999999999</ele>
        <time>2016-07-09T06:35:40Z</time>
      </trkpt>
      <trkpt lat="45.849890364333987" lon="7.260137479752302">
        <ele>2711.54</ele>
        <time>2016-07-09T06:35:43Z</time>
      </trkpt>
      <trkpt lat="45.849916348233819" lon="7.260078219696879">
        <ele>2711.54</ele>
        <time>2016-07-09T06:35:49Z</time>
      </trkpt>
      <trkpt lat="45.849958509206772" lon="7.259956849738956">
        <ele>2712.02</ele>
        <time>2016-07-09T06:36:00Z</time>
      </trkpt>
      <trkpt lat="45.849990528076887" lon="7.259853417053819">
        <ele>2712.02</ele>
        <time>2016-07-09T06:36:09Z</time>
      </trkpt>
      <trkpt lat="45.850036712363362" lon="7.259788457304239">
        <ele>2712.98</ele>
        <time>2016-07-09T06:36:17Z</time>
      </trkpt>
      <trkpt lat="45.850054062902927" lon="7.259732633829117">
        <ele>2713.46</ele>
        <time>2016-07-09T06:36:22Z</time>
      </trkpt>
      <trkpt lat="45.850094882771373" lon="7.259648982435465">
        <ele>2713.46</ele>
        <time>2016-07-09T06:36:30Z</time>
      </trkpt>
      <trkpt lat="45.850123800337315" lon="7.25956273265183">
        <ele>2713.9400000000001</ele>
        <time>2016-07-09T06:36:38Z</time>
      </trkpt>
      <trkpt lat="45.850134361535311" lon="7.259527528658509">
        <ele>2714.9000000000001</ele>
        <time>2016-07-09T06:36:41Z</time>
      </trkpt>
      <trkpt lat="45.850179204717278" lon="7.259496096521616">
        <ele>2714.9000000000001</ele>
        <time>2016-07-09T06:36:51Z</time>
      </trkpt>
      <trkpt lat="45.850171325728297" lon="7.259492492303252">
        <ele>2714.9000000000001</ele>
        <time>2016-07-09T06:37:17Z</time>
      </trkpt>
      <trkpt lat="45.850170319899917" lon="7.259485116228461">
        <ele>2715.3800000000001</ele>
        <time>2016-07-09T06:37:29Z</time>
      </trkpt>
      <trkpt lat="45.850159171968699" lon="7.259414624422789">
        <ele>2716.8200000000002</ele>
        <time>2016-07-09T06:37:39Z</time>
      </trkpt>
      <trkpt lat="45.850154478102922" lon="7.259401800110936">
        <ele>2716.8200000000002</ele>
        <time>2016-07-09T06:37:49Z</time>
      </trkpt>
      <trkpt lat="45.850146096199751" lon="7.259392496198416">
        <ele>2717.3000000000002</ele>
        <time>2016-07-09T06:37:57Z</time>
      </trkpt>
      <trkpt lat="45.850154226645827" lon="7.259386880323291">
        <ele>2717.3000000000002</ele>
        <time>2016-07-09T06:38:20Z</time>
      </trkpt>
      <trkpt lat="45.850174091756344" lon="7.25939660333097">
        <ele>2717.3000000000002</ele>
        <time>2016-07-09T06:38:32Z</time>
      </trkpt>
      <trkpt lat="45.85017392411828" lon="7.259400878101587">
        <ele>2716.8200000000002</ele>
        <time>2016-07-09T06:38:46Z</time>
      </trkpt>
      <trkpt lat="45.850169900804758" lon="7.259395178407431">
        <ele>2717.3000000000002</ele>
        <time>2016-07-09T06:38:56Z</time>
      </trkpt>
      <trkpt lat="45.850177109241486" lon="7.259388137608767">
        <ele>2716.8200000000002</ele>
        <time>2016-07-09T06:39:09Z</time>
      </trkpt>
      <trkpt lat="45.85019638761878" lon="7.259404063224793">
        <ele>2716.8200000000002</ele>
        <time>2016-07-09T06:39:26Z</time>
      </trkpt>
      <trkpt lat="45.850185574963689" lon="7.25942057557404">
        <ele>2716.8200000000002</ele>
        <time>2016-07-09T06:39:28Z</time>
      </trkpt>
      <trkpt lat="45.85013092495501" lon="7.259460976347327">
        <ele>2717.3000000000002</ele>
        <time>2016-07-09T06:39:34Z</time>
      </trkpt>
      <trkpt lat="45.850034952163696" lon="7.259460305795074">
        <ele>2718.27</ele>
        <time>2016-07-09T06:39:43Z</time>
      </trkpt>
      <trkpt lat="45.850039897486567" lon="7.259468520060182">
        <ele>2718.27</ele>
        <time>2016-07-09T06:39:51Z</time>
      </trkpt>
      <trkpt lat="45.850012321025133" lon="7.259538592770696">
        <ele>2718.75</ele>
        <time>2016-07-09T06:39:59Z</time>
      </trkpt>
      <trkpt lat="45.849981224164367" lon="7.259512357413769">
        <ele>2718.75</ele>
        <time>2016-07-09T06:40:08Z</time>
      </trkpt>
      <trkpt lat="45.849977117031813" lon="7.259496934711933">
        <ele>2719.23</ele>
        <time>2016-07-09T06:40:19Z</time>
      </trkpt>
      <trkpt lat="45.850014081224799" lon="7.25950607098639">
        <ele>2718.27</ele>
        <time>2016-07-09T06:40:32Z</time>
      </trkpt>
      <trkpt lat="45.850061355158687" lon="7.259453181177378">
        <ele>2718.27</ele>
        <time>2016-07-09T06:40:45Z</time>
      </trkpt>
      <trkpt lat="45.850157998502254" lon="7.259413953870535">
        <ele>2717.3000000000002</ele>
        <time>2016-07-09T06:40:58Z</time>
      </trkpt>
      <trkpt lat="45.850167134776711" lon="7.259408254176378">
        <ele>2717.3000000000002</ele>
        <time>2016-07-09T06:41:14Z</time>
      </trkpt>
      <trkpt lat="45.850163698196411" lon="7.259386461228132">
        <ele>2717.3000000000002</ele>
        <time>2016-07-09T06:41:26Z</time>
      </trkpt>
      <trkpt lat="45.850154394283891" lon="7.259405655786395">
        <ele>2717.3000000000002</ele>
        <time>2016-07-09T06:41:48Z</time>
      </trkpt>
      <trkpt lat="45.850173337385058" lon="7.25942057557404">
        <ele>2717.3000000000002</ele>
        <time>2016-07-09T06:42:00Z</time>
      </trkpt>
      <trkpt lat="45.850190101191401" lon="7.259408254176378">
        <ele>2717.3000000000002</ele>
        <time>2016-07-09T06:42:18Z</time>
      </trkpt>
      <trkpt lat="45.850187670439482" lon="7.259389730170369">
        <ele>2717.7800000000002</ele>
        <time>2016-07-09T06:42:34Z</time>
      </trkpt>
      <trkpt lat="45.850183395668864" lon="7.259374307468534">
        <ele>2717.3000000000002</ele>
        <time>2016-07-09T06:42:49Z</time>
      </trkpt>
      <trkpt lat="45.850172331556678" lon="7.259396938607097">
        <ele>2717.7800000000002</ele>
        <time>2016-07-09T06:43:12Z</time>
      </trkpt>
      <trkpt lat="45.850170571357012" lon="7.259394340217114">
        <ele>2717.3000000000002</ele>
        <time>2016-07-09T06:43:28Z</time>
      </trkpt>
      <trkpt lat="45.850160429254174" lon="7.259399285539985">
        <ele>2718.27</ele>
        <time>2016-07-09T06:43:48Z</time>
      </trkpt>
      <trkpt lat="45.850147437304258" lon="7.259400375187397">
        <ele>2717.7800000000002</ele>
        <time>2016-07-09T06:44:01Z</time>
      </trkpt>
      <trkpt lat="45.850147604942322" lon="7.259394843131304">
        <ele>2717.7800000000002</ele>
        <time>2016-07-09T06:44:16Z</time>
      </trkpt>
      <trkpt lat="45.850155986845493" lon="7.25938780233264">
        <ele>2717.7800000000002</ele>
        <time>2016-07-09T06:44:36Z</time>
      </trkpt>
      <trkpt lat="45.850167386233807" lon="7.259396687150002">
        <ele>2717.7800000000002</ele>
        <time>2016-07-09T06:44:49Z</time>
      </trkpt>
      <trkpt lat="45.850150706246495" lon="7.259407918900251">
        <ele>2717.7800000000002</ele>
        <time>2016-07-09T06:45:02Z</time>
      </trkpt>
      <trkpt lat="45.850140396505594" lon="7.259374894201756">
        <ele>2717.7800000000002</ele>
        <time>2016-07-09T06:45:17Z</time>
      </trkpt>
      <trkpt lat="45.850151544436812" lon="7.259316723793745">
        <ele>2717.7800000000002</ele>
        <time>2016-07-09T06:45:32Z</time>
      </trkpt>
      <trkpt lat="45.850157663226128" lon="7.259298115968704">
        <ele>2717.3000000000002</ele>
        <time>2016-07-09T06:45:34Z</time>
      </trkpt>
      <trkpt lat="45.850226227194071" lon="7.259094938635826">
        <ele>2714.9000000000001</ele>
        <time>2016-07-09T06:45:47Z</time>
      </trkpt>
      <trkpt lat="45.850231004878879" lon="7.258955212309957">
        <ele>2712.98</ele>
        <time>2016-07-09T06:45:56Z</time>
      </trkpt>
      <trkpt lat="45.850249696522951" lon="7.25891288369894">
        <ele>2712.98</ele>
        <time>2016-07-09T06:45:59Z</time>
      </trkpt>
      <trkpt lat="45.850271908566356" lon="7.25872035138309">
        <ele>2712.5</ele>
        <time>2016-07-09T06:46:12Z</time>
      </trkpt>
      <trkpt lat="45.85028531961143" lon="7.258519940078259">
        <ele>2711.0599999999999</ele>
        <time>2016-07-09T06:46:25Z</time>
      </trkpt>
      <trkpt lat="45.850278362631798" lon="7.258493872359395">
        <ele>2711.0599999999999</ele>
        <time>2016-07-09T06:46:27Z</time>
      </trkpt>
      <trkpt lat="45.850254390388727" lon="7.25829379633069">
        <ele>2710.5700000000002</ele>
        <time>2016-07-09T06:46:40Z</time>
      </trkpt>
      <trkpt lat="45.850251708179712" lon="7.258107047528029">
        <ele>2710.0900000000001</ele>
        <time>2016-07-09T06:46:52Z</time>
      </trkpt>
      <trkpt lat="45.850232513621449" lon="7.258105287328363">
        <ele>2709.1300000000001</ele>
        <time>2016-07-09T06:46:54Z</time>
      </trkpt>
      <trkpt lat="45.850216085091233" lon="7.258112914860249">
        <ele>2709.1300000000001</ele>
        <time>2016-07-09T06:46:56Z</time>
      </trkpt>
      <trkpt lat="45.850190436467528" lon="7.258222214877605">
        <ele>2706.73</ele>
        <time>2016-07-09T06:47:06Z</time>
      </trkpt>
      <trkpt lat="45.850182641297579" lon="7.258286084979773">
        <ele>2705.77</ele>
        <time>2016-07-09T06:47:11Z</time>
      </trkpt>
      <trkpt lat="45.850123381242156" lon="7.258402677252889">
        <ele>2704.3299999999999</ele>
        <time>2016-07-09T06:47:22Z</time>
      </trkpt>
      <trkpt lat="45.850086081773043" lon="7.258529495447874">
        <ele>2702.4000000000001</ele>
        <time>2016-07-09T06:47:33Z</time>
      </trkpt>
      <trkpt lat="45.85007032379508" lon="7.258602669462562">
        <ele>2701.4400000000001</ele>
        <time>2016-07-09T06:47:38Z</time>
      </trkpt>
      <trkpt lat="45.850067222490907" lon="7.258661678060889">
        <ele>2700.48</ele>
        <time>2016-07-09T06:47:42Z</time>
      </trkpt>
      <trkpt lat="45.850052637979388" lon="7.258705515414476">
        <ele>2700.48</ele>
        <time>2016-07-09T06:47:45Z</time>
      </trkpt>
      <trkpt lat="45.849946774542332" lon="7.258860664442182">
        <ele>2697.5999999999999</ele>
        <time>2016-07-09T06:48:00Z</time>
      </trkpt>
      <trkpt lat="45.849853651598096" lon="7.258962756022811">
        <ele>2695.6700000000001</ele>
        <time>2016-07-09T06:48:11Z</time>
      </trkpt>
      <trkpt lat="45.849833199754357" lon="7.25897834636271">
        <ele>2695.1900000000001</ele>
        <time>2016-07-09T06:48:13Z</time>
      </trkpt>
      <trkpt lat="45.849725743755698" lon="7.258981950581074">
        <ele>2692.3099999999999</ele>
        <time>2016-07-09T06:48:24Z</time>
      </trkpt>
      <trkpt lat="45.849673692137003" lon="7.258957223966718">
        <ele>2690.8699999999999</ele>
        <time>2016-07-09T06:48:30Z</time>
      </trkpt>
      <trkpt lat="45.84964519366622" lon="7.258910452947021">
        <ele>2690.3899999999999</ele>
        <time>2016-07-09T06:48:34Z</time>
      </trkpt>
      <trkpt lat="45.849630357697606" lon="7.25888111628592">
        <ele>2688.46</ele>
        <time>2016-07-09T06:48:38Z</time>
      </trkpt>
      <trkpt lat="45.84952306933701" lon="7.258920427411795">
        <ele>2685.0999999999999</ele>
        <time>2016-07-09T06:48:49Z</time>
      </trkpt>
      <trkpt lat="45.849507730454206" lon="7.258846666663885">
        <ele>2683.6599999999999</ele>
        <time>2016-07-09T06:48:54Z</time>
      </trkpt>
      <trkpt lat="45.849532205611467" lon="7.258794363588095">
        <ele>2683.1799999999998</ele>
        <time>2016-07-09T06:48:58Z</time>
      </trkpt>
      <trkpt lat="45.849550729617476" lon="7.258726302534342">
        <ele>2681.73</ele>
        <time>2016-07-09T06:49:03Z</time>
      </trkpt>
      <trkpt lat="45.849592303857207" lon="7.258643321692944">
        <ele>2681.25</ele>
        <time>2016-07-09T06:49:12Z</time>
      </trkpt>
      <trkpt lat="45.849593309685588" lon="7.258616415783763">
        <ele>2680.77</ele>
        <time>2016-07-09T06:49:14Z</time>
      </trkpt>
      <trkpt lat="45.849603703245521" lon="7.258500996977091">
        <ele>2677.8899999999999</ele>
        <time>2016-07-09T06:49:26Z</time>
      </trkpt>
      <trkpt lat="45.849623903632164" lon="7.258431343361735">
        <ele>2675.9699999999998</ele>
        <time>2016-07-09T06:49:34Z</time>
      </trkpt>
      <trkpt lat="45.849601859226823" lon="7.258360935375094">
        <ele>2675.4899999999998</ele>
        <time>2016-07-09T06:49:39Z</time>
      </trkpt>
      <trkpt lat="45.849607391282916" lon="7.258294802159071">
        <ele>2675.0100000000002</ele>
        <time>2016-07-09T06:49:43Z</time>
      </trkpt>
      <trkpt lat="45.849612839519978" lon="7.258107298985124">
        <ele>2672.5999999999999</ele>
        <time>2016-07-09T06:49:56Z</time>
      </trkpt>
      <trkpt lat="45.849574534222484" lon="7.25803529843688">
        <ele>2669.7199999999998</ele>
        <time>2016-07-09T06:50:06Z</time>
      </trkpt>
      <trkpt lat="45.849503790959716" lon="7.258145269006491">
        <ele>2666.3499999999999</ele>
        <time>2016-07-09T06:50:17Z</time>
      </trkpt>
      <trkpt lat="45.849447464570403" lon="7.25825322791934">
        <ele>2662.9899999999998</ele>
        <time>2016-07-09T06:50:29Z</time>
      </trkpt>
      <trkpt lat="45.849395915865898" lon="7.258289773017168">
        <ele>2662.0300000000002</ele>
        <time>2016-07-09T06:50:36Z</time>
      </trkpt>
      <trkpt lat="45.84934763610363" lon="7.258317098021507">
        <ele>2660.5900000000001</ele>
        <time>2016-07-09T06:50:46Z</time>
      </trkpt>
      <trkpt lat="45.84931100718677" lon="7.258364036679268">
        <ele>2659.1399999999999</ele>
        <time>2016-07-09T06:50:53Z</time>
      </trkpt>
      <trkpt lat="45.84927630610764" lon="7.258427487686276">
        <ele>2658.1799999999998</ele>
        <time>2016-07-09T06:51:00Z</time>
      </trkpt>
      <trkpt lat="45.84916340187192" lon="7.258535698056221">
        <ele>2654.8200000000002</ele>
        <time>2016-07-09T06:51:15Z</time>
      </trkpt>
      <trkpt lat="45.849147476255894" lon="7.258542403578758">
        <ele>2654.8200000000002</ele>
        <time>2016-07-09T06:51:17Z</time>
      </trkpt>
      <trkpt lat="45.849075810983777" lon="7.258517341688275">
        <ele>2653.8600000000001</ele>
        <time>2016-07-09T06:51:27Z</time>
      </trkpt>
      <trkpt lat="45.849102297797799" lon="7.258417094126344">
        <ele>2651.4499999999998</ele>
        <time>2016-07-09T06:51:33Z</time>
      </trkpt>
      <trkpt lat="45.849098190665245" lon="7.258364371955395">
        <ele>2650.0100000000002</ele>
        <time>2016-07-09T06:51:37Z</time>
      </trkpt>
      <trkpt lat="45.849102046340704" lon="7.258197488263249">
        <ele>2646.6500000000001</ele>
        <time>2016-07-09T06:51:48Z</time>
      </trkpt>
      <trkpt lat="45.849092658609152" lon="7.258079303428531">
        <ele>2643.7600000000002</ele>
        <time>2016-07-09T06:52:00Z</time>
      </trkpt>
      <trkpt lat="45.849021160975099" lon="7.258215928450227">
        <ele>2641.3600000000001</ele>
        <time>2016-07-09T06:52:12Z</time>
      </trkpt>
      <trkpt lat="45.848921248689294" lon="7.258305950090289">
        <ele>2640.4000000000001</ele>
        <time>2016-07-09T06:52:23Z</time>
      </trkpt>
      <trkpt lat="45.848806751891971" lon="7.258401168510318">
        <ele>2637.5100000000002</ele>
        <time>2016-07-09T06:52:35Z</time>
      </trkpt>
      <trkpt lat="45.848735421895981" lon="7.258455315604806">
        <ele>2634.1500000000001</ele>
        <time>2016-07-09T06:52:42Z</time>
      </trkpt>
      <trkpt lat="45.848637605085969" lon="7.258503846824169">
        <ele>2631.75</ele>
        <time>2016-07-09T06:52:54Z</time>
      </trkpt>
      <trkpt lat="45.84858002141118" lon="7.258514994755387">
        <ele>2630.3000000000002</ele>
        <time>2016-07-09T06:53:00Z</time>
      </trkpt>
      <trkpt lat="45.848443983122706" lon="7.258568722754717">
        <ele>2627.4200000000001</ele>
        <time>2016-07-09T06:53:15Z</time>
      </trkpt>
      <trkpt lat="45.84834985435009" lon="7.258602669462562">
        <ele>2625.02</ele>
        <time>2016-07-09T06:53:25Z</time>
      </trkpt>
      <trkpt lat="45.848310543224216" lon="7.25862848572433">
        <ele>2624.0599999999999</ele>
        <time>2016-07-09T06:53:30Z</time>
      </trkpt>
      <trkpt lat="45.848275674507022" lon="7.258650697767735">
        <ele>2623.0900000000001</ele>
        <time>2016-07-09T06:53:34Z</time>
      </trkpt>
      <trkpt lat="45.848277937620878" lon="7.258579200133681">
        <ele>2622.1300000000001</ele>
        <time>2016-07-09T06:53:37Z</time>
      </trkpt>
      <trkpt lat="45.848325211554766" lon="7.258447771891952">
        <ele>2619.73</ele>
        <time>2016-07-09T06:53:48Z</time>
      </trkpt>
      <trkpt lat="45.848359242081642" lon="7.258334197103977">
        <ele>2616.3699999999999</ele>
        <time>2016-07-09T06:53:59Z</time>
      </trkpt>
      <trkpt lat="45.848410287871957" lon="7.258194722235203">
        <ele>2613.48</ele>
        <time>2016-07-09T06:54:10Z</time>
      </trkpt>
      <trkpt lat="45.848459405824542" lon="7.25807880051434">
        <ele>2611.0799999999999</ele>
        <time>2016-07-09T06:54:20Z</time>
      </trkpt>
      <trkpt lat="45.84851891733706" lon="7.257943684235215">
        <ele>2607.71</ele>
        <time>2016-07-09T06:54:32Z</time>
      </trkpt>
      <trkpt lat="45.848520174622536" lon="7.257869001477957">
        <ele>2605.79</ele>
        <time>2016-07-09T06:54:42Z</time>
      </trkpt>
      <trkpt lat="45.848449263721704" lon="7.257874784991145">
        <ele>2602.9099999999999</ele>
        <time>2016-07-09T06:54:52Z</time>
      </trkpt>
      <trkpt lat="45.848421854898334" lon="7.257889537140727">
        <ele>2601.9499999999998</ele>
        <time>2016-07-09T06:54:56Z</time>
      </trkpt>
      <trkpt lat="45.848325127735734" lon="7.257897835224867">
        <ele>2599.0599999999999</ele>
        <time>2016-07-09T06:55:08Z</time>
      </trkpt>
      <trkpt lat="45.8482457511127" lon="7.257921975106001">
        <ele>2595.6999999999998</ele>
        <time>2016-07-09T06:55:17Z</time>
      </trkpt>
      <trkpt lat="45.848140306770802" lon="7.25791996344924">
        <ele>2593.29</ele>
        <time>2016-07-09T06:55:28Z</time>
      </trkpt>
      <trkpt lat="45.848025474697351" lon="7.257907306775451">
        <ele>2589.9299999999998</ele>
        <time>2016-07-09T06:55:41Z</time>
      </trkpt>
      <trkpt lat="45.847991108894348" lon="7.257919795811176">
        <ele>2588.9699999999998</ele>
        <time>2016-07-09T06:55:45Z</time>
      </trkpt>
      <trkpt lat="45.84794333204627" lon="7.257936475798488">
        <ele>2587.5300000000002</ele>
        <time>2016-07-09T06:55:51Z</time>
      </trkpt>
      <trkpt lat="45.847884742543101" lon="7.257912838831544">
        <ele>2585.1199999999999</ele>
        <time>2016-07-09T06:56:04Z</time>
      </trkpt>
      <trkpt lat="45.847860686480999" lon="7.257936140522361">
        <ele>2584.1599999999999</ele>
        <time>2016-07-09T06:56:14Z</time>
      </trkpt>
      <trkpt lat="45.84783922880888" lon="7.257936978712678">
        <ele>2583.1999999999998</ele>
        <time>2016-07-09T06:56:24Z</time>
      </trkpt>
      <trkpt lat="45.847805868834257" lon="7.257924238219857">
        <ele>2582.2399999999998</ele>
        <time>2016-07-09T06:56:36Z</time>
      </trkpt>
      <trkpt lat="45.847774688154459" lon="7.257907306775451">
        <ele>2580.3200000000002</ele>
        <time>2016-07-09T06:56:46Z</time>
      </trkpt>
      <trkpt lat="45.847745100036263" lon="7.257903199642897">
        <ele>2579.3499999999999</ele>
        <time>2016-07-09T06:56:57Z</time>
      </trkpt>
      <trkpt lat="45.847710566595197" lon="7.257904624566436">
        <ele>2577.4299999999998</ele>
        <time>2016-07-09T06:57:07Z</time>
      </trkpt>
      <trkpt lat="45.847681984305382" lon="7.257860954850912">
        <ele>2575.0300000000002</ele>
        <time>2016-07-09T06:57:14Z</time>
      </trkpt>
      <trkpt lat="45.847618114203215" lon="7.257884843274951">
        <ele>2572.1399999999999</ele>
        <time>2016-07-09T06:57:24Z</time>
      </trkpt>
      <trkpt lat="45.84764082916081" lon="7.257775627076626">
        <ele>2570.2199999999998</ele>
        <time>2016-07-09T06:57:33Z</time>
      </trkpt>
      <trkpt lat="45.847636638209224" lon="7.257718546316028">
        <ele>2566.8600000000001</ele>
        <time>2016-07-09T06:57:43Z</time>
      </trkpt>
      <trkpt lat="45.847642086446285" lon="7.257628357037902">
        <ele>2563.4899999999998</ele>
        <time>2016-07-09T06:57:54Z</time>
      </trkpt>
      <trkpt lat="45.84768240340054" lon="7.257502125576139">
        <ele>2560.1300000000001</ele>
        <time>2016-07-09T06:58:06Z</time>
      </trkpt>
      <trkpt lat="45.847689863294363" lon="7.257417719811201">
        <ele>2558.21</ele>
        <time>2016-07-09T06:58:14Z</time>
      </trkpt>
      <trkpt lat="45.84771852940321" lon="7.257318729534745">
        <ele>2555.8000000000002</ele>
        <time>2016-07-09T06:58:23Z</time>
      </trkpt>
      <trkpt lat="45.847778795287013" lon="7.257201634347439">
        <ele>2552.4400000000001</ele>
        <time>2016-07-09T06:58:34Z</time>
      </trkpt>
      <trkpt lat="45.847831014543772" lon="7.257130639627576">
        <ele>2550.5100000000002</ele>
        <time>2016-07-09T06:58:42Z</time>
      </trkpt>
      <trkpt lat="45.84788859821856" lon="7.25701941177249">
        <ele>2547.6300000000001</ele>
        <time>2016-07-09T06:58:54Z</time>
      </trkpt>
      <trkpt lat="45.847896225750446" lon="7.256982950493693">
        <ele>2546.6700000000001</ele>
        <time>2016-07-09T06:58:57Z</time>
      </trkpt>
      <trkpt lat="45.847901422530413" lon="7.256926707923412">
        <ele>2544.75</ele>
        <time>2016-07-09T06:59:01Z</time>
      </trkpt>
      <trkpt lat="45.8478934597224" lon="7.256785137578845">
        <ele>2542.8200000000002</ele>
        <time>2016-07-09T06:59:12Z</time>
      </trkpt>
      <trkpt lat="45.847923550754786" lon="7.256699725985527">
        <ele>2540.9000000000001</ele>
        <time>2016-07-09T06:59:19Z</time>
      </trkpt>
      <trkpt lat="45.847930172458291" lon="7.256674915552139">
        <ele>2540.4200000000001</ele>
        <time>2016-07-09T06:59:21Z</time>
      </trkpt>
      <trkpt lat="45.84792916662991" lon="7.256549187004566">
        <ele>2539.9400000000001</ele>
        <time>2016-07-09T06:59:30Z</time>
      </trkpt>
      <trkpt lat="45.847907038405538" lon="7.256506271660328">
        <ele>2539.46</ele>
        <time>2016-07-09T06:59:33Z</time>
      </trkpt>
      <trkpt lat="45.847875773906708" lon="7.256303681060672">
        <ele>2537.0599999999999</ele>
        <time>2016-07-09T06:59:48Z</time>
      </trkpt>
      <trkpt lat="45.847853561863303" lon="7.256299154832959">
        <ele>2537.0599999999999</ele>
        <time>2016-07-09T06:59:59Z</time>
      </trkpt>
      <trkpt lat="45.847855992615223" lon="7.256298149004579">
        <ele>2536.5799999999999</ele>
        <time>2016-07-09T07:00:07Z</time>
      </trkpt>
      <trkpt lat="45.847803605720401" lon="7.256227741017938">
        <ele>2536.5799999999999</ele>
        <time>2016-07-09T07:00:14Z</time>
      </trkpt>
      <trkpt lat="45.847795978188515" lon="7.256174767389894">
        <ele>2534.6500000000001</ele>
        <time>2016-07-09T07:00:17Z</time>
      </trkpt>
      <trkpt lat="45.847778124734759" lon="7.256149286404252">
        <ele>2534.6500000000001</ele>
        <time>2016-07-09T07:00:20Z</time>
      </trkpt>
      <trkpt lat="45.847671674564481" lon="7.256095223128796">
        <ele>2532.73</ele>
        <time>2016-07-09T07:00:31Z</time>
      </trkpt>
      <trkpt lat="45.847569163888693" lon="7.256092876195908">
        <ele>2531.29</ele>
        <time>2016-07-09T07:00:43Z</time>
      </trkpt>
      <trkpt lat="45.84755877032876" lon="7.256086505949497">
        <ele>2531.29</ele>
        <time>2016-07-09T07:00:44Z</time>
      </trkpt>
      <trkpt lat="45.84750160574913" lon="7.256098240613937">
        <ele>2531.29</ele>
        <time>2016-07-09T07:00:55Z</time>
      </trkpt>
      <trkpt lat="45.847514010965824" lon="7.25609103217721">
        <ele>2530.3299999999999</ele>
        <time>2016-07-09T07:01:06Z</time>
      </trkpt>
      <trkpt lat="45.847510071471334" lon="7.256096061319113">
        <ele>2530.3299999999999</ele>
        <time>2016-07-09T07:01:22Z</time>
      </trkpt>
      <trkpt lat="45.84749867208302" lon="7.256101844832301">
        <ele>2529.8499999999999</ele>
        <time>2016-07-09T07:01:39Z</time>
      </trkpt>
      <trkpt lat="45.847488781437278" lon="7.256137803196907">
        <ele>2529.8499999999999</ele>
        <time>2016-07-09T07:01:57Z</time>
      </trkpt>
      <trkpt lat="45.84750453941524" lon="7.256116596981883">
        <ele>2529.8499999999999</ele>
        <time>2016-07-09T07:02:18Z</time>
      </trkpt>
      <trkpt lat="45.847517196089029" lon="7.256114585325122">
        <ele>2529.8499999999999</ele>
        <time>2016-07-09T07:02:33Z</time>
      </trkpt>
      <trkpt lat="45.847465982660651" lon="7.256163032725453">
        <ele>2528.8899999999999</ele>
        <time>2016-07-09T07:02:51Z</time>
      </trkpt>
      <trkpt lat="45.847435807809234" lon="7.256267135962844">
        <ele>2526.96</ele>
        <time>2016-07-09T07:03:03Z</time>
      </trkpt>
      <trkpt lat="45.847428096458316" lon="7.256272668018937">
        <ele>2526.96</ele>
        <time>2016-07-09T07:03:04Z</time>
      </trkpt>
      <trkpt lat="45.84738627076149" lon="7.256370484828949">
        <ele>2525.04</ele>
        <time>2016-07-09T07:03:13Z</time>
      </trkpt>
      <trkpt lat="45.847364896908402" lon="7.256442485377193">
        <ele>2523.1199999999999</ele>
        <time>2016-07-09T07:03:20Z</time>
      </trkpt>
      <trkpt lat="45.847306810319424" lon="7.256487580016255">
        <ele>2521.1900000000001</ele>
        <time>2016-07-09T07:03:27Z</time>
      </trkpt>
      <trkpt lat="45.847287783399224" lon="7.25652395747602">
        <ele>2519.75</ele>
        <time>2016-07-09T07:03:30Z</time>
      </trkpt>
      <trkpt lat="45.847266493365169" lon="7.256566286087036">
        <ele>2519.27</ele>
        <time>2016-07-09T07:03:33Z</time>
      </trkpt>
      <trkpt lat="45.8472372405231" lon="7.256648009642959">
        <ele>2518.3099999999999</ele>
        <time>2016-07-09T07:03:38Z</time>
      </trkpt>
      <trkpt lat="45.84714780561626" lon="7.256771977990866">
        <ele>2517.8299999999999</ele>
        <time>2016-07-09T07:03:49Z</time>
      </trkpt>
      <trkpt lat="45.847138417884707" lon="7.256777677685022">
        <ele>2518.3099999999999</ele>
        <time>2016-07-09T07:03:50Z</time>
      </trkpt>
      <trkpt lat="45.847082678228617" lon="7.256767535582185">
        <ele>2516.8699999999999</ele>
        <time>2016-07-09T07:03:54Z</time>
      </trkpt>
      <trkpt lat="45.847023837268353" lon="7.256798129528761">
        <ele>2515.9099999999999</ele>
        <time>2016-07-09T07:04:00Z</time>
      </trkpt>
      <trkpt lat="45.846882602199912" lon="7.256873231381178">
        <ele>2513.5</ele>
        <time>2016-07-09T07:04:13Z</time>
      </trkpt>
      <trkpt lat="45.846768189221621" lon="7.256892677396536">
        <ele>2511.0999999999999</ele>
        <time>2016-07-09T07:04:23Z</time>
      </trkpt>
      <trkpt lat="45.846642712131143" lon="7.256961325183511">
        <ele>2509.6599999999999</ele>
        <time>2016-07-09T07:04:35Z</time>
      </trkpt>
      <trkpt lat="45.846625277772546" lon="7.256954116746783">
        <ele>2509.1799999999998</ele>
        <time>2016-07-09T07:04:37Z</time>
      </trkpt>
      <trkpt lat="45.846555037423968" lon="7.25689728744328">
        <ele>2507.7399999999998</ele>
        <time>2016-07-09T07:04:44Z</time>
      </trkpt>
      <trkpt lat="45.846466859802604" lon="7.256870213896036">
        <ele>2508.2199999999998</ele>
        <time>2016-07-09T07:04:52Z</time>
      </trkpt>
      <trkpt lat="45.846352111548185" lon="7.25676435045898">
        <ele>2507.7399999999998</ele>
        <time>2016-07-09T07:05:04Z</time>
      </trkpt>
      <trkpt lat="45.846220599487424" lon="7.256642058491707">
        <ele>2504.3699999999999</ele>
        <time>2016-07-09T07:05:17Z</time>
      </trkpt>
      <trkpt lat="45.846137115731835" lon="7.256523286923766">
        <ele>2501.4899999999998</ele>
        <time>2016-07-09T07:05:28Z</time>
      </trkpt>
      <trkpt lat="45.846083639189601" lon="7.256441647186875">
        <ele>2499.0799999999999</ele>
        <time>2016-07-09T07:05:38Z</time>
      </trkpt>
      <trkpt lat="45.846010884270072" lon="7.256383309140801">
        <ele>2496.1999999999998</ele>
        <time>2016-07-09T07:05:48Z</time>
      </trkpt>
      <trkpt lat="45.845932262018323" lon="7.256391691043973">
        <ele>2493.3200000000002</ele>
        <time>2016-07-09T07:05:57Z</time>
      </trkpt>
      <trkpt lat="45.845923880115151" lon="7.256397726014257">
        <ele>2492.3600000000001</ele>
        <time>2016-07-09T07:05:58Z</time>
      </trkpt>
      <trkpt lat="45.845904853194952" lon="7.256432510912418">
        <ele>2491.3899999999999</ele>
        <time>2016-07-09T07:06:02Z</time>
      </trkpt>
      <trkpt lat="45.845821956172585" lon="7.25635732524097">
        <ele>2488.9899999999998</ele>
        <time>2016-07-09T07:06:14Z</time>
      </trkpt>
      <trkpt lat="45.845806365832686" lon="7.256346344947815">
        <ele>2487.5500000000002</ele>
        <time>2016-07-09T07:06:17Z</time>
      </trkpt>
      <trkpt lat="45.845721289515495" lon="7.256335197016597">
        <ele>2486.1100000000001</ele>
        <time>2016-07-09T07:06:28Z</time>
      </trkpt>
      <trkpt lat="45.84569807164371" lon="7.25630016066134">
        <ele>2485.1500000000001</ele>
        <time>2016-07-09T07:06:32Z</time>
      </trkpt>
      <trkpt lat="45.845638141036034" lon="7.25623126141727">
        <ele>2482.2600000000002</ele>
        <time>2016-07-09T07:06:45Z</time>
      </trkpt>
      <trkpt lat="45.845616264268756" lon="7.256144257262349">
        <ele>2479.8600000000001</ele>
        <time>2016-07-09T07:06:56Z</time>
      </trkpt>
      <trkpt lat="45.845609558746219" lon="7.256069155409932">
        <ele>2477.4499999999998</ele>
        <time>2016-07-09T07:07:06Z</time>
      </trkpt>
      <trkpt lat="45.845544347539544" lon="7.256035208702087">
        <ele>2474.0900000000001</ele>
        <time>2016-07-09T07:07:17Z</time>
      </trkpt>
      <trkpt lat="45.845492715016007" lon="7.255944851785898">
        <ele>2471.21</ele>
        <time>2016-07-09T07:07:29Z</time>
      </trkpt>
      <trkpt lat="45.845468575134873" lon="7.255873018875718">
        <ele>2468.3200000000002</ele>
        <time>2016-07-09T07:07:41Z</time>
      </trkpt>
      <trkpt lat="45.8454171102494" lon="7.255791546776891">
        <ele>2465.4400000000001</ele>
        <time>2016-07-09T07:07:53Z</time>
      </trkpt>
      <trkpt lat="45.845374530181289" lon="7.255720216780901">
        <ele>2463.52</ele>
        <time>2016-07-09T07:08:03Z</time>
      </trkpt>
      <trkpt lat="45.845335386693478" lon="7.255642767995596">
        <ele>2460.1500000000001</ele>
        <time>2016-07-09T07:08:14Z</time>
      </trkpt>
      <trkpt lat="45.845280820503831" lon="7.255567330867052">
        <ele>2456.79</ele>
        <time>2016-07-09T07:08:25Z</time>
      </trkpt>
      <trkpt lat="45.845232792198658" lon="7.255545035004616">
        <ele>2454.3800000000001</ele>
        <time>2016-07-09T07:08:35Z</time>
      </trkpt>
      <trkpt lat="45.845174873247743" lon="7.255521230399609">
        <ele>2452.46</ele>
        <time>2016-07-09T07:08:45Z</time>
      </trkpt>
      <trkpt lat="45.845170095562935" lon="7.255517793819308">
        <ele>2452.46</ele>
        <time>2016-07-09T07:08:46Z</time>
      </trkpt>
      <trkpt lat="45.845098430290818" lon="7.255521733313799">
        <ele>2449.5799999999999</ele>
        <time>2016-07-09T07:08:57Z</time>
      </trkpt>
      <trkpt lat="45.844997763633728" lon="7.255500191822648">
        <ele>2446.21</ele>
        <time>2016-07-09T07:09:10Z</time>
      </trkpt>
      <trkpt lat="45.844957111403346" lon="7.255466161295772">
        <ele>2444.77</ele>
        <time>2016-07-09T07:09:18Z</time>
      </trkpt>
      <trkpt lat="45.844875639304519" lon="7.255397764965892">
        <ele>2441.4099999999999</ele>
        <time>2016-07-09T07:09:30Z</time>
      </trkpt>
      <trkpt lat="45.84483758546412" lon="7.255298020318151">
        <ele>2438.52</ele>
        <time>2016-07-09T07:09:41Z</time>
      </trkpt>
      <trkpt lat="45.844818558543921" lon="7.255199532955885">
        <ele>2436.1199999999999</ele>
        <time>2016-07-09T07:09:52Z</time>
      </trkpt>
      <trkpt lat="45.844793831929564" lon="7.255112109705806">
        <ele>2434.1999999999998</ele>
        <time>2016-07-09T07:10:01Z</time>
      </trkpt>
      <trkpt lat="45.844740020111203" lon="7.255016807466745">
        <ele>2431.79</ele>
        <time>2016-07-09T07:10:12Z</time>
      </trkpt>
      <trkpt lat="45.844676904380322" lon="7.254920499399304">
        <ele>2428.9099999999999</ele>
        <time>2016-07-09T07:10:24Z</time>
      </trkpt>
      <trkpt lat="45.84465092048049" lon="7.254861993715167">
        <ele>2427.4699999999998</ele>
        <time>2016-07-09T07:10:30Z</time>
      </trkpt>
      <trkpt lat="45.844602053985" lon="7.254770882427692">
        <ele>2424.5799999999999</ele>
        <time>2016-07-09T07:10:41Z</time>
      </trkpt>
      <trkpt lat="45.844551343470812" lon="7.254720507189632">
        <ele>2423.1399999999999</ele>
        <time>2016-07-09T07:10:49Z</time>
      </trkpt>
      <trkpt lat="45.844452437013388" lon="7.254639118909836">
        <ele>2420.7399999999998</ele>
        <time>2016-07-09T07:11:01Z</time>
      </trkpt>
      <trkpt lat="45.844372222200036" lon="7.254540883004665">
        <ele>2418.3299999999999</ele>
        <time>2016-07-09T07:11:15Z</time>
      </trkpt>
      <trkpt lat="45.844353698194027" lon="7.254452956840396">
        <ele>2415.4499999999998</ele>
        <time>2016-07-09T07:11:26Z</time>
      </trkpt>
      <trkpt lat="45.844309022650123" lon="7.2543905954808">
        <ele>2413.5300000000002</ele>
        <time>2016-07-09T07:11:36Z</time>
      </trkpt>
      <trkpt lat="45.844291839748621" lon="7.254373244941235">
        <ele>2413.0500000000002</ele>
        <time>2016-07-09T07:11:39Z</time>
      </trkpt>
      <trkpt lat="45.844235010445118" lon="7.254263358190656">
        <ele>2409.6799999999998</ele>
        <time>2016-07-09T07:11:52Z</time>
      </trkpt>
      <trkpt lat="45.844226963818073" lon="7.254148190841079">
        <ele>2406.8000000000002</ele>
        <time>2016-07-09T07:12:03Z</time>
      </trkpt>
      <trkpt lat="45.844225119799376" lon="7.254088679328561">
        <ele>2404.8800000000001</ele>
        <time>2016-07-09T07:12:12Z</time>
      </trkpt>
      <trkpt lat="45.844202823936939" lon="7.254022294655442">
        <ele>2402.9499999999998</ele>
        <time>2016-07-09T07:12:21Z</time>
      </trkpt>
      <trkpt lat="45.844180192798376" lon="7.253949036821723">
        <ele>2400.5500000000002</ele>
        <time>2016-07-09T07:12:31Z</time>
      </trkpt>
      <trkpt lat="45.844190586358309" lon="7.253900757059455">
        <ele>2399.5900000000001</ele>
        <time>2016-07-09T07:12:35Z</time>
      </trkpt>
      <trkpt lat="45.844203159213066" lon="7.253773603588343">
        <ele>2396.2199999999998</ele>
        <time>2016-07-09T07:12:48Z</time>
      </trkpt>
      <trkpt lat="45.844192430377007" lon="7.253695316612721">
        <ele>2393.8200000000002</ele>
        <time>2016-07-09T07:12:58Z</time>
      </trkpt>
      <trkpt lat="45.844238614663482" lon="7.25362784229219">
        <ele>2391.9000000000001</ele>
        <time>2016-07-09T07:13:05Z</time>
      </trkpt>
      <trkpt lat="45.844263844192028" lon="7.253528935834765">
        <ele>2389.0100000000002</ele>
        <time>2016-07-09T07:13:17Z</time>
      </trkpt>
      <trkpt lat="45.844235680997372" lon="7.253469843417406">
        <ele>2386.1300000000001</ele>
        <time>2016-07-09T07:13:27Z</time>
      </trkpt>
      <trkpt lat="45.84428496658802" lon="7.253371607512236">
        <ele>2384.21</ele>
        <time>2016-07-09T07:13:37Z</time>
      </trkpt>
      <trkpt lat="45.844300389289856" lon="7.253320645540953">
        <ele>2382.2800000000002</ele>
        <time>2016-07-09T07:13:42Z</time>
      </trkpt>
      <trkpt lat="45.844360822811723" lon="7.253256775438786">
        <ele>2380.3600000000001</ele>
        <time>2016-07-09T07:13:52Z</time>
      </trkpt>
      <trkpt lat="45.844404827803373" lon="7.253170358017087">
        <ele>2377.48</ele>
        <time>2016-07-09T07:14:03Z</time>
      </trkpt>
      <trkpt lat="45.844398625195026" lon="7.253131968900561">
        <ele>2375.5500000000002</ele>
        <time>2016-07-09T07:14:13Z</time>
      </trkpt>
      <trkpt lat="45.84431279450655" lon="7.253099614754319">
        <ele>2372.6700000000001</ele>
        <time>2016-07-09T07:14:25Z</time>
      </trkpt>
      <trkpt lat="45.844260659068823" lon="7.253046808764339">
        <ele>2370.27</ele>
        <time>2016-07-09T07:14:34Z</time>
      </trkpt>
      <trkpt lat="45.84423559717834" lon="7.253041109070182">
        <ele>2369.79</ele>
        <time>2016-07-09T07:14:37Z</time>
      </trkpt>
      <trkpt lat="45.844141636043787" lon="7.252987716346979">
        <ele>2367.8600000000001</ele>
        <time>2016-07-09T07:14:50Z</time>
      </trkpt>
      <trkpt lat="45.844122441485524" lon="7.252913787961006">
        <ele>2365.9400000000001</ele>
        <time>2016-07-09T07:14:59Z</time>
      </trkpt>
      <trkpt lat="45.844044489786029" lon="7.252880679443479">
        <ele>2363.0599999999999</ele>
        <time>2016-07-09T07:15:10Z</time>
      </trkpt>
      <trkpt lat="45.843978943303227" lon="7.252873051911593">
        <ele>2361.1399999999999</ele>
        <time>2016-07-09T07:15:20Z</time>
      </trkpt>
      <trkpt lat="45.84393217228353" lon="7.252797614783049">
        <ele>2358.73</ele>
        <time>2016-07-09T07:15:30Z</time>
      </trkpt>
      <trkpt lat="45.84386570379138" lon="7.252792501822114">
        <ele>2356.3299999999999</ele>
        <time>2016-07-09T07:15:41Z</time>
      </trkpt>
      <trkpt lat="45.843875426799059" lon="7.252677837386727">
        <ele>2353.9299999999998</ele>
        <time>2016-07-09T07:15:51Z</time>
      </trkpt>
      <trkpt lat="45.84389939904213" lon="7.252588821575046">
        <ele>2352</ele>
        <time>2016-07-09T07:15:59Z</time>
      </trkpt>
      <trkpt lat="45.843953462317586" lon="7.252481700852513">
        <ele>2349.1199999999999</ele>
        <time>2016-07-09T07:16:10Z</time>
      </trkpt>
      <trkpt lat="45.843984223902225" lon="7.252461416646838">
        <ele>2349.1199999999999</ele>
        <time>2016-07-09T07:16:13Z</time>
      </trkpt>
      <trkpt lat="45.844077095389366" lon="7.252408945932984">
        <ele>2347.1999999999998</ele>
        <time>2016-07-09T07:16:22Z</time>
      </trkpt>
      <trkpt lat="45.844115149229765" lon="7.252396875992417">
        <ele>2347.1999999999998</ele>
        <time>2016-07-09T07:16:26Z</time>
      </trkpt>
      <trkpt lat="45.844144318252802" lon="7.252382542937994">
        <ele>2346.7199999999998</ele>
        <time>2016-07-09T07:16:29Z</time>
      </trkpt>
      <trkpt lat="45.844137193635106" lon="7.25228019990027">
        <ele>2345.27</ele>
        <time>2016-07-09T07:16:41Z</time>
      </trkpt>
      <trkpt lat="45.844186814501882" lon="7.252256562933326">
        <ele>2344.3099999999999</ele>
        <time>2016-07-09T07:16:48Z</time>
      </trkpt>
      <trkpt lat="45.844228304922581" lon="7.252265028655529">
        <ele>2342.8699999999999</ele>
        <time>2016-07-09T07:16:52Z</time>
      </trkpt>
      <trkpt lat="45.844259653240442" lon="7.252251282334328">
        <ele>2342.3899999999999</ele>
        <time>2016-07-09T07:16:55Z</time>
      </trkpt>
      <trkpt lat="45.844348166137934" lon="7.252162853255868">
        <ele>2340.4699999999998</ele>
        <time>2016-07-09T07:17:06Z</time>
      </trkpt>
      <trkpt lat="45.844346573576331" lon="7.252115244045854">
        <ele>2338.54</ele>
        <time>2016-07-09T07:17:14Z</time>
      </trkpt>
      <trkpt lat="45.844262419268489" lon="7.252078531309962">
        <ele>2336.1399999999999</ele>
        <time>2016-07-09T07:17:25Z</time>
      </trkpt>
      <trkpt lat="45.844215899705887" lon="7.251981468871236">
        <ele>2333.2600000000002</ele>
        <time>2016-07-09T07:17:36Z</time>
      </trkpt>
      <trkpt lat="45.844143060967326" lon="7.251896895468235">
        <ele>2331.3299999999999</ele>
        <time>2016-07-09T07:17:48Z</time>
      </trkpt>
      <trkpt lat="45.844107018783689" lon="7.251812657341361">
        <ele>2328.9299999999998</ele>
        <time>2016-07-09T07:17:58Z</time>
      </trkpt>
      <trkpt lat="45.844019176438451" lon="7.251747949048877">
        <ele>2325.5700000000002</ele>
        <time>2016-07-09T07:18:11Z</time>
      </trkpt>
      <trkpt lat="45.843956479802728" lon="7.251676367595792">
        <ele>2323.1599999999999</ele>
        <time>2016-07-09T07:18:22Z</time>
      </trkpt>
      <trkpt lat="45.843915659934282" lon="7.251616856083274">
        <ele>2321.2399999999998</ele>
        <time>2016-07-09T07:18:32Z</time>
      </trkpt>
      <trkpt lat="45.843868805095553" lon="7.251537814736366">
        <ele>2317.8800000000001</ele>
        <time>2016-07-09T07:18:43Z</time>
      </trkpt>
      <trkpt lat="45.843826476484537" lon="7.251478470861912">
        <ele>2315.9499999999998</ele>
        <time>2016-07-09T07:18:51Z</time>
      </trkpt>
      <trkpt lat="45.843801833689213" lon="7.251398926600814">
        <ele>2313.5500000000002</ele>
        <time>2016-07-09T07:19:03Z</time>
      </trkpt>
      <trkpt lat="45.84379630163312" lon="7.25133178755641">
        <ele>2311.1500000000001</ele>
        <time>2016-07-09T07:19:12Z</time>
      </trkpt>
      <trkpt lat="45.843795631080866" lon="7.251323238015175">
        <ele>2310.6700000000001</ele>
        <time>2016-07-09T07:19:13Z</time>
      </trkpt>
      <trkpt lat="45.843795379623771" lon="7.251212177798152">
        <ele>2310.1900000000001</ele>
        <time>2016-07-09T07:19:23Z</time>
      </trkpt>
      <trkpt lat="45.843792445957661" lon="7.251190049573779">
        <ele>2310.1900000000001</ele>
        <time>2016-07-09T07:19:25Z</time>
      </trkpt>
      <trkpt lat="45.843811053782701" lon="7.251072032377124">
        <ele>2308.7399999999998</ele>
        <time>2016-07-09T07:19:35Z</time>
      </trkpt>
      <trkpt lat="45.843808623030782" lon="7.251061722636223">
        <ele>2308.7399999999998</ele>
        <time>2016-07-09T07:19:36Z</time>
      </trkpt>
      <trkpt lat="45.843783728778362" lon="7.250925516709685">
        <ele>2304.9000000000001</ele>
        <time>2016-07-09T07:19:48Z</time>
      </trkpt>
      <trkpt lat="45.843765120953321" lon="7.250799285247922">
        <ele>2302.98</ele>
        <time>2016-07-09T07:20:02Z</time>
      </trkpt>
      <trkpt lat="45.843761013820767" lon="7.25079576484859">
        <ele>2302.4899999999998</ele>
        <time>2016-07-09T07:20:06Z</time>
      </trkpt>
      <trkpt lat="45.843755565583706" lon="7.250731894746423">
        <ele>2302.0100000000002</ele>
        <time>2016-07-09T07:20:10Z</time>
      </trkpt>
      <trkpt lat="45.843751039355993" lon="7.250511702150106">
        <ele>2299.6100000000001</ele>
        <time>2016-07-09T07:20:23Z</time>
      </trkpt>
      <trkpt lat="45.8437420707196" lon="7.250311961397529">
        <ele>2297.6900000000001</ele>
        <time>2016-07-09T07:20:35Z</time>
      </trkpt>
      <trkpt lat="45.843740813434124" lon="7.25023384205997">
        <ele>2297.21</ele>
        <time>2016-07-09T07:20:40Z</time>
      </trkpt>
      <trkpt lat="45.843704687431455" lon="7.250098390504718">
        <ele>2295.77</ele>
        <time>2016-07-09T07:20:50Z</time>
      </trkpt>
      <trkpt lat="45.843703513965011" lon="7.250069053843617">
        <ele>2295.2800000000002</ele>
        <time>2016-07-09T07:20:52Z</time>
      </trkpt>
      <trkpt lat="45.843667723238468" lon="7.249878868460655">
        <ele>2294.8000000000002</ele>
        <time>2016-07-09T07:21:05Z</time>
      </trkpt>
      <trkpt lat="45.843626484274864" lon="7.249726066365838">
        <ele>2292.8800000000001</ele>
        <time>2016-07-09T07:21:17Z</time>
      </trkpt>
      <trkpt lat="45.843620616942644" lon="7.249609222635627">
        <ele>2293.8400000000001</ele>
        <time>2016-07-09T07:21:28Z</time>
      </trkpt>
      <trkpt lat="45.843610474839807" lon="7.249513082206249">
        <ele>2294.3200000000002</ele>
        <time>2016-07-09T07:21:36Z</time>
      </trkpt>
      <trkpt lat="45.84365020506084" lon="7.249483410269022">
        <ele>2295.77</ele>
        <time>2016-07-09T07:21:46Z</time>
      </trkpt>
      <trkpt lat="45.843637632206082" lon="7.249465556815267">
        <ele>2296.25</ele>
        <time>2016-07-09T07:22:00Z</time>
      </trkpt>
      <trkpt lat="45.843653306365013" lon="7.24949405528605">
        <ele>2295.2800000000002</ele>
        <time>2016-07-09T07:22:13Z</time>
      </trkpt>
      <trkpt lat="45.843632351607084" lon="7.249473687261343">
        <ele>2294.8000000000002</ele>
        <time>2016-07-09T07:22:33Z</time>
      </trkpt>
      <trkpt lat="45.843625646084547" lon="7.249485086649656">
        <ele>2294.8000000000002</ele>
        <time>2016-07-09T07:22:58Z</time>
      </trkpt>
      <trkpt lat="45.843647858127952" lon="7.24946522153914">
        <ele>2294.3200000000002</ele>
        <time>2016-07-09T07:23:17Z</time>
      </trkpt>
      <trkpt lat="45.843654731288552" lon="7.249454241245985">
        <ele>2294.3200000000002</ele>
        <time>2016-07-09T07:23:29Z</time>
      </trkpt>
      <trkpt lat="45.843651043251157" lon="7.249446865171194">
        <ele>2294.8000000000002</ele>
        <time>2016-07-09T07:23:49Z</time>
      </trkpt>
      <trkpt lat="45.843648361042142" lon="7.249446362257004">
        <ele>2294.8000000000002</ele>
        <time>2016-07-09T07:24:07Z</time>
      </trkpt>
      <trkpt lat="45.843639308586717" lon="7.249461030587554">
        <ele>2294.3200000000002</ele>
        <time>2016-07-09T07:24:24Z</time>
      </trkpt>
      <trkpt lat="45.843627909198403" lon="7.249450050294399">
        <ele>2294.3200000000002</ele>
        <time>2016-07-09T07:24:35Z</time>
      </trkpt>
      <trkpt lat="45.843624891713262" lon="7.249476872384548">
        <ele>2294.3200000000002</ele>
        <time>2016-07-09T07:24:46Z</time>
      </trkpt>
      <trkpt lat="45.843631513416767" lon="7.249474693089724">
        <ele>2294.3200000000002</ele>
        <time>2016-07-09T07:24:56Z</time>
      </trkpt>
      <trkpt lat="45.843618186190724" lon="7.249482069164515">
        <ele>2294.3200000000002</ele>
        <time>2016-07-09T07:25:13Z</time>
      </trkpt>
      <trkpt lat="45.84365070797503" lon="7.249466646462679">
        <ele>2294.3200000000002</ele>
        <time>2016-07-09T07:25:39Z</time>
      </trkpt>
      <trkpt lat="45.843641990795732" lon="7.249469999223948">
        <ele>2294.3200000000002</ele>
        <time>2016-07-09T07:25:56Z</time>
      </trkpt>
      <trkpt lat="45.843647355213761" lon="7.249465556815267">
        <ele>2293.8400000000001</ele>
        <time>2016-07-09T07:26:27Z</time>
      </trkpt>
      <trkpt lat="45.843650791794062" lon="7.24946279078722">
        <ele>2293.8400000000001</ele>
        <time>2016-07-09T07:26:51Z</time>
      </trkpt>
      <trkpt lat="45.843641487881541" lon="7.24947058595717">
        <ele>2293.8400000000001</ele>
        <time>2016-07-09T07:27:13Z</time>
      </trkpt>
      <trkpt lat="45.843642074614763" lon="7.249478045850992">
        <ele>2293.8400000000001</ele>
        <time>2016-07-09T07:27:14Z</time>
      </trkpt>
      <trkpt lat="45.843629669398069" lon="7.249436303973198">
        <ele>2294.3200000000002</ele>
        <time>2016-07-09T07:27:23Z</time>
      </trkpt>
      <trkpt lat="45.843657413497567" lon="7.24945449270308">
        <ele>2294.3200000000002</ele>
        <time>2016-07-09T07:27:34Z</time>
      </trkpt>
      <trkpt lat="45.843629585579038" lon="7.249470334500074">
        <ele>2293.8400000000001</ele>
        <time>2016-07-09T07:27:46Z</time>
      </trkpt>
      <trkpt lat="45.843618018552661" lon="7.249430436640978">
        <ele>2293.8400000000001</ele>
        <time>2016-07-09T07:27:56Z</time>
      </trkpt>
      <trkpt lat="45.843651127070189" lon="7.249366734176874">
        <ele>2291.9200000000001</ele>
        <time>2016-07-09T07:28:07Z</time>
      </trkpt>
      <trkpt lat="45.843709884211421" lon="7.249323315918446">
        <ele>2289.52</ele>
        <time>2016-07-09T07:28:17Z</time>
      </trkpt>
      <trkpt lat="45.843738550320268" lon="7.249312922358513">
        <ele>2288.5599999999999</ele>
        <time>2016-07-09T07:28:21Z</time>
      </trkpt>
      <trkpt lat="45.843818262219429" lon="7.249273359775543">
        <ele>2288.0799999999999</ele>
        <time>2016-07-09T07:28:30Z</time>
      </trkpt>
      <trkpt lat="45.843901410698891" lon="7.249228516593576">
        <ele>2285.6700000000001</ele>
        <time>2016-07-09T07:28:42Z</time>
      </trkpt>
      <trkpt lat="45.843949103727937" lon="7.2492341324687">
        <ele>2283.27</ele>
        <time>2016-07-09T07:28:50Z</time>
      </trkpt>
      <trkpt lat="45.843992019072175" lon="7.249202951788902">
        <ele>2281.3499999999999</ele>
        <time>2016-07-09T07:28:59Z</time>
      </trkpt>
      <trkpt lat="45.844001742079854" lon="7.249191803857684">
        <ele>2280.3800000000001</ele>
        <time>2016-07-09T07:29:01Z</time>
      </trkpt>
      <trkpt lat="45.844024121761322" lon="7.24922239780426">
        <ele>2279.9000000000001</ele>
        <time>2016-07-09T07:29:06Z</time>
      </trkpt>
      <trkpt lat="45.844090757891536" lon="7.249253913760185">
        <ele>2279.4200000000001</ele>
        <time>2016-07-09T07:29:13Z</time>
      </trkpt>
      <trkpt lat="45.84418673068285" lon="7.249216865748167">
        <ele>2279.4200000000001</ele>
        <time>2016-07-09T07:29:25Z</time>
      </trkpt>
      <trkpt lat="45.844234507530928" lon="7.249201191589236">
        <ele>2280.8699999999999</ele>
        <time>2016-07-09T07:29:35Z</time>
      </trkpt>
      <trkpt lat="45.844265688210726" lon="7.24914176389575">
        <ele>2282.3099999999999</ele>
        <time>2016-07-09T07:29:43Z</time>
      </trkpt>
      <trkpt lat="45.844327798113227" lon="7.249026764184237">
        <ele>2283.27</ele>
        <time>2016-07-09T07:29:57Z</time>
      </trkpt>
      <trkpt lat="45.844387309625745" lon="7.249006563797593">
        <ele>2284.71</ele>
        <time>2016-07-09T07:30:08Z</time>
      </trkpt>
      <trkpt lat="45.844427794218063" lon="7.248984519392252">
        <ele>2286.1500000000001</ele>
        <time>2016-07-09T07:30:19Z</time>
      </trkpt>
      <trkpt lat="45.844462243840098" lon="7.248978316783905">
        <ele>2285.1900000000001</ele>
        <time>2016-07-09T07:30:31Z</time>
      </trkpt>
      <trkpt lat="45.844467356801033" lon="7.248957110568881">
        <ele>2284.23</ele>
        <time>2016-07-09T07:30:45Z</time>
      </trkpt>
      <trkpt lat="45.844482528045774" lon="7.248929617926478">
        <ele>2283.27</ele>
        <time>2016-07-09T07:30:48Z</time>
      </trkpt>
      <trkpt lat="45.844531897455454" lon="7.248930120840669">
        <ele>2281.8299999999999</ele>
        <time>2016-07-09T07:30:58Z</time>
      </trkpt>
      <trkpt lat="45.844541369006038" lon="7.248924421146512">
        <ele>2280.8699999999999</ele>
        <time>2016-07-09T07:31:07Z</time>
      </trkpt>
      <trkpt lat="45.84457028657198" lon="7.248903550207615">
        <ele>2278.9400000000001</ele>
        <time>2016-07-09T07:31:18Z</time>
      </trkpt>
      <trkpt lat="45.844606161117554" lon="7.248879326507449">
        <ele>2277.5</ele>
        <time>2016-07-09T07:31:24Z</time>
      </trkpt>
      <trkpt lat="45.844650333747268" lon="7.248825849965215">
        <ele>2275.5799999999999</ele>
        <time>2016-07-09T07:31:34Z</time>
      </trkpt>
      <trkpt lat="45.844725435599685" lon="7.248803805559874">
        <ele>2273.1700000000001</ele>
        <time>2016-07-09T07:31:43Z</time>
      </trkpt>
      <trkpt lat="45.84473398514092" lon="7.248797016218305">
        <ele>2273.1700000000001</ele>
        <time>2016-07-09T07:31:44Z</time>
      </trkpt>
      <trkpt lat="45.844755945727229" lon="7.248778659850359">
        <ele>2273.1700000000001</ele>
        <time>2016-07-09T07:31:47Z</time>
      </trkpt>
      <trkpt lat="45.844823587685823" lon="7.248755106702447">
        <ele>2270.77</ele>
        <time>2016-07-09T07:31:58Z</time>
      </trkpt>
      <trkpt lat="45.844849487766623" lon="7.248730128630996">
        <ele>2269.8099999999999</ele>
        <time>2016-07-09T07:32:03Z</time>
      </trkpt>
      <trkpt lat="45.844931043684483" lon="7.248735912144184">
        <ele>2270.29</ele>
        <time>2016-07-09T07:32:13Z</time>
      </trkpt>
      <trkpt lat="45.844955015927553" lon="7.24871470592916">
        <ele>2269.8099999999999</ele>
        <time>2016-07-09T07:32:16Z</time>
      </trkpt>
      <trkpt lat="45.845025591552258" lon="7.248610267415643">
        <ele>2266.4499999999998</ele>
        <time>2016-07-09T07:32:30Z</time>
      </trkpt>
      <trkpt lat="45.845088707283139" lon="7.248580511659384">
        <ele>2264.52</ele>
        <time>2016-07-09T07:32:40Z</time>
      </trkpt>
      <trkpt lat="45.845090802758932" lon="7.248580763116479">
        <ele>2264.52</ele>
        <time>2016-07-09T07:32:41Z</time>
      </trkpt>
      <trkpt lat="45.845144195482135" lon="7.248569112271071">
        <ele>2265</ele>
        <time>2016-07-09T07:32:47Z</time>
      </trkpt>
      <trkpt lat="45.845195492729545" lon="7.248540362343192">
        <ele>2264.52</ele>
        <time>2016-07-09T07:32:53Z</time>
      </trkpt>
      <trkpt lat="45.845246706157923" lon="7.248484203591943">
        <ele>2262.1199999999999</ele>
        <time>2016-07-09T07:32:58Z</time>
      </trkpt>
      <trkpt lat="45.845284759998322" lon="7.248472049832344">
        <ele>2262.5999999999999</ele>
        <time>2016-07-09T07:33:03Z</time>
      </trkpt>
      <trkpt lat="45.84535893984139" lon="7.248423853889108">
        <ele>2264.52</ele>
        <time>2016-07-09T07:33:15Z</time>
      </trkpt>
      <trkpt lat="45.845395820215344" lon="7.248386889696121">
        <ele>2266.4499999999998</ele>
        <time>2016-07-09T07:33:25Z</time>
      </trkpt>
      <trkpt lat="45.845486177131534" lon="7.248345231637359">
        <ele>2265</ele>
        <time>2016-07-09T07:33:36Z</time>
      </trkpt>
      <trkpt lat="45.845647612586617" lon="7.248358642682433">
        <ele>2262.5999999999999</ele>
        <time>2016-07-09T07:33:50Z</time>
      </trkpt>
      <trkpt lat="45.845739897340536" lon="7.248272057622671">
        <ele>2262.5999999999999</ele>
        <time>2016-07-09T07:34:01Z</time>
      </trkpt>
      <trkpt lat="45.845744675025344" lon="7.24826174788177">
        <ele>2262.1199999999999</ele>
        <time>2016-07-09T07:34:02Z</time>
      </trkpt>
      <trkpt lat="45.845769234001637" lon="7.248216904699802">
        <ele>2261.6399999999999</ele>
        <time>2016-07-09T07:34:06Z</time>
      </trkpt>
      <trkpt lat="45.845891945064068" lon="7.24819821305573">
        <ele>2259.7199999999998</ele>
        <time>2016-07-09T07:34:19Z</time>
      </trkpt>
      <trkpt lat="45.845972914248705" lon="7.248159488663077">
        <ele>2257.3099999999999</ele>
        <time>2016-07-09T07:34:29Z</time>
      </trkpt>
      <trkpt lat="45.845994958654046" lon="7.248137192800641">
        <ele>2256.3499999999999</ele>
        <time>2016-07-09T07:34:32Z</time>
      </trkpt>
      <trkpt lat="45.846008453518152" lon="7.248117662966251">
        <ele>2256.3499999999999</ele>
        <time>2016-07-09T07:34:34Z</time>
      </trkpt>
      <trkpt lat="45.846021445468068" lon="7.248097881674767">
        <ele>2255.8699999999999</ele>
        <time>2016-07-09T07:34:36Z</time>
      </trkpt>
      <trkpt lat="45.846085734665394" lon="7.247951282188296">
        <ele>2252.5100000000002</ele>
        <time>2016-07-09T07:34:49Z</time>
      </trkpt>
      <trkpt lat="45.846096212044358" lon="7.247925214469433">
        <ele>2252.0300000000002</ele>
        <time>2016-07-09T07:34:52Z</time>
      </trkpt>
      <trkpt lat="45.846110042184591" lon="7.247827397659421">
        <ele>2248.1799999999998</ele>
        <time>2016-07-09T07:35:04Z</time>
      </trkpt>
      <trkpt lat="45.846139714121819" lon="7.247711643576622">
        <ele>2245.3000000000002</ele>
        <time>2016-07-09T07:35:14Z</time>
      </trkpt>
      <trkpt lat="45.846144324168563" lon="7.247692532837391">
        <ele>2245.3000000000002</ele>
        <time>2016-07-09T07:35:16Z</time>
      </trkpt>
      <trkpt lat="45.846177181228995" lon="7.24762455560267">
        <ele>2243.3699999999999</ele>
        <time>2016-07-09T07:35:23Z</time>
      </trkpt>
      <trkpt lat="45.846198471263051" lon="7.247587088495493">
        <ele>2242.8899999999999</ele>
        <time>2016-07-09T07:35:26Z</time>
      </trkpt>
      <trkpt lat="45.846269298344851" lon="7.247565630823374">
        <ele>2240.9699999999998</ele>
        <time>2016-07-09T07:35:36Z</time>
      </trkpt>
      <trkpt lat="45.846310537308455" lon="7.247532187029719">
        <ele>2238.5700000000002</ele>
        <time>2016-07-09T07:35:47Z</time>
      </trkpt>
      <trkpt lat="45.846312297508121" lon="7.247523386031389">
        <ele>2238.0900000000001</ele>
        <time>2016-07-09T07:35:49Z</time>
      </trkpt>
      <trkpt lat="45.846368540078402" lon="7.247492708265781">
        <ele>2235.6799999999998</ele>
        <time>2016-07-09T07:35:59Z</time>
      </trkpt>
      <trkpt lat="45.846390165388584" lon="7.247475860640407">
        <ele>2234.2399999999998</ele>
        <time>2016-07-09T07:36:05Z</time>
      </trkpt>
      <trkpt lat="45.846459651365876" lon="7.247463958337903">
        <ele>2231.3600000000001</ele>
        <time>2016-07-09T07:36:16Z</time>
      </trkpt>
      <trkpt lat="45.846490245312452" lon="7.247463036328554">
        <ele>2230.4000000000001</ele>
        <time>2016-07-09T07:36:20Z</time>
      </trkpt>
      <trkpt lat="45.846523605287075" lon="7.247397657483816">
        <ele>2228.4699999999998</ele>
        <time>2016-07-09T07:36:28Z</time>
      </trkpt>
      <trkpt lat="45.846556629985571" lon="7.247308557853103">
        <ele>2227.0300000000002</ele>
        <time>2016-07-09T07:36:36Z</time>
      </trkpt>
      <trkpt lat="45.846607591956854" lon="7.247216105461121">
        <ele>2225.1100000000001</ele>
        <time>2016-07-09T07:36:45Z</time>
      </trkpt>
      <trkpt lat="45.846714628860354" lon="7.247127592563629">
        <ele>2223.6700000000001</ele>
        <time>2016-07-09T07:36:56Z</time>
      </trkpt>
      <trkpt lat="45.846818313002586" lon="7.247072774916887">
        <ele>2223.1900000000001</ele>
        <time>2016-07-09T07:37:09Z</time>
      </trkpt>
      <trkpt lat="45.846855277195573" lon="7.247022902593017">
        <ele>2220.7800000000002</ele>
        <time>2016-07-09T07:37:19Z</time>
      </trkpt>
      <trkpt lat="45.846793837845325" lon="7.247005300596356">
        <ele>2217.4200000000001</ele>
        <time>2016-07-09T07:37:30Z</time>
      </trkpt>
      <trkpt lat="45.846847901120782" lon="7.246922319754958">
        <ele>2215.0100000000002</ele>
        <time>2016-07-09T07:37:42Z</time>
      </trkpt>
      <trkpt lat="45.846866341307759" lon="7.24691997282207">
        <ele>2213.5700000000002</ele>
        <time>2016-07-09T07:37:52Z</time>
      </trkpt>
      <trkpt lat="45.846906406804919" lon="7.246868927031755">
        <ele>2212.6100000000001</ele>
        <time>2016-07-09T07:37:58Z</time>
      </trkpt>
      <trkpt lat="45.847004726529121" lon="7.246773624792695">
        <ele>2209.73</ele>
        <time>2016-07-09T07:38:10Z</time>
      </trkpt>
      <trkpt lat="45.847088797017932" lon="7.246718052774668">
        <ele>2206.8400000000001</ele>
        <time>2016-07-09T07:38:20Z</time>
      </trkpt>
      <trkpt lat="45.847173286601901" lon="7.246600538492203">
        <ele>2204.4400000000001</ele>
        <time>2016-07-09T07:38:32Z</time>
      </trkpt>
      <trkpt lat="45.847195331007242" lon="7.246587630361319">
        <ele>2203.96</ele>
        <time>2016-07-09T07:38:34Z</time>
      </trkpt>
      <trkpt lat="45.847297590225935" lon="7.24647237919271">
        <ele>2201.0799999999999</ele>
        <time>2016-07-09T07:38:47Z</time>
      </trkpt>
      <trkpt lat="45.84734276868403" lon="7.24642887711525">
        <ele>2200.1100000000001</ele>
        <time>2016-07-09T07:38:56Z</time>
      </trkpt>
      <trkpt lat="45.847384678199887" lon="7.246368862688541">
        <ele>2196.75</ele>
        <time>2016-07-09T07:39:05Z</time>
      </trkpt>
      <trkpt lat="45.847438909113407" lon="7.246330054476857">
        <ele>2193.8699999999999</ele>
        <time>2016-07-09T07:39:15Z</time>
      </trkpt>
      <trkpt lat="45.847462378442287" lon="7.246299041435123">
        <ele>2192.9000000000001</ele>
        <time>2016-07-09T07:39:19Z</time>
      </trkpt>
      <trkpt lat="45.847552148625255" lon="7.246207343414426">
        <ele>2191.46</ele>
        <time>2016-07-09T07:39:30Z</time>
      </trkpt>
      <trkpt lat="45.847618281841278" lon="7.246133834123612">
        <ele>2190.5</ele>
        <time>2016-07-09T07:39:40Z</time>
      </trkpt>
      <trkpt lat="45.847625322639942" lon="7.246124278753996">
        <ele>2190.5</ele>
        <time>2016-07-09T07:39:41Z</time>
      </trkpt>
      <trkpt lat="45.847648456692696" lon="7.246098127216101">
        <ele>2190.02</ele>
        <time>2016-07-09T07:39:44Z</time>
      </trkpt>
      <trkpt lat="45.847705705091357" lon="7.24603652022779">
        <ele>2188.5799999999999</ele>
        <time>2016-07-09T07:39:55Z</time>
      </trkpt>
      <trkpt lat="45.847711740061641" lon="7.246032832190394">
        <ele>2188.5799999999999</ele>
        <time>2016-07-09T07:40:01Z</time>
      </trkpt>
      <trkpt lat="45.847726073116064" lon="7.246017912402749">
        <ele>2188.0999999999999</ele>
        <time>2016-07-09T07:40:03Z</time>
      </trkpt>
      <trkpt lat="45.84776496514678" lon="7.246010201051831">
        <ele>2187.1399999999999</ele>
        <time>2016-07-09T07:40:07Z</time>
      </trkpt>
      <trkpt lat="45.847848448902369" lon="7.246006010100246">
        <ele>2187.6199999999999</ele>
        <time>2016-07-09T07:40:15Z</time>
      </trkpt>
      <trkpt lat="45.847921539098024" lon="7.245919592678547">
        <ele>2184.73</ele>
        <time>2016-07-09T07:40:24Z</time>
      </trkpt>
      <trkpt lat="45.847972249612212" lon="7.24591288715601">
        <ele>2184.25</ele>
        <time>2016-07-09T07:40:30Z</time>
      </trkpt>
      <trkpt lat="45.848067048937082" lon="7.245807694271207">
        <ele>2181.3699999999999</ele>
        <time>2016-07-09T07:40:43Z</time>
      </trkpt>
      <trkpt lat="45.848145671188831" lon="7.245730748400092">
        <ele>2179.4499999999998</ele>
        <time>2016-07-09T07:40:54Z</time>
      </trkpt>
      <trkpt lat="45.848159920424223" lon="7.245686240494251">
        <ele>2177.52</ele>
        <time>2016-07-09T07:41:04Z</time>
      </trkpt>
      <trkpt lat="45.848174672573805" lon="7.245634188875556">
        <ele>2176.0799999999999</ele>
        <time>2016-07-09T07:41:12Z</time>
      </trkpt>
      <trkpt lat="45.848183892667294" lon="7.245609881356359">
        <ele>2175.5999999999999</ele>
        <time>2016-07-09T07:41:14Z</time>
      </trkpt>
      <trkpt lat="45.848279278725386" lon="7.245500329881907">
        <ele>2175.1199999999999</ele>
        <time>2016-07-09T07:41:25Z</time>
      </trkpt>
      <trkpt lat="45.848358822986484" lon="7.245419528335333">
        <ele>2176.0799999999999</ele>
        <time>2016-07-09T07:41:35Z</time>
      </trkpt>
      <trkpt lat="45.848424285650253" lon="7.245304444804788">
        <ele>2173.1999999999998</ele>
        <time>2016-07-09T07:41:47Z</time>
      </trkpt>
      <trkpt lat="45.848464015871286" lon="7.245243592187762">
        <ele>2172.2399999999998</ele>
        <time>2016-07-09T07:41:53Z</time>
      </trkpt>
      <trkpt lat="45.848549259826541" lon="7.245141919702292">
        <ele>2169.3499999999999</ele>
        <time>2016-07-09T07:42:05Z</time>
      </trkpt>
      <trkpt lat="45.848628301173449" lon="7.245101351290941">
        <ele>2167.9099999999999</ele>
        <time>2016-07-09T07:42:14Z</time>
      </trkpt>
      <trkpt lat="45.848660487681627" lon="7.245053825899959">
        <ele>2166.4699999999998</ele>
        <time>2016-07-09T07:42:21Z</time>
      </trkpt>
      <trkpt lat="45.84873047657311" lon="7.245008731260896">
        <ele>2166.4699999999998</ele>
        <time>2016-07-09T07:42:29Z</time>
      </trkpt>
      <trkpt lat="45.848742378875613" lon="7.244986435398459">
        <ele>2165.5100000000002</ele>
        <time>2016-07-09T07:42:39Z</time>
      </trkpt>
      <trkpt lat="45.848747156560421" lon="7.244960870593786">
        <ele>2165.5100000000002</ele>
        <time>2016-07-09T07:42:44Z</time>
      </trkpt>
      <trkpt lat="45.848786132410169" lon="7.24476900883019">
        <ele>2163.0999999999999</ele>
        <time>2016-07-09T07:42:58Z</time>
      </trkpt>
      <trkpt lat="45.848784456029534" lon="7.244732966646552">
        <ele>2161.6599999999999</ele>
        <time>2016-07-09T07:43:02Z</time>
      </trkpt>
      <trkpt lat="45.848783785477281" lon="7.244721483439207">
        <ele>2161.6599999999999</ele>
        <time>2016-07-09T07:43:03Z</time>
      </trkpt>
      <trkpt lat="45.848812870681286" lon="7.244632551446557">
        <ele>2161.1799999999998</ele>
        <time>2016-07-09T07:43:11Z</time>
      </trkpt>
      <trkpt lat="45.848838184028864" lon="7.244563065469265">
        <ele>2160.6999999999998</ele>
        <time>2016-07-09T07:43:20Z</time>
      </trkpt>
      <trkpt lat="45.848839189857244" lon="7.244518641382456">
        <ele>2159.7399999999998</ele>
        <time>2016-07-09T07:43:24Z</time>
      </trkpt>
      <trkpt lat="45.848856624215841" lon="7.24445041269064">
        <ele>2158.3000000000002</ele>
        <time>2016-07-09T07:43:29Z</time>
      </trkpt>
      <trkpt lat="45.848890570923686" lon="7.244313284754753">
        <ele>2155.4099999999999</ele>
        <time>2016-07-09T07:43:42Z</time>
      </trkpt>
      <trkpt lat="45.848891073837876" lon="7.244198955595493">
        <ele>2152.0500000000002</ele>
        <time>2016-07-09T07:43:54Z</time>
      </trkpt>
      <trkpt lat="45.848933737725019" lon="7.244056798517704">
        <ele>2149.6500000000001</ele>
        <time>2016-07-09T07:44:05Z</time>
      </trkpt>
      <trkpt lat="45.8489606436342" lon="7.243982199579477">
        <ele>2148.6799999999998</ele>
        <time>2016-07-09T07:44:10Z</time>
      </trkpt>
      <trkpt lat="45.848990483209491" lon="7.243945905938745">
        <ele>2148.1999999999998</ele>
        <time>2016-07-09T07:44:14Z</time>
      </trkpt>
      <trkpt lat="45.849069692194462" lon="7.24395202472806">
        <ele>2149.1599999999999</ele>
        <time>2016-07-09T07:44:24Z</time>
      </trkpt>
      <trkpt lat="45.8491091709584" lon="7.243926795199513">
        <ele>2150.1300000000001</ele>
        <time>2016-07-09T07:44:34Z</time>
      </trkpt>
      <trkpt lat="45.849136160686612" lon="7.243870301172137">
        <ele>2151.0900000000001</ele>
        <time>2016-07-09T07:44:45Z</time>
      </trkpt>
      <trkpt lat="45.849138088524342" lon="7.243812801316381">
        <ele>2151.5700000000002</ele>
        <time>2016-07-09T07:44:52Z</time>
      </trkpt>
      <trkpt lat="45.849138088524342" lon="7.243716744706035">
        <ele>2150.1300000000001</ele>
        <time>2016-07-09T07:45:02Z</time>
      </trkpt>
      <trkpt lat="45.849145632237196" lon="7.24368330091238">
        <ele>2149.6500000000001</ele>
        <time>2016-07-09T07:45:06Z</time>
      </trkpt>
      <trkpt lat="45.849152421578765" lon="7.243622113019228">
        <ele>2147.7199999999998</ele>
        <time>2016-07-09T07:45:12Z</time>
      </trkpt>
      <trkpt lat="45.849180165678263" lon="7.243511639535427">
        <ele>2144.8400000000001</ele>
        <time>2016-07-09T07:45:23Z</time>
      </trkpt>
      <trkpt lat="45.849209083244205" lon="7.243402507156134">
        <ele>2142.4400000000001</ele>
        <time>2016-07-09T07:45:35Z</time>
      </trkpt>
      <trkpt lat="45.849224925041199" lon="7.243333859369159">
        <ele>2140.0300000000002</ele>
        <time>2016-07-09T07:45:45Z</time>
      </trkpt>
      <trkpt lat="45.849287789314985" lon="7.243302091956139">
        <ele>2137.6300000000001</ele>
        <time>2016-07-09T07:45:55Z</time>
      </trkpt>
      <trkpt lat="45.84935350343585" lon="7.243261691182852">
        <ele>2135.23</ele>
        <time>2016-07-09T07:46:05Z</time>
      </trkpt>
      <trkpt lat="45.849464144557714" lon="7.243209974840283">
        <ele>2132.3400000000001</ele>
        <time>2016-07-09T07:46:17Z</time>
      </trkpt>
      <trkpt lat="45.849517621099949" lon="7.243230929598212">
        <ele>2130.4200000000001</ele>
        <time>2016-07-09T07:46:28Z</time>
      </trkpt>
      <trkpt lat="45.849584927782416" lon="7.243238724768162">
        <ele>2127.0500000000002</ele>
        <time>2016-07-09T07:46:40Z</time>
      </trkpt>
      <trkpt lat="45.849614515900612" lon="7.243203604593873">
        <ele>2125.6100000000001</ele>
        <time>2016-07-09T07:46:51Z</time>
      </trkpt>
      <trkpt lat="45.849666483700275" lon="7.243173932656646">
        <ele>2122.73</ele>
        <time>2016-07-09T07:47:04Z</time>
      </trkpt>
      <trkpt lat="45.849708812311292" lon="7.243146188557148">
        <ele>2120.8099999999999</ele>
        <time>2016-07-09T07:47:13Z</time>
      </trkpt>
      <trkpt lat="45.849743848666549" lon="7.243150547146797">
        <ele>2120.3200000000002</ele>
        <time>2016-07-09T07:47:16Z</time>
      </trkpt>
      <trkpt lat="45.849846946075559" lon="7.243137219920754">
        <ele>2119.3600000000001</ele>
        <time>2016-07-09T07:47:27Z</time>
      </trkpt>
      <trkpt lat="45.849881982430816" lon="7.243069158867002">
        <ele>2118.4000000000001</ele>
        <time>2016-07-09T07:47:35Z</time>
      </trkpt>
      <trkpt lat="45.849886676296592" lon="7.243010401725769">
        <ele>2117.4400000000001</ele>
        <time>2016-07-09T07:47:41Z</time>
      </trkpt>
      <trkpt lat="45.849958090111613" lon="7.24286581389606">
        <ele>2114.0799999999999</ele>
        <time>2016-07-09T07:47:54Z</time>
      </trkpt>
      <trkpt lat="45.850027576088905" lon="7.242741761729121">
        <ele>2112.1500000000001</ele>
        <time>2016-07-09T07:48:05Z</time>
      </trkpt>
      <trkpt lat="45.850087590515614" lon="7.242655176669359">
        <ele>2111.1900000000001</ele>
        <time>2016-07-09T07:48:14Z</time>
      </trkpt>
      <trkpt lat="45.85015238262713" lon="7.242530956864357">
        <ele>2109.75</ele>
        <time>2016-07-09T07:48:25Z</time>
      </trkpt>
      <trkpt lat="45.850184904411435" lon="7.242422327399254">
        <ele>2110.23</ele>
        <time>2016-07-09T07:48:34Z</time>
      </trkpt>
      <trkpt lat="45.850192783400416" lon="7.242399109527469">
        <ele>2109.75</ele>
        <time>2016-07-09T07:48:36Z</time>
      </trkpt>
      <trkpt lat="45.850193705409765" lon="7.242376562207937">
        <ele>2109.27</ele>
        <time>2016-07-09T07:48:38Z</time>
      </trkpt>
      <trkpt lat="45.850182641297579" lon="7.242325013503432">
        <ele>2109.27</ele>
        <time>2016-07-09T07:48:43Z</time>
      </trkpt>
      <trkpt lat="45.850199488922954" lon="7.242194004356861">
        <ele>2109.27</ele>
        <time>2016-07-09T07:48:54Z</time>
      </trkpt>
      <trkpt lat="45.850214241072536" lon="7.242151591926813">
        <ele>2108.79</ele>
        <time>2016-07-09T07:49:03Z</time>
      </trkpt>
      <trkpt lat="45.850219186395407" lon="7.242145724594593">
        <ele>2108.3099999999999</ele>
        <time>2016-07-09T07:49:10Z</time>
      </trkpt>
      <trkpt lat="45.850275009870529" lon="7.241991916671395">
        <ele>2106.8699999999999</ele>
        <time>2016-07-09T07:49:21Z</time>
      </trkpt>
      <trkpt lat="45.850263442844152" lon="7.241947157308459">
        <ele>2106.3899999999999</ele>
        <time>2016-07-09T07:49:25Z</time>
      </trkpt>
      <trkpt lat="45.850334353744984" lon="7.241829643025994">
        <ele>2104.9400000000001</ele>
        <time>2016-07-09T07:49:35Z</time>
      </trkpt>
      <trkpt lat="45.850364780053496" lon="7.241728976368904">
        <ele>2103.98</ele>
        <time>2016-07-09T07:49:42Z</time>
      </trkpt>
      <trkpt lat="45.850384812802076" lon="7.241680026054382">
        <ele>2104.46</ele>
        <time>2016-07-09T07:49:46Z</time>
      </trkpt>
      <trkpt lat="45.850433930754662" lon="7.241635015234351">
        <ele>2104.46</ele>
        <time>2016-07-09T07:49:53Z</time>
      </trkpt>
      <trkpt lat="45.850462596863508" lon="7.241555890068412">
        <ele>2103.5</ele>
        <time>2016-07-09T07:49:59Z</time>
      </trkpt>
      <trkpt lat="45.850479947403073" lon="7.241488415747881">
        <ele>2102.54</ele>
        <time>2016-07-09T07:50:04Z</time>
      </trkpt>
      <trkpt lat="45.850519929081202" lon="7.241409374400973">
        <ele>2102.0599999999999</ele>
        <time>2016-07-09T07:50:10Z</time>
      </trkpt>
      <trkpt lat="45.850505093112588" lon="7.241238299757242">
        <ele>2099.6599999999999</ele>
        <time>2016-07-09T07:50:23Z</time>
      </trkpt>
      <trkpt lat="45.850572064518929" lon="7.241117265075445">
        <ele>2097.73</ele>
        <time>2016-07-09T07:50:32Z</time>
      </trkpt>
      <trkpt lat="45.85057751275599" lon="7.241111062467098">
        <ele>2097.25</ele>
        <time>2016-07-09T07:50:33Z</time>
      </trkpt>
      <trkpt lat="45.850586732849479" lon="7.241067811846733">
        <ele>2097.73</ele>
        <time>2016-07-09T07:50:43Z</time>
      </trkpt>
      <trkpt lat="45.850612130016088" lon="7.241003522649407">
        <ele>2096.77</ele>
        <time>2016-07-09T07:50:52Z</time>
      </trkpt>
      <trkpt lat="45.850615650415421" lon="7.240947782993317">
        <ele>2095.8099999999999</ele>
        <time>2016-07-09T07:50:58Z</time>
      </trkpt>
      <trkpt lat="45.850610202178359" lon="7.240875447168946">
        <ele>2094.3699999999999</ele>
        <time>2016-07-09T07:51:04Z</time>
      </trkpt>
      <trkpt lat="45.850593941286206" lon="7.24082188680768">
        <ele>2092.9299999999998</ele>
        <time>2016-07-09T07:51:09Z</time>
      </trkpt>
      <trkpt lat="45.850592348724604" lon="7.240750640630722">
        <ele>2092.4499999999998</ele>
        <time>2016-07-09T07:51:18Z</time>
      </trkpt>
      <trkpt lat="45.850549517199397" lon="7.240785760805011">
        <ele>2090.52</ele>
        <time>2016-07-09T07:51:25Z</time>
      </trkpt>
      <trkpt lat="45.850487658753991" lon="7.24078475497663">
        <ele>2088.1199999999999</ele>
        <time>2016-07-09T07:51:36Z</time>
      </trkpt>
      <trkpt lat="45.850488245487213" lon="7.240705043077469">
        <ele>2085.7199999999998</ele>
        <time>2016-07-09T07:51:44Z</time>
      </trkpt>
      <trkpt lat="45.850428398698568" lon="7.240656260401011">
        <ele>2082.8299999999999</ele>
        <time>2016-07-09T07:51:55Z</time>
      </trkpt>
      <trkpt lat="45.850399564951658" lon="7.240583589300513">
        <ele>2080.4299999999998</ele>
        <time>2016-07-09T07:52:05Z</time>
      </trkpt>
      <trkpt lat="45.850365702062845" lon="7.2404944896698">
        <ele>2077.0700000000002</ele>
        <time>2016-07-09T07:52:15Z</time>
      </trkpt>
      <trkpt lat="45.850386740639806" lon="7.240473367273808">
        <ele>2076.5900000000001</ele>
        <time>2016-07-09T07:52:17Z</time>
      </trkpt>
      <trkpt lat="45.850420938804746" lon="7.240336155518889">
        <ele>2075.6199999999999</ele>
        <time>2016-07-09T07:52:28Z</time>
      </trkpt>
      <trkpt lat="45.850428314879537" lon="7.240303549915552">
        <ele>2074.6599999999999</ele>
        <time>2016-07-09T07:52:41Z</time>
      </trkpt>
      <trkpt lat="45.850402330979705" lon="7.240206990391016">
        <ele>2073.2199999999998</ele>
        <time>2016-07-09T07:52:51Z</time>
      </trkpt>
      <trkpt lat="45.850376514717937" lon="7.240168936550617">
        <ele>2071.7800000000002</ele>
        <time>2016-07-09T07:52:55Z</time>
      </trkpt>
      <trkpt lat="45.850394703447819" lon="7.240078495815396">
        <ele>2069.8600000000001</ele>
        <time>2016-07-09T07:53:01Z</time>
      </trkpt>
      <trkpt lat="45.850406438112259" lon="7.240043543279171">
        <ele>2070.3400000000001</ele>
        <time>2016-07-09T07:53:04Z</time>
      </trkpt>
      <trkpt lat="45.850433511659503" lon="7.240008842200041">
        <ele>2069.8600000000001</ele>
        <time>2016-07-09T07:53:15Z</time>
      </trkpt>
      <trkpt lat="45.850451784208417" lon="7.239989060908556">
        <ele>2069.8600000000001</ele>
        <time>2016-07-09T07:53:32Z</time>
      </trkpt>
      <trkpt lat="45.850497968494892" lon="7.239900380373001">
        <ele>2068.8899999999999</ele>
        <time>2016-07-09T07:53:41Z</time>
      </trkpt>
      <trkpt lat="45.850555635988712" lon="7.239823685958982">
        <ele>2066.9699999999998</ele>
        <time>2016-07-09T07:53:51Z</time>
      </trkpt>
      <trkpt lat="45.850524790585041" lon="7.239831648766995">
        <ele>2066.0100000000002</ele>
        <time>2016-07-09T07:53:54Z</time>
      </trkpt>
      <trkpt lat="45.85039721801877" lon="7.239836594089866">
        <ele>2063.6100000000001</ele>
        <time>2016-07-09T07:54:07Z</time>
      </trkpt>
      <trkpt lat="45.850392775610089" lon="7.239791164174676">
        <ele>2061.1999999999998</ele>
        <time>2016-07-09T07:54:17Z</time>
      </trkpt>
      <trkpt lat="45.850396631285548" lon="7.239727461710572">
        <ele>2058.8000000000002</ele>
        <time>2016-07-09T07:54:25Z</time>
      </trkpt>
      <trkpt lat="45.850396966561675" lon="7.239684630185366">
        <ele>2057.3600000000001</ele>
        <time>2016-07-09T07:54:36Z</time>
      </trkpt>
      <trkpt lat="45.850391685962677" lon="7.239674488082528">
        <ele>2056.8800000000001</ele>
        <time>2016-07-09T07:54:37Z</time>
      </trkpt>
      <trkpt lat="45.850399229675531" lon="7.239647163078189">
        <ele>2056.4000000000001</ele>
        <time>2016-07-09T07:54:39Z</time>
      </trkpt>
      <trkpt lat="45.850469637662172" lon="7.239537695422769">
        <ele>2054.4699999999998</ele>
        <time>2016-07-09T07:54:50Z</time>
      </trkpt>
      <trkpt lat="45.850524622946978" lon="7.239462845027447">
        <ele>2052.0700000000002</ele>
        <time>2016-07-09T07:55:00Z</time>
      </trkpt>
      <trkpt lat="45.85059218108654" lon="7.239418001845479">
        <ele>2051.1100000000001</ele>
        <time>2016-07-09T07:55:07Z</time>
      </trkpt>
      <trkpt lat="45.850642807781696" lon="7.239297721534967">
        <ele>2048.71</ele>
        <time>2016-07-09T07:55:18Z</time>
      </trkpt>
      <trkpt lat="45.850701313465834" lon="7.239204766228795">
        <ele>2046.3</ele>
        <time>2016-07-09T07:55:28Z</time>
      </trkpt>
      <trkpt lat="45.850737690925598" lon="7.239120192825794">
        <ele>2043.9000000000001</ele>
        <time>2016-07-09T07:55:39Z</time>
      </trkpt>
      <trkpt lat="45.850727213546634" lon="7.239120444282889">
        <ele>2043.9000000000001</ele>
        <time>2016-07-09T07:55:40Z</time>
      </trkpt>
      <trkpt lat="45.850622607395053" lon="7.239129915833473">
        <ele>2041.5</ele>
        <time>2016-07-09T07:55:51Z</time>
      </trkpt>
      <trkpt lat="45.850523030385375" lon="7.239120779559016">
        <ele>2038.1300000000001</ele>
        <time>2016-07-09T07:56:04Z</time>
      </trkpt>
      <trkpt lat="45.850444743409753" lon="7.239124216139317">
        <ele>2035.25</ele>
        <time>2016-07-09T07:56:13Z</time>
      </trkpt>
      <trkpt lat="45.850355559960008" lon="7.239105021581054">
        <ele>2032.3599999999999</ele>
        <time>2016-07-09T07:56:24Z</time>
      </trkpt>
      <trkpt lat="45.850260341539979" lon="7.239102423191071">
        <ele>2029.96</ele>
        <time>2016-07-09T07:56:35Z</time>
      </trkpt>
      <trkpt lat="45.850288085639477" lon="7.239019442349672">
        <ele>2028.52</ele>
        <time>2016-07-09T07:56:43Z</time>
      </trkpt>
      <trkpt lat="45.850306274369359" lon="7.238994548097253">
        <ele>2028.04</ele>
        <time>2016-07-09T07:56:45Z</time>
      </trkpt>
      <trkpt lat="45.850322283804417" lon="7.23894995637238">
        <ele>2026.5999999999999</ele>
        <time>2016-07-09T07:56:49Z</time>
      </trkpt>
      <trkpt lat="45.850330833345652" lon="7.238933360204101">
        <ele>2026.5999999999999</ele>
        <time>2016-07-09T07:56:50Z</time>
      </trkpt>
      <trkpt lat="45.850405097007751" lon="7.23881458863616">
        <ele>2024.1900000000001</ele>
        <time>2016-07-09T07:57:00Z</time>
      </trkpt>
      <trkpt lat="45.850448179990053" lon="7.238723309710622">
        <ele>2021.79</ele>
        <time>2016-07-09T07:57:10Z</time>
      </trkpt>
      <trkpt lat="45.85048858076334" lon="7.238626414909959">
        <ele>2018.4300000000001</ele>
        <time>2016-07-09T07:57:21Z</time>
      </trkpt>
      <trkpt lat="45.850564436987042" lon="7.23856003023684">
        <ele>2016.02</ele>
        <time>2016-07-09T07:57:31Z</time>
      </trkpt>
      <trkpt lat="45.850570304319263" lon="7.238545445725322">
        <ele>2015.0599999999999</ele>
        <time>2016-07-09T07:57:33Z</time>
      </trkpt>
      <trkpt lat="45.850640377029777" lon="7.238516695797443">
        <ele>2014.5799999999999</ele>
        <time>2016-07-09T07:57:42Z</time>
      </trkpt>
      <trkpt lat="45.850705839693546" lon="7.238487778231502">
        <ele>2012.1800000000001</ele>
        <time>2016-07-09T07:57:51Z</time>
      </trkpt>
      <trkpt lat="45.850752778351307" lon="7.238477300852537">
        <ele>2011.7</ele>
        <time>2016-07-09T07:57:58Z</time>
      </trkpt>
      <trkpt lat="45.850834250450134" lon="7.238431954756379">
        <ele>2009.77</ele>
        <time>2016-07-09T07:58:08Z</time>
      </trkpt>
      <trkpt lat="45.850951429456472" lon="7.238357355818152">
        <ele>2007.3699999999999</ele>
        <time>2016-07-09T07:58:21Z</time>
      </trkpt>
      <trkpt lat="45.851012784987688" lon="7.238281751051545">
        <ele>2005.45</ele>
        <time>2016-07-09T07:58:29Z</time>
      </trkpt>
      <trkpt lat="45.851037008687854" lon="7.238237913697958">
        <ele>2004.01</ele>
        <time>2016-07-09T07:58:34Z</time>
      </trkpt>
      <trkpt lat="45.851074811071157" lon="7.238214444369078">
        <ele>2003.04</ele>
        <time>2016-07-09T07:58:38Z</time>
      </trkpt>
      <trkpt lat="45.851096017286181" lon="7.238141354173422">
        <ele>2001.1199999999999</ele>
        <time>2016-07-09T07:58:44Z</time>
      </trkpt>
      <trkpt lat="45.851179333403707" lon="7.238041944801807">
        <ele>1998.24</ele>
        <time>2016-07-09T07:58:55Z</time>
      </trkpt>
      <trkpt lat="45.851203808560967" lon="7.238019732758403">
        <ele>1997.76</ele>
        <time>2016-07-09T07:58:59Z</time>
      </trkpt>
      <trkpt lat="45.85128796286881" lon="7.237907247617841">
        <ele>1994.8699999999999</ele>
        <time>2016-07-09T07:59:11Z</time>
      </trkpt>
      <trkpt lat="45.851321909576654" lon="7.23786860704422">
        <ele>1991.99</ele>
        <time>2016-07-09T07:59:20Z</time>
      </trkpt>
      <trkpt lat="45.851348312571645" lon="7.237800126895309">
        <ele>1989.0999999999999</ele>
        <time>2016-07-09T07:59:30Z</time>
      </trkpt>
      <trkpt lat="45.851333811879158" lon="7.237726366147399">
        <ele>1986.7</ele>
        <time>2016-07-09T07:59:40Z</time>
      </trkpt>
      <trkpt lat="45.851317383348942" lon="7.237731143832207">
        <ele>1986.22</ele>
        <time>2016-07-09T07:59:45Z</time>
      </trkpt>
      <trkpt lat="45.851208167150617" lon="7.237745225429535">
        <ele>1983.3399999999999</ele>
        <time>2016-07-09T07:59:58Z</time>
      </trkpt>
      <trkpt lat="45.851219147443771" lon="7.237665513530374">
        <ele>1981.4100000000001</ele>
        <time>2016-07-09T08:00:08Z</time>
      </trkpt>
      <trkpt lat="45.851223841309547" lon="7.2376589756459">
        <ele>1981.4100000000001</ele>
        <time>2016-07-09T08:00:24Z</time>
      </trkpt>
      <trkpt lat="45.851191654801369" lon="7.237678673118353">
        <ele>1980.9300000000001</ele>
        <time>2016-07-09T08:00:33Z</time>
      </trkpt>
      <trkpt lat="45.851157708093524" lon="7.237674314528704">
        <ele>1979.97</ele>
        <time>2016-07-09T08:00:43Z</time>
      </trkpt>
      <trkpt lat="45.851152678951621" lon="7.237672638148069">
        <ele>1979.01</ele>
        <time>2016-07-09T08:01:00Z</time>
      </trkpt>
      <trkpt lat="45.851141531020403" lon="7.237687055021524">
        <ele>1979.01</ele>
        <time>2016-07-09T08:01:10Z</time>
      </trkpt>
      <trkpt lat="45.851123090833426" lon="7.237699795514345">
        <ele>1978.53</ele>
        <time>2016-07-09T08:01:21Z</time>
      </trkpt>
      <trkpt lat="45.851114289835095" lon="7.237733490765095">
        <ele>1977.5699999999999</ele>
        <time>2016-07-09T08:01:30Z</time>
      </trkpt>
      <trkpt lat="45.85113013163209" lon="7.237716559320688">
        <ele>1978.05</ele>
        <time>2016-07-09T08:01:43Z</time>
      </trkpt>
      <trkpt lat="45.851038182154298" lon="7.237740531563759">
        <ele>1976.6099999999999</ele>
        <time>2016-07-09T08:01:54Z</time>
      </trkpt>
      <trkpt lat="45.851067854091525" lon="7.23766727373004">
        <ele>1975.6500000000001</ele>
        <time>2016-07-09T08:02:04Z</time>
      </trkpt>
      <trkpt lat="45.851077409461141" lon="7.237665262073278">
        <ele>1975.1700000000001</ele>
        <time>2016-07-09T08:02:16Z</time>
      </trkpt>
      <trkpt lat="45.851048575714231" lon="7.237623771652579">
        <ele>1972.76</ele>
        <time>2016-07-09T08:02:25Z</time>
      </trkpt>
      <trkpt lat="45.85101286880672" lon="7.237641457468271">
        <ele>1973.24</ele>
        <time>2016-07-09T08:02:35Z</time>
      </trkpt>
      <trkpt lat="45.85092443972826" lon="7.237582448869944">
        <ele>1971.3199999999999</ele>
        <time>2016-07-09T08:02:47Z</time>
      </trkpt>
      <trkpt lat="45.850902982056141" lon="7.237562164664269">
        <ele>1971.3199999999999</ele>
        <time>2016-07-09T08:02:50Z</time>
      </trkpt>
      <trkpt lat="45.850791418924928" lon="7.237549088895321">
        <ele>1969.8800000000001</ele>
        <time>2016-07-09T08:03:02Z</time>
      </trkpt>
      <trkpt lat="45.850694105029106" lon="7.237541377544403">
        <ele>1969.8800000000001</ele>
        <time>2016-07-09T08:03:12Z</time>
      </trkpt>
      <trkpt lat="45.850668624043465" lon="7.237524362280965">
        <ele>1969.4000000000001</ele>
        <time>2016-07-09T08:03:15Z</time>
      </trkpt>
      <trkpt lat="45.85066300816834" lon="7.237430401146412">
        <ele>1967.48</ele>
        <time>2016-07-09T08:03:27Z</time>
      </trkpt>
      <trkpt lat="45.850733583793044" lon="7.237389162182808">
        <ele>1965.55</ele>
        <time>2016-07-09T08:03:35Z</time>
      </trkpt>
      <trkpt lat="45.850828131660819" lon="7.237321687862277">
        <ele>1963.6300000000001</ele>
        <time>2016-07-09T08:03:46Z</time>
      </trkpt>
      <trkpt lat="45.850880267098546" lon="7.237285897135735">
        <ele>1961.71</ele>
        <time>2016-07-09T08:03:53Z</time>
      </trkpt>
      <trkpt lat="45.850891917943954" lon="7.23727541975677">
        <ele>1962.6700000000001</ele>
        <time>2016-07-09T08:03:55Z</time>
      </trkpt>
      <trkpt lat="45.850909687578678" lon="7.237264355644584">
        <ele>1962.1900000000001</ele>
        <time>2016-07-09T08:03:57Z</time>
      </trkpt>
      <trkpt lat="45.850980682298541" lon="7.237205766141415">
        <ele>1959.78</ele>
        <time>2016-07-09T08:04:08Z</time>
      </trkpt>
      <trkpt lat="45.850940030068159" lon="7.23721825517714">
        <ele>1958.8199999999999</ele>
        <time>2016-07-09T08:04:18Z</time>
      </trkpt>
      <trkpt lat="45.850966768339276" lon="7.237153043970466">
        <ele>1956.4200000000001</ele>
        <time>2016-07-09T08:04:27Z</time>
      </trkpt>
      <trkpt lat="45.850965594872832" lon="7.237120606005192">
        <ele>1954.5</ele>
        <time>2016-07-09T08:04:38Z</time>
      </trkpt>
      <trkpt lat="45.850885380059481" lon="7.237140638753772">
        <ele>1952.5699999999999</ele>
        <time>2016-07-09T08:04:47Z</time>
      </trkpt>
      <trkpt lat="45.850839782506227" lon="7.237165616825223">
        <ele>1952.5699999999999</ele>
        <time>2016-07-09T08:04:51Z</time>
      </trkpt>
      <trkpt lat="45.850746994838119" lon="7.237115912139416">
        <ele>1950.6500000000001</ele>
        <time>2016-07-09T08:05:01Z</time>
      </trkpt>
      <trkpt lat="45.850646998733282" lon="7.237136028707027">
        <ele>1949.21</ele>
        <time>2016-07-09T08:05:13Z</time>
      </trkpt>
      <trkpt lat="45.850559240207076" lon="7.237130496650934">
        <ele>1946.3299999999999</ele>
        <time>2016-07-09T08:05:25Z</time>
      </trkpt>
      <trkpt lat="45.850481288507581" lon="7.237112643197179">
        <ele>1943.9200000000001</ele>
        <time>2016-07-09T08:05:36Z</time>
      </trkpt>
      <trkpt lat="45.850428733974695" lon="7.237131502479315">
        <ele>1942.96</ele>
        <time>2016-07-09T08:05:41Z</time>
      </trkpt>
      <trkpt lat="45.850452790036798" lon="7.237048102542758">
        <ele>1942.48</ele>
        <time>2016-07-09T08:05:45Z</time>
      </trkpt>
      <trkpt lat="45.85050618276" lon="7.23696805536747">
        <ele>1939.1199999999999</ele>
        <time>2016-07-09T08:05:57Z</time>
      </trkpt>
      <trkpt lat="45.850448263809085" lon="7.236949363723397">
        <ele>1938.6400000000001</ele>
        <time>2016-07-09T08:06:02Z</time>
      </trkpt>
      <trkpt lat="45.85031021386385" lon="7.236970737576485">
        <ele>1935.27</ele>
        <time>2016-07-09T08:06:14Z</time>
      </trkpt>
      <trkpt lat="45.850249445065856" lon="7.236940478906035">
        <ele>1932.8699999999999</ele>
        <time>2016-07-09T08:06:23Z</time>
      </trkpt>
      <trkpt lat="45.850185742601752" lon="7.23689085803926">
        <ele>1930.46</ele>
        <time>2016-07-09T08:06:33Z</time>
      </trkpt>
      <trkpt lat="45.850123213604093" lon="7.236844757571816">
        <ele>1928.0599999999999</ele>
        <time>2016-07-09T08:06:43Z</time>
      </trkpt>
      <trkpt lat="45.850098235532641" lon="7.236744007095695">
        <ele>1925.1800000000001</ele>
        <time>2016-07-09T08:06:53Z</time>
      </trkpt>
      <trkpt lat="45.850151795893908" lon="7.236654153093696">
        <ele>1923.25</ele>
        <time>2016-07-09T08:07:02Z</time>
      </trkpt>
      <trkpt lat="45.85018121637404" lon="7.236628755927086">
        <ele>1922.29</ele>
        <time>2016-07-09T08:07:05Z</time>
      </trkpt>
      <trkpt lat="45.85029998794198" lon="7.236594557762146">
        <ele>1920.8499999999999</ele>
        <time>2016-07-09T08:07:17Z</time>
      </trkpt>
      <trkpt lat="45.850312141701579" lon="7.236597910523415">
        <ele>1920.8499999999999</ele>
        <time>2016-07-09T08:07:18Z</time>
      </trkpt>
      <trkpt lat="45.850395709276199" lon="7.236595395952463">
        <ele>1919.8900000000001</ele>
        <time>2016-07-09T08:07:24Z</time>
      </trkpt>
      <trkpt lat="45.850481623783708" lon="7.236576620489359">
        <ele>1919.4100000000001</ele>
        <time>2016-07-09T08:07:34Z</time>
      </trkpt>
      <trkpt lat="45.850501656532288" lon="7.236525490880013">
        <ele>1917.01</ele>
        <time>2016-07-09T08:07:43Z</time>
      </trkpt>
      <trkpt lat="45.85042554885149" lon="7.236483246088028">
        <ele>1914.1199999999999</ele>
        <time>2016-07-09T08:07:54Z</time>
      </trkpt>
      <trkpt lat="45.850336700677872" lon="7.236324492841959">
        <ele>1911.24</ele>
        <time>2016-07-09T08:08:08Z</time>
      </trkpt>
      <trkpt lat="45.850282972678542" lon="7.236232962459326">
        <ele>1908.8299999999999</ele>
        <time>2016-07-09T08:08:20Z</time>
      </trkpt>
      <trkpt lat="45.850245673209429" lon="7.236158447340131">
        <ele>1905.47</ele>
        <time>2016-07-09T08:08:29Z</time>
      </trkpt>
      <trkpt lat="45.850151544436812" lon="7.236150233075023">
        <ele>1902.1099999999999</ele>
        <time>2016-07-09T08:08:41Z</time>
      </trkpt>
      <trkpt lat="45.850101672112942" lon="7.236150065436959">
        <ele>1900.1800000000001</ele>
        <time>2016-07-09T08:08:48Z</time>
      </trkpt>
      <trkpt lat="45.850003771483898" lon="7.236150652170181">
        <ele>1897.78</ele>
        <time>2016-07-09T08:09:00Z</time>
      </trkpt>
      <trkpt lat="45.849887179210782" lon="7.236139588057995">
        <ele>1895.3800000000001</ele>
        <time>2016-07-09T08:09:12Z</time>
      </trkpt>
      <trkpt lat="45.84979715757072" lon="7.236110754311085">
        <ele>1892.49</ele>
        <time>2016-07-09T08:09:25Z</time>
      </trkpt>
      <trkpt lat="45.84968919865787" lon="7.23613983951509">
        <ele>1890.0899999999999</ele>
        <time>2016-07-09T08:09:36Z</time>
      </trkpt>
      <trkpt lat="45.849611079320312" lon="7.236132044345141">
        <ele>1888.6500000000001</ele>
        <time>2016-07-09T08:09:46Z</time>
      </trkpt>
      <trkpt lat="45.84953086450696" lon="7.236151238903403">
        <ele>1885.76</ele>
        <time>2016-07-09T08:09:56Z</time>
      </trkpt>
      <trkpt lat="45.849476549774408" lon="7.236160291358829">
        <ele>1884.3199999999999</ele>
        <time>2016-07-09T08:10:01Z</time>
      </trkpt>
      <trkpt lat="45.849340511485934" lon="7.236231788992882">
        <ele>1882.4000000000001</ele>
        <time>2016-07-09T08:10:14Z</time>
      </trkpt>
      <trkpt lat="45.849246131256223" lon="7.236327677965164">
        <ele>1880.48</ele>
        <time>2016-07-09T08:10:25Z</time>
      </trkpt>
      <trkpt lat="45.849181590601802" lon="7.236404707655311">
        <ele>1879.51</ele>
        <time>2016-07-09T08:10:35Z</time>
      </trkpt>
      <trkpt lat="45.849128700792789" lon="7.23638609983027">
        <ele>1878.55</ele>
        <time>2016-07-09T08:10:43Z</time>
      </trkpt>
      <trkpt lat="45.848986208438873" lon="7.23629523999989">
        <ele>1876.6300000000001</ele>
        <time>2016-07-09T08:10:54Z</time>
      </trkpt>
      <trkpt lat="45.848866095766425" lon="7.23626347258687">
        <ele>1875.1900000000001</ele>
        <time>2016-07-09T08:11:06Z</time>
      </trkpt>
      <trkpt lat="45.848755035549402" lon="7.236266825348139">
        <ele>1873.75</ele>
        <time>2016-07-09T08:11:18Z</time>
      </trkpt>
      <trkpt lat="45.848754616454244" lon="7.236247211694717">
        <ele>1873.27</ele>
        <time>2016-07-09T08:11:30Z</time>
      </trkpt>
      <trkpt lat="45.848705247044563" lon="7.236248636618257">
        <ele>1872.3</ele>
        <time>2016-07-09T08:11:44Z</time>
      </trkpt>
      <trkpt lat="45.848697703331709" lon="7.236249055713415">
        <ele>1872.3</ele>
        <time>2016-07-09T08:11:45Z</time>
      </trkpt>
      <trkpt lat="45.848631067201495" lon="7.236232375726104">
        <ele>1872.79</ele>
        <time>2016-07-09T08:11:54Z</time>
      </trkpt>
      <trkpt lat="45.848637521266937" lon="7.2361911367625">
        <ele>1871.8199999999999</ele>
        <time>2016-07-09T08:12:05Z</time>
      </trkpt>
      <trkpt lat="45.848654620349407" lon="7.236221898347139">
        <ele>1870.8599999999999</ele>
        <time>2016-07-09T08:12:17Z</time>
      </trkpt>
      <trkpt lat="45.848674066364765" lon="7.236195746809244">
        <ele>1870.3800000000001</ele>
        <time>2016-07-09T08:12:27Z</time>
      </trkpt>
      <trkpt lat="45.848659984767437" lon="7.23623656667769">
        <ele>1870.8599999999999</ele>
        <time>2016-07-09T08:12:36Z</time>
      </trkpt>
      <trkpt lat="45.848672389984131" lon="7.236209325492382">
        <ele>1870.3800000000001</ele>
        <time>2016-07-09T08:12:48Z</time>
      </trkpt>
      <trkpt lat="45.848671048879623" lon="7.236197758466005">
        <ele>1870.3800000000001</ele>
        <time>2016-07-09T08:13:08Z</time>
      </trkpt>
      <trkpt lat="45.848664762452245" lon="7.236198848113418">
        <ele>1869.9000000000001</ele>
        <time>2016-07-09T08:13:26Z</time>
      </trkpt>
      <trkpt lat="45.848662164062262" lon="7.236184263601899">
        <ele>1869.9000000000001</ele>
        <time>2016-07-09T08:13:39Z</time>
      </trkpt>
      <trkpt lat="45.848660739138722" lon="7.236195243895054">
        <ele>1869.9000000000001</ele>
        <time>2016-07-09T08:13:49Z</time>
      </trkpt>
      <trkpt lat="45.848664091899991" lon="7.236198429018259">
        <ele>1869.9000000000001</ele>
        <time>2016-07-09T08:13:59Z</time>
      </trkpt>
      <trkpt lat="45.848666522651911" lon="7.236217707395554">
        <ele>1869.4200000000001</ele>
        <time>2016-07-09T08:14:08Z</time>
      </trkpt>
      <trkpt lat="45.848615141585469" lon="7.2361877001822">
        <ele>1869.4200000000001</ele>
        <time>2016-07-09T08:14:38Z</time>
      </trkpt>
      <trkpt lat="45.848671048879623" lon="7.236244948580861">
        <ele>1869.9000000000001</ele>
        <time>2016-07-09T08:15:11Z</time>
      </trkpt>
      <trkpt lat="45.848666187375784" lon="7.236245451495051">
        <ele>1869.4200000000001</ele>
        <time>2016-07-09T08:15:38Z</time>
      </trkpt>
      <trkpt lat="45.84867867641151" lon="7.236222652718425">
        <ele>1869.4200000000001</ele>
        <time>2016-07-09T08:16:06Z</time>
      </trkpt>
      <trkpt lat="45.848625618964434" lon="7.23616280592978">
        <ele>1869.4200000000001</ele>
        <time>2016-07-09T08:16:32Z</time>
      </trkpt>
      <trkpt lat="45.848634587600827" lon="7.236225586384535">
        <ele>1868.46</ele>
        <time>2016-07-09T08:16:57Z</time>
      </trkpt>
      <trkpt lat="45.848663421347737" lon="7.236229944974184">
        <ele>1868.46</ele>
        <time>2016-07-09T08:17:19Z</time>
      </trkpt>
      <trkpt lat="45.848638443276286" lon="7.23621460609138">
        <ele>1867.98</ele>
        <time>2016-07-09T08:17:37Z</time>
      </trkpt>
      <trkpt lat="45.848618913441896" lon="7.236220138147473">
        <ele>1867.5</ele>
        <time>2016-07-09T08:17:58Z</time>
      </trkpt>
      <trkpt lat="45.848629139363766" lon="7.236225083470345">
        <ele>1867.98</ele>
        <time>2016-07-09T08:18:22Z</time>
      </trkpt>
      <trkpt lat="45.848615979775786" lon="7.236194154247642">
        <ele>1867.98</ele>
        <time>2016-07-09T08:18:54Z</time>
      </trkpt>
      <trkpt lat="45.848620422184467" lon="7.236174959689379">
        <ele>1869.4200000000001</ele>
        <time>2016-07-09T08:19:16Z</time>
      </trkpt>
      <trkpt lat="45.848641879856586" lon="7.236219216138125">
        <ele>1867.98</ele>
        <time>2016-07-09T08:19:40Z</time>
      </trkpt>
      <trkpt lat="45.848640706390142" lon="7.236238410696387">
        <ele>1867.98</ele>
        <time>2016-07-09T08:20:04Z</time>
      </trkpt>
      <trkpt lat="45.848640454933047" lon="7.236218294128776">
        <ele>1867.5</ele>
        <time>2016-07-09T08:20:29Z</time>
      </trkpt>
      <trkpt lat="45.848620757460594" lon="7.236207984387875">
        <ele>1867.02</ele>
        <time>2016-07-09T08:20:53Z</time>
      </trkpt>
      <trkpt lat="45.848629055544734" lon="7.236177977174521">
        <ele>1867.5</ele>
        <time>2016-07-09T08:21:22Z</time>
      </trkpt>
      <trkpt lat="45.848644394427538" lon="7.236200859770179">
        <ele>1867.02</ele>
        <time>2016-07-09T08:21:47Z</time>
      </trkpt>
      <trkpt lat="45.848649172112346" lon="7.236230196431279">
        <ele>1867.5</ele>
        <time>2016-07-09T08:22:19Z</time>
      </trkpt>
      <trkpt lat="45.84865428507328" lon="7.236243607476354">
        <ele>1867.02</ele>
        <time>2016-07-09T08:22:49Z</time>
      </trkpt>
      <trkpt lat="45.848666941747069" lon="7.236246122047305">
        <ele>1867.02</ele>
        <time>2016-07-09T08:23:26Z</time>
      </trkpt>
      <trkpt lat="45.848656380549073" lon="7.236229442059994">
        <ele>1866.54</ele>
        <time>2016-07-09T08:23:53Z</time>
      </trkpt>
      <trkpt lat="45.848639784380794" lon="7.236218294128776">
        <ele>1866.54</ele>
        <time>2016-07-09T08:24:31Z</time>
      </trkpt>
      <trkpt lat="45.848646992817521" lon="7.236236315220594">
        <ele>1866.54</ele>
        <time>2016-07-09T08:24:56Z</time>
      </trkpt>
      <trkpt lat="45.848653027787805" lon="7.236246708780527">
        <ele>1866.54</ele>
        <time>2016-07-09T08:25:35Z</time>
      </trkpt>
      <trkpt lat="45.848658978939056" lon="7.236224161460996">
        <ele>1866.0599999999999</ele>
        <time>2016-07-09T08:26:08Z</time>
      </trkpt>
      <trkpt lat="45.848634168505669" lon="7.236214019358158">
        <ele>1865.5799999999999</ele>
        <time>2016-07-09T08:26:47Z</time>
      </trkpt>
      <trkpt lat="45.848641796037555" lon="7.236210247501731">
        <ele>1866.0599999999999</ele>
        <time>2016-07-09T08:27:21Z</time>
      </trkpt>
      <trkpt lat="45.848651016131043" lon="7.236238578334451">
        <ele>1864.6099999999999</ele>
        <time>2016-07-09T08:27:51Z</time>
      </trkpt>
      <trkpt lat="45.848646657541394" lon="7.236208487302065">
        <ele>1865.0899999999999</ele>
        <time>2016-07-09T08:28:20Z</time>
      </trkpt>
      <trkpt lat="45.848620338365436" lon="7.236204715445638">
        <ele>1865.5799999999999</ele>
        <time>2016-07-09T08:28:55Z</time>
      </trkpt>
      <trkpt lat="45.848644142970443" lon="7.236224077641964">
        <ele>1865.0899999999999</ele>
        <time>2016-07-09T08:29:24Z</time>
      </trkpt>
      <trkpt lat="45.848645651713014" lon="7.236224832013249">
        <ele>1865.0899999999999</ele>
        <time>2016-07-09T08:29:55Z</time>
      </trkpt>
      <trkpt lat="45.848631067201495" lon="7.236235309392214">
        <ele>1865.5799999999999</ele>
        <time>2016-07-09T08:30:28Z</time>
      </trkpt>
      <trkpt lat="45.848626960068941" lon="7.236217791214585">
        <ele>1864.6099999999999</ele>
        <time>2016-07-09T08:31:01Z</time>
      </trkpt>
      <trkpt lat="45.848635844886303" lon="7.236203709617257">
        <ele>1864.1300000000001</ele>
        <time>2016-07-09T08:31:39Z</time>
      </trkpt>
      <trkpt lat="45.8486342523247" lon="7.236208906397224">
        <ele>1864.6099999999999</ele>
        <time>2016-07-09T08:31:56Z</time>
      </trkpt>
      <trkpt lat="45.848678257316351" lon="7.236242182552815">
        <ele>1864.1300000000001</ele>
        <time>2016-07-09T08:32:35Z</time>
      </trkpt>
      <trkpt lat="45.848664427176118" lon="7.23621167242527">
        <ele>1864.6099999999999</ele>
        <time>2016-07-09T08:33:02Z</time>
      </trkpt>
      <trkpt lat="45.848671216517687" lon="7.236245619133115">
        <ele>1864.1300000000001</ele>
        <time>2016-07-09T08:33:31Z</time>
      </trkpt>
      <trkpt lat="45.848658056929708" lon="7.236226592212915">
        <ele>1864.1300000000001</ele>
        <time>2016-07-09T08:33:53Z</time>
      </trkpt>
      <trkpt lat="45.84863567724824" lon="7.236212259158492">
        <ele>1864.6099999999999</ele>
        <time>2016-07-09T08:34:13Z</time>
      </trkpt>
      <trkpt lat="45.848618829622865" lon="7.236202200874686">
        <ele>1863.6500000000001</ele>
        <time>2016-07-09T08:34:40Z</time>
      </trkpt>
      <trkpt lat="45.848628217354417" lon="7.236224832013249">
        <ele>1864.1300000000001</ele>
        <time>2016-07-09T08:35:02Z</time>
      </trkpt>
      <trkpt lat="45.848614303395152" lon="7.236201614141464">
        <ele>1864.6099999999999</ele>
        <time>2016-07-09T08:35:28Z</time>
      </trkpt>
      <trkpt lat="45.84862251766026" lon="7.236188370734453">
        <ele>1863.6500000000001</ele>
        <time>2016-07-09T08:36:01Z</time>
      </trkpt>
      <trkpt lat="45.848624110221863" lon="7.236217288300395">
        <ele>1864.1300000000001</ele>
        <time>2016-07-09T08:36:31Z</time>
      </trkpt>
      <trkpt lat="45.848613046109676" lon="7.23621946759522">
        <ele>1863.6500000000001</ele>
        <time>2016-07-09T08:36:59Z</time>
      </trkpt>
      <trkpt lat="45.848577171564102" lon="7.236213767901063">
        <ele>1864.6099999999999</ele>
        <time>2016-07-09T08:37:27Z</time>
      </trkpt>
      <trkpt lat="45.848570130765438" lon="7.23617403768003">
        <ele>1863.6500000000001</ele>
        <time>2016-07-09T08:38:00Z</time>
      </trkpt>
      <trkpt lat="45.848595360293984" lon="7.236193232238293">
        <ele>1863.6500000000001</ele>
        <time>2016-07-09T08:38:27Z</time>
      </trkpt>
      <trkpt lat="45.848589828237891" lon="7.236193735152483">
        <ele>1863.6500000000001</ele>
        <time>2016-07-09T08:38:59Z</time>
      </trkpt>
      <trkpt lat="45.848608519881964" lon="7.23620236851275">
        <ele>1863.6500000000001</ele>
        <time>2016-07-09T08:39:27Z</time>
      </trkpt>
      <trkpt lat="45.848591839894652" lon="7.236217623576522">
        <ele>1863.6500000000001</ele>
        <time>2016-07-09T08:40:03Z</time>
      </trkpt>
      <trkpt lat="45.848598713055253" lon="7.236179234459996">
        <ele>1864.6099999999999</ele>
        <time>2016-07-09T08:40:34Z</time>
      </trkpt>
      <trkpt lat="45.848589995875955" lon="7.236205385997891">
        <ele>1863.6500000000001</ele>
        <time>2016-07-09T08:40:59Z</time>
      </trkpt>
      <trkpt lat="45.848613968119025" lon="7.236182168126106">
        <ele>1864.1300000000001</ele>
        <time>2016-07-09T08:41:29Z</time>
      </trkpt>
      <trkpt lat="45.848616315051913" lon="7.236214438453317">
        <ele>1864.6099999999999</ele>
        <time>2016-07-09T08:41:52Z</time>
      </trkpt>
      <trkpt lat="45.848609777167439" lon="7.236223826184869">
        <ele>1864.1300000000001</ele>
        <time>2016-07-09T08:42:22Z</time>
      </trkpt>
      <trkpt lat="45.848594857379794" lon="7.236191220581532">
        <ele>1863.6500000000001</ele>
        <time>2016-07-09T08:42:53Z</time>
      </trkpt>
      <trkpt lat="45.848582535982132" lon="7.236210247501731">
        <ele>1864.6099999999999</ele>
        <time>2016-07-09T08:43:25Z</time>
      </trkpt>
      <trkpt lat="45.848598126322031" lon="7.236206224188209">
        <ele>1864.1300000000001</ele>
        <time>2016-07-09T08:43:54Z</time>
      </trkpt>
      <trkpt lat="45.848592091351748" lon="7.236212259158492">
        <ele>1864.1300000000001</ele>
        <time>2016-07-09T08:44:26Z</time>
      </trkpt>
      <trkpt lat="45.848592007532716" lon="7.236195746809244">
        <ele>1864.6099999999999</ele>
        <time>2016-07-09T08:44:49Z</time>
      </trkpt>
      <trkpt lat="45.84862545132637" lon="7.236205218359828">
        <ele>1864.1300000000001</ele>
        <time>2016-07-09T08:45:13Z</time>
      </trkpt>
      <trkpt lat="45.848620506003499" lon="7.236218461766839">
        <ele>1863.6500000000001</ele>
        <time>2016-07-09T08:45:39Z</time>
      </trkpt>
      <trkpt lat="45.848626373335719" lon="7.236218964681029">
        <ele>1864.6099999999999</ele>
        <time>2016-07-09T08:46:02Z</time>
      </trkpt>
      <trkpt lat="45.848628468811512" lon="7.236235644668341">
        <ele>1865.0899999999999</ele>
        <time>2016-07-09T08:46:34Z</time>
      </trkpt>
      <trkpt lat="45.848615476861596" lon="7.236235057935119">
        <ele>1864.1300000000001</ele>
        <time>2016-07-09T08:46:58Z</time>
      </trkpt>
      <trkpt lat="45.848589492961764" lon="7.236206643283367">
        <ele>1864.1300000000001</ele>
        <time>2016-07-09T08:47:25Z</time>
      </trkpt>
      <trkpt lat="45.848615393042564" lon="7.23623514175415">
        <ele>1864.1300000000001</ele>
        <time>2016-07-09T08:47:55Z</time>
      </trkpt>
      <trkpt lat="45.84862008690834" lon="7.236227849498391">
        <ele>1864.6099999999999</ele>
        <time>2016-07-09T08:48:30Z</time>
      </trkpt>
      <trkpt lat="45.848632827401161" lon="7.236179737374187">
        <ele>1865.5799999999999</ele>
        <time>2016-07-09T08:48:42Z</time>
      </trkpt>
      <trkpt lat="45.848649172112346" lon="7.236176300793886">
        <ele>1865.5799999999999</ele>
        <time>2016-07-09T08:48:53Z</time>
      </trkpt>
      <trkpt lat="45.848652860149741" lon="7.236194908618927">
        <ele>1865.5799999999999</ele>
        <time>2016-07-09T08:49:05Z</time>
      </trkpt>
      <trkpt lat="45.848679598420858" lon="7.236194405704737">
        <ele>1865.0899999999999</ele>
        <time>2016-07-09T08:49:20Z</time>
      </trkpt>
      <trkpt lat="45.848684040829539" lon="7.23621946759522">
        <ele>1865.0899999999999</ele>
        <time>2016-07-09T08:49:35Z</time>
      </trkpt>
      <trkpt lat="45.848665852099657" lon="7.236175965517759">
        <ele>1864.6099999999999</ele>
        <time>2016-07-09T08:49:54Z</time>
      </trkpt>
      <trkpt lat="45.84866258315742" lon="7.236158195883036">
        <ele>1864.6099999999999</ele>
        <time>2016-07-09T08:50:04Z</time>
      </trkpt>
      <trkpt lat="45.848653614521027" lon="7.236159034073353">
        <ele>1865.0899999999999</ele>
        <time>2016-07-09T08:50:19Z</time>
      </trkpt>
      <trkpt lat="45.848635593429208" lon="7.236145287752152">
        <ele>1865.0899999999999</ele>
        <time>2016-07-09T08:50:33Z</time>
      </trkpt>
      <trkpt lat="45.848612291738391" lon="7.236120561137795">
        <ele>1863.1700000000001</ele>
        <time>2016-07-09T08:50:44Z</time>
      </trkpt>
      <trkpt lat="45.848608184605837" lon="7.236118214204907">
        <ele>1863.1700000000001</ele>
        <time>2016-07-09T08:50:45Z</time>
      </trkpt>
      <trkpt lat="45.848580524325371" lon="7.236101618036628">
        <ele>1861.73</ele>
        <time>2016-07-09T08:50:49Z</time>
      </trkpt>
      <trkpt lat="45.848499722778797" lon="7.236042777076364">
        <ele>1860.77</ele>
        <time>2016-07-09T08:51:00Z</time>
      </trkpt>
      <trkpt lat="45.848474660888314" lon="7.236028695479035">
        <ele>1860.29</ele>
        <time>2016-07-09T08:51:04Z</time>
      </trkpt>
      <trkpt lat="45.848440211266279" lon="7.235995754599571">
        <ele>1859.8099999999999</ele>
        <time>2016-07-09T08:51:15Z</time>
      </trkpt>
      <trkpt lat="45.84838505834341" lon="7.23597421310842">
        <ele>1859.3299999999999</ele>
        <time>2016-07-09T08:51:30Z</time>
      </trkpt>
      <trkpt lat="45.848281206563115" lon="7.236015452072024">
        <ele>1859.3299999999999</ele>
        <time>2016-07-09T08:51:43Z</time>
      </trkpt>
      <trkpt lat="45.848242817446589" lon="7.236024169251323">
        <ele>1859.8099999999999</ele>
        <time>2016-07-09T08:51:47Z</time>
      </trkpt>
      <trkpt lat="45.848176768049598" lon="7.235995251685381">
        <ele>1858.3699999999999</ele>
        <time>2016-07-09T08:51:53Z</time>
      </trkpt>
      <trkpt lat="45.848111053928733" lon="7.235926436260343">
        <ele>1856.4400000000001</ele>
        <time>2016-07-09T08:52:04Z</time>
      </trkpt>
      <trkpt lat="45.848055649548769" lon="7.235865751281381">
        <ele>1854.04</ele>
        <time>2016-07-09T08:52:15Z</time>
      </trkpt>
      <trkpt lat="45.848017260432243" lon="7.235766593366861">
        <ele>1851.1600000000001</ele>
        <time>2016-07-09T08:52:25Z</time>
      </trkpt>
      <trkpt lat="45.847928496077657" lon="7.235772125422955">
        <ele>1848.75</ele>
        <time>2016-07-09T08:52:36Z</time>
      </trkpt>
      <trkpt lat="45.847870325669646" lon="7.235779920592904">
        <ele>1846.8299999999999</ele>
        <time>2016-07-09T08:52:43Z</time>
      </trkpt>
      <trkpt lat="45.847828919067979" lon="7.235801629722118">
        <ele>1844.9100000000001</ele>
        <time>2016-07-09T08:52:49Z</time>
      </trkpt>
      <trkpt lat="45.847770497202873" lon="7.235814454033971">
        <ele>1842.98</ele>
        <time>2016-07-09T08:53:00Z</time>
      </trkpt>
      <trkpt lat="45.847726743668318" lon="7.235792158171535">
        <ele>1841.0599999999999</ele>
        <time>2016-07-09T08:53:09Z</time>
      </trkpt>
      <trkpt lat="45.847687600180507" lon="7.235775478184223">
        <ele>1839.6199999999999</ele>
        <time>2016-07-09T08:53:18Z</time>
      </trkpt>
      <trkpt lat="45.847675865516067" lon="7.23575871437788">
        <ele>1837.7</ele>
        <time>2016-07-09T08:53:29Z</time>
      </trkpt>
      <trkpt lat="45.847629345953465" lon="7.235781010240316">
        <ele>1835.77</ele>
        <time>2016-07-09T08:53:38Z</time>
      </trkpt>
      <trkpt lat="45.84757586941123" lon="7.235813615843654">
        <ele>1834.3299999999999</ele>
        <time>2016-07-09T08:53:48Z</time>
      </trkpt>
      <trkpt lat="45.847501773387194" lon="7.23587547428906">
        <ele>1832.8900000000001</ele>
        <time>2016-07-09T08:53:58Z</time>
      </trkpt>
      <trkpt lat="45.847495403140783" lon="7.235889052972198">
        <ele>1832.8900000000001</ele>
        <time>2016-07-09T08:53:59Z</time>
      </trkpt>
      <trkpt lat="45.847417199984193" lon="7.235994832590222">
        <ele>1831.9300000000001</ele>
        <time>2016-07-09T08:54:10Z</time>
      </trkpt>
      <trkpt lat="45.847361292690039" lon="7.236066749319434">
        <ele>1830.01</ele>
        <time>2016-07-09T08:54:20Z</time>
      </trkpt>
      <trkpt lat="45.847300691530108" lon="7.236072029918432">
        <ele>1826.6400000000001</ele>
        <time>2016-07-09T08:54:32Z</time>
      </trkpt>
      <trkpt lat="45.847263894975185" lon="7.236026600003243">
        <ele>1824.72</ele>
        <time>2016-07-09T08:54:42Z</time>
      </trkpt>
      <trkpt lat="45.847336482256651" lon="7.235860051587224">
        <ele>1824.24</ele>
        <time>2016-07-09T08:54:54Z</time>
      </trkpt>
      <trkpt lat="45.847381325438619" lon="7.235765084624291">
        <ele>1824.24</ele>
        <time>2016-07-09T08:55:02Z</time>
      </trkpt>
      <trkpt lat="45.847395826131105" lon="7.235747231170535">
        <ele>1823.76</ele>
        <time>2016-07-09T08:55:04Z</time>
      </trkpt>
      <trkpt lat="45.847452906891704" lon="7.235674895346165">
        <ele>1826.1600000000001</ele>
        <time>2016-07-09T08:55:11Z</time>
      </trkpt>
      <trkpt lat="45.847539156675339" lon="7.235530139878392">
        <ele>1824.24</ele>
        <time>2016-07-09T08:55:22Z</time>
      </trkpt>
      <trkpt lat="45.847645690664649" lon="7.235398376360536">
        <ele>1823.28</ele>
        <time>2016-07-09T08:55:34Z</time>
      </trkpt>
      <trkpt lat="45.847750380635262" lon="7.235274743288755">
        <ele>1823.28</ele>
        <time>2016-07-09T08:55:45Z</time>
      </trkpt>
      <trkpt lat="45.847853478044271" lon="7.235160749405623">
        <ele>1823.28</ele>
        <time>2016-07-09T08:55:55Z</time>
      </trkpt>
      <trkpt lat="45.847982810810208" lon="7.235065195709467">
        <ele>1823.28</ele>
        <time>2016-07-09T08:56:07Z</time>
      </trkpt>
      <trkpt lat="45.848032012581825" lon="7.235034769400954">
        <ele>1823.28</ele>
        <time>2016-07-09T08:56:12Z</time>
      </trkpt>
      <trkpt lat="45.848103342577815" lon="7.234976179897785">
        <ele>1822.8</ele>
        <time>2016-07-09T08:56:18Z</time>
      </trkpt>
      <trkpt lat="45.848185820505023" lon="7.234932845458388">
        <ele>1822.8</ele>
        <time>2016-07-09T08:56:25Z</time>
      </trkpt>
      <trkpt lat="45.848290091380477" lon="7.234856570139527">
        <ele>1821.8399999999999</ele>
        <time>2016-07-09T08:56:35Z</time>
      </trkpt>
      <trkpt lat="45.84831272251904" lon="7.234855983406305">
        <ele>1821.8399999999999</ele>
        <time>2016-07-09T08:56:37Z</time>
      </trkpt>
      <trkpt lat="45.848441887646914" lon="7.234799405559897">
        <ele>1821.3499999999999</ele>
        <time>2016-07-09T08:56:48Z</time>
      </trkpt>
      <trkpt lat="45.848478600382805" lon="7.234783144667745">
        <ele>1821.3499999999999</ele>
        <time>2016-07-09T08:56:51Z</time>
      </trkpt>
      <trkpt lat="45.848625032231212" lon="7.234742743894458">
        <ele>1821.3499999999999</ele>
        <time>2016-07-09T08:57:03Z</time>
      </trkpt>
      <trkpt lat="45.84876811131835" lon="7.234732769429684">
        <ele>1820.8699999999999</ele>
        <time>2016-07-09T08:57:14Z</time>
      </trkpt>
      <trkpt lat="45.848908508196473" lon="7.234724890440702">
        <ele>1818.95</ele>
        <time>2016-07-09T08:57:26Z</time>
      </trkpt>
      <trkpt lat="45.849015545099974" lon="7.234714161604643">
        <ele>1818.47</ele>
        <time>2016-07-09T08:57:34Z</time>
      </trkpt>
      <trkpt lat="45.849136579781771" lon="7.234701588749886">
        <ele>1817.51</ele>
        <time>2016-07-09T08:57:46Z</time>
      </trkpt>
      <trkpt lat="45.849135322496295" lon="7.234696811065078">
        <ele>1817.51</ele>
        <time>2016-07-09T08:57:48Z</time>
      </trkpt>
      <trkpt lat="45.849283514544368" lon="7.234632605686784">
        <ele>1817.03</ele>
        <time>2016-07-09T08:58:02Z</time>
      </trkpt>
      <trkpt lat="45.849310252815485" lon="7.234591450542212">
        <ele>1817.03</ele>
        <time>2016-07-09T08:58:06Z</time>
      </trkpt>
      <trkpt lat="45.849337996914983" lon="7.23441350273788">
        <ele>1817.51</ele>
        <time>2016-07-09T08:58:18Z</time>
      </trkpt>
      <trkpt lat="45.849345792084932" lon="7.234263466671109">
        <ele>1818.95</ele>
        <time>2016-07-09T08:58:28Z</time>
      </trkpt>
      <trkpt lat="45.849331878125668" lon="7.234150310978293">
        <ele>1819.9100000000001</ele>
        <time>2016-07-09T08:58:39Z</time>
      </trkpt>
      <trkpt lat="45.849310588091612" lon="7.234151149168611">
        <ele>1819.9100000000001</ele>
        <time>2016-07-09T08:58:42Z</time>
      </trkpt>
      <trkpt lat="45.849302457645535" lon="7.234106389805675">
        <ele>1818.47</ele>
        <time>2016-07-09T08:58:51Z</time>
      </trkpt>
      <trkpt lat="45.8493163716048" lon="7.23407587967813">
        <ele>1818.47</ele>
        <time>2016-07-09T08:59:02Z</time>
      </trkpt>
      <trkpt lat="45.849317964166403" lon="7.234073784202337">
        <ele>1819.9100000000001</ele>
        <time>2016-07-09T08:59:11Z</time>
      </trkpt>
      <trkpt lat="45.849210256710649" lon="7.234091721475124">
        <ele>1820.8699999999999</ele>
        <time>2016-07-09T08:59:23Z</time>
      </trkpt>
      <trkpt lat="45.84908721037209" lon="7.234087362885475">
        <ele>1822.3199999999999</ele>
        <time>2016-07-09T08:59:34Z</time>
      </trkpt>
      <trkpt lat="45.849057538434863" lon="7.234079651534557">
        <ele>1822.8</ele>
        <time>2016-07-09T08:59:37Z</time>
      </trkpt>
      <trkpt lat="45.849004229530692" lon="7.234095074236393">
        <ele>1823.76</ele>
        <time>2016-07-09T08:59:43Z</time>
      </trkpt>
      <trkpt lat="45.84890004247427" lon="7.234083088114858">
        <ele>1824.72</ele>
        <time>2016-07-09T08:59:52Z</time>
      </trkpt>
      <trkpt lat="45.848890654742718" lon="7.234084429219365">
        <ele>1824.72</ele>
        <time>2016-07-09T08:59:53Z</time>
      </trkpt>
      <trkpt lat="45.848838435485959" lon="7.234070263803005">
        <ele>1825.2</ele>
        <time>2016-07-09T08:59:58Z</time>
      </trkpt>
      <trkpt lat="45.848742881789804" lon="7.23404897376895">
        <ele>1825.6800000000001</ele>
        <time>2016-07-09T09:00:05Z</time>
      </trkpt>
      <trkpt lat="45.848686220124364" lon="7.234028354287148">
        <ele>1825.6800000000001</ele>
        <time>2016-07-09T09:00:10Z</time>
      </trkpt>
      <trkpt lat="45.848574321717024" lon="7.234005890786648">
        <ele>1825.6800000000001</ele>
        <time>2016-07-09T09:00:21Z</time>
      </trkpt>
      <trkpt lat="45.848410706967115" lon="7.233931962400675">
        <ele>1826.6400000000001</ele>
        <time>2016-07-09T09:00:35Z</time>
      </trkpt>
      <trkpt lat="45.848293025046587" lon="7.233920563012362">
        <ele>1827.1199999999999</ele>
        <time>2016-07-09T09:00:45Z</time>
      </trkpt>
      <trkpt lat="45.848206942901015" lon="7.233915785327554">
        <ele>1827.5999999999999</ele>
        <time>2016-07-09T09:00:53Z</time>
      </trkpt>
      <trkpt lat="45.848103845492005" lon="7.233830709010363">
        <ele>1828.5599999999999</ele>
        <time>2016-07-09T09:01:04Z</time>
      </trkpt>
      <trkpt lat="45.848088338971138" lon="7.233812352642417">
        <ele>1828.5599999999999</ele>
        <time>2016-07-09T09:01:06Z</time>
      </trkpt>
      <trkpt lat="45.847945176064968" lon="7.233704309910536">
        <ele>1829.53</ele>
        <time>2016-07-09T09:01:20Z</time>
      </trkpt>
      <trkpt lat="45.847816932946444" lon="7.233709590509534">
        <ele>1830.49</ele>
        <time>2016-07-09T09:01:31Z</time>
      </trkpt>
      <trkpt lat="45.847657006233931" lon="7.233708081766963">
        <ele>1830.49</ele>
        <time>2016-07-09T09:01:44Z</time>
      </trkpt>
      <trkpt lat="45.847545778378844" lon="7.233687210828066">
        <ele>1830.49</ele>
        <time>2016-07-09T09:01:53Z</time>
      </trkpt>
      <trkpt lat="45.847377805039287" lon="7.233679248020053">
        <ele>1830.97</ele>
        <time>2016-07-09T09:02:07Z</time>
      </trkpt>
      <trkpt lat="45.847207233309746" lon="7.233727024868131">
        <ele>1831.45</ele>
        <time>2016-07-09T09:02:21Z</time>
      </trkpt>
      <trkpt lat="45.847060130909085" lon="7.233771281316876">
        <ele>1831.9300000000001</ele>
        <time>2016-07-09T09:02:35Z</time>
      </trkpt>
      <trkpt lat="45.846923254430294" lon="7.233788128942251">
        <ele>1832.4100000000001</ele>
        <time>2016-07-09T09:02:49Z</time>
      </trkpt>
      <trkpt lat="45.846800794824958" lon="7.233772287145257">
        <ele>1834.3299999999999</ele>
        <time>2016-07-09T09:03:01Z</time>
      </trkpt>
      <trkpt lat="45.846692249178886" lon="7.233767258003354">
        <ele>1834.3299999999999</ele>
        <time>2016-07-09T09:03:11Z</time>
      </trkpt>
      <trkpt lat="45.846558390185237" lon="7.233756193891168">
        <ele>1834.3299999999999</ele>
        <time>2016-07-09T09:03:22Z</time>
      </trkpt>
      <trkpt lat="45.846449173986912" lon="7.233729623258114">
        <ele>1834.3299999999999</ele>
        <time>2016-07-09T09:03:32Z</time>
      </trkpt>
      <trkpt lat="45.846353704109788" lon="7.233706656843424">
        <ele>1834.8099999999999</ele>
        <time>2016-07-09T09:03:40Z</time>
      </trkpt>
      <trkpt lat="45.846304502338171" lon="7.233705064281821">
        <ele>1834.8099999999999</ele>
        <time>2016-07-09T09:03:44Z</time>
      </trkpt>
      <trkpt lat="45.846247589215636" lon="7.233703387901187">
        <ele>1835.29</ele>
        <time>2016-07-09T09:03:49Z</time>
      </trkpt>
      <trkpt lat="45.846185646951199" lon="7.233698358759284">
        <ele>1836.26</ele>
        <time>2016-07-09T09:03:55Z</time>
      </trkpt>
      <trkpt lat="45.846087159588933" lon="7.233679331839085">
        <ele>1837.7</ele>
        <time>2016-07-09T09:04:05Z</time>
      </trkpt>
      <trkpt lat="45.846014823764563" lon="7.233623256906867">
        <ele>1837.7</ele>
        <time>2016-07-09T09:04:17Z</time>
      </trkpt>
      <trkpt lat="45.845948019996285" lon="7.233620407059789">
        <ele>1837.22</ele>
        <time>2016-07-09T09:04:26Z</time>
      </trkpt>
      <trkpt lat="45.845839474350214" lon="7.233511609956622">
        <ele>1835.29</ele>
        <time>2016-07-09T09:04:37Z</time>
      </trkpt>
      <trkpt lat="45.845804186537862" lon="7.23339619114995">
        <ele>1834.3299999999999</ele>
        <time>2016-07-09T09:04:44Z</time>
      </trkpt>
      <trkpt lat="45.845765210688114" lon="7.233168790116906">
        <ele>1833.3699999999999</ele>
        <time>2016-07-09T09:04:57Z</time>
      </trkpt>
      <trkpt lat="45.845679547637701" lon="7.232916913926601">
        <ele>1830.49</ele>
        <time>2016-07-09T09:05:13Z</time>
      </trkpt>
      <trkpt lat="45.845548873767257" lon="7.232838878408074">
        <ele>1829.05</ele>
        <time>2016-07-09T09:05:25Z</time>
      </trkpt>
      <trkpt lat="45.845404453575611" lon="7.232879782095552">
        <ele>1827.5999999999999</ele>
        <time>2016-07-09T09:05:38Z</time>
      </trkpt>
      <trkpt lat="45.845289453864098" lon="7.23303115926683">
        <ele>1825.6800000000001</ele>
        <time>2016-07-09T09:05:49Z</time>
      </trkpt>
      <trkpt lat="45.845192223787308" lon="7.2332329954952">
        <ele>1824.72</ele>
        <time>2016-07-09T09:06:03Z</time>
      </trkpt>
      <trkpt lat="45.845034224912524" lon="7.23338395357132">
        <ele>1822.8</ele>
        <time>2016-07-09T09:06:17Z</time>
      </trkpt>
      <trkpt lat="45.844892486929893" lon="7.23344455473125">
        <ele>1820.3900000000001</ele>
        <time>2016-07-09T09:06:29Z</time>
      </trkpt>
      <trkpt lat="45.844845715910196" lon="7.23349099047482">
        <ele>1819.9100000000001</ele>
        <time>2016-07-09T09:06:35Z</time>
      </trkpt>
      <trkpt lat="45.84477161988616" lon="7.23366784863174">
        <ele>1818.95</ele>
        <time>2016-07-09T09:06:48Z</time>
      </trkpt>
      <trkpt lat="45.844654524698853" lon="7.23384671844542">
        <ele>1817.51</ele>
        <time>2016-07-09T09:07:02Z</time>
      </trkpt>
      <trkpt lat="45.844463333487511" lon="7.233929615467787">
        <ele>1816.0699999999999</ele>
        <time>2016-07-09T09:07:18Z</time>
      </trkpt>
      <trkpt lat="45.844292594119906" lon="7.233949145302177">
        <ele>1814.6300000000001</ele>
        <time>2016-07-09T09:07:32Z</time>
      </trkpt>
      <trkpt lat="45.844126548618078" lon="7.233976302668452">
        <ele>1812.22</ele>
        <time>2016-07-09T09:07:46Z</time>
      </trkpt>
      <trkpt lat="45.843976764008403" lon="7.234016954898834">
        <ele>1810.78</ele>
        <time>2016-07-09T09:07:58Z</time>
      </trkpt>
      <trkpt lat="45.843799989670515" lon="7.234095660969615">
        <ele>1809.3399999999999</ele>
        <time>2016-07-09T09:08:13Z</time>
      </trkpt>
      <trkpt lat="45.843624556437135" lon="7.234093900769949">
        <ele>1807.9000000000001</ele>
        <time>2016-07-09T09:08:27Z</time>
      </trkpt>
      <trkpt lat="45.843502935022116" lon="7.234007399529219">
        <ele>1806.45</ele>
        <time>2016-07-09T09:08:39Z</time>
      </trkpt>
      <trkpt lat="45.843502096831799" lon="7.234092224389315">
        <ele>1805.01</ele>
        <time>2016-07-09T09:08:50Z</time>
      </trkpt>
      <trkpt lat="45.843602595850825" lon="7.234124075621367">
        <ele>1804.05</ele>
        <time>2016-07-09T09:08:57Z</time>
      </trkpt>
      <trkpt lat="45.843671578913927" lon="7.234174953773618">
        <ele>1803.5699999999999</ele>
        <time>2016-07-09T09:09:03Z</time>
      </trkpt>
      <trkpt lat="45.843830835074186" lon="7.23421853967011">
        <ele>1802.6099999999999</ele>
        <time>2016-07-09T09:09:15Z</time>
      </trkpt>
      <trkpt lat="45.843929657712579" lon="7.23423664458096">
        <ele>1800.6900000000001</ele>
        <time>2016-07-09T09:09:23Z</time>
      </trkpt>
      <trkpt lat="45.844116574153304" lon="7.23427620716393">
        <ele>1799.24</ele>
        <time>2016-07-09T09:09:38Z</time>
      </trkpt>
      <trkpt lat="45.844262586906552" lon="7.234300179407001">
        <ele>1797.8</ele>
        <time>2016-07-09T09:09:50Z</time>
      </trkpt>
      <trkpt lat="45.84437339566648" lon="7.2342933062464">
        <ele>1796.8399999999999</ele>
        <time>2016-07-09T09:09:59Z</time>
      </trkpt>
      <trkpt lat="45.844482276588678" lon="7.234313171356916">
        <ele>1795.4000000000001</ele>
        <time>2016-07-09T09:10:09Z</time>
      </trkpt>
      <trkpt lat="45.844606244936585" lon="7.234305711463094">
        <ele>1794.4400000000001</ele>
        <time>2016-07-09T09:10:20Z</time>
      </trkpt>
      <trkpt lat="45.844731470569968" lon="7.234269669279456">
        <ele>1793</ele>
        <time>2016-07-09T09:10:31Z</time>
      </trkpt>
      <trkpt lat="45.84487471729517" lon="7.234204793348908">
        <ele>1791.55</ele>
        <time>2016-07-09T09:10:43Z</time>
      </trkpt>
      <trkpt lat="45.845004301518202" lon="7.234127763658762">
        <ele>1790.1099999999999</ele>
        <time>2016-07-09T09:10:55Z</time>
      </trkpt>
      <trkpt lat="45.845167329534888" lon="7.234086440876126">
        <ele>1788.6700000000001</ele>
        <time>2016-07-09T09:11:06Z</time>
      </trkpt>
      <trkpt lat="45.845221560448408" lon="7.2341638058424">
        <ele>1789.1500000000001</ele>
        <time>2016-07-09T09:11:12Z</time>
      </trkpt>
      <trkpt lat="45.845118882134557" lon="7.234309567138553">
        <ele>1787.71</ele>
        <time>2016-07-09T09:11:23Z</time>
      </trkpt>
      <trkpt lat="45.845075966790318" lon="7.234319290146232">
        <ele>1786.27</ele>
        <time>2016-07-09T09:11:26Z</time>
      </trkpt>
      <trkpt lat="45.844912016764283" lon="7.234417777508497">
        <ele>1785.3099999999999</ele>
        <time>2016-07-09T09:11:40Z</time>
      </trkpt>
      <trkpt lat="45.844875639304519" lon="7.234448539093137">
        <ele>1784.3399999999999</ele>
        <time>2016-07-09T09:11:44Z</time>
      </trkpt>
      <trkpt lat="45.844752341508865" lon="7.23452883772552">
        <ele>1781.9400000000001</ele>
        <time>2016-07-09T09:11:56Z</time>
      </trkpt>
      <trkpt lat="45.844609932973981" lon="7.234637718647718">
        <ele>1780.02</ele>
        <time>2016-07-09T09:12:08Z</time>
      </trkpt>
      <trkpt lat="45.844443971291184" lon="7.234708042815328">
        <ele>1778.5799999999999</ele>
        <time>2016-07-09T09:12:21Z</time>
      </trkpt>
      <trkpt lat="45.844248840585351" lon="7.234786245971918">
        <ele>1777.1300000000001</ele>
        <time>2016-07-09T09:12:35Z</time>
      </trkpt>
      <trkpt lat="45.844089332967997" lon="7.23482882604003">
        <ele>1775.6900000000001</ele>
        <time>2016-07-09T09:12:47Z</time>
      </trkpt>
      <trkpt lat="45.84394977428019" lon="7.23488355986774">
        <ele>1774.73</ele>
        <time>2016-07-09T09:12:59Z</time>
      </trkpt>
      <trkpt lat="45.843897555023432" lon="7.234896384179592">
        <ele>1774.25</ele>
        <time>2016-07-09T09:13:03Z</time>
      </trkpt>
      <trkpt lat="45.843728492036462" lon="7.234924798831344">
        <ele>1772.8099999999999</ele>
        <time>2016-07-09T09:13:15Z</time>
      </trkpt>
      <trkpt lat="45.843509389087558" lon="7.234898395836353">
        <ele>1770.4100000000001</ele>
        <time>2016-07-09T09:13:31Z</time>
      </trkpt>
      <trkpt lat="45.843310067430139" lon="7.234840476885438">
        <ele>1768</ele>
        <time>2016-07-09T09:13:47Z</time>
      </trkpt>
      <trkpt lat="45.843167155981064" lon="7.234814492985606">
        <ele>1767.04</ele>
        <time>2016-07-09T09:13:59Z</time>
      </trkpt>
      <trkpt lat="45.842954255640507" lon="7.234810804948211">
        <ele>1765.1199999999999</ele>
        <time>2016-07-09T09:14:15Z</time>
      </trkpt>
      <trkpt lat="45.842790808528662" lon="7.234840728342533">
        <ele>1763.2</ele>
        <time>2016-07-09T09:14:27Z</time>
      </trkpt>
      <trkpt lat="45.84264999255538" lon="7.234856151044369">
        <ele>1762.23</ele>
        <time>2016-07-09T09:14:39Z</time>
      </trkpt>
      <trkpt lat="45.842457124963403" lon="7.234895881265402">
        <ele>1760.3099999999999</ele>
        <time>2016-07-09T09:14:53Z</time>
      </trkpt>
      <trkpt lat="45.842297784984112" lon="7.234894959256053">
        <ele>1759.3499999999999</ele>
        <time>2016-07-09T09:15:05Z</time>
      </trkpt>
      <trkpt lat="45.842132158577442" lon="7.234855815768242">
        <ele>1757.4300000000001</ele>
        <time>2016-07-09T09:15:18Z</time>
      </trkpt>
      <trkpt lat="45.841968208551407" lon="7.234814241528511">
        <ele>1755.5</ele>
        <time>2016-07-09T09:15:31Z</time>
      </trkpt>
      <trkpt lat="45.841779783368111" lon="7.23478926345706">
        <ele>1753.5799999999999</ele>
        <time>2016-07-09T09:15:46Z</time>
      </trkpt>
      <trkpt lat="45.841598650440574" lon="7.234769817441702">
        <ele>1751.6600000000001</ele>
        <time>2016-07-09T09:16:00Z</time>
      </trkpt>
      <trkpt lat="45.841411482542753" lon="7.234777109697461">
        <ele>1750.22</ele>
        <time>2016-07-09T09:16:14Z</time>
      </trkpt>
      <trkpt lat="45.841262955218554" lon="7.234809463843703">
        <ele>1749.26</ele>
        <time>2016-07-09T09:16:26Z</time>
      </trkpt>
      <trkpt lat="45.841087102890015" lon="7.234865035861731">
        <ele>1747.8099999999999</ele>
        <time>2016-07-09T09:16:41Z</time>
      </trkpt>
      <trkpt lat="45.840905886143446" lon="7.234937120229006">
        <ele>1745.8900000000001</ele>
        <time>2016-07-09T09:16:54Z</time>
      </trkpt>
      <trkpt lat="45.840751994401217" lon="7.235029991716147">
        <ele>1743.97</ele>
        <time>2016-07-09T09:17:06Z</time>
      </trkpt>
      <trkpt lat="45.840619811788201" lon="7.23510442301631">
        <ele>1742.53</ele>
        <time>2016-07-09T09:17:17Z</time>
      </trkpt>
      <trkpt lat="45.840506153181195" lon="7.235186900943518">
        <ele>1741.0799999999999</ele>
        <time>2016-07-09T09:17:27Z</time>
      </trkpt>
      <trkpt lat="45.840374724939466" lon="7.235311288386583">
        <ele>1739.6400000000001</ele>
        <time>2016-07-09T09:17:39Z</time>
      </trkpt>
      <trkpt lat="45.840251930058002" lon="7.235443806275725">
        <ele>1738.2</ele>
        <time>2016-07-09T09:17:52Z</time>
      </trkpt>
      <trkpt lat="45.840164255350828" lon="7.235501892864704">
        <ele>1736.76</ele>
        <time>2016-07-09T09:18:00Z</time>
      </trkpt>
      <trkpt lat="45.84004464559257" lon="7.235607923939824">
        <ele>1735.3199999999999</ele>
        <time>2016-07-09T09:18:11Z</time>
      </trkpt>
      <trkpt lat="45.839917659759521" lon="7.23570398055017">
        <ele>1733.8800000000001</ele>
        <time>2016-07-09T09:18:23Z</time>
      </trkpt>
      <trkpt lat="45.839905589818954" lon="7.235719570890069">
        <ele>1733.8800000000001</ele>
        <time>2016-07-09T09:18:24Z</time>
      </trkpt>
      <trkpt lat="45.839842138811946" lon="7.235763072967529">
        <ele>1732.9100000000001</ele>
        <time>2016-07-09T09:18:30Z</time>
      </trkpt>
      <trkpt lat="45.839774077758193" lon="7.235831972211599">
        <ele>1732.4300000000001</ele>
        <time>2016-07-09T09:18:36Z</time>
      </trkpt>
      <trkpt lat="45.839606942608953" lon="7.23599030636251">
        <ele>1730.51</ele>
        <time>2016-07-09T09:18:51Z</time>
      </trkpt>
      <trkpt lat="45.839559584856033" lon="7.236032215878367">
        <ele>1730.03</ele>
        <time>2016-07-09T09:18:55Z</time>
      </trkpt>
      <trkpt lat="45.839428910985589" lon="7.236112430691719">
        <ele>1728.5899999999999</ele>
        <time>2016-07-09T09:19:07Z</time>
      </trkpt>
      <trkpt lat="45.839374009519815" lon="7.236156603321433">
        <ele>1728.1099999999999</ele>
        <time>2016-07-09T09:19:11Z</time>
      </trkpt>
      <trkpt lat="45.839200420305133" lon="7.236229106783867">
        <ele>1726.6700000000001</ele>
        <time>2016-07-09T09:19:24Z</time>
      </trkpt>
      <trkpt lat="45.838981820270419" lon="7.236256264150143">
        <ele>1725.22</ele>
        <time>2016-07-09T09:19:39Z</time>
      </trkpt>
      <trkpt lat="45.838798256590962" lon="7.236317787319422">
        <ele>1723.78</ele>
        <time>2016-07-09T09:19:53Z</time>
      </trkpt>
      <trkpt lat="45.838687531650066" lon="7.236416945233941">
        <ele>1722.3399999999999</ele>
        <time>2016-07-09T09:20:03Z</time>
      </trkpt>
      <trkpt lat="45.838546045124531" lon="7.236505206674337">
        <ele>1720.9000000000001</ele>
        <time>2016-07-09T09:20:15Z</time>
      </trkpt>
      <trkpt lat="45.838342616334558" lon="7.236534543335438">
        <ele>1718.97</ele>
        <time>2016-07-09T09:20:30Z</time>
      </trkpt>
      <trkpt lat="45.838180342689157" lon="7.23651509732008">
        <ele>1717.53</ele>
        <time>2016-07-09T09:20:42Z</time>
      </trkpt>
      <trkpt lat="45.837980601936579" lon="7.236514510586858">
        <ele>1715.6099999999999</ele>
        <time>2016-07-09T09:20:57Z</time>
      </trkpt>
      <trkpt lat="45.837774239480495" lon="7.236545355990529">
        <ele>1714.1700000000001</ele>
        <time>2016-07-09T09:21:12Z</time>
      </trkpt>
      <trkpt lat="45.837720008566976" lon="7.236554743722081">
        <ele>1713.6900000000001</ele>
        <time>2016-07-09T09:21:16Z</time>
      </trkpt>
      <trkpt lat="45.837565865367651" lon="7.236604364588857">
        <ele>1711.76</ele>
        <time>2016-07-09T09:21:29Z</time>
      </trkpt>
      <trkpt lat="45.837563099339604" lon="7.236617188900709">
        <ele>1711.76</ele>
        <time>2016-07-09T09:21:30Z</time>
      </trkpt>
      <trkpt lat="45.837627807632089" lon="7.2366435918957">
        <ele>1710.3199999999999</ele>
        <time>2016-07-09T09:21:39Z</time>
      </trkpt>
      <trkpt lat="45.837760660797358" lon="7.236633282154799">
        <ele>1708.8800000000001</ele>
        <time>2016-07-09T09:21:51Z</time>
      </trkpt>
      <trkpt lat="45.837933411821723" lon="7.236639484763145">
        <ele>1707.4400000000001</ele>
        <time>2016-07-09T09:22:04Z</time>
      </trkpt>
      <trkpt lat="45.838055787608027" lon="7.236721040681005">
        <ele>1706.48</ele>
        <time>2016-07-09T09:22:15Z</time>
      </trkpt>
      <trkpt lat="45.838243123143911" lon="7.236801171675324">
        <ele>1704.55</ele>
        <time>2016-07-09T09:22:28Z</time>
      </trkpt>
      <trkpt lat="45.838377149775624" lon="7.236843081191182">
        <ele>1704.0699999999999</ele>
        <time>2016-07-09T09:22:39Z</time>
      </trkpt>
      <trkpt lat="45.838399697095156" lon="7.236852468922734">
        <ele>1702.1500000000001</ele>
        <time>2016-07-09T09:22:41Z</time>
      </trkpt>
      <trkpt lat="45.838543614372611" lon="7.23687426187098">
        <ele>1701.6700000000001</ele>
        <time>2016-07-09T09:22:53Z</time>
      </trkpt>
      <trkpt lat="45.838677557185292" lon="7.236887170001864">
        <ele>1701.6700000000001</ele>
        <time>2016-07-09T09:23:04Z</time>
      </trkpt>
      <trkpt lat="45.83875173702836" lon="7.236891863867641">
        <ele>1699.27</ele>
        <time>2016-07-09T09:23:11Z</time>
      </trkpt>
      <trkpt lat="45.838893977925181" lon="7.236880464479327">
        <ele>1699.27</ele>
        <time>2016-07-09T09:23:23Z</time>
      </trkpt>
      <trkpt lat="45.839030770584941" lon="7.236874345690012">
        <ele>1697.3399999999999</ele>
        <time>2016-07-09T09:23:35Z</time>
      </trkpt>
      <trkpt lat="45.839108387008309" lon="7.2368542291224">
        <ele>1696.8599999999999</ele>
        <time>2016-07-09T09:23:44Z</time>
      </trkpt>
      <trkpt lat="45.839241491630673" lon="7.236820785328746">
        <ele>1694.9400000000001</ele>
        <time>2016-07-09T09:23:57Z</time>
      </trkpt>
      <trkpt lat="45.839372165501118" lon="7.236793460324407">
        <ele>1693.5</ele>
        <time>2016-07-09T09:24:10Z</time>
      </trkpt>
      <trkpt lat="45.839384403079748" lon="7.236792370676994">
        <ele>1693.5</ele>
        <time>2016-07-09T09:24:11Z</time>
      </trkpt>
      <trkpt lat="45.839401502162218" lon="7.236803434789181">
        <ele>1693.02</ele>
        <time>2016-07-09T09:24:13Z</time>
      </trkpt>
      <trkpt lat="45.839546676725149" lon="7.236755825579166">
        <ele>1692.0599999999999</ele>
        <time>2016-07-09T09:24:25Z</time>
      </trkpt>
      <trkpt lat="45.839594202116132" lon="7.236719196662307">
        <ele>1691.5799999999999</ele>
        <time>2016-07-09T09:24:29Z</time>
      </trkpt>
      <trkpt lat="45.839665113016963" lon="7.23671299405396">
        <ele>1690.6199999999999</ele>
        <time>2016-07-09T09:24:34Z</time>
      </trkpt>
      <trkpt lat="45.839701239019632" lon="7.236763872206211">
        <ele>1689.6500000000001</ele>
        <time>2016-07-09T09:24:37Z</time>
      </trkpt>
      <trkpt lat="45.839650444686413" lon="7.236883817240596">
        <ele>1689.1700000000001</ele>
        <time>2016-07-09T09:24:44Z</time>
      </trkpt>
      <trkpt lat="45.839479537680745" lon="7.236990015953779">
        <ele>1687.73</ele>
        <time>2016-07-09T09:24:59Z</time>
      </trkpt>
      <trkpt lat="45.839410554617643" lon="7.237034440040588">
        <ele>1686.77</ele>
        <time>2016-07-09T09:25:05Z</time>
      </trkpt>
      <trkpt lat="45.83936252631247" lon="7.237060507759452">
        <ele>1686.29</ele>
        <time>2016-07-09T09:25:09Z</time>
      </trkpt>
      <trkpt lat="45.839179046452045" lon="7.237195875495672">
        <ele>1684.8499999999999</ele>
        <time>2016-07-09T09:25:24Z</time>
      </trkpt>
      <trkpt lat="45.839045606553555" lon="7.237322190776467">
        <ele>1682.9300000000001</ele>
        <time>2016-07-09T09:25:36Z</time>
      </trkpt>
      <trkpt lat="45.838884003460407" lon="7.237450936809182">
        <ele>1681.48</ele>
        <time>2016-07-09T09:25:51Z</time>
      </trkpt>
      <trkpt lat="45.838710414245725" lon="7.237507430836558">
        <ele>1679.5599999999999</ele>
        <time>2016-07-09T09:26:06Z</time>
      </trkpt>
      <trkpt lat="45.838634055107832" lon="7.23754808306694">
        <ele>1678.5999999999999</ele>
        <time>2016-07-09T09:26:12Z</time>
      </trkpt>
      <trkpt lat="45.838492065668106" lon="7.237618742510676">
        <ele>1677.6400000000001</ele>
        <time>2016-07-09T09:26:24Z</time>
      </trkpt>
      <trkpt lat="45.838348316028714" lon="7.237722845748067">
        <ele>1676.2</ele>
        <time>2016-07-09T09:26:38Z</time>
      </trkpt>
      <trkpt lat="45.838188054040074" lon="7.237764671444893">
        <ele>1674.27</ele>
        <time>2016-07-09T09:26:50Z</time>
      </trkpt>
      <trkpt lat="45.838017147034407" lon="7.237772466614842">
        <ele>1672.3499999999999</ele>
        <time>2016-07-09T09:27:03Z</time>
      </trkpt>
      <trkpt lat="45.837889993563294" lon="7.237773388624191">
        <ele>1671.3900000000001</ele>
        <time>2016-07-09T09:27:14Z</time>
      </trkpt>
      <trkpt lat="45.837750183418393" lon="7.237784871831536">
        <ele>1669.95</ele>
        <time>2016-07-09T09:27:26Z</time>
      </trkpt>
      <trkpt lat="45.837663430720568" lon="7.237783195450902">
        <ele>1668.99</ele>
        <time>2016-07-09T09:27:32Z</time>
      </trkpt>
      <trkpt lat="45.837547508999705" lon="7.23784614354372">
        <ele>1668.02</ele>
        <time>2016-07-09T09:27:42Z</time>
      </trkpt>
      <trkpt lat="45.837433347478509" lon="7.237872378900647">
        <ele>1667.0599999999999</ele>
        <time>2016-07-09T09:27:51Z</time>
      </trkpt>
      <trkpt lat="45.837318766862154" lon="7.237836001440883">
        <ele>1665.6199999999999</ele>
        <time>2016-07-09T09:28:00Z</time>
      </trkpt>
      <trkpt lat="45.837244335561991" lon="7.237809095531702">
        <ele>1665.1400000000001</ele>
        <time>2016-07-09T09:28:06Z</time>
      </trkpt>
      <trkpt lat="45.837085749953985" lon="7.237771041691303">
        <ele>1663.22</ele>
        <time>2016-07-09T09:28:20Z</time>
      </trkpt>
      <trkpt lat="45.836952896788716" lon="7.2377850394696">
        <ele>1661.3</ele>
        <time>2016-07-09T09:28:31Z</time>
      </trkpt>
      <trkpt lat="45.836856588721275" lon="7.237809933722019">
        <ele>1659.8499999999999</ele>
        <time>2016-07-09T09:28:39Z</time>
      </trkpt>
      <trkpt lat="45.836779894307256" lon="7.237866511568427">
        <ele>1658.8900000000001</ele>
        <time>2016-07-09T09:28:46Z</time>
      </trkpt>
      <trkpt lat="45.836746785789728" lon="7.237877491861582">
        <ele>1658.4100000000001</ele>
        <time>2016-07-09T09:28:49Z</time>
      </trkpt>
      <trkpt lat="45.836660033091903" lon="7.237936584278941">
        <ele>1657.45</ele>
        <time>2016-07-09T09:28:58Z</time>
      </trkpt>
      <trkpt lat="45.83661594428122" lon="7.237993413582444">
        <ele>1656.97</ele>
        <time>2016-07-09T09:29:03Z</time>
      </trkpt>
      <trkpt lat="45.83650253713131" lon="7.238212516531348">
        <ele>1655.05</ele>
        <time>2016-07-09T09:29:18Z</time>
      </trkpt>
      <trkpt lat="45.836455430835485" lon="7.23830739967525">
        <ele>1654.5699999999999</ele>
        <time>2016-07-09T09:29:24Z</time>
      </trkpt>
      <trkpt lat="45.83642047829926" lon="7.238417202606797">
        <ele>1654.0899999999999</ele>
        <time>2016-07-09T09:29:31Z</time>
      </trkpt>
      <trkpt lat="45.836378149688244" lon="7.238685255870223">
        <ele>1652.6400000000001</ele>
        <time>2016-07-09T09:29:46Z</time>
      </trkpt>
      <trkpt lat="45.836297851055861" lon="7.238891618326306">
        <ele>1651.6800000000001</ele>
        <time>2016-07-09T09:29:59Z</time>
      </trkpt>
      <trkpt lat="45.836231969296932" lon="7.23914441652596">
        <ele>1651.6800000000001</ele>
        <time>2016-07-09T09:30:15Z</time>
      </trkpt>
      <trkpt lat="45.836217552423477" lon="7.239246005192399">
        <ele>1650.72</ele>
        <time>2016-07-09T09:30:25Z</time>
      </trkpt>
      <trkpt lat="45.836221994832158" lon="7.239261260256171">
        <ele>1650.72</ele>
        <time>2016-07-09T09:30:49Z</time>
      </trkpt>
      <trkpt lat="45.836189640685916" lon="7.23926117643714">
        <ele>1650.24</ele>
        <time>2016-07-09T09:31:08Z</time>
      </trkpt>
      <trkpt lat="45.836192825809121" lon="7.239279700443149">
        <ele>1650.24</ele>
        <time>2016-07-09T09:31:12Z</time>
      </trkpt>
      <trkpt lat="45.83618251606822" lon="7.239298308268189">
        <ele>1650.24</ele>
        <time>2016-07-09T09:31:23Z</time>
      </trkpt>
      <trkpt lat="45.836177738383412" lon="7.23930861800909">
        <ele>1650.24</ele>
        <time>2016-07-09T09:31:39Z</time>
      </trkpt>
      <trkpt lat="45.836198860779405" lon="7.239308953285217">
        <ele>1650.24</ele>
        <time>2016-07-09T09:31:59Z</time>
      </trkpt>
      <trkpt lat="45.836211517453194" lon="7.239320436492562">
        <ele>1650.24</ele>
        <time>2016-07-09T09:32:15Z</time>
      </trkpt>
      <trkpt lat="45.836177067831159" lon="7.239313228055835">
        <ele>1650.24</ele>
        <time>2016-07-09T09:32:34Z</time>
      </trkpt>
      <trkpt lat="45.836170613765717" lon="7.239286070689559">
        <ele>1650.72</ele>
        <time>2016-07-09T09:32:56Z</time>
      </trkpt>
      <trkpt lat="45.836174804717302" lon="7.239257320761681">
        <ele>1650.24</ele>
        <time>2016-07-09T09:33:17Z</time>
      </trkpt>
      <trkpt lat="45.836181091144681" lon="7.239270312711597">
        <ele>1650.24</ele>
        <time>2016-07-09T09:33:32Z</time>
      </trkpt>
      <trkpt lat="45.836164746433496" lon="7.239249274134636">
        <ele>1650.24</ele>
        <time>2016-07-09T09:33:55Z</time>
      </trkpt>
      <trkpt lat="45.836203722283244" lon="7.239276599138975">
        <ele>1649.76</ele>
        <time>2016-07-09T09:34:18Z</time>
      </trkpt>
      <trkpt lat="45.836198106408119" lon="7.239300822839141">
        <ele>1649.76</ele>
        <time>2016-07-09T09:34:37Z</time>
      </trkpt>
      <trkpt lat="45.836098026484251" lon="7.239335691556335">
        <ele>1649.28</ele>
        <time>2016-07-09T09:34:48Z</time>
      </trkpt>
      <trkpt lat="45.836015800014138" lon="7.239435184746981">
        <ele>1648.8</ele>
        <time>2016-07-09T09:34:59Z</time>
      </trkpt>
      <trkpt lat="45.835959641262889" lon="7.239491259679198">
        <ele>1647.8399999999999</ele>
        <time>2016-07-09T09:35:06Z</time>
      </trkpt>
      <trkpt lat="45.83590934984386" lon="7.239550016820431">
        <ele>1647.8399999999999</ele>
        <time>2016-07-09T09:35:14Z</time>
      </trkpt>
      <trkpt lat="45.835818909108639" lon="7.23964573815465">
        <ele>1647.3599999999999</ele>
        <time>2016-07-09T09:35:24Z</time>
      </trkpt>
      <trkpt lat="45.835670130327344" lon="7.239763671532273">
        <ele>1646.8800000000001</ele>
        <time>2016-07-09T09:35:37Z</time>
      </trkpt>
      <trkpt lat="45.835491344332695" lon="7.239775657653809">
        <ele>1645.9100000000001</ele>
        <time>2016-07-09T09:35:50Z</time>
      </trkpt>
      <trkpt lat="45.835406184196472" lon="7.239753277972341">
        <ele>1644.95</ele>
        <time>2016-07-09T09:35:57Z</time>
      </trkpt>
      <trkpt lat="45.835342733189464" lon="7.239763336256146">
        <ele>1645.4300000000001</ele>
        <time>2016-07-09T09:36:02Z</time>
      </trkpt>
      <trkpt lat="45.835302248597145" lon="7.239776914939284">
        <ele>1643.51</ele>
        <time>2016-07-09T09:36:05Z</time>
      </trkpt>
      <trkpt lat="45.835165958851576" lon="7.239850172773004">
        <ele>1643.51</ele>
        <time>2016-07-09T09:36:18Z</time>
      </trkpt>
      <trkpt lat="45.83501516841352" lon="7.239952934905887">
        <ele>1642.55</ele>
        <time>2016-07-09T09:36:30Z</time>
      </trkpt>
      <trkpt lat="45.83486563526094" lon="7.240049997344613">
        <ele>1642.0699999999999</ele>
        <time>2016-07-09T09:36:43Z</time>
      </trkpt>
      <trkpt lat="45.834668911993504" lon="7.240128368139267">
        <ele>1641.1099999999999</ele>
        <time>2016-07-09T09:36:58Z</time>
      </trkpt>
      <trkpt lat="45.834523234516382" lon="7.240169355645776">
        <ele>1640.1500000000001</ele>
        <time>2016-07-09T09:37:09Z</time>
      </trkpt>
      <trkpt lat="45.834403121843934" lon="7.24025309085846">
        <ele>1639.1900000000001</ele>
        <time>2016-07-09T09:37:20Z</time>
      </trkpt>
      <trkpt lat="45.834231711924076" lon="7.240375801920891">
        <ele>1638.22</ele>
        <time>2016-07-09T09:37:35Z</time>
      </trkpt>
      <trkpt lat="45.834070192649961" lon="7.240515444427729">
        <ele>1637.26</ele>
        <time>2016-07-09T09:37:48Z</time>
      </trkpt>
      <trkpt lat="45.833961227908731" lon="7.240618206560612">
        <ele>1636.78</ele>
        <time>2016-07-09T09:37:58Z</time>
      </trkpt>
      <trkpt lat="45.833783112466335" lon="7.240770421922207">
        <ele>1635.8199999999999</ele>
        <time>2016-07-09T09:38:14Z</time>
      </trkpt>
      <trkpt lat="45.833659898489714" lon="7.2408726811409">
        <ele>1635.8199999999999</ele>
        <time>2016-07-09T09:38:25Z</time>
      </trkpt>
      <trkpt lat="45.833510784432292" lon="7.240955578163266">
        <ele>1635.3399999999999</ele>
        <time>2016-07-09T09:38:37Z</time>
      </trkpt>
      <trkpt lat="45.833473149687052" lon="7.240957086905837">
        <ele>1634.8599999999999</ele>
        <time>2016-07-09T09:38:40Z</time>
      </trkpt>
      <trkpt lat="45.833429144695401" lon="7.2408726811409">
        <ele>1636.3</ele>
        <time>2016-07-09T09:38:51Z</time>
      </trkpt>
      <trkpt lat="45.833378518000245" lon="7.240796992555261">
        <ele>1636.78</ele>
        <time>2016-07-09T09:39:02Z</time>
      </trkpt>
      <trkpt lat="45.833312720060349" lon="7.240760950371623">
        <ele>1638.7</ele>
        <time>2016-07-09T09:39:10Z</time>
      </trkpt>
      <trkpt lat="45.833294782787561" lon="7.240756591781974">
        <ele>1638.7</ele>
        <time>2016-07-09T09:39:12Z</time>
      </trkpt>
      <trkpt lat="45.833244323730469" lon="7.240744102746248">
        <ele>1639.1900000000001</ele>
        <time>2016-07-09T09:39:17Z</time>
      </trkpt>
      <trkpt lat="45.833168802782893" lon="7.240702696144581">
        <ele>1639.1900000000001</ele>
        <time>2016-07-09T09:39:26Z</time>
      </trkpt>
      <trkpt lat="45.833152877166867" lon="7.240682328119874">
        <ele>1639.1900000000001</ele>
        <time>2016-07-09T09:39:28Z</time>
      </trkpt>
      <trkpt lat="45.833109710365534" lon="7.240646537393332">
        <ele>1639.6700000000001</ele>
        <time>2016-07-09T09:39:33Z</time>
      </trkpt>
      <trkpt lat="45.833094287663698" lon="7.240631869062781">
        <ele>1641.1099999999999</ele>
        <time>2016-07-09T09:39:35Z</time>
      </trkpt>
      <trkpt lat="45.833069058135152" lon="7.240615272894502">
        <ele>1640.1500000000001</ele>
        <time>2016-07-09T09:39:38Z</time>
      </trkpt>
      <trkpt lat="45.833013989031315" lon="7.240581996738911">
        <ele>1640.6300000000001</ele>
        <time>2016-07-09T09:39:44Z</time>
      </trkpt>
      <trkpt lat="45.83297367207706" lon="7.240528604015708">
        <ele>1640.6300000000001</ele>
        <time>2016-07-09T09:39:49Z</time>
      </trkpt>
      <trkpt lat="45.832932433113456" lon="7.24048082716763">
        <ele>1640.6300000000001</ele>
        <time>2016-07-09T09:39:54Z</time>
      </trkpt>
      <trkpt lat="45.832904269918799" lon="7.240444198250771">
        <ele>1641.1099999999999</ele>
        <time>2016-07-09T09:39:58Z</time>
      </trkpt>
      <trkpt lat="45.832880381494761" lon="7.240416035056114">
        <ele>1641.5899999999999</ele>
        <time>2016-07-09T09:40:01Z</time>
      </trkpt>
      <trkpt lat="45.83281927742064" lon="7.240378484129906">
        <ele>1642.0699999999999</ele>
        <time>2016-07-09T09:40:08Z</time>
      </trkpt>
      <trkpt lat="45.83279874175787" lon="7.240353170782328">
        <ele>1642.55</ele>
        <time>2016-07-09T09:40:11Z</time>
      </trkpt>
      <trkpt lat="45.832757083699107" lon="7.240328108891845">
        <ele>1643.03</ele>
        <time>2016-07-09T09:40:16Z</time>
      </trkpt>
      <trkpt lat="45.832691621035337" lon="7.24028343334794">
        <ele>1643.99</ele>
        <time>2016-07-09T09:40:24Z</time>
      </trkpt>
      <trkpt lat="45.832593217492104" lon="7.240244122222066">
        <ele>1643.99</ele>
        <time>2016-07-09T09:40:33Z</time>
      </trkpt>
      <trkpt lat="45.83252171985805" lon="7.240183101966977">
        <ele>1644.95</ele>
        <time>2016-07-09T09:40:42Z</time>
      </trkpt>
      <trkpt lat="45.832377467304468" lon="7.240122919902206">
        <ele>1644.95</ele>
        <time>2016-07-09T09:40:55Z</time>
      </trkpt>
      <trkpt lat="45.832349639385939" lon="7.240099031478167">
        <ele>1644.47</ele>
        <time>2016-07-09T09:40:58Z</time>
      </trkpt>
      <trkpt lat="45.832277219742537" lon="7.240035245195031">
        <ele>1644.47</ele>
        <time>2016-07-09T09:41:05Z</time>
      </trkpt>
      <trkpt lat="45.8322065602988" lon="7.239977326244116">
        <ele>1644.47</ele>
        <time>2016-07-09T09:41:12Z</time>
      </trkpt>
      <trkpt lat="45.832138163968921" lon="7.239926364272833">
        <ele>1644.95</ele>
        <time>2016-07-09T09:41:19Z</time>
      </trkpt>
      <trkpt lat="45.832096505910158" lon="7.239914797246456">
        <ele>1644.95</ele>
        <time>2016-07-09T09:41:23Z</time>
      </trkpt>
      <trkpt lat="45.832063229754567" lon="7.239888729527593">
        <ele>1644.95</ele>
        <time>2016-07-09T09:41:26Z</time>
      </trkpt>
      <trkpt lat="45.831977566704154" lon="7.239789152517915">
        <ele>1646.4000000000001</ele>
        <time>2016-07-09T09:41:37Z</time>
      </trkpt>
      <trkpt lat="45.831928700208664" lon="7.239745147526264">
        <ele>1646.8800000000001</ele>
        <time>2016-07-09T09:41:43Z</time>
      </trkpt>
      <trkpt lat="45.831902883946896" lon="7.239731652662158">
        <ele>1647.3599999999999</ele>
        <time>2016-07-09T09:41:46Z</time>
      </trkpt>
      <trkpt lat="45.831808168441057" lon="7.239667782559991">
        <ele>1647.8399999999999</ele>
        <time>2016-07-09T09:41:56Z</time>
      </trkpt>
      <trkpt lat="45.83178386092186" lon="7.239642217755318">
        <ele>1648.3199999999999</ele>
        <time>2016-07-09T09:41:59Z</time>
      </trkpt>
      <trkpt lat="45.831701131537557" lon="7.23958907648921">
        <ele>1649.28</ele>
        <time>2016-07-09T09:42:09Z</time>
      </trkpt>
      <trkpt lat="45.831661904230714" lon="7.239582035690546">
        <ele>1649.28</ele>
        <time>2016-07-09T09:42:13Z</time>
      </trkpt>
      <trkpt lat="45.831565177068114" lon="7.239583628252149">
        <ele>1650.24</ele>
        <time>2016-07-09T09:42:22Z</time>
      </trkpt>
      <trkpt lat="45.831503318622708" lon="7.239563092589378">
        <ele>1650.24</ele>
        <time>2016-07-09T09:42:27Z</time>
      </trkpt>
      <trkpt lat="45.831355964764953" lon="7.239528559148312">
        <ele>1649.76</ele>
        <time>2016-07-09T09:42:39Z</time>
      </trkpt>
      <trkpt lat="45.831232331693172" lon="7.239476423710585">
        <ele>1649.28</ele>
        <time>2016-07-09T09:42:50Z</time>
      </trkpt>
      <trkpt lat="45.831217160448432" lon="7.239474579691887">
        <ele>1649.28</ele>
        <time>2016-07-09T09:42:51Z</time>
      </trkpt>
      <trkpt lat="45.831103669479489" lon="7.239403584972024">
        <ele>1650.24</ele>
        <time>2016-07-09T09:43:02Z</time>
      </trkpt>
      <trkpt lat="45.831054551526904" lon="7.239355891942978">
        <ele>1649.76</ele>
        <time>2016-07-09T09:43:07Z</time>
      </trkpt>
      <trkpt lat="45.83100208081305" lon="7.239293195307255">
        <ele>1650.24</ele>
        <time>2016-07-09T09:43:13Z</time>
      </trkpt>
      <trkpt lat="45.83095564506948" lon="7.239246424287558">
        <ele>1650.24</ele>
        <time>2016-07-09T09:43:18Z</time>
      </trkpt>
      <trkpt lat="45.83084668032825" lon="7.239120276644826">
        <ele>1650.24</ele>
        <time>2016-07-09T09:43:30Z</time>
      </trkpt>
      <trkpt lat="45.830807285383344" lon="7.239014664664865">
        <ele>1651.2</ele>
        <time>2016-07-09T09:43:38Z</time>
      </trkpt>
      <trkpt lat="45.830745091661811" lon="7.238913746550679">
        <ele>1651.6800000000001</ele>
        <time>2016-07-09T09:43:47Z</time>
      </trkpt>
      <trkpt lat="45.830653309822083" lon="7.238784665241838">
        <ele>1651.6800000000001</ele>
        <time>2016-07-09T09:43:58Z</time>
      </trkpt>
      <trkpt lat="45.830623805522919" lon="7.238725572824478">
        <ele>1651.6800000000001</ele>
        <time>2016-07-09T09:44:02Z</time>
      </trkpt>
      <trkpt lat="45.830581979826093" lon="7.238653739914298">
        <ele>1651.6800000000001</ele>
        <time>2016-07-09T09:44:08Z</time>
      </trkpt>
      <trkpt lat="45.830540405586362" lon="7.238587439060211">
        <ele>1651.6800000000001</ele>
        <time>2016-07-09T09:44:13Z</time>
      </trkpt>
      <trkpt lat="45.83051634952426" lon="7.238538404926658">
        <ele>1652.6400000000001</ele>
        <time>2016-07-09T09:44:17Z</time>
      </trkpt>
      <trkpt lat="45.83043965511024" lon="7.238400941714644">
        <ele>1653.5999999999999</ele>
        <time>2016-07-09T09:44:29Z</time>
      </trkpt>
      <trkpt lat="45.830425322055817" lon="7.238379903137684">
        <ele>1654.0899999999999</ele>
        <time>2016-07-09T09:44:31Z</time>
      </trkpt>
      <trkpt lat="45.830338317900896" lon="7.238321900367737">
        <ele>1654.5699999999999</ele>
        <time>2016-07-09T09:44:40Z</time>
      </trkpt>
      <trkpt lat="45.830319290980697" lon="7.238312009721994">
        <ele>1655.05</ele>
        <time>2016-07-09T09:44:42Z</time>
      </trkpt>
      <trkpt lat="45.83020412363112" lon="7.238270686939359">
        <ele>1655.53</ele>
        <time>2016-07-09T09:44:53Z</time>
      </trkpt>
      <trkpt lat="45.830124244093895" lon="7.238235315307975">
        <ele>1656.49</ele>
        <time>2016-07-09T09:45:02Z</time>
      </trkpt>
      <trkpt lat="45.830116700381041" lon="7.238187119364739">
        <ele>1656.97</ele>
        <time>2016-07-09T09:45:11Z</time>
      </trkpt>
      <trkpt lat="45.83013229072094" lon="7.238167505711317">
        <ele>1656.97</ele>
        <time>2016-07-09T09:45:25Z</time>
      </trkpt>
      <trkpt lat="45.830190042033792" lon="7.238176306709647">
        <ele>1657.9300000000001</ele>
        <time>2016-07-09T09:45:33Z</time>
      </trkpt>
      <trkpt lat="45.830216696485877" lon="7.238162392750382">
        <ele>1657.9300000000001</ele>
        <time>2016-07-09T09:45:36Z</time>
      </trkpt>
      <trkpt lat="45.830300431698561" lon="7.238118052482605">
        <ele>1659.3699999999999</ele>
        <time>2016-07-09T09:45:47Z</time>
      </trkpt>
      <trkpt lat="45.83027989603579" lon="7.238078657537699">
        <ele>1661.3</ele>
        <time>2016-07-09T09:45:57Z</time>
      </trkpt>
      <trkpt lat="45.830217115581036" lon="7.238017804920673">
        <ele>1663.22</ele>
        <time>2016-07-09T09:46:07Z</time>
      </trkpt>
      <trkpt lat="45.830202782526612" lon="7.238006489351392">
        <ele>1663.7</ele>
        <time>2016-07-09T09:46:09Z</time>
      </trkpt>
      <trkpt lat="45.830132039263844" lon="7.23793406970799">
        <ele>1664.6600000000001</ele>
        <time>2016-07-09T09:46:18Z</time>
      </trkpt>
      <trkpt lat="45.830068504437804" lon="7.237852262333036">
        <ele>1665.6199999999999</ele>
        <time>2016-07-09T09:46:27Z</time>
      </trkpt>
      <trkpt lat="45.830001533031464" lon="7.237790068611503">
        <ele>1667.0599999999999</ele>
        <time>2016-07-09T09:46:36Z</time>
      </trkpt>
      <trkpt lat="45.829939339309931" lon="7.237708680331707">
        <ele>1668.02</ele>
        <time>2016-07-09T09:46:45Z</time>
      </trkpt>
      <trkpt lat="45.829886449500918" lon="7.237628800794482">
        <ele>1669.47</ele>
        <time>2016-07-09T09:46:54Z</time>
      </trkpt>
      <trkpt lat="45.8298425283283" lon="7.237532157450914">
        <ele>1671.3900000000001</ele>
        <time>2016-07-09T09:47:05Z</time>
      </trkpt>
      <trkpt lat="45.829805983230472" lon="7.237421683967114">
        <ele>1673.3099999999999</ele>
        <time>2016-07-09T09:47:17Z</time>
      </trkpt>
      <trkpt lat="45.829778490588069" lon="7.237327639013529">
        <ele>1675.72</ele>
        <time>2016-07-09T09:47:27Z</time>
      </trkpt>
      <trkpt lat="45.829750662669539" lon="7.237212806940079">
        <ele>1676.6800000000001</ele>
        <time>2016-07-09T09:47:38Z</time>
      </trkpt>
      <trkpt lat="45.829732893034816" lon="7.237101830542088">
        <ele>1678.1199999999999</ele>
        <time>2016-07-09T09:47:48Z</time>
      </trkpt>
      <trkpt lat="45.829731216654181" lon="7.237075427547097">
        <ele>1678.5999999999999</ele>
        <time>2016-07-09T09:47:50Z</time>
      </trkpt>
      <trkpt lat="45.829726103693247" lon="7.23702329210937">
        <ele>1679.0799999999999</ele>
        <time>2016-07-09T09:47:55Z</time>
      </trkpt>
      <trkpt lat="45.82972576841712" lon="7.236904185265303">
        <ele>1680.04</ele>
        <time>2016-07-09T09:48:05Z</time>
      </trkpt>
      <trkpt lat="45.829767761752009" lon="7.236836543306708">
        <ele>1681.48</ele>
        <time>2016-07-09T09:48:15Z</time>
      </trkpt>
      <trkpt lat="45.829800870269537" lon="7.236757837235928">
        <ele>1682.9300000000001</ele>
        <time>2016-07-09T09:48:24Z</time>
      </trkpt>
      <trkpt lat="45.829808413982391" lon="7.236632527783513">
        <ele>1683.4100000000001</ele>
        <time>2016-07-09T09:48:35Z</time>
      </trkpt>
      <trkpt lat="45.829842695966363" lon="7.236479641869664">
        <ele>1683.8900000000001</ele>
        <time>2016-07-09T09:48:48Z</time>
      </trkpt>
      <trkpt lat="45.829869266599417" lon="7.236419543623924">
        <ele>1685.3299999999999</ele>
        <time>2016-07-09T09:48:54Z</time>
      </trkpt>
      <trkpt lat="45.829924251884222" lon="7.236324576660991">
        <ele>1686.77</ele>
        <time>2016-07-09T09:49:04Z</time>
      </trkpt>
      <trkpt lat="45.829938920214772" lon="7.236261963844299">
        <ele>1687.73</ele>
        <time>2016-07-09T09:49:11Z</time>
      </trkpt>
      <trkpt lat="45.829945374280214" lon="7.236161129549146">
        <ele>1687.73</ele>
        <time>2016-07-09T09:49:17Z</time>
      </trkpt>
      <trkpt lat="45.829938836395741" lon="7.235932890325785">
        <ele>1686.29</ele>
        <time>2016-07-09T09:49:30Z</time>
      </trkpt>
      <trkpt lat="45.829991810023785" lon="7.235809760168195">
        <ele>1684.8499999999999</ele>
        <time>2016-07-09T09:49:38Z</time>
      </trkpt>
      <trkpt lat="45.830039586871862" lon="7.235682690516114">
        <ele>1683.8900000000001</ele>
        <time>2016-07-09T09:49:46Z</time>
      </trkpt>
      <trkpt lat="45.830096919089556" lon="7.235573139041662">
        <ele>1684.8499999999999</ele>
        <time>2016-07-09T09:49:55Z</time>
      </trkpt>
      <trkpt lat="45.83010052330792" lon="7.235533241182566">
        <ele>1685.3299999999999</ele>
        <time>2016-07-09T09:49:58Z</time>
      </trkpt>
      <trkpt lat="45.830103205516934" lon="7.235469790175557">
        <ele>1685.8099999999999</ele>
        <time>2016-07-09T09:50:02Z</time>
      </trkpt>
      <trkpt lat="45.830121310427785" lon="7.235324531793594">
        <ele>1686.77</ele>
        <time>2016-07-09T09:50:13Z</time>
      </trkpt>
      <trkpt lat="45.830071941018105" lon="7.235113559290767">
        <ele>1686.77</ele>
        <time>2016-07-09T09:50:29Z</time>
      </trkpt>
      <trkpt lat="45.830043191090226" lon="7.234987076371908">
        <ele>1689.1700000000001</ele>
        <time>2016-07-09T09:50:40Z</time>
      </trkpt>
      <trkpt lat="45.829966580495238" lon="7.234850116074085">
        <ele>1691.0999999999999</ele>
        <time>2016-07-09T09:50:55Z</time>
      </trkpt>
      <trkpt lat="45.829919977113605" lon="7.234742073342204">
        <ele>1693.5</ele>
        <time>2016-07-09T09:51:05Z</time>
      </trkpt>
      <trkpt lat="45.829909751191735" lon="7.234726650640369">
        <ele>1693.5</ele>
        <time>2016-07-09T09:51:07Z</time>
      </trkpt>
      <trkpt lat="45.829882174730301" lon="7.234725896269083">
        <ele>1693.5</ele>
        <time>2016-07-09T09:51:10Z</time>
      </trkpt>
      <trkpt lat="45.829864405095577" lon="7.234711898490787">
        <ele>1693.5</ele>
        <time>2016-07-09T09:51:12Z</time>
      </trkpt>
      <trkpt lat="45.829822411760688" lon="7.234696056693792">
        <ele>1693.02</ele>
        <time>2016-07-09T09:51:16Z</time>
      </trkpt>
      <trkpt lat="45.829765498638153" lon="7.234638053923845">
        <ele>1692.0599999999999</ele>
        <time>2016-07-09T09:51:22Z</time>
      </trkpt>
      <trkpt lat="45.829753428697586" lon="7.234615925699472">
        <ele>1691.5799999999999</ele>
        <time>2016-07-09T09:51:24Z</time>
      </trkpt>
      <trkpt lat="45.829605739563704" lon="7.234583320096135">
        <ele>1689.1700000000001</ele>
        <time>2016-07-09T09:51:37Z</time>
      </trkpt>
      <trkpt lat="45.829570200294256" lon="7.23454057238996">
        <ele>1690.1400000000001</ele>
        <time>2016-07-09T09:51:41Z</time>
      </trkpt>
      <trkpt lat="45.829478753730655" lon="7.234352566301823">
        <ele>1688.6900000000001</ele>
        <time>2016-07-09T09:51:54Z</time>
      </trkpt>
      <trkpt lat="45.829360233619809" lon="7.234196495264769">
        <ele>1688.21</ele>
        <time>2016-07-09T09:52:07Z</time>
      </trkpt>
      <trkpt lat="45.829298794269562" lon="7.234067162498832">
        <ele>1689.1700000000001</ele>
        <time>2016-07-09T09:52:17Z</time>
      </trkpt>
      <trkpt lat="45.829266775399446" lon="7.233984600752592">
        <ele>1689.6500000000001</ele>
        <time>2016-07-09T09:52:23Z</time>
      </trkpt>
      <trkpt lat="45.829226039350033" lon="7.233884688466787">
        <ele>1690.6199999999999</ele>
        <time>2016-07-09T09:52:31Z</time>
      </trkpt>
      <trkpt lat="45.82918731495738" lon="7.233820399269462">
        <ele>1690.6199999999999</ele>
        <time>2016-07-09T09:52:37Z</time>
      </trkpt>
      <trkpt lat="45.829139202833176" lon="7.233692323789001">
        <ele>1692.0599999999999</ele>
        <time>2016-07-09T09:52:48Z</time>
      </trkpt>
      <trkpt lat="45.829079607501626" lon="7.233602050691843">
        <ele>1693.02</ele>
        <time>2016-07-09T09:52:57Z</time>
      </trkpt>
      <trkpt lat="45.829040128737688" lon="7.233498282730579">
        <ele>1693.02</ele>
        <time>2016-07-09T09:53:06Z</time>
      </trkpt>
      <trkpt lat="45.829007104039192" lon="7.233446482568979">
        <ele>1692.54</ele>
        <time>2016-07-09T09:53:10Z</time>
      </trkpt>
      <trkpt lat="45.828989166766405" lon="7.233304157853127">
        <ele>1693.5</ele>
        <time>2016-07-09T09:53:20Z</time>
      </trkpt>
      <trkpt lat="45.828980868682265" lon="7.233316227793694">
        <ele>1693.5</ele>
        <time>2016-07-09T09:53:31Z</time>
      </trkpt>
      <trkpt lat="45.828997883945704" lon="7.233245400711894">
        <ele>1693.02</ele>
        <time>2016-07-09T09:53:35Z</time>
      </trkpt>
      <trkpt lat="45.829023281112313" lon="7.233114978298545">
        <ele>1691.5799999999999</ele>
        <time>2016-07-09T09:53:43Z</time>
      </trkpt>
      <trkpt lat="45.829031998291612" lon="7.233087485656142">
        <ele>1691.0999999999999</ele>
        <time>2016-07-09T09:53:45Z</time>
      </trkpt>
      <trkpt lat="45.829027555882931" lon="7.232983214780688">
        <ele>1690.1400000000001</ele>
        <time>2016-07-09T09:53:51Z</time>
      </trkpt>
      <trkpt lat="45.828967206180096" lon="7.232811134308577">
        <ele>1687.73</ele>
        <time>2016-07-09T09:54:04Z</time>
      </trkpt>
      <trkpt lat="45.828875675797462" lon="7.232671575620771">
        <ele>1685.8099999999999</ele>
        <time>2016-07-09T09:54:15Z</time>
      </trkpt>
      <trkpt lat="45.828802669420838" lon="7.232512487098575">
        <ele>1683.8900000000001</ele>
        <time>2016-07-09T09:54:26Z</time>
      </trkpt>
      <trkpt lat="45.828716419637203" lon="7.232324061915278">
        <ele>1682.4400000000001</ele>
        <time>2016-07-09T09:54:39Z</time>
      </trkpt>
      <trkpt lat="45.828629499301314" lon="7.232130859047175">
        <ele>1680.52</ele>
        <time>2016-07-09T09:54:53Z</time>
      </trkpt>
      <trkpt lat="45.828531431034207" lon="7.231991970911622">
        <ele>1679.0799999999999</ele>
        <time>2016-07-09T09:55:05Z</time>
      </trkpt>
      <trkpt lat="45.828431937843561" lon="7.231863811612129">
        <ele>1676.6800000000001</ele>
        <time>2016-07-09T09:55:16Z</time>
      </trkpt>
      <trkpt lat="45.828404193744063" lon="7.231817627325654">
        <ele>1675.72</ele>
        <time>2016-07-09T09:55:20Z</time>
      </trkpt>
      <trkpt lat="45.828423723578453" lon="7.231596009805799">
        <ele>1672.3499999999999</ele>
        <time>2016-07-09T09:55:33Z</time>
      </trkpt>
      <trkpt lat="45.828449036926031" lon="7.231408338993788">
        <ele>1670.4300000000001</ele>
        <time>2016-07-09T09:55:44Z</time>
      </trkpt>
      <trkpt lat="45.828468315303326" lon="7.231360143050551">
        <ele>1669.47</ele>
        <time>2016-07-09T09:55:47Z</time>
      </trkpt>
      <trkpt lat="45.828558085486293" lon="7.231201725080609">
        <ele>1668.51</ele>
        <time>2016-07-09T09:55:59Z</time>
      </trkpt>
      <trkpt lat="45.828565377742052" lon="7.231186553835869">
        <ele>1668.02</ele>
        <time>2016-07-09T09:56:00Z</time>
      </trkpt>
      <trkpt lat="45.828606868162751" lon="7.231140956282616">
        <ele>1668.02</ele>
        <time>2016-07-09T09:56:04Z</time>
      </trkpt>
      <trkpt lat="45.828625895082951" lon="7.231105752289295">
        <ele>1668.02</ele>
        <time>2016-07-09T09:56:07Z</time>
      </trkpt>
      <trkpt lat="45.82864249125123" lon="7.231039283797145">
        <ele>1667.54</ele>
        <time>2016-07-09T09:56:11Z</time>
      </trkpt>
      <trkpt lat="45.828661015257239" lon="7.230970300734043">
        <ele>1667.0599999999999</ele>
        <time>2016-07-09T09:56:15Z</time>
      </trkpt>
      <trkpt lat="45.828684568405151" lon="7.23089880309999">
        <ele>1666.0999999999999</ele>
        <time>2016-07-09T09:56:20Z</time>
      </trkpt>
      <trkpt lat="45.828728405758739" lon="7.23066913895309">
        <ele>1663.7</ele>
        <time>2016-07-09T09:56:35Z</time>
      </trkpt>
      <trkpt lat="45.828729327768087" lon="7.230642233043909">
        <ele>1663.22</ele>
        <time>2016-07-09T09:56:37Z</time>
      </trkpt>
      <trkpt lat="45.828732680529356" lon="7.230600323528051">
        <ele>1662.74</ele>
        <time>2016-07-09T09:56:40Z</time>
      </trkpt>
      <trkpt lat="45.82871331833303" lon="7.23043461330235">
        <ele>1659.3699999999999</ele>
        <time>2016-07-09T09:56:52Z</time>
      </trkpt>
      <trkpt lat="45.828707702457905" lon="7.230424974113703">
        <ele>1658.8900000000001</ele>
        <time>2016-07-09T09:56:53Z</time>
      </trkpt>
      <trkpt lat="45.82869571633637" lon="7.230386501178145">
        <ele>1657.9300000000001</ele>
        <time>2016-07-09T09:56:56Z</time>
      </trkpt>
      <trkpt lat="45.828691106289625" lon="7.230320787057281">
        <ele>1657.45</ele>
        <time>2016-07-09T09:57:00Z</time>
      </trkpt>
      <trkpt lat="45.828682808205485" lon="7.230142252519727">
        <ele>1656.97</ele>
        <time>2016-07-09T09:57:13Z</time>
      </trkpt>
      <trkpt lat="45.828645508736372" lon="7.23000755533576">
        <ele>1656.49</ele>
        <time>2016-07-09T09:57:23Z</time>
      </trkpt>
      <trkpt lat="45.82861072383821" lon="7.229902865365148">
        <ele>1656.97</ele>
        <time>2016-07-09T09:57:31Z</time>
      </trkpt>
      <trkpt lat="45.828589349985123" lon="7.229862296953797">
        <ele>1656.97</ele>
        <time>2016-07-09T09:57:35Z</time>
      </trkpt>
      <trkpt lat="45.828535202890635" lon="7.229734472930431">
        <ele>1656.49</ele>
        <time>2016-07-09T09:57:45Z</time>
      </trkpt>
      <trkpt lat="45.828505363315344" lon="7.229628525674343">
        <ele>1656.97</ele>
        <time>2016-07-09T09:57:55Z</time>
      </trkpt>
      <trkpt lat="45.828487845137715" lon="7.229569600895047">
        <ele>1655.05</ele>
        <time>2016-07-09T09:57:59Z</time>
      </trkpt>
      <trkpt lat="45.828451886773109" lon="7.22939383238554">
        <ele>1653.5999999999999</ele>
        <time>2016-07-09T09:58:10Z</time>
      </trkpt>
      <trkpt lat="45.828389106318355" lon="7.229194762185216">
        <ele>1652.1600000000001</ele>
        <time>2016-07-09T09:58:23Z</time>
      </trkpt>
      <trkpt lat="45.828398074954748" lon="7.229025363922119">
        <ele>1650.72</ele>
        <time>2016-07-09T09:58:33Z</time>
      </trkpt>
      <trkpt lat="45.828399080783129" lon="7.22881380468607">
        <ele>1651.2</ele>
        <time>2016-07-09T09:58:47Z</time>
      </trkpt>
      <trkpt lat="45.828392375260592" lon="7.228686483576894">
        <ele>1650.24</ele>
        <time>2016-07-09T09:58:56Z</time>
      </trkpt>
      <trkpt lat="45.828320374712348" lon="7.228675168007612">
        <ele>1647.8399999999999</ele>
        <time>2016-07-09T09:59:02Z</time>
      </trkpt>
      <trkpt lat="45.828322218731046" lon="7.228521862998605">
        <ele>1646.4000000000001</ele>
        <time>2016-07-09T09:59:10Z</time>
      </trkpt>
      <trkpt lat="45.828360188752413" lon="7.228287337347865">
        <ele>1643.99</ele>
        <time>2016-07-09T09:59:24Z</time>
      </trkpt>
      <trkpt lat="45.828330181539059" lon="7.22829001955688">
        <ele>1641.5899999999999</ele>
        <time>2016-07-09T09:59:33Z</time>
      </trkpt>
      <trkpt lat="45.828238734975457" lon="7.228407869115472">
        <ele>1638.22</ele>
        <time>2016-07-09T09:59:43Z</time>
      </trkpt>
      <trkpt lat="45.828219875693321" lon="7.228429578244686">
        <ele>1638.22</ele>
        <time>2016-07-09T09:59:46Z</time>
      </trkpt>
      <trkpt lat="45.828207470476627" lon="7.228381633758545">
        <ele>1637.26</ele>
        <time>2016-07-09T09:59:49Z</time>
      </trkpt>
      <trkpt lat="45.828292043879628" lon="7.228205865249038">
        <ele>1637.74</ele>
        <time>2016-07-09T10:00:03Z</time>
      </trkpt>
      <trkpt lat="45.828401343896985" lon="7.228102600201964">
        <ele>1638.22</ele>
        <time>2016-07-09T10:00:16Z</time>
      </trkpt>
      <trkpt lat="45.828523384407163" lon="7.227946445345879">
        <ele>1639.6700000000001</ele>
        <time>2016-07-09T10:00:31Z</time>
      </trkpt>
      <trkpt lat="45.828614328056574" lon="7.227817866951227">
        <ele>1639.6700000000001</ele>
        <time>2016-07-09T10:00:43Z</time>
      </trkpt>
      <trkpt lat="45.828708959743381" lon="7.227674033492804">
        <ele>1641.5899999999999</ele>
        <time>2016-07-09T10:00:56Z</time>
      </trkpt>
      <trkpt lat="45.828742906451225" lon="7.227616617456079">
        <ele>1642.0699999999999</ele>
        <time>2016-07-09T10:01:01Z</time>
      </trkpt>
      <trkpt lat="45.828786492347717" lon="7.227514525875449">
        <ele>1642.55</ele>
        <time>2016-07-09T10:01:09Z</time>
      </trkpt>
      <trkpt lat="45.828812727704644" lon="7.227469095960259">
        <ele>1643.03</ele>
        <time>2016-07-09T10:01:13Z</time>
      </trkpt>
      <trkpt lat="45.82889461889863" lon="7.227345798164606">
        <ele>1643.99</ele>
        <time>2016-07-09T10:01:24Z</time>
      </trkpt>
      <trkpt lat="45.828954800963402" lon="7.22726440988481">
        <ele>1644.47</ele>
        <time>2016-07-09T10:01:32Z</time>
      </trkpt>
      <trkpt lat="45.829043816775084" lon="7.227140944451094">
        <ele>1645.4300000000001</ele>
        <time>2016-07-09T10:01:43Z</time>
      </trkpt>
      <trkpt lat="45.829118834808469" lon="7.226997027173638">
        <ele>1646.4000000000001</ele>
        <time>2016-07-09T10:01:55Z</time>
      </trkpt>
      <trkpt lat="45.829132748767734" lon="7.226918572559953">
        <ele>1646.4000000000001</ele>
        <time>2016-07-09T10:02:00Z</time>
      </trkpt>
      <trkpt lat="45.829149931669235" lon="7.22686174325645">
        <ele>1646.8800000000001</ele>
        <time>2016-07-09T10:02:05Z</time>
      </trkpt>
      <trkpt lat="45.82914674654603" lon="7.226819330826402">
        <ele>1646.8800000000001</ele>
        <time>2016-07-09T10:02:08Z</time>
      </trkpt>
      <trkpt lat="45.829154793173075" lon="7.226674156263471">
        <ele>1647.3599999999999</ele>
        <time>2016-07-09T10:02:17Z</time>
      </trkpt>
      <trkpt lat="45.829153284430504" lon="7.22660911269486">
        <ele>1647.8399999999999</ele>
        <time>2016-07-09T10:02:21Z</time>
      </trkpt>
      <trkpt lat="45.829159151762724" lon="7.226439630612731">
        <ele>1647.8399999999999</ele>
        <time>2016-07-09T10:02:32Z</time>
      </trkpt>
      <trkpt lat="45.829150686040521" lon="7.226223880425096">
        <ele>1648.3199999999999</ele>
        <time>2016-07-09T10:02:45Z</time>
      </trkpt>
      <trkpt lat="45.829136185348034" lon="7.22615766339004">
        <ele>1649.76</ele>
        <time>2016-07-09T10:02:50Z</time>
      </trkpt>
      <trkpt lat="45.829112296923995" lon="7.226086417213082">
        <ele>1649.76</ele>
        <time>2016-07-09T10:02:55Z</time>
      </trkpt>
      <trkpt lat="45.829100897535682" lon="7.226029252633452">
        <ele>1649.76</ele>
        <time>2016-07-09T10:02:59Z</time>
      </trkpt>
      <trkpt lat="45.829077092930675" lon="7.225859686732292">
        <ele>1651.2</ele>
        <time>2016-07-09T10:03:10Z</time>
      </trkpt>
      <trkpt lat="45.829113805666566" lon="7.225698083639145">
        <ele>1651.6800000000001</ele>
        <time>2016-07-09T10:03:20Z</time>
      </trkpt>
      <trkpt lat="45.829188991338015" lon="7.225556513294578">
        <ele>1652.6400000000001</ele>
        <time>2016-07-09T10:03:31Z</time>
      </trkpt>
      <trkpt lat="45.829249005764723" lon="7.225419469177723">
        <ele>1653.5999999999999</ele>
        <time>2016-07-09T10:03:41Z</time>
      </trkpt>
      <trkpt lat="45.829258477315307" lon="7.225388959050179">
        <ele>1653.5999999999999</ele>
        <time>2016-07-09T10:03:43Z</time>
      </trkpt>
      <trkpt lat="45.829291082918644" lon="7.225303379818797">
        <ele>1654.0899999999999</ele>
        <time>2016-07-09T10:03:49Z</time>
      </trkpt>
      <trkpt lat="45.829308852553368" lon="7.225269433110952">
        <ele>1655.05</ele>
        <time>2016-07-09T10:03:52Z</time>
      </trkpt>
      <trkpt lat="45.829347744584084" lon="7.225181255489588">
        <ele>1655.53</ele>
        <time>2016-07-09T10:03:59Z</time>
      </trkpt>
      <trkpt lat="45.829391162842512" lon="7.225115541368723">
        <ele>1655.53</ele>
        <time>2016-07-09T10:04:05Z</time>
      </trkpt>
      <trkpt lat="45.829438185319304" lon="7.225057454779744">
        <ele>1656.49</ele>
        <time>2016-07-09T10:04:11Z</time>
      </trkpt>
      <trkpt lat="45.829534493386745" lon="7.224942538887262">
        <ele>1656.97</ele>
        <time>2016-07-09T10:04:21Z</time>
      </trkpt>
      <trkpt lat="45.829619904980063" lon="7.224828293547034">
        <ele>1657.9300000000001</ele>
        <time>2016-07-09T10:04:34Z</time>
      </trkpt>
      <trkpt lat="45.829681260511279" lon="7.224685801193118">
        <ele>1659.8499999999999</ele>
        <time>2016-07-09T10:04:46Z</time>
      </trkpt>
      <trkpt lat="45.829750411212444" lon="7.22452855668962">
        <ele>1660.3299999999999</ele>
        <time>2016-07-09T10:04:57Z</time>
      </trkpt>
      <trkpt lat="45.829777317121625" lon="7.224496454000473">
        <ele>1660.3299999999999</ele>
        <time>2016-07-09T10:05:00Z</time>
      </trkpt>
      <trkpt lat="45.829868847504258" lon="7.22441422753036">
        <ele>1661.3</ele>
        <time>2016-07-09T10:05:11Z</time>
      </trkpt>
      <trkpt lat="45.829952834174037" lon="7.224326217547059">
        <ele>1662.26</ele>
        <time>2016-07-09T10:05:20Z</time>
      </trkpt>
      <trkpt lat="45.829987619072199" lon="7.224275171756744">
        <ele>1662.26</ele>
        <time>2016-07-09T10:05:24Z</time>
      </trkpt>
      <trkpt lat="45.830004885792732" lon="7.224241476505995">
        <ele>1663.22</ele>
        <time>2016-07-09T10:05:27Z</time>
      </trkpt>
      <trkpt lat="45.830080406740308" lon="7.22409026697278">
        <ele>1663.7</ele>
        <time>2016-07-09T10:05:38Z</time>
      </trkpt>
      <trkpt lat="45.830150311812758" lon="7.223937045782805">
        <ele>1664.6600000000001</ele>
        <time>2016-07-09T10:05:49Z</time>
      </trkpt>
      <trkpt lat="45.830218456685543" lon="7.223802600055933">
        <ele>1665.1400000000001</ele>
        <time>2016-07-09T10:06:01Z</time>
      </trkpt>
      <trkpt lat="45.830254498869181" lon="7.223684331402183">
        <ele>1665.6199999999999</ele>
        <time>2016-07-09T10:06:09Z</time>
      </trkpt>
      <trkpt lat="45.830285595729947" lon="7.223562374711037">
        <ele>1666.5799999999999</ele>
        <time>2016-07-09T10:06:17Z</time>
      </trkpt>
      <trkpt lat="45.830304371193051" lon="7.223477801308036">
        <ele>1666.5799999999999</ele>
        <time>2016-07-09T10:06:23Z</time>
      </trkpt>
      <trkpt lat="45.830311579629779" lon="7.223437232896686">
        <ele>1667.0599999999999</ele>
        <time>2016-07-09T10:06:26Z</time>
      </trkpt>
      <trkpt lat="45.830311495810747" lon="7.223264314234257">
        <ele>1667.54</ele>
        <time>2016-07-09T10:06:37Z</time>
      </trkpt>
      <trkpt lat="45.83031015470624" lon="7.223130371421576">
        <ele>1668.51</ele>
        <time>2016-07-09T10:06:46Z</time>
      </trkpt>
      <trkpt lat="45.830300683155656" lon="7.222982095554471">
        <ele>1667.54</ele>
        <time>2016-07-09T10:06:56Z</time>
      </trkpt>
      <trkpt lat="45.830253660678864" lon="7.222715634852648">
        <ele>1666.5799999999999</ele>
        <time>2016-07-09T10:07:12Z</time>
      </trkpt>
      <trkpt lat="45.830237818881869" lon="7.222464345395565">
        <ele>1665.1400000000001</ele>
        <time>2016-07-09T10:07:26Z</time>
      </trkpt>
      <trkpt lat="45.830237148329616" lon="7.222433164715767">
        <ele>1664.6600000000001</ele>
        <time>2016-07-09T10:07:28Z</time>
      </trkpt>
      <trkpt lat="45.830218205228448" lon="7.22221976146102">
        <ele>1662.74</ele>
        <time>2016-07-09T10:07:40Z</time>
      </trkpt>
      <trkpt lat="45.830151485279202" lon="7.222079783678055">
        <ele>1662.26</ele>
        <time>2016-07-09T10:07:51Z</time>
      </trkpt>
      <trkpt lat="45.830046879127622" lon="7.221885239705443">
        <ele>1661.3</ele>
        <time>2016-07-09T10:08:05Z</time>
      </trkpt>
      <trkpt lat="45.830010669305921" lon="7.221710560843349">
        <ele>1661.3</ele>
        <time>2016-07-09T10:08:16Z</time>
      </trkpt>
      <trkpt lat="45.830009579658508" lon="7.221658928319812">
        <ele>1661.3</ele>
        <time>2016-07-09T10:08:19Z</time>
      </trkpt>
      <trkpt lat="45.829923246055841" lon="7.221498247236013">
        <ele>1659.8499999999999</ele>
        <time>2016-07-09T10:08:31Z</time>
      </trkpt>
      <trkpt lat="45.829930538311601" lon="7.221427839249373">
        <ele>1661.78</ele>
        <time>2016-07-09T10:08:39Z</time>
      </trkpt>
      <trkpt lat="45.829968843609095" lon="7.221351396292448">
        <ele>1661.3</ele>
        <time>2016-07-09T10:08:48Z</time>
      </trkpt>
      <trkpt lat="45.82998133264482" lon="7.221334548667073">
        <ele>1661.78</ele>
        <time>2016-07-09T10:08:50Z</time>
      </trkpt>
      <trkpt lat="45.829996922984719" lon="7.221298255026341">
        <ele>1662.26</ele>
        <time>2016-07-09T10:08:59Z</time>
      </trkpt>
      <trkpt lat="45.829993737861514" lon="7.221303451806307">
        <ele>1662.26</ele>
        <time>2016-07-09T10:09:06Z</time>
      </trkpt>
      <trkpt lat="45.829978566616774" lon="7.221356928348541">
        <ele>1661.78</ele>
        <time>2016-07-09T10:09:17Z</time>
      </trkpt>
      <trkpt lat="45.829992396757007" lon="7.22131778486073">
        <ele>1661.78</ele>
        <time>2016-07-09T10:09:29Z</time>
      </trkpt>
      <trkpt lat="45.829993402585387" lon="7.221316108480096">
        <ele>1660.8099999999999</ele>
        <time>2016-07-09T10:09:39Z</time>
      </trkpt>
      <trkpt lat="45.829996922984719" lon="7.221316108480096">
        <ele>1660.8099999999999</ele>
        <time>2016-07-09T10:10:06Z</time>
      </trkpt>
      <trkpt lat="45.829977141693234" lon="7.221349133178592">
        <ele>1660.8099999999999</ele>
        <time>2016-07-09T10:10:28Z</time>
      </trkpt>
      <trkpt lat="45.829968173056841" lon="7.221353743225336">
        <ele>1660.8099999999999</ele>
        <time>2016-07-09T10:10:42Z</time>
      </trkpt>
      <trkpt lat="45.829971861094236" lon="7.221308900043368">
        <ele>1660.3299999999999</ele>
        <time>2016-07-09T10:11:04Z</time>
      </trkpt>
      <trkpt lat="45.829977728426456" lon="7.221326334401965">
        <ele>1660.3299999999999</ele>
        <time>2016-07-09T10:11:21Z</time>
      </trkpt>
      <trkpt lat="45.829968005418777" lon="7.221315689384937">
        <ele>1660.3299999999999</ele>
        <time>2016-07-09T10:11:38Z</time>
      </trkpt>
      <trkpt lat="45.829973872750998" lon="7.221318539232016">
        <ele>1660.3299999999999</ele>
        <time>2016-07-09T10:12:06Z</time>
      </trkpt>
      <trkpt lat="45.829993570223451" lon="7.221311163157225">
        <ele>1660.8099999999999</ele>
        <time>2016-07-09T10:12:38Z</time>
      </trkpt>
      <trkpt lat="45.829989714547992" lon="7.221321808174253">
        <ele>1660.8099999999999</ele>
        <time>2016-07-09T10:13:05Z</time>
      </trkpt>
      <trkpt lat="45.829982003197074" lon="7.221343852579594">
        <ele>1660.3299999999999</ele>
        <time>2016-07-09T10:13:44Z</time>
      </trkpt>
      <trkpt lat="45.829977225512266" lon="7.221330776810646">
        <ele>1660.3299999999999</ele>
        <time>2016-07-09T10:14:13Z</time>
      </trkpt>
      <trkpt lat="45.829969430342317" lon="7.221308564767242">
        <ele>1660.3299999999999</ele>
        <time>2016-07-09T10:14:34Z</time>
      </trkpt>
      <trkpt lat="45.82997253164649" lon="7.221315437927842">
        <ele>1660.8099999999999</ele>
        <time>2016-07-09T10:15:00Z</time>
      </trkpt>
      <trkpt lat="45.829991055652499" lon="7.221297584474087">
        <ele>1661.3</ele>
        <time>2016-07-09T10:15:10Z</time>
      </trkpt>
      <trkpt lat="45.829994073137641" lon="7.221318790689111">
        <ele>1661.3</ele>
        <time>2016-07-09T10:15:24Z</time>
      </trkpt>
      <trkpt lat="45.829988457262516" lon="7.221336392685771">
        <ele>1661.3</ele>
        <time>2016-07-09T10:15:36Z</time>
      </trkpt>
      <trkpt lat="45.829985104501247" lon="7.221340835094452">
        <ele>1661.78</ele>
        <time>2016-07-09T10:15:53Z</time>
      </trkpt>
      <trkpt lat="45.829977644607425" lon="7.221330860629678">
        <ele>1661.3</ele>
        <time>2016-07-09T10:16:12Z</time>
      </trkpt>
      <trkpt lat="45.829987954348326" lon="7.221302445977926">
        <ele>1660.8099999999999</ele>
        <time>2016-07-09T10:16:29Z</time>
      </trkpt>
      <trkpt lat="45.829995581880212" lon="7.22129238769412">
        <ele>1660.8099999999999</ele>
        <time>2016-07-09T10:16:38Z</time>
      </trkpt>
      <trkpt lat="45.830028019845486" lon="7.221210328862071">
        <ele>1662.74</ele>
        <time>2016-07-09T10:16:51Z</time>
      </trkpt>
      <trkpt lat="45.830003628507257" lon="7.221112847328186">
        <ele>1664.1800000000001</ele>
        <time>2016-07-09T10:17:01Z</time>
      </trkpt>
      <trkpt lat="45.829970352351665" lon="7.221004301682115">
        <ele>1666.0999999999999</ele>
        <time>2016-07-09T10:17:13Z</time>
      </trkpt>
      <trkpt lat="45.82996909506619" lon="7.220914196223021">
        <ele>1667.0599999999999</ele>
        <time>2016-07-09T10:17:24Z</time>
      </trkpt>
      <trkpt lat="45.829955181106925" lon="7.220900701358914">
        <ele>1667.54</ele>
        <time>2016-07-09T10:17:28Z</time>
      </trkpt>
      <trkpt lat="45.829948559403419" lon="7.220872202888131">
        <ele>1667.54</ele>
        <time>2016-07-09T10:17:30Z</time>
      </trkpt>
      <trkpt lat="45.829909667372704" lon="7.220729794353247">
        <ele>1667.0599999999999</ele>
        <time>2016-07-09T10:17:41Z</time>
      </trkpt>
      <trkpt lat="45.829904386773705" lon="7.22062292508781">
        <ele>1668.51</ele>
        <time>2016-07-09T10:17:51Z</time>
      </trkpt>
      <trkpt lat="45.829897345975041" lon="7.220505243167281">
        <ele>1669.95</ele>
        <time>2016-07-09T10:18:01Z</time>
      </trkpt>
      <trkpt lat="45.829890053719282" lon="7.2203747369349">
        <ele>1671.8699999999999</ele>
        <time>2016-07-09T10:18:13Z</time>
      </trkpt>
      <trkpt lat="45.829916708171368" lon="7.220261665061116">
        <ele>1673.3099999999999</ele>
        <time>2016-07-09T10:18:24Z</time>
      </trkpt>
      <trkpt lat="45.829922240227461" lon="7.220211960375309">
        <ele>1673.3099999999999</ele>
        <time>2016-07-09T10:18:28Z</time>
      </trkpt>
      <trkpt lat="45.829978231340647" lon="7.220106096938252">
        <ele>1675.23</ele>
        <time>2016-07-09T10:18:39Z</time>
      </trkpt>
      <trkpt lat="45.830019721761346" lon="7.220007022842765">
        <ele>1676.6800000000001</ele>
        <time>2016-07-09T10:18:49Z</time>
      </trkpt>
      <trkpt lat="45.830008657649159" lon="7.219901662319899">
        <ele>1678.5999999999999</ele>
        <time>2016-07-09T10:19:00Z</time>
      </trkpt>
      <trkpt lat="45.830000778660178" lon="7.219797978177667">
        <ele>1679.5599999999999</ele>
        <time>2016-07-09T10:19:11Z</time>
      </trkpt>
      <trkpt lat="45.829976722598076" lon="7.219746932387352">
        <ele>1681</ele>
        <time>2016-07-09T10:19:23Z</time>
      </trkpt>
      <trkpt lat="45.829964904114604" lon="7.219754057005048">
        <ele>1680.52</ele>
        <time>2016-07-09T10:19:36Z</time>
      </trkpt>
      <trkpt lat="45.829971441999078" lon="7.219749446958304">
        <ele>1681</ele>
        <time>2016-07-09T10:19:53Z</time>
      </trkpt>
      <trkpt lat="45.829962892457843" lon="7.219747100025415">
        <ele>1681</ele>
        <time>2016-07-09T10:20:10Z</time>
      </trkpt>
      <trkpt lat="45.82993783056736" lon="7.21967451274395">
        <ele>1682.4400000000001</ele>
        <time>2016-07-09T10:20:16Z</time>
      </trkpt>
      <trkpt lat="45.829897848889232" lon="7.219597650691867">
        <ele>1683.8900000000001</ele>
        <time>2016-07-09T10:20:26Z</time>
      </trkpt>
      <trkpt lat="45.829875636845827" lon="7.219528667628765">
        <ele>1684.8499999999999</ele>
        <time>2016-07-09T10:20:38Z</time>
      </trkpt>
      <trkpt lat="45.829826854169369" lon="7.21939648501575">
        <ele>1686.29</ele>
        <time>2016-07-09T10:20:51Z</time>
      </trkpt>
      <trkpt lat="45.82979952916503" lon="7.219263883307576">
        <ele>1687.73</ele>
        <time>2016-07-09T10:21:02Z</time>
      </trkpt>
      <trkpt lat="45.829778490588069" lon="7.219136143103242">
        <ele>1689.6500000000001</ele>
        <time>2016-07-09T10:21:12Z</time>
      </trkpt>
      <trkpt lat="45.829752422869205" lon="7.219016030430794">
        <ele>1691.5799999999999</ele>
        <time>2016-07-09T10:21:24Z</time>
      </trkpt>
      <trkpt lat="45.829745884984732" lon="7.218928942456842">
        <ele>1693.5</ele>
        <time>2016-07-09T10:21:35Z</time>
      </trkpt>
      <trkpt lat="45.829760134220123" lon="7.218862725421786">
        <ele>1694.9400000000001</ele>
        <time>2016-07-09T10:21:45Z</time>
      </trkpt>
      <trkpt lat="45.829784777015448" lon="7.218782929703593">
        <ele>1698.3099999999999</ele>
        <time>2016-07-09T10:21:55Z</time>
      </trkpt>
      <trkpt lat="45.829802630469203" lon="7.218698356300592">
        <ele>1698.79</ele>
        <time>2016-07-09T10:22:05Z</time>
      </trkpt>
      <trkpt lat="45.82980053499341" lon="7.218616213649511">
        <ele>1700.23</ele>
        <time>2016-07-09T10:22:15Z</time>
      </trkpt>
      <trkpt lat="45.829786537215114" lon="7.21852577291429">
        <ele>1701.1900000000001</ele>
        <time>2016-07-09T10:22:25Z</time>
      </trkpt>
      <trkpt lat="45.829782681539655" lon="7.218475230038166">
        <ele>1702.1500000000001</ele>
        <time>2016-07-09T10:22:31Z</time>
      </trkpt>
      <trkpt lat="45.829806318506598" lon="7.218367690220475">
        <ele>1703.5899999999999</ele>
        <time>2016-07-09T10:22:43Z</time>
      </trkpt>
      <trkpt lat="45.829845713451505" lon="7.218289403244853">
        <ele>1706</ele>
        <time>2016-07-09T10:22:55Z</time>
      </trkpt>
      <trkpt lat="45.829888125881553" lon="7.218227293342352">
        <ele>1707.9200000000001</ele>
        <time>2016-07-09T10:23:06Z</time>
      </trkpt>
      <trkpt lat="45.829925676807761" lon="7.218180354684591">
        <ele>1708.8800000000001</ele>
        <time>2016-07-09T10:23:16Z</time>
      </trkpt>
      <trkpt lat="45.82993196323514" lon="7.218178091570735">
        <ele>1708.8800000000001</ele>
        <time>2016-07-09T10:23:17Z</time>
      </trkpt>
      <trkpt lat="45.829954007640481" lon="7.218164848163724">
        <ele>1709.8399999999999</ele>
        <time>2016-07-09T10:23:20Z</time>
      </trkpt>
      <trkpt lat="45.829974208027124" lon="7.218157472088933">
        <ele>1709.8399999999999</ele>
        <time>2016-07-09T10:23:22Z</time>
      </trkpt>
      <trkpt lat="45.830004131421447" lon="7.218158058822155">
        <ele>1710.8</ele>
        <time>2016-07-09T10:23:26Z</time>
      </trkpt>
      <trkpt lat="45.830051405355334" lon="7.21813140437007">
        <ele>1711.76</ele>
        <time>2016-07-09T10:23:35Z</time>
      </trkpt>
      <trkpt lat="45.830101696774364" lon="7.218048172071576">
        <ele>1713.21</ele>
        <time>2016-07-09T10:23:46Z</time>
      </trkpt>
      <trkpt lat="45.83014695905149" lon="7.217993773519993">
        <ele>1716.0899999999999</ele>
        <time>2016-07-09T10:23:56Z</time>
      </trkpt>
      <trkpt lat="45.830180989578366" lon="7.217929819598794">
        <ele>1716.0899999999999</ele>
        <time>2016-07-09T10:24:06Z</time>
      </trkpt>
      <trkpt lat="45.830227928236127" lon="7.217878522351384">
        <ele>1718.01</ele>
        <time>2016-07-09T10:24:16Z</time>
      </trkpt>
      <trkpt lat="45.830249385908246" lon="7.217813143506646">
        <ele>1719.9400000000001</ele>
        <time>2016-07-09T10:24:26Z</time>
      </trkpt>
      <trkpt lat="45.830263970419765" lon="7.217728402465582">
        <ele>1721.8599999999999</ele>
        <time>2016-07-09T10:24:38Z</time>
      </trkpt>
      <trkpt lat="45.830272268503904" lon="7.217652043327689">
        <ele>1723.3</ele>
        <time>2016-07-09T10:24:49Z</time>
      </trkpt>
      <trkpt lat="45.830282662063837" lon="7.217556070536375">
        <ele>1725.22</ele>
        <time>2016-07-09T10:25:00Z</time>
      </trkpt>
      <trkpt lat="45.830293809995055" lon="7.217462444677949">
        <ele>1726.1800000000001</ele>
        <time>2016-07-09T10:25:09Z</time>
      </trkpt>
      <trkpt lat="45.830311328172684" lon="7.217474766075611">
        <ele>1726.1800000000001</ele>
        <time>2016-07-09T10:25:23Z</time>
      </trkpt>
      <trkpt lat="45.830266401171684" lon="7.217522962018848">
        <ele>1725.22</ele>
        <time>2016-07-09T10:25:36Z</time>
      </trkpt>
      <trkpt lat="45.830272603780031" lon="7.217506533488631">
        <ele>1725.7</ele>
        <time>2016-07-09T10:25:50Z</time>
      </trkpt>
      <trkpt lat="45.830279560759664" lon="7.217500917613506">
        <ele>1725.22</ele>
        <time>2016-07-09T10:26:01Z</time>
      </trkpt>
      <trkpt lat="45.830266065895557" lon="7.217562776058912">
        <ele>1724.74</ele>
        <time>2016-07-09T10:26:15Z</time>
      </trkpt>
      <trkpt lat="45.830256761983037" lon="7.217589849606156">
        <ele>1725.22</ele>
        <time>2016-07-09T10:26:31Z</time>
      </trkpt>
      <trkpt lat="45.83025248721242" lon="7.217603847384453">
        <ele>1725.22</ele>
        <time>2016-07-09T10:26:55Z</time>
      </trkpt>
      <trkpt lat="45.830251816660166" lon="7.217620778828859">
        <ele>1725.22</ele>
        <time>2016-07-09T10:27:17Z</time>
      </trkpt>
      <trkpt lat="45.830256678164005" lon="7.217626562342048">
        <ele>1725.7</ele>
        <time>2016-07-09T10:27:35Z</time>
      </trkpt>
      <trkpt lat="45.830260114744306" lon="7.217626394703984">
        <ele>1724.74</ele>
        <time>2016-07-09T10:27:55Z</time>
      </trkpt>
      <trkpt lat="45.830254834145308" lon="7.217623880133033">
        <ele>1724.74</ele>
        <time>2016-07-09T10:28:13Z</time>
      </trkpt>
      <trkpt lat="45.830249218270183" lon="7.217635530978441">
        <ele>1724.74</ele>
        <time>2016-07-09T10:28:27Z</time>
      </trkpt>
      <trkpt lat="45.830265060067177" lon="7.217619689181447">
        <ele>1724.26</ele>
        <time>2016-07-09T10:28:45Z</time>
      </trkpt>
      <trkpt lat="45.830256845802069" lon="7.21763058565557">
        <ele>1723.78</ele>
        <time>2016-07-09T10:28:59Z</time>
      </trkpt>
      <trkpt lat="45.83026765845716" lon="7.21770728006959">
        <ele>1722.8199999999999</ele>
        <time>2016-07-09T10:29:13Z</time>
      </trkpt>
      <trkpt lat="45.830267071723938" lon="7.217758409678936">
        <ele>1721.3800000000001</ele>
        <time>2016-07-09T10:29:22Z</time>
      </trkpt>
      <trkpt lat="45.830255001783371" lon="7.21781917847693">
        <ele>1720.9000000000001</ele>
        <time>2016-07-09T10:29:33Z</time>
      </trkpt>
      <trkpt lat="45.830251481384039" lon="7.217837702482939">
        <ele>1720.4200000000001</ele>
        <time>2016-07-09T10:29:44Z</time>
      </trkpt>
      <trkpt lat="45.830242428928614" lon="7.217835523188114">
        <ele>1720.9000000000001</ele>
        <time>2016-07-09T10:30:01Z</time>
      </trkpt>
      <trkpt lat="45.830239076167345" lon="7.217849604785442">
        <ele>1720.4200000000001</ele>
        <time>2016-07-09T10:30:15Z</time>
      </trkpt>
      <trkpt lat="45.830243853852153" lon="7.21781088039279">
        <ele>1720.9000000000001</ele>
        <time>2016-07-09T10:30:30Z</time>
      </trkpt>
      <trkpt lat="45.830254666507244" lon="7.217783136293292">
        <ele>1720.9000000000001</ele>
        <time>2016-07-09T10:30:45Z</time>
      </trkpt>
      <trkpt lat="45.830264138057828" lon="7.217673500999808">
        <ele>1723.3</ele>
        <time>2016-07-09T10:30:54Z</time>
      </trkpt>
      <trkpt lat="45.830296408385038" lon="7.217510137706995">
        <ele>1725.7</ele>
        <time>2016-07-09T10:31:08Z</time>
      </trkpt>
      <trkpt lat="45.83031702786684" lon="7.217409890145063">
        <ele>1727.1500000000001</ele>
        <time>2016-07-09T10:31:17Z</time>
      </trkpt>
      <trkpt lat="45.830376874655485" lon="7.217333111912012">
        <ele>1728.5899999999999</ele>
        <time>2016-07-09T10:31:26Z</time>
      </trkpt>
      <trkpt lat="45.83038492128253" lon="7.217333195731044">
        <ele>1728.5899999999999</ele>
        <time>2016-07-09T10:31:27Z</time>
      </trkpt>
      <trkpt lat="45.830417694523931" lon="7.21731785684824">
        <ele>1729.0699999999999</ele>
        <time>2016-07-09T10:31:33Z</time>
      </trkpt>
      <trkpt lat="45.830476535484195" lon="7.217283407226205">
        <ele>1730.99</ele>
        <time>2016-07-09T10:31:42Z</time>
      </trkpt>
      <trkpt lat="45.830560773611069" lon="7.217272678390145">
        <ele>1732.9100000000001</ele>
        <time>2016-07-09T10:31:53Z</time>
      </trkpt>
      <trkpt lat="45.830618776381016" lon="7.217243341729045">
        <ele>1734.8399999999999</ele>
        <time>2016-07-09T10:32:03Z</time>
      </trkpt>
      <trkpt lat="45.830669654533267" lon="7.217287598177791">
        <ele>1736.76</ele>
        <time>2016-07-09T10:32:13Z</time>
      </trkpt>
      <trkpt lat="45.830707456916571" lon="7.217345852404833">
        <ele>1738.2</ele>
        <time>2016-07-09T10:32:22Z</time>
      </trkpt>
      <trkpt lat="45.830739894881845" lon="7.217372003942728">
        <ele>1739.1600000000001</ele>
        <time>2016-07-09T10:32:27Z</time>
      </trkpt>
      <trkpt lat="45.830752300098538" lon="7.217467138543725">
        <ele>1741.5699999999999</ele>
        <time>2016-07-09T10:32:38Z</time>
      </trkpt>
      <trkpt lat="45.830804686993361" lon="7.217491529881954">
        <ele>1743.49</ele>
        <time>2016-07-09T10:32:50Z</time>
      </trkpt>
      <trkpt lat="45.830873334780335" lon="7.21750695258379">
        <ele>1744.9300000000001</ele>
        <time>2016-07-09T10:33:02Z</time>
      </trkpt>
      <trkpt lat="45.83092974498868" lon="7.21758708357811">
        <ele>1746.8499999999999</ele>
        <time>2016-07-09T10:33:14Z</time>
      </trkpt>
      <trkpt lat="45.830965619534254" lon="7.217644415795803">
        <ele>1749.26</ele>
        <time>2016-07-09T10:33:24Z</time>
      </trkpt>
      <trkpt lat="45.831007277593017" lon="7.217730078846216">
        <ele>1751.1800000000001</ele>
        <time>2016-07-09T10:33:35Z</time>
      </trkpt>
      <trkpt lat="45.831038374453783" lon="7.217831164598465">
        <ele>1753.0999999999999</ele>
        <time>2016-07-09T10:33:50Z</time>
      </trkpt>
      <trkpt lat="45.831085313111544" lon="7.217904338613153">
        <ele>1754.54</ele>
        <time>2016-07-09T10:34:00Z</time>
      </trkpt>
      <trkpt lat="45.83110710605979" lon="7.217995785176754">
        <ele>1756.47</ele>
        <time>2016-07-09T10:34:10Z</time>
      </trkpt>
      <trkpt lat="45.831156056374311" lon="7.218088237568736">
        <ele>1758.8699999999999</ele>
        <time>2016-07-09T10:34:22Z</time>
      </trkpt>
      <trkpt lat="45.831140968948603" lon="7.218197705224156">
        <ele>1761.27</ele>
        <time>2016-07-09T10:34:33Z</time>
      </trkpt>
      <trkpt lat="45.831168545410037" lon="7.218269957229495">
        <ele>1763.2</ele>
        <time>2016-07-09T10:34:44Z</time>
      </trkpt>
      <trkpt lat="45.831216741353273" lon="7.218299461528659">
        <ele>1764.6400000000001</ele>
        <time>2016-07-09T10:34:54Z</time>
      </trkpt>
      <trkpt lat="45.831297794356942" lon="7.218299796804786">
        <ele>1766.5599999999999</ele>
        <time>2016-07-09T10:35:04Z</time>
      </trkpt>
      <trkpt lat="45.831293435767293" lon="7.218198208138347">
        <ele>1767.52</ele>
        <time>2016-07-09T10:35:15Z</time>
      </trkpt>
      <trkpt lat="45.831299386918545" lon="7.218181360512972">
        <ele>1767.52</ele>
        <time>2016-07-09T10:35:25Z</time>
      </trkpt>
      <trkpt lat="45.831339620053768" lon="7.218110365793109">
        <ele>1768</ele>
        <time>2016-07-09T10:35:36Z</time>
      </trkpt>
      <trkpt lat="45.831373063847423" lon="7.218057895079255">
        <ele>1768.48</ele>
        <time>2016-07-09T10:35:45Z</time>
      </trkpt>
      <trkpt lat="45.831436766311526" lon="7.217916240915656">
        <ele>1768.96</ele>
        <time>2016-07-09T10:35:58Z</time>
      </trkpt>
      <trkpt lat="45.831464845687151" lon="7.217791015282273">
        <ele>1769.9200000000001</ele>
        <time>2016-07-09T10:36:10Z</time>
      </trkpt>
      <trkpt lat="45.831496529281139" lon="7.2176877502352">
        <ele>1770.8900000000001</ele>
        <time>2016-07-09T10:36:19Z</time>
      </trkpt>
      <trkpt lat="45.831581270322204" lon="7.217550706118345">
        <ele>1771.3699999999999</ele>
        <time>2016-07-09T10:36:31Z</time>
      </trkpt>
      <trkpt lat="45.831603733822703" lon="7.217523297294974">
        <ele>1771.3699999999999</ele>
        <time>2016-07-09T10:36:34Z</time>
      </trkpt>
      <trkpt lat="45.831685457378626" lon="7.217434784397483">
        <ele>1771.8499999999999</ele>
        <time>2016-07-09T10:36:44Z</time>
      </trkpt>
      <trkpt lat="45.831781597808003" lon="7.217350630089641">
        <ele>1772.3299999999999</ele>
        <time>2016-07-09T10:36:55Z</time>
      </trkpt>
      <trkpt lat="45.831850077956915" lon="7.217299081385136">
        <ele>1773.29</ele>
        <time>2016-07-09T10:37:02Z</time>
      </trkpt>
      <trkpt lat="45.831874553114176" lon="7.217274941504002">
        <ele>1773.29</ele>
        <time>2016-07-09T10:37:05Z</time>
      </trkpt>
      <trkpt lat="45.831905985251069" lon="7.217230852693319">
        <ele>1774.25</ele>
        <time>2016-07-09T10:37:09Z</time>
      </trkpt>
      <trkpt lat="45.831955354660749" lon="7.217202689498663">
        <ele>1774.25</ele>
        <time>2016-07-09T10:37:14Z</time>
      </trkpt>
      <trkpt lat="45.832035234197974" lon="7.21711409278214">
        <ele>1774.73</ele>
        <time>2016-07-09T10:37:23Z</time>
      </trkpt>
      <trkpt lat="45.832095248624682" lon="7.217027088627219">
        <ele>1775.21</ele>
        <time>2016-07-09T10:37:31Z</time>
      </trkpt>
      <trkpt lat="45.832180995494127" lon="7.216924075037241">
        <ele>1776.1700000000001</ele>
        <time>2016-07-09T10:37:41Z</time>
      </trkpt>
      <trkpt lat="45.832255594432354" lon="7.216836735606194">
        <ele>1776.6500000000001</ele>
        <time>2016-07-09T10:37:51Z</time>
      </trkpt>
      <trkpt lat="45.832342766225338" lon="7.216787450015545">
        <ele>1777.6099999999999</ele>
        <time>2016-07-09T10:38:02Z</time>
      </trkpt>
      <trkpt lat="45.83238635212183" lon="7.216795915737748">
        <ele>1778.0999999999999</ele>
        <time>2016-07-09T10:38:06Z</time>
      </trkpt>
      <trkpt lat="45.832506800070405" lon="7.216786276549101">
        <ele>1779.0599999999999</ele>
        <time>2016-07-09T10:38:17Z</time>
      </trkpt>
      <trkpt lat="45.832607047632337" lon="7.216771021485329">
        <ele>1780.02</ele>
        <time>2016-07-09T10:38:27Z</time>
      </trkpt>
      <trkpt lat="45.832715928554535" lon="7.21673933789134">
        <ele>1780.98</ele>
        <time>2016-07-09T10:38:37Z</time>
      </trkpt>
      <trkpt lat="45.832729004323483" lon="7.216729782521725">
        <ele>1780.98</ele>
        <time>2016-07-09T10:38:39Z</time>
      </trkpt>
      <trkpt lat="45.832812404260039" lon="7.216669516637921">
        <ele>1781.46</ele>
        <time>2016-07-09T10:38:48Z</time>
      </trkpt>
      <trkpt lat="45.832940647378564" lon="7.216613106429577">
        <ele>1782.4200000000001</ele>
        <time>2016-07-09T10:39:00Z</time>
      </trkpt>
      <trkpt lat="45.832994794473052" lon="7.216590391471982">
        <ele>1782.9000000000001</ele>
        <time>2016-07-09T10:39:08Z</time>
      </trkpt>
      <trkpt lat="45.833071069791913" lon="7.216492993757129">
        <ele>1783.3800000000001</ele>
        <time>2016-07-09T10:39:16Z</time>
      </trkpt>
      <trkpt lat="45.833130832761526" lon="7.216408420354128">
        <ele>1784.3399999999999</ele>
        <time>2016-07-09T10:39:23Z</time>
      </trkpt>
      <trkpt lat="45.833147093653679" lon="7.216390650719404">
        <ele>1784.3399999999999</ele>
        <time>2016-07-09T10:39:25Z</time>
      </trkpt>
      <trkpt lat="45.833173161372542" lon="7.216350417584181">
        <ele>1784.8199999999999</ele>
        <time>2016-07-09T10:39:29Z</time>
      </trkpt>
      <trkpt lat="45.83325220271945" lon="7.216232903301716">
        <ele>1785.3099999999999</ele>
        <time>2016-07-09T10:39:39Z</time>
      </trkpt>
      <trkpt lat="45.833302829414606" lon="7.216075658798218">
        <ele>1786.27</ele>
        <time>2016-07-09T10:39:49Z</time>
      </trkpt>
      <trkpt lat="45.833329232409596" lon="7.21600734628737">
        <ele>1786.75</ele>
        <time>2016-07-09T10:39:54Z</time>
      </trkpt>
      <trkpt lat="45.833380781114101" lon="7.215887904167175">
        <ele>1788.6700000000001</ele>
        <time>2016-07-09T10:40:04Z</time>
      </trkpt>
      <trkpt lat="45.833406932651997" lon="7.215855633839965">
        <ele>1788.1900000000001</ele>
        <time>2016-07-09T10:40:07Z</time>
      </trkpt>
      <trkpt lat="45.833462420850992" lon="7.215783465653658">
        <ele>1788.6700000000001</ele>
        <time>2016-07-09T10:40:13Z</time>
      </trkpt>
      <trkpt lat="45.833537438884377" lon="7.215676847845316">
        <ele>1789.6300000000001</ele>
        <time>2016-07-09T10:40:23Z</time>
      </trkpt>
      <trkpt lat="45.833614887669683" lon="7.215544162318111">
        <ele>1790.5899999999999</ele>
        <time>2016-07-09T10:40:34Z</time>
      </trkpt>
      <trkpt lat="45.833658892661333" lon="7.215431677177548">
        <ele>1791.0699999999999</ele>
        <time>2016-07-09T10:40:43Z</time>
      </trkpt>
      <trkpt lat="45.833700885996222" lon="7.215240905061364">
        <ele>1792.03</ele>
        <time>2016-07-09T10:40:55Z</time>
      </trkpt>
      <trkpt lat="45.833730138838291" lon="7.215152056887746">
        <ele>1792.52</ele>
        <time>2016-07-09T10:41:01Z</time>
      </trkpt>
      <trkpt lat="45.833744304254651" lon="7.215086929500103">
        <ele>1792.52</ele>
        <time>2016-07-09T10:41:05Z</time>
      </trkpt>
      <trkpt lat="45.833784369751811" lon="7.214949885383248">
        <ele>1793.48</ele>
        <time>2016-07-09T10:41:14Z</time>
      </trkpt>
      <trkpt lat="45.833806497976184" lon="7.214847877621651">
        <ele>1793.48</ele>
        <time>2016-07-09T10:41:20Z</time>
      </trkpt>
      <trkpt lat="45.833825021982193" lon="7.214738661423326">
        <ele>1793.96</ele>
        <time>2016-07-09T10:41:26Z</time>
      </trkpt>
      <trkpt lat="45.833858801051974" lon="7.214627349749208">
        <ele>1794.4400000000001</ele>
        <time>2016-07-09T10:41:33Z</time>
      </trkpt>
      <trkpt lat="45.833897106349468" lon="7.214451413601637">
        <ele>1795.4000000000001</ele>
        <time>2016-07-09T10:41:45Z</time>
      </trkpt>
      <trkpt lat="45.833895681425929" lon="7.214436745271087">
        <ele>1795.4000000000001</ele>
        <time>2016-07-09T10:41:46Z</time>
      </trkpt>
      <trkpt lat="45.833907416090369" lon="7.214336162433028">
        <ele>1794.9200000000001</ele>
        <time>2016-07-09T10:41:52Z</time>
      </trkpt>
      <trkpt lat="45.833951253443956" lon="7.214109683409333">
        <ele>1795.8800000000001</ele>
        <time>2016-07-09T10:42:05Z</time>
      </trkpt>
      <trkpt lat="45.833950582891703" lon="7.213898878544569">
        <ele>1796.8399999999999</ele>
        <time>2016-07-09T10:42:18Z</time>
      </trkpt>
      <trkpt lat="45.833859471604228" lon="7.213735096156597">
        <ele>1797.8</ele>
        <time>2016-07-09T10:42:30Z</time>
      </trkpt>
      <trkpt lat="45.833748243749142" lon="7.213606601580977">
        <ele>1797.8</ele>
        <time>2016-07-09T10:42:43Z</time>
      </trkpt>
      <trkpt lat="45.833654031157494" lon="7.213489171117544">
        <ele>1798.28</ele>
        <time>2016-07-09T10:42:54Z</time>
      </trkpt>
      <trkpt lat="45.833575408905745" lon="7.213382301852107">
        <ele>1800.21</ele>
        <time>2016-07-09T10:43:05Z</time>
      </trkpt>
      <trkpt lat="45.833526123315096" lon="7.213291861116886">
        <ele>1800.6900000000001</ele>
        <time>2016-07-09T10:43:12Z</time>
      </trkpt>
      <trkpt lat="45.833492428064346" lon="7.21317870542407">
        <ele>1801.6500000000001</ele>
        <time>2016-07-09T10:43:20Z</time>
      </trkpt>
      <trkpt lat="45.833462085574865" lon="7.213110979646444">
        <ele>1801.6500000000001</ele>
        <time>2016-07-09T10:43:25Z</time>
      </trkpt>
      <trkpt lat="45.833456218242645" lon="7.213081642985344">
        <ele>1802.1300000000001</ele>
        <time>2016-07-09T10:43:27Z</time>
      </trkpt>
      <trkpt lat="45.833356641232967" lon="7.212928673252463">
        <ele>1802.1300000000001</ele>
        <time>2016-07-09T10:43:39Z</time>
      </trkpt>
      <trkpt lat="45.833262428641319" lon="7.212779056280851">
        <ele>1803.0899999999999</ele>
        <time>2016-07-09T10:43:51Z</time>
      </trkpt>
      <trkpt lat="45.833208449184895" lon="7.212680066004396">
        <ele>1804.05</ele>
        <time>2016-07-09T10:44:00Z</time>
      </trkpt>
      <trkpt lat="45.833121696487069" lon="7.212496250867844">
        <ele>1804.53</ele>
        <time>2016-07-09T10:44:13Z</time>
      </trkpt>
      <trkpt lat="45.833056066185236" lon="7.212319225072861">
        <ele>1804.05</ele>
        <time>2016-07-09T10:44:26Z</time>
      </trkpt>
      <trkpt lat="45.833026645705104" lon="7.212150832638145">
        <ele>1804.05</ele>
        <time>2016-07-09T10:44:38Z</time>
      </trkpt>
      <trkpt lat="45.833010971546173" lon="7.212049160152674">
        <ele>1806.9400000000001</ele>
        <time>2016-07-09T10:44:45Z</time>
      </trkpt>
      <trkpt lat="45.832978533580899" lon="7.21197372302413">
        <ele>1808.3800000000001</ele>
        <time>2016-07-09T10:44:51Z</time>
      </trkpt>
      <trkpt lat="45.832931930199265" lon="7.211897699162364">
        <ele>1808.8599999999999</ele>
        <time>2016-07-09T10:44:58Z</time>
      </trkpt>
      <trkpt lat="45.832844087854028" lon="7.211787896230817">
        <ele>1810.3</ele>
        <time>2016-07-09T10:45:09Z</time>
      </trkpt>
      <trkpt lat="45.832803854718804" lon="7.211762247607112">
        <ele>1810.3</ele>
        <time>2016-07-09T10:45:13Z</time>
      </trkpt>
      <trkpt lat="45.832698242738843" lon="7.211707094684243">
        <ele>1811.26</ele>
        <time>2016-07-09T10:45:23Z</time>
      </trkpt>
      <trkpt lat="45.83266974426806" lon="7.211693180724978">
        <ele>1811.26</ele>
        <time>2016-07-09T10:45:26Z</time>
      </trkpt>
      <trkpt lat="45.832607466727495" lon="7.211663173511624">
        <ele>1811.74</ele>
        <time>2016-07-09T10:45:32Z</time>
      </trkpt>
      <trkpt lat="45.832503279671073" lon="7.21160039305687">
        <ele>1812.7</ele>
        <time>2016-07-09T10:45:42Z</time>
      </trkpt>
      <trkpt lat="45.832406720146537" lon="7.21149536781013">
        <ele>1813.1800000000001</ele>
        <time>2016-07-09T10:45:53Z</time>
      </trkpt>
      <trkpt lat="45.832381742075086" lon="7.21142596565187">
        <ele>1813.6600000000001</ele>
        <time>2016-07-09T10:45:58Z</time>
      </trkpt>
      <trkpt lat="45.832340251654387" lon="7.211274253204465">
        <ele>1814.1500000000001</ele>
        <time>2016-07-09T10:46:08Z</time>
      </trkpt>
      <trkpt lat="45.832336312159896" lon="7.211255896836519">
        <ele>1813.6600000000001</ele>
        <time>2016-07-09T10:46:09Z</time>
      </trkpt>
      <trkpt lat="45.832314351573586" lon="7.21111617051065">
        <ele>1814.1500000000001</ele>
        <time>2016-07-09T10:46:18Z</time>
      </trkpt>
      <trkpt lat="45.832294570282102" lon="7.211017934605479">
        <ele>1814.6300000000001</ele>
        <time>2016-07-09T10:46:24Z</time>
      </trkpt>
      <trkpt lat="45.832281745970249" lon="7.210940821096301">
        <ele>1815.5899999999999</ele>
        <time>2016-07-09T10:46:29Z</time>
      </trkpt>
      <trkpt lat="45.832263808697462" lon="7.210804112255573">
        <ele>1816.0699999999999</ele>
        <time>2016-07-09T10:46:38Z</time>
      </trkpt>
      <trkpt lat="45.832251235842705" lon="7.210680646821857">
        <ele>1816.55</ele>
        <time>2016-07-09T10:46:45Z</time>
      </trkpt>
      <trkpt lat="45.832253582775593" lon="7.210652064532042">
        <ele>1816.0699999999999</ele>
        <time>2016-07-09T10:46:47Z</time>
      </trkpt>
      <trkpt lat="45.832238746806979" lon="7.210548296570778">
        <ele>1816.55</ele>
        <time>2016-07-09T10:46:53Z</time>
      </trkpt>
      <trkpt lat="45.832224162295461" lon="7.210394740104675">
        <ele>1817.03</ele>
        <time>2016-07-09T10:47:03Z</time>
      </trkpt>
      <trkpt lat="45.83222265355289" lon="7.210374958813191">
        <ele>1817.51</ele>
        <time>2016-07-09T10:47:04Z</time>
      </trkpt>
      <trkpt lat="45.832211086526513" lon="7.210300108417869">
        <ele>1817.99</ele>
        <time>2016-07-09T10:47:09Z</time>
      </trkpt>
      <trkpt lat="45.832190634682775" lon="7.210126938298345">
        <ele>1818.95</ele>
        <time>2016-07-09T10:47:20Z</time>
      </trkpt>
      <trkpt lat="45.832189461216331" lon="7.210109839215875">
        <ele>1818.95</ele>
        <time>2016-07-09T10:47:21Z</time>
      </trkpt>
      <trkpt lat="45.832174457609653" lon="7.209943039342761">
        <ele>1819.9100000000001</ele>
        <time>2016-07-09T10:47:31Z</time>
      </trkpt>
      <trkpt lat="45.832162639126182" lon="7.209746483713388">
        <ele>1821.3499999999999</ele>
        <time>2016-07-09T10:47:43Z</time>
      </trkpt>
      <trkpt lat="45.832158951088786" lon="7.209571972489357">
        <ele>1821.8399999999999</ele>
        <time>2016-07-09T10:47:55Z</time>
      </trkpt>
      <trkpt lat="45.832139756530523" lon="7.209387067705393">
        <ele>1823.28</ele>
        <time>2016-07-09T10:48:09Z</time>
      </trkpt>
      <trkpt lat="45.832112180069089" lon="7.209162684157491">
        <ele>1824.24</ele>
        <time>2016-07-09T10:48:21Z</time>
      </trkpt>
      <trkpt lat="45.832089297473431" lon="7.208953890949488">
        <ele>1825.2</ele>
        <time>2016-07-09T10:48:33Z</time>
      </trkpt>
      <trkpt lat="45.832064654678106" lon="7.20881768502295">
        <ele>1826.1600000000001</ele>
        <time>2016-07-09T10:48:43Z</time>
      </trkpt>
      <trkpt lat="45.832047555595636" lon="7.208674354478717">
        <ele>1826.6400000000001</ele>
        <time>2016-07-09T10:48:54Z</time>
      </trkpt>
      <trkpt lat="45.832068594172597" lon="7.208673264831305">
        <ele>1827.1199999999999</ele>
        <time>2016-07-09T10:49:13Z</time>
      </trkpt>
      <trkpt lat="45.832067420706153" lon="7.20861878246069">
        <ele>1827.1199999999999</ele>
        <time>2016-07-09T10:49:26Z</time>
      </trkpt>
      <trkpt lat="45.832055434584618" lon="7.208580141887069">
        <ele>1827.1199999999999</ele>
        <time>2016-07-09T10:49:40Z</time>
      </trkpt>
      <trkpt lat="45.832019140943885" lon="7.208561534062028">
        <ele>1827.5999999999999</ele>
        <time>2016-07-09T10:49:55Z</time>
      </trkpt>
      <trkpt lat="45.83206482231617" lon="7.208540663123131">
        <ele>1826.6400000000001</ele>
        <time>2016-07-09T10:50:14Z</time>
      </trkpt>
      <trkpt lat="45.83205015398562" lon="7.208519205451012">
        <ele>1827.5999999999999</ele>
        <time>2016-07-09T10:50:36Z</time>
      </trkpt>
      <trkpt lat="45.832011848688126" lon="7.208359446376562">
        <ele>1828.5599999999999</ele>
        <time>2016-07-09T10:50:46Z</time>
      </trkpt>
      <trkpt lat="45.83198863081634" lon="7.208236986771226">
        <ele>1829.53</ele>
        <time>2016-07-09T10:50:55Z</time>
      </trkpt>
      <trkpt lat="45.831972537562251" lon="7.208069683983922">
        <ele>1830.01</ele>
        <time>2016-07-09T10:51:06Z</time>
      </trkpt>
      <trkpt lat="45.831922916695476" lon="7.207898441702128">
        <ele>1830.49</ele>
        <time>2016-07-09T10:51:17Z</time>
      </trkpt>
      <trkpt lat="45.831873044371605" lon="7.207740023732185">
        <ele>1831.45</ele>
        <time>2016-07-09T10:51:28Z</time>
      </trkpt>
      <trkpt lat="45.831853430718184" lon="7.207624185830355">
        <ele>1831.9300000000001</ele>
        <time>2016-07-09T10:51:36Z</time>
      </trkpt>
      <trkpt lat="45.831837253645062" lon="7.207512874156237">
        <ele>1832.8900000000001</ele>
        <time>2016-07-09T10:51:46Z</time>
      </trkpt>
      <trkpt lat="45.831852005794644" lon="7.207457385957241">
        <ele>1832.8900000000001</ele>
        <time>2016-07-09T10:52:00Z</time>
      </trkpt>
      <trkpt lat="45.831827027723193" lon="7.207272229716182">
        <ele>1833.3699999999999</ele>
        <time>2016-07-09T10:52:12Z</time>
      </trkpt>
      <trkpt lat="45.83178922533989" lon="7.207102328538895">
        <ele>1833.8499999999999</ele>
        <time>2016-07-09T10:52:23Z</time>
      </trkpt>
      <trkpt lat="45.831780256703496" lon="7.206915412098169">
        <ele>1834.8099999999999</ele>
        <time>2016-07-09T10:52:35Z</time>
      </trkpt>
      <trkpt lat="45.831784699112177" lon="7.206880711019039">
        <ele>1835.29</ele>
        <time>2016-07-09T10:52:37Z</time>
      </trkpt>
      <trkpt lat="45.831785956397653" lon="7.206758670508862">
        <ele>1836.26</ele>
        <time>2016-07-09T10:52:44Z</time>
      </trkpt>
      <trkpt lat="45.831768102943897" lon="7.20655725337565">
        <ele>1837.22</ele>
        <time>2016-07-09T10:52:58Z</time>
      </trkpt>
      <trkpt lat="45.83178780041635" lon="7.206343682482839">
        <ele>1837.22</ele>
        <time>2016-07-09T10:53:11Z</time>
      </trkpt>
      <trkpt lat="45.831756535917521" lon="7.206281488761306">
        <ele>1839.1400000000001</ele>
        <time>2016-07-09T10:53:16Z</time>
      </trkpt>
      <trkpt lat="45.831664251163602" lon="7.206209907308221">
        <ele>1840.0999999999999</ele>
        <time>2016-07-09T10:53:26Z</time>
      </trkpt>
      <trkpt lat="45.831554029136896" lon="7.206083424389362">
        <ele>1841.54</ele>
        <time>2016-07-09T10:53:37Z</time>
      </trkpt>
      <trkpt lat="45.831470713019371" lon="7.205949733033776">
        <ele>1842.5</ele>
        <time>2016-07-09T10:53:49Z</time>
      </trkpt>
      <trkpt lat="45.83143400028348" lon="7.205786453559995">
        <ele>1843.95</ele>
        <time>2016-07-09T10:54:01Z</time>
      </trkpt>
      <trkpt lat="45.831354456022382" lon="7.205662988126278">
        <ele>1844.4300000000001</ele>
        <time>2016-07-09T10:54:13Z</time>
      </trkpt>
      <trkpt lat="45.831271642819047" lon="7.205508509650827">
        <ele>1842.98</ele>
        <time>2016-07-09T10:54:25Z</time>
      </trkpt>
      <trkpt lat="45.831263093277812" lon="7.205495685338974">
        <ele>1842.98</ele>
        <time>2016-07-09T10:54:26Z</time>
      </trkpt>
      <trkpt lat="45.831209952011704" lon="7.205395521596074">
        <ele>1842.5</ele>
        <time>2016-07-09T10:54:33Z</time>
      </trkpt>
      <trkpt lat="45.831129318103194" lon="7.205363251268864">
        <ele>1842.5</ele>
        <time>2016-07-09T10:54:38Z</time>
      </trkpt>
      <trkpt lat="45.831075171008706" lon="7.20530734397471">
        <ele>1842.5</ele>
        <time>2016-07-09T10:54:42Z</time>
      </trkpt>
      <trkpt lat="45.831001996994019" lon="7.205252526327968">
        <ele>1842.02</ele>
        <time>2016-07-09T10:54:48Z</time>
      </trkpt>
      <trkpt lat="45.830985149368644" lon="7.205228973180056">
        <ele>1842.02</ele>
        <time>2016-07-09T10:54:50Z</time>
      </trkpt>
      <trkpt lat="45.830886326730251" lon="7.205066615715623">
        <ele>1841.54</ele>
        <time>2016-07-09T10:55:03Z</time>
      </trkpt>
      <trkpt lat="45.830777613446116" lon="7.204882632941008">
        <ele>1840.5799999999999</ele>
        <time>2016-07-09T10:55:16Z</time>
      </trkpt>
      <trkpt lat="45.830721370875835" lon="7.204822786152363">
        <ele>1839.6199999999999</ele>
        <time>2016-07-09T10:55:21Z</time>
      </trkpt>
      <trkpt lat="45.830694129690528" lon="7.204808034002781">
        <ele>1839.6199999999999</ele>
        <time>2016-07-09T10:55:23Z</time>
      </trkpt>
      <trkpt lat="45.830632103607059" lon="7.204721532762051">
        <ele>1838.6600000000001</ele>
        <time>2016-07-09T10:55:30Z</time>
      </trkpt>
      <trkpt lat="45.830558175221086" lon="7.204483738169074">
        <ele>1836.26</ele>
        <time>2016-07-09T10:55:44Z</time>
      </trkpt>
      <trkpt lat="45.830544093623757" lon="7.204448701813817">
        <ele>1835.29</ele>
        <time>2016-07-09T10:55:46Z</time>
      </trkpt>
      <trkpt lat="45.830447115004063" lon="7.204335546121001">
        <ele>1832.8900000000001</ele>
        <time>2016-07-09T10:55:56Z</time>
      </trkpt>
      <trkpt lat="45.830433871597052" lon="7.204313753172755">
        <ele>1838.1800000000001</ele>
        <time>2016-07-09T10:55:58Z</time>
      </trkpt>
      <trkpt lat="45.830419538542628" lon="7.204292211681604">
        <ele>1834.8099999999999</ele>
        <time>2016-07-09T10:55:59Z</time>
      </trkpt>
      <trkpt lat="45.830302778631449" lon="7.204122394323349">
        <ele>1834.3299999999999</ele>
        <time>2016-07-09T10:56:11Z</time>
      </trkpt>
      <trkpt lat="45.830250643193722" lon="7.203962467610836">
        <ele>1832.8900000000001</ele>
        <time>2016-07-09T10:56:23Z</time>
      </trkpt>
      <trkpt lat="45.830235807225108" lon="7.203901866450906">
        <ele>1832.4100000000001</ele>
        <time>2016-07-09T10:56:27Z</time>
      </trkpt>
      <trkpt lat="45.830117287114263" lon="7.203783765435219">
        <ele>1831.45</ele>
        <time>2016-07-09T10:56:38Z</time>
      </trkpt>
      <trkpt lat="45.830047633498907" lon="7.203541360795498">
        <ele>1830.01</ele>
        <time>2016-07-09T10:56:51Z</time>
      </trkpt>
      <trkpt lat="45.830004215240479" lon="7.203280767425895">
        <ele>1828.0799999999999</ele>
        <time>2016-07-09T10:57:04Z</time>
      </trkpt>
      <trkpt lat="45.829965407028794" lon="7.203066106885672">
        <ele>1827.1199999999999</ele>
        <time>2016-07-09T10:57:16Z</time>
      </trkpt>
      <trkpt lat="45.829879492521286" lon="7.202864522114396">
        <ele>1825.6800000000001</ele>
        <time>2016-07-09T10:57:28Z</time>
      </trkpt>
      <trkpt lat="45.829795002937317" lon="7.202625889331102">
        <ele>1824.24</ele>
        <time>2016-07-09T10:57:41Z</time>
      </trkpt>
      <trkpt lat="45.829706406220794" lon="7.202477613463998">
        <ele>1822.8</ele>
        <time>2016-07-09T10:57:52Z</time>
      </trkpt>
      <trkpt lat="45.829609511420131" lon="7.20232967287302">
        <ele>1821.8399999999999</ele>
        <time>2016-07-09T10:58:04Z</time>
      </trkpt>
      <trkpt lat="45.829486129805446" lon="7.202113922685385">
        <ele>1820.8699999999999</ele>
        <time>2016-07-09T10:58:18Z</time>
      </trkpt>
      <trkpt lat="45.829453272745013" lon="7.202060529962182">
        <ele>1819.9100000000001</ele>
        <time>2016-07-09T10:58:21Z</time>
      </trkpt>
      <trkpt lat="45.829401137307286" lon="7.201995989307761">
        <ele>1819.4300000000001</ele>
        <time>2016-07-09T10:58:26Z</time>
      </trkpt>
      <trkpt lat="45.829351264983416" lon="7.201860537752509">
        <ele>1818.47</ele>
        <time>2016-07-09T10:58:35Z</time>
      </trkpt>
      <trkpt lat="45.829287143424153" lon="7.201658366248012">
        <ele>1817.03</ele>
        <time>2016-07-09T10:58:49Z</time>
      </trkpt>
      <trkpt lat="45.829274402931333" lon="7.201632801443338">
        <ele>1816.55</ele>
        <time>2016-07-09T10:58:51Z</time>
      </trkpt>
      <trkpt lat="45.82923567853868" lon="7.201553341001272">
        <ele>1815.5899999999999</ele>
        <time>2016-07-09T10:58:57Z</time>
      </trkpt>
      <trkpt lat="45.829144818708301" lon="7.201402215287089">
        <ele>1814.6300000000001</ele>
        <time>2016-07-09T10:59:08Z</time>
      </trkpt>
      <trkpt lat="45.829029651358724" lon="7.201289813965559">
        <ele>1813.6600000000001</ele>
        <time>2016-07-09T10:59:19Z</time>
      </trkpt>
      <trkpt lat="45.82891222089529" lon="7.201162157580257">
        <ele>1812.7</ele>
        <time>2016-07-09T10:59:31Z</time>
      </trkpt>
      <trkpt lat="45.828851368278265" lon="7.201108513399959">
        <ele>1812.22</ele>
        <time>2016-07-09T10:59:35Z</time>
      </trkpt>
      <trkpt lat="45.828760089352727" lon="7.200992172583938">
        <ele>1811.26</ele>
        <time>2016-07-09T10:59:44Z</time>
      </trkpt>
      <trkpt lat="45.828661182895303" lon="7.200893182307482">
        <ele>1810.78</ele>
        <time>2016-07-09T10:59:54Z</time>
      </trkpt>
      <trkpt lat="45.828641233965755" lon="7.200878346338868">
        <ele>1810.78</ele>
        <time>2016-07-09T10:59:56Z</time>
      </trkpt>
      <trkpt lat="45.828625308349729" lon="7.20084423199296">
        <ele>1810.78</ele>
        <time>2016-07-09T10:59:59Z</time>
      </trkpt>
      <trkpt lat="45.828510308638215" lon="7.200724957510829">
        <ele>1811.26</ele>
        <time>2016-07-09T11:00:10Z</time>
      </trkpt>
      <trkpt lat="45.828397152945399" lon="7.200560169294477">
        <ele>1810.3</ele>
        <time>2016-07-09T11:00:21Z</time>
      </trkpt>
      <trkpt lat="45.828303443267941" lon="7.20037903636694">
        <ele>1808.8599999999999</ele>
        <time>2016-07-09T11:00:33Z</time>
      </trkpt>
      <trkpt lat="45.828203447163105" lon="7.200121963396668">
        <ele>1806.9400000000001</ele>
        <time>2016-07-09T11:00:49Z</time>
      </trkpt>
      <trkpt lat="45.828095991164446" lon="7.199818789958954">
        <ele>1805.49</ele>
        <time>2016-07-09T11:01:09Z</time>
      </trkpt>
      <trkpt lat="45.828029355034232" lon="7.199690463021398">
        <ele>1805.49</ele>
        <time>2016-07-09T11:01:21Z</time>
      </trkpt>
      <trkpt lat="45.828021476045251" lon="7.199553837999702">
        <ele>1805.01</ele>
        <time>2016-07-09T11:01:28Z</time>
      </trkpt>
      <trkpt lat="45.828025499358773" lon="7.199474377557635">
        <ele>1805.01</ele>
        <time>2016-07-09T11:01:39Z</time>
      </trkpt>
      <trkpt lat="45.828016027808189" lon="7.199429534375668">
        <ele>1805.01</ele>
        <time>2016-07-09T11:02:03Z</time>
      </trkpt>
      <trkpt lat="45.828053578734398" lon="7.19943892210722">
        <ele>1805.01</ele>
        <time>2016-07-09T11:02:16Z</time>
      </trkpt>
      <trkpt lat="45.828094147145748" lon="7.199492985382676">
        <ele>1805.01</ele>
        <time>2016-07-09T11:02:28Z</time>
      </trkpt>
      <trkpt lat="45.828092722222209" lon="7.199466414749622">
        <ele>1804.53</ele>
        <time>2016-07-09T11:02:47Z</time>
      </trkpt>
      <trkpt lat="45.828071935102344" lon="7.199418302625418">
        <ele>1805.49</ele>
        <time>2016-07-09T11:03:04Z</time>
      </trkpt>
      <trkpt lat="45.828078975901008" lon="7.199396761134267">
        <ele>1805.49</ele>
        <time>2016-07-09T11:03:16Z</time>
      </trkpt>
      <trkpt lat="45.828054919838905" lon="7.19923029653728">
        <ele>1804.53</ele>
        <time>2016-07-09T11:03:27Z</time>
      </trkpt>
      <trkpt lat="45.828055171296" lon="7.199214790016413">
        <ele>1804.53</ele>
        <time>2016-07-09T11:03:28Z</time>
      </trkpt>
      <trkpt lat="45.828036898747087" lon="7.199125690385699">
        <ele>1804.05</ele>
        <time>2016-07-09T11:03:33Z</time>
      </trkpt>
      <trkpt lat="45.827982164919376" lon="7.198876831680536">
        <ele>1804.05</ele>
        <time>2016-07-09T11:03:47Z</time>
      </trkpt>
      <trkpt lat="45.827927263453603" lon="7.198656471446157">
        <ele>1803.5699999999999</ele>
        <time>2016-07-09T11:04:01Z</time>
      </trkpt>
      <trkpt lat="45.827844031155109" lon="7.198403757065535">
        <ele>1802.1300000000001</ele>
        <time>2016-07-09T11:04:15Z</time>
      </trkpt>
      <trkpt lat="45.827790722250938" lon="7.198191527277231">
        <ele>1802.1300000000001</ele>
        <time>2016-07-09T11:04:27Z</time>
      </trkpt>
      <trkpt lat="45.827751830220222" lon="7.19800092279911">
        <ele>1802.1300000000001</ele>
        <time>2016-07-09T11:04:40Z</time>
      </trkpt>
      <trkpt lat="45.827683936804533" lon="7.197755416855216">
        <ele>1803.5699999999999</ele>
        <time>2016-07-09T11:04:55Z</time>
      </trkpt>
      <trkpt lat="45.827664071694016" lon="7.197717698290944">
        <ele>1803.5699999999999</ele>
        <time>2016-07-09T11:04:58Z</time>
      </trkpt>
      <trkpt lat="45.827625431120396" lon="7.197608314454556">
        <ele>1803.5699999999999</ele>
        <time>2016-07-09T11:05:05Z</time>
      </trkpt>
      <trkpt lat="45.827577905729413" lon="7.197450902312994">
        <ele>1803.0899999999999</ele>
        <time>2016-07-09T11:05:14Z</time>
      </trkpt>
      <trkpt lat="45.827551083639264" lon="7.197333304211497">
        <ele>1803.0899999999999</ele>
        <time>2016-07-09T11:05:21Z</time>
      </trkpt>
      <trkpt lat="45.827494170516729" lon="7.197104394435883">
        <ele>1802.1300000000001</ele>
        <time>2016-07-09T11:05:34Z</time>
      </trkpt>
      <trkpt lat="45.827451255172491" lon="7.196906749159098">
        <ele>1801.6500000000001</ele>
        <time>2016-07-09T11:05:45Z</time>
      </trkpt>
      <trkpt lat="45.827447567135096" lon="7.19686827622354">
        <ele>1802.1300000000001</ele>
        <time>2016-07-09T11:05:47Z</time>
      </trkpt>
      <trkpt lat="45.827414961531758" lon="7.196628469973803">
        <ele>1803.0899999999999</ele>
        <time>2016-07-09T11:06:00Z</time>
      </trkpt>
      <trkpt lat="45.827394342049956" lon="7.196415234357119">
        <ele>1803.5699999999999</ele>
        <time>2016-07-09T11:06:12Z</time>
      </trkpt>
      <trkpt lat="45.827390318736434" lon="7.196397297084332">
        <ele>1803.5699999999999</ele>
        <time>2016-07-09T11:06:13Z</time>
      </trkpt>
      <trkpt lat="45.827345810830593" lon="7.196138966828585">
        <ele>1803.0899999999999</ele>
        <time>2016-07-09T11:06:26Z</time>
      </trkpt>
      <trkpt lat="45.827303398400545" lon="7.195937382057309">
        <ele>1802.6099999999999</ele>
        <time>2016-07-09T11:06:37Z</time>
      </trkpt>
      <trkpt lat="45.82728018052876" lon="7.195900250226259">
        <ele>1802.6099999999999</ele>
        <time>2016-07-09T11:06:40Z</time>
      </trkpt>
      <trkpt lat="45.827212622389197" lon="7.195668490603566">
        <ele>1801.6500000000001</ele>
        <time>2016-07-09T11:06:55Z</time>
      </trkpt>
      <trkpt lat="45.827152105048299" lon="7.195442179217935">
        <ele>1800.21</ele>
        <time>2016-07-09T11:07:07Z</time>
      </trkpt>
      <trkpt lat="45.827052108943462" lon="7.195272445678711">
        <ele>1799.73</ele>
        <time>2016-07-09T11:07:19Z</time>
      </trkpt>
      <trkpt lat="45.826959740370512" lon="7.195064825937152">
        <ele>1797.8</ele>
        <time>2016-07-09T11:07:33Z</time>
      </trkpt>
      <trkpt lat="45.826931828632951" lon="7.194995507597923">
        <ele>1797.3199999999999</ele>
        <time>2016-07-09T11:07:37Z</time>
      </trkpt>
      <trkpt lat="45.826890924945474" lon="7.194856451824307">
        <ele>1796.8399999999999</ele>
        <time>2016-07-09T11:07:45Z</time>
      </trkpt>
      <trkpt lat="45.826862007379532" lon="7.194626536220312">
        <ele>1794.9200000000001</ele>
        <time>2016-07-09T11:07:57Z</time>
      </trkpt>
      <trkpt lat="45.826809788122773" lon="7.194391507655382">
        <ele>1793</ele>
        <time>2016-07-09T11:08:09Z</time>
      </trkpt>
      <trkpt lat="45.826792605221272" lon="7.194305844604969">
        <ele>1792.03</ele>
        <time>2016-07-09T11:08:14Z</time>
      </trkpt>
      <trkpt lat="45.826767543330789" lon="7.194063691422343">
        <ele>1789.6300000000001</ele>
        <time>2016-07-09T11:08:26Z</time>
      </trkpt>
      <trkpt lat="45.826747175306082" lon="7.19403469003737">
        <ele>1789.6300000000001</ele>
        <time>2016-07-09T11:08:28Z</time>
      </trkpt>
      <trkpt lat="45.826735692098737" lon="7.194023290649056">
        <ele>1789.1500000000001</ele>
        <time>2016-07-09T11:08:29Z</time>
      </trkpt>
      <trkpt lat="45.826713480055332" lon="7.194062601774931">
        <ele>1788.6700000000001</ele>
        <time>2016-07-09T11:08:32Z</time>
      </trkpt>
      <trkpt lat="45.826695039868355" lon="7.194330990314484">
        <ele>1786.75</ele>
        <time>2016-07-09T11:08:45Z</time>
      </trkpt>
      <trkpt lat="45.826691519469023" lon="7.194397039711475">
        <ele>1786.75</ele>
        <time>2016-07-09T11:08:49Z</time>
      </trkpt>
      <trkpt lat="45.826699398458004" lon="7.19461471773684">
        <ele>1785.79</ele>
        <time>2016-07-09T11:09:03Z</time>
      </trkpt>
      <trkpt lat="45.82669336348772" lon="7.194795096293092">
        <ele>1784.3399999999999</ele>
        <time>2016-07-09T11:09:16Z</time>
      </trkpt>
      <trkpt lat="45.826690010726452" lon="7.194814709946513">
        <ele>1784.8199999999999</ele>
        <time>2016-07-09T11:09:30Z</time>
      </trkpt>
      <trkpt lat="45.826669307425618" lon="7.194882519543171">
        <ele>1784.3399999999999</ele>
        <time>2016-07-09T11:09:39Z</time>
      </trkpt>
      <trkpt lat="45.826652040705085" lon="7.194919986650348">
        <ele>1784.3399999999999</ele>
        <time>2016-07-09T11:09:42Z</time>
      </trkpt>
      <trkpt lat="45.826615244150162" lon="7.195075554773212">
        <ele>1783.3800000000001</ele>
        <time>2016-07-09T11:09:53Z</time>
      </trkpt>
      <trkpt lat="45.826547350734472" lon="7.194910012185574">
        <ele>1781.46</ele>
        <time>2016-07-09T11:10:04Z</time>
      </trkpt>
      <trkpt lat="45.826521534472704" lon="7.194713288918138">
        <ele>1780.02</ele>
        <time>2016-07-09T11:10:15Z</time>
      </trkpt>
      <trkpt lat="45.826473338529468" lon="7.194521510973573">
        <ele>1778.0999999999999</ele>
        <time>2016-07-09T11:10:28Z</time>
      </trkpt>
      <trkpt lat="45.82642262801528" lon="7.194279273971915">
        <ele>1775.6900000000001</ele>
        <time>2016-07-09T11:10:41Z</time>
      </trkpt>
      <trkpt lat="45.826404942199588" lon="7.194117587059736">
        <ele>1774.25</ele>
        <time>2016-07-09T11:10:52Z</time>
      </trkpt>
      <trkpt lat="45.826403349637985" lon="7.193896723911166">
        <ele>1772.3299999999999</ele>
        <time>2016-07-09T11:11:04Z</time>
      </trkpt>
      <trkpt lat="45.826429333537817" lon="7.19362473115325">
        <ele>1770.4100000000001</ele>
        <time>2016-07-09T11:11:18Z</time>
      </trkpt>
      <trkpt lat="45.826456490904093" lon="7.193334298208356">
        <ele>1768</ele>
        <time>2016-07-09T11:11:32Z</time>
      </trkpt>
      <trkpt lat="45.826446767896414" lon="7.193015534430742">
        <ele>1766.0799999999999</ele>
        <time>2016-07-09T11:11:49Z</time>
      </trkpt>
      <trkpt lat="45.82647786475718" lon="7.192828031256795">
        <ele>1765.1199999999999</ele>
        <time>2016-07-09T11:11:59Z</time>
      </trkpt>
      <trkpt lat="45.826514242216945" lon="7.192738680168986">
        <ele>1764.6400000000001</ele>
        <time>2016-07-09T11:12:07Z</time>
      </trkpt>
      <trkpt lat="45.826562019065022" lon="7.192546650767326">
        <ele>1762.71</ele>
        <time>2016-07-09T11:12:18Z</time>
      </trkpt>
      <trkpt lat="45.826640641316772" lon="7.192281782627106">
        <ele>1759.8299999999999</ele>
        <time>2016-07-09T11:12:33Z</time>
      </trkpt>
      <trkpt lat="45.826790342107415" lon="7.192090088501573">
        <ele>1757.4300000000001</ele>
        <time>2016-07-09T11:12:47Z</time>
      </trkpt>
      <trkpt lat="45.826948005706072" lon="7.191994115710259">
        <ele>1755.5</ele>
        <time>2016-07-09T11:13:01Z</time>
      </trkpt>
      <trkpt lat="45.826987568289042" lon="7.191909458488226">
        <ele>1753.5799999999999</ele>
        <time>2016-07-09T11:13:10Z</time>
      </trkpt>
      <trkpt lat="45.826815823093057" lon="7.191986907273531">
        <ele>1750.7</ele>
        <time>2016-07-09T11:13:24Z</time>
      </trkpt>
      <trkpt lat="45.826668636873364" lon="7.192009203135967">
        <ele>1748.78</ele>
        <time>2016-07-09T11:13:37Z</time>
      </trkpt>
      <trkpt lat="45.826524551957846" lon="7.192072235047817">
        <ele>1747.3299999999999</ele>
        <time>2016-07-09T11:13:50Z</time>
      </trkpt>
      <trkpt lat="45.826368648558855" lon="7.192165609449148">
        <ele>1745.8900000000001</ele>
        <time>2016-07-09T11:14:03Z</time>
      </trkpt>
      <trkpt lat="45.826325314119458" lon="7.19220232218504">
        <ele>1745.8900000000001</ele>
        <time>2016-07-09T11:14:07Z</time>
      </trkpt>
      <trkpt lat="45.826172847300768" lon="7.192413294687867">
        <ele>1743.97</ele>
        <time>2016-07-09T11:14:22Z</time>
      </trkpt>
      <trkpt lat="45.826060194522142" lon="7.192624602466822">
        <ele>1742.53</ele>
        <time>2016-07-09T11:14:36Z</time>
      </trkpt>
      <trkpt lat="45.825965143740177" lon="7.192876981571317">
        <ele>1739.6400000000001</ele>
        <time>2016-07-09T11:14:51Z</time>
      </trkpt>
      <trkpt lat="45.825865818187594" lon="7.193099772557616">
        <ele>1738.2</ele>
        <time>2016-07-09T11:15:05Z</time>
      </trkpt>
      <trkpt lat="45.825789123773575" lon="7.193294400349259">
        <ele>1735.3199999999999</ele>
        <time>2016-07-09T11:15:17Z</time>
      </trkpt>
      <trkpt lat="45.825744783505797" lon="7.193523058667779">
        <ele>1732.9100000000001</ele>
        <time>2016-07-09T11:15:30Z</time>
      </trkpt>
      <trkpt lat="45.82573707215488" lon="7.193595813587308">
        <ele>1732.4300000000001</ele>
        <time>2016-07-09T11:15:34Z</time>
      </trkpt>
      <trkpt lat="45.82570974715054" lon="7.193883564323187">
        <ele>1730.03</ele>
        <time>2016-07-09T11:15:49Z</time>
      </trkpt>
      <trkpt lat="45.825706897303462" lon="7.193974927067757">
        <ele>1729.0699999999999</ele>
        <time>2016-07-09T11:15:54Z</time>
      </trkpt>
      <trkpt lat="45.82560078240931" lon="7.193974843248725">
        <ele>1727.1500000000001</ele>
        <time>2016-07-09T11:16:03Z</time>
      </trkpt>
      <trkpt lat="45.825584018602967" lon="7.193873170763254">
        <ele>1725.7</ele>
        <time>2016-07-09T11:16:08Z</time>
      </trkpt>
      <trkpt lat="45.82558368332684" lon="7.193627832457423">
        <ele>1723.78</ele>
        <time>2016-07-09T11:16:21Z</time>
      </trkpt>
      <trkpt lat="45.825570104643703" lon="7.193367993459106">
        <ele>1721.3800000000001</ele>
        <time>2016-07-09T11:16:35Z</time>
      </trkpt>
      <trkpt lat="45.825573792681098" lon="7.193144196644425">
        <ele>1718.97</ele>
        <time>2016-07-09T11:16:47Z</time>
      </trkpt>
      <trkpt lat="45.825597597286105" lon="7.192896930500865">
        <ele>1716.5699999999999</ele>
        <time>2016-07-09T11:17:00Z</time>
      </trkpt>
      <trkpt lat="45.825631879270077" lon="7.192657291889191">
        <ele>1714.6500000000001</ele>
        <time>2016-07-09T11:17:13Z</time>
      </trkpt>
      <trkpt lat="45.825661886483431" lon="7.19245788641274">
        <ele>1714.1700000000001</ele>
        <time>2016-07-09T11:17:24Z</time>
      </trkpt>
      <trkpt lat="45.825664987787604" lon="7.192407846450806">
        <ele>1712.73</ele>
        <time>2016-07-09T11:17:27Z</time>
      </trkpt>
      <trkpt lat="45.825678901746869" lon="7.19233425334096">
        <ele>1710.8</ele>
        <time>2016-07-09T11:17:31Z</time>
      </trkpt>
      <trkpt lat="45.825706142932177" lon="7.192198634147644">
        <ele>1710.8</ele>
        <time>2016-07-09T11:17:38Z</time>
      </trkpt>
      <trkpt lat="45.825749645009637" lon="7.192046502605081">
        <ele>1708.8800000000001</ele>
        <time>2016-07-09T11:17:48Z</time>
      </trkpt>
      <trkpt lat="45.825810749083757" lon="7.191813737154007">
        <ele>1707.4400000000001</ele>
        <time>2016-07-09T11:18:01Z</time>
      </trkpt>
      <trkpt lat="45.825785603374243" lon="7.191798985004425">
        <ele>1706</ele>
        <time>2016-07-09T11:18:05Z</time>
      </trkpt>
      <trkpt lat="45.8257463760674" lon="7.191824465990067">
        <ele>1704.55</ele>
        <time>2016-07-09T11:18:09Z</time>
      </trkpt>
      <trkpt lat="45.825655935332179" lon="7.192020434886217">
        <ele>1703.5899999999999</ele>
        <time>2016-07-09T11:18:23Z</time>
      </trkpt>
      <trkpt lat="45.825553005561233" lon="7.192238280549645">
        <ele>1701.1900000000001</ele>
        <time>2016-07-09T11:18:36Z</time>
      </trkpt>
      <trkpt lat="45.825483771041036" lon="7.192467944696546">
        <ele>1698.3099999999999</ele>
        <time>2016-07-09T11:18:49Z</time>
      </trkpt>
      <trkpt lat="45.825426103547215" lon="7.1925497520715">
        <ele>1697.3399999999999</ele>
        <time>2016-07-09T11:18:54Z</time>
      </trkpt>
      <trkpt lat="45.825350917875767" lon="7.192527204751968">
        <ele>1695.9000000000001</ele>
        <time>2016-07-09T11:18:59Z</time>
      </trkpt>
      <trkpt lat="45.825384277850389" lon="7.192237777635455">
        <ele>1693.5</ele>
        <time>2016-07-09T11:19:12Z</time>
      </trkpt>
      <trkpt lat="45.825419733300805" lon="7.192006185650826">
        <ele>1692.54</ele>
        <time>2016-07-09T11:19:24Z</time>
      </trkpt>
      <trkpt lat="45.825423588976264" lon="7.191987661644816">
        <ele>1692.54</ele>
        <time>2016-07-09T11:19:25Z</time>
      </trkpt>
      <trkpt lat="45.825470359995961" lon="7.191729415208101">
        <ele>1690.1400000000001</ele>
        <time>2016-07-09T11:19:39Z</time>
      </trkpt>
      <trkpt lat="45.825535487383604" lon="7.191461361944675">
        <ele>1688.21</ele>
        <time>2016-07-09T11:19:53Z</time>
      </trkpt>
      <trkpt lat="45.825641853734851" lon="7.191216442734003">
        <ele>1686.77</ele>
        <time>2016-07-09T11:20:08Z</time>
      </trkpt>
      <trkpt lat="45.825792057439685" lon="7.191005554050207">
        <ele>1685.3299999999999</ele>
        <time>2016-07-09T11:20:23Z</time>
      </trkpt>
      <trkpt lat="45.825952989980578" lon="7.190781673416495">
        <ele>1682.4400000000001</ele>
        <time>2016-07-09T11:20:39Z</time>
      </trkpt>
      <trkpt lat="45.826112497597933" lon="7.190548069775105">
        <ele>1680.04</ele>
        <time>2016-07-09T11:20:55Z</time>
      </trkpt>
      <trkpt lat="45.826263707131147" lon="7.19040859490633">
        <ele>1677.6400000000001</ele>
        <time>2016-07-09T11:21:08Z</time>
      </trkpt>
      <trkpt lat="45.826407037675381" lon="7.190333995968103">
        <ele>1674.27</ele>
        <time>2016-07-09T11:21:19Z</time>
      </trkpt>
      <trkpt lat="45.826417850330472" lon="7.190327793359757">
        <ele>1674.27</ele>
        <time>2016-07-09T11:21:20Z</time>
      </trkpt>
      <trkpt lat="45.826605102047324" lon="7.190199550241232">
        <ele>1672.8299999999999</ele>
        <time>2016-07-09T11:21:34Z</time>
      </trkpt>
      <trkpt lat="45.826786737889051" lon="7.190112378448248">
        <ele>1670.4300000000001</ele>
        <time>2016-07-09T11:21:48Z</time>
      </trkpt>
      <trkpt lat="45.826956555247307" lon="7.190103074535728">
        <ele>1667.54</ele>
        <time>2016-07-09T11:22:00Z</time>
      </trkpt>
      <trkpt lat="45.827091420069337" lon="7.190084885805845">
        <ele>1665.6199999999999</ele>
        <time>2016-07-09T11:22:11Z</time>
      </trkpt>
      <trkpt lat="45.827213795855641" lon="7.190056219696999">
        <ele>1665.1400000000001</ele>
        <time>2016-07-09T11:22:22Z</time>
      </trkpt>
      <trkpt lat="45.827381936833262" lon="7.190048843622208">
        <ele>1663.7</ele>
        <time>2016-07-09T11:22:33Z</time>
      </trkpt>
      <trkpt lat="45.827527530491352" lon="7.190021518617868">
        <ele>1661.3</ele>
        <time>2016-07-09T11:22:43Z</time>
      </trkpt>
      <trkpt lat="45.827658455818892" lon="7.190000982955098">
        <ele>1660.8099999999999</ele>
        <time>2016-07-09T11:22:53Z</time>
      </trkpt>
      <trkpt lat="45.827810419723392" lon="7.189971227198839">
        <ele>1660.8099999999999</ele>
        <time>2016-07-09T11:23:04Z</time>
      </trkpt>
      <trkpt lat="45.827964982017875" lon="7.189951445907354">
        <ele>1659.3699999999999</ele>
        <time>2016-07-09T11:23:16Z</time>
      </trkpt>
      <trkpt lat="45.828104875981808" lon="7.189926132559776">
        <ele>1658.4100000000001</ele>
        <time>2016-07-09T11:23:25Z</time>
      </trkpt>
      <trkpt lat="45.828281482681632" lon="7.189861927181482">
        <ele>1657.9300000000001</ele>
        <time>2016-07-09T11:23:37Z</time>
      </trkpt>
      <trkpt lat="45.828411485999823" lon="7.189801409840584">
        <ele>1656.97</ele>
        <time>2016-07-09T11:23:45Z</time>
      </trkpt>
      <trkpt lat="45.82851835526526" lon="7.189733432605863">
        <ele>1655.53</ele>
        <time>2016-07-09T11:23:56Z</time>
      </trkpt>
      <trkpt lat="45.828634779900312" lon="7.189672077074647">
        <ele>1655.05</ele>
        <time>2016-07-09T11:24:07Z</time>
      </trkpt>
      <trkpt lat="45.828821109607816" lon="7.18957987613976">
        <ele>1654.0899999999999</ele>
        <time>2016-07-09T11:24:20Z</time>
      </trkpt>
      <trkpt lat="45.828966703265905" lon="7.189481137320399">
        <ele>1651.2</ele>
        <time>2016-07-09T11:24:32Z</time>
      </trkpt>
      <trkpt lat="45.829013641923666" lon="7.189437719061971">
        <ele>1650.72</ele>
        <time>2016-07-09T11:24:37Z</time>
      </trkpt>
      <trkpt lat="45.829155463725328" lon="7.189344177022576">
        <ele>1649.28</ele>
        <time>2016-07-09T11:24:49Z</time>
      </trkpt>
      <trkpt lat="45.829309606924653" lon="7.189298076555133">
        <ele>1648.3199999999999</ele>
        <time>2016-07-09T11:25:02Z</time>
      </trkpt>
      <trkpt lat="45.829506414011121" lon="7.189246360212565">
        <ele>1645.4300000000001</ele>
        <time>2016-07-09T11:25:17Z</time>
      </trkpt>
      <trkpt lat="45.829604901373386" lon="7.189216269180179">
        <ele>1645.4300000000001</ele>
        <time>2016-07-09T11:25:23Z</time>
      </trkpt>
      <trkpt lat="45.829621497541666" lon="7.189212581142783">
        <ele>1644.95</ele>
        <time>2016-07-09T11:25:24Z</time>
      </trkpt>
      <trkpt lat="45.829638177528977" lon="7.189203109592199">
        <ele>1645.9100000000001</ele>
        <time>2016-07-09T11:25:25Z</time>
      </trkpt>
      <trkpt lat="45.829797936603427" lon="7.189132701605558">
        <ele>1644.47</ele>
        <time>2016-07-09T11:25:37Z</time>
      </trkpt>
      <trkpt lat="45.829812018200755" lon="7.189130270853639">
        <ele>1644.95</ele>
        <time>2016-07-09T11:25:38Z</time>
      </trkpt>
      <trkpt lat="45.829901536926627" lon="7.189070926979184">
        <ele>1644.47</ele>
        <time>2016-07-09T11:25:47Z</time>
      </trkpt>
      <trkpt lat="45.830009244382381" lon="7.188979228958488">
        <ele>1644.47</ele>
        <time>2016-07-09T11:25:57Z</time>
      </trkpt>
      <trkpt lat="45.830169171094894" lon="7.188879316672683">
        <ele>1643.51</ele>
        <time>2016-07-09T11:26:10Z</time>
      </trkpt>
      <trkpt lat="45.830328008159995" lon="7.188846627250314">
        <ele>1644.95</ele>
        <time>2016-07-09T11:26:21Z</time>
      </trkpt>
      <trkpt lat="45.830507213249803" lon="7.188799353316426">
        <ele>1643.03</ele>
        <time>2016-07-09T11:26:35Z</time>
      </trkpt>
      <trkpt lat="45.830617854371667" lon="7.188788121566176">
        <ele>1642.55</ele>
        <time>2016-07-09T11:26:43Z</time>
      </trkpt>
      <trkpt lat="45.83073821850121" lon="7.188786529004574">
        <ele>1642.55</ele>
        <time>2016-07-09T11:26:50Z</time>
      </trkpt>
      <trkpt lat="45.830781972035766" lon="7.18878828920424">
        <ele>1642.55</ele>
        <time>2016-07-09T11:26:54Z</time>
      </trkpt>
      <trkpt lat="45.830794041976333" lon="7.188782840967178">
        <ele>1642.55</ele>
        <time>2016-07-09T11:26:55Z</time>
      </trkpt>
      <trkpt lat="45.830928487703204" lon="7.188781164586544">
        <ele>1642.55</ele>
        <time>2016-07-09T11:27:07Z</time>
      </trkpt>
      <trkpt lat="45.831134179607034" lon="7.188741602003574">
        <ele>1642.55</ele>
        <time>2016-07-09T11:27:23Z</time>
      </trkpt>
      <trkpt lat="45.831248760223389" lon="7.188737830147147">
        <ele>1643.03</ele>
        <time>2016-07-09T11:27:34Z</time>
      </trkpt>
      <trkpt lat="45.83136267028749" lon="7.18872039578855">
        <ele>1643.03</ele>
        <time>2016-07-09T11:27:45Z</time>
      </trkpt>
      <trkpt lat="45.831493511795998" lon="7.188715031370521">
        <ele>1644.47</ele>
        <time>2016-07-09T11:27:56Z</time>
      </trkpt>
      <trkpt lat="45.831658216193318" lon="7.188707068562508">
        <ele>1645.4300000000001</ele>
        <time>2016-07-09T11:28:07Z</time>
      </trkpt>
      <trkpt lat="45.831694593653083" lon="7.188704386353493">
        <ele>1645.9100000000001</ele>
        <time>2016-07-09T11:28:10Z</time>
      </trkpt>
      <trkpt lat="45.83190112374723" lon="7.188632301986218">
        <ele>1646.4000000000001</ele>
        <time>2016-07-09T11:28:28Z</time>
      </trkpt>
      <trkpt lat="45.832082340493798" lon="7.188543202355504">
        <ele>1646.8800000000001</ele>
        <time>2016-07-09T11:28:44Z</time>
      </trkpt>
      <trkpt lat="45.832157609984279" lon="7.188511267304421">
        <ele>1646.4000000000001</ele>
        <time>2016-07-09T11:28:49Z</time>
      </trkpt>
      <trkpt lat="45.832409150898457" lon="7.188433231785893">
        <ele>1645.9100000000001</ele>
        <time>2016-07-09T11:29:03Z</time>
      </trkpt>
      <trkpt lat="45.832611238583922" lon="7.188285542652011">
        <ele>1644.95</ele>
        <time>2016-07-09T11:29:18Z</time>
      </trkpt>
      <trkpt lat="45.832750964909792" lon="7.188153276219964">
        <ele>1644.47</ele>
        <time>2016-07-09T11:29:30Z</time>
      </trkpt>
      <trkpt lat="45.832817852497101" lon="7.188040036708117">
        <ele>1643.51</ele>
        <time>2016-07-09T11:29:38Z</time>
      </trkpt>
      <trkpt lat="45.832911813631654" lon="7.187805594876409">
        <ele>1643.03</ele>
        <time>2016-07-09T11:29:52Z</time>
      </trkpt>
      <trkpt lat="45.832980461418629" lon="7.187645835801959">
        <ele>1641.5899999999999</ele>
        <time>2016-07-09T11:30:03Z</time>
      </trkpt>
      <trkpt lat="45.83301717415452" lon="7.187563944607973">
        <ele>1641.5899999999999</ele>
        <time>2016-07-09T11:30:13Z</time>
      </trkpt>
      <trkpt lat="45.833013653755188" lon="7.187556903809309">
        <ele>1642.0699999999999</ele>
        <time>2016-07-09T11:30:21Z</time>
      </trkpt>
      <trkpt lat="45.833028824999928" lon="7.187537122517824">
        <ele>1642.55</ele>
        <time>2016-07-09T11:30:23Z</time>
      </trkpt>
      <trkpt lat="45.833040811121464" lon="7.187513066455722">
        <ele>1641.5899999999999</ele>
        <time>2016-07-09T11:30:25Z</time>
      </trkpt>
      <trkpt lat="45.83305187523365" lon="7.187516251578927">
        <ele>1641.5899999999999</ele>
        <time>2016-07-09T11:30:32Z</time>
      </trkpt>
      <trkpt lat="45.833055730909109" lon="7.18750661239028">
        <ele>1642.0699999999999</ele>
        <time>2016-07-09T11:30:38Z</time>
      </trkpt>
      <trkpt lat="45.83305723965168" lon="7.18752077780664">
        <ele>1642.0699999999999</ele>
        <time>2016-07-09T11:30:50Z</time>
      </trkpt>
      <trkpt lat="45.833063358440995" lon="7.18751491047442">
        <ele>1642.0699999999999</ele>
        <time>2016-07-09T11:31:10Z</time>
      </trkpt>
      <trkpt lat="45.833067381754518" lon="7.187485825270414">
        <ele>1642.0699999999999</ele>
        <time>2016-07-09T11:31:25Z</time>
      </trkpt>
      <trkpt lat="45.833060424774885" lon="7.187465624883771">
        <ele>1642.0699999999999</ele>
        <time>2016-07-09T11:31:44Z</time>
      </trkpt>
      <trkpt lat="45.833047013729811" lon="7.187490602955222">
        <ele>1642.0699999999999</ele>
        <time>2016-07-09T11:31:56Z</time>
      </trkpt>
      <trkpt lat="45.833054725080729" lon="7.187508037313819">
        <ele>1641.5899999999999</ele>
        <time>2016-07-09T11:32:11Z</time>
      </trkpt>
      <trkpt lat="45.833060508593917" lon="7.187517173588276">
        <ele>1641.1099999999999</ele>
        <time>2016-07-09T11:32:29Z</time>
      </trkpt>
    </trkseg>
  </trk>

  <trk>
    <name>chanrion-champillon2016-07-08</name>
    <extensions>
      <gpxx:TrackExtension>
        <gpxx:DisplayColor>Yellow</gpxx:DisplayColor>
      </gpxx:TrackExtension>
      <gpxtrkx:TrackStatsExtension xmlns:gpxtrkx="http://www.garmin.com/xmlschemas/TrackStatsExtension/v1">
        <gpxtrkx:Distance>25617</gpxtrkx:Distance>
        <gpxtrkx:TotalElapsedTime>36608</gpxtrkx:TotalElapsedTime>
        <gpxtrkx:MovingTime>25690</gpxtrkx:MovingTime>
        <gpxtrkx:StoppedTime>10850</gpxtrkx:StoppedTime>
        <gpxtrkx:MovingSpeed>1</gpxtrkx:MovingSpeed>
        <gpxtrkx:MaxSpeed>2</gpxtrkx:MaxSpeed>
        <gpxtrkx:MaxElevation>2817</gpxtrkx:MaxElevation>
        <gpxtrkx:MinElevation>1951</gpxtrkx:MinElevation>
        <gpxtrkx:Ascent>1166</gpxtrkx:Ascent>
        <gpxtrkx:Descent>1214</gpxtrkx:Descent>
        <gpxtrkx:AvgAscentRate>0</gpxtrkx:AvgAscentRate>
        <gpxtrkx:MaxAscentRate>0</gpxtrkx:MaxAscentRate>
        <gpxtrkx:AvgDescentRate>0</gpxtrkx:AvgDescentRate>
        <gpxtrkx:MaxDescentRate>-0</gpxtrkx:MaxDescentRate>
      </gpxtrkx:TrackStatsExtension>
    </extensions>
    <trkseg>
      <trkpt lat="45.939131900668144" lon="7.380758263170719">
        <ele>2488.0300000000002</ele>
        <time>2016-07-08T05:33:50Z</time>
      </trkpt>
      <trkpt lat="45.93912972137332" lon="7.380757005885243">
        <ele>2488.0300000000002</ele>
        <time>2016-07-08T05:33:51Z</time>
      </trkpt>
      <trkpt lat="45.939130140468478" lon="7.380757927894592">
        <ele>2470.73</ele>
        <time>2016-07-08T05:33:57Z</time>
      </trkpt>
      <trkpt lat="45.939129134640098" lon="7.380757508799434">
        <ele>2470.73</ele>
        <time>2016-07-08T05:33:58Z</time>
      </trkpt>
      <trkpt lat="45.939134415239096" lon="7.380760945379734">
        <ele>2471.21</ele>
        <time>2016-07-08T05:34:15Z</time>
      </trkpt>
      <trkpt lat="45.939116645604372" lon="7.38076320849359">
        <ele>2470.73</ele>
        <time>2016-07-08T05:34:24Z</time>
      </trkpt>
      <trkpt lat="45.939083285629749" lon="7.380735715851188">
        <ele>2471.21</ele>
        <time>2016-07-08T05:34:35Z</time>
      </trkpt>
      <trkpt lat="45.939057385548949" lon="7.380783827975392">
        <ele>2469.7600000000002</ele>
        <time>2016-07-08T05:34:44Z</time>
      </trkpt>
      <trkpt lat="45.93901053071022" lon="7.380742421373725">
        <ele>2468.3200000000002</ele>
        <time>2016-07-08T05:34:54Z</time>
      </trkpt>
      <trkpt lat="45.939000220969319" lon="7.380757424980402">
        <ele>2467.3600000000001</ele>
        <time>2016-07-08T05:35:06Z</time>
      </trkpt>
      <trkpt lat="45.938995527103543" lon="7.38075097091496">
        <ele>2466.8800000000001</ele>
        <time>2016-07-08T05:35:10Z</time>
      </trkpt>
      <trkpt lat="45.938999466598034" lon="7.380665559321642">
        <ele>2465.4400000000001</ele>
        <time>2016-07-08T05:35:18Z</time>
      </trkpt>
      <trkpt lat="45.939003406092525" lon="7.380614094436169">
        <ele>2464.48</ele>
        <time>2016-07-08T05:35:25Z</time>
      </trkpt>
      <trkpt lat="45.93896753154695" lon="7.380558354780078">
        <ele>2462.5500000000002</ele>
        <time>2016-07-08T05:35:32Z</time>
      </trkpt>
      <trkpt lat="45.938938027247787" lon="7.380515355616808">
        <ele>2461.5900000000001</ele>
        <time>2016-07-08T05:35:36Z</time>
      </trkpt>
      <trkpt lat="45.938919335603714" lon="7.3805037047714">
        <ele>2461.1100000000001</ele>
        <time>2016-07-08T05:35:38Z</time>
      </trkpt>
      <trkpt lat="45.938901314511895" lon="7.380487527698278">
        <ele>2460.6300000000001</ele>
        <time>2016-07-08T05:35:40Z</time>
      </trkpt>
      <trkpt lat="45.938859153538942" lon="7.380462801083922">
        <ele>2460.6300000000001</ele>
        <time>2016-07-08T05:35:52Z</time>
      </trkpt>
      <trkpt lat="45.938849011436105" lon="7.38047881051898">
        <ele>2460.6300000000001</ele>
        <time>2016-07-08T05:35:54Z</time>
      </trkpt>
      <trkpt lat="45.93878623098135" lon="7.380528934299946">
        <ele>2459.6700000000001</ele>
        <time>2016-07-08T05:35:59Z</time>
      </trkpt>
      <trkpt lat="45.938736358657479" lon="7.380532789975405">
        <ele>2458.23</ele>
        <time>2016-07-08T05:36:03Z</time>
      </trkpt>
      <trkpt lat="45.938596967607737" lon="7.380566485226154">
        <ele>2455.3400000000001</ele>
        <time>2016-07-08T05:36:14Z</time>
      </trkpt>
      <trkpt lat="45.938544496893883" lon="7.380561456084251">
        <ele>2454.3800000000001</ele>
        <time>2016-07-08T05:36:18Z</time>
      </trkpt>
      <trkpt lat="45.938455648720264" lon="7.380629014223814">
        <ele>2452.9400000000001</ele>
        <time>2016-07-08T05:36:26Z</time>
      </trkpt>
      <trkpt lat="45.938277533277869" lon="7.380633372813463">
        <ele>2450.54</ele>
        <time>2016-07-08T05:36:40Z</time>
      </trkpt>
      <trkpt lat="45.938227660953999" lon="7.380636390298605">
        <ele>2450.0599999999999</ele>
        <time>2016-07-08T05:36:44Z</time>
      </trkpt>
      <trkpt lat="45.938142752274871" lon="7.38063856959343">
        <ele>2449.5799999999999</ele>
        <time>2016-07-08T05:36:51Z</time>
      </trkpt>
      <trkpt lat="45.938011240214109" lon="7.380655836313963">
        <ele>2449.5799999999999</ele>
        <time>2016-07-08T05:37:02Z</time>
      </trkpt>
      <trkpt lat="45.937886936590075" lon="7.380643263459206">
        <ele>2449.5799999999999</ele>
        <time>2016-07-08T05:37:13Z</time>
      </trkpt>
      <trkpt lat="45.937750730663538" lon="7.380588948726654">
        <ele>2450.0599999999999</ele>
        <time>2016-07-08T05:37:26Z</time>
      </trkpt>
      <trkpt lat="45.937603963539004" lon="7.380570089444518">
        <ele>2448.6199999999999</ele>
        <time>2016-07-08T05:37:39Z</time>
      </trkpt>
      <trkpt lat="45.937523664906621" lon="7.380586434155703">
        <ele>2449.0999999999999</ele>
        <time>2016-07-08T05:37:47Z</time>
      </trkpt>
      <trkpt lat="45.937420148402452" lon="7.380541255697608">
        <ele>2451.5</ele>
        <time>2016-07-08T05:37:58Z</time>
      </trkpt>
      <trkpt lat="45.937386620789766" lon="7.380531365051866">
        <ele>2450.0599999999999</ele>
        <time>2016-07-08T05:38:02Z</time>
      </trkpt>
      <trkpt lat="45.937357535585761" lon="7.380522899329662">
        <ele>2450.0599999999999</ele>
        <time>2016-07-08T05:38:05Z</time>
      </trkpt>
      <trkpt lat="45.937302466481924" lon="7.380493897944689">
        <ele>2448.6199999999999</ele>
        <time>2016-07-08T05:38:11Z</time>
      </trkpt>
      <trkpt lat="45.937285618856549" lon="7.380472356453538">
        <ele>2449.0999999999999</ele>
        <time>2016-07-08T05:38:13Z</time>
      </trkpt>
      <trkpt lat="45.937142120674253" lon="7.380524910986424">
        <ele>2447.1700000000001</ele>
        <time>2016-07-08T05:38:26Z</time>
      </trkpt>
      <trkpt lat="45.937098283320665" lon="7.380557265132666">
        <ele>2446.6900000000001</ele>
        <time>2016-07-08T05:38:34Z</time>
      </trkpt>
      <trkpt lat="45.93697439879179" lon="7.380543686449528">
        <ele>2445.25</ele>
        <time>2016-07-08T05:38:46Z</time>
      </trkpt>
      <trkpt lat="45.936876833438873" lon="7.380545362830162">
        <ele>2442.3699999999999</ele>
        <time>2016-07-08T05:38:56Z</time>
      </trkpt>
      <trkpt lat="45.93681707046926" lon="7.38059364259243">
        <ele>2440.9200000000001</ele>
        <time>2016-07-08T05:39:08Z</time>
      </trkpt>
      <trkpt lat="45.936776837334037" lon="7.380586685612798">
        <ele>2439.48</ele>
        <time>2016-07-08T05:39:12Z</time>
      </trkpt>
      <trkpt lat="45.936735598370433" lon="7.380550391972065">
        <ele>2438.52</ele>
        <time>2016-07-08T05:39:17Z</time>
      </trkpt>
      <trkpt lat="45.936700394377112" lon="7.380554918199778">
        <ele>2438.04</ele>
        <time>2016-07-08T05:39:20Z</time>
      </trkpt>
      <trkpt lat="45.936591848731041" lon="7.380529772490263">
        <ele>2436.1199999999999</ele>
        <time>2016-07-08T05:39:30Z</time>
      </trkpt>
      <trkpt lat="45.936525966972113" lon="7.38049540668726">
        <ele>2435.1599999999999</ele>
        <time>2016-07-08T05:39:36Z</time>
      </trkpt>
      <trkpt lat="45.936452122405171" lon="7.380454922094941">
        <ele>2433.71</ele>
        <time>2016-07-08T05:39:43Z</time>
      </trkpt>
      <trkpt lat="45.936408117413521" lon="7.380438661202788">
        <ele>2433.23</ele>
        <time>2016-07-08T05:39:47Z</time>
      </trkpt>
      <trkpt lat="45.936272079125047" lon="7.380385771393776">
        <ele>2434.1999999999998</ele>
        <time>2016-07-08T05:39:59Z</time>
      </trkpt>
      <trkpt lat="45.936194462701678" lon="7.380381831899285">
        <ele>2433.23</ele>
        <time>2016-07-08T05:40:05Z</time>
      </trkpt>
      <trkpt lat="45.936164371669292" lon="7.380389962345362">
        <ele>2431.79</ele>
        <time>2016-07-08T05:40:08Z</time>
      </trkpt>
      <trkpt lat="45.936141656711698" lon="7.380389124155045">
        <ele>2431.3099999999999</ele>
        <time>2016-07-08T05:40:10Z</time>
      </trkpt>
      <trkpt lat="45.93610025011003" lon="7.380347130820155">
        <ele>2431.79</ele>
        <time>2016-07-08T05:40:14Z</time>
      </trkpt>
      <trkpt lat="45.935997068881989" lon="7.380360877141357">
        <ele>2431.3099999999999</ele>
        <time>2016-07-08T05:40:23Z</time>
      </trkpt>
      <trkpt lat="45.935941496863961" lon="7.380377473309636">
        <ele>2430.3499999999999</ele>
        <time>2016-07-08T05:40:28Z</time>
      </trkpt>
      <trkpt lat="45.935891624540091" lon="7.380371019244194">
        <ele>2429.3899999999999</ele>
        <time>2016-07-08T05:40:33Z</time>
      </trkpt>
      <trkpt lat="45.93586815521121" lon="7.380358697846532">
        <ele>2428.9099999999999</ele>
        <time>2016-07-08T05:40:35Z</time>
      </trkpt>
      <trkpt lat="45.935816690325737" lon="7.380337491631508">
        <ele>2427.4699999999998</ele>
        <time>2016-07-08T05:40:40Z</time>
      </trkpt>
      <trkpt lat="45.935751814395189" lon="7.380353417247534">
        <ele>2426.5</ele>
        <time>2016-07-08T05:40:46Z</time>
      </trkpt>
      <trkpt lat="45.935728764161468" lon="7.380361966788769">
        <ele>2426.02</ele>
        <time>2016-07-08T05:40:48Z</time>
      </trkpt>
      <trkpt lat="45.935687776654959" lon="7.380356350913644">
        <ele>2425.54</ele>
        <time>2016-07-08T05:40:52Z</time>
      </trkpt>
      <trkpt lat="45.935576884075999" lon="7.380347633734345">
        <ele>2424.0999999999999</ele>
        <time>2016-07-08T05:41:02Z</time>
      </trkpt>
      <trkpt lat="45.935535142198205" lon="7.380323829129338">
        <ele>2423.1399999999999</ele>
        <time>2016-07-08T05:41:06Z</time>
      </trkpt>
      <trkpt lat="45.935426009818912" lon="7.38026088103652">
        <ele>2420.2600000000002</ele>
        <time>2016-07-08T05:41:19Z</time>
      </trkpt>
      <trkpt lat="45.935384687036276" lon="7.380272448062897">
        <ele>2419.3000000000002</ele>
        <time>2016-07-08T05:41:23Z</time>
      </trkpt>
      <trkpt lat="45.935269184410572" lon="7.380276136100292">
        <ele>2415.9299999999998</ele>
        <time>2016-07-08T05:41:34Z</time>
      </trkpt>
      <trkpt lat="45.935256276279688" lon="7.380273034796119">
        <ele>2415.4499999999998</ele>
        <time>2016-07-08T05:41:35Z</time>
      </trkpt>
      <trkpt lat="45.935211349278688" lon="7.38026331178844">
        <ele>2414.9699999999998</ele>
        <time>2016-07-08T05:41:39Z</time>
      </trkpt>
      <trkpt lat="45.935152843594551" lon="7.380253002047539">
        <ele>2414.0100000000002</ele>
        <time>2016-07-08T05:41:44Z</time>
      </trkpt>
      <trkpt lat="45.9350570384413" lon="7.380266999825835">
        <ele>2413.5300000000002</ele>
        <time>2016-07-08T05:41:52Z</time>
      </trkpt>
      <trkpt lat="45.93498126603663" lon="7.380257025361061">
        <ele>2412.5700000000002</ele>
        <time>2016-07-08T05:41:59Z</time>
      </trkpt>
      <trkpt lat="45.934939775615931" lon="7.380249900743365">
        <ele>2411.1199999999999</ele>
        <time>2016-07-08T05:42:03Z</time>
      </trkpt>
      <trkpt lat="45.934837935492396" lon="7.380198016762734">
        <ele>2408.7199999999998</ele>
        <time>2016-07-08T05:42:12Z</time>
      </trkpt>
      <trkpt lat="45.934807593002915" lon="7.380188042297959">
        <ele>2408.2399999999998</ele>
        <time>2016-07-08T05:42:15Z</time>
      </trkpt>
      <trkpt lat="45.934701561927795" lon="7.380197262391448">
        <ele>2406.8000000000002</ele>
        <time>2016-07-08T05:42:25Z</time>
      </trkpt>
      <trkpt lat="45.934691336005926" lon="7.380194244906306">
        <ele>2406.3200000000002</ele>
        <time>2016-07-08T05:42:26Z</time>
      </trkpt>
      <trkpt lat="45.934674488380551" lon="7.380173038691282">
        <ele>2406.3200000000002</ele>
        <time>2016-07-08T05:42:28Z</time>
      </trkpt>
      <trkpt lat="45.934591758996248" lon="7.380165830254555">
        <ele>2404.3899999999999</ele>
        <time>2016-07-08T05:42:35Z</time>
      </trkpt>
      <trkpt lat="45.934473071247339" lon="7.380139930173755">
        <ele>2401.9899999999998</ele>
        <time>2016-07-08T05:42:47Z</time>
      </trkpt>
      <trkpt lat="45.934358574450016" lon="7.380193825811148">
        <ele>2399.5900000000001</ele>
        <time>2016-07-08T05:42:58Z</time>
      </trkpt>
      <trkpt lat="45.934230498969555" lon="7.380193071439862">
        <ele>2398.6300000000001</ele>
        <time>2016-07-08T05:43:09Z</time>
      </trkpt>
      <trkpt lat="45.934192696586251" lon="7.380211595445871">
        <ele>2398.6300000000001</ele>
        <time>2016-07-08T05:43:14Z</time>
      </trkpt>
      <trkpt lat="45.93410175293684" lon="7.38016901537776">
        <ele>2397.1799999999998</ele>
        <time>2016-07-08T05:43:22Z</time>
      </trkpt>
      <trkpt lat="45.933975856751204" lon="7.380130542442203">
        <ele>2397.1799999999998</ele>
        <time>2016-07-08T05:43:33Z</time>
      </trkpt>
      <trkpt lat="45.933832777664065" lon="7.380065247416496">
        <ele>2397.1799999999998</ele>
        <time>2016-07-08T05:43:45Z</time>
      </trkpt>
      <trkpt lat="45.933753149583936" lon="7.380126938223839">
        <ele>2395.7399999999998</ele>
        <time>2016-07-08T05:43:54Z</time>
      </trkpt>
      <trkpt lat="45.93370545655489" lon="7.380143366754055">
        <ele>2394.7800000000002</ele>
        <time>2016-07-08T05:43:59Z</time>
      </trkpt>
      <trkpt lat="45.933613926172256" lon="7.380095757544041">
        <ele>2392.8600000000001</ele>
        <time>2016-07-08T05:44:08Z</time>
      </trkpt>
      <trkpt lat="45.933504458516836" lon="7.380020990967751">
        <ele>2389.9699999999998</ele>
        <time>2016-07-08T05:44:20Z</time>
      </trkpt>
      <trkpt lat="45.933416448533535" lon="7.380138505250216">
        <ele>2388.0500000000002</ele>
        <time>2016-07-08T05:44:32Z</time>
      </trkpt>
      <trkpt lat="45.933326845988631" lon="7.380212349817157">
        <ele>2385.6500000000001</ele>
        <time>2016-07-08T05:44:42Z</time>
      </trkpt>
      <trkpt lat="45.933213941752911" lon="7.380311926826835">
        <ele>2382.7600000000002</ele>
        <time>2016-07-08T05:44:55Z</time>
      </trkpt>
      <trkpt lat="45.933148143813014" lon="7.380344113335013">
        <ele>2381.8000000000002</ele>
        <time>2016-07-08T05:45:01Z</time>
      </trkpt>
      <trkpt lat="45.933011770248413" lon="7.380258115008473">
        <ele>2379.8800000000001</ele>
        <time>2016-07-08T05:45:13Z</time>
      </trkpt>
      <trkpt lat="45.932982014492154" lon="7.380251158028841">
        <ele>2379.8800000000001</ele>
        <time>2016-07-08T05:45:16Z</time>
      </trkpt>
      <trkpt lat="45.932829296216369" lon="7.380232131108642">
        <ele>2377.48</ele>
        <time>2016-07-08T05:45:31Z</time>
      </trkpt>
      <trkpt lat="45.932772550731897" lon="7.380163902416825">
        <ele>2375.0700000000002</ele>
        <time>2016-07-08T05:45:42Z</time>
      </trkpt>
      <trkpt lat="45.932682445272803" lon="7.380098104476929">
        <ele>2372.6700000000001</ele>
        <time>2016-07-08T05:45:53Z</time>
      </trkpt>
      <trkpt lat="45.932607091963291" lon="7.380019733682275">
        <ele>2371.71</ele>
        <time>2016-07-08T05:46:03Z</time>
      </trkpt>
      <trkpt lat="45.932599548250437" lon="7.379995090886951">
        <ele>2371.23</ele>
        <time>2016-07-08T05:46:06Z</time>
      </trkpt>
      <trkpt lat="45.932589825242758" lon="7.379924515262246">
        <ele>2369.3099999999999</ele>
        <time>2016-07-08T05:46:13Z</time>
      </trkpt>
      <trkpt lat="45.93255428597331" lon="7.379886377602816">
        <ele>2368.3499999999999</ele>
        <time>2016-07-08T05:46:18Z</time>
      </trkpt>
      <trkpt lat="45.93250734731555" lon="7.379885874688625">
        <ele>2367.8600000000001</ele>
        <time>2016-07-08T05:46:22Z</time>
      </trkpt>
      <trkpt lat="45.932431826367974" lon="7.379865003749728">
        <ele>2366.9000000000001</ele>
        <time>2016-07-08T05:46:29Z</time>
      </trkpt>
      <trkpt lat="45.93237784691155" lon="7.379864333197475">
        <ele>2365.46</ele>
        <time>2016-07-08T05:46:34Z</time>
      </trkpt>
      <trkpt lat="45.932261003181338" lon="7.37982988357544">
        <ele>2363.54</ele>
        <time>2016-07-08T05:46:46Z</time>
      </trkpt>
      <trkpt lat="45.932255052030087" lon="7.379818735644221">
        <ele>2363.0599999999999</ele>
        <time>2016-07-08T05:46:47Z</time>
      </trkpt>
      <trkpt lat="45.932234348729253" lon="7.379716224968433">
        <ele>2361.6199999999999</ele>
        <time>2016-07-08T05:46:55Z</time>
      </trkpt>
      <trkpt lat="45.932185230776668" lon="7.379711866378784">
        <ele>2360.6500000000001</ele>
        <time>2016-07-08T05:47:05Z</time>
      </trkpt>
      <trkpt lat="45.932169472798705" lon="7.379724187776446">
        <ele>2359.6900000000001</ele>
        <time>2016-07-08T05:47:09Z</time>
      </trkpt>
      <trkpt lat="45.932105770334601" lon="7.379743214696646">
        <ele>2357.77</ele>
        <time>2016-07-08T05:47:17Z</time>
      </trkpt>
      <trkpt lat="45.932067800313234" lon="7.379654031246901">
        <ele>2355.8499999999999</ele>
        <time>2016-07-08T05:47:26Z</time>
      </trkpt>
      <trkpt lat="45.932028656825423" lon="7.379667107015848">
        <ele>2354.8899999999999</ele>
        <time>2016-07-08T05:47:31Z</time>
      </trkpt>
      <trkpt lat="45.93192933127284" lon="7.379681272432208">
        <ele>2352.48</ele>
        <time>2016-07-08T05:47:43Z</time>
      </trkpt>
      <trkpt lat="45.93187753111124" lon="7.379731563851237">
        <ele>2349.1199999999999</ele>
        <time>2016-07-08T05:47:52Z</time>
      </trkpt>
      <trkpt lat="45.931848362088203" lon="7.379762576892972">
        <ele>2349.5999999999999</ele>
        <time>2016-07-08T05:47:58Z</time>
      </trkpt>
      <trkpt lat="45.931845512241125" lon="7.379903979599476">
        <ele>2346.7199999999998</ele>
        <time>2016-07-08T05:48:09Z</time>
      </trkpt>
      <trkpt lat="45.93184182420373" lon="7.379918228834868">
        <ele>2346.23</ele>
        <time>2016-07-08T05:48:10Z</time>
      </trkpt>
      <trkpt lat="45.931863952428102" lon="7.379983607679606">
        <ele>2343.3499999999999</ele>
        <time>2016-07-08T05:48:20Z</time>
      </trkpt>
      <trkpt lat="45.931812403723598" lon="7.380022499710321">
        <ele>2341.9099999999999</ele>
        <time>2016-07-08T05:48:30Z</time>
      </trkpt>
      <trkpt lat="45.931799244135618" lon="7.379999281838536">
        <ele>2341.4299999999998</ele>
        <time>2016-07-08T05:48:35Z</time>
      </trkpt>
      <trkpt lat="45.931768231093884" lon="7.380015794187784">
        <ele>2339.9899999999998</ele>
        <time>2016-07-08T05:48:38Z</time>
      </trkpt>
      <trkpt lat="45.931738391518593" lon="7.379958629608154">
        <ele>2336.6199999999999</ele>
        <time>2016-07-08T05:48:46Z</time>
      </trkpt>
      <trkpt lat="45.931688854470849" lon="7.380007579922676">
        <ele>2334.6999999999998</ele>
        <time>2016-07-08T05:48:56Z</time>
      </trkpt>
      <trkpt lat="45.931630013510585" lon="7.380068264901638">
        <ele>2332.3000000000002</ele>
        <time>2016-07-08T05:49:05Z</time>
      </trkpt>
      <trkpt lat="45.931608639657497" lon="7.380075305700302">
        <ele>2331.3299999999999</ele>
        <time>2016-07-08T05:49:08Z</time>
      </trkpt>
      <trkpt lat="45.931588523089886" lon="7.38000481389463">
        <ele>2327.9699999999998</ele>
        <time>2016-07-08T05:49:19Z</time>
      </trkpt>
      <trkpt lat="45.931579051539302" lon="7.380101373419166">
        <ele>2326.5300000000002</ele>
        <time>2016-07-08T05:49:27Z</time>
      </trkpt>
      <trkpt lat="45.931537561118603" lon="7.380121992900968">
        <ele>2325.5700000000002</ele>
        <time>2016-07-08T05:49:31Z</time>
      </trkpt>
      <trkpt lat="45.93144653365016" lon="7.380120819434524">
        <ele>2324.6100000000001</ele>
        <time>2016-07-08T05:49:41Z</time>
      </trkpt>
      <trkpt lat="45.931347208097577" lon="7.380268257111311">
        <ele>2322.6799999999998</ele>
        <time>2016-07-08T05:49:55Z</time>
      </trkpt>
      <trkpt lat="45.931229777634144" lon="7.380348388105631">
        <ele>2321.2399999999998</ele>
        <time>2016-07-08T05:50:08Z</time>
      </trkpt>
      <trkpt lat="45.931107653304935" lon="7.380439667031169">
        <ele>2319.8000000000002</ele>
        <time>2016-07-08T05:50:20Z</time>
      </trkpt>
      <trkpt lat="45.931066581979394" lon="7.380449138581753">
        <ele>2319.3200000000002</ele>
        <time>2016-07-08T05:50:24Z</time>
      </trkpt>
      <trkpt lat="45.931050069630146" lon="7.380432961508632">
        <ele>2318.8400000000001</ele>
        <time>2016-07-08T05:50:26Z</time>
      </trkpt>
      <trkpt lat="45.931038083508611" lon="7.380365403369069">
        <ele>2317.8800000000001</ele>
        <time>2016-07-08T05:50:31Z</time>
      </trkpt>
      <trkpt lat="45.931087536737323" lon="7.380301281809807">
        <ele>2316.9099999999999</ele>
        <time>2016-07-08T05:50:38Z</time>
      </trkpt>
      <trkpt lat="45.931213013827801" lon="7.380182594060898">
        <ele>2314.5100000000002</ele>
        <time>2016-07-08T05:50:52Z</time>
      </trkpt>
      <trkpt lat="45.931291552260518" lon="7.380040939897299">
        <ele>2312.1100000000001</ele>
        <time>2016-07-08T05:51:03Z</time>
      </trkpt>
      <trkpt lat="45.931340083479881" lon="7.379913199692965">
        <ele>2311.1500000000001</ele>
        <time>2016-07-08T05:51:12Z</time>
      </trkpt>
      <trkpt lat="45.931290881708264" lon="7.379756541922689">
        <ele>2309.6999999999998</ele>
        <time>2016-07-08T05:51:22Z</time>
      </trkpt>
      <trkpt lat="45.931162219494581" lon="7.379697114229202">
        <ele>2307.7800000000002</ele>
        <time>2016-07-08T05:51:33Z</time>
      </trkpt>
      <trkpt lat="45.931077562272549" lon="7.379714464768767">
        <ele>2306.3400000000001</ele>
        <time>2016-07-08T05:51:41Z</time>
      </trkpt>
      <trkpt lat="45.931046046316624" lon="7.379769114777446">
        <ele>2305.8600000000001</ele>
        <time>2016-07-08T05:51:45Z</time>
      </trkpt>
      <trkpt lat="45.931014865636826" lon="7.379862489178777">
        <ele>2304.4200000000001</ele>
        <time>2016-07-08T05:51:56Z</time>
      </trkpt>
      <trkpt lat="45.930991480126977" lon="7.379867266863585">
        <ele>2303.9400000000001</ele>
        <time>2016-07-08T05:52:08Z</time>
      </trkpt>
      <trkpt lat="45.930991228669882" lon="7.379840696230531">
        <ele>2303.9400000000001</ele>
        <time>2016-07-08T05:52:10Z</time>
      </trkpt>
      <trkpt lat="45.930886287242174" lon="7.379745813086629">
        <ele>2302.0100000000002</ele>
        <time>2016-07-08T05:52:22Z</time>
      </trkpt>
      <trkpt lat="45.930876899510622" lon="7.379725445061922">
        <ele>2302.0100000000002</ele>
        <time>2016-07-08T05:52:25Z</time>
      </trkpt>
      <trkpt lat="45.930809173732996" lon="7.37971656024456">
        <ele>2300.0900000000001</ele>
        <time>2016-07-08T05:52:33Z</time>
      </trkpt>
      <trkpt lat="45.930725773796439" lon="7.379753775894642">
        <ele>2296.73</ele>
        <time>2016-07-08T05:52:45Z</time>
      </trkpt>
      <trkpt lat="45.930744633078575" lon="7.379829799756408">
        <ele>2294.3200000000002</ele>
        <time>2016-07-08T05:52:55Z</time>
      </trkpt>
      <trkpt lat="45.930728958919644" lon="7.379830051213503">
        <ele>2293.8400000000001</ele>
        <time>2016-07-08T05:52:57Z</time>
      </trkpt>
      <trkpt lat="45.930622592568398" lon="7.379758302122355">
        <ele>2290.48</ele>
        <time>2016-07-08T05:53:09Z</time>
      </trkpt>
      <trkpt lat="45.930560063570738" lon="7.379687810316682">
        <ele>2287.5900000000001</ele>
        <time>2016-07-08T05:53:22Z</time>
      </trkpt>
      <trkpt lat="45.930522345006466" lon="7.379667861387134">
        <ele>2285.6700000000001</ele>
        <time>2016-07-08T05:53:31Z</time>
      </trkpt>
      <trkpt lat="45.930500719696283" lon="7.379657216370106">
        <ele>2284.71</ele>
        <time>2016-07-08T05:53:35Z</time>
      </trkpt>
      <trkpt lat="45.93043752014637" lon="7.379650259390473">
        <ele>2282.3099999999999</ele>
        <time>2016-07-08T05:53:43Z</time>
      </trkpt>
      <trkpt lat="45.930361328646541" lon="7.379584461450577">
        <ele>2279.9000000000001</ele>
        <time>2016-07-08T05:53:54Z</time>
      </trkpt>
      <trkpt lat="45.930323610082269" lon="7.379568954929709">
        <ele>2278.9400000000001</ele>
        <time>2016-07-08T05:53:59Z</time>
      </trkpt>
      <trkpt lat="45.930304331704974" lon="7.379508186131716">
        <ele>2277.5</ele>
        <time>2016-07-08T05:54:06Z</time>
      </trkpt>
      <trkpt lat="45.930286562070251" lon="7.379376590251923">
        <ele>2276.0599999999999</ele>
        <time>2016-07-08T05:54:16Z</time>
      </trkpt>
      <trkpt lat="45.930283041670918" lon="7.379358904436231">
        <ele>2275.0999999999999</ele>
        <time>2016-07-08T05:54:18Z</time>
      </trkpt>
      <trkpt lat="45.930280778557062" lon="7.379230996593833">
        <ele>2273.1700000000001</ele>
        <time>2016-07-08T05:54:29Z</time>
      </trkpt>
      <trkpt lat="45.930280862376094" lon="7.379170395433903">
        <ele>2271.73</ele>
        <time>2016-07-08T05:54:34Z</time>
      </trkpt>
      <trkpt lat="45.930241551250219" lon="7.379109542816877">
        <ele>2269.3299999999999</ele>
        <time>2016-07-08T05:54:45Z</time>
      </trkpt>
      <trkpt lat="45.930200815200806" lon="7.379154385998845">
        <ele>2267.4099999999999</ele>
        <time>2016-07-08T05:54:52Z</time>
      </trkpt>
      <trkpt lat="45.930127138271928" lon="7.379251113161445">
        <ele>2264.52</ele>
        <time>2016-07-08T05:55:04Z</time>
      </trkpt>
      <trkpt lat="45.930056814104319" lon="7.379326885566115">
        <ele>2261.1599999999999</ele>
        <time>2016-07-08T05:55:14Z</time>
      </trkpt>
      <trkpt lat="45.929985819384456" lon="7.379378266632557">
        <ele>2259.2399999999998</ele>
        <time>2016-07-08T05:55:26Z</time>
      </trkpt>
      <trkpt lat="45.9299679659307" lon="7.37928950227797">
        <ele>2257.3099999999999</ele>
        <time>2016-07-08T05:55:35Z</time>
      </trkpt>
      <trkpt lat="45.929939802736044" lon="7.37924013286829">
        <ele>2255.3899999999999</ele>
        <time>2016-07-08T05:55:42Z</time>
      </trkpt>
      <trkpt lat="45.929994871839881" lon="7.37908816896379">
        <ele>2253.4699999999998</ele>
        <time>2016-07-08T05:55:54Z</time>
      </trkpt>
      <trkpt lat="45.929992944002151" lon="7.379080457612872">
        <ele>2252.9899999999998</ele>
        <time>2016-07-08T05:55:55Z</time>
      </trkpt>
      <trkpt lat="45.929991435259581" lon="7.379069728776813">
        <ele>2252.9899999999998</ele>
        <time>2016-07-08T05:55:56Z</time>
      </trkpt>
      <trkpt lat="45.930024040862918" lon="7.378885326907039">
        <ele>2250.0999999999999</ele>
        <time>2016-07-08T05:56:08Z</time>
      </trkpt>
      <trkpt lat="45.930031668394804" lon="7.378834113478661">
        <ele>2249.1399999999999</ele>
        <time>2016-07-08T05:56:11Z</time>
      </trkpt>
      <trkpt lat="45.93009889125824" lon="7.378717521205545">
        <ele>2248.1799999999998</ele>
        <time>2016-07-08T05:56:20Z</time>
      </trkpt>
      <trkpt lat="45.930128311738372" lon="7.37864057533443">
        <ele>2247.6999999999998</ele>
        <time>2016-07-08T05:56:25Z</time>
      </trkpt>
      <trkpt lat="45.930177345871925" lon="7.378574945032597">
        <ele>2246.2600000000002</ele>
        <time>2016-07-08T05:56:32Z</time>
      </trkpt>
      <trkpt lat="45.930250603705645" lon="7.378525072708726">
        <ele>2244.8200000000002</ele>
        <time>2016-07-08T05:56:42Z</time>
      </trkpt>
      <trkpt lat="45.930309360846877" lon="7.378447875380516">
        <ele>2243.3699999999999</ele>
        <time>2016-07-08T05:56:51Z</time>
      </trkpt>
      <trkpt lat="45.930360909551382" lon="7.378377551212907">
        <ele>2242.4099999999999</ele>
        <time>2016-07-08T05:56:58Z</time>
      </trkpt>
      <trkpt lat="45.930459899827838" lon="7.378285937011242">
        <ele>2240.4899999999998</ele>
        <time>2016-07-08T05:57:08Z</time>
      </trkpt>
      <trkpt lat="45.930500971153378" lon="7.378192646428943">
        <ele>2238.5700000000002</ele>
        <time>2016-07-08T05:57:16Z</time>
      </trkpt>
      <trkpt lat="45.930529469624162" lon="7.378150569275022">
        <ele>2237.6100000000001</ele>
        <time>2016-07-08T05:57:26Z</time>
      </trkpt>
      <trkpt lat="45.930528799071908" lon="7.378121567890048">
        <ele>2237.6100000000001</ele>
        <time>2016-07-08T05:57:30Z</time>
      </trkpt>
      <trkpt lat="45.930577497929335" lon="7.378005310893059">
        <ele>2235.6799999999998</ele>
        <time>2016-07-08T05:57:41Z</time>
      </trkpt>
      <trkpt lat="45.93060465529561" lon="7.377902213484049">
        <ele>2233.2800000000002</ele>
        <time>2016-07-08T05:57:49Z</time>
      </trkpt>
      <trkpt lat="45.930636003613472" lon="7.377864327281714">
        <ele>2233.2800000000002</ele>
        <time>2016-07-08T05:57:53Z</time>
      </trkpt>
      <trkpt lat="45.930767180398107" lon="7.377808671444655">
        <ele>2231.3600000000001</ele>
        <time>2016-07-08T05:58:07Z</time>
      </trkpt>
      <trkpt lat="45.930774975568056" lon="7.377785788848996">
        <ele>2230.8800000000001</ele>
        <time>2016-07-08T05:58:09Z</time>
      </trkpt>
      <trkpt lat="45.930786207318306" lon="7.377740945667028">
        <ele>2230.4000000000001</ele>
        <time>2016-07-08T05:58:12Z</time>
      </trkpt>
      <trkpt lat="45.930834738537669" lon="7.377648912370205">
        <ele>2228.9499999999998</ele>
        <time>2016-07-08T05:58:23Z</time>
      </trkpt>
      <trkpt lat="45.930873714387417" lon="7.37762033008039">
        <ele>2228.9499999999998</ele>
        <time>2016-07-08T05:58:32Z</time>
      </trkpt>
      <trkpt lat="45.930930795148015" lon="7.377578755840659">
        <ele>2228.4699999999998</ele>
        <time>2016-07-08T05:58:39Z</time>
      </trkpt>
      <trkpt lat="45.93095694668591" lon="7.377548413351178">
        <ele>2227.9899999999998</ele>
        <time>2016-07-08T05:58:43Z</time>
      </trkpt>
      <trkpt lat="45.931038921698928" lon="7.377477418631315">
        <ele>2227.0300000000002</ele>
        <time>2016-07-08T05:58:52Z</time>
      </trkpt>
      <trkpt lat="45.931149562820792" lon="7.377386223524809">
        <ele>2226.0700000000002</ele>
        <time>2016-07-08T05:59:03Z</time>
      </trkpt>
      <trkpt lat="45.931249307468534" lon="7.377297123894095">
        <ele>2225.1100000000001</ele>
        <time>2016-07-08T05:59:14Z</time>
      </trkpt>
      <trkpt lat="45.931356260553002" lon="7.377193942666054">
        <ele>2224.1500000000001</ele>
        <time>2016-07-08T05:59:25Z</time>
      </trkpt>
      <trkpt lat="45.931412922218442" lon="7.377142896875739">
        <ele>2224.1500000000001</ele>
        <time>2016-07-08T05:59:31Z</time>
      </trkpt>
      <trkpt lat="45.931485258042812" lon="7.377042481675744">
        <ele>2223.1900000000001</ele>
        <time>2016-07-08T05:59:41Z</time>
      </trkpt>
      <trkpt lat="45.931521551683545" lon="7.376955393701792">
        <ele>2222.71</ele>
        <time>2016-07-08T05:59:47Z</time>
      </trkpt>
      <trkpt lat="45.931616518646479" lon="7.376842657104135">
        <ele>2222.2199999999998</ele>
        <time>2016-07-08T05:59:57Z</time>
      </trkpt>
      <trkpt lat="45.931702265515924" lon="7.37676864489913">
        <ele>2221.7399999999998</ele>
        <time>2016-07-08T06:00:09Z</time>
      </trkpt>
      <trkpt lat="45.93173386529088" lon="7.376741822808981">
        <ele>2221.7399999999998</ele>
        <time>2016-07-08T06:00:24Z</time>
      </trkpt>
      <trkpt lat="45.931808548048139" lon="7.376666218042374">
        <ele>2220.7800000000002</ele>
        <time>2016-07-08T06:00:33Z</time>
      </trkpt>
      <trkpt lat="45.931866802275181" lon="7.376569742336869">
        <ele>2220.3000000000002</ele>
        <time>2016-07-08T06:00:40Z</time>
      </trkpt>
      <trkpt lat="45.931977359578013" lon="7.37638508901">
        <ele>2218.8600000000001</ele>
        <time>2016-07-08T06:00:54Z</time>
      </trkpt>
      <trkpt lat="45.932013485580683" lon="7.376339072361589">
        <ele>2218.8600000000001</ele>
        <time>2016-07-08T06:01:03Z</time>
      </trkpt>
      <trkpt lat="45.932005438953638" lon="7.376356506720185">
        <ele>2218.8600000000001</ele>
        <time>2016-07-08T06:01:13Z</time>
      </trkpt>
      <trkpt lat="45.932007115334272" lon="7.376396907493472">
        <ele>2218.8600000000001</ele>
        <time>2016-07-08T06:01:24Z</time>
      </trkpt>
      <trkpt lat="45.931999571621418" lon="7.376381736248732">
        <ele>2218.3800000000001</ele>
        <time>2016-07-08T06:01:36Z</time>
      </trkpt>
      <trkpt lat="45.931999571621418" lon="7.376309148967266">
        <ele>2216.46</ele>
        <time>2016-07-08T06:01:45Z</time>
      </trkpt>
      <trkpt lat="45.931989764794707" lon="7.376276543363929">
        <ele>2214.0500000000002</ele>
        <time>2016-07-08T06:01:53Z</time>
      </trkpt>
      <trkpt lat="45.932048438116908" lon="7.376195574179292">
        <ele>2212.1300000000001</ele>
        <time>2016-07-08T06:02:03Z</time>
      </trkpt>
      <trkpt lat="45.932093784213066" lon="7.37610999494791">
        <ele>2210.21</ele>
        <time>2016-07-08T06:02:14Z</time>
      </trkpt>
      <trkpt lat="45.932131670415401" lon="7.37606406211853">
        <ele>2207.8099999999999</ele>
        <time>2016-07-08T06:02:23Z</time>
      </trkpt>
      <trkpt lat="45.932184979319572" lon="7.376021230593324">
        <ele>2205.8800000000001</ele>
        <time>2016-07-08T06:02:34Z</time>
      </trkpt>
      <trkpt lat="45.932155307382345" lon="7.375988624989986">
        <ele>2203.96</ele>
        <time>2016-07-08T06:02:42Z</time>
      </trkpt>
      <trkpt lat="45.932166874408722" lon="7.375904638320208">
        <ele>2201.5599999999999</ele>
        <time>2016-07-08T06:02:52Z</time>
      </trkpt>
      <trkpt lat="45.932129910215735" lon="7.375891478732228">
        <ele>2200.5900000000001</ele>
        <time>2016-07-08T06:02:57Z</time>
      </trkpt>
      <trkpt lat="45.932087497785687" lon="7.375903129577637">
        <ele>2199.6300000000001</ele>
        <time>2016-07-08T06:03:02Z</time>
      </trkpt>
      <trkpt lat="45.931985657662153" lon="7.375968089327216">
        <ele>2200.1100000000001</ele>
        <time>2016-07-08T06:03:14Z</time>
      </trkpt>
      <trkpt lat="45.931949699297547" lon="7.37595995888114">
        <ele>2200.1100000000001</ele>
        <time>2016-07-08T06:03:23Z</time>
      </trkpt>
      <trkpt lat="45.931953638792038" lon="7.375916372984648">
        <ele>2199.6300000000001</ele>
        <time>2016-07-08T06:03:26Z</time>
      </trkpt>
      <trkpt lat="45.931892199441791" lon="7.375861136242747">
        <ele>2199.6300000000001</ele>
        <time>2016-07-08T06:03:32Z</time>
      </trkpt>
      <trkpt lat="45.931838639080524" lon="7.375824004411697">
        <ele>2199.6300000000001</ele>
        <time>2016-07-08T06:03:37Z</time>
      </trkpt>
      <trkpt lat="45.93181156553328" lon="7.375714033842087">
        <ele>2200.1100000000001</ele>
        <time>2016-07-08T06:03:43Z</time>
      </trkpt>
      <trkpt lat="45.931810224428773" lon="7.37555930390954">
        <ele>2200.1100000000001</ele>
        <time>2016-07-08T06:03:53Z</time>
      </trkpt>
      <trkpt lat="45.931810894981027" lon="7.375496523454785">
        <ele>2201.0799999999999</ele>
        <time>2016-07-08T06:03:58Z</time>
      </trkpt>
      <trkpt lat="45.931804273277521" lon="7.375405747443438">
        <ele>2201.5599999999999</ele>
        <time>2016-07-08T06:04:05Z</time>
      </trkpt>
      <trkpt lat="45.931801255792379" lon="7.375238696113229">
        <ele>2202.04</ele>
        <time>2016-07-08T06:04:16Z</time>
      </trkpt>
      <trkpt lat="45.931800333783031" lon="7.375168120488524">
        <ele>2203</ele>
        <time>2016-07-08T06:04:21Z</time>
      </trkpt>
      <trkpt lat="45.931806452572346" lon="7.375023197382689">
        <ele>2203.48</ele>
        <time>2016-07-08T06:04:32Z</time>
      </trkpt>
      <trkpt lat="45.93180226162076" lon="7.374911634251475">
        <ele>2204.4400000000001</ele>
        <time>2016-07-08T06:04:41Z</time>
      </trkpt>
      <trkpt lat="45.93180569820106" lon="7.374813314527273">
        <ele>2205.4000000000001</ele>
        <time>2016-07-08T06:04:52Z</time>
      </trkpt>
      <trkpt lat="45.93179002404213" lon="7.374772075563669">
        <ele>2205.8800000000001</ele>
        <time>2016-07-08T06:05:04Z</time>
      </trkpt>
      <trkpt lat="45.93179052695632" lon="7.374731926247478">
        <ele>2205.8800000000001</ele>
        <time>2016-07-08T06:05:14Z</time>
      </trkpt>
      <trkpt lat="45.931807374581695" lon="7.374688927084208">
        <ele>2205.8800000000001</ele>
        <time>2016-07-08T06:05:22Z</time>
      </trkpt>
      <trkpt lat="45.931856241077185" lon="7.374627906829119">
        <ele>2206.3600000000001</ele>
        <time>2016-07-08T06:05:29Z</time>
      </trkpt>
      <trkpt lat="45.931903263553977" lon="7.374503938481212">
        <ele>2207.8099999999999</ele>
        <time>2016-07-08T06:05:39Z</time>
      </trkpt>
      <trkpt lat="45.931912818923593" lon="7.374483570456505">
        <ele>2208.29</ele>
        <time>2016-07-08T06:05:41Z</time>
      </trkpt>
      <trkpt lat="45.931925727054477" lon="7.374452389776707">
        <ele>2208.77</ele>
        <time>2016-07-08T06:05:44Z</time>
      </trkpt>
      <trkpt lat="45.931933606043458" lon="7.374428668990731">
        <ele>2208.29</ele>
        <time>2016-07-08T06:05:46Z</time>
      </trkpt>
      <trkpt lat="45.931966966018081" lon="7.374250972643495">
        <ele>2209.73</ele>
        <time>2016-07-08T06:05:58Z</time>
      </trkpt>
      <trkpt lat="45.932002672925591" lon="7.374158520251513">
        <ele>2210.6900000000001</ele>
        <time>2016-07-08T06:06:07Z</time>
      </trkpt>
      <trkpt lat="45.932051371783018" lon="7.374012004584074">
        <ele>2212.1300000000001</ele>
        <time>2016-07-08T06:06:19Z</time>
      </trkpt>
      <trkpt lat="45.932079199701548" lon="7.373878983780742">
        <ele>2212.1300000000001</ele>
        <time>2016-07-08T06:06:30Z</time>
      </trkpt>
      <trkpt lat="45.932111721485853" lon="7.373751662671566">
        <ele>2213.0900000000001</ele>
        <time>2016-07-08T06:06:40Z</time>
      </trkpt>
      <trkpt lat="45.932172071188688" lon="7.373641859740019">
        <ele>2214.0500000000002</ele>
        <time>2016-07-08T06:06:51Z</time>
      </trkpt>
      <trkpt lat="45.932220267131925" lon="7.373564997687936">
        <ele>2215.5</ele>
        <time>2016-07-08T06:07:01Z</time>
      </trkpt>
      <trkpt lat="45.93229042366147" lon="7.373497607186437">
        <ele>2216.46</ele>
        <time>2016-07-08T06:07:13Z</time>
      </trkpt>
      <trkpt lat="45.932328728958964" lon="7.373419487848878">
        <ele>2216.9400000000001</ele>
        <time>2016-07-08T06:07:23Z</time>
      </trkpt>
      <trkpt lat="45.932385222986341" lon="7.373324185609818">
        <ele>2217.9000000000001</ele>
        <time>2016-07-08T06:07:34Z</time>
      </trkpt>
      <trkpt lat="45.932449344545603" lon="7.373221339657903">
        <ele>2218.8600000000001</ele>
        <time>2016-07-08T06:07:45Z</time>
      </trkpt>
      <trkpt lat="45.932509191334248" lon="7.37312838435173">
        <ele>2219.8200000000002</ele>
        <time>2016-07-08T06:07:56Z</time>
      </trkpt>
      <trkpt lat="45.932557890191674" lon="7.373026963323355">
        <ele>2220.7800000000002</ele>
        <time>2016-07-08T06:08:06Z</time>
      </trkpt>
      <trkpt lat="45.932563757523894" lon="7.372906012460589">
        <ele>2222.2199999999998</ele>
        <time>2016-07-08T06:08:18Z</time>
      </trkpt>
      <trkpt lat="45.932546071708202" lon="7.37283761613071">
        <ele>2222.71</ele>
        <time>2016-07-08T06:08:29Z</time>
      </trkpt>
      <trkpt lat="45.932538779452443" lon="7.372839543968439">
        <ele>2223.1900000000001</ele>
        <time>2016-07-08T06:08:38Z</time>
      </trkpt>
      <trkpt lat="45.932536432519555" lon="7.372840633615851">
        <ele>2223.1900000000001</ele>
        <time>2016-07-08T06:08:39Z</time>
      </trkpt>
      <trkpt lat="45.932545065879822" lon="7.37283275462687">
        <ele>2222.2199999999998</ele>
        <time>2016-07-08T06:08:47Z</time>
      </trkpt>
      <trkpt lat="45.932555040344596" lon="7.37285865470767">
        <ele>2222.2199999999998</ele>
        <time>2016-07-08T06:09:04Z</time>
      </trkpt>
      <trkpt lat="45.932554788887501" lon="7.372828144580126">
        <ele>2222.2199999999998</ele>
        <time>2016-07-08T06:09:17Z</time>
      </trkpt>
      <trkpt lat="45.932541796937585" lon="7.372798388823867">
        <ele>2222.2199999999998</ele>
        <time>2016-07-08T06:09:40Z</time>
      </trkpt>
      <trkpt lat="45.932531487196684" lon="7.372809704393148">
        <ele>2222.2199999999998</ele>
        <time>2016-07-08T06:10:02Z</time>
      </trkpt>
      <trkpt lat="45.93256208114326" lon="7.372831581160426">
        <ele>2221.7399999999998</ele>
        <time>2016-07-08T06:10:20Z</time>
      </trkpt>
      <trkpt lat="45.932554202154279" lon="7.372840130701661">
        <ele>2221.7399999999998</ele>
        <time>2016-07-08T06:10:40Z</time>
      </trkpt>
      <trkpt lat="45.932576833292842" lon="7.372855050489306">
        <ele>2221.7399999999998</ele>
        <time>2016-07-08T06:11:01Z</time>
      </trkpt>
      <trkpt lat="45.932576581835747" lon="7.372855972498655">
        <ele>2221.7399999999998</ele>
        <time>2016-07-08T06:11:26Z</time>
      </trkpt>
      <trkpt lat="45.932603990659118" lon="7.372852955013514">
        <ele>2221.7399999999998</ele>
        <time>2016-07-08T06:11:51Z</time>
      </trkpt>
      <trkpt lat="45.932589741423726" lon="7.37285471521318">
        <ele>2221.7399999999998</ele>
        <time>2016-07-08T06:12:12Z</time>
      </trkpt>
      <trkpt lat="45.93258848413825" lon="7.372846752405167">
        <ele>2221.2600000000002</ele>
        <time>2016-07-08T06:12:39Z</time>
      </trkpt>
      <trkpt lat="45.932560991495848" lon="7.372870724648237">
        <ele>2221.2600000000002</ele>
        <time>2016-07-08T06:13:02Z</time>
      </trkpt>
      <trkpt lat="45.932544898241758" lon="7.372840130701661">
        <ele>2221.7399999999998</ele>
        <time>2016-07-08T06:13:13Z</time>
      </trkpt>
      <trkpt lat="45.932548502460122" lon="7.372813476249576">
        <ele>2221.7399999999998</ele>
        <time>2016-07-08T06:13:23Z</time>
      </trkpt>
      <trkpt lat="45.93255914747715" lon="7.372813392430544">
        <ele>2221.7399999999998</ele>
        <time>2016-07-08T06:13:33Z</time>
      </trkpt>
      <trkpt lat="45.932560991495848" lon="7.372839292511344">
        <ele>2221.7399999999998</ele>
        <time>2016-07-08T06:13:37Z</time>
      </trkpt>
      <trkpt lat="45.932502318173647" lon="7.372887572273612">
        <ele>2222.2199999999998</ele>
        <time>2016-07-08T06:13:43Z</time>
      </trkpt>
      <trkpt lat="45.932438783347607" lon="7.372950268909335">
        <ele>2223.6700000000001</ele>
        <time>2016-07-08T06:13:51Z</time>
      </trkpt>
      <trkpt lat="45.932414978742599" lon="7.372996034100652">
        <ele>2224.1500000000001</ele>
        <time>2016-07-08T06:13:56Z</time>
      </trkpt>
      <trkpt lat="45.932360161095858" lon="7.373070465400815">
        <ele>2225.5900000000001</ele>
        <time>2016-07-08T06:14:06Z</time>
      </trkpt>
      <trkpt lat="45.932311629876494" lon="7.373088821768761">
        <ele>2227.0300000000002</ele>
        <time>2016-07-08T06:14:12Z</time>
      </trkpt>
      <trkpt lat="45.932261170819402" lon="7.3731127101928">
        <ele>2227.5100000000002</ele>
        <time>2016-07-08T06:14:17Z</time>
      </trkpt>
      <trkpt lat="45.932171149179339" lon="7.373177334666252">
        <ele>2228.9499999999998</ele>
        <time>2016-07-08T06:14:28Z</time>
      </trkpt>
      <trkpt lat="45.93210325576365" lon="7.373232906684279">
        <ele>2229.9200000000001</ele>
        <time>2016-07-08T06:14:37Z</time>
      </trkpt>
      <trkpt lat="45.93206369318068" lon="7.373245898634195">
        <ele>2230.8800000000001</ele>
        <time>2016-07-08T06:14:42Z</time>
      </trkpt>
      <trkpt lat="45.931995296850801" lon="7.373291244730353">
        <ele>2232.3200000000002</ele>
        <time>2016-07-08T06:14:51Z</time>
      </trkpt>
      <trkpt lat="45.931923128664494" lon="7.373300967738032">
        <ele>2233.2800000000002</ele>
        <time>2016-07-08T06:15:00Z</time>
      </trkpt>
      <trkpt lat="45.931839225813746" lon="7.3732905741781">
        <ele>2234.2399999999998</ele>
        <time>2016-07-08T06:15:11Z</time>
      </trkpt>
      <trkpt lat="45.931772841140628" lon="7.373299626633525">
        <ele>2234.7199999999998</ele>
        <time>2016-07-08T06:15:17Z</time>
      </trkpt>
      <trkpt lat="45.931704360991716" lon="7.373334411531687">
        <ele>2236.1599999999999</ele>
        <time>2016-07-08T06:15:26Z</time>
      </trkpt>
      <trkpt lat="45.931626493111253" lon="7.373384283855557">
        <ele>2237.1300000000001</ele>
        <time>2016-07-08T06:15:36Z</time>
      </trkpt>
      <trkpt lat="45.931565808132291" lon="7.373412111774087">
        <ele>2238.5700000000002</ele>
        <time>2016-07-08T06:15:45Z</time>
      </trkpt>
      <trkpt lat="45.931499507278204" lon="7.373446896672249">
        <ele>2239.5300000000002</ele>
        <time>2016-07-08T06:15:54Z</time>
      </trkpt>
      <trkpt lat="45.931416107341647" lon="7.373485872521997">
        <ele>2240.9699999999998</ele>
        <time>2016-07-08T06:16:05Z</time>
      </trkpt>
      <trkpt lat="45.93134293332696" lon="7.373512862250209">
        <ele>2241.4499999999998</ele>
        <time>2016-07-08T06:16:15Z</time>
      </trkpt>
      <trkpt lat="45.931265065446496" lon="7.373540019616485">
        <ele>2242.8899999999999</ele>
        <time>2016-07-08T06:16:24Z</time>
      </trkpt>
      <trkpt lat="45.931194573640823" lon="7.373592322692275">
        <ele>2244.3299999999999</ele>
        <time>2016-07-08T06:16:33Z</time>
      </trkpt>
      <trkpt lat="45.931154508143663" lon="7.373601626604796">
        <ele>2244.8200000000002</ele>
        <time>2016-07-08T06:16:38Z</time>
      </trkpt>
      <trkpt lat="45.931100361049175" lon="7.373631969094276">
        <ele>2245.7800000000002</ele>
        <time>2016-07-08T06:16:47Z</time>
      </trkpt>
      <trkpt lat="45.931007992476225" lon="7.373717715963721">
        <ele>2247.6999999999998</ele>
        <time>2016-07-08T06:17:00Z</time>
      </trkpt>
      <trkpt lat="45.930948480963707" lon="7.373750321567059">
        <ele>2248.6599999999999</ele>
        <time>2016-07-08T06:17:07Z</time>
      </trkpt>
      <trkpt lat="45.930918222293258" lon="7.373768258839846">
        <ele>2249.1399999999999</ele>
        <time>2016-07-08T06:17:11Z</time>
      </trkpt>
      <trkpt lat="45.930853011086583" lon="7.373788375407457">
        <ele>2250.5799999999999</ele>
        <time>2016-07-08T06:17:20Z</time>
      </trkpt>
      <trkpt lat="45.930771538987756" lon="7.373828859999776">
        <ele>2251.54</ele>
        <time>2016-07-08T06:17:30Z</time>
      </trkpt>
      <trkpt lat="45.930752009153366" lon="7.373837577179074">
        <ele>2251.54</ele>
        <time>2016-07-08T06:17:32Z</time>
      </trkpt>
      <trkpt lat="45.930679421871901" lon="7.373874625191093">
        <ele>2252.0300000000002</ele>
        <time>2016-07-08T06:17:40Z</time>
      </trkpt>
      <trkpt lat="45.930664418265224" lon="7.373939752578735">
        <ele>2252.9899999999998</ele>
        <time>2016-07-08T06:17:49Z</time>
      </trkpt>
      <trkpt lat="45.930631561204791" lon="7.374017536640167">
        <ele>2253.9499999999998</ele>
        <time>2016-07-08T06:17:59Z</time>
      </trkpt>
      <trkpt lat="45.930605744943023" lon="7.374082999303937">
        <ele>2254.4299999999998</ele>
        <time>2016-07-08T06:18:10Z</time>
      </trkpt>
      <trkpt lat="45.930583029985428" lon="7.374082831665874">
        <ele>2254.9099999999999</ele>
        <time>2016-07-08T06:18:22Z</time>
      </trkpt>
      <trkpt lat="45.930582359433174" lon="7.374070677906275">
        <ele>2255.8699999999999</ele>
        <time>2016-07-08T06:18:36Z</time>
      </trkpt>
      <trkpt lat="45.930583449080586" lon="7.374072354286909">
        <ele>2255.3899999999999</ele>
        <time>2016-07-08T06:18:53Z</time>
      </trkpt>
      <trkpt lat="45.930577078834176" lon="7.374053495004773">
        <ele>2255.3899999999999</ele>
        <time>2016-07-08T06:19:09Z</time>
      </trkpt>
      <trkpt lat="45.930555034428835" lon="7.374112671241164">
        <ele>2255.3899999999999</ele>
        <time>2016-07-08T06:19:14Z</time>
      </trkpt>
      <trkpt lat="45.930512538179755" lon="7.374152317643166">
        <ele>2256.3499999999999</ele>
        <time>2016-07-08T06:19:19Z</time>
      </trkpt>
      <trkpt lat="45.930460318922997" lon="7.374192550778389">
        <ele>2256.8299999999999</ele>
        <time>2016-07-08T06:19:25Z</time>
      </trkpt>
      <trkpt lat="45.930412961170077" lon="7.374197412282229">
        <ele>2257.3099999999999</ele>
        <time>2016-07-08T06:19:30Z</time>
      </trkpt>
      <trkpt lat="45.930389743298292" lon="7.374215181916952">
        <ele>2257.79</ele>
        <time>2016-07-08T06:19:33Z</time>
      </trkpt>
      <trkpt lat="45.930294105783105" lon="7.374253068119288">
        <ele>2258.27</ele>
        <time>2016-07-08T06:19:45Z</time>
      </trkpt>
      <trkpt lat="45.930229481309652" lon="7.374302940443158">
        <ele>2258.75</ele>
        <time>2016-07-08T06:19:55Z</time>
      </trkpt>
      <trkpt lat="45.930186901241541" lon="7.374341329559684">
        <ele>2259.7199999999998</ele>
        <time>2016-07-08T06:20:01Z</time>
      </trkpt>
      <trkpt lat="45.930112134665251" lon="7.374365134164691">
        <ele>2260.1999999999998</ele>
        <time>2016-07-08T06:20:11Z</time>
      </trkpt>
      <trkpt lat="45.930063771083951" lon="7.374401092529297">
        <ele>2260.6799999999998</ele>
        <time>2016-07-08T06:20:18Z</time>
      </trkpt>
      <trkpt lat="45.929994033649564" lon="7.374461693689227">
        <ele>2261.1599999999999</ele>
        <time>2016-07-08T06:20:27Z</time>
      </trkpt>
      <trkpt lat="45.929944077506661" lon="7.374525899067521">
        <ele>2262.1199999999999</ele>
        <time>2016-07-08T06:20:36Z</time>
      </trkpt>
      <trkpt lat="45.929879788309336" lon="7.374625559896231">
        <ele>2264.04</ele>
        <time>2016-07-08T06:20:46Z</time>
      </trkpt>
      <trkpt lat="45.929840058088303" lon="7.374669061973691">
        <ele>2260.6799999999998</ele>
        <time>2016-07-08T06:20:51Z</time>
      </trkpt>
      <trkpt lat="45.92983553186059" lon="7.374685239046812">
        <ele>2264.52</ele>
        <time>2016-07-08T06:20:52Z</time>
      </trkpt>
      <trkpt lat="45.929833687841892" lon="7.374698985368013">
        <ele>2262.1199999999999</ele>
        <time>2016-07-08T06:20:53Z</time>
      </trkpt>
      <trkpt lat="45.929833939298987" lon="7.374930828809738">
        <ele>2262.1199999999999</ele>
        <time>2016-07-08T06:21:09Z</time>
      </trkpt>
      <trkpt lat="45.929820192977786" lon="7.375120678916574">
        <ele>2262.1199999999999</ele>
        <time>2016-07-08T06:21:21Z</time>
      </trkpt>
      <trkpt lat="45.929762609302998" lon="7.375262919813395">
        <ele>2263.0799999999999</ele>
        <time>2016-07-08T06:21:32Z</time>
      </trkpt>
      <trkpt lat="45.929711144417524" lon="7.375359479337931">
        <ele>2264.04</ele>
        <time>2016-07-08T06:21:42Z</time>
      </trkpt>
      <trkpt lat="45.929661691188812" lon="7.375471629202366">
        <ele>2265</ele>
        <time>2016-07-08T06:21:52Z</time>
      </trkpt>
      <trkpt lat="45.929588517174125" lon="7.37557590007782">
        <ele>2265</ele>
        <time>2016-07-08T06:22:03Z</time>
      </trkpt>
      <trkpt lat="45.929535962641239" lon="7.375647313892841">
        <ele>2266.4499999999998</ele>
        <time>2016-07-08T06:22:11Z</time>
      </trkpt>
      <trkpt lat="45.92948516830802" lon="7.375765666365624">
        <ele>2266.4499999999998</ele>
        <time>2016-07-08T06:22:21Z</time>
      </trkpt>
      <trkpt lat="45.929433116689324" lon="7.375757033005357">
        <ele>2267.4099999999999</ele>
        <time>2016-07-08T06:22:28Z</time>
      </trkpt>
      <trkpt lat="45.929352650418878" lon="7.37571076489985">
        <ele>2268.8499999999999</ele>
        <time>2016-07-08T06:22:38Z</time>
      </trkpt>
      <trkpt lat="45.929290540516376" lon="7.375697689130902">
        <ele>2270.29</ele>
        <time>2016-07-08T06:22:47Z</time>
      </trkpt>
      <trkpt lat="45.929207811132073" lon="7.375663407146931">
        <ele>2271.25</ele>
        <time>2016-07-08T06:22:58Z</time>
      </trkpt>
      <trkpt lat="45.929143689572811" lon="7.37566240131855">
        <ele>2273.1700000000001</ele>
        <time>2016-07-08T06:23:09Z</time>
      </trkpt>
      <trkpt lat="45.929077137261629" lon="7.375692911446095">
        <ele>2275.0999999999999</ele>
        <time>2016-07-08T06:23:20Z</time>
      </trkpt>
      <trkpt lat="45.929046040400863" lon="7.375795673578978">
        <ele>2276.54</ele>
        <time>2016-07-08T06:23:32Z</time>
      </trkpt>
      <trkpt lat="45.929060541093349" lon="7.375885779038072">
        <ele>2278.46</ele>
        <time>2016-07-08T06:23:44Z</time>
      </trkpt>
      <trkpt lat="45.929034305736423" lon="7.375947721302509">
        <ele>2278.9400000000001</ele>
        <time>2016-07-08T06:23:54Z</time>
      </trkpt>
      <trkpt lat="45.928980577737093" lon="7.376029025763273">
        <ele>2280.8699999999999</ele>
        <time>2016-07-08T06:24:05Z</time>
      </trkpt>
      <trkpt lat="45.928968088701367" lon="7.376094236969948">
        <ele>2281.8299999999999</ele>
        <time>2016-07-08T06:24:11Z</time>
      </trkpt>
      <trkpt lat="45.928953252732754" lon="7.376113180071116">
        <ele>2282.3099999999999</ele>
        <time>2016-07-08T06:24:21Z</time>
      </trkpt>
      <trkpt lat="45.928923077881336" lon="7.376162381842732">
        <ele>2282.3099999999999</ele>
        <time>2016-07-08T06:24:38Z</time>
      </trkpt>
      <trkpt lat="45.928868427872658" lon="7.37624485976994">
        <ele>2282.79</ele>
        <time>2016-07-08T06:24:46Z</time>
      </trkpt>
      <trkpt lat="45.928774802014232" lon="7.376343179494143">
        <ele>2283.27</ele>
        <time>2016-07-08T06:24:58Z</time>
      </trkpt>
      <trkpt lat="45.928760301321745" lon="7.376344604417682">
        <ele>2283.75</ele>
        <time>2016-07-08T06:25:00Z</time>
      </trkpt>
      <trkpt lat="45.928743872791529" lon="7.376351561397314">
        <ele>2283.75</ele>
        <time>2016-07-08T06:25:02Z</time>
      </trkpt>
      <trkpt lat="45.928661311045289" lon="7.376418868079782">
        <ele>2283.75</ele>
        <time>2016-07-08T06:25:13Z</time>
      </trkpt>
      <trkpt lat="45.928658125922084" lon="7.376422639936209">
        <ele>2283.75</ele>
        <time>2016-07-08T06:25:14Z</time>
      </trkpt>
      <trkpt lat="45.928627364337444" lon="7.376437224447727">
        <ele>2284.23</ele>
        <time>2016-07-08T06:25:18Z</time>
      </trkpt>
      <trkpt lat="45.928558129817247" lon="7.376464968547225">
        <ele>2285.1900000000001</ele>
        <time>2016-07-08T06:25:28Z</time>
      </trkpt>
      <trkpt lat="45.928495684638619" lon="7.376530431210995">
        <ele>2286.1500000000001</ele>
        <time>2016-07-08T06:25:39Z</time>
      </trkpt>
      <trkpt lat="45.928443800657988" lon="7.376589607447386">
        <ele>2287.5900000000001</ele>
        <time>2016-07-08T06:25:50Z</time>
      </trkpt>
      <trkpt lat="45.928383115679026" lon="7.376589607447386">
        <ele>2289.52</ele>
        <time>2016-07-08T06:26:01Z</time>
      </trkpt>
      <trkpt lat="45.928366351872683" lon="7.376589775085449">
        <ele>2290.48</ele>
        <time>2016-07-08T06:26:05Z</time>
      </trkpt>
      <trkpt lat="45.9283188264817" lon="7.376649873331189">
        <ele>2291.4400000000001</ele>
        <time>2016-07-08T06:26:16Z</time>
      </trkpt>
      <trkpt lat="45.928263422101736" lon="7.376650292426348">
        <ele>2293.8400000000001</ele>
        <time>2016-07-08T06:26:28Z</time>
      </trkpt>
      <trkpt lat="45.928214974701405" lon="7.376674935221672">
        <ele>2295.77</ele>
        <time>2016-07-08T06:26:39Z</time>
      </trkpt>
      <trkpt lat="45.928177339956164" lon="7.376697063446045">
        <ele>2297.21</ele>
        <time>2016-07-08T06:26:50Z</time>
      </trkpt>
      <trkpt lat="45.928124953061342" lon="7.376733189448714">
        <ele>2299.1300000000001</ele>
        <time>2016-07-08T06:27:01Z</time>
      </trkpt>
      <trkpt lat="45.928062172606587" lon="7.37675934098661">
        <ele>2300.0900000000001</ele>
        <time>2016-07-08T06:27:11Z</time>
      </trkpt>
      <trkpt lat="45.928006768226624" lon="7.376781720668078">
        <ele>2302.0100000000002</ele>
        <time>2016-07-08T06:27:21Z</time>
      </trkpt>
      <trkpt lat="45.927957063540816" lon="7.3768082074821">
        <ele>2303.46</ele>
        <time>2016-07-08T06:27:32Z</time>
      </trkpt>
      <trkpt lat="45.927901910617948" lon="7.376839639618993">
        <ele>2304.4200000000001</ele>
        <time>2016-07-08T06:27:42Z</time>
      </trkpt>
      <trkpt lat="45.927870729938149" lon="7.376855816692114">
        <ele>2305.3800000000001</ele>
        <time>2016-07-08T06:27:50Z</time>
      </trkpt>
      <trkpt lat="45.927819851785898" lon="7.376811560243368">
        <ele>2307.3000000000002</ele>
        <time>2016-07-08T06:28:00Z</time>
      </trkpt>
      <trkpt lat="45.92777987010777" lon="7.376835281029344">
        <ele>2308.2600000000002</ele>
        <time>2016-07-08T06:28:10Z</time>
      </trkpt>
      <trkpt lat="45.927747935056686" lon="7.376872496679425">
        <ele>2310.1900000000001</ele>
        <time>2016-07-08T06:28:21Z</time>
      </trkpt>
      <trkpt lat="45.927713653072715" lon="7.376906611025333">
        <ele>2311.6300000000001</ele>
        <time>2016-07-08T06:28:31Z</time>
      </trkpt>
      <trkpt lat="45.927634444087744" lon="7.376942904666066">
        <ele>2313.5500000000002</ele>
        <time>2016-07-08T06:28:44Z</time>
      </trkpt>
      <trkpt lat="45.92756730504334" lon="7.376934941858053">
        <ele>2314.9899999999998</ele>
        <time>2016-07-08T06:28:56Z</time>
      </trkpt>
      <trkpt lat="45.927511481568217" lon="7.376914154738188">
        <ele>2316.9099999999999</ele>
        <time>2016-07-08T06:29:08Z</time>
      </trkpt>
      <trkpt lat="45.92746177688241" lon="7.37693284638226">
        <ele>2318.3600000000001</ele>
        <time>2016-07-08T06:29:19Z</time>
      </trkpt>
      <trkpt lat="45.927431182935834" lon="7.376929745078087">
        <ele>2319.8000000000002</ele>
        <time>2016-07-08T06:29:28Z</time>
      </trkpt>
      <trkpt lat="45.927378963679075" lon="7.376927481964231">
        <ele>2321.7199999999998</ele>
        <time>2016-07-08T06:29:39Z</time>
      </trkpt>
      <trkpt lat="45.927338059991598" lon="7.376959584653378">
        <ele>2323.1599999999999</ele>
        <time>2016-07-08T06:29:52Z</time>
      </trkpt>
      <trkpt lat="45.927306208759546" lon="7.376963440328836">
        <ele>2324.1199999999999</ele>
        <time>2016-07-08T06:30:01Z</time>
      </trkpt>
      <trkpt lat="45.927274692803621" lon="7.376984311267734">
        <ele>2325.0900000000001</ele>
        <time>2016-07-08T06:30:11Z</time>
      </trkpt>
      <trkpt lat="45.927207637578249" lon="7.376987580209971">
        <ele>2326.5300000000002</ele>
        <time>2016-07-08T06:30:23Z</time>
      </trkpt>
      <trkpt lat="45.927174361422658" lon="7.376974504441023">
        <ele>2327.0100000000002</ele>
        <time>2016-07-08T06:30:28Z</time>
      </trkpt>
      <trkpt lat="45.927130356431007" lon="7.376952627673745">
        <ele>2327.9699999999998</ele>
        <time>2016-07-08T06:30:38Z</time>
      </trkpt>
      <trkpt lat="45.927093392238021" lon="7.376959668472409">
        <ele>2329.4099999999999</ele>
        <time>2016-07-08T06:30:50Z</time>
      </trkpt>
      <trkpt lat="45.927077969536185" lon="7.376971989870071">
        <ele>2329.8899999999999</ele>
        <time>2016-07-08T06:30:55Z</time>
      </trkpt>
      <trkpt lat="45.927027845755219" lon="7.377023538574576">
        <ele>2331.3299999999999</ele>
        <time>2016-07-08T06:31:06Z</time>
      </trkpt>
      <trkpt lat="45.927009489387274" lon="7.377005014568567">
        <ele>2332.3000000000002</ele>
        <time>2016-07-08T06:31:16Z</time>
      </trkpt>
      <trkpt lat="45.927024744451046" lon="7.376997973769903">
        <ele>2330.8499999999999</ele>
        <time>2016-07-08T06:31:24Z</time>
      </trkpt>
      <trkpt lat="45.927013512700796" lon="7.376973750069737">
        <ele>2330.8499999999999</ele>
        <time>2016-07-08T06:31:41Z</time>
      </trkpt>
      <trkpt lat="45.927005046978593" lon="7.376980371773243">
        <ele>2330.8499999999999</ele>
        <time>2016-07-08T06:31:57Z</time>
      </trkpt>
      <trkpt lat="45.927006136626005" lon="7.376992944628">
        <ele>2331.3299999999999</ele>
        <time>2016-07-08T06:32:18Z</time>
      </trkpt>
      <trkpt lat="45.927004879340529" lon="7.376985568553209">
        <ele>2331.3299999999999</ele>
        <time>2016-07-08T06:32:28Z</time>
      </trkpt>
      <trkpt lat="45.927009070292115" lon="7.376978360116482">
        <ele>2331.3299999999999</ele>
        <time>2016-07-08T06:32:44Z</time>
      </trkpt>
      <trkpt lat="45.927009237930179" lon="7.376971151679754">
        <ele>2330.8499999999999</ele>
        <time>2016-07-08T06:32:58Z</time>
      </trkpt>
      <trkpt lat="45.927005214616656" lon="7.376953801140189">
        <ele>2332.3000000000002</ele>
        <time>2016-07-08T06:33:09Z</time>
      </trkpt>
      <trkpt lat="45.926991384476423" lon="7.376930583268404">
        <ele>2333.2600000000002</ele>
        <time>2016-07-08T06:33:18Z</time>
      </trkpt>
      <trkpt lat="45.926978057250381" lon="7.376908203586936">
        <ele>2334.6999999999998</ele>
        <time>2016-07-08T06:33:27Z</time>
      </trkpt>
      <trkpt lat="45.926975710317492" lon="7.376850871369243">
        <ele>2336.1399999999999</ele>
        <time>2016-07-08T06:33:38Z</time>
      </trkpt>
      <trkpt lat="45.927018038928509" lon="7.376752300187945">
        <ele>2338.54</ele>
        <time>2016-07-08T06:33:50Z</time>
      </trkpt>
      <trkpt lat="45.927053829655051" lon="7.376669403165579">
        <ele>2339.9899999999998</ele>
        <time>2016-07-08T06:34:01Z</time>
      </trkpt>
      <trkpt lat="45.927099762484431" lon="7.376587679609656">
        <ele>2340.9499999999998</ele>
        <time>2016-07-08T06:34:11Z</time>
      </trkpt>
      <trkpt lat="45.927125159651041" lon="7.376540321856737">
        <ele>2342.3899999999999</ele>
        <time>2016-07-08T06:34:21Z</time>
      </trkpt>
      <trkpt lat="45.927173187956214" lon="7.376470165327191">
        <ele>2344.3099999999999</ele>
        <time>2016-07-08T06:34:31Z</time>
      </trkpt>
      <trkpt lat="45.927194897085428" lon="7.376375617459416">
        <ele>2346.23</ele>
        <time>2016-07-08T06:34:45Z</time>
      </trkpt>
      <trkpt lat="45.927252061665058" lon="7.376315016299486">
        <ele>2347.6799999999998</ele>
        <time>2016-07-08T06:34:56Z</time>
      </trkpt>
      <trkpt lat="45.927285421639681" lon="7.376235388219357">
        <ele>2349.1199999999999</ele>
        <time>2016-07-08T06:35:07Z</time>
      </trkpt>
      <trkpt lat="45.92729514464736" lon="7.37615441903472">
        <ele>2351.52</ele>
        <time>2016-07-08T06:35:18Z</time>
      </trkpt>
      <trkpt lat="45.927333952859044" lon="7.376048136502504">
        <ele>2353.9299999999998</ele>
        <time>2016-07-08T06:35:32Z</time>
      </trkpt>
      <trkpt lat="45.927346190437675" lon="7.376004634425044">
        <ele>2354.4099999999999</ele>
        <time>2016-07-08T06:35:42Z</time>
      </trkpt>
      <trkpt lat="45.92737921513617" lon="7.375921150669456">
        <ele>2356.3299999999999</ele>
        <time>2016-07-08T06:35:53Z</time>
      </trkpt>
      <trkpt lat="45.927406121045351" lon="7.375860130414367">
        <ele>2357.29</ele>
        <time>2016-07-08T06:36:04Z</time>
      </trkpt>
      <trkpt lat="45.927421292290092" lon="7.37581386230886">
        <ele>2357.77</ele>
        <time>2016-07-08T06:36:17Z</time>
      </trkpt>
      <trkpt lat="45.927441827952862" lon="7.375728450715542">
        <ele>2358.73</ele>
        <time>2016-07-08T06:36:29Z</time>
      </trkpt>
      <trkpt lat="45.927494214847684" lon="7.375630382448435">
        <ele>2359.6900000000001</ele>
        <time>2016-07-08T06:36:39Z</time>
      </trkpt>
      <trkpt lat="45.927517265081406" lon="7.375595346093178">
        <ele>2360.1700000000001</ele>
        <time>2016-07-08T06:36:43Z</time>
      </trkpt>
      <trkpt lat="45.927543500438333" lon="7.375531559810042">
        <ele>2360.6500000000001</ele>
        <time>2016-07-08T06:36:48Z</time>
      </trkpt>
      <trkpt lat="45.927540399134159" lon="7.375499792397022">
        <ele>2360.6500000000001</ele>
        <time>2016-07-08T06:36:51Z</time>
      </trkpt>
      <trkpt lat="45.927585074678063" lon="7.375394096598029">
        <ele>2361.6199999999999</ele>
        <time>2016-07-08T06:37:01Z</time>
      </trkpt>
      <trkpt lat="45.927632264792919" lon="7.375317569822073">
        <ele>2363.54</ele>
        <time>2016-07-08T06:37:11Z</time>
      </trkpt>
      <trkpt lat="45.927666630595922" lon="7.375226458534598">
        <ele>2365.46</ele>
        <time>2016-07-08T06:37:24Z</time>
      </trkpt>
      <trkpt lat="45.927691021934152" lon="7.375149261206389">
        <ele>2367.3800000000001</ele>
        <time>2016-07-08T06:37:34Z</time>
      </trkpt>
      <trkpt lat="45.927726561203599" lon="7.375067453831434">
        <ele>2369.3099999999999</ele>
        <time>2016-07-08T06:37:48Z</time>
      </trkpt>
      <trkpt lat="45.927768219262362" lon="7.374977096915245">
        <ele>2370.75</ele>
        <time>2016-07-08T06:37:59Z</time>
      </trkpt>
      <trkpt lat="45.927797388285398" lon="7.37493921071291">
        <ele>2371.71</ele>
        <time>2016-07-08T06:38:08Z</time>
      </trkpt>
      <trkpt lat="45.927827982231975" lon="7.374912472441793">
        <ele>2372.1900000000001</ele>
        <time>2016-07-08T06:38:14Z</time>
      </trkpt>
      <trkpt lat="45.927891097962856" lon="7.374796634539962">
        <ele>2373.1500000000001</ele>
        <time>2016-07-08T06:38:27Z</time>
      </trkpt>
      <trkpt lat="45.927895875647664" lon="7.374725053086877">
        <ele>2375.0700000000002</ele>
        <time>2016-07-08T06:38:39Z</time>
      </trkpt>
      <trkpt lat="45.927940299734473" lon="7.374679874628782">
        <ele>2377.48</ele>
        <time>2016-07-08T06:38:52Z</time>
      </trkpt>
      <trkpt lat="45.927935019135475" lon="7.374621704220772">
        <ele>2378.4400000000001</ele>
        <time>2016-07-08T06:39:04Z</time>
      </trkpt>
      <trkpt lat="45.927954548969865" lon="7.374531934037805">
        <ele>2380.8400000000001</ele>
        <time>2016-07-08T06:39:15Z</time>
      </trkpt>
      <trkpt lat="45.927997129037976" lon="7.374459933489561">
        <ele>2382.7600000000002</ele>
        <time>2016-07-08T06:39:27Z</time>
      </trkpt>
      <trkpt lat="45.928000565618277" lon="7.374378377571702">
        <ele>2384.21</ele>
        <time>2016-07-08T06:39:38Z</time>
      </trkpt>
      <trkpt lat="45.927979359403253" lon="7.374357422813773">
        <ele>2384.6900000000001</ele>
        <time>2016-07-08T06:39:48Z</time>
      </trkpt>
      <trkpt lat="45.927991848438978" lon="7.374337054789066">
        <ele>2384.6900000000001</ele>
        <time>2016-07-08T06:40:06Z</time>
      </trkpt>
      <trkpt lat="45.92797776684165" lon="7.374301347881556">
        <ele>2385.1700000000001</ele>
        <time>2016-07-08T06:40:17Z</time>
      </trkpt>
      <trkpt lat="45.927972486242652" lon="7.374302856624126">
        <ele>2385.6500000000001</ele>
        <time>2016-07-08T06:40:39Z</time>
      </trkpt>
      <trkpt lat="45.927994698286057" lon="7.374232783913612">
        <ele>2386.1300000000001</ele>
        <time>2016-07-08T06:40:49Z</time>
      </trkpt>
      <trkpt lat="45.928000565618277" lon="7.374230017885566">
        <ele>2385.1700000000001</ele>
        <time>2016-07-08T06:41:01Z</time>
      </trkpt>
      <trkpt lat="45.928003750741482" lon="7.374265054240823">
        <ele>2385.1700000000001</ele>
        <time>2016-07-08T06:41:16Z</time>
      </trkpt>
      <trkpt lat="45.928004002198577" lon="7.374248122796416">
        <ele>2384.6900000000001</ele>
        <time>2016-07-08T06:41:26Z</time>
      </trkpt>
      <trkpt lat="45.927996290847659" lon="7.374246865510941">
        <ele>2385.1700000000001</ele>
        <time>2016-07-08T06:41:39Z</time>
      </trkpt>
      <trkpt lat="45.928004672750831" lon="7.374249044805765">
        <ele>2385.1700000000001</ele>
        <time>2016-07-08T06:41:57Z</time>
      </trkpt>
      <trkpt lat="45.928009953349829" lon="7.37423705868423">
        <ele>2385.1700000000001</ele>
        <time>2016-07-08T06:42:07Z</time>
      </trkpt>
      <trkpt lat="45.928010204806924" lon="7.37423068843782">
        <ele>2385.1700000000001</ele>
        <time>2016-07-08T06:42:30Z</time>
      </trkpt>
      <trkpt lat="45.927995452657342" lon="7.374239657074213">
        <ele>2385.6500000000001</ele>
        <time>2016-07-08T06:42:48Z</time>
      </trkpt>
      <trkpt lat="45.928001655265689" lon="7.374223480001092">
        <ele>2386.1300000000001</ele>
        <time>2016-07-08T06:43:04Z</time>
      </trkpt>
      <trkpt lat="45.928003247827291" lon="7.374233286827803">
        <ele>2386.1300000000001</ele>
        <time>2016-07-08T06:43:13Z</time>
      </trkpt>
      <trkpt lat="45.928000649437308" lon="7.37421216443181">
        <ele>2386.6100000000001</ele>
        <time>2016-07-08T06:43:25Z</time>
      </trkpt>
      <trkpt lat="45.927996709942818" lon="7.37421166151762">
        <ele>2386.6100000000001</ele>
        <time>2016-07-08T06:43:37Z</time>
      </trkpt>
      <trkpt lat="45.92799729667604" lon="7.374213840812445">
        <ele>2386.6100000000001</ele>
        <time>2016-07-08T06:43:50Z</time>
      </trkpt>
      <trkpt lat="45.927988914772868" lon="7.37420872785151">
        <ele>2386.6100000000001</ele>
        <time>2016-07-08T06:44:06Z</time>
      </trkpt>
      <trkpt lat="45.927980449050665" lon="7.37417159602046">
        <ele>2387.5700000000002</ele>
        <time>2016-07-08T06:44:16Z</time>
      </trkpt>
      <trkpt lat="45.928006349131465" lon="7.374158520251513">
        <ele>2387.5700000000002</ele>
        <time>2016-07-08T06:44:30Z</time>
      </trkpt>
      <trkpt lat="45.928001822903752" lon="7.374089369550347">
        <ele>2388.5300000000002</ele>
        <time>2016-07-08T06:44:42Z</time>
      </trkpt>
      <trkpt lat="45.927999978885055" lon="7.374025750905275">
        <ele>2390.46</ele>
        <time>2016-07-08T06:44:55Z</time>
      </trkpt>
      <trkpt lat="45.928011797368526" lon="7.373935477808118">
        <ele>2391.9000000000001</ele>
        <time>2016-07-08T06:45:06Z</time>
      </trkpt>
      <trkpt lat="45.928027806803584" lon="7.373834811151028">
        <ele>2391.4200000000001</ele>
        <time>2016-07-08T06:45:16Z</time>
      </trkpt>
      <trkpt lat="45.928040044382215" lon="7.3737723659724">
        <ele>2392.8600000000001</ele>
        <time>2016-07-08T06:45:22Z</time>
      </trkpt>
      <trkpt lat="45.928026549518108" lon="7.373730959370732">
        <ele>2394.3000000000002</ele>
        <time>2016-07-08T06:45:28Z</time>
      </trkpt>
      <trkpt lat="45.92800710350275" lon="7.373716542497277">
        <ele>2395.7399999999998</ele>
        <time>2016-07-08T06:45:38Z</time>
      </trkpt>
      <trkpt lat="45.92797433026135" lon="7.373658958822489">
        <ele>2396.6999999999998</ele>
        <time>2016-07-08T06:45:50Z</time>
      </trkpt>
      <trkpt lat="45.927975503727794" lon="7.373581174761057">
        <ele>2398.1500000000001</ele>
        <time>2016-07-08T06:46:01Z</time>
      </trkpt>
      <trkpt lat="45.927980532869697" lon="7.373536499217153">
        <ele>2400.0700000000002</ele>
        <time>2016-07-08T06:46:10Z</time>
      </trkpt>
      <trkpt lat="45.927970306947827" lon="7.373480591922998">
        <ele>2401.5100000000002</ele>
        <time>2016-07-08T06:46:22Z</time>
      </trkpt>
      <trkpt lat="45.927983215078712" lon="7.373414374887943">
        <ele>2403.4299999999998</ele>
        <time>2016-07-08T06:46:33Z</time>
      </trkpt>
      <trkpt lat="45.927962679415941" lon="7.373343966901302">
        <ele>2405.3600000000001</ele>
        <time>2016-07-08T06:46:46Z</time>
      </trkpt>
      <trkpt lat="45.92796066775918" lon="7.373291412368417">
        <ele>2406.8000000000002</ele>
        <time>2016-07-08T06:46:55Z</time>
      </trkpt>
      <trkpt lat="45.927962092682719" lon="7.373229805380106">
        <ele>2408.2399999999998</ele>
        <time>2016-07-08T06:47:05Z</time>
      </trkpt>
      <trkpt lat="45.927929822355509" lon="7.373155541718006">
        <ele>2410.1599999999999</ele>
        <time>2016-07-08T06:47:19Z</time>
      </trkpt>
      <trkpt lat="45.92791180126369" lon="7.37303601577878">
        <ele>2411.5999999999999</ele>
        <time>2016-07-08T06:47:31Z</time>
      </trkpt>
      <trkpt lat="45.927900820970535" lon="7.373002991080284">
        <ele>2412.0900000000001</ele>
        <time>2016-07-08T06:47:34Z</time>
      </trkpt>
      <trkpt lat="45.927862264215946" lon="7.372939707711339">
        <ele>2414.0100000000002</ele>
        <time>2016-07-08T06:47:45Z</time>
      </trkpt>
      <trkpt lat="45.927788000553846" lon="7.372971391305327">
        <ele>2414.9699999999998</ele>
        <time>2016-07-08T06:47:55Z</time>
      </trkpt>
      <trkpt lat="45.927743492648005" lon="7.372995531186461">
        <ele>2416.4099999999999</ele>
        <time>2016-07-08T06:48:05Z</time>
      </trkpt>
      <trkpt lat="45.927717760205269" lon="7.373028891161084">
        <ele>2417.8499999999999</ele>
        <time>2016-07-08T06:48:14Z</time>
      </trkpt>
      <trkpt lat="45.92770166695118" lon="7.373083205893636">
        <ele>2419.3000000000002</ele>
        <time>2016-07-08T06:48:25Z</time>
      </trkpt>
      <trkpt lat="45.927675515413284" lon="7.373143974691629">
        <ele>2421.6999999999998</ele>
        <time>2016-07-08T06:48:38Z</time>
      </trkpt>
      <trkpt lat="45.927670989185572" lon="7.373166270554066">
        <ele>2422.1799999999998</ele>
        <time>2016-07-08T06:48:40Z</time>
      </trkpt>
      <trkpt lat="45.927598318085074" lon="7.373179933056235">
        <ele>2423.6199999999999</ele>
        <time>2016-07-08T06:48:50Z</time>
      </trkpt>
      <trkpt lat="45.927508799359202" lon="7.373171467334032">
        <ele>2425.0599999999999</ele>
        <time>2016-07-08T06:49:02Z</time>
      </trkpt>
      <trkpt lat="45.927469823509455" lon="7.37317381426692">
        <ele>2425.54</ele>
        <time>2016-07-08T06:49:06Z</time>
      </trkpt>
      <trkpt lat="45.92739338055253" lon="7.373179346323013">
        <ele>2426.5</ele>
        <time>2016-07-08T06:49:17Z</time>
      </trkpt>
      <trkpt lat="45.927323726937175" lon="7.373180268332362">
        <ele>2428.4299999999998</ele>
        <time>2016-07-08T06:49:29Z</time>
      </trkpt>
      <trkpt lat="45.927255498245358" lon="7.373172892257571">
        <ele>2429.8699999999999</ele>
        <time>2016-07-08T06:49:39Z</time>
      </trkpt>
      <trkpt lat="45.927177798002958" lon="7.373131988570094">
        <ele>2431.3099999999999</ele>
        <time>2016-07-08T06:49:51Z</time>
      </trkpt>
      <trkpt lat="45.927115855738521" lon="7.373158056288958">
        <ele>2433.23</ele>
        <time>2016-07-08T06:50:03Z</time>
      </trkpt>
      <trkpt lat="45.927048046141863" lon="7.373110866174102">
        <ele>2435.1599999999999</ele>
        <time>2016-07-08T06:50:16Z</time>
      </trkpt>
      <trkpt lat="45.927000353112817" lon="7.373119834810495">
        <ele>2437.0799999999999</ele>
        <time>2016-07-08T06:50:28Z</time>
      </trkpt>
      <trkpt lat="45.926952408626676" lon="7.373082702979446">
        <ele>2439</ele>
        <time>2016-07-08T06:50:40Z</time>
      </trkpt>
      <trkpt lat="45.926915025338531" lon="7.373092258349061">
        <ele>2440.9200000000001</ele>
        <time>2016-07-08T06:50:52Z</time>
      </trkpt>
      <trkpt lat="45.926873618736863" lon="7.37307071685791">
        <ele>2442.8499999999999</ele>
        <time>2016-07-08T06:51:04Z</time>
      </trkpt>
      <trkpt lat="45.926803713664412" lon="7.373060993850231">
        <ele>2444.29</ele>
        <time>2016-07-08T06:51:15Z</time>
      </trkpt>
      <trkpt lat="45.926761971786618" lon="7.373033417388797">
        <ele>2445.73</ele>
        <time>2016-07-08T06:51:26Z</time>
      </trkpt>
      <trkpt lat="45.926727773621678" lon="7.373032243922353">
        <ele>2447.6500000000001</ele>
        <time>2016-07-08T06:51:37Z</time>
      </trkpt>
      <trkpt lat="45.926693910732865" lon="7.373022604733706">
        <ele>2449.0999999999999</ele>
        <time>2016-07-08T06:51:47Z</time>
      </trkpt>
      <trkpt lat="45.926651749759912" lon="7.373015899211168">
        <ele>2449.5799999999999</ele>
        <time>2016-07-08T06:51:56Z</time>
      </trkpt>
      <trkpt lat="45.926601625978947" lon="7.372964434325695">
        <ele>2451.5</ele>
        <time>2016-07-08T06:52:06Z</time>
      </trkpt>
      <trkpt lat="45.926554268226027" lon="7.372888242825866">
        <ele>2453.4200000000001</ele>
        <time>2016-07-08T06:52:19Z</time>
      </trkpt>
      <trkpt lat="45.926482854411006" lon="7.372884219512343">
        <ele>2454.8600000000001</ele>
        <time>2016-07-08T06:52:30Z</time>
      </trkpt>
      <trkpt lat="45.926432898268104" lon="7.372859995812178">
        <ele>2456.3099999999999</ele>
        <time>2016-07-08T06:52:41Z</time>
      </trkpt>
      <trkpt lat="45.926382439211011" lon="7.37284641712904">
        <ele>2458.23</ele>
        <time>2016-07-08T06:52:53Z</time>
      </trkpt>
      <trkpt lat="45.926345391198993" lon="7.372772237285972">
        <ele>2460.1500000000001</ele>
        <time>2016-07-08T06:53:05Z</time>
      </trkpt>
      <trkpt lat="45.926315048709512" lon="7.372688418254256">
        <ele>2462.0700000000002</ele>
        <time>2016-07-08T06:53:18Z</time>
      </trkpt>
      <trkpt lat="45.926280934363604" lon="7.3726118914783">
        <ele>2463.52</ele>
        <time>2016-07-08T06:53:27Z</time>
      </trkpt>
      <trkpt lat="45.926244808360934" lon="7.372518517076969">
        <ele>2464.96</ele>
        <time>2016-07-08T06:53:41Z</time>
      </trkpt>
      <trkpt lat="45.926198037341237" lon="7.372523127123714">
        <ele>2466.8800000000001</ele>
        <time>2016-07-08T06:53:51Z</time>
      </trkpt>
      <trkpt lat="45.92616593465209" lon="7.372485408559442">
        <ele>2468.3200000000002</ele>
        <time>2016-07-08T06:54:01Z</time>
      </trkpt>
      <trkpt lat="45.926124192774296" lon="7.372412066906691">
        <ele>2470.2399999999998</ele>
        <time>2016-07-08T06:54:13Z</time>
      </trkpt>
      <trkpt lat="45.926112793385983" lon="7.372361859306693">
        <ele>2471.6900000000001</ele>
        <time>2016-07-08T06:54:24Z</time>
      </trkpt>
      <trkpt lat="45.926072141155601" lon="7.372297234833241">
        <ele>2473.1300000000001</ele>
        <time>2016-07-08T06:54:35Z</time>
      </trkpt>
      <trkpt lat="45.926073482260108" lon="7.372178630903363">
        <ele>2475.0500000000002</ele>
        <time>2016-07-08T06:54:49Z</time>
      </trkpt>
      <trkpt lat="45.926082199439406" lon="7.372106211259961">
        <ele>2476.9699999999998</ele>
        <time>2016-07-08T06:54:59Z</time>
      </trkpt>
      <trkpt lat="45.926101142540574" lon="7.372014932334423">
        <ele>2477.4499999999998</ele>
        <time>2016-07-08T06:55:09Z</time>
      </trkpt>
      <trkpt lat="45.926124276593328" lon="7.371949637308717">
        <ele>2478.4200000000001</ele>
        <time>2016-07-08T06:55:17Z</time>
      </trkpt>
      <trkpt lat="45.926148667931557" lon="7.371910074725747">
        <ele>2478.9000000000001</ele>
        <time>2016-07-08T06:55:22Z</time>
      </trkpt>
      <trkpt lat="45.926208849996328" lon="7.371877636760473">
        <ele>2480.8200000000002</ele>
        <time>2016-07-08T06:55:34Z</time>
      </trkpt>
      <trkpt lat="45.92627682723105" lon="7.371857352554798">
        <ele>2482.7399999999998</ele>
        <time>2016-07-08T06:55:46Z</time>
      </trkpt>
      <trkpt lat="45.926277246326208" lon="7.371823405846953">
        <ele>2483.6999999999998</ele>
        <time>2016-07-08T06:55:59Z</time>
      </trkpt>
      <trkpt lat="45.926258806139231" lon="7.371805384755135">
        <ele>2484.1799999999998</ele>
        <time>2016-07-08T06:56:16Z</time>
      </trkpt>
      <trkpt lat="45.926222680136561" lon="7.371728774160147">
        <ele>2485.6300000000001</ele>
        <time>2016-07-08T06:56:24Z</time>
      </trkpt>
      <trkpt lat="45.926278084516525" lon="7.371663143858314">
        <ele>2487.5500000000002</ele>
        <time>2016-07-08T06:56:35Z</time>
      </trkpt>
      <trkpt lat="45.926303649321198" lon="7.371623329818249">
        <ele>2488.0300000000002</ele>
        <time>2016-07-08T06:56:41Z</time>
      </trkpt>
      <trkpt lat="45.92636626213789" lon="7.371625592932105">
        <ele>2489.4699999999998</ele>
        <time>2016-07-08T06:56:51Z</time>
      </trkpt>
      <trkpt lat="45.926365675404668" lon="7.371616289019585">
        <ele>2489.9499999999998</ele>
        <time>2016-07-08T06:56:52Z</time>
      </trkpt>
      <trkpt lat="45.926412614062428" lon="7.371578318998218">
        <ele>2490.9099999999999</ele>
        <time>2016-07-08T06:56:59Z</time>
      </trkpt>
      <trkpt lat="45.926433652639389" lon="7.371504977345467">
        <ele>2492.8400000000001</ele>
        <time>2016-07-08T06:57:11Z</time>
      </trkpt>
      <trkpt lat="45.926484782248735" lon="7.371459379792213">
        <ele>2494.2800000000002</ele>
        <time>2016-07-08T06:57:22Z</time>
      </trkpt>
      <trkpt lat="45.926523422822356" lon="7.371400035917759">
        <ele>2496.1999999999998</ele>
        <time>2016-07-08T06:57:34Z</time>
      </trkpt>
      <trkpt lat="45.926533564925194" lon="7.371370699256659">
        <ele>2497.1599999999999</ele>
        <time>2016-07-08T06:57:40Z</time>
      </trkpt>
      <trkpt lat="45.926576731726527" lon="7.371330382302404">
        <ele>2498.1199999999999</ele>
        <time>2016-07-08T06:57:50Z</time>
      </trkpt>
      <trkpt lat="45.926639260724187" lon="7.371305152773857">
        <ele>2499.0799999999999</ele>
        <time>2016-07-08T06:58:00Z</time>
      </trkpt>
      <trkpt lat="45.926690474152565" lon="7.371246730908752">
        <ele>2501.0100000000002</ele>
        <time>2016-07-08T06:58:10Z</time>
      </trkpt>
      <trkpt lat="45.926738921552896" lon="7.371182022616267">
        <ele>2502.9299999999998</ele>
        <time>2016-07-08T06:58:22Z</time>
      </trkpt>
      <trkpt lat="45.926766162738204" lon="7.371122678741813">
        <ele>2504.8499999999999</ele>
        <time>2016-07-08T06:58:34Z</time>
      </trkpt>
      <trkpt lat="45.926771024242043" lon="7.371040536090732">
        <ele>2505.8099999999999</ele>
        <time>2016-07-08T06:58:44Z</time>
      </trkpt>
      <trkpt lat="45.926782675087452" lon="7.370976582169533">
        <ele>2507.7399999999998</ele>
        <time>2016-07-08T06:58:55Z</time>
      </trkpt>
      <trkpt lat="45.926775299012661" lon="7.370883962139487">
        <ele>2508.6999999999998</ele>
        <time>2016-07-08T06:59:06Z</time>
      </trkpt>
      <trkpt lat="45.92673959210515" lon="7.370803495869041">
        <ele>2510.1399999999999</ele>
        <time>2016-07-08T06:59:16Z</time>
      </trkpt>
      <trkpt lat="45.92671025544405" lon="7.370702996850014">
        <ele>2511.0999999999999</ele>
        <time>2016-07-08T06:59:27Z</time>
      </trkpt>
      <trkpt lat="45.926694246008992" lon="7.3706070240587">
        <ele>2511.5799999999999</ele>
        <time>2016-07-08T06:59:35Z</time>
      </trkpt>
      <trkpt lat="45.926635740324855" lon="7.370535777881742">
        <ele>2512.0599999999999</ele>
        <time>2016-07-08T06:59:45Z</time>
      </trkpt>
      <trkpt lat="45.926581844687462" lon="7.370488839223981">
        <ele>2513.02</ele>
        <time>2016-07-08T06:59:54Z</time>
      </trkpt>
      <trkpt lat="45.926518896594644" lon="7.370435195043683">
        <ele>2514.4699999999998</ele>
        <time>2016-07-08T07:00:05Z</time>
      </trkpt>
      <trkpt lat="45.926488637924194" lon="7.370391190052033">
        <ele>2515.9099999999999</ele>
        <time>2016-07-08T07:00:15Z</time>
      </trkpt>
      <trkpt lat="45.926442705094814" lon="7.370337545871735">
        <ele>2517.8299999999999</ele>
        <time>2016-07-08T07:00:26Z</time>
      </trkpt>
      <trkpt lat="45.926430216059089" lon="7.370282309129834">
        <ele>2518.79</ele>
        <time>2016-07-08T07:00:32Z</time>
      </trkpt>
      <trkpt lat="45.926403561607003" lon="7.370195807889104">
        <ele>2520.71</ele>
        <time>2016-07-08T07:00:43Z</time>
      </trkpt>
      <trkpt lat="45.926345475018024" lon="7.370154233649373">
        <ele>2522.6399999999999</ele>
        <time>2016-07-08T07:00:55Z</time>
      </trkpt>
      <trkpt lat="45.926276156678796" lon="7.370155993849039">
        <ele>2524.5599999999999</ele>
        <time>2016-07-08T07:01:07Z</time>
      </trkpt>
      <trkpt lat="45.926235504448414" lon="7.370171751827002">
        <ele>2526.96</ele>
        <time>2016-07-08T07:01:19Z</time>
      </trkpt>
      <trkpt lat="45.92618940398097" lon="7.370131183415651">
        <ele>2527.9200000000001</ele>
        <time>2016-07-08T07:01:30Z</time>
      </trkpt>
      <trkpt lat="45.926126707345247" lon="7.370066894218326">
        <ele>2529.8499999999999</ele>
        <time>2016-07-08T07:01:43Z</time>
      </trkpt>
      <trkpt lat="45.926085552200675" lon="7.370031187310815">
        <ele>2531.77</ele>
        <time>2016-07-08T07:01:54Z</time>
      </trkpt>
      <trkpt lat="45.926029896363616" lon="7.369993887841702">
        <ele>2533.6900000000001</ele>
        <time>2016-07-08T07:02:07Z</time>
      </trkpt>
      <trkpt lat="45.925976000726223" lon="7.369909984990954">
        <ele>2535.6100000000001</ele>
        <time>2016-07-08T07:02:18Z</time>
      </trkpt>
      <trkpt lat="45.925923697650433" lon="7.36988877877593">
        <ele>2536.5799999999999</ele>
        <time>2016-07-08T07:02:29Z</time>
      </trkpt>
      <trkpt lat="45.925866616889834" lon="7.369899339973927">
        <ele>2538.98</ele>
        <time>2016-07-08T07:02:41Z</time>
      </trkpt>
      <trkpt lat="45.925843566656113" lon="7.369831027463079">
        <ele>2539.46</ele>
        <time>2016-07-08T07:02:50Z</time>
      </trkpt>
      <trkpt lat="45.925813978537917" lon="7.369764307513833">
        <ele>2541.8600000000001</ele>
        <time>2016-07-08T07:03:03Z</time>
      </trkpt>
      <trkpt lat="45.925785563886166" lon="7.369712674990296">
        <ele>2543.79</ele>
        <time>2016-07-08T07:03:15Z</time>
      </trkpt>
      <trkpt lat="45.925795789808035" lon="7.369638830423355">
        <ele>2545.71</ele>
        <time>2016-07-08T07:03:27Z</time>
      </trkpt>
      <trkpt lat="45.925833089277148" lon="7.369584599509835">
        <ele>2547.1500000000001</ele>
        <time>2016-07-08T07:03:37Z</time>
      </trkpt>
      <trkpt lat="45.925852283835411" lon="7.36953497864306">
        <ele>2549.0700000000002</ele>
        <time>2016-07-08T07:03:46Z</time>
      </trkpt>
      <trkpt lat="45.925861336290836" lon="7.369480496272445">
        <ele>2550.5100000000002</ele>
        <time>2016-07-08T07:03:55Z</time>
      </trkpt>
      <trkpt lat="45.925800316035748" lon="7.369426432996988">
        <ele>2551.96</ele>
        <time>2016-07-08T07:04:06Z</time>
      </trkpt>
      <trkpt lat="45.925775589421391" lon="7.369369519874454">
        <ele>2552.4400000000001</ele>
        <time>2016-07-08T07:04:13Z</time>
      </trkpt>
      <trkpt lat="45.925768045708537" lon="7.369398856535554">
        <ele>2553.4000000000001</ele>
        <time>2016-07-08T07:04:24Z</time>
      </trkpt>
      <trkpt lat="45.92577064409852" lon="7.369413776323199">
        <ele>2553.4000000000001</ele>
        <time>2016-07-08T07:04:43Z</time>
      </trkpt>
      <trkpt lat="45.925689255818725" lon="7.369359210133553">
        <ele>2553.4000000000001</ele>
        <time>2016-07-08T07:04:53Z</time>
      </trkpt>
      <trkpt lat="45.925599066540599" lon="7.369332136586309">
        <ele>2554.3600000000001</ele>
        <time>2016-07-08T07:05:04Z</time>
      </trkpt>
      <trkpt lat="45.9255834762007" lon="7.369333310052753">
        <ele>2554.8400000000001</ele>
        <time>2016-07-08T07:05:17Z</time>
      </trkpt>
      <trkpt lat="45.925534022971988" lon="7.369311433285475">
        <ele>2555.8000000000002</ele>
        <time>2016-07-08T07:05:23Z</time>
      </trkpt>
      <trkpt lat="45.925451964139938" lon="7.369275474920869">
        <ele>2557.2399999999998</ele>
        <time>2016-07-08T07:05:35Z</time>
      </trkpt>
      <trkpt lat="45.925377029925585" lon="7.369283102452755">
        <ele>2559.6500000000001</ele>
        <time>2016-07-08T07:05:47Z</time>
      </trkpt>
      <trkpt lat="45.925314333289862" lon="7.369315959513187">
        <ele>2562.0500000000002</ele>
        <time>2016-07-08T07:05:57Z</time>
      </trkpt>
      <trkpt lat="45.925275273621082" lon="7.369312858209014">
        <ele>2563.4899999999998</ele>
        <time>2016-07-08T07:06:07Z</time>
      </trkpt>
      <trkpt lat="45.925217187032104" lon="7.369302129372954">
        <ele>2565.4200000000001</ele>
        <time>2016-07-08T07:06:19Z</time>
      </trkpt>
      <trkpt lat="45.925187012180686" lon="7.369283521547914">
        <ele>2565.9000000000001</ele>
        <time>2016-07-08T07:06:23Z</time>
      </trkpt>
      <trkpt lat="45.925132529810071" lon="7.369264410808682">
        <ele>2567.8200000000002</ele>
        <time>2016-07-08T07:06:34Z</time>
      </trkpt>
      <trkpt lat="45.925083328038454" lon="7.369268769398332">
        <ele>2569.2600000000002</ele>
        <time>2016-07-08T07:06:44Z</time>
      </trkpt>
      <trkpt lat="45.925026666373014" lon="7.369236750528216">
        <ele>2571.1799999999998</ele>
        <time>2016-07-08T07:06:55Z</time>
      </trkpt>
      <trkpt lat="45.924986097961664" lon="7.369193080812693">
        <ele>2572.6300000000001</ele>
        <time>2016-07-08T07:07:05Z</time>
      </trkpt>
      <trkpt lat="45.924938740208745" lon="7.369160475209355">
        <ele>2574.5500000000002</ele>
        <time>2016-07-08T07:07:16Z</time>
      </trkpt>
      <trkpt lat="45.924910912290215" lon="7.369101215153933">
        <ele>2575.9899999999998</ele>
        <time>2016-07-08T07:07:26Z</time>
      </trkpt>
      <trkpt lat="45.924895573407412" lon="7.369024269282818">
        <ele>2577.9099999999999</ele>
        <time>2016-07-08T07:07:38Z</time>
      </trkpt>
      <trkpt lat="45.924878055229783" lon="7.368965428322554">
        <ele>2579.8400000000001</ele>
        <time>2016-07-08T07:07:47Z</time>
      </trkpt>
      <trkpt lat="45.924881659448147" lon="7.368936762213707">
        <ele>2581.2800000000002</ele>
        <time>2016-07-08T07:07:56Z</time>
      </trkpt>
      <trkpt lat="45.924917031079531" lon="7.368890410289168">
        <ele>2581.7600000000002</ele>
        <time>2016-07-08T07:08:06Z</time>
      </trkpt>
      <trkpt lat="45.924905212596059" lon="7.368827546015382">
        <ele>2583.1999999999998</ele>
        <time>2016-07-08T07:08:16Z</time>
      </trkpt>
      <trkpt lat="45.924915857613087" lon="7.36874490045011">
        <ele>2585.1199999999999</ele>
        <time>2016-07-08T07:08:27Z</time>
      </trkpt>
      <trkpt lat="45.924934549257159" lon="7.368699051439762">
        <ele>2585.1199999999999</ele>
        <time>2016-07-08T07:08:37Z</time>
      </trkpt>
      <trkpt lat="45.924948630854487" lon="7.368714809417725">
        <ele>2585.1199999999999</ele>
        <time>2016-07-08T07:08:46Z</time>
      </trkpt>
      <trkpt lat="45.924955252557993" lon="7.36870969645679">
        <ele>2584.6399999999999</ele>
        <time>2016-07-08T07:08:55Z</time>
      </trkpt>
      <trkpt lat="45.924960281699896" lon="7.368710031732917">
        <ele>2584.6399999999999</ele>
        <time>2016-07-08T07:09:24Z</time>
      </trkpt>
      <trkpt lat="45.924958102405071" lon="7.368704918771982">
        <ele>2584.6399999999999</ele>
        <time>2016-07-08T07:09:49Z</time>
      </trkpt>
      <trkpt lat="45.924947960302234" lon="7.368693603202701">
        <ele>2584.6399999999999</ele>
        <time>2016-07-08T07:10:09Z</time>
      </trkpt>
      <trkpt lat="45.924944942817092" lon="7.368694106116891">
        <ele>2584.1599999999999</ele>
        <time>2016-07-08T07:10:21Z</time>
      </trkpt>
      <trkpt lat="45.924942176789045" lon="7.368702236562967">
        <ele>2584.1599999999999</ele>
        <time>2016-07-08T07:10:41Z</time>
      </trkpt>
      <trkpt lat="45.924941254779696" lon="7.368718581274152">
        <ele>2584.1599999999999</ele>
        <time>2016-07-08T07:11:09Z</time>
      </trkpt>
      <trkpt lat="45.924945613369346" lon="7.368712043389678">
        <ele>2584.1599999999999</ele>
        <time>2016-07-08T07:11:35Z</time>
      </trkpt>
      <trkpt lat="45.924949385225773" lon="7.368705170229077">
        <ele>2584.1599999999999</ele>
        <time>2016-07-08T07:12:03Z</time>
      </trkpt>
      <trkpt lat="45.924953576177359" lon="7.36869846470654">
        <ele>2584.6399999999999</ele>
        <time>2016-07-08T07:12:31Z</time>
      </trkpt>
      <trkpt lat="45.924969837069511" lon="7.368692765012384">
        <ele>2584.6399999999999</ele>
        <time>2016-07-08T07:12:56Z</time>
      </trkpt>
      <trkpt lat="45.924960868433118" lon="7.368694106116891">
        <ele>2584.6399999999999</ele>
        <time>2016-07-08T07:13:25Z</time>
      </trkpt>
      <trkpt lat="45.924959359690547" lon="7.368697039783001">
        <ele>2584.6399999999999</ele>
        <time>2016-07-08T07:13:48Z</time>
      </trkpt>
      <trkpt lat="45.92495952732861" lon="7.368685472756624">
        <ele>2584.6399999999999</ele>
        <time>2016-07-08T07:14:16Z</time>
      </trkpt>
      <trkpt lat="45.924954498186707" lon="7.368699219077826">
        <ele>2584.6399999999999</ele>
        <time>2016-07-08T07:14:34Z</time>
      </trkpt>
      <trkpt lat="45.924948547035456" lon="7.36871849745512">
        <ele>2584.6399999999999</ele>
        <time>2016-07-08T07:14:50Z</time>
      </trkpt>
      <trkpt lat="45.924949049949646" lon="7.368708942085505">
        <ele>2584.6399999999999</ele>
        <time>2016-07-08T07:15:12Z</time>
      </trkpt>
      <trkpt lat="45.924930525943637" lon="7.368703493848443">
        <ele>2585.1199999999999</ele>
        <time>2016-07-08T07:15:34Z</time>
      </trkpt>
      <trkpt lat="45.92493949458003" lon="7.368705924600363">
        <ele>2585.1199999999999</ele>
        <time>2016-07-08T07:15:59Z</time>
      </trkpt>
      <trkpt lat="45.924937566742301" lon="7.368699805811048">
        <ele>2585.1199999999999</ele>
        <time>2016-07-08T07:16:19Z</time>
      </trkpt>
      <trkpt lat="45.924936644732952" lon="7.368704164400697">
        <ele>2585.1199999999999</ele>
        <time>2016-07-08T07:16:39Z</time>
      </trkpt>
      <trkpt lat="45.924938656389713" lon="7.368712294846773">
        <ele>2585.1199999999999</ele>
        <time>2016-07-08T07:17:09Z</time>
      </trkpt>
      <trkpt lat="45.924944020807743" lon="7.368699889630079">
        <ele>2585.5999999999999</ele>
        <time>2016-07-08T07:17:38Z</time>
      </trkpt>
      <trkpt lat="45.92494779266417" lon="7.368702823296189">
        <ele>2585.5999999999999</ele>
        <time>2016-07-08T07:18:04Z</time>
      </trkpt>
      <trkpt lat="45.924944523721933" lon="7.368702488020062">
        <ele>2586.0799999999999</ele>
        <time>2016-07-08T07:18:34Z</time>
      </trkpt>
      <trkpt lat="45.924944691359997" lon="7.368698297068477">
        <ele>2586.0799999999999</ele>
        <time>2016-07-08T07:18:58Z</time>
      </trkpt>
      <trkpt lat="45.924953827634454" lon="7.368696201592684">
        <ele>2586.5599999999999</ele>
        <time>2016-07-08T07:19:23Z</time>
      </trkpt>
      <trkpt lat="45.924948295578361" lon="7.368692932650447">
        <ele>2586.0799999999999</ele>
        <time>2016-07-08T07:19:45Z</time>
      </trkpt>
      <trkpt lat="45.924948379397392" lon="7.368703158572316">
        <ele>2586.0799999999999</ele>
        <time>2016-07-08T07:20:14Z</time>
      </trkpt>
      <trkpt lat="45.924933794885874" lon="7.368697794154286">
        <ele>2586.5599999999999</ele>
        <time>2016-07-08T07:20:37Z</time>
      </trkpt>
      <trkpt lat="45.924935806542635" lon="7.368694357573986">
        <ele>2586.5599999999999</ele>
        <time>2016-07-08T07:21:08Z</time>
      </trkpt>
      <trkpt lat="45.924933794885874" lon="7.368701985105872">
        <ele>2586.5599999999999</ele>
        <time>2016-07-08T07:21:33Z</time>
      </trkpt>
      <trkpt lat="45.924942763522267" lon="7.368712797760963">
        <ele>2587.04</ele>
        <time>2016-07-08T07:22:00Z</time>
      </trkpt>
      <trkpt lat="45.924942344427109" lon="7.368711205199361">
        <ele>2587.04</ele>
        <time>2016-07-08T07:22:25Z</time>
      </trkpt>
      <trkpt lat="45.924938404932618" lon="7.368712965399027">
        <ele>2587.04</ele>
        <time>2016-07-08T07:22:45Z</time>
      </trkpt>
      <trkpt lat="45.924954162910581" lon="7.368720257654786">
        <ele>2588.4899999999998</ele>
        <time>2016-07-08T07:23:07Z</time>
      </trkpt>
      <trkpt lat="45.924953576177359" lon="7.368694441393018">
        <ele>2588.4899999999998</ele>
        <time>2016-07-08T07:23:15Z</time>
      </trkpt>
      <trkpt lat="45.924935387447476" lon="7.368681197986007">
        <ele>2588.4899999999998</ele>
        <time>2016-07-08T07:23:27Z</time>
      </trkpt>
      <trkpt lat="45.924915689975023" lon="7.368685975670815">
        <ele>2588.9699999999998</ele>
        <time>2016-07-08T07:23:40Z</time>
      </trkpt>
      <trkpt lat="45.92491552233696" lon="7.368693603202701">
        <ele>2588.9699999999998</ele>
        <time>2016-07-08T07:23:42Z</time>
      </trkpt>
      <trkpt lat="45.924953073263168" lon="7.368701146915555">
        <ele>2588.9699999999998</ele>
        <time>2016-07-08T07:23:53Z</time>
      </trkpt>
      <trkpt lat="45.92494091950357" lon="7.368707936257124">
        <ele>2588.4899999999998</ele>
        <time>2016-07-08T07:24:04Z</time>
      </trkpt>
      <trkpt lat="45.924940835684538" lon="7.368710702285171">
        <ele>2588.9699999999998</ele>
        <time>2016-07-08T07:24:16Z</time>
      </trkpt>
      <trkpt lat="45.924908397719264" lon="7.368708439171314">
        <ele>2589.4499999999998</ele>
        <time>2016-07-08T07:24:30Z</time>
      </trkpt>
      <trkpt lat="45.924876295030117" lon="7.368661751970649">
        <ele>2589.9299999999998</ele>
        <time>2016-07-08T07:24:39Z</time>
      </trkpt>
      <trkpt lat="45.924832625314593" lon="7.368606850504875">
        <ele>2591.3699999999999</ele>
        <time>2016-07-08T07:24:51Z</time>
      </trkpt>
      <trkpt lat="45.924791386350989" lon="7.368537280708551">
        <ele>2592.3299999999999</ele>
        <time>2016-07-08T07:25:02Z</time>
      </trkpt>
      <trkpt lat="45.924727264791727" lon="7.36848397180438">
        <ele>2594.25</ele>
        <time>2016-07-08T07:25:15Z</time>
      </trkpt>
      <trkpt lat="45.924657611176372" lon="7.36845807172358">
        <ele>2595.6999999999998</ele>
        <time>2016-07-08T07:25:29Z</time>
      </trkpt>
      <trkpt lat="45.924587789922953" lon="7.368388418108225">
        <ele>2597.1399999999999</ele>
        <time>2016-07-08T07:25:41Z</time>
      </trkpt>
      <trkpt lat="45.924570439383388" lon="7.368315244093537">
        <ele>2598.5799999999999</ele>
        <time>2016-07-08T07:25:51Z</time>
      </trkpt>
      <trkpt lat="45.924588376656175" lon="7.368292026221752">
        <ele>2598.5799999999999</ele>
        <time>2016-07-08T07:25:54Z</time>
      </trkpt>
      <trkpt lat="45.924624418839812" lon="7.368251290172339">
        <ele>2599.54</ele>
        <time>2016-07-08T07:26:03Z</time>
      </trkpt>
      <trkpt lat="45.924656605347991" lon="7.368191108107567">
        <ele>2601.46</ele>
        <time>2016-07-08T07:26:13Z</time>
      </trkpt>
      <trkpt lat="45.924674207344651" lon="7.368180463090539">
        <ele>2601.9499999999998</ele>
        <time>2016-07-08T07:26:18Z</time>
      </trkpt>
      <trkpt lat="45.924715362489223" lon="7.368120448663831">
        <ele>2603.8699999999999</ele>
        <time>2016-07-08T07:26:29Z</time>
      </trkpt>
      <trkpt lat="45.924753919243813" lon="7.368043167516589">
        <ele>2604.3499999999999</ele>
        <time>2016-07-08T07:26:39Z</time>
      </trkpt>
      <trkpt lat="45.924745202064514" lon="7.367962785065174">
        <ele>2605.79</ele>
        <time>2016-07-08T07:26:51Z</time>
      </trkpt>
      <trkpt lat="45.924713015556335" lon="7.367911906912923">
        <ele>2606.75</ele>
        <time>2016-07-08T07:27:02Z</time>
      </trkpt>
      <trkpt lat="45.924634477123618" lon="7.367912996560335">
        <ele>2607.71</ele>
        <time>2016-07-08T07:27:14Z</time>
      </trkpt>
      <trkpt lat="45.924587119370699" lon="7.367916600778699">
        <ele>2608.6700000000001</ele>
        <time>2016-07-08T07:27:24Z</time>
      </trkpt>
      <trkpt lat="45.924525009468198" lon="7.367876451462507">
        <ele>2610.1199999999999</ele>
        <time>2016-07-08T07:27:34Z</time>
      </trkpt>
      <trkpt lat="45.924508161842823" lon="7.367872260510922">
        <ele>2610.5999999999999</ele>
        <time>2016-07-08T07:27:37Z</time>
      </trkpt>
      <trkpt lat="45.924434568732977" lon="7.367843426764011">
        <ele>2611.5599999999999</ele>
        <time>2016-07-08T07:27:49Z</time>
      </trkpt>
      <trkpt lat="45.924384277313948" lon="7.367808474227786">
        <ele>2613.96</ele>
        <time>2016-07-08T07:28:03Z</time>
      </trkpt>
      <trkpt lat="45.924326777458191" lon="7.367777796462178">
        <ele>2615.4000000000001</ele>
        <time>2016-07-08T07:28:15Z</time>
      </trkpt>
      <trkpt lat="45.924283694475889" lon="7.367766983807087">
        <ele>2616.3699999999999</ele>
        <time>2016-07-08T07:28:26Z</time>
      </trkpt>
      <trkpt lat="45.924239186570048" lon="7.367719961330295">
        <ele>2618.77</ele>
        <time>2016-07-08T07:28:35Z</time>
      </trkpt>
      <trkpt lat="45.924194930121303" lon="7.367692887783051">
        <ele>2619.73</ele>
        <time>2016-07-08T07:28:43Z</time>
      </trkpt>
      <trkpt lat="45.924123851582408" lon="7.367684002965689">
        <ele>2620.6900000000001</ele>
        <time>2016-07-08T07:28:53Z</time>
      </trkpt>
      <trkpt lat="45.924066519364715" lon="7.367652906104922">
        <ele>2622.1300000000001</ele>
        <time>2016-07-08T07:29:03Z</time>
      </trkpt>
      <trkpt lat="45.924028381705284" lon="7.367641339078546">
        <ele>2623.0900000000001</ele>
        <time>2016-07-08T07:29:13Z</time>
      </trkpt>
      <trkpt lat="45.923946909606457" lon="7.367596747353673">
        <ele>2625.02</ele>
        <time>2016-07-08T07:29:27Z</time>
      </trkpt>
      <trkpt lat="45.923898629844189" lon="7.367545198649168">
        <ele>2626.9400000000001</ele>
        <time>2016-07-08T07:29:39Z</time>
      </trkpt>
      <trkpt lat="45.923822438344359" lon="7.367512257769704">
        <ele>2628.3800000000001</ele>
        <time>2016-07-08T07:29:51Z</time>
      </trkpt>
      <trkpt lat="45.923756305128336" lon="7.367460457608104">
        <ele>2630.3000000000002</ele>
        <time>2016-07-08T07:30:03Z</time>
      </trkpt>
      <trkpt lat="45.923686232417822" lon="7.367420475929976">
        <ele>2631.75</ele>
        <time>2016-07-08T07:30:14Z</time>
      </trkpt>
      <trkpt lat="45.923621524125338" lon="7.367326850071549">
        <ele>2633.6700000000001</ele>
        <time>2016-07-08T07:30:29Z</time>
      </trkpt>
      <trkpt lat="45.923579782247543" lon="7.367302291095257">
        <ele>2634.6300000000001</ele>
        <time>2016-07-08T07:30:41Z</time>
      </trkpt>
      <trkpt lat="45.923569221049547" lon="7.367280917242169">
        <ele>2634.6300000000001</ele>
        <time>2016-07-08T07:30:51Z</time>
      </trkpt>
      <trkpt lat="45.923557570204139" lon="7.367266919463873">
        <ele>2634.6300000000001</ele>
        <time>2016-07-08T07:30:59Z</time>
      </trkpt>
      <trkpt lat="45.923533849418163" lon="7.367213275283575">
        <ele>2635.5900000000001</ele>
        <time>2016-07-08T07:31:07Z</time>
      </trkpt>
      <trkpt lat="45.923504428938031" lon="7.367148566991091">
        <ele>2637.5100000000002</ele>
        <time>2016-07-08T07:31:16Z</time>
      </trkpt>
      <trkpt lat="45.923450449481606" lon="7.367097102105618">
        <ele>2637.9899999999998</ele>
        <time>2016-07-08T07:31:27Z</time>
      </trkpt>
      <trkpt lat="45.923393117263913" lon="7.367044966667891">
        <ele>2638.48</ele>
        <time>2016-07-08T07:31:36Z</time>
      </trkpt>
      <trkpt lat="45.923322541639209" lon="7.367027197033167">
        <ele>2639.4400000000001</ele>
        <time>2016-07-08T07:31:45Z</time>
      </trkpt>
      <trkpt lat="45.923250373452902" lon="7.367015797644854">
        <ele>2640.4000000000001</ele>
        <time>2016-07-08T07:31:56Z</time>
      </trkpt>
      <trkpt lat="45.923193795606494" lon="7.366962404921651">
        <ele>2641.8400000000001</ele>
        <time>2016-07-08T07:32:07Z</time>
      </trkpt>
      <trkpt lat="45.923139061778784" lon="7.366904988884926">
        <ele>2643.7600000000002</ele>
        <time>2016-07-08T07:32:19Z</time>
      </trkpt>
      <trkpt lat="45.923083741217852" lon="7.366855619475246">
        <ele>2645.21</ele>
        <time>2016-07-08T07:32:30Z</time>
      </trkpt>
      <trkpt lat="45.923022972419858" lon="7.366801723837853">
        <ele>2646.6500000000001</ele>
        <time>2016-07-08T07:32:42Z</time>
      </trkpt>
      <trkpt lat="45.922967568039894" lon="7.366719748824835">
        <ele>2647.6100000000001</ele>
        <time>2016-07-08T07:32:52Z</time>
      </trkpt>
      <trkpt lat="45.922897914424539" lon="7.3666662722826">
        <ele>2648.0900000000001</ele>
        <time>2016-07-08T07:33:03Z</time>
      </trkpt>
      <trkpt lat="45.922843348234892" lon="7.366602318361402">
        <ele>2649.5300000000002</ele>
        <time>2016-07-08T07:33:12Z</time>
      </trkpt>
      <trkpt lat="45.922762379050255" lon="7.366562923416495">
        <ele>2651.4499999999998</ele>
        <time>2016-07-08T07:33:25Z</time>
      </trkpt>
      <trkpt lat="45.922692390158772" lon="7.36650450155139">
        <ele>2652.4200000000001</ele>
        <time>2016-07-08T07:33:36Z</time>
      </trkpt>
      <trkpt lat="45.922633968293667" lon="7.366462256759405">
        <ele>2653.3800000000001</ele>
        <time>2016-07-08T07:33:46Z</time>
      </trkpt>
      <trkpt lat="45.922558698803186" lon="7.366431914269924">
        <ele>2654.8200000000002</ele>
        <time>2016-07-08T07:33:57Z</time>
      </trkpt>
      <trkpt lat="45.922491224482656" lon="7.366381706669927">
        <ele>2655.7800000000002</ele>
        <time>2016-07-08T07:34:09Z</time>
      </trkpt>
      <trkpt lat="45.922395335510373" lon="7.366320854052901">
        <ele>2656.2600000000002</ele>
        <time>2016-07-08T07:34:22Z</time>
      </trkpt>
      <trkpt lat="45.922320568934083" lon="7.366285230964422">
        <ele>2657.2199999999998</ele>
        <time>2016-07-08T07:34:33Z</time>
      </trkpt>
      <trkpt lat="45.922311265021563" lon="7.366292607039213">
        <ele>2657.2199999999998</ele>
        <time>2016-07-08T07:34:43Z</time>
      </trkpt>
      <trkpt lat="45.922268433496356" lon="7.366262432187796">
        <ele>2658.1799999999998</ele>
        <time>2016-07-08T07:34:59Z</time>
      </trkpt>
      <trkpt lat="45.922164414077997" lon="7.366196885704994">
        <ele>2658.6599999999999</ele>
        <time>2016-07-08T07:35:10Z</time>
      </trkpt>
      <trkpt lat="45.92209811322391" lon="7.366138631477952">
        <ele>2658.6599999999999</ele>
        <time>2016-07-08T07:35:18Z</time>
      </trkpt>
      <trkpt lat="45.922017814591527" lon="7.366101080551744">
        <ele>2659.1399999999999</ele>
        <time>2016-07-08T07:35:26Z</time>
      </trkpt>
      <trkpt lat="45.921915723010898" lon="7.366037461906672">
        <ele>2659.6199999999999</ele>
        <time>2016-07-08T07:35:37Z</time>
      </trkpt>
      <trkpt lat="45.921814553439617" lon="7.365966467186809">
        <ele>2659.6199999999999</ele>
        <time>2016-07-08T07:35:48Z</time>
      </trkpt>
      <trkpt lat="45.921723023056984" lon="7.365926736965776">
        <ele>2660.1100000000001</ele>
        <time>2016-07-08T07:35:58Z</time>
      </trkpt>
      <trkpt lat="45.921632247045636" lon="7.365875439718366">
        <ele>2660.5900000000001</ele>
        <time>2016-07-08T07:36:08Z</time>
      </trkpt>
      <trkpt lat="45.921617159619927" lon="7.36585951410234">
        <ele>2660.1100000000001</ele>
        <time>2016-07-08T07:36:10Z</time>
      </trkpt>
      <trkpt lat="45.921590588986874" lon="7.365836463868618">
        <ele>2661.0700000000002</ele>
        <time>2016-07-08T07:36:20Z</time>
      </trkpt>
      <trkpt lat="45.92158648185432" lon="7.365840738639236">
        <ele>2661.5500000000002</ele>
        <time>2016-07-08T07:36:27Z</time>
      </trkpt>
      <trkpt lat="45.921587822958827" lon="7.365843588486314">
        <ele>2661.5500000000002</ele>
        <time>2016-07-08T07:36:29Z</time>
      </trkpt>
      <trkpt lat="45.921530239284039" lon="7.36582238227129">
        <ele>2661.0700000000002</ele>
        <time>2016-07-08T07:36:34Z</time>
      </trkpt>
      <trkpt lat="45.921426638960838" lon="7.365791872143745">
        <ele>2661.5500000000002</ele>
        <time>2016-07-08T07:36:44Z</time>
      </trkpt>
      <trkpt lat="45.921369809657335" lon="7.365777119994164">
        <ele>2662.0300000000002</ele>
        <time>2016-07-08T07:36:49Z</time>
      </trkpt>
      <trkpt lat="45.921330079436302" lon="7.365770414471626">
        <ele>2662.5100000000002</ele>
        <time>2016-07-08T07:36:53Z</time>
      </trkpt>
      <trkpt lat="45.921261264011264" lon="7.365746358409524">
        <ele>2662.0300000000002</ele>
        <time>2016-07-08T07:36:59Z</time>
      </trkpt>
      <trkpt lat="45.921177780255675" lon="7.365718446671963">
        <ele>2662.0300000000002</ele>
        <time>2016-07-08T07:37:07Z</time>
      </trkpt>
      <trkpt lat="45.921060768887401" lon="7.365683745592833">
        <ele>2662.5100000000002</ele>
        <time>2016-07-08T07:37:18Z</time>
      </trkpt>
      <trkpt lat="45.920906625688076" lon="7.365601686760783">
        <ele>2662.5100000000002</ele>
        <time>2016-07-08T07:37:32Z</time>
      </trkpt>
      <trkpt lat="45.920795733109117" lon="7.365548796951771">
        <ele>2662.0300000000002</ele>
        <time>2016-07-08T07:37:42Z</time>
      </trkpt>
      <trkpt lat="45.920698754489422" lon="7.365501523017883">
        <ele>2662.5100000000002</ele>
        <time>2016-07-08T07:37:52Z</time>
      </trkpt>
      <trkpt lat="45.92058920301497" lon="7.365473443642259">
        <ele>2662.5100000000002</ele>
        <time>2016-07-08T07:38:03Z</time>
      </trkpt>
      <trkpt lat="45.920579144731164" lon="7.365472353994846">
        <ele>2662.0300000000002</ele>
        <time>2016-07-08T07:38:04Z</time>
      </trkpt>
      <trkpt lat="45.920488955453038" lon="7.365444106981158">
        <ele>2662.5100000000002</ele>
        <time>2016-07-08T07:38:12Z</time>
      </trkpt>
      <trkpt lat="45.920311259105802" lon="7.365384846925736">
        <ele>2661.5500000000002</ele>
        <time>2016-07-08T07:38:28Z</time>
      </trkpt>
      <trkpt lat="45.920200869441032" lon="7.365364311262965">
        <ele>2661.0700000000002</ele>
        <time>2016-07-08T07:38:38Z</time>
      </trkpt>
      <trkpt lat="45.920072961598635" lon="7.365358024835587">
        <ele>2659.6199999999999</ele>
        <time>2016-07-08T07:38:49Z</time>
      </trkpt>
      <trkpt lat="45.91998721472919" lon="7.365265572443605">
        <ele>2658.1799999999998</ele>
        <time>2016-07-08T07:39:00Z</time>
      </trkpt>
      <trkpt lat="45.91992661356926" lon="7.365217208862305">
        <ele>2658.1799999999998</ele>
        <time>2016-07-08T07:39:09Z</time>
      </trkpt>
      <trkpt lat="45.919846398755908" lon="7.365158619359136">
        <ele>2657.6999999999998</ele>
        <time>2016-07-08T07:39:21Z</time>
      </trkpt>
      <trkpt lat="45.919785378500819" lon="7.365073123946786">
        <ele>2658.1799999999998</ele>
        <time>2016-07-08T07:39:31Z</time>
      </trkpt>
      <trkpt lat="45.91974581591785" lon="7.365019982680678">
        <ele>2658.1799999999998</ele>
        <time>2016-07-08T07:39:37Z</time>
      </trkpt>
      <trkpt lat="45.919702732935548" lon="7.364956112578511">
        <ele>2659.1399999999999</ele>
        <time>2016-07-08T07:39:48Z</time>
      </trkpt>
      <trkpt lat="45.919703487306833" lon="7.364944545552135">
        <ele>2658.6599999999999</ele>
        <time>2016-07-08T07:40:00Z</time>
      </trkpt>
      <trkpt lat="45.919689489528537" lon="7.364947898313403">
        <ele>2658.6599999999999</ele>
        <time>2016-07-08T07:40:18Z</time>
      </trkpt>
      <trkpt lat="45.919710360467434" lon="7.364930799230933">
        <ele>2659.1399999999999</ele>
        <time>2016-07-08T07:40:28Z</time>
      </trkpt>
      <trkpt lat="45.919716982170939" lon="7.364954939112067">
        <ele>2659.1399999999999</ele>
        <time>2016-07-08T07:40:42Z</time>
      </trkpt>
      <trkpt lat="45.919719245284796" lon="7.364932140335441">
        <ele>2659.1399999999999</ele>
        <time>2016-07-08T07:40:51Z</time>
      </trkpt>
      <trkpt lat="45.919726202264428" lon="7.364925602450967">
        <ele>2659.1399999999999</ele>
        <time>2016-07-08T07:40:59Z</time>
      </trkpt>
      <trkpt lat="45.919726453721523" lon="7.36496826633811">
        <ele>2658.6599999999999</ele>
        <time>2016-07-08T07:41:17Z</time>
      </trkpt>
      <trkpt lat="45.919719999656081" lon="7.364965248852968">
        <ele>2658.6599999999999</ele>
        <time>2016-07-08T07:41:38Z</time>
      </trkpt>
      <trkpt lat="45.919723184779286" lon="7.364966003224254">
        <ele>2659.1399999999999</ele>
        <time>2016-07-08T07:41:55Z</time>
      </trkpt>
      <trkpt lat="45.91973751783371" lon="7.364954436197877">
        <ele>2658.6599999999999</ele>
        <time>2016-07-08T07:42:08Z</time>
      </trkpt>
      <trkpt lat="45.919736931100488" lon="7.364949239417911">
        <ele>2658.6599999999999</ele>
        <time>2016-07-08T07:42:23Z</time>
      </trkpt>
      <trkpt lat="45.919729135930538" lon="7.364940773695707">
        <ele>2658.6599999999999</ele>
        <time>2016-07-08T07:42:41Z</time>
      </trkpt>
      <trkpt lat="45.91974631883204" lon="7.364908419549465">
        <ele>2658.6599999999999</ele>
        <time>2016-07-08T07:43:00Z</time>
      </trkpt>
      <trkpt lat="45.91973852366209" lon="7.364905653521419">
        <ele>2658.6599999999999</ele>
        <time>2016-07-08T07:43:14Z</time>
      </trkpt>
      <trkpt lat="45.919745983555913" lon="7.364910515025258">
        <ele>2658.6599999999999</ele>
        <time>2016-07-08T07:43:32Z</time>
      </trkpt>
      <trkpt lat="45.919747492298484" lon="7.36494580283761">
        <ele>2658.6599999999999</ele>
        <time>2016-07-08T07:43:50Z</time>
      </trkpt>
      <trkpt lat="45.91974581591785" lon="7.364938342943788">
        <ele>2658.6599999999999</ele>
        <time>2016-07-08T07:44:11Z</time>
      </trkpt>
      <trkpt lat="45.919735003262758" lon="7.364914203062654">
        <ele>2659.1399999999999</ele>
        <time>2016-07-08T07:44:28Z</time>
      </trkpt>
      <trkpt lat="45.919726705178618" lon="7.364930380135775">
        <ele>2659.6199999999999</ele>
        <time>2016-07-08T07:44:45Z</time>
      </trkpt>
      <trkpt lat="45.919719832018018" lon="7.364924009889364">
        <ele>2659.1399999999999</ele>
        <time>2016-07-08T07:44:54Z</time>
      </trkpt>
      <trkpt lat="45.919708935543895" lon="7.364935660734773">
        <ele>2659.6199999999999</ele>
        <time>2016-07-08T07:45:05Z</time>
      </trkpt>
      <trkpt lat="45.919682197272778" lon="7.364909425377846">
        <ele>2659.6199999999999</ele>
        <time>2016-07-08T07:45:13Z</time>
      </trkpt>
      <trkpt lat="45.919614136219025" lon="7.364824935793877">
        <ele>2660.1100000000001</ele>
        <time>2016-07-08T07:45:24Z</time>
      </trkpt>
      <trkpt lat="45.919583961367607" lon="7.364710522815585">
        <ele>2660.1100000000001</ele>
        <time>2016-07-08T07:45:35Z</time>
      </trkpt>
      <trkpt lat="45.919537357985973" lon="7.364617986604571">
        <ele>2661.0700000000002</ele>
        <time>2016-07-08T07:45:47Z</time>
      </trkpt>
      <trkpt lat="45.91949419118464" lon="7.364548165351152">
        <ele>2661.0700000000002</ele>
        <time>2016-07-08T07:45:56Z</time>
      </trkpt>
      <trkpt lat="45.919488742947578" lon="7.364540454000235">
        <ele>2661.0700000000002</ele>
        <time>2016-07-08T07:45:57Z</time>
      </trkpt>
      <trkpt lat="45.91942336410284" lon="7.364436937496066">
        <ele>2661.0700000000002</ele>
        <time>2016-07-08T07:46:08Z</time>
      </trkpt>
      <trkpt lat="45.919364271685481" lon="7.36442587338388">
        <ele>2661.0700000000002</ele>
        <time>2016-07-08T07:46:15Z</time>
      </trkpt>
      <trkpt lat="45.919317752122879" lon="7.364326044917107">
        <ele>2661.5500000000002</ele>
        <time>2016-07-08T07:46:26Z</time>
      </trkpt>
      <trkpt lat="45.919298473745584" lon="7.364273155108094">
        <ele>2662.0300000000002</ele>
        <time>2016-07-08T07:46:37Z</time>
      </trkpt>
      <trkpt lat="45.919287661090493" lon="7.364213978871703">
        <ele>2663.4699999999998</ele>
        <time>2016-07-08T07:46:46Z</time>
      </trkpt>
      <trkpt lat="45.919257402420044" lon="7.364160250872374">
        <ele>2664.4299999999998</ele>
        <time>2016-07-08T07:46:55Z</time>
      </trkpt>
      <trkpt lat="45.919272154569626" lon="7.364120436832309">
        <ele>2666.3499999999999</ele>
        <time>2016-07-08T07:47:05Z</time>
      </trkpt>
      <trkpt lat="45.919286403805017" lon="7.364075006917119">
        <ele>2668.2800000000002</ele>
        <time>2016-07-08T07:47:15Z</time>
      </trkpt>
      <trkpt lat="45.919273914769292" lon="7.364031001925468">
        <ele>2669.7199999999998</ele>
        <time>2016-07-08T07:47:25Z</time>
      </trkpt>
      <trkpt lat="45.919231502339244" lon="7.363987667486072">
        <ele>2670.6799999999998</ele>
        <time>2016-07-08T07:47:36Z</time>
      </trkpt>
      <trkpt lat="45.919192861765623" lon="7.363908290863037">
        <ele>2671.6399999999999</ele>
        <time>2016-07-08T07:47:47Z</time>
      </trkpt>
      <trkpt lat="45.919138882309198" lon="7.36380728892982">
        <ele>2673.0799999999999</ele>
        <time>2016-07-08T07:48:00Z</time>
      </trkpt>
      <trkpt lat="45.919088339433074" lon="7.363727828487754">
        <ele>2673.5599999999999</ele>
        <time>2016-07-08T07:48:09Z</time>
      </trkpt>
      <trkpt lat="45.919040981680155" lon="7.363652307540178">
        <ele>2673.0799999999999</ele>
        <time>2016-07-08T07:48:20Z</time>
      </trkpt>
      <trkpt lat="45.918998401612043" lon="7.363580893725157">
        <ele>2674.04</ele>
        <time>2016-07-08T07:48:32Z</time>
      </trkpt>
      <trkpt lat="45.918971663340926" lon="7.363499505445361">
        <ele>2674.52</ele>
        <time>2016-07-08T07:48:43Z</time>
      </trkpt>
      <trkpt lat="45.918934280052781" lon="7.36343689262867">
        <ele>2675.0100000000002</ele>
        <time>2016-07-08T07:48:54Z</time>
      </trkpt>
      <trkpt lat="45.918910307809711" lon="7.363433623686433">
        <ele>2675.9699999999998</ele>
        <time>2016-07-08T07:49:02Z</time>
      </trkpt>
      <trkpt lat="45.918850544840097" lon="7.363415854051709">
        <ele>2675.9699999999998</ele>
        <time>2016-07-08T07:49:13Z</time>
      </trkpt>
      <trkpt lat="45.918805282562971" lon="7.363371513783932">
        <ele>2676.9299999999998</ele>
        <time>2016-07-08T07:49:24Z</time>
      </trkpt>
      <trkpt lat="45.918770497664809" lon="7.363300435245037">
        <ele>2677.4099999999999</ele>
        <time>2016-07-08T07:49:35Z</time>
      </trkpt>
      <trkpt lat="45.918741161003709" lon="7.36328836530447">
        <ele>2677.8899999999999</ele>
        <time>2016-07-08T07:49:45Z</time>
      </trkpt>
      <trkpt lat="45.91874560341239" lon="7.363295741379261">
        <ele>2677.8899999999999</ele>
        <time>2016-07-08T07:49:56Z</time>
      </trkpt>
      <trkpt lat="45.918726660311222" lon="7.363276211544871">
        <ele>2677.8899999999999</ele>
        <time>2016-07-08T07:50:07Z</time>
      </trkpt>
      <trkpt lat="45.918663209304214" lon="7.363220639526844">
        <ele>2678.3699999999999</ele>
        <time>2016-07-08T07:50:16Z</time>
      </trkpt>
      <trkpt lat="45.918613420799375" lon="7.363174371421337">
        <ele>2678.3699999999999</ele>
        <time>2016-07-08T07:50:25Z</time>
      </trkpt>
      <trkpt lat="45.918550137430429" lon="7.363095916807652">
        <ele>2679.8099999999999</ele>
        <time>2016-07-08T07:50:38Z</time>
      </trkpt>
      <trkpt lat="45.918520046398044" lon="7.36303087323904">
        <ele>2680.77</ele>
        <time>2016-07-08T07:50:48Z</time>
      </trkpt>
      <trkpt lat="45.918475370854139" lon="7.362994076684117">
        <ele>2681.25</ele>
        <time>2016-07-08T07:50:58Z</time>
      </trkpt>
      <trkpt lat="45.9184514824301" lon="7.362974882125855">
        <ele>2681.73</ele>
        <time>2016-07-08T07:51:04Z</time>
      </trkpt>
      <trkpt lat="45.918434886261821" lon="7.36292727291584">
        <ele>2682.6999999999998</ele>
        <time>2016-07-08T07:51:11Z</time>
      </trkpt>
      <trkpt lat="45.918435053899884" lon="7.362885279580951">
        <ele>2683.6599999999999</ele>
        <time>2016-07-08T07:51:20Z</time>
      </trkpt>
      <trkpt lat="45.918435892090201" lon="7.36287790350616">
        <ele>2684.1399999999999</ele>
        <time>2016-07-08T07:51:31Z</time>
      </trkpt>
      <trkpt lat="45.918366992846131" lon="7.362798443064094">
        <ele>2685.5799999999999</ele>
        <time>2016-07-08T07:51:45Z</time>
      </trkpt>
      <trkpt lat="45.918325837701559" lon="7.362751420587301">
        <ele>2686.54</ele>
        <time>2016-07-08T07:51:55Z</time>
      </trkpt>
      <trkpt lat="45.918295914307237" lon="7.362654693424702">
        <ele>2687.5</ele>
        <time>2016-07-08T07:52:06Z</time>
      </trkpt>
      <trkpt lat="45.918246041983366" lon="7.362564001232386">
        <ele>2688.46</ele>
        <time>2016-07-08T07:52:19Z</time>
      </trkpt>
      <trkpt lat="45.918187703937292" lon="7.362528964877129">
        <ele>2688.46</ele>
        <time>2016-07-08T07:52:31Z</time>
      </trkpt>
      <trkpt lat="45.918170269578695" lon="7.3625563737005">
        <ele>2688.46</ele>
        <time>2016-07-08T07:52:44Z</time>
      </trkpt>
      <trkpt lat="45.918118469417095" lon="7.362514631822705">
        <ele>2689.9099999999999</ele>
        <time>2016-07-08T07:52:56Z</time>
      </trkpt>
      <trkpt lat="45.918091982603073" lon="7.362508261576295">
        <ele>2690.3899999999999</ele>
        <time>2016-07-08T07:53:01Z</time>
      </trkpt>
      <trkpt lat="45.918010007590055" lon="7.362468363717198">
        <ele>2691.3499999999999</ele>
        <time>2016-07-08T07:53:13Z</time>
      </trkpt>
      <trkpt lat="45.917990729212761" lon="7.362429304048419">
        <ele>2692.3099999999999</ele>
        <time>2016-07-08T07:53:23Z</time>
      </trkpt>
      <trkpt lat="45.917949322611094" lon="7.362317154183984">
        <ele>2693.27</ele>
        <time>2016-07-08T07:53:35Z</time>
      </trkpt>
      <trkpt lat="45.91791981831193" lon="7.362248003482819">
        <ele>2695.1900000000001</ele>
        <time>2016-07-08T07:53:46Z</time>
      </trkpt>
      <trkpt lat="45.917892996221781" lon="7.362156808376312">
        <ele>2695.6700000000001</ele>
        <time>2016-07-08T07:53:56Z</time>
      </trkpt>
      <trkpt lat="45.917836166918278" lon="7.362089166417718">
        <ele>2697.1199999999999</ele>
        <time>2016-07-08T07:54:08Z</time>
      </trkpt>
      <trkpt lat="45.917813871055841" lon="7.362048765644431">
        <ele>2697.1199999999999</ele>
        <time>2016-07-08T07:54:13Z</time>
      </trkpt>
      <trkpt lat="45.917783360928297" lon="7.361992858350277">
        <ele>2698.0799999999999</ele>
        <time>2016-07-08T07:54:19Z</time>
      </trkpt>
      <trkpt lat="45.917725190520287" lon="7.361903255805373">
        <ele>2699.04</ele>
        <time>2016-07-08T07:54:31Z</time>
      </trkpt>
      <trkpt lat="45.917701302096248" lon="7.361844750121236">
        <ele>2698.5599999999999</ele>
        <time>2016-07-08T07:54:42Z</time>
      </trkpt>
      <trkpt lat="45.917684705927968" lon="7.361834608018398">
        <ele>2700</ele>
        <time>2016-07-08T07:54:58Z</time>
      </trkpt>
      <trkpt lat="45.917638437822461" lon="7.361754728481174">
        <ele>2700</ele>
        <time>2016-07-08T07:55:09Z</time>
      </trkpt>
      <trkpt lat="45.917586553841829" lon="7.361724134534597">
        <ele>2699.52</ele>
        <time>2016-07-08T07:55:21Z</time>
      </trkpt>
      <trkpt lat="45.917528718709946" lon="7.361676609143615">
        <ele>2699.52</ele>
        <time>2016-07-08T07:55:30Z</time>
      </trkpt>
      <trkpt lat="45.91747960075736" lon="7.361600501462817">
        <ele>2699.04</ele>
        <time>2016-07-08T07:55:40Z</time>
      </trkpt>
      <trkpt lat="45.917426040396094" lon="7.361561609432101">
        <ele>2699.52</ele>
        <time>2016-07-08T07:55:51Z</time>
      </trkpt>
      <trkpt lat="45.917378095909953" lon="7.361478377133608">
        <ele>2700.48</ele>
        <time>2016-07-08T07:56:03Z</time>
      </trkpt>
      <trkpt lat="45.917371474206448" lon="7.361473934724927">
        <ele>2700.96</ele>
        <time>2016-07-08T07:56:04Z</time>
      </trkpt>
      <trkpt lat="45.917358733713627" lon="7.361410148441792">
        <ele>2701.9200000000001</ele>
        <time>2016-07-08T07:56:14Z</time>
      </trkpt>
      <trkpt lat="45.917343813925982" lon="7.361338818445802">
        <ele>2702.8800000000001</ele>
        <time>2016-07-08T07:56:24Z</time>
      </trkpt>
      <trkpt lat="45.917309448122978" lon="7.361279558390379">
        <ele>2703.3600000000001</ele>
        <time>2016-07-08T07:56:34Z</time>
      </trkpt>
      <trkpt lat="45.917280530557036" lon="7.361228596419096">
        <ele>2703.3600000000001</ele>
        <time>2016-07-08T07:56:44Z</time>
      </trkpt>
      <trkpt lat="45.917261084541678" lon="7.361154416576028">
        <ele>2703.8499999999999</ele>
        <time>2016-07-08T07:56:54Z</time>
      </trkpt>
      <trkpt lat="45.917219510301948" lon="7.361087528988719">
        <ele>2704.3299999999999</ele>
        <time>2016-07-08T07:57:06Z</time>
      </trkpt>
      <trkpt lat="45.917183384299278" lon="7.361027514562011">
        <ele>2704.3299999999999</ele>
        <time>2016-07-08T07:57:17Z</time>
      </trkpt>
      <trkpt lat="45.917158322408795" lon="7.360921818763018">
        <ele>2706.25</ele>
        <time>2016-07-08T07:57:29Z</time>
      </trkpt>
      <trkpt lat="45.917130243033171" lon="7.360847806558013">
        <ele>2707.21</ele>
        <time>2016-07-08T07:57:40Z</time>
      </trkpt>
      <trkpt lat="45.917083052918315" lon="7.360799359157682">
        <ele>2709.1300000000001</ele>
        <time>2016-07-08T07:57:51Z</time>
      </trkpt>
      <trkpt lat="45.917075844481587" lon="7.360741775482893">
        <ele>2710.0900000000001</ele>
        <time>2016-07-08T07:58:02Z</time>
      </trkpt>
      <trkpt lat="45.917065953835845" lon="7.36073138192296">
        <ele>2709.6100000000001</ele>
        <time>2016-07-08T07:58:17Z</time>
      </trkpt>
      <trkpt lat="45.917077353224158" lon="7.360732639208436">
        <ele>2710.5700000000002</ele>
        <time>2016-07-08T07:58:28Z</time>
      </trkpt>
      <trkpt lat="45.917079783976078" lon="7.360729034990072">
        <ele>2710.0900000000001</ele>
        <time>2016-07-08T07:58:37Z</time>
      </trkpt>
      <trkpt lat="45.917080622166395" lon="7.360705146566033">
        <ele>2710.5700000000002</ele>
        <time>2016-07-08T07:58:40Z</time>
      </trkpt>
      <trkpt lat="45.917097134515643" lon="7.360619818791747">
        <ele>2712.02</ele>
        <time>2016-07-08T07:58:50Z</time>
      </trkpt>
      <trkpt lat="45.917058074846864" lon="7.360569192096591">
        <ele>2712.98</ele>
        <time>2016-07-08T07:58:59Z</time>
      </trkpt>
      <trkpt lat="45.917065870016813" lon="7.360610011965036">
        <ele>2712.98</ele>
        <time>2016-07-08T07:59:15Z</time>
      </trkpt>
      <trkpt lat="45.917014572769403" lon="7.360574137419462">
        <ele>2712.5</ele>
        <time>2016-07-08T07:59:24Z</time>
      </trkpt>
      <trkpt lat="45.916993198916316" lon="7.360541447997093">
        <ele>2712.5</ele>
        <time>2016-07-08T07:59:33Z</time>
      </trkpt>
      <trkpt lat="45.916926227509975" lon="7.360544297844172">
        <ele>2711.0599999999999</ele>
        <time>2016-07-08T07:59:42Z</time>
      </trkpt>
      <trkpt lat="45.916908457875252" lon="7.360551087185741">
        <ele>2711.54</ele>
        <time>2016-07-08T07:59:59Z</time>
      </trkpt>
      <trkpt lat="45.916874511167407" lon="7.360572461038828">
        <ele>2710.5700000000002</ele>
        <time>2016-07-08T08:00:05Z</time>
      </trkpt>
      <trkpt lat="45.916787255555391" lon="7.360584866255522">
        <ele>2709.1300000000001</ele>
        <time>2016-07-08T08:00:15Z</time>
      </trkpt>
      <trkpt lat="45.916772251948714" lon="7.360636666417122">
        <ele>2707.21</ele>
        <time>2016-07-08T08:00:24Z</time>
      </trkpt>
      <trkpt lat="45.916734030470252" lon="7.360652759671211">
        <ele>2706.73</ele>
        <time>2016-07-08T08:00:33Z</time>
      </trkpt>
      <trkpt lat="45.916680302470922" lon="7.360694753006101">
        <ele>2706.25</ele>
        <time>2016-07-08T08:00:43Z</time>
      </trkpt>
      <trkpt lat="45.916622383520007" lon="7.360722832381725">
        <ele>2705.77</ele>
        <time>2016-07-08T08:00:52Z</time>
      </trkpt>
      <trkpt lat="45.916564967483282" lon="7.360721407458186">
        <ele>2706.73</ele>
        <time>2016-07-08T08:01:03Z</time>
      </trkpt>
      <trkpt lat="45.916517190635204" lon="7.360739931464195">
        <ele>2707.21</ele>
        <time>2016-07-08T08:01:12Z</time>
      </trkpt>
      <trkpt lat="45.916464552283287" lon="7.36073037609458">
        <ele>2707.6900000000001</ele>
        <time>2016-07-08T08:01:23Z</time>
      </trkpt>
      <trkpt lat="45.91646471992135" lon="7.360716043040156">
        <ele>2706.73</ele>
        <time>2016-07-08T08:01:39Z</time>
      </trkpt>
      <trkpt lat="45.916466563940048" lon="7.360696345567703">
        <ele>2706.73</ele>
        <time>2016-07-08T08:01:56Z</time>
      </trkpt>
      <trkpt lat="45.916492883116007" lon="7.36069324426353">
        <ele>2707.6900000000001</ele>
        <time>2016-07-08T08:02:08Z</time>
      </trkpt>
      <trkpt lat="45.91652330942452" lon="7.36071277409792">
        <ele>2707.6900000000001</ele>
        <time>2016-07-08T08:02:28Z</time>
      </trkpt>
      <trkpt lat="45.916473688557744" lon="7.360744373872876">
        <ele>2707.6900000000001</ele>
        <time>2016-07-08T08:02:46Z</time>
      </trkpt>
      <trkpt lat="45.916418200358748" lon="7.360723419114947">
        <ele>2708.1700000000001</ele>
        <time>2016-07-08T08:02:58Z</time>
      </trkpt>
      <trkpt lat="45.916363298892975" lon="7.360697351396084">
        <ele>2709.1300000000001</ele>
        <time>2016-07-08T08:03:07Z</time>
      </trkpt>
      <trkpt lat="45.916295237839222" lon="7.360663488507271">
        <ele>2709.1300000000001</ele>
        <time>2016-07-08T08:03:17Z</time>
      </trkpt>
      <trkpt lat="45.916240671649575" lon="7.360621159896255">
        <ele>2708.6500000000001</ele>
        <time>2016-07-08T08:03:24Z</time>
      </trkpt>
      <trkpt lat="45.916175963357091" lon="7.360563827678561">
        <ele>2709.1300000000001</ele>
        <time>2016-07-08T08:03:33Z</time>
      </trkpt>
      <trkpt lat="45.916103878989816" lon="7.360497275367379">
        <ele>2709.1300000000001</ele>
        <time>2016-07-08T08:03:44Z</time>
      </trkpt>
      <trkpt lat="45.916066411882639" lon="7.360453605651856">
        <ele>2710.0900000000001</ele>
        <time>2016-07-08T08:03:50Z</time>
      </trkpt>
      <trkpt lat="45.91599902138114" lon="7.360399290919304">
        <ele>2710.0900000000001</ele>
        <time>2016-07-08T08:04:01Z</time>
      </trkpt>
      <trkpt lat="45.91594135388732" lon="7.360367439687252">
        <ele>2710.5700000000002</ele>
        <time>2016-07-08T08:04:12Z</time>
      </trkpt>
      <trkpt lat="45.915889805182815" lon="7.360332990065217">
        <ele>2711.0599999999999</ele>
        <time>2016-07-08T08:04:22Z</time>
      </trkpt>
      <trkpt lat="45.915814870968461" lon="7.360323434695602">
        <ele>2712.5</ele>
        <time>2016-07-08T08:04:33Z</time>
      </trkpt>
      <trkpt lat="45.915777487680316" lon="7.360310610383749">
        <ele>2713.9400000000001</ele>
        <time>2016-07-08T08:04:43Z</time>
      </trkpt>
      <trkpt lat="45.915724178776145" lon="7.360233413055539">
        <ele>2714.9000000000001</ele>
        <time>2016-07-08T08:04:55Z</time>
      </trkpt>
      <trkpt lat="45.915687549859285" lon="7.360209692269564">
        <ele>2716.3400000000001</ele>
        <time>2016-07-08T08:05:05Z</time>
      </trkpt>
      <trkpt lat="45.915682436898351" lon="7.360231317579746">
        <ele>2716.3400000000001</ele>
        <time>2016-07-08T08:05:16Z</time>
      </trkpt>
      <trkpt lat="45.915639186277986" lon="7.360263168811798">
        <ele>2717.3000000000002</ele>
        <time>2016-07-08T08:05:25Z</time>
      </trkpt>
      <trkpt lat="45.915617477148771" lon="7.360249003395438">
        <ele>2718.27</ele>
        <time>2016-07-08T08:05:36Z</time>
      </trkpt>
      <trkpt lat="45.915596270933747" lon="7.360232407227159">
        <ele>2719.23</ele>
        <time>2016-07-08T08:05:47Z</time>
      </trkpt>
      <trkpt lat="45.915563078597188" lon="7.360185887664557">
        <ele>2719.71</ele>
        <time>2016-07-08T08:05:58Z</time>
      </trkpt>
      <trkpt lat="45.915541034191847" lon="7.360197119414806">
        <ele>2720.1900000000001</ele>
        <time>2016-07-08T08:06:10Z</time>
      </trkpt>
      <trkpt lat="45.915522510185838" lon="7.360154623165727">
        <ele>2720.1900000000001</ele>
        <time>2016-07-08T08:06:22Z</time>
      </trkpt>
      <trkpt lat="45.915510440245271" lon="7.360110953450203">
        <ele>2719.71</ele>
        <time>2016-07-08T08:06:30Z</time>
      </trkpt>
      <trkpt lat="45.915495604276657" lon="7.360140373930335">
        <ele>2720.1900000000001</ele>
        <time>2016-07-08T08:06:42Z</time>
      </trkpt>
      <trkpt lat="45.915499627590179" lon="7.360136937350035">
        <ele>2720.1900000000001</ele>
        <time>2016-07-08T08:07:05Z</time>
      </trkpt>
      <trkpt lat="45.915501220151782" lon="7.360135428607464">
        <ele>2720.1900000000001</ele>
        <time>2016-07-08T08:07:24Z</time>
      </trkpt>
      <trkpt lat="45.915453610941768" lon="7.360114390030503">
        <ele>2719.71</ele>
        <time>2016-07-08T08:07:33Z</time>
      </trkpt>
      <trkpt lat="45.915417736396194" lon="7.360101900994778">
        <ele>2719.71</ele>
        <time>2016-07-08T08:07:43Z</time>
      </trkpt>
      <trkpt lat="45.915415892377496" lon="7.360084718093276">
        <ele>2719.71</ele>
        <time>2016-07-08T08:07:54Z</time>
      </trkpt>
      <trkpt lat="45.915404157713056" lon="7.360065523535013">
        <ele>2720.1900000000001</ele>
        <time>2016-07-08T08:08:02Z</time>
      </trkpt>
      <trkpt lat="45.915334839373827" lon="7.360069798305631">
        <ele>2720.6700000000001</ele>
        <time>2016-07-08T08:08:13Z</time>
      </trkpt>
      <trkpt lat="45.915328050032258" lon="7.360080275684595">
        <ele>2721.1500000000001</ele>
        <time>2016-07-08T08:08:24Z</time>
      </trkpt>
      <trkpt lat="45.915318410843611" lon="7.360086981207132">
        <ele>2721.1500000000001</ele>
        <time>2016-07-08T08:08:36Z</time>
      </trkpt>
      <trkpt lat="45.915313046425581" lon="7.360094944015145">
        <ele>2721.6300000000001</ele>
        <time>2016-07-08T08:08:45Z</time>
      </trkpt>
      <trkpt lat="45.915279099717736" lon="7.360074408352375">
        <ele>2722.1100000000001</ele>
        <time>2016-07-08T08:08:56Z</time>
      </trkpt>
      <trkpt lat="45.915244817733765" lon="7.360037611797452">
        <ele>2722.5900000000001</ele>
        <time>2016-07-08T08:09:09Z</time>
      </trkpt>
      <trkpt lat="45.915227718651295" lon="7.360002575442195">
        <ele>2724.0300000000002</ele>
        <time>2016-07-08T08:09:19Z</time>
      </trkpt>
      <trkpt lat="45.915191508829594" lon="7.360003497451544">
        <ele>2724.9899999999998</ele>
        <time>2016-07-08T08:09:29Z</time>
      </trkpt>
      <trkpt lat="45.915135266259313" lon="7.359979189932346">
        <ele>2725.96</ele>
        <time>2016-07-08T08:09:40Z</time>
      </trkpt>
      <trkpt lat="45.915090087801218" lon="7.359947422519326">
        <ele>2727.8800000000001</ele>
        <time>2016-07-08T08:09:51Z</time>
      </trkpt>
      <trkpt lat="45.915044574066997" lon="7.359901741147041">
        <ele>2728.8400000000001</ele>
        <time>2016-07-08T08:10:01Z</time>
      </trkpt>
      <trkpt lat="45.914991097524762" lon="7.359857736155391">
        <ele>2729.8000000000002</ele>
        <time>2016-07-08T08:10:14Z</time>
      </trkpt>
      <trkpt lat="45.914946086704731" lon="7.3598313331604">
        <ele>2730.7600000000002</ele>
        <time>2016-07-08T08:10:24Z</time>
      </trkpt>
      <trkpt lat="45.914881965145469" lon="7.359780622646213">
        <ele>2731.2399999999998</ele>
        <time>2016-07-08T08:10:34Z</time>
      </trkpt>
      <trkpt lat="45.914819687604904" lon="7.359734522178769">
        <ele>2731.7199999999998</ele>
        <time>2016-07-08T08:10:46Z</time>
      </trkpt>
      <trkpt lat="45.91476084664464" lon="7.359665455296636">
        <ele>2733.1700000000001</ele>
        <time>2016-07-08T08:10:59Z</time>
      </trkpt>
      <trkpt lat="45.914682811126113" lon="7.359578954055905">
        <ele>2733.1700000000001</ele>
        <time>2016-07-08T08:11:11Z</time>
      </trkpt>
      <trkpt lat="45.914629502221942" lon="7.359535954892635">
        <ele>2732.6799999999998</ele>
        <time>2016-07-08T08:11:22Z</time>
      </trkpt>
      <trkpt lat="45.914573762565851" lon="7.359490105882287">
        <ele>2732.6799999999998</ele>
        <time>2016-07-08T08:11:35Z</time>
      </trkpt>
      <trkpt lat="45.91451802290976" lon="7.359432773664594">
        <ele>2732.6799999999998</ele>
        <time>2016-07-08T08:11:45Z</time>
      </trkpt>
      <trkpt lat="45.914446357637644" lon="7.359368400648236">
        <ele>2732.1999999999998</ele>
        <time>2016-07-08T08:11:56Z</time>
      </trkpt>
      <trkpt lat="45.914378380402923" lon="7.359310565516353">
        <ele>2732.1999999999998</ele>
        <time>2016-07-08T08:12:08Z</time>
      </trkpt>
      <trkpt lat="45.914314594119787" lon="7.359261028468609">
        <ele>2733.1700000000001</ele>
        <time>2016-07-08T08:12:19Z</time>
      </trkpt>
      <trkpt lat="45.914263883605599" lon="7.359218532219529">
        <ele>2733.1700000000001</ele>
        <time>2016-07-08T08:12:31Z</time>
      </trkpt>
      <trkpt lat="45.914205880835652" lon="7.359193973243237">
        <ele>2734.1300000000001</ele>
        <time>2016-07-08T08:12:43Z</time>
      </trkpt>
      <trkpt lat="45.91415056027472" lon="7.359152315184474">
        <ele>2735.0900000000001</ele>
        <time>2016-07-08T08:12:53Z</time>
      </trkpt>
      <trkpt lat="45.914093982428312" lon="7.359134880825877">
        <ele>2736.0500000000002</ele>
        <time>2016-07-08T08:13:03Z</time>
      </trkpt>
      <trkpt lat="45.914042433723807" lon="7.359110405668616">
        <ele>2736.5300000000002</ele>
        <time>2016-07-08T08:13:14Z</time>
      </trkpt>
      <trkpt lat="45.913991387933493" lon="7.359104957431555">
        <ele>2737.0100000000002</ele>
        <time>2016-07-08T08:13:24Z</time>
      </trkpt>
      <trkpt lat="45.913934307172894" lon="7.359062377363443">
        <ele>2737.4899999999998</ele>
        <time>2016-07-08T08:13:34Z</time>
      </trkpt>
      <trkpt lat="45.913876136764884" lon="7.359038488939405">
        <ele>2737.9699999999998</ele>
        <time>2016-07-08T08:13:44Z</time>
      </trkpt>
      <trkpt lat="45.913827940821648" lon="7.35901334322989">
        <ele>2738.9299999999998</ele>
        <time>2016-07-08T08:13:55Z</time>
      </trkpt>
      <trkpt lat="45.913801537826657" lon="7.359004877507687">
        <ele>2739.4099999999999</ele>
        <time>2016-07-08T08:14:09Z</time>
      </trkpt>
      <trkpt lat="45.913757113739848" lon="7.358976043760777">
        <ele>2740.3800000000001</ele>
        <time>2016-07-08T08:14:21Z</time>
      </trkpt>
      <trkpt lat="45.913760382682085" lon="7.358983503654599">
        <ele>2740.8600000000001</ele>
        <time>2016-07-08T08:14:32Z</time>
      </trkpt>
      <trkpt lat="45.913700703531504" lon="7.359000099822879">
        <ele>2741.8200000000002</ele>
        <time>2016-07-08T08:14:47Z</time>
      </trkpt>
      <trkpt lat="45.913665918633342" lon="7.359012672677636">
        <ele>2742.3000000000002</ele>
        <time>2016-07-08T08:14:54Z</time>
      </trkpt>
      <trkpt lat="45.9136145375669" lon="7.359026921913028">
        <ele>2743.2600000000002</ele>
        <time>2016-07-08T08:15:05Z</time>
      </trkpt>
      <trkpt lat="45.91358570381999" lon="7.359022982418537">
        <ele>2743.7399999999998</ele>
        <time>2016-07-08T08:15:10Z</time>
      </trkpt>
      <trkpt lat="45.913489814847708" lon="7.359065394848585">
        <ele>2743.7399999999998</ele>
        <time>2016-07-08T08:15:21Z</time>
      </trkpt>
      <trkpt lat="45.913424268364906" lon="7.359116273000836">
        <ele>2743.2600000000002</ele>
        <time>2016-07-08T08:15:30Z</time>
      </trkpt>
      <trkpt lat="45.913375485688448" lon="7.359139574691653">
        <ele>2743.2600000000002</ele>
        <time>2016-07-08T08:15:37Z</time>
      </trkpt>
      <trkpt lat="45.913370372727513" lon="7.359147202223539">
        <ele>2743.2600000000002</ele>
        <time>2016-07-08T08:15:38Z</time>
      </trkpt>
      <trkpt lat="45.91331890784204" lon="7.359190704301">
        <ele>2743.2600000000002</ele>
        <time>2016-07-08T08:15:45Z</time>
      </trkpt>
      <trkpt lat="45.913269706070423" lon="7.359194559976459">
        <ele>2744.2199999999998</ele>
        <time>2016-07-08T08:15:52Z</time>
      </trkpt>
      <trkpt lat="45.913187647238374" lon="7.359220460057259">
        <ele>2744.6999999999998</ele>
        <time>2016-07-08T08:16:03Z</time>
      </trkpt>
      <trkpt lat="45.913182618096471" lon="7.359222639352083">
        <ele>2744.2199999999998</ele>
        <time>2016-07-08T08:16:04Z</time>
      </trkpt>
      <trkpt lat="45.913110785186291" lon="7.359220208600164">
        <ele>2745.1799999999998</ele>
        <time>2016-07-08T08:16:15Z</time>
      </trkpt>
      <trkpt lat="45.913083711639047" lon="7.359236469492316">
        <ele>2745.6599999999999</ele>
        <time>2016-07-08T08:16:22Z</time>
      </trkpt>
      <trkpt lat="45.91306627728045" lon="7.359242755919695">
        <ele>2745.6599999999999</ele>
        <time>2016-07-08T08:16:24Z</time>
      </trkpt>
      <trkpt lat="45.912993773818016" lon="7.359244180843234">
        <ele>2747.5900000000001</ele>
        <time>2016-07-08T08:16:35Z</time>
      </trkpt>
      <trkpt lat="45.91293090954423" lon="7.35923127271235">
        <ele>2748.5500000000002</ele>
        <time>2016-07-08T08:16:42Z</time>
      </trkpt>
      <trkpt lat="45.912875337526202" lon="7.359258010983467">
        <ele>2749.9899999999998</ele>
        <time>2016-07-08T08:16:54Z</time>
      </trkpt>
      <trkpt lat="45.912911128252745" lon="7.359248623251915">
        <ele>2750.4699999999998</ele>
        <time>2016-07-08T08:17:10Z</time>
      </trkpt>
      <trkpt lat="45.912893107160926" lon="7.359223896637559">
        <ele>2750.4699999999998</ele>
        <time>2016-07-08T08:17:27Z</time>
      </trkpt>
      <trkpt lat="45.912812808528543" lon="7.359207719564438">
        <ele>2751.4299999999998</ele>
        <time>2016-07-08T08:17:37Z</time>
      </trkpt>
      <trkpt lat="45.912756063044071" lon="7.359179724007845">
        <ele>2751.9099999999999</ele>
        <time>2016-07-08T08:17:44Z</time>
      </trkpt>
      <trkpt lat="45.912666292861104" lon="7.359142592176795">
        <ele>2752.3899999999999</ele>
        <time>2016-07-08T08:17:55Z</time>
      </trkpt>
      <trkpt lat="45.912590436637402" lon="7.359096491709352">
        <ele>2752.3899999999999</ele>
        <time>2016-07-08T08:18:04Z</time>
      </trkpt>
      <trkpt lat="45.912587670609355" lon="7.359089618548751">
        <ele>2752.3899999999999</ele>
        <time>2016-07-08T08:18:15Z</time>
      </trkpt>
      <trkpt lat="45.912535199895501" lon="7.359078470617533">
        <ele>2752.3899999999999</ele>
        <time>2016-07-08T08:18:25Z</time>
      </trkpt>
      <trkpt lat="45.912446519359946" lon="7.359054330736399">
        <ele>2753.3499999999999</ele>
        <time>2016-07-08T08:18:36Z</time>
      </trkpt>
      <trkpt lat="45.912414500489831" lon="7.359042009338737">
        <ele>2753.8299999999999</ele>
        <time>2016-07-08T08:18:40Z</time>
      </trkpt>
      <trkpt lat="45.912372674793005" lon="7.359045278280973">
        <ele>2753.8299999999999</ele>
        <time>2016-07-08T08:18:44Z</time>
      </trkpt>
      <trkpt lat="45.912288604304194" lon="7.359026251360774">
        <ele>2754.3099999999999</ele>
        <time>2016-07-08T08:18:54Z</time>
      </trkpt>
      <trkpt lat="45.912252562120557" lon="7.359044020995498">
        <ele>2754.8000000000002</ele>
        <time>2016-07-08T08:19:03Z</time>
      </trkpt>
      <trkpt lat="45.912226410582662" lon="7.359004626050592">
        <ele>2753.8299999999999</ele>
        <time>2016-07-08T08:19:13Z</time>
      </trkpt>
      <trkpt lat="45.912202773615718" lon="7.358991717919707">
        <ele>2755.2800000000002</ele>
        <time>2016-07-08T08:19:24Z</time>
      </trkpt>
      <trkpt lat="45.912187099456787" lon="7.358993561938405">
        <ele>2755.7600000000002</ele>
        <time>2016-07-08T08:19:27Z</time>
      </trkpt>
      <trkpt lat="45.912122307345271" lon="7.358998171985149">
        <ele>2755.7600000000002</ele>
        <time>2016-07-08T08:19:33Z</time>
      </trkpt>
      <trkpt lat="45.912086768075824" lon="7.358952574431896">
        <ele>2756.2399999999998</ele>
        <time>2016-07-08T08:19:40Z</time>
      </trkpt>
      <trkpt lat="45.912012169137597" lon="7.358929524198175">
        <ele>2756.7199999999998</ele>
        <time>2016-07-08T08:19:52Z</time>
      </trkpt>
      <trkpt lat="45.911959949880838" lon="7.358893733471632">
        <ele>2758.6399999999999</ele>
        <time>2016-07-08T08:20:02Z</time>
      </trkpt>
      <trkpt lat="45.911891805008054" lon="7.358873197808862">
        <ele>2760.0799999999999</ele>
        <time>2016-07-08T08:20:14Z</time>
      </trkpt>
      <trkpt lat="45.911826929077506" lon="7.358846627175808">
        <ele>2761.52</ele>
        <time>2016-07-08T08:20:25Z</time>
      </trkpt>
      <trkpt lat="45.911750486120582" lon="7.358780074864626">
        <ele>2762.4899999999998</ele>
        <time>2016-07-08T08:20:38Z</time>
      </trkpt>
      <trkpt lat="45.911713102832437" lon="7.358715618029237">
        <ele>2763.4499999999998</ele>
        <time>2016-07-08T08:20:48Z</time>
      </trkpt>
      <trkpt lat="45.91168544255197" lon="7.358650742098689">
        <ele>2764.8899999999999</ele>
        <time>2016-07-08T08:21:00Z</time>
      </trkpt>
      <trkpt lat="45.911635989323258" lon="7.358627440407872">
        <ele>2765.8499999999999</ele>
        <time>2016-07-08T08:21:10Z</time>
      </trkpt>
      <trkpt lat="45.911565162241459" lon="7.358582429587841">
        <ele>2766.3299999999999</ele>
        <time>2016-07-08T08:21:22Z</time>
      </trkpt>
      <trkpt lat="45.911511518061161" lon="7.358541358262301">
        <ele>2766.3299999999999</ele>
        <time>2016-07-08T08:21:32Z</time>
      </trkpt>
      <trkpt lat="45.911451252177358" lon="7.358495509251952">
        <ele>2766.8099999999999</ele>
        <time>2016-07-08T08:21:42Z</time>
      </trkpt>
      <trkpt lat="45.911404313519597" lon="7.358444128185511">
        <ele>2767.29</ele>
        <time>2016-07-08T08:21:53Z</time>
      </trkpt>
      <trkpt lat="45.911360057070851" lon="7.358384449034929">
        <ele>2768.25</ele>
        <time>2016-07-08T08:22:03Z</time>
      </trkpt>
      <trkpt lat="45.911308927461505" lon="7.358328122645617">
        <ele>2768.73</ele>
        <time>2016-07-08T08:22:14Z</time>
      </trkpt>
      <trkpt lat="45.911254109814763" lon="7.35827062278986">
        <ele>2769.6999999999998</ele>
        <time>2016-07-08T08:22:25Z</time>
      </trkpt>
      <trkpt lat="45.911211781203747" lon="7.35821002162993">
        <ele>2770.6599999999999</ele>
        <time>2016-07-08T08:22:37Z</time>
      </trkpt>
      <trkpt lat="45.911157382652164" lon="7.358143553137779">
        <ele>2771.6199999999999</ele>
        <time>2016-07-08T08:22:49Z</time>
      </trkpt>
      <trkpt lat="45.911127291619778" lon="7.35812796279788">
        <ele>2772.0999999999999</ele>
        <time>2016-07-08T08:23:01Z</time>
      </trkpt>
      <trkpt lat="45.911088148131967" lon="7.358100051060319">
        <ele>2772.5799999999999</ele>
        <time>2016-07-08T08:23:12Z</time>
      </trkpt>
      <trkpt lat="45.911038862541318" lon="7.358041042461991">
        <ele>2773.54</ele>
        <time>2016-07-08T08:23:25Z</time>
      </trkpt>
      <trkpt lat="45.910985302180052" lon="7.357986895367503">
        <ele>2774.5</ele>
        <time>2016-07-08T08:23:36Z</time>
      </trkpt>
      <trkpt lat="45.910927299410105" lon="7.35793836414814">
        <ele>2774.98</ele>
        <time>2016-07-08T08:23:47Z</time>
      </trkpt>
      <trkpt lat="45.910873990505934" lon="7.357909195125103">
        <ele>2775.9400000000001</ele>
        <time>2016-07-08T08:23:56Z</time>
      </trkpt>
      <trkpt lat="45.910876840353012" lon="7.357889665290713">
        <ele>2776.4200000000001</ele>
        <time>2016-07-08T08:24:08Z</time>
      </trkpt>
      <trkpt lat="45.910849431529641" lon="7.3578523658216">
        <ele>2776.4200000000001</ele>
        <time>2016-07-08T08:24:20Z</time>
      </trkpt>
      <trkpt lat="45.910786231979728" lon="7.35780006274581">
        <ele>2777.3899999999999</ele>
        <time>2016-07-08T08:24:34Z</time>
      </trkpt>
      <trkpt lat="45.910730408504605" lon="7.357756979763508">
        <ele>2777.8699999999999</ele>
        <time>2016-07-08T08:24:48Z</time>
      </trkpt>
      <trkpt lat="45.910681122913957" lon="7.357701072469354">
        <ele>2778.8299999999999</ele>
        <time>2016-07-08T08:24:58Z</time>
      </trkpt>
      <trkpt lat="45.910648517310619" lon="7.357653127983213">
        <ele>2780.27</ele>
        <time>2016-07-08T08:25:08Z</time>
      </trkpt>
      <trkpt lat="45.910611553117633" lon="7.357596047222614">
        <ele>2781.71</ele>
        <time>2016-07-08T08:25:21Z</time>
      </trkpt>
      <trkpt lat="45.910570733249187" lon="7.35753477551043">
        <ele>2783.1500000000001</ele>
        <time>2016-07-08T08:25:35Z</time>
      </trkpt>
      <trkpt lat="45.910586826503277" lon="7.357517424970865">
        <ele>2783.1500000000001</ele>
        <time>2016-07-08T08:25:51Z</time>
      </trkpt>
      <trkpt lat="45.910572493448853" lon="7.357485322281718">
        <ele>2784.1199999999999</ele>
        <time>2016-07-08T08:26:02Z</time>
      </trkpt>
      <trkpt lat="45.910559417679906" lon="7.357440060004592">
        <ele>2785.5599999999999</ele>
        <time>2016-07-08T08:26:14Z</time>
      </trkpt>
      <trkpt lat="45.910526812076569" lon="7.357389098033309">
        <ele>2787.48</ele>
        <time>2016-07-08T08:26:25Z</time>
      </trkpt>
      <trkpt lat="45.910501750186086" lon="7.357362108305097">
        <ele>2788.4400000000001</ele>
        <time>2016-07-08T08:26:37Z</time>
      </trkpt>
      <trkpt lat="45.910481382161379" lon="7.357328999787569">
        <ele>2789.4000000000001</ele>
        <time>2016-07-08T08:26:47Z</time>
      </trkpt>
      <trkpt lat="45.910476604476571" lon="7.357277115806937">
        <ele>2790.8400000000001</ele>
        <time>2016-07-08T08:26:58Z</time>
      </trkpt>
      <trkpt lat="45.910458164289594" lon="7.357260771095753">
        <ele>2791.8099999999999</ele>
        <time>2016-07-08T08:27:10Z</time>
      </trkpt>
      <trkpt lat="45.910436455160379" lon="7.357267644256353">
        <ele>2792.29</ele>
        <time>2016-07-08T08:27:22Z</time>
      </trkpt>
      <trkpt lat="45.910433353856206" lon="7.357231602072716">
        <ele>2793.73</ele>
        <time>2016-07-08T08:27:31Z</time>
      </trkpt>
      <trkpt lat="45.910405106842518" lon="7.357148285955191">
        <ele>2795.6500000000001</ele>
        <time>2016-07-08T08:27:43Z</time>
      </trkpt>
      <trkpt lat="45.910390773788095" lon="7.357071675360203">
        <ele>2797.5700000000002</ele>
        <time>2016-07-08T08:27:54Z</time>
      </trkpt>
      <trkpt lat="45.910388259217143" lon="7.356995148584247">
        <ele>2799.02</ele>
        <time>2016-07-08T08:28:05Z</time>
      </trkpt>
      <trkpt lat="45.910389684140682" lon="7.356944940984249">
        <ele>2800.46</ele>
        <time>2016-07-08T08:28:15Z</time>
      </trkpt>
      <trkpt lat="45.910395132377744" lon="7.356882328167558">
        <ele>2801.9000000000001</ele>
        <time>2016-07-08T08:28:25Z</time>
      </trkpt>
      <trkpt lat="45.910406615585089" lon="7.35688392072916">
        <ele>2801.9000000000001</ele>
        <time>2016-07-08T08:28:34Z</time>
      </trkpt>
      <trkpt lat="45.910416506230831" lon="7.356882244348526">
        <ele>2801.9000000000001</ele>
        <time>2016-07-08T08:28:50Z</time>
      </trkpt>
      <trkpt lat="45.910415081307292" lon="7.356890961527824">
        <ele>2802.3800000000001</ele>
        <time>2016-07-08T08:29:02Z</time>
      </trkpt>
      <trkpt lat="45.910397227853537" lon="7.356914263218641">
        <ele>2802.8600000000001</ele>
        <time>2016-07-08T08:29:21Z</time>
      </trkpt>
      <trkpt lat="45.910389767959714" lon="7.356829773634672">
        <ele>2803.3400000000001</ele>
        <time>2016-07-08T08:29:33Z</time>
      </trkpt>
      <trkpt lat="45.910409800708294" lon="7.356748636811972">
        <ele>2805.2600000000002</ele>
        <time>2016-07-08T08:29:43Z</time>
      </trkpt>
      <trkpt lat="45.910402592271566" lon="7.356720976531506">
        <ele>2805.2600000000002</ele>
        <time>2016-07-08T08:29:59Z</time>
      </trkpt>
      <trkpt lat="45.910423379391432" lon="7.356610586866736">
        <ele>2807.1900000000001</ele>
        <time>2016-07-08T08:30:13Z</time>
      </trkpt>
      <trkpt lat="45.910485321655869" lon="7.356558786705136">
        <ele>2809.1100000000001</ele>
        <time>2016-07-08T08:30:24Z</time>
      </trkpt>
      <trkpt lat="45.910537205636501" lon="7.356575718149543">
        <ele>2811.0300000000002</ele>
        <time>2016-07-08T08:30:33Z</time>
      </trkpt>
      <trkpt lat="45.910578779876232" lon="7.35654235817492">
        <ele>2810.5500000000002</ele>
        <time>2016-07-08T08:30:42Z</time>
      </trkpt>
      <trkpt lat="45.910599147900939" lon="7.356557110324502">
        <ele>2810.0700000000002</ele>
        <time>2016-07-08T08:30:58Z</time>
      </trkpt>
      <trkpt lat="45.910604847595096" lon="7.356541017070413">
        <ele>2810.5500000000002</ele>
        <time>2016-07-08T08:31:13Z</time>
      </trkpt>
      <trkpt lat="45.910572661086917" lon="7.356525678187609">
        <ele>2810.5500000000002</ele>
        <time>2016-07-08T08:31:23Z</time>
      </trkpt>
      <trkpt lat="45.910550616681576" lon="7.356535736471415">
        <ele>2810.5500000000002</ele>
        <time>2016-07-08T08:31:35Z</time>
      </trkpt>
      <trkpt lat="45.910544581711292" lon="7.356556858867407">
        <ele>2810.5500000000002</ele>
        <time>2016-07-08T08:31:47Z</time>
      </trkpt>
      <trkpt lat="45.910534104332328" lon="7.356576891615987">
        <ele>2810.0700000000002</ele>
        <time>2016-07-08T08:31:59Z</time>
      </trkpt>
      <trkpt lat="45.910497978329659" lon="7.356583932414651">
        <ele>2809.5900000000001</ele>
        <time>2016-07-08T08:32:09Z</time>
      </trkpt>
      <trkpt lat="45.910536199808121" lon="7.356577729806304">
        <ele>2810.0700000000002</ele>
        <time>2016-07-08T08:32:16Z</time>
      </trkpt>
      <trkpt lat="45.910567464306951" lon="7.356579573825002">
        <ele>2810.5500000000002</ele>
        <time>2016-07-08T08:32:20Z</time>
      </trkpt>
      <trkpt lat="45.910608284175396" lon="7.356558451429009">
        <ele>2811.0300000000002</ele>
        <time>2016-07-08T08:32:26Z</time>
      </trkpt>
      <trkpt lat="45.910626389086246" lon="7.356607234105468">
        <ele>2811.5100000000002</ele>
        <time>2016-07-08T08:32:34Z</time>
      </trkpt>
      <trkpt lat="45.910625383257866" lon="7.356615783646703">
        <ele>2810.5500000000002</ele>
        <time>2016-07-08T08:32:43Z</time>
      </trkpt>
      <trkpt lat="45.910567631945014" lon="7.356546549126506">
        <ele>2811.0300000000002</ele>
        <time>2016-07-08T08:32:57Z</time>
      </trkpt>
      <trkpt lat="45.910585485398769" lon="7.356510842218995">
        <ele>2811.5100000000002</ele>
        <time>2016-07-08T08:33:07Z</time>
      </trkpt>
      <trkpt lat="45.91057718731463" lon="7.35654185526073">
        <ele>2811.5100000000002</ele>
        <time>2016-07-08T08:33:20Z</time>
      </trkpt>
      <trkpt lat="45.91056008823216" lon="7.356524001806974">
        <ele>2811.5100000000002</ele>
        <time>2016-07-08T08:33:24Z</time>
      </trkpt>
      <trkpt lat="45.910514993593097" lon="7.356486702337861">
        <ele>2811.0300000000002</ele>
        <time>2016-07-08T08:33:29Z</time>
      </trkpt>
      <trkpt lat="45.910481801256537" lon="7.356447810307145">
        <ele>2810.0700000000002</ele>
        <time>2016-07-08T08:33:33Z</time>
      </trkpt>
      <trkpt lat="45.910333273932338" lon="7.356505142524838">
        <ele>2808.6300000000001</ele>
        <time>2016-07-08T08:33:47Z</time>
      </trkpt>
      <trkpt lat="45.910299746319652" lon="7.356540346518159">
        <ele>2807.6700000000001</ele>
        <time>2016-07-08T08:33:50Z</time>
      </trkpt>
      <trkpt lat="45.910238474607468" lon="7.356537664309144">
        <ele>2807.1900000000001</ele>
        <time>2016-07-08T08:33:58Z</time>
      </trkpt>
      <trkpt lat="45.91020293533802" lon="7.356527354568243">
        <ele>2807.6700000000001</ele>
        <time>2016-07-08T08:34:09Z</time>
      </trkpt>
      <trkpt lat="45.910203270614147" lon="7.356448648497462">
        <ele>2808.1500000000001</ele>
        <time>2016-07-08T08:34:18Z</time>
      </trkpt>
      <trkpt lat="45.910199163481593" lon="7.356437835842371">
        <ele>2807.6700000000001</ele>
        <time>2016-07-08T08:34:19Z</time>
      </trkpt>
      <trkpt lat="45.910181477665901" lon="7.356423251330853">
        <ele>2808.1500000000001</ele>
        <time>2016-07-08T08:34:21Z</time>
      </trkpt>
      <trkpt lat="45.910142585635185" lon="7.356407158076763">
        <ele>2808.6300000000001</ele>
        <time>2016-07-08T08:34:25Z</time>
      </trkpt>
      <trkpt lat="45.910025155171752" lon="7.356349742040038">
        <ele>2809.5900000000001</ele>
        <time>2016-07-08T08:34:39Z</time>
      </trkpt>
      <trkpt lat="45.909909401088953" lon="7.356309089809656">
        <ele>2808.6300000000001</ele>
        <time>2016-07-08T08:34:49Z</time>
      </trkpt>
      <trkpt lat="45.909816697239876" lon="7.35624966211617">
        <ele>2808.6300000000001</ele>
        <time>2016-07-08T08:34:57Z</time>
      </trkpt>
      <trkpt lat="45.909707564860582" lon="7.35617296770215">
        <ele>2809.1100000000001</ele>
        <time>2016-07-08T08:35:09Z</time>
      </trkpt>
      <trkpt lat="45.909606646746397" lon="7.356127370148897">
        <ele>2809.5900000000001</ele>
        <time>2016-07-08T08:35:18Z</time>
      </trkpt>
      <trkpt lat="45.909568760544062" lon="7.356091411784291">
        <ele>2809.1100000000001</ele>
        <time>2016-07-08T08:35:22Z</time>
      </trkpt>
      <trkpt lat="45.909509332850575" lon="7.356062158942223">
        <ele>2808.6300000000001</ele>
        <time>2016-07-08T08:35:27Z</time>
      </trkpt>
      <trkpt lat="45.909463902935386" lon="7.356010694056749">
        <ele>2808.1500000000001</ele>
        <time>2016-07-08T08:35:32Z</time>
      </trkpt>
      <trkpt lat="45.909387543797493" lon="7.35594573430717">
        <ele>2806.71</ele>
        <time>2016-07-08T08:35:43Z</time>
      </trkpt>
      <trkpt lat="45.909437667578459" lon="7.35598336905241">
        <ele>2807.1900000000001</ele>
        <time>2016-07-08T08:35:53Z</time>
      </trkpt>
      <trkpt lat="45.909494748339057" lon="7.356050256639719">
        <ele>2808.6300000000001</ele>
        <time>2016-07-08T08:36:03Z</time>
      </trkpt>
      <trkpt lat="45.909536322578788" lon="7.356062829494476">
        <ele>2809.1100000000001</ele>
        <time>2016-07-08T08:36:13Z</time>
      </trkpt>
      <trkpt lat="45.909544201567769" lon="7.35608889721334">
        <ele>2809.1100000000001</ele>
        <time>2016-07-08T08:36:20Z</time>
      </trkpt>
      <trkpt lat="45.909635396674275" lon="7.356157545000315">
        <ele>2809.1100000000001</ele>
        <time>2016-07-08T08:36:31Z</time>
      </trkpt>
      <trkpt lat="45.909764645621181" lon="7.356226779520512">
        <ele>2809.1100000000001</ele>
        <time>2016-07-08T08:36:43Z</time>
      </trkpt>
      <trkpt lat="45.909911328926682" lon="7.356300791725516">
        <ele>2809.1100000000001</ele>
        <time>2016-07-08T08:36:56Z</time>
      </trkpt>
      <trkpt lat="45.910012247040868" lon="7.356351753696799">
        <ele>2809.5900000000001</ele>
        <time>2016-07-08T08:37:06Z</time>
      </trkpt>
      <trkpt lat="45.910140573978424" lon="7.356424843892455">
        <ele>2809.1100000000001</ele>
        <time>2016-07-08T08:37:18Z</time>
      </trkpt>
      <trkpt lat="45.910139149054885" lon="7.356428364291787">
        <ele>2809.1100000000001</ele>
        <time>2016-07-08T08:37:30Z</time>
      </trkpt>
      <trkpt lat="45.910179801285267" lon="7.356451833620668">
        <ele>2808.6300000000001</ele>
        <time>2016-07-08T08:37:36Z</time>
      </trkpt>
      <trkpt lat="45.910260770469904" lon="7.356513105332851">
        <ele>2807.6700000000001</ele>
        <time>2016-07-08T08:37:44Z</time>
      </trkpt>
      <trkpt lat="45.910319359973073" lon="7.356515452265739">
        <ele>2807.6700000000001</ele>
        <time>2016-07-08T08:37:50Z</time>
      </trkpt>
      <trkpt lat="45.910441568121314" lon="7.356530288234353">
        <ele>2810.0700000000002</ele>
        <time>2016-07-08T08:38:02Z</time>
      </trkpt>
      <trkpt lat="45.910493368282914" lon="7.356553338468075">
        <ele>2810.0700000000002</ele>
        <time>2016-07-08T08:38:11Z</time>
      </trkpt>
      <trkpt lat="45.910510718822479" lon="7.356553757563233">
        <ele>2809.5900000000001</ele>
        <time>2016-07-08T08:38:21Z</time>
      </trkpt>
      <trkpt lat="45.910508958622813" lon="7.356565743684769">
        <ele>2809.5900000000001</ele>
        <time>2016-07-08T08:38:42Z</time>
      </trkpt>
      <trkpt lat="45.910509545356035" lon="7.3565364908427">
        <ele>2809.5900000000001</ele>
        <time>2016-07-08T08:38:52Z</time>
      </trkpt>
      <trkpt lat="45.910515915602446" lon="7.356543699279428">
        <ele>2809.5900000000001</ele>
        <time>2016-07-08T08:39:17Z</time>
      </trkpt>
      <trkpt lat="45.910515915602446" lon="7.356516038998961">
        <ele>2809.5900000000001</ele>
        <time>2016-07-08T08:39:40Z</time>
      </trkpt>
      <trkpt lat="45.910513820126653" lon="7.356530372053385">
        <ele>2809.5900000000001</ele>
        <time>2016-07-08T08:40:02Z</time>
      </trkpt>
      <trkpt lat="45.910527063533664" lon="7.356525678187609">
        <ele>2810.0700000000002</ele>
        <time>2016-07-08T08:40:27Z</time>
      </trkpt>
      <trkpt lat="45.910526057705283" lon="7.35651352442801">
        <ele>2810.0700000000002</ele>
        <time>2016-07-08T08:40:47Z</time>
      </trkpt>
      <trkpt lat="45.910525973886251" lon="7.356523247435689">
        <ele>2810.0700000000002</ele>
        <time>2016-07-08T08:41:13Z</time>
      </trkpt>
      <trkpt lat="45.910536199808121" lon="7.356518805027008">
        <ele>2810.0700000000002</ele>
        <time>2016-07-08T08:41:30Z</time>
      </trkpt>
      <trkpt lat="45.910552628338337" lon="7.356512937694788">
        <ele>2810.0700000000002</ele>
        <time>2016-07-08T08:41:53Z</time>
      </trkpt>
      <trkpt lat="45.910546174272895" lon="7.356520229950547">
        <ele>2810.5500000000002</ele>
        <time>2016-07-08T08:42:16Z</time>
      </trkpt>
      <trkpt lat="45.910539217293262" lon="7.356492066755891">
        <ele>2810.5500000000002</ele>
        <time>2016-07-08T08:42:43Z</time>
      </trkpt>
      <trkpt lat="45.910536367446184" lon="7.356507908552885">
        <ele>2810.5500000000002</ele>
        <time>2016-07-08T08:43:00Z</time>
      </trkpt>
      <trkpt lat="45.910538462921977" lon="7.356505980715156">
        <ele>2810.5500000000002</ele>
        <time>2016-07-08T08:43:30Z</time>
      </trkpt>
      <trkpt lat="45.910537457093596" lon="7.356493743136525">
        <ele>2810.5500000000002</ele>
        <time>2016-07-08T08:43:53Z</time>
      </trkpt>
      <trkpt lat="45.910535864531994" lon="7.356495838612318">
        <ele>2810.5500000000002</ele>
        <time>2016-07-08T08:44:17Z</time>
      </trkpt>
      <trkpt lat="45.910529745742679" lon="7.356495587155223">
        <ele>2811.0300000000002</ele>
        <time>2016-07-08T08:44:46Z</time>
      </trkpt>
      <trkpt lat="45.910541480407119" lon="7.356485277414322">
        <ele>2810.5500000000002</ele>
        <time>2016-07-08T08:45:14Z</time>
      </trkpt>
      <trkpt lat="45.91052052564919" lon="7.356508411467075">
        <ele>2811.0300000000002</ele>
        <time>2016-07-08T08:45:36Z</time>
      </trkpt>
      <trkpt lat="45.910498313605785" lon="7.356515368446708">
        <ele>2811.0300000000002</ele>
        <time>2016-07-08T08:45:53Z</time>
      </trkpt>
      <trkpt lat="45.9105009958148" lon="7.356529030948877">
        <ele>2811.0300000000002</ele>
        <time>2016-07-08T08:46:11Z</time>
      </trkpt>
      <trkpt lat="45.910499319434166" lon="7.356529450044036">
        <ele>2811.5100000000002</ele>
        <time>2016-07-08T08:46:32Z</time>
      </trkpt>
      <trkpt lat="45.910508707165718" lon="7.35651696100831">
        <ele>2811.0300000000002</ele>
        <time>2016-07-08T08:46:55Z</time>
      </trkpt>
      <trkpt lat="45.910510048270226" lon="7.356542022898793">
        <ele>2811.0300000000002</ele>
        <time>2016-07-08T08:47:18Z</time>
      </trkpt>
      <trkpt lat="45.91050979681313" lon="7.356535401195288">
        <ele>2811.5100000000002</ele>
        <time>2016-07-08T08:47:41Z</time>
      </trkpt>
      <trkpt lat="45.910522621124983" lon="7.35654185526073">
        <ele>2811.5100000000002</ele>
        <time>2016-07-08T08:47:58Z</time>
      </trkpt>
      <trkpt lat="45.910510215908289" lon="7.356531377881765">
        <ele>2811.5100000000002</ele>
        <time>2016-07-08T08:48:17Z</time>
      </trkpt>
      <trkpt lat="45.910521699115634" lon="7.35651696100831">
        <ele>2811.5100000000002</ele>
        <time>2016-07-08T08:48:41Z</time>
      </trkpt>
      <trkpt lat="45.910513903945684" lon="7.356509417295456">
        <ele>2811.9899999999998</ele>
        <time>2016-07-08T08:48:58Z</time>
      </trkpt>
      <trkpt lat="45.910518178716302" lon="7.356501957401633">
        <ele>2811.9899999999998</ele>
        <time>2016-07-08T08:49:20Z</time>
      </trkpt>
      <trkpt lat="45.910526812076569" lon="7.356497682631016">
        <ele>2811.9899999999998</ele>
        <time>2016-07-08T08:49:37Z</time>
      </trkpt>
      <trkpt lat="45.910522704944015" lon="7.356509752571583">
        <ele>2811.9899999999998</ele>
        <time>2016-07-08T08:50:00Z</time>
      </trkpt>
      <trkpt lat="45.910519436001778" lon="7.356515536084771">
        <ele>2812.4699999999998</ele>
        <time>2016-07-08T08:50:21Z</time>
      </trkpt>
      <trkpt lat="45.910513065755367" lon="7.356520481407642">
        <ele>2812.4699999999998</ele>
        <time>2016-07-08T08:50:38Z</time>
      </trkpt>
      <trkpt lat="45.910512981936336" lon="7.356523834168911">
        <ele>2812.4699999999998</ele>
        <time>2016-07-08T08:50:56Z</time>
      </trkpt>
      <trkpt lat="45.910538295283914" lon="7.356524085626006">
        <ele>2812.96</ele>
        <time>2016-07-08T08:51:16Z</time>
      </trkpt>
      <trkpt lat="45.910527650266886" lon="7.356523163616657">
        <ele>2812.96</ele>
        <time>2016-07-08T08:51:39Z</time>
      </trkpt>
      <trkpt lat="45.910520609468222" lon="7.356523247435689">
        <ele>2812.96</ele>
        <time>2016-07-08T08:51:59Z</time>
      </trkpt>
      <trkpt lat="45.910516921430826" lon="7.356530958786607">
        <ele>2812.96</ele>
        <time>2016-07-08T08:52:17Z</time>
      </trkpt>
      <trkpt lat="45.910510551184416" lon="7.356530958786607">
        <ele>2813.4400000000001</ele>
        <time>2016-07-08T08:52:42Z</time>
      </trkpt>
      <trkpt lat="45.910537876188755" lon="7.356509417295456">
        <ele>2812.96</ele>
        <time>2016-07-08T08:52:57Z</time>
      </trkpt>
      <trkpt lat="45.910530081018806" lon="7.356497263535857">
        <ele>2813.4400000000001</ele>
        <time>2016-07-08T08:53:14Z</time>
      </trkpt>
      <trkpt lat="45.910505689680576" lon="7.356512183323503">
        <ele>2813.4400000000001</ele>
        <time>2016-07-08T08:53:30Z</time>
      </trkpt>
      <trkpt lat="45.910504097118974" lon="7.356534646824002">
        <ele>2813.4400000000001</ele>
        <time>2016-07-08T08:53:59Z</time>
      </trkpt>
      <trkpt lat="45.910529494285583" lon="7.356520229950547">
        <ele>2813.9200000000001</ele>
        <time>2016-07-08T08:54:14Z</time>
      </trkpt>
      <trkpt lat="45.910528907552361" lon="7.356519140303135">
        <ele>2813.9200000000001</ele>
        <time>2016-07-08T08:54:33Z</time>
      </trkpt>
      <trkpt lat="45.910519938915968" lon="7.356504304334521">
        <ele>2813.9200000000001</ele>
        <time>2016-07-08T08:54:49Z</time>
      </trkpt>
      <trkpt lat="45.910561680793762" lon="7.356479745358229">
        <ele>2813.9200000000001</ele>
        <time>2016-07-08T08:55:10Z</time>
      </trkpt>
      <trkpt lat="45.910547096282244" lon="7.356476644054055">
        <ele>2814.4000000000001</ele>
        <time>2016-07-08T08:55:29Z</time>
      </trkpt>
      <trkpt lat="45.910529410466552" lon="7.356492821127176">
        <ele>2814.4000000000001</ele>
        <time>2016-07-08T08:55:41Z</time>
      </trkpt>
      <trkpt lat="45.910523626953363" lon="7.356500197201967">
        <ele>2814.4000000000001</ele>
        <time>2016-07-08T08:56:05Z</time>
      </trkpt>
      <trkpt lat="45.910548437386751" lon="7.356466921046376">
        <ele>2814.8800000000001</ele>
        <time>2016-07-08T08:56:25Z</time>
      </trkpt>
      <trkpt lat="45.910558914765716" lon="7.356482595205307">
        <ele>2814.8800000000001</ele>
        <time>2016-07-08T08:56:40Z</time>
      </trkpt>
      <trkpt lat="45.910558747127652" lon="7.356531294062734">
        <ele>2814.8800000000001</ele>
        <time>2016-07-08T08:56:47Z</time>
      </trkpt>
      <trkpt lat="45.910570817068219" lon="7.356541436165571">
        <ele>2815.3600000000001</ele>
        <time>2016-07-08T08:57:08Z</time>
      </trkpt>
      <trkpt lat="45.910532427951694" lon="7.356565911322832">
        <ele>2814.8800000000001</ele>
        <time>2016-07-08T08:57:22Z</time>
      </trkpt>
      <trkpt lat="45.910516250878572" lon="7.356563145294786">
        <ele>2814.8800000000001</ele>
        <time>2016-07-08T08:57:50Z</time>
      </trkpt>
      <trkpt lat="45.91051273047924" lon="7.35655358992517">
        <ele>2814.8800000000001</ele>
        <time>2016-07-08T08:58:11Z</time>
      </trkpt>
      <trkpt lat="45.910501498728991" lon="7.356557445600629">
        <ele>2814.8800000000001</ele>
        <time>2016-07-08T08:58:45Z</time>
      </trkpt>
      <trkpt lat="45.910486495122313" lon="7.356540597975254">
        <ele>2814.8800000000001</ele>
        <time>2016-07-08T08:59:11Z</time>
      </trkpt>
      <trkpt lat="45.910487417131662" lon="7.356548141688108">
        <ele>2814.8800000000001</ele>
        <time>2016-07-08T08:59:38Z</time>
      </trkpt>
      <trkpt lat="45.910503091290593" lon="7.356577143073082">
        <ele>2815.3600000000001</ele>
        <time>2016-07-08T09:00:03Z</time>
      </trkpt>
      <trkpt lat="45.910508539527655" lon="7.356569850817323">
        <ele>2815.3600000000001</ele>
        <time>2016-07-08T09:00:37Z</time>
      </trkpt>
      <trkpt lat="45.910508958622813" lon="7.356575466692448">
        <ele>2814.8800000000001</ele>
        <time>2016-07-08T09:01:12Z</time>
      </trkpt>
      <trkpt lat="45.910511976107955" lon="7.356572030112147">
        <ele>2815.3600000000001</ele>
        <time>2016-07-08T09:01:51Z</time>
      </trkpt>
      <trkpt lat="45.910508958622813" lon="7.356583680957556">
        <ele>2815.3600000000001</ele>
        <time>2016-07-08T09:02:21Z</time>
      </trkpt>
      <trkpt lat="45.910504013299942" lon="7.356571611016989">
        <ele>2815.3600000000001</ele>
        <time>2016-07-08T09:02:59Z</time>
      </trkpt>
      <trkpt lat="45.910502420738339" lon="7.356575885787606">
        <ele>2815.3600000000001</ele>
        <time>2016-07-08T09:03:37Z</time>
      </trkpt>
      <trkpt lat="45.910511473193765" lon="7.356573538854718">
        <ele>2815.3600000000001</ele>
        <time>2016-07-08T09:04:12Z</time>
      </trkpt>
      <trkpt lat="45.910496385768056" lon="7.356574041768909">
        <ele>2815.8400000000001</ele>
        <time>2016-07-08T09:04:44Z</time>
      </trkpt>
      <trkpt lat="45.910502169281244" lon="7.356575550511479">
        <ele>2815.8400000000001</ele>
        <time>2016-07-08T09:05:17Z</time>
      </trkpt>
      <trkpt lat="45.910492530092597" lon="7.356570605188608">
        <ele>2815.3600000000001</ele>
        <time>2016-07-08T09:05:55Z</time>
      </trkpt>
      <trkpt lat="45.910489680245519" lon="7.356570521369577">
        <ele>2815.8400000000001</ele>
        <time>2016-07-08T09:06:29Z</time>
      </trkpt>
      <trkpt lat="45.910490769892931" lon="7.356572533026338">
        <ele>2815.3600000000001</ele>
        <time>2016-07-08T09:06:59Z</time>
      </trkpt>
      <trkpt lat="45.910493703559041" lon="7.356573538854718">
        <ele>2815.3600000000001</ele>
        <time>2016-07-08T09:07:28Z</time>
      </trkpt>
      <trkpt lat="45.910494960844517" lon="7.356569850817323">
        <ele>2815.3600000000001</ele>
        <time>2016-07-08T09:08:07Z</time>
      </trkpt>
      <trkpt lat="45.9104941226542" lon="7.356578232720494">
        <ele>2815.3600000000001</ele>
        <time>2016-07-08T09:08:42Z</time>
      </trkpt>
      <trkpt lat="45.910488925874233" lon="7.356574460864067">
        <ele>2815.3600000000001</ele>
        <time>2016-07-08T09:09:18Z</time>
      </trkpt>
      <trkpt lat="45.910492446273565" lon="7.356574209406972">
        <ele>2814.8800000000001</ele>
        <time>2016-07-08T09:09:48Z</time>
      </trkpt>
      <trkpt lat="45.910484064370394" lon="7.356577226892114">
        <ele>2815.3600000000001</ele>
        <time>2016-07-08T09:10:20Z</time>
      </trkpt>
      <trkpt lat="45.910481717437506" lon="7.356574041768909">
        <ele>2815.3600000000001</ele>
        <time>2016-07-08T09:10:52Z</time>
      </trkpt>
      <trkpt lat="45.910483226180077" lon="7.356570521369577">
        <ele>2814.8800000000001</ele>
        <time>2016-07-08T09:11:28Z</time>
      </trkpt>
      <trkpt lat="45.910496218129992" lon="7.356576891615987">
        <ele>2815.3600000000001</ele>
        <time>2016-07-08T09:11:59Z</time>
      </trkpt>
      <trkpt lat="45.910499738529325" lon="7.356569180265069">
        <ele>2814.8800000000001</ele>
        <time>2016-07-08T09:12:29Z</time>
      </trkpt>
      <trkpt lat="45.910496804863214" lon="7.356584770604968">
        <ele>2815.3600000000001</ele>
        <time>2016-07-08T09:13:00Z</time>
      </trkpt>
      <trkpt lat="45.910490518435836" lon="7.356575215235353">
        <ele>2815.3600000000001</ele>
        <time>2016-07-08T09:13:38Z</time>
      </trkpt>
      <trkpt lat="45.910496637225151" lon="7.356577813625336">
        <ele>2815.3600000000001</ele>
        <time>2016-07-08T09:14:12Z</time>
      </trkpt>
      <trkpt lat="45.910492781549692" lon="7.356582842767239">
        <ele>2815.3600000000001</ele>
        <time>2016-07-08T09:14:44Z</time>
      </trkpt>
      <trkpt lat="45.910503175109625" lon="7.356589296832681">
        <ele>2815.3600000000001</ele>
        <time>2016-07-08T09:15:17Z</time>
      </trkpt>
      <trkpt lat="45.910503091290593" lon="7.356576472520828">
        <ele>2815.3600000000001</ele>
        <time>2016-07-08T09:15:47Z</time>
      </trkpt>
      <trkpt lat="45.910503091290593" lon="7.356578903272748">
        <ele>2815.3600000000001</ele>
        <time>2016-07-08T09:16:16Z</time>
      </trkpt>
      <trkpt lat="45.910498397424817" lon="7.35657898709178">
        <ele>2815.3600000000001</ele>
        <time>2016-07-08T09:16:33Z</time>
      </trkpt>
      <trkpt lat="45.910499319434166" lon="7.356581501662731">
        <ele>2815.3600000000001</ele>
        <time>2016-07-08T09:16:55Z</time>
      </trkpt>
      <trkpt lat="45.91050342656672" lon="7.356565156951547">
        <ele>2816.3200000000002</ele>
        <time>2016-07-08T09:17:08Z</time>
      </trkpt>
      <trkpt lat="45.910489931702614" lon="7.356547135859728">
        <ele>2816.3200000000002</ele>
        <time>2016-07-08T09:17:20Z</time>
      </trkpt>
      <trkpt lat="45.910488422960043" lon="7.356562810018659">
        <ele>2816.8000000000002</ele>
        <time>2016-07-08T09:17:29Z</time>
      </trkpt>
      <trkpt lat="45.910509126260877" lon="7.35656289383769">
        <ele>2816.3200000000002</ele>
        <time>2016-07-08T09:17:39Z</time>
      </trkpt>
      <trkpt lat="45.910514490678906" lon="7.356560965999961">
        <ele>2816.3200000000002</ele>
        <time>2016-07-08T09:17:56Z</time>
      </trkpt>
      <trkpt lat="45.910513065755367" lon="7.35656138509512">
        <ele>2816.3200000000002</ele>
        <time>2016-07-08T09:18:07Z</time>
      </trkpt>
      <trkpt lat="45.910498816519976" lon="7.356555266305804">
        <ele>2816.3200000000002</ele>
        <time>2016-07-08T09:18:17Z</time>
      </trkpt>
      <trkpt lat="45.910485992208123" lon="7.356540681794286">
        <ele>2816.3200000000002</ele>
        <time>2016-07-08T09:18:33Z</time>
      </trkpt>
      <trkpt lat="45.910494206473231" lon="7.356539005413652">
        <ele>2816.3200000000002</ele>
        <time>2016-07-08T09:18:47Z</time>
      </trkpt>
      <trkpt lat="45.910491775721312" lon="7.356561720371246">
        <ele>2816.3200000000002</ele>
        <time>2016-07-08T09:19:08Z</time>
      </trkpt>
      <trkpt lat="45.910496385768056" lon="7.356578484177589">
        <ele>2816.3200000000002</ele>
        <time>2016-07-08T09:19:19Z</time>
      </trkpt>
      <trkpt lat="45.910503258928657" lon="7.356575466692448">
        <ele>2816.3200000000002</ele>
        <time>2016-07-08T09:19:38Z</time>
      </trkpt>
      <trkpt lat="45.910484232008457" lon="7.356561720371246">
        <ele>2815.8400000000001</ele>
        <time>2016-07-08T09:20:01Z</time>
      </trkpt>
      <trkpt lat="45.91049512848258" lon="7.356569347903132">
        <ele>2816.3200000000002</ele>
        <time>2016-07-08T09:20:11Z</time>
      </trkpt>
      <trkpt lat="45.91048875823617" lon="7.356548309326172">
        <ele>2815.3600000000001</ele>
        <time>2016-07-08T09:20:23Z</time>
      </trkpt>
      <trkpt lat="45.910434275865555" lon="7.356527941301465">
        <ele>2815.8400000000001</ele>
        <time>2016-07-08T09:20:36Z</time>
      </trkpt>
      <trkpt lat="45.910418266430497" lon="7.356443284079433">
        <ele>2815.3600000000001</ele>
        <time>2016-07-08T09:20:48Z</time>
      </trkpt>
      <trkpt lat="45.910415332764387" lon="7.356363236904144">
        <ele>2815.8400000000001</ele>
        <time>2016-07-08T09:20:59Z</time>
      </trkpt>
      <trkpt lat="45.910356910899282" lon="7.356271622702479">
        <ele>2815.8400000000001</ele>
        <time>2016-07-08T09:21:12Z</time>
      </trkpt>
      <trkpt lat="45.910351714119315" lon="7.356222085654736">
        <ele>2815.8400000000001</ele>
        <time>2016-07-08T09:21:16Z</time>
      </trkpt>
      <trkpt lat="45.910312235355377" lon="7.356130555272102">
        <ele>2816.3200000000002</ele>
        <time>2016-07-08T09:21:27Z</time>
      </trkpt>
      <trkpt lat="45.910280467942357" lon="7.356063751503825">
        <ele>2816.3200000000002</ele>
        <time>2016-07-08T09:21:35Z</time>
      </trkpt>
      <trkpt lat="45.910270912572742" lon="7.356026954948902">
        <ele>2816.3200000000002</ele>
        <time>2016-07-08T09:21:38Z</time>
      </trkpt>
      <trkpt lat="45.910213747993112" lon="7.355914805084467">
        <ele>2815.8400000000001</ele>
        <time>2016-07-08T09:21:49Z</time>
      </trkpt>
      <trkpt lat="45.910160774365067" lon="7.355815228074789">
        <ele>2815.8400000000001</ele>
        <time>2016-07-08T09:22:00Z</time>
      </trkpt>
      <trkpt lat="45.910108219832182" lon="7.355731744319201">
        <ele>2814.8800000000001</ele>
        <time>2016-07-08T09:22:10Z</time>
      </trkpt>
      <trkpt lat="45.910060610622168" lon="7.355656307190657">
        <ele>2814.4000000000001</ele>
        <time>2016-07-08T09:22:20Z</time>
      </trkpt>
      <trkpt lat="45.910041332244873" lon="7.3556247074157">
        <ele>2814.4000000000001</ele>
        <time>2016-07-08T09:22:23Z</time>
      </trkpt>
      <trkpt lat="45.910020209848881" lon="7.355591347441077">
        <ele>2813.4400000000001</ele>
        <time>2016-07-08T09:22:28Z</time>
      </trkpt>
      <trkpt lat="45.909946113824844" lon="7.355506606400013">
        <ele>2812.4699999999998</ele>
        <time>2016-07-08T09:22:41Z</time>
      </trkpt>
      <trkpt lat="45.909932367503643" lon="7.355499481782317">
        <ele>2811.9899999999998</ele>
        <time>2016-07-08T09:22:43Z</time>
      </trkpt>
      <trkpt lat="45.909908814355731" lon="7.355485567823052">
        <ele>2811.0300000000002</ele>
        <time>2016-07-08T09:22:54Z</time>
      </trkpt>
      <trkpt lat="45.909902360290289" lon="7.355500403791666">
        <ele>2811.0300000000002</ele>
        <time>2016-07-08T09:23:09Z</time>
      </trkpt>
      <trkpt lat="45.909923231229186" lon="7.355491938069463">
        <ele>2811.0300000000002</ele>
        <time>2016-07-08T09:23:28Z</time>
      </trkpt>
      <trkpt lat="45.90989900752902" lon="7.355474587529898">
        <ele>2811.0300000000002</ele>
        <time>2016-07-08T09:23:39Z</time>
      </trkpt>
      <trkpt lat="45.9098413400352" lon="7.35543611459434">
        <ele>2809.5900000000001</ele>
        <time>2016-07-08T09:23:50Z</time>
      </trkpt>
      <trkpt lat="45.90983304195106" lon="7.355411974713206">
        <ele>2809.5900000000001</ele>
        <time>2016-07-08T09:24:02Z</time>
      </trkpt>
      <trkpt lat="45.909806722775102" lon="7.35541800968349">
        <ele>2808.6300000000001</ele>
        <time>2016-07-08T09:24:12Z</time>
      </trkpt>
      <trkpt lat="45.909811416640878" lon="7.355368891730905">
        <ele>2807.6700000000001</ele>
        <time>2016-07-08T09:24:20Z</time>
      </trkpt>
      <trkpt lat="45.909809321165085" lon="7.355355648323894">
        <ele>2807.6700000000001</ele>
        <time>2016-07-08T09:24:35Z</time>
      </trkpt>
      <trkpt lat="45.909782582893968" lon="7.355373501777649">
        <ele>2808.6300000000001</ele>
        <time>2016-07-08T09:24:48Z</time>
      </trkpt>
      <trkpt lat="45.909769171848893" lon="7.355481209233403">
        <ele>2806.71</ele>
        <time>2016-07-08T09:24:59Z</time>
      </trkpt>
      <trkpt lat="45.90976657345891" lon="7.35550694167614">
        <ele>2805.75</ele>
        <time>2016-07-08T09:25:09Z</time>
      </trkpt>
      <trkpt lat="45.909762382507324" lon="7.355510294437408">
        <ele>2805.2600000000002</ele>
        <time>2016-07-08T09:25:21Z</time>
      </trkpt>
      <trkpt lat="45.909765986725688" lon="7.355530327185988">
        <ele>2804.7800000000002</ele>
        <time>2016-07-08T09:25:42Z</time>
      </trkpt>
      <trkpt lat="45.90972994454205" lon="7.355568716302514">
        <ele>2804.7800000000002</ele>
        <time>2016-07-08T09:25:51Z</time>
      </trkpt>
      <trkpt lat="45.909728268161416" lon="7.35558413900435">
        <ele>2802.8600000000001</ele>
        <time>2016-07-08T09:26:01Z</time>
      </trkpt>
      <trkpt lat="45.909736398607492" lon="7.355575757101178">
        <ele>2803.3400000000001</ele>
        <time>2016-07-08T09:26:14Z</time>
      </trkpt>
      <trkpt lat="45.909732962027192" lon="7.355587491765618">
        <ele>2803.3400000000001</ele>
        <time>2016-07-08T09:26:39Z</time>
      </trkpt>
      <trkpt lat="45.909743439406157" lon="7.355596711859107">
        <ele>2803.3400000000001</ele>
        <time>2016-07-08T09:26:41Z</time>
      </trkpt>
      <trkpt lat="45.909769926220179" lon="7.355631329119206">
        <ele>2803.8200000000002</ele>
        <time>2016-07-08T09:26:49Z</time>
      </trkpt>
      <trkpt lat="45.909753246232867" lon="7.355640465393663">
        <ele>2803.8200000000002</ele>
        <time>2016-07-08T09:27:06Z</time>
      </trkpt>
      <trkpt lat="45.909739583730698" lon="7.355620013549924">
        <ele>2803.3400000000001</ele>
        <time>2016-07-08T09:27:24Z</time>
      </trkpt>
      <trkpt lat="45.909733884036541" lon="7.355629652738571">
        <ele>2803.3400000000001</ele>
        <time>2016-07-08T09:27:26Z</time>
      </trkpt>
      <trkpt lat="45.909673366695642" lon="7.355621354654431">
        <ele>2802.3800000000001</ele>
        <time>2016-07-08T09:27:36Z</time>
      </trkpt>
      <trkpt lat="45.909597594290972" lon="7.355585228651762">
        <ele>2801.4200000000001</ele>
        <time>2016-07-08T09:27:46Z</time>
      </trkpt>
      <trkpt lat="45.909541351720691" lon="7.355547761544585">
        <ele>2800.9400000000001</ele>
        <time>2016-07-08T09:27:53Z</time>
      </trkpt>
      <trkpt lat="45.90945334173739" lon="7.355455392971635">
        <ele>2799.98</ele>
        <time>2016-07-08T09:28:05Z</time>
      </trkpt>
      <trkpt lat="45.909387292340398" lon="7.355382135137916">
        <ele>2799.98</ele>
        <time>2016-07-08T09:28:15Z</time>
      </trkpt>
      <trkpt lat="45.909338761121035" lon="7.355306949466467">
        <ele>2799.98</ele>
        <time>2016-07-08T09:28:23Z</time>
      </trkpt>
      <trkpt lat="45.909293917939067" lon="7.355178790166974">
        <ele>2799.98</ele>
        <time>2016-07-08T09:28:34Z</time>
      </trkpt>
      <trkpt lat="45.909293247386813" lon="7.355162110179663">
        <ele>2799.5</ele>
        <time>2016-07-08T09:28:36Z</time>
      </trkpt>
      <trkpt lat="45.909247817471623" lon="7.355056079104543">
        <ele>2799.02</ele>
        <time>2016-07-08T09:28:46Z</time>
      </trkpt>
      <trkpt lat="45.909231640398502" lon="7.354976031929255">
        <ele>2798.0500000000002</ele>
        <time>2016-07-08T09:28:54Z</time>
      </trkpt>
      <trkpt lat="45.909233568236232" lon="7.354927584528923">
        <ele>2798.0500000000002</ele>
        <time>2016-07-08T09:29:05Z</time>
      </trkpt>
      <trkpt lat="45.909224096685648" lon="7.35493328422308">
        <ele>2797.5700000000002</ele>
        <time>2016-07-08T09:29:10Z</time>
      </trkpt>
      <trkpt lat="45.909191658720374" lon="7.354923309758306">
        <ele>2797.0900000000001</ele>
        <time>2016-07-08T09:29:13Z</time>
      </trkpt>
      <trkpt lat="45.909154945984483" lon="7.354890704154968">
        <ele>2796.1300000000001</ele>
        <time>2016-07-08T09:29:17Z</time>
      </trkpt>
      <trkpt lat="45.909126615151763" lon="7.35486195422709">
        <ele>2795.1700000000001</ele>
        <time>2016-07-08T09:29:28Z</time>
      </trkpt>
      <trkpt lat="45.90910934843123" lon="7.354767071083188">
        <ele>2794.6900000000001</ele>
        <time>2016-07-08T09:29:38Z</time>
      </trkpt>
      <trkpt lat="45.909077329561114" lon="7.354734549298883">
        <ele>2793.25</ele>
        <time>2016-07-08T09:29:47Z</time>
      </trkpt>
      <trkpt lat="45.909022595733404" lon="7.354691969230771">
        <ele>2791.3299999999999</ele>
        <time>2016-07-08T09:29:57Z</time>
      </trkpt>
      <trkpt lat="45.908967610448599" lon="7.354603204876185">
        <ele>2789.4000000000001</ele>
        <time>2016-07-08T09:30:07Z</time>
      </trkpt>
      <trkpt lat="45.908925198018551" lon="7.354534221813083">
        <ele>2787.96</ele>
        <time>2016-07-08T09:30:18Z</time>
      </trkpt>
      <trkpt lat="45.908885383978486" lon="7.354434560984373">
        <ele>2786.04</ele>
        <time>2016-07-08T09:30:28Z</time>
      </trkpt>
      <trkpt lat="45.908865435048938" lon="7.354439673945308">
        <ele>2786.04</ele>
        <time>2016-07-08T09:30:38Z</time>
      </trkpt>
      <trkpt lat="45.908859902992845" lon="7.354416623711586">
        <ele>2785.5599999999999</ele>
        <time>2016-07-08T09:30:40Z</time>
      </trkpt>
      <trkpt lat="45.90881715528667" lon="7.354284860193729">
        <ele>2783.1500000000001</ele>
        <time>2016-07-08T09:30:51Z</time>
      </trkpt>
      <trkpt lat="45.908821849152446" lon="7.354276813566685">
        <ele>2782.6700000000001</ele>
        <time>2016-07-08T09:31:02Z</time>
      </trkpt>
      <trkpt lat="45.908773066475987" lon="7.354244627058506">
        <ele>2781.23</ele>
        <time>2016-07-08T09:31:11Z</time>
      </trkpt>
      <trkpt lat="45.908756721764803" lon="7.354187043383718">
        <ele>2779.3099999999999</ele>
        <time>2016-07-08T09:31:21Z</time>
      </trkpt>
      <trkpt lat="45.908705340698361" lon="7.354096015915275">
        <ele>2777.3899999999999</ele>
        <time>2016-07-08T09:31:32Z</time>
      </trkpt>
      <trkpt lat="45.908722104504704" lon="7.353983363136649">
        <ele>2774.98</ele>
        <time>2016-07-08T09:31:41Z</time>
      </trkpt>
      <trkpt lat="45.908685475587845" lon="7.353904154151678">
        <ele>2773.0599999999999</ele>
        <time>2016-07-08T09:31:50Z</time>
      </trkpt>
      <trkpt lat="45.908616576343775" lon="7.353782532736659">
        <ele>2771.1399999999999</ele>
        <time>2016-07-08T09:32:00Z</time>
      </trkpt>
      <trkpt lat="45.908613307401538" lon="7.353740707039833">
        <ele>2770.6599999999999</ele>
        <time>2016-07-08T09:32:10Z</time>
      </trkpt>
      <trkpt lat="45.908623114228249" lon="7.353709358721972">
        <ele>2770.6599999999999</ele>
        <time>2016-07-08T09:32:12Z</time>
      </trkpt>
      <trkpt lat="45.908642979338765" lon="7.353638280183077">
        <ele>2770.1799999999998</ele>
        <time>2016-07-08T09:32:16Z</time>
      </trkpt>
      <trkpt lat="45.90861439704895" lon="7.353568794205785">
        <ele>2769.6999999999998</ele>
        <time>2016-07-08T09:32:21Z</time>
      </trkpt>
      <trkpt lat="45.908546335995197" lon="7.353414064273238">
        <ele>2766.8099999999999</ele>
        <time>2016-07-08T09:32:34Z</time>
      </trkpt>
      <trkpt lat="45.908497218042612" lon="7.353313649073243">
        <ele>2765.8499999999999</ele>
        <time>2016-07-08T09:32:44Z</time>
      </trkpt>
      <trkpt lat="45.90848732739687" lon="7.353227734565735">
        <ele>2766.3299999999999</ele>
        <time>2016-07-08T09:32:53Z</time>
      </trkpt>
      <trkpt lat="45.908499145880342" lon="7.353189932182431">
        <ele>2765.8499999999999</ele>
        <time>2016-07-08T09:33:05Z</time>
      </trkpt>
      <trkpt lat="45.908495793119073" lon="7.353159422054887">
        <ele>2765.3699999999999</ele>
        <time>2016-07-08T09:33:10Z</time>
      </trkpt>
      <trkpt lat="45.908441059291363" lon="7.353090355172753">
        <ele>2762.4899999999998</ele>
        <time>2016-07-08T09:33:22Z</time>
      </trkpt>
      <trkpt lat="45.908437287434936" lon="7.35308725386858">
        <ele>2762</ele>
        <time>2016-07-08T09:33:29Z</time>
      </trkpt>
      <trkpt lat="45.908383140340447" lon="7.352946437895298">
        <ele>2758.6399999999999</ele>
        <time>2016-07-08T09:33:36Z</time>
      </trkpt>
      <trkpt lat="45.908346930518746" lon="7.35279992222786">
        <ele>2757.1999999999998</ele>
        <time>2016-07-08T09:33:45Z</time>
      </trkpt>
      <trkpt lat="45.90833293274045" lon="7.352746613323689">
        <ele>2756.2399999999998</ele>
        <time>2016-07-08T09:33:48Z</time>
      </trkpt>
      <trkpt lat="45.908342823386192" lon="7.352630943059921">
        <ele>2756.7199999999998</ele>
        <time>2016-07-08T09:33:58Z</time>
      </trkpt>
      <trkpt lat="45.90833636932075" lon="7.352630523964763">
        <ele>2756.2399999999998</ele>
        <time>2016-07-08T09:34:00Z</time>
      </trkpt>
      <trkpt lat="45.908328993245959" lon="7.352587357163429">
        <ele>2755.7600000000002</ele>
        <time>2016-07-08T09:34:04Z</time>
      </trkpt>
      <trkpt lat="45.908283395692706" lon="7.352482751011848">
        <ele>2754.3099999999999</ele>
        <time>2016-07-08T09:34:14Z</time>
      </trkpt>
      <trkpt lat="45.908239977434278" lon="7.35242516733706">
        <ele>2752.8699999999999</ele>
        <time>2016-07-08T09:34:22Z</time>
      </trkpt>
      <trkpt lat="45.908202929422259" lon="7.352400859817863">
        <ele>2752.3899999999999</ele>
        <time>2016-07-08T09:34:27Z</time>
      </trkpt>
      <trkpt lat="45.908184070140123" lon="7.352346545085311">
        <ele>2752.3899999999999</ele>
        <time>2016-07-08T09:34:39Z</time>
      </trkpt>
      <trkpt lat="45.90815607458353" lon="7.352266078814864">
        <ele>2751.4299999999998</ele>
        <time>2016-07-08T09:34:44Z</time>
      </trkpt>
      <trkpt lat="45.908065466210246" lon="7.352060470730066">
        <ele>2749.0300000000002</ele>
        <time>2016-07-08T09:34:58Z</time>
      </trkpt>
      <trkpt lat="45.9079884365201" lon="7.351920157670975">
        <ele>2746.6199999999999</ele>
        <time>2016-07-08T09:35:09Z</time>
      </trkpt>
      <trkpt lat="45.907952561974525" lon="7.351785879582167">
        <ele>2746.6199999999999</ele>
        <time>2016-07-08T09:35:18Z</time>
      </trkpt>
      <trkpt lat="45.90789414010942" lon="7.351683955639601">
        <ele>2746.1399999999999</ele>
        <time>2016-07-08T09:35:26Z</time>
      </trkpt>
      <trkpt lat="45.907879807054996" lon="7.351599717512727">
        <ele>2747.0999999999999</ele>
        <time>2016-07-08T09:35:32Z</time>
      </trkpt>
      <trkpt lat="45.907854912802577" lon="7.351555628702045">
        <ele>2746.6199999999999</ele>
        <time>2016-07-08T09:35:35Z</time>
      </trkpt>
      <trkpt lat="45.907836724072695" lon="7.35146258957684">
        <ele>2746.1399999999999</ele>
        <time>2016-07-08T09:35:42Z</time>
      </trkpt>
      <trkpt lat="45.907798754051328" lon="7.351432917639613">
        <ele>2746.1399999999999</ele>
        <time>2016-07-08T09:35:47Z</time>
      </trkpt>
      <trkpt lat="45.90774460695684" lon="7.351341554895043">
        <ele>2745.6599999999999</ele>
        <time>2016-07-08T09:35:57Z</time>
      </trkpt>
      <trkpt lat="45.907723316922784" lon="7.351331328973174">
        <ele>2745.1799999999998</ele>
        <time>2016-07-08T09:35:59Z</time>
      </trkpt>
      <trkpt lat="45.907717784866691" lon="7.351273661479354">
        <ele>2744.6999999999998</ele>
        <time>2016-07-08T09:36:13Z</time>
      </trkpt>
      <trkpt lat="45.907688951119781" lon="7.351234601810575">
        <ele>2744.2199999999998</ele>
        <time>2016-07-08T09:36:19Z</time>
      </trkpt>
      <trkpt lat="45.907616699114442" lon="7.351163355633616">
        <ele>2742.7800000000002</ele>
        <time>2016-07-08T09:36:30Z</time>
      </trkpt>
      <trkpt lat="45.907594235613942" lon="7.351138880476356">
        <ele>2741.8200000000002</ele>
        <time>2016-07-08T09:36:34Z</time>
      </trkpt>
      <trkpt lat="45.907561462372541" lon="7.351032178848982">
        <ele>2740.3800000000001</ele>
        <time>2016-07-08T09:36:45Z</time>
      </trkpt>
      <trkpt lat="45.907507231459022" lon="7.350933356210589">
        <ele>2739.4099999999999</ele>
        <time>2016-07-08T09:36:56Z</time>
      </trkpt>
      <trkpt lat="45.907469596713781" lon="7.350854566320777">
        <ele>2738.9299999999998</ele>
        <time>2016-07-08T09:37:05Z</time>
      </trkpt>
      <trkpt lat="45.907464232295752" lon="7.350843921303749">
        <ele>2738.9299999999998</ele>
        <time>2016-07-08T09:37:06Z</time>
      </trkpt>
      <trkpt lat="45.907405726611614" lon="7.35076722688973">
        <ele>2737.9699999999998</ele>
        <time>2016-07-08T09:37:15Z</time>
      </trkpt>
      <trkpt lat="45.907382760196924" lon="7.350746858865023">
        <ele>2737.9699999999998</ele>
        <time>2016-07-08T09:37:18Z</time>
      </trkpt>
      <trkpt lat="45.907288379967213" lon="7.350656921043992">
        <ele>2737.4899999999998</ele>
        <time>2016-07-08T09:37:29Z</time>
      </trkpt>
      <trkpt lat="45.907278237864375" lon="7.350634457543492">
        <ele>2737.9699999999998</ele>
        <time>2016-07-08T09:37:31Z</time>
      </trkpt>
      <trkpt lat="45.907251331955194" lon="7.350531360134482">
        <ele>2738.4499999999998</ele>
        <time>2016-07-08T09:37:38Z</time>
      </trkpt>
      <trkpt lat="45.90719978325069" lon="7.350433208048344">
        <ele>2738.4499999999998</ele>
        <time>2016-07-08T09:37:47Z</time>
      </trkpt>
      <trkpt lat="45.907126609236002" lon="7.350363722071052">
        <ele>2738.4499999999998</ele>
        <time>2016-07-08T09:37:56Z</time>
      </trkpt>
      <trkpt lat="45.907108336687088" lon="7.350293314084411">
        <ele>2738.4499999999998</ele>
        <time>2016-07-08T09:38:01Z</time>
      </trkpt>
      <trkpt lat="45.907036168500781" lon="7.350192898884416">
        <ele>2738.9299999999998</ele>
        <time>2016-07-08T09:38:12Z</time>
      </trkpt>
      <trkpt lat="45.906944973394275" lon="7.350127771496773">
        <ele>2737.4899999999998</ele>
        <time>2016-07-08T09:38:21Z</time>
      </trkpt>
      <trkpt lat="45.906864842399955" lon="7.350090388208628">
        <ele>2736.5300000000002</ele>
        <time>2016-07-08T09:38:32Z</time>
      </trkpt>
      <trkpt lat="45.906858136877418" lon="7.350116707384586">
        <ele>2736.0500000000002</ele>
        <time>2016-07-08T09:38:42Z</time>
      </trkpt>
      <trkpt lat="45.906803403049707" lon="7.350083515048027">
        <ele>2735.0900000000001</ele>
        <time>2016-07-08T09:38:51Z</time>
      </trkpt>
      <trkpt lat="45.906728720292449" lon="7.350045293569565">
        <ele>2733.6500000000001</ele>
        <time>2016-07-08T09:38:58Z</time>
      </trkpt>
      <trkpt lat="45.906647583469748" lon="7.350045125931501">
        <ele>2732.1999999999998</ele>
        <time>2016-07-08T09:39:07Z</time>
      </trkpt>
      <trkpt lat="45.906596286222339" lon="7.350046550855041">
        <ele>2731.2399999999998</ele>
        <time>2016-07-08T09:39:13Z</time>
      </trkpt>
      <trkpt lat="45.906565943732858" lon="7.350027021020651">
        <ele>2730.2800000000002</ele>
        <time>2016-07-08T09:39:16Z</time>
      </trkpt>
      <trkpt lat="45.906551191583276" lon="7.349995840340853">
        <ele>2729.8000000000002</ele>
        <time>2016-07-08T09:39:18Z</time>
      </trkpt>
      <trkpt lat="45.906450105831027" lon="7.349900873377919">
        <ele>2728.3600000000001</ele>
        <time>2016-07-08T09:39:30Z</time>
      </trkpt>
      <trkpt lat="45.906394869089127" lon="7.34978998079896">
        <ele>2725.96</ele>
        <time>2016-07-08T09:39:41Z</time>
      </trkpt>
      <trkpt lat="45.906371315941215" lon="7.349718483164907">
        <ele>2724.9899999999998</ele>
        <time>2016-07-08T09:39:49Z</time>
      </trkpt>
      <trkpt lat="45.90635497123003" lon="7.349688727408648">
        <ele>2724.0300000000002</ele>
        <time>2016-07-08T09:39:52Z</time>
      </trkpt>
      <trkpt lat="45.906333681195974" lon="7.349611613899469">
        <ele>2723.5500000000002</ele>
        <time>2016-07-08T09:39:58Z</time>
      </trkpt>
      <trkpt lat="45.906306523829699" lon="7.349439449608326">
        <ele>2722.1100000000001</ele>
        <time>2016-07-08T09:40:11Z</time>
      </trkpt>
      <trkpt lat="45.906278109177947" lon="7.34938295558095">
        <ele>2721.1500000000001</ele>
        <time>2016-07-08T09:40:18Z</time>
      </trkpt>
      <trkpt lat="45.906265033408999" lon="7.349325707182288">
        <ele>2720.6700000000001</ele>
        <time>2016-07-08T09:40:23Z</time>
      </trkpt>
      <trkpt lat="45.906242737546563" lon="7.349213976413012">
        <ele>2719.71</ele>
        <time>2016-07-08T09:40:33Z</time>
      </trkpt>
      <trkpt lat="45.906215999275446" lon="7.349124709144235">
        <ele>2718.27</ele>
        <time>2016-07-08T09:40:43Z</time>
      </trkpt>
      <trkpt lat="45.906210131943226" lon="7.34909906052053">
        <ele>2718.27</ele>
        <time>2016-07-08T09:40:45Z</time>
      </trkpt>
      <trkpt lat="45.906182639300823" lon="7.348984060809016">
        <ele>2717.3000000000002</ele>
        <time>2016-07-08T09:40:55Z</time>
      </trkpt>
      <trkpt lat="45.906145172193646" lon="7.348864702507854">
        <ele>2715.8600000000001</ele>
        <time>2016-07-08T09:41:07Z</time>
      </trkpt>
      <trkpt lat="45.906102759763598" lon="7.348773423582315">
        <ele>2714.4200000000001</ele>
        <time>2016-07-08T09:41:17Z</time>
      </trkpt>
      <trkpt lat="45.906067471951246" lon="7.348709721118212">
        <ele>2712.5</ele>
        <time>2016-07-08T09:41:26Z</time>
      </trkpt>
      <trkpt lat="45.906007289886475" lon="7.348623303696513">
        <ele>2710.0900000000001</ele>
        <time>2016-07-08T09:41:38Z</time>
      </trkpt>
      <trkpt lat="45.905960435047746" lon="7.34855130314827">
        <ele>2708.1700000000001</ele>
        <time>2016-07-08T09:41:47Z</time>
      </trkpt>
      <trkpt lat="45.905922716483474" lon="7.348480811342597">
        <ele>2706.73</ele>
        <time>2016-07-08T09:41:56Z</time>
      </trkpt>
      <trkpt lat="45.90587854385376" lon="7.348403362557292">
        <ele>2704.8099999999999</ele>
        <time>2016-07-08T09:42:06Z</time>
      </trkpt>
      <trkpt lat="45.905838729813695" lon="7.348291799426079">
        <ele>2703.3600000000001</ele>
        <time>2016-07-08T09:42:18Z</time>
      </trkpt>
      <trkpt lat="45.905801178887486" lon="7.348196664825082">
        <ele>2701.4400000000001</ele>
        <time>2016-07-08T09:42:29Z</time>
      </trkpt>
      <trkpt lat="45.905748037621379" lon="7.348126256838441">
        <ele>2700</ele>
        <time>2016-07-08T09:42:37Z</time>
      </trkpt>
      <trkpt lat="45.905741583555937" lon="7.348123239353299">
        <ele>2699.52</ele>
        <time>2016-07-08T09:42:38Z</time>
      </trkpt>
      <trkpt lat="45.905680563300848" lon="7.348064733669162">
        <ele>2698.0799999999999</ele>
        <time>2016-07-08T09:42:48Z</time>
      </trkpt>
      <trkpt lat="45.905600683763623" lon="7.347987620159984">
        <ele>2697.1199999999999</ele>
        <time>2016-07-08T09:42:57Z</time>
      </trkpt>
      <trkpt lat="45.905516780912876" lon="7.347890725359321">
        <ele>2695.6700000000001</ele>
        <time>2016-07-08T09:43:08Z</time>
      </trkpt>
      <trkpt lat="45.905424160882831" lon="7.347825933247805">
        <ele>2694.23</ele>
        <time>2016-07-08T09:43:20Z</time>
      </trkpt>
      <trkpt lat="45.905328774824739" lon="7.347764410078526">
        <ele>2692.79</ele>
        <time>2016-07-08T09:43:30Z</time>
      </trkpt>
      <trkpt lat="45.905214697122574" lon="7.347688302397728">
        <ele>2690.3899999999999</ele>
        <time>2016-07-08T09:43:42Z</time>
      </trkpt>
      <trkpt lat="45.905116628855467" lon="7.347535500302911">
        <ele>2688.46</ele>
        <time>2016-07-08T09:43:53Z</time>
      </trkpt>
      <trkpt lat="45.904991906136274" lon="7.347485376521945">
        <ele>2686.0599999999999</ele>
        <time>2016-07-08T09:44:06Z</time>
      </trkpt>
      <trkpt lat="45.904934741556644" lon="7.347466265782714">
        <ele>2684.1399999999999</ele>
        <time>2016-07-08T09:44:15Z</time>
      </trkpt>
      <trkpt lat="45.904913619160652" lon="7.347320923581719">
        <ele>2680.77</ele>
        <time>2016-07-08T09:44:26Z</time>
      </trkpt>
      <trkpt lat="45.904866512864828" lon="7.347251521423459">
        <ele>2678.3699999999999</ele>
        <time>2016-07-08T09:44:38Z</time>
      </trkpt>
      <trkpt lat="45.904822843149304" lon="7.34721246175468">
        <ele>2675.9699999999998</ele>
        <time>2016-07-08T09:44:45Z</time>
      </trkpt>
      <trkpt lat="45.904700383543968" lon="7.347131744027138">
        <ele>2673.0799999999999</ele>
        <time>2016-07-08T09:44:59Z</time>
      </trkpt>
      <trkpt lat="45.904576666653156" lon="7.34705027192831">
        <ele>2670.6799999999998</ele>
        <time>2016-07-08T09:45:13Z</time>
      </trkpt>
      <trkpt lat="45.904547329992056" lon="7.347050523385406">
        <ele>2669.2399999999998</ele>
        <time>2016-07-08T09:45:16Z</time>
      </trkpt>
      <trkpt lat="45.904524531215429" lon="7.347049936652184">
        <ele>2669.2399999999998</ele>
        <time>2016-07-08T09:45:19Z</time>
      </trkpt>
      <trkpt lat="45.904476419091225" lon="7.347058653831482">
        <ele>2667.3099999999999</ele>
        <time>2016-07-08T09:45:26Z</time>
      </trkpt>
      <trkpt lat="45.904421601444483" lon="7.347048092633486">
        <ele>2666.3499999999999</ele>
        <time>2016-07-08T09:45:36Z</time>
      </trkpt>
      <trkpt lat="45.904399808496237" lon="7.347006937488914">
        <ele>2664.4299999999998</ele>
        <time>2016-07-08T09:45:45Z</time>
      </trkpt>
      <trkpt lat="45.904390420764685" lon="7.346967877820134">
        <ele>2663.9499999999998</ele>
        <time>2016-07-08T09:45:50Z</time>
      </trkpt>
      <trkpt lat="45.904375417158008" lon="7.346872910857201">
        <ele>2662.0300000000002</ele>
        <time>2016-07-08T09:45:59Z</time>
      </trkpt>
      <trkpt lat="45.904355468228459" lon="7.346879113465548">
        <ele>2661.5500000000002</ele>
        <time>2016-07-08T09:46:04Z</time>
      </trkpt>
      <trkpt lat="45.904281875118613" lon="7.346852710470557">
        <ele>2659.1399999999999</ele>
        <time>2016-07-08T09:46:15Z</time>
      </trkpt>
      <trkpt lat="45.904212640598416" lon="7.346843741834164">
        <ele>2656.7399999999998</ele>
        <time>2016-07-08T09:46:25Z</time>
      </trkpt>
      <trkpt lat="45.904168887063861" lon="7.346752546727657">
        <ele>2654.8200000000002</ele>
        <time>2016-07-08T09:46:36Z</time>
      </trkpt>
      <trkpt lat="45.904096132144332" lon="7.346785655245185">
        <ele>2652.9000000000001</ele>
        <time>2016-07-08T09:46:44Z</time>
      </trkpt>
      <trkpt lat="45.90403301641345" lon="7.346873329952359">
        <ele>2650.9699999999998</ele>
        <time>2016-07-08T09:46:54Z</time>
      </trkpt>
      <trkpt lat="45.90399001725018" lon="7.346877520903945">
        <ele>2650.0100000000002</ele>
        <time>2016-07-08T09:47:04Z</time>
      </trkpt>
      <trkpt lat="45.903944838792086" lon="7.346929488703609">
        <ele>2648.5700000000002</ele>
        <time>2016-07-08T09:47:11Z</time>
      </trkpt>
      <trkpt lat="45.90393478050828" lon="7.346946420148015">
        <ele>2648.0900000000001</ele>
        <time>2016-07-08T09:47:13Z</time>
      </trkpt>
      <trkpt lat="45.903957830742002" lon="7.3470473382622">
        <ele>2647.1300000000001</ele>
        <time>2016-07-08T09:47:21Z</time>
      </trkpt>
      <trkpt lat="45.903953388333321" lon="7.34706879593432">
        <ele>2646.6500000000001</ele>
        <time>2016-07-08T09:47:23Z</time>
      </trkpt>
      <trkpt lat="45.903973085805774" lon="7.347131492570043">
        <ele>2646.6500000000001</ele>
        <time>2016-07-08T09:47:26Z</time>
      </trkpt>
      <trkpt lat="45.903972499072552" lon="7.347242971882224">
        <ele>2646.6500000000001</ele>
        <time>2016-07-08T09:47:38Z</time>
      </trkpt>
      <trkpt lat="45.903984988108277" lon="7.347319833934307">
        <ele>2647.1300000000001</ele>
        <time>2016-07-08T09:47:48Z</time>
      </trkpt>
      <trkpt lat="45.903981886804104" lon="7.347377836704254">
        <ele>2648.5700000000002</ele>
        <time>2016-07-08T09:47:55Z</time>
      </trkpt>
      <trkpt lat="45.903970655053854" lon="7.347441371530294">
        <ele>2648.0900000000001</ele>
        <time>2016-07-08T09:47:59Z</time>
      </trkpt>
      <trkpt lat="45.903962943702936" lon="7.347477162256837">
        <ele>2648.0900000000001</ele>
        <time>2016-07-08T09:48:01Z</time>
      </trkpt>
      <trkpt lat="45.903886249288917" lon="7.347513036802411">
        <ele>2648.0900000000001</ele>
        <time>2016-07-08T09:48:12Z</time>
      </trkpt>
      <trkpt lat="45.903834030032158" lon="7.34743039123714">
        <ele>2646.6500000000001</ele>
        <time>2016-07-08T09:48:20Z</time>
      </trkpt>
      <trkpt lat="45.903765549883246" lon="7.347399881109595">
        <ele>2645.21</ele>
        <time>2016-07-08T09:48:27Z</time>
      </trkpt>
      <trkpt lat="45.903738979250193" lon="7.347461823374033">
        <ele>2644.7199999999998</ele>
        <time>2016-07-08T09:48:35Z</time>
      </trkpt>
      <trkpt lat="45.903734033927321" lon="7.34757699072361">
        <ele>2643.2800000000002</ele>
        <time>2016-07-08T09:48:47Z</time>
      </trkpt>
      <trkpt lat="45.90370805002749" lon="7.347646560519934">
        <ele>2642.8000000000002</ele>
        <time>2016-07-08T09:48:56Z</time>
      </trkpt>
      <trkpt lat="45.903719952329993" lon="7.34770598821342">
        <ele>2640.4000000000001</ele>
        <time>2016-07-08T09:49:01Z</time>
      </trkpt>
      <trkpt lat="45.903670080006123" lon="7.347756950184703">
        <ele>2640.4000000000001</ele>
        <time>2016-07-08T09:49:07Z</time>
      </trkpt>
      <trkpt lat="45.90354829095304" lon="7.347829453647137">
        <ele>2639.9200000000001</ele>
        <time>2016-07-08T09:49:19Z</time>
      </trkpt>
      <trkpt lat="45.903480565175414" lon="7.347866585478187">
        <ele>2640.4000000000001</ele>
        <time>2016-07-08T09:49:29Z</time>
      </trkpt>
      <trkpt lat="45.903455000370741" lon="7.347866669297218">
        <ele>2641.3600000000001</ele>
        <time>2016-07-08T09:49:32Z</time>
      </trkpt>
      <trkpt lat="45.903355674818158" lon="7.347848732024431">
        <ele>2641.8400000000001</ele>
        <time>2016-07-08T09:49:42Z</time>
      </trkpt>
      <trkpt lat="45.903259618207812" lon="7.347756950184703">
        <ele>2639.4400000000001</ele>
        <time>2016-07-08T09:49:54Z</time>
      </trkpt>
      <trkpt lat="45.903165489435196" lon="7.347737839445472">
        <ele>2638.48</ele>
        <time>2016-07-08T09:50:04Z</time>
      </trkpt>
      <trkpt lat="45.903111509978771" lon="7.347808163613081">
        <ele>2637.9899999999998</ele>
        <time>2016-07-08T09:50:11Z</time>
      </trkpt>
      <trkpt lat="45.903071109205484" lon="7.347838506102562">
        <ele>2637.9899999999998</ele>
        <time>2016-07-08T09:50:16Z</time>
      </trkpt>
      <trkpt lat="45.902995252981782" lon="7.347882091999054">
        <ele>2636.0700000000002</ele>
        <time>2016-07-08T09:50:26Z</time>
      </trkpt>
      <trkpt lat="45.902947140857577" lon="7.347894245758653">
        <ele>2634.6300000000001</ele>
        <time>2016-07-08T09:50:32Z</time>
      </trkpt>
      <trkpt lat="45.902899783104658" lon="7.347902208566666">
        <ele>2633.1900000000001</ele>
        <time>2016-07-08T09:50:41Z</time>
      </trkpt>
      <trkpt lat="45.902845468372107" lon="7.347900867462158">
        <ele>2630.79</ele>
        <time>2016-07-08T09:50:51Z</time>
      </trkpt>
      <trkpt lat="45.90277380309999" lon="7.347805732861161">
        <ele>2628.3800000000001</ele>
        <time>2016-07-08T09:51:04Z</time>
      </trkpt>
      <trkpt lat="45.902727954089642" lon="7.347789723426104">
        <ele>2627.9000000000001</ele>
        <time>2016-07-08T09:51:13Z</time>
      </trkpt>
      <trkpt lat="45.902717895805836" lon="7.347709760069847">
        <ele>2627.4200000000001</ele>
        <time>2016-07-08T09:51:19Z</time>
      </trkpt>
      <trkpt lat="45.902677243575454" lon="7.347612529993057">
        <ele>2625.5</ele>
        <time>2016-07-08T09:51:32Z</time>
      </trkpt>
      <trkpt lat="45.902660563588142" lon="7.347583444789052">
        <ele>2624.0599999999999</ele>
        <time>2016-07-08T09:51:37Z</time>
      </trkpt>
      <trkpt lat="45.902635836973786" lon="7.347530890256167">
        <ele>2622.6100000000001</ele>
        <time>2016-07-08T09:51:43Z</time>
      </trkpt>
      <trkpt lat="45.902600968256593" lon="7.347487136721611">
        <ele>2622.1300000000001</ele>
        <time>2016-07-08T09:51:53Z</time>
      </trkpt>
      <trkpt lat="45.902597699314356" lon="7.347476743161678">
        <ele>2622.1300000000001</ele>
        <time>2016-07-08T09:52:01Z</time>
      </trkpt>
      <trkpt lat="45.902585461735725" lon="7.347433576360345">
        <ele>2621.1700000000001</ele>
        <time>2016-07-08T09:52:11Z</time>
      </trkpt>
      <trkpt lat="45.902581438422203" lon="7.347405413165689">
        <ele>2620.6900000000001</ele>
        <time>2016-07-08T09:52:22Z</time>
      </trkpt>
      <trkpt lat="45.902580851688981" lon="7.347367107868195">
        <ele>2619.73</ele>
        <time>2016-07-08T09:52:31Z</time>
      </trkpt>
      <trkpt lat="45.902592167258263" lon="7.347354954108596">
        <ele>2618.77</ele>
        <time>2016-07-08T09:52:42Z</time>
      </trkpt>
      <trkpt lat="45.902582360431552" lon="7.347307093441486">
        <ele>2618.29</ele>
        <time>2016-07-08T09:52:53Z</time>
      </trkpt>
      <trkpt lat="45.902622593566775" lon="7.347283121198416">
        <ele>2617.8099999999999</ele>
        <time>2016-07-08T09:53:05Z</time>
      </trkpt>
      <trkpt lat="45.902622258290648" lon="7.347249090671539">
        <ele>2617.3299999999999</ele>
        <time>2016-07-08T09:53:16Z</time>
      </trkpt>
      <trkpt lat="45.902615552768111" lon="7.347245067358017">
        <ele>2616.8499999999999</ele>
        <time>2016-07-08T09:53:28Z</time>
      </trkpt>
      <trkpt lat="45.902616893872619" lon="7.34721782617271">
        <ele>2616.8499999999999</ele>
        <time>2016-07-08T09:53:42Z</time>
      </trkpt>
      <trkpt lat="45.902619240805507" lon="7.347295861691237">
        <ele>2615.8800000000001</ele>
        <time>2016-07-08T09:53:52Z</time>
      </trkpt>
      <trkpt lat="45.902614211663604" lon="7.347294604405761">
        <ele>2615.4000000000001</ele>
        <time>2016-07-08T09:53:57Z</time>
      </trkpt>
      <trkpt lat="45.902626784518361" lon="7.34727063216269">
        <ele>2614.9200000000001</ele>
        <time>2016-07-08T09:53:59Z</time>
      </trkpt>
      <trkpt lat="45.90257540345192" lon="7.347210869193077">
        <ele>2614.4400000000001</ele>
        <time>2016-07-08T09:54:10Z</time>
      </trkpt>
      <trkpt lat="45.902566853910685" lon="7.347194943577051">
        <ele>2613.96</ele>
        <time>2016-07-08T09:54:12Z</time>
      </trkpt>
      <trkpt lat="45.902575151994824" lon="7.347171138972044">
        <ele>2613.96</ele>
        <time>2016-07-08T09:54:13Z</time>
      </trkpt>
      <trkpt lat="45.902590993791819" lon="7.347183125093579">
        <ele>2613.96</ele>
        <time>2016-07-08T09:54:22Z</time>
      </trkpt>
      <trkpt lat="45.902612032368779" lon="7.347260238602758">
        <ele>2614.4400000000001</ele>
        <time>2016-07-08T09:54:34Z</time>
      </trkpt>
      <trkpt lat="45.902612283825874" lon="7.347283372655511">
        <ele>2614.4400000000001</ele>
        <time>2016-07-08T09:54:36Z</time>
      </trkpt>
      <trkpt lat="45.902635166421533" lon="7.347345901653171">
        <ele>2616.3699999999999</ele>
        <time>2016-07-08T09:54:46Z</time>
      </trkpt>
      <trkpt lat="45.902609182521701" lon="7.347363252192736">
        <ele>2616.3699999999999</ele>
        <time>2016-07-08T09:54:58Z</time>
      </trkpt>
      <trkpt lat="45.902634328231215" lon="7.347376914694905">
        <ele>2616.8499999999999</ele>
        <time>2016-07-08T09:55:12Z</time>
      </trkpt>
      <trkpt lat="45.902631310746074" lon="7.347386218607426">
        <ele>2616.8499999999999</ele>
        <time>2016-07-08T09:55:26Z</time>
      </trkpt>
      <trkpt lat="45.902628963813186" lon="7.347363755106926">
        <ele>2616.8499999999999</ele>
        <time>2016-07-08T09:55:40Z</time>
      </trkpt>
      <trkpt lat="45.902632903307676" lon="7.347369873896241">
        <ele>2616.3699999999999</ele>
        <time>2016-07-08T09:55:55Z</time>
      </trkpt>
      <trkpt lat="45.902598956599832" lon="7.347330646589398">
        <ele>2615.4000000000001</ele>
        <time>2016-07-08T09:56:07Z</time>
      </trkpt>
      <trkpt lat="45.90256811119616" lon="7.347291754558682">
        <ele>2614.4400000000001</ele>
        <time>2016-07-08T09:56:18Z</time>
      </trkpt>
      <trkpt lat="45.902580767869949" lon="7.347269291058183">
        <ele>2614.4400000000001</ele>
        <time>2016-07-08T09:56:20Z</time>
      </trkpt>
      <trkpt lat="45.902546066790819" lon="7.347193351015449">
        <ele>2613.48</ele>
        <time>2016-07-08T09:56:29Z</time>
      </trkpt>
      <trkpt lat="45.902557130903006" lon="7.347241044044495">
        <ele>2613</ele>
        <time>2016-07-08T09:56:44Z</time>
      </trkpt>
      <trkpt lat="45.902514383196831" lon="7.347221178933978">
        <ele>2612.52</ele>
        <time>2016-07-08T09:56:57Z</time>
      </trkpt>
      <trkpt lat="45.902453362941742" lon="7.347139958292246">
        <ele>2611.5599999999999</ele>
        <time>2016-07-08T09:57:07Z</time>
      </trkpt>
      <trkpt lat="45.902410782873631" lon="7.347119254991412">
        <ele>2610.5999999999999</ele>
        <time>2016-07-08T09:57:16Z</time>
      </trkpt>
      <trkpt lat="45.902382703498006" lon="7.347112130373716">
        <ele>2610.1199999999999</ele>
        <time>2016-07-08T09:57:30Z</time>
      </trkpt>
      <trkpt lat="45.902351103723049" lon="7.347065191715956">
        <ele>2609.6399999999999</ele>
        <time>2016-07-08T09:57:36Z</time>
      </trkpt>
      <trkpt lat="45.902319671586156" lon="7.346975840628147">
        <ele>2608.1900000000001</ele>
        <time>2016-07-08T09:57:47Z</time>
      </trkpt>
      <trkpt lat="45.902320593595505" lon="7.34692957252264">
        <ele>2607.71</ele>
        <time>2016-07-08T09:57:56Z</time>
      </trkpt>
      <trkpt lat="45.902308188378811" lon="7.346883974969387">
        <ele>2606.75</ele>
        <time>2016-07-08T09:58:05Z</time>
      </trkpt>
      <trkpt lat="45.902290837839246" lon="7.346844077110291">
        <ele>2605.3099999999999</ele>
        <time>2016-07-08T09:58:14Z</time>
      </trkpt>
      <trkpt lat="45.90228027664125" lon="7.346778614446521">
        <ele>2603.8699999999999</ele>
        <time>2016-07-08T09:58:24Z</time>
      </trkpt>
      <trkpt lat="45.902274828404188" lon="7.346699489280582">
        <ele>2602.9099999999999</ele>
        <time>2016-07-08T09:58:34Z</time>
      </trkpt>
      <trkpt lat="45.902271559461951" lon="7.346657747402787">
        <ele>2601.46</ele>
        <time>2016-07-08T09:58:39Z</time>
      </trkpt>
      <trkpt lat="45.902247838675976" lon="7.346670487895608">
        <ele>2600.98</ele>
        <time>2016-07-08T09:58:48Z</time>
      </trkpt>
      <trkpt lat="45.902212047949433" lon="7.346706949174404">
        <ele>2600.02</ele>
        <time>2016-07-08T09:58:54Z</time>
      </trkpt>
      <trkpt lat="45.902122026309371" lon="7.346746679395437">
        <ele>2599.0599999999999</ele>
        <time>2016-07-08T09:59:04Z</time>
      </trkpt>
      <trkpt lat="45.902114398777485" lon="7.346736956387758">
        <ele>2599.0599999999999</ele>
        <time>2016-07-08T09:59:05Z</time>
      </trkpt>
      <trkpt lat="45.902107777073979" lon="7.346721533685923">
        <ele>2598.5799999999999</ele>
        <time>2016-07-08T09:59:06Z</time>
      </trkpt>
      <trkpt lat="45.902120685204864" lon="7.346627824008465">
        <ele>2597.1399999999999</ele>
        <time>2016-07-08T09:59:16Z</time>
      </trkpt>
      <trkpt lat="45.902100568637252" lon="7.346634780988097">
        <ele>2597.1399999999999</ele>
        <time>2016-07-08T09:59:18Z</time>
      </trkpt>
      <trkpt lat="45.902064861729741" lon="7.346582813188434">
        <ele>2594.25</ele>
        <time>2016-07-08T09:59:28Z</time>
      </trkpt>
      <trkpt lat="45.902021862566471" lon="7.346565714105964">
        <ele>2592.3299999999999</ele>
        <time>2016-07-08T09:59:38Z</time>
      </trkpt>
      <trkpt lat="45.901976013556123" lon="7.346561020240188">
        <ele>2591.3699999999999</ele>
        <time>2016-07-08T09:59:43Z</time>
      </trkpt>
      <trkpt lat="45.901950784027576" lon="7.346607958897948">
        <ele>2590.8899999999999</ele>
        <time>2016-07-08T09:59:47Z</time>
      </trkpt>
      <trkpt lat="45.901873167604208" lon="7.346656238660216">
        <ele>2589.4499999999998</ele>
        <time>2016-07-08T10:00:00Z</time>
      </trkpt>
      <trkpt lat="45.901824720203876" lon="7.346598152071238">
        <ele>2587.5300000000002</ele>
        <time>2016-07-08T10:00:12Z</time>
      </trkpt>
      <trkpt lat="45.901806866750121" lon="7.346604689955711">
        <ele>2586.0799999999999</ele>
        <time>2016-07-08T10:00:20Z</time>
      </trkpt>
      <trkpt lat="45.901767974719405" lon="7.346626231446862">
        <ele>2585.1199999999999</ele>
        <time>2016-07-08T10:00:28Z</time>
      </trkpt>
      <trkpt lat="45.901831425726414" lon="7.346659759059548">
        <ele>2584.1599999999999</ele>
        <time>2016-07-08T10:00:38Z</time>
      </trkpt>
      <trkpt lat="45.901855649426579" lon="7.346658417955041">
        <ele>2583.6799999999998</ele>
        <time>2016-07-08T10:00:56Z</time>
      </trkpt>
      <trkpt lat="45.901831677183509" lon="7.346685323864222">
        <ele>2582.7199999999998</ele>
        <time>2016-07-08T10:01:08Z</time>
      </trkpt>
      <trkpt lat="45.901806447654963" lon="7.346718516200781">
        <ele>2581.2800000000002</ele>
        <time>2016-07-08T10:01:21Z</time>
      </trkpt>
      <trkpt lat="45.901809046044946" lon="7.346696555614471">
        <ele>2581.2800000000002</ele>
        <time>2016-07-08T10:01:32Z</time>
      </trkpt>
      <trkpt lat="45.901789516210556" lon="7.346713989973068">
        <ele>2581.2800000000002</ele>
        <time>2016-07-08T10:01:42Z</time>
      </trkpt>
      <trkpt lat="45.90178138576448" lon="7.346739303320646">
        <ele>2580.8000000000002</ele>
        <time>2016-07-08T10:01:53Z</time>
      </trkpt>
      <trkpt lat="45.901757832616568" lon="7.346764365211129">
        <ele>2580.8000000000002</ele>
        <time>2016-07-08T10:02:06Z</time>
      </trkpt>
      <trkpt lat="45.90171106159687" lon="7.346808034926653">
        <ele>2579.8400000000001</ele>
        <time>2016-07-08T10:02:19Z</time>
      </trkpt>
      <trkpt lat="45.901673678308725" lon="7.346842316910625">
        <ele>2579.8400000000001</ele>
        <time>2016-07-08T10:02:27Z</time>
      </trkpt>
      <trkpt lat="45.90164115652442" lon="7.346853548660874">
        <ele>2579.3499999999999</ele>
        <time>2016-07-08T10:02:30Z</time>
      </trkpt>
      <trkpt lat="45.901544010266662" lon="7.346867043524981">
        <ele>2576.9499999999998</ele>
        <time>2016-07-08T10:02:41Z</time>
      </trkpt>
      <trkpt lat="45.901518110185862" lon="7.346886908635497">
        <ele>2576.4699999999998</ele>
        <time>2016-07-08T10:02:44Z</time>
      </trkpt>
      <trkpt lat="45.90147502720356" lon="7.346881125122309">
        <ele>2575.0300000000002</ele>
        <time>2016-07-08T10:02:48Z</time>
      </trkpt>
      <trkpt lat="45.901424400508404" lon="7.346925130113959">
        <ele>2574.5500000000002</ele>
        <time>2016-07-08T10:02:59Z</time>
      </trkpt>
      <trkpt lat="45.901432614773512" lon="7.346881795674563">
        <ele>2574.5500000000002</ele>
        <time>2016-07-08T10:03:09Z</time>
      </trkpt>
      <trkpt lat="45.901435716077685" lon="7.346925465390086">
        <ele>2574.5500000000002</ele>
        <time>2016-07-08T10:03:20Z</time>
      </trkpt>
      <trkpt lat="45.901465890929103" lon="7.346862182021141">
        <ele>2574.0700000000002</ele>
        <time>2016-07-08T10:03:31Z</time>
      </trkpt>
      <trkpt lat="45.901444768533111" lon="7.346880035474896">
        <ele>2574.0700000000002</ele>
        <time>2016-07-08T10:03:43Z</time>
      </trkpt>
      <trkpt lat="45.901370337232947" lon="7.346869977191091">
        <ele>2574.0700000000002</ele>
        <time>2016-07-08T10:03:59Z</time>
      </trkpt>
      <trkpt lat="45.90138559229672" lon="7.346811387687922">
        <ele>2574.0700000000002</ele>
        <time>2016-07-08T10:04:14Z</time>
      </trkpt>
      <trkpt lat="45.901398416608572" lon="7.346845753490925">
        <ele>2574.0700000000002</ele>
        <time>2016-07-08T10:04:28Z</time>
      </trkpt>
      <trkpt lat="45.901327840983868" lon="7.346896631643176">
        <ele>2574.0700000000002</ele>
        <time>2016-07-08T10:04:38Z</time>
      </trkpt>
      <trkpt lat="45.901312921196222" lon="7.346928315237165">
        <ele>2573.5900000000001</ele>
        <time>2016-07-08T10:04:43Z</time>
      </trkpt>
      <trkpt lat="45.901224324479699" lon="7.346978187561035">
        <ele>2571.1799999999998</ele>
        <time>2016-07-08T10:04:55Z</time>
      </trkpt>
      <trkpt lat="45.901120724156499" lon="7.347002914175391">
        <ele>2568.7800000000002</ele>
        <time>2016-07-08T10:05:08Z</time>
      </trkpt>
      <trkpt lat="45.901160035282373" lon="7.346865870058537">
        <ele>2566.8600000000001</ele>
        <time>2016-07-08T10:05:17Z</time>
      </trkpt>
      <trkpt lat="45.90118333697319" lon="7.346839467063546">
        <ele>2565.9000000000001</ele>
        <time>2016-07-08T10:05:21Z</time>
      </trkpt>
      <trkpt lat="45.901236478239298" lon="7.346778111532331">
        <ele>2564.4499999999998</ele>
        <time>2016-07-08T10:05:31Z</time>
      </trkpt>
      <trkpt lat="45.901245027780533" lon="7.346680462360382">
        <ele>2561.5700000000002</ele>
        <time>2016-07-08T10:05:42Z</time>
      </trkpt>
      <trkpt lat="45.901258857920766" lon="7.346595218405128">
        <ele>2558.6900000000001</ele>
        <time>2016-07-08T10:05:52Z</time>
      </trkpt>
      <trkpt lat="45.901257768273354" lon="7.346563618630171">
        <ele>2557.2399999999998</ele>
        <time>2016-07-08T10:05:59Z</time>
      </trkpt>
      <trkpt lat="45.901283416897058" lon="7.346444679424167">
        <ele>2554.8400000000001</ele>
        <time>2016-07-08T10:06:09Z</time>
      </trkpt>
      <trkpt lat="45.901297498494387" lon="7.34636077657342">
        <ele>2552.9200000000001</ele>
        <time>2016-07-08T10:06:19Z</time>
      </trkpt>
      <trkpt lat="45.901338318362832" lon="7.346254410222173">
        <ele>2551</ele>
        <time>2016-07-08T10:06:31Z</time>
      </trkpt>
      <trkpt lat="45.901360949501395" lon="7.346194311976433">
        <ele>2550.0300000000002</ele>
        <time>2016-07-08T10:06:39Z</time>
      </trkpt>
      <trkpt lat="45.901373103260994" lon="7.346159527078271">
        <ele>2548.5900000000001</ele>
        <time>2016-07-08T10:06:52Z</time>
      </trkpt>
      <trkpt lat="45.901395147666335" lon="7.346064392477274">
        <ele>2546.6700000000001</ele>
        <time>2016-07-08T10:07:01Z</time>
      </trkpt>
      <trkpt lat="45.901399254798889" lon="7.346037067472935">
        <ele>2546.6700000000001</ele>
        <time>2016-07-08T10:07:02Z</time>
      </trkpt>
      <trkpt lat="45.901409313082695" lon="7.346005216240883">
        <ele>2546.6700000000001</ele>
        <time>2016-07-08T10:07:05Z</time>
      </trkpt>
      <trkpt lat="45.9014090616256" lon="7.345981998369098">
        <ele>2545.71</ele>
        <time>2016-07-08T10:07:08Z</time>
      </trkpt>
      <trkpt lat="45.901434877887368" lon="7.345938412472606">
        <ele>2545.23</ele>
        <time>2016-07-08T10:07:17Z</time>
      </trkpt>
      <trkpt lat="45.901425490155816" lon="7.345971018075943">
        <ele>2545.71</ele>
        <time>2016-07-08T10:07:23Z</time>
      </trkpt>
      <trkpt lat="45.901419622823596" lon="7.345963306725025">
        <ele>2544.27</ele>
        <time>2016-07-08T10:07:31Z</time>
      </trkpt>
      <trkpt lat="45.901437224820256" lon="7.345880996435881">
        <ele>2542.8200000000002</ele>
        <time>2016-07-08T10:07:39Z</time>
      </trkpt>
      <trkpt lat="45.901412162929773" lon="7.345851575955749">
        <ele>2541.3800000000001</ele>
        <time>2016-07-08T10:07:48Z</time>
      </trkpt>
      <trkpt lat="45.901431106030941" lon="7.34590195119381">
        <ele>2540.4200000000001</ele>
        <time>2016-07-08T10:07:58Z</time>
      </trkpt>
      <trkpt lat="45.901353489607573" lon="7.345912428572774">
        <ele>2538.5</ele>
        <time>2016-07-08T10:08:10Z</time>
      </trkpt>
      <trkpt lat="45.90134896337986" lon="7.345901113003492">
        <ele>2537.54</ele>
        <time>2016-07-08T10:08:11Z</time>
      </trkpt>
      <trkpt lat="45.901336558163166" lon="7.345849312841892">
        <ele>2536.5799999999999</ele>
        <time>2016-07-08T10:08:19Z</time>
      </trkpt>
      <trkpt lat="45.901312502101064" lon="7.34577102586627">
        <ele>2534.1700000000001</ele>
        <time>2016-07-08T10:08:27Z</time>
      </trkpt>
      <trkpt lat="45.901287943124771" lon="7.345775719732046">
        <ele>2532.25</ele>
        <time>2016-07-08T10:08:37Z</time>
      </trkpt>
      <trkpt lat="45.901257265359163" lon="7.345731714740396">
        <ele>2531.29</ele>
        <time>2016-07-08T10:08:46Z</time>
      </trkpt>
      <trkpt lat="45.901242764666677" lon="7.345714950934053">
        <ele>2529.3699999999999</ele>
        <time>2016-07-08T10:08:57Z</time>
      </trkpt>
      <trkpt lat="45.901229772716761" lon="7.34571922570467">
        <ele>2526</ele>
        <time>2016-07-08T10:09:09Z</time>
      </trkpt>
      <trkpt lat="45.901248129084706" lon="7.345648650079966">
        <ele>2524.0799999999999</ele>
        <time>2016-07-08T10:09:20Z</time>
      </trkpt>
      <trkpt lat="45.901245782151818" lon="7.345506744459271">
        <ele>2521.1900000000001</ele>
        <time>2016-07-08T10:09:32Z</time>
      </trkpt>
      <trkpt lat="45.901258019730449" lon="7.345425188541412">
        <ele>2518.79</ele>
        <time>2016-07-08T10:09:42Z</time>
      </trkpt>
      <trkpt lat="45.901247961446643" lon="7.345390571281314">
        <ele>2517.3499999999999</ele>
        <time>2016-07-08T10:09:51Z</time>
      </trkpt>
      <trkpt lat="45.901235640048981" lon="7.345376741141081">
        <ele>2516.8699999999999</ele>
        <time>2016-07-08T10:09:53Z</time>
      </trkpt>
      <trkpt lat="45.901208985596895" lon="7.345285126939416">
        <ele>2514.9499999999998</ele>
        <time>2016-07-08T10:10:02Z</time>
      </trkpt>
      <trkpt lat="45.901203202083707" lon="7.345264591276646">
        <ele>2513.98</ele>
        <time>2016-07-08T10:10:14Z</time>
      </trkpt>
      <trkpt lat="45.901222480461001" lon="7.3451978713274">
        <ele>2513.98</ele>
        <time>2016-07-08T10:10:24Z</time>
      </trkpt>
      <trkpt lat="45.901219630613923" lon="7.345136012881994">
        <ele>2513.02</ele>
        <time>2016-07-08T10:10:31Z</time>
      </trkpt>
      <trkpt lat="45.901226587593555" lon="7.345101982355118">
        <ele>2513.02</ele>
        <time>2016-07-08T10:10:35Z</time>
      </trkpt>
      <trkpt lat="45.901217954233289" lon="7.345035178586841">
        <ele>2511.5799999999999</ele>
        <time>2016-07-08T10:10:45Z</time>
      </trkpt>
      <trkpt lat="45.901188282296062" lon="7.344980360940099">
        <ele>2509.6599999999999</ele>
        <time>2016-07-08T10:10:54Z</time>
      </trkpt>
      <trkpt lat="45.901175709441304" lon="7.344943145290017">
        <ele>2508.6999999999998</ele>
        <time>2016-07-08T10:11:03Z</time>
      </trkpt>
      <trkpt lat="45.901167495176196" lon="7.344959154725075">
        <ele>2508.6999999999998</ele>
        <time>2016-07-08T10:11:14Z</time>
      </trkpt>
      <trkpt lat="45.901149474084377" lon="7.344939708709717">
        <ele>2508.2199999999998</ele>
        <time>2016-07-08T10:11:26Z</time>
      </trkpt>
      <trkpt lat="45.901145283132792" lon="7.344869552180171">
        <ele>2506.77</ele>
        <time>2016-07-08T10:11:37Z</time>
      </trkpt>
      <trkpt lat="45.901130950078368" lon="7.344832252711058">
        <ele>2505.8099999999999</ele>
        <time>2016-07-08T10:11:40Z</time>
      </trkpt>
      <trkpt lat="45.901120640337467" lon="7.344738123938441">
        <ele>2504.3699999999999</ele>
        <time>2016-07-08T10:11:47Z</time>
      </trkpt>
      <trkpt lat="45.901098595932126" lon="7.344648269936442">
        <ele>2503.4099999999999</ele>
        <time>2016-07-08T10:11:57Z</time>
      </trkpt>
      <trkpt lat="45.901197250932455" lon="7.344716917723417">
        <ele>2502.9299999999998</ele>
        <time>2016-07-08T10:12:10Z</time>
      </trkpt>
      <trkpt lat="45.901182247325778" lon="7.344705434516072">
        <ele>2502.9299999999998</ele>
        <time>2016-07-08T10:12:11Z</time>
      </trkpt>
      <trkpt lat="45.901078982278705" lon="7.344632763415575">
        <ele>2501.0100000000002</ele>
        <time>2016-07-08T10:12:24Z</time>
      </trkpt>
      <trkpt lat="45.901061212643981" lon="7.344592781737447">
        <ele>2501.0100000000002</ele>
        <time>2016-07-08T10:12:40Z</time>
      </trkpt>
      <trkpt lat="45.901056518778205" lon="7.344562187790871">
        <ele>2500.5300000000002</ele>
        <time>2016-07-08T10:12:52Z</time>
      </trkpt>
      <trkpt lat="45.901079820469022" lon="7.344635277986527">
        <ele>2500.5300000000002</ele>
        <time>2016-07-08T10:13:02Z</time>
      </trkpt>
      <trkpt lat="45.901082754135132" lon="7.344644665718079">
        <ele>2500.5300000000002</ele>
        <time>2016-07-08T10:13:14Z</time>
      </trkpt>
      <trkpt lat="45.901091219857335" lon="7.344639049842954">
        <ele>2500.5300000000002</ele>
        <time>2016-07-08T10:13:29Z</time>
      </trkpt>
      <trkpt lat="45.901075378060341" lon="7.344626812264323">
        <ele>2500.5300000000002</ele>
        <time>2016-07-08T10:13:39Z</time>
      </trkpt>
      <trkpt lat="45.901064481586218" lon="7.34460024163127">
        <ele>2499.5700000000002</ele>
        <time>2016-07-08T10:13:51Z</time>
      </trkpt>
      <trkpt lat="45.901070851832628" lon="7.344620022922754">
        <ele>2500.0500000000002</ele>
        <time>2016-07-08T10:13:59Z</time>
      </trkpt>
      <trkpt lat="45.901095159351826" lon="7.344616837799549">
        <ele>2499.5700000000002</ele>
        <time>2016-07-08T10:14:14Z</time>
      </trkpt>
      <trkpt lat="45.901054926216602" lon="7.344605941325426">
        <ele>2498.5999999999999</ele>
        <time>2016-07-08T10:14:25Z</time>
      </trkpt>
      <trkpt lat="45.900994744151831" lon="7.344593787565827">
        <ele>2498.5999999999999</ele>
        <time>2016-07-08T10:14:36Z</time>
      </trkpt>
      <trkpt lat="45.900966497138143" lon="7.344588590785861">
        <ele>2498.1199999999999</ele>
        <time>2016-07-08T10:14:38Z</time>
      </trkpt>
      <trkpt lat="45.900899274274707" lon="7.344528157263994">
        <ele>2497.1599999999999</ele>
        <time>2016-07-08T10:14:45Z</time>
      </trkpt>
      <trkpt lat="45.900803301483393" lon="7.344433525577188">
        <ele>2496.1999999999998</ele>
        <time>2016-07-08T10:14:55Z</time>
      </trkpt>
      <trkpt lat="45.900691319257021" lon="7.344323135912418">
        <ele>2495.2399999999998</ele>
        <time>2016-07-08T10:15:06Z</time>
      </trkpt>
      <trkpt lat="45.900552682578564" lon="7.344212243333459">
        <ele>2494.7600000000002</ele>
        <time>2016-07-08T10:15:20Z</time>
      </trkpt>
      <trkpt lat="45.900459894910455" lon="7.344153570011258">
        <ele>2494.7600000000002</ele>
        <time>2016-07-08T10:15:30Z</time>
      </trkpt>
      <trkpt lat="45.900390995666385" lon="7.344082072377205">
        <ele>2490.4299999999998</ele>
        <time>2016-07-08T10:15:38Z</time>
      </trkpt>
      <trkpt lat="45.90038537979126" lon="7.344073941931129">
        <ele>2490.4299999999998</ele>
        <time>2016-07-08T10:15:39Z</time>
      </trkpt>
      <trkpt lat="45.900338273495436" lon="7.344066984951496">
        <ele>2489.4699999999998</ele>
        <time>2016-07-08T10:15:51Z</time>
      </trkpt>
      <trkpt lat="45.900344140827656" lon="7.344014430418611">
        <ele>2488.5100000000002</ele>
        <time>2016-07-08T10:15:59Z</time>
      </trkpt>
      <trkpt lat="45.900342045351863" lon="7.344028595834971">
        <ele>2488.0300000000002</ele>
        <time>2016-07-08T10:16:02Z</time>
      </trkpt>
      <trkpt lat="45.900306757539511" lon="7.344033708795905">
        <ele>2488.0300000000002</ele>
        <time>2016-07-08T10:16:12Z</time>
      </trkpt>
      <trkpt lat="45.900301476940513" lon="7.34403102658689">
        <ele>2487.5500000000002</ele>
        <time>2016-07-08T10:16:13Z</time>
      </trkpt>
      <trkpt lat="45.900178011506796" lon="7.344037229195237">
        <ele>2486.1100000000001</ele>
        <time>2016-07-08T10:16:23Z</time>
      </trkpt>
      <trkpt lat="45.90015915222466" lon="7.343981489539146">
        <ele>2485.1500000000001</ele>
        <time>2016-07-08T10:16:26Z</time>
      </trkpt>
      <trkpt lat="45.900103077292442" lon="7.343862550333142">
        <ele>2483.6999999999998</ele>
        <time>2016-07-08T10:16:38Z</time>
      </trkpt>
      <trkpt lat="45.900012301281095" lon="7.343792393803597">
        <ele>2482.2600000000002</ele>
        <time>2016-07-08T10:16:47Z</time>
      </trkpt>
      <trkpt lat="45.899881962686777" lon="7.343765823170543">
        <ele>2480.8200000000002</ele>
        <time>2016-07-08T10:16:59Z</time>
      </trkpt>
      <trkpt lat="45.899732764810324" lon="7.343668173998594">
        <ele>2478.4200000000001</ele>
        <time>2016-07-08T10:17:10Z</time>
      </trkpt>
      <trkpt lat="45.899704853072762" lon="7.343636909499764">
        <ele>2477.9400000000001</ele>
        <time>2016-07-08T10:17:14Z</time>
      </trkpt>
      <trkpt lat="45.89959773235023" lon="7.343516293913126">
        <ele>2476.4899999999998</ele>
        <time>2016-07-08T10:17:25Z</time>
      </trkpt>
      <trkpt lat="45.899540148675442" lon="7.343423254787922">
        <ele>2475.0500000000002</ele>
        <time>2016-07-08T10:17:33Z</time>
      </trkpt>
      <trkpt lat="45.899523384869099" lon="7.343427529558539">
        <ele>2475.0500000000002</ele>
        <time>2016-07-08T10:17:34Z</time>
      </trkpt>
      <trkpt lat="45.89940276928246" lon="7.34328780323267">
        <ele>2473.6100000000001</ele>
        <time>2016-07-08T10:17:47Z</time>
      </trkpt>
      <trkpt lat="45.899313585832715" lon="7.343246396631002">
        <ele>2472.6500000000001</ele>
        <time>2016-07-08T10:17:55Z</time>
      </trkpt>
      <trkpt lat="45.899325823411345" lon="7.343177748844028">
        <ele>2472.6500000000001</ele>
        <time>2016-07-08T10:18:05Z</time>
      </trkpt>
      <trkpt lat="45.899344766512513" lon="7.343176994472742">
        <ele>2473.1300000000001</ele>
        <time>2016-07-08T10:18:06Z</time>
      </trkpt>
      <trkpt lat="45.899376031011343" lon="7.343167774379253">
        <ele>2473.1300000000001</ele>
        <time>2016-07-08T10:18:08Z</time>
      </trkpt>
      <trkpt lat="45.899446103721857" lon="7.343171797692776">
        <ele>2473.1300000000001</ele>
        <time>2016-07-08T10:18:17Z</time>
      </trkpt>
      <trkpt lat="45.899496898055077" lon="7.343210354447365">
        <ele>2473.6100000000001</ele>
        <time>2016-07-08T10:18:25Z</time>
      </trkpt>
      <trkpt lat="45.899533275514841" lon="7.343217479065061">
        <ele>2474.0900000000001</ele>
        <time>2016-07-08T10:18:30Z</time>
      </trkpt>
      <trkpt lat="45.899723879992962" lon="7.343253353610635">
        <ele>2474.5700000000002</ele>
        <time>2016-07-08T10:18:40Z</time>
      </trkpt>
      <trkpt lat="45.899728573858738" lon="7.343231393024325">
        <ele>2474.0900000000001</ele>
        <time>2016-07-08T10:18:43Z</time>
      </trkpt>
      <trkpt lat="45.89974625967443" lon="7.343192417174578">
        <ele>2474.0900000000001</ele>
        <time>2016-07-08T10:18:52Z</time>
      </trkpt>
      <trkpt lat="45.899760592728853" lon="7.34320423565805">
        <ele>2474.0900000000001</ele>
        <time>2016-07-08T10:18:58Z</time>
      </trkpt>
      <trkpt lat="45.899765286594629" lon="7.343267183750868">
        <ele>2475.0500000000002</ele>
        <time>2016-07-08T10:19:07Z</time>
      </trkpt>
      <trkpt lat="45.899762436747551" lon="7.343260310590267">
        <ele>2476.0100000000002</ele>
        <time>2016-07-08T10:19:14Z</time>
      </trkpt>
      <trkpt lat="45.899733267724514" lon="7.343189232051373">
        <ele>2474.0900000000001</ele>
        <time>2016-07-08T10:19:24Z</time>
      </trkpt>
      <trkpt lat="45.899727651849389" lon="7.343187471851707">
        <ele>2474.0900000000001</ele>
        <time>2016-07-08T10:19:37Z</time>
      </trkpt>
      <trkpt lat="45.899745337665081" lon="7.343229968100786">
        <ele>2473.6100000000001</ele>
        <time>2016-07-08T10:19:42Z</time>
      </trkpt>
      <trkpt lat="45.899806441739202" lon="7.343280510976911">
        <ele>2474.5700000000002</ele>
        <time>2016-07-08T10:19:51Z</time>
      </trkpt>
      <trkpt lat="45.899841813370585" lon="7.343286881223321">
        <ele>2474.0900000000001</ele>
        <time>2016-07-08T10:20:02Z</time>
      </trkpt>
      <trkpt lat="45.89984642341733" lon="7.343263076618314">
        <ele>2474.0900000000001</ele>
        <time>2016-07-08T10:20:10Z</time>
      </trkpt>
      <trkpt lat="45.899845417588949" lon="7.343288976699114">
        <ele>2474.0900000000001</ele>
        <time>2016-07-08T10:20:19Z</time>
      </trkpt>
      <trkpt lat="45.899825636297464" lon="7.34330833889544">
        <ele>2474.0900000000001</ele>
        <time>2016-07-08T10:20:29Z</time>
      </trkpt>
      <trkpt lat="45.899842064827681" lon="7.34329903498292">
        <ele>2474.0900000000001</ele>
        <time>2016-07-08T10:20:39Z</time>
      </trkpt>
      <trkpt lat="45.899848183616996" lon="7.343287467956543">
        <ele>2474.0900000000001</ele>
        <time>2016-07-08T10:20:54Z</time>
      </trkpt>
      <trkpt lat="45.899844579398632" lon="7.343273553997278">
        <ele>2474.0900000000001</ele>
        <time>2016-07-08T10:21:05Z</time>
      </trkpt>
      <trkpt lat="45.899861007928848" lon="7.343258801847696">
        <ele>2475.0500000000002</ele>
        <time>2016-07-08T10:21:14Z</time>
      </trkpt>
      <trkpt lat="45.899875089526176" lon="7.343208342790604">
        <ele>2475.0500000000002</ele>
        <time>2016-07-08T10:21:29Z</time>
      </trkpt>
      <trkpt lat="45.899932757019997" lon="7.343250839039683">
        <ele>2475.5300000000002</ele>
        <time>2016-07-08T10:21:42Z</time>
      </trkpt>
      <trkpt lat="45.899952286854386" lon="7.343266932293773">
        <ele>2474.0900000000001</ele>
        <time>2016-07-08T10:21:44Z</time>
      </trkpt>
      <trkpt lat="45.900069801136851" lon="7.343320995569229">
        <ele>2476.0100000000002</ele>
        <time>2016-07-08T10:21:57Z</time>
      </trkpt>
      <trkpt lat="45.900060161948204" lon="7.3433259408921">
        <ele>2476.4899999999998</ele>
        <time>2016-07-08T10:22:08Z</time>
      </trkpt>
      <trkpt lat="45.90006971731782" lon="7.34331076964736">
        <ele>2476.4899999999998</ele>
        <time>2016-07-08T10:22:23Z</time>
      </trkpt>
      <trkpt lat="45.900074243545532" lon="7.343281852081418">
        <ele>2476.4899999999998</ele>
        <time>2016-07-08T10:22:32Z</time>
      </trkpt>
      <trkpt lat="45.900110034272075" lon="7.343280594795942">
        <ele>2477.4499999999998</ele>
        <time>2016-07-08T10:22:43Z</time>
      </trkpt>
      <trkpt lat="45.900131156668067" lon="7.34326483681798">
        <ele>2477.4499999999998</ele>
        <time>2016-07-08T10:22:59Z</time>
      </trkpt>
      <trkpt lat="45.900125708431005" lon="7.343245558440685">
        <ele>2477.4499999999998</ele>
        <time>2016-07-08T10:23:23Z</time>
      </trkpt>
      <trkpt lat="45.90009368956089" lon="7.343236925080419">
        <ele>2476.4899999999998</ele>
        <time>2016-07-08T10:23:33Z</time>
      </trkpt>
      <trkpt lat="45.899986317381263" lon="7.343232566490769">
        <ele>2476.0100000000002</ele>
        <time>2016-07-08T10:23:44Z</time>
      </trkpt>
      <trkpt lat="45.899830665439367" lon="7.343193087726831">
        <ele>2474.5700000000002</ele>
        <time>2016-07-08T10:23:55Z</time>
      </trkpt>
      <trkpt lat="45.899705858901143" lon="7.34315880574286">
        <ele>2472.6500000000001</ele>
        <time>2016-07-08T10:24:06Z</time>
      </trkpt>
      <trkpt lat="45.899651376530528" lon="7.343125529587269">
        <ele>2472.6500000000001</ele>
        <time>2016-07-08T10:24:11Z</time>
      </trkpt>
      <trkpt lat="45.899580800905824" lon="7.343114633113146">
        <ele>2472.1700000000001</ele>
        <time>2016-07-08T10:24:16Z</time>
      </trkpt>
      <trkpt lat="45.899440739303827" lon="7.34308504499495">
        <ele>2470.73</ele>
        <time>2016-07-08T10:24:27Z</time>
      </trkpt>
      <trkpt lat="45.899341497570276" lon="7.343097869306803">
        <ele>2470.2399999999998</ele>
        <time>2016-07-08T10:24:36Z</time>
      </trkpt>
      <trkpt lat="45.899194646626711" lon="7.343054786324501">
        <ele>2469.2800000000002</ele>
        <time>2016-07-08T10:24:48Z</time>
      </trkpt>
      <trkpt lat="45.899033797904849" lon="7.343054031953216">
        <ele>2468.3200000000002</ele>
        <time>2016-07-08T10:25:02Z</time>
      </trkpt>
      <trkpt lat="45.898953331634402" lon="7.343068281188607">
        <ele>2466.8800000000001</ele>
        <time>2016-07-08T10:25:13Z</time>
      </trkpt>
      <trkpt lat="45.899005047976971" lon="7.343017067760229">
        <ele>2466.4000000000001</ele>
        <time>2016-07-08T10:25:22Z</time>
      </trkpt>
      <trkpt lat="45.89901183731854" lon="7.343021426349878">
        <ele>2465.9200000000001</ele>
        <time>2016-07-08T10:25:32Z</time>
      </trkpt>
      <trkpt lat="45.899026840925217" lon="7.343049254268408">
        <ele>2466.4000000000001</ele>
        <time>2016-07-08T10:25:45Z</time>
      </trkpt>
      <trkpt lat="45.89895567856729" lon="7.343042548745871">
        <ele>2465.9200000000001</ele>
        <time>2016-07-08T10:25:51Z</time>
      </trkpt>
      <trkpt lat="45.898933215066791" lon="7.343053948134184">
        <ele>2464.96</ele>
        <time>2016-07-08T10:26:00Z</time>
      </trkpt>
      <trkpt lat="45.898930113762617" lon="7.343035340309143">
        <ele>2465.9200000000001</ele>
        <time>2016-07-08T10:26:12Z</time>
      </trkpt>
      <trkpt lat="45.898926761001348" lon="7.343023773282766">
        <ele>2465.9200000000001</ele>
        <time>2016-07-08T10:26:13Z</time>
      </trkpt>
      <trkpt lat="45.898910919204354" lon="7.343011032789946">
        <ele>2465.9200000000001</ele>
        <time>2016-07-08T10:26:15Z</time>
      </trkpt>
      <trkpt lat="45.898755602538586" lon="7.342939535155892">
        <ele>2464.96</ele>
        <time>2016-07-08T10:26:27Z</time>
      </trkpt>
      <trkpt lat="45.89863758534193" lon="7.3428700491786">
        <ele>2464</ele>
        <time>2016-07-08T10:26:37Z</time>
      </trkpt>
      <trkpt lat="45.898523507639766" lon="7.342783296480775">
        <ele>2462.5500000000002</ele>
        <time>2016-07-08T10:26:48Z</time>
      </trkpt>
      <trkpt lat="45.898456536233425" lon="7.342782039195299">
        <ele>2462.0700000000002</ele>
        <time>2016-07-08T10:26:58Z</time>
      </trkpt>
      <trkpt lat="45.89841035194695" lon="7.342751948162913">
        <ele>2462.0700000000002</ele>
        <time>2016-07-08T10:27:07Z</time>
      </trkpt>
      <trkpt lat="45.898302979767323" lon="7.342687323689461">
        <ele>2461.5900000000001</ele>
        <time>2016-07-08T10:27:16Z</time>
      </trkpt>
      <trkpt lat="45.898182280361652" lon="7.342622699216008">
        <ele>2460.6300000000001</ele>
        <time>2016-07-08T10:27:27Z</time>
      </trkpt>
      <trkpt lat="45.898101897910237" lon="7.34263158403337">
        <ele>2460.1500000000001</ele>
        <time>2016-07-08T10:27:38Z</time>
      </trkpt>
      <trkpt lat="45.898130228742957" lon="7.342628482729197">
        <ele>2459.1900000000001</ele>
        <time>2016-07-08T10:27:48Z</time>
      </trkpt>
      <trkpt lat="45.898136682808399" lon="7.342633763328195">
        <ele>2458.23</ele>
        <time>2016-07-08T10:27:59Z</time>
      </trkpt>
      <trkpt lat="45.898133665323257" lon="7.342635272070766">
        <ele>2458.23</ele>
        <time>2016-07-08T10:28:25Z</time>
      </trkpt>
      <trkpt lat="45.898107849061489" lon="7.342616161331534">
        <ele>2457.75</ele>
        <time>2016-07-08T10:28:47Z</time>
      </trkpt>
      <trkpt lat="45.89811572805047" lon="7.342624291777611">
        <ele>2457.75</ele>
        <time>2016-07-08T10:29:15Z</time>
      </trkpt>
      <trkpt lat="45.898141711950302" lon="7.342625381425023">
        <ele>2457.75</ele>
        <time>2016-07-08T10:29:39Z</time>
      </trkpt>
      <trkpt lat="45.898168031126261" lon="7.342621106654406">
        <ele>2457.75</ele>
        <time>2016-07-08T10:30:02Z</time>
      </trkpt>
      <trkpt lat="45.898126205429435" lon="7.342626890167594">
        <ele>2457.75</ele>
        <time>2016-07-08T10:30:21Z</time>
      </trkpt>
      <trkpt lat="45.898137269541621" lon="7.342626051977277">
        <ele>2458.71</ele>
        <time>2016-07-08T10:30:31Z</time>
      </trkpt>
      <trkpt lat="45.898138610646129" lon="7.342638708651066">
        <ele>2458.71</ele>
        <time>2016-07-08T10:30:33Z</time>
      </trkpt>
      <trkpt lat="45.898161828517914" lon="7.34264088794589">
        <ele>2458.23</ele>
        <time>2016-07-08T10:30:42Z</time>
      </trkpt>
      <trkpt lat="45.898110615089536" lon="7.34265111386776">
        <ele>2458.71</ele>
        <time>2016-07-08T10:30:52Z</time>
      </trkpt>
      <trkpt lat="45.897974744439125" lon="7.342627141624689">
        <ele>2456.79</ele>
        <time>2016-07-08T10:31:06Z</time>
      </trkpt>
      <trkpt lat="45.897812638431787" lon="7.342591350898147">
        <ele>2455.8200000000002</ele>
        <time>2016-07-08T10:31:18Z</time>
      </trkpt>
      <trkpt lat="45.89769009500742" lon="7.342583974823356">
        <ele>2454.3800000000001</ele>
        <time>2016-07-08T10:31:28Z</time>
      </trkpt>
      <trkpt lat="45.897568138316274" lon="7.342601912096143">
        <ele>2452.46</ele>
        <time>2016-07-08T10:31:39Z</time>
      </trkpt>
      <trkpt lat="45.897468728944659" lon="7.342647844925523">
        <ele>2451.02</ele>
        <time>2016-07-08T10:31:48Z</time>
      </trkpt>
      <trkpt lat="45.897336965426803" lon="7.342639211565256">
        <ele>2449.0999999999999</ele>
        <time>2016-07-08T10:31:58Z</time>
      </trkpt>
      <trkpt lat="45.897221714258194" lon="7.34265798702836">
        <ele>2448.1300000000001</ele>
        <time>2016-07-08T10:32:08Z</time>
      </trkpt>
      <trkpt lat="45.897168405354023" lon="7.342638792470098">
        <ele>2447.6500000000001</ele>
        <time>2016-07-08T10:32:13Z</time>
      </trkpt>
      <trkpt lat="45.897093638777733" lon="7.342630662024021">
        <ele>2447.6500000000001</ele>
        <time>2016-07-08T10:32:19Z</time>
      </trkpt>
      <trkpt lat="45.897021051496267" lon="7.342629572376609">
        <ele>2447.1700000000001</ele>
        <time>2016-07-08T10:32:26Z</time>
      </trkpt>
      <trkpt lat="45.896873865276575" lon="7.342655807733536">
        <ele>2446.21</ele>
        <time>2016-07-08T10:32:38Z</time>
      </trkpt>
      <trkpt lat="45.896723745390773" lon="7.342653460800648">
        <ele>2444.77</ele>
        <time>2016-07-08T10:32:50Z</time>
      </trkpt>
      <trkpt lat="45.896628610789776" lon="7.342655221000314">
        <ele>2444.29</ele>
        <time>2016-07-08T10:32:57Z</time>
      </trkpt>
      <trkpt lat="45.89652618393302" lon="7.342664608731866">
        <ele>2442.8499999999999</ele>
        <time>2016-07-08T10:33:09Z</time>
      </trkpt>
      <trkpt lat="45.896495757624507" lon="7.342659244313836">
        <ele>2442.3699999999999</ele>
        <time>2016-07-08T10:33:12Z</time>
      </trkpt>
      <trkpt lat="45.896451249718666" lon="7.342632925137878">
        <ele>2442.3699999999999</ele>
        <time>2016-07-08T10:33:17Z</time>
      </trkpt>
      <trkpt lat="45.896413614973426" lon="7.342668045312166">
        <ele>2443.3299999999999</ele>
        <time>2016-07-08T10:33:22Z</time>
      </trkpt>
      <trkpt lat="45.896368771791458" lon="7.34265698119998">
        <ele>2441.4099999999999</ele>
        <time>2016-07-08T10:33:26Z</time>
      </trkpt>
      <trkpt lat="45.896316049620509" lon="7.342611886560917">
        <ele>2440.9200000000001</ele>
        <time>2016-07-08T10:33:30Z</time>
      </trkpt>
      <trkpt lat="45.896265422925353" lon="7.342575928196311">
        <ele>2439.96</ele>
        <time>2016-07-08T10:33:36Z</time>
      </trkpt>
      <trkpt lat="45.896138017997146" lon="7.342657819390297">
        <ele>2439.96</ele>
        <time>2016-07-08T10:33:49Z</time>
      </trkpt>
      <trkpt lat="45.896103400737047" lon="7.342695370316505">
        <ele>2439.96</ele>
        <time>2016-07-08T10:33:54Z</time>
      </trkpt>
      <trkpt lat="45.896044475957751" lon="7.34277181327343">
        <ele>2440.9200000000001</ele>
        <time>2016-07-08T10:34:03Z</time>
      </trkpt>
      <trkpt lat="45.895931320264935" lon="7.342799389734864">
        <ele>2440.4400000000001</ele>
        <time>2016-07-08T10:34:12Z</time>
      </trkpt>
      <trkpt lat="45.895796036347747" lon="7.342743147164583">
        <ele>2439</ele>
        <time>2016-07-08T10:34:24Z</time>
      </trkpt>
      <trkpt lat="45.895681455731392" lon="7.342713139951229">
        <ele>2436.5999999999999</ele>
        <time>2016-07-08T10:34:35Z</time>
      </trkpt>
      <trkpt lat="45.895539550110698" lon="7.342765275388956">
        <ele>2436.5999999999999</ele>
        <time>2016-07-08T10:34:49Z</time>
      </trkpt>
      <trkpt lat="45.895415246486664" lon="7.342816237360239">
        <ele>2435.6399999999999</ele>
        <time>2016-07-08T10:34:59Z</time>
      </trkpt>
      <trkpt lat="45.895323799923062" lon="7.342827385291457">
        <ele>2434.6799999999998</ele>
        <time>2016-07-08T10:35:06Z</time>
      </trkpt>
      <trkpt lat="45.895193461328745" lon="7.342839119955897">
        <ele>2434.1999999999998</ele>
        <time>2016-07-08T10:35:19Z</time>
      </trkpt>
      <trkpt lat="45.895172925665975" lon="7.342851357534528">
        <ele>2434.1999999999998</ele>
        <time>2016-07-08T10:35:21Z</time>
      </trkpt>
      <trkpt lat="45.895062368363142" lon="7.342887734994292">
        <ele>2433.71</ele>
        <time>2016-07-08T10:35:31Z</time>
      </trkpt>
      <trkpt lat="45.894939322024584" lon="7.342943474650383">
        <ele>2433.71</ele>
        <time>2016-07-08T10:35:42Z</time>
      </trkpt>
      <trkpt lat="45.894875703379512" lon="7.343035759404302">
        <ele>2432.75</ele>
        <time>2016-07-08T10:35:52Z</time>
      </trkpt>
      <trkpt lat="45.894832955673337" lon="7.343023689463735">
        <ele>2431.79</ele>
        <time>2016-07-08T10:35:56Z</time>
      </trkpt>
      <trkpt lat="45.894818287342787" lon="7.343053193762898">
        <ele>2431.3099999999999</ele>
        <time>2016-07-08T10:35:58Z</time>
      </trkpt>
      <trkpt lat="45.894802948459983" lon="7.343159727752209">
        <ele>2429.8699999999999</ele>
        <time>2016-07-08T10:36:07Z</time>
      </trkpt>
      <trkpt lat="45.894723571836948" lon="7.343209180980921">
        <ele>2427.4699999999998</ele>
        <time>2016-07-08T10:36:16Z</time>
      </trkpt>
      <trkpt lat="45.894708735868335" lon="7.343223011121154">
        <ele>2427.9499999999998</ele>
        <time>2016-07-08T10:36:18Z</time>
      </trkpt>
      <trkpt lat="45.894624162465334" lon="7.343283863738179">
        <ele>2426.02</ele>
        <time>2016-07-08T10:36:28Z</time>
      </trkpt>
      <trkpt lat="45.894485861063004" lon="7.343301884829998">
        <ele>2425.0599999999999</ele>
        <time>2016-07-08T10:36:39Z</time>
      </trkpt>
      <trkpt lat="45.894349236041307" lon="7.343303225934506">
        <ele>2424.0999999999999</ele>
        <time>2016-07-08T10:36:52Z</time>
      </trkpt>
      <trkpt lat="45.894322078675032" lon="7.343304567039013">
        <ele>2423.6199999999999</ele>
        <time>2016-07-08T10:36:55Z</time>
      </trkpt>
      <trkpt lat="45.894305733963847" lon="7.3433259408921">
        <ele>2423.1399999999999</ele>
        <time>2016-07-08T10:36:58Z</time>
      </trkpt>
      <trkpt lat="45.894287377595901" lon="7.343376986682415">
        <ele>2422.6599999999999</ele>
        <time>2016-07-08T10:37:01Z</time>
      </trkpt>
      <trkpt lat="45.894216299057007" lon="7.343416716903448">
        <ele>2421.2199999999998</ele>
        <time>2016-07-08T10:37:08Z</time>
      </trkpt>
      <trkpt lat="45.894133066758513" lon="7.343434235081077">
        <ele>2418.8099999999999</ele>
        <time>2016-07-08T10:37:19Z</time>
      </trkpt>
      <trkpt lat="45.894096605479717" lon="7.343456530943513">
        <ele>2418.3299999999999</ele>
        <time>2016-07-08T10:37:23Z</time>
      </trkpt>
      <trkpt lat="45.894016642123461" lon="7.343430295586586">
        <ele>2416.4099999999999</ele>
        <time>2016-07-08T10:37:33Z</time>
      </trkpt>
      <trkpt lat="45.894000716507435" lon="7.343418058007956">
        <ele>2415.9299999999998</ele>
        <time>2016-07-08T10:37:36Z</time>
      </trkpt>
      <trkpt lat="45.893940115347505" lon="7.343365335837007">
        <ele>2414.0100000000002</ele>
        <time>2016-07-08T10:37:43Z</time>
      </trkpt>
      <trkpt lat="45.893855877220631" lon="7.34331026673317">
        <ele>2413.5300000000002</ele>
        <time>2016-07-08T10:37:51Z</time>
      </trkpt>
      <trkpt lat="45.893809525296092" lon="7.343278834596276">
        <ele>2413.0500000000002</ele>
        <time>2016-07-08T10:37:55Z</time>
      </trkpt>
      <trkpt lat="45.893709948286414" lon="7.343260226771236">
        <ele>2412.0900000000001</ele>
        <time>2016-07-08T10:38:06Z</time>
      </trkpt>
      <trkpt lat="45.893608694896102" lon="7.343200882896781">
        <ele>2412.0900000000001</ele>
        <time>2016-07-08T10:38:18Z</time>
      </trkpt>
      <trkpt lat="45.893484055995941" lon="7.343105329200625">
        <ele>2411.1199999999999</ele>
        <time>2016-07-08T10:38:30Z</time>
      </trkpt>
      <trkpt lat="45.893356986343861" lon="7.343071382492781">
        <ele>2409.6799999999998</ele>
        <time>2016-07-08T10:38:43Z</time>
      </trkpt>
      <trkpt lat="45.893289428204298" lon="7.343045901507139">
        <ele>2408.2399999999998</ele>
        <time>2016-07-08T10:38:49Z</time>
      </trkpt>
      <trkpt lat="45.893239136785269" lon="7.343009524047375">
        <ele>2408.7199999999998</ele>
        <time>2016-07-08T10:38:55Z</time>
      </trkpt>
      <trkpt lat="45.89313268661499" lon="7.342905588448048">
        <ele>2407.7600000000002</ele>
        <time>2016-07-08T10:39:09Z</time>
      </trkpt>
      <trkpt lat="45.893136542290449" lon="7.342917071655393">
        <ele>2407.7600000000002</ele>
        <time>2016-07-08T10:39:26Z</time>
      </trkpt>
      <trkpt lat="45.893151042982936" lon="7.342896368354559">
        <ele>2407.2800000000002</ele>
        <time>2016-07-08T10:39:45Z</time>
      </trkpt>
      <trkpt lat="45.893125645816326" lon="7.342858230695128">
        <ele>2407.2800000000002</ele>
        <time>2016-07-08T10:39:57Z</time>
      </trkpt>
      <trkpt lat="45.893131848424673" lon="7.34285295009613">
        <ele>2407.2800000000002</ele>
        <time>2016-07-08T10:40:19Z</time>
      </trkpt>
      <trkpt lat="45.893129333853722" lon="7.342847669497132">
        <ele>2407.2800000000002</ele>
        <time>2016-07-08T10:40:36Z</time>
      </trkpt>
      <trkpt lat="45.893087759613991" lon="7.342860829085112">
        <ele>2406.8000000000002</ele>
        <time>2016-07-08T10:40:51Z</time>
      </trkpt>
      <trkpt lat="45.893066385760903" lon="7.342806849628687">
        <ele>2405.8400000000001</ele>
        <time>2016-07-08T10:40:55Z</time>
      </trkpt>
      <trkpt lat="45.893079210072756" lon="7.342719594016671">
        <ele>2405.3600000000001</ele>
        <time>2016-07-08T10:41:00Z</time>
      </trkpt>
      <trkpt lat="45.893093040212989" lon="7.342646922916174">
        <ele>2405.8400000000001</ele>
        <time>2016-07-08T10:41:10Z</time>
      </trkpt>
      <trkpt lat="45.893076611682773" lon="7.342679193243384">
        <ele>2405.8400000000001</ele>
        <time>2016-07-08T10:41:21Z</time>
      </trkpt>
      <trkpt lat="45.893084490671754" lon="7.342664021998644">
        <ele>2405.8400000000001</ele>
        <time>2016-07-08T10:41:24Z</time>
      </trkpt>
      <trkpt lat="45.892979884520173" lon="7.342512393370271">
        <ele>2405.3600000000001</ele>
        <time>2016-07-08T10:41:36Z</time>
      </trkpt>
      <trkpt lat="45.89288785122335" lon="7.342366212978959">
        <ele>2404.8800000000001</ele>
        <time>2016-07-08T10:41:48Z</time>
      </trkpt>
      <trkpt lat="45.892802942544222" lon="7.342256661504507">
        <ele>2404.3899999999999</ele>
        <time>2016-07-08T10:41:59Z</time>
      </trkpt>
      <trkpt lat="45.892683416604996" lon="7.342120707035065">
        <ele>2404.3899999999999</ele>
        <time>2016-07-08T10:42:13Z</time>
      </trkpt>
      <trkpt lat="45.892542097717524" lon="7.341936137527227">
        <ele>2403.9099999999999</ele>
        <time>2016-07-08T10:42:29Z</time>
      </trkpt>
      <trkpt lat="45.892442017793655" lon="7.34180923551321">
        <ele>2403.4299999999998</ele>
        <time>2016-07-08T10:42:41Z</time>
      </trkpt>
      <trkpt lat="45.892456769943237" lon="7.341791801154614">
        <ele>2403.4299999999998</ele>
        <time>2016-07-08T10:42:49Z</time>
      </trkpt>
      <trkpt lat="45.89247202500701" lon="7.341784844174981">
        <ele>2402.4699999999998</ele>
        <time>2016-07-08T10:43:00Z</time>
      </trkpt>
      <trkpt lat="45.892467582598329" lon="7.341801691800356">
        <ele>2402.4699999999998</ele>
        <time>2016-07-08T10:43:22Z</time>
      </trkpt>
      <trkpt lat="45.892473701387644" lon="7.341805463656783">
        <ele>2402.4699999999998</ele>
        <time>2016-07-08T10:43:25Z</time>
      </trkpt>
      <trkpt lat="45.892402706667781" lon="7.341752406209707">
        <ele>2403.4299999999998</ele>
        <time>2016-07-08T10:43:33Z</time>
      </trkpt>
      <trkpt lat="45.892311930656433" lon="7.341641178354621">
        <ele>2402.9499999999998</ele>
        <time>2016-07-08T10:43:44Z</time>
      </trkpt>
      <trkpt lat="45.892185950651765" lon="7.341511929407716">
        <ele>2402.9499999999998</ele>
        <time>2016-07-08T10:43:58Z</time>
      </trkpt>
      <trkpt lat="45.892074136063457" lon="7.341402126476169">
        <ele>2403.9099999999999</ele>
        <time>2016-07-08T10:44:11Z</time>
      </trkpt>
      <trkpt lat="45.891971290111542" lon="7.341303220018745">
        <ele>2403.9099999999999</ele>
        <time>2016-07-08T10:44:22Z</time>
      </trkpt>
      <trkpt lat="45.891864504665136" lon="7.34119257889688">
        <ele>2404.3899999999999</ele>
        <time>2016-07-08T10:44:34Z</time>
      </trkpt>
      <trkpt lat="45.891843466088176" lon="7.341156201437116">
        <ele>2404.8800000000001</ele>
        <time>2016-07-08T10:44:37Z</time>
      </trkpt>
      <trkpt lat="45.891848914325237" lon="7.341070622205734">
        <ele>2404.3899999999999</ele>
        <time>2016-07-08T10:44:42Z</time>
      </trkpt>
      <trkpt lat="45.89188470505178" lon="7.34097951091826">
        <ele>2404.3899999999999</ele>
        <time>2016-07-08T10:44:50Z</time>
      </trkpt>
      <trkpt lat="45.891934912651777" lon="7.340840874239802">
        <ele>2404.8800000000001</ele>
        <time>2016-07-08T10:44:59Z</time>
      </trkpt>
      <trkpt lat="45.891953939571977" lon="7.34077138826251">
        <ele>2404.8800000000001</ele>
        <time>2016-07-08T10:45:05Z</time>
      </trkpt>
      <trkpt lat="45.891949580982327" lon="7.340736854821444">
        <ele>2404.8800000000001</ele>
        <time>2016-07-08T10:45:08Z</time>
      </trkpt>
      <trkpt lat="45.891948323696852" lon="7.340698214247823">
        <ele>2405.3600000000001</ele>
        <time>2016-07-08T10:45:11Z</time>
      </trkpt>
      <trkpt lat="45.89191940613091" lon="7.340587908402085">
        <ele>2405.3600000000001</ele>
        <time>2016-07-08T10:45:19Z</time>
      </trkpt>
      <trkpt lat="45.891856038942933" lon="7.340443907305598">
        <ele>2405.3600000000001</ele>
        <time>2016-07-08T10:45:32Z</time>
      </trkpt>
      <trkpt lat="45.891795018687844" lon="7.340360255911946">
        <ele>2404.8800000000001</ele>
        <time>2016-07-08T10:45:40Z</time>
      </trkpt>
      <trkpt lat="45.891680605709553" lon="7.340252632275224">
        <ele>2404.8800000000001</ele>
        <time>2016-07-08T10:45:52Z</time>
      </trkpt>
      <trkpt lat="45.891569629311562" lon="7.340100249275565">
        <ele>2403.9099999999999</ele>
        <time>2016-07-08T10:46:05Z</time>
      </trkpt>
      <trkpt lat="45.891476171091199" lon="7.339972173795104">
        <ele>2404.3899999999999</ele>
        <time>2016-07-08T10:46:17Z</time>
      </trkpt>
      <trkpt lat="45.891436524689198" lon="7.339931186288595">
        <ele>2404.3899999999999</ele>
        <time>2016-07-08T10:46:21Z</time>
      </trkpt>
      <trkpt lat="45.891374750062823" lon="7.339892461895943">
        <ele>2404.8800000000001</ele>
        <time>2016-07-08T10:46:27Z</time>
      </trkpt>
      <trkpt lat="45.891302078962326" lon="7.339838314801455">
        <ele>2405.8400000000001</ele>
        <time>2016-07-08T10:46:34Z</time>
      </trkpt>
      <trkpt lat="45.891207614913583" lon="7.339744521304965">
        <ele>2406.3200000000002</ele>
        <time>2016-07-08T10:46:45Z</time>
      </trkpt>
      <trkpt lat="45.89109999127686" lon="7.339660618454218">
        <ele>2406.3200000000002</ele>
        <time>2016-07-08T10:46:55Z</time>
      </trkpt>
      <trkpt lat="45.890954313799739" lon="7.33956984244287">
        <ele>2406.8000000000002</ele>
        <time>2016-07-08T10:47:08Z</time>
      </trkpt>
      <trkpt lat="45.89085565879941" lon="7.339394828304648">
        <ele>2406.8000000000002</ele>
        <time>2016-07-08T10:47:21Z</time>
      </trkpt>
      <trkpt lat="45.890764966607094" lon="7.339265746995807">
        <ele>2405.3600000000001</ele>
        <time>2016-07-08T10:47:32Z</time>
      </trkpt>
      <trkpt lat="45.890621552243829" lon="7.339094588533044">
        <ele>2402.4699999999998</ele>
        <time>2016-07-08T10:47:48Z</time>
      </trkpt>
      <trkpt lat="45.890478892251849" lon="7.33896684832871">
        <ele>2399.5900000000001</ele>
        <time>2016-07-08T10:48:03Z</time>
      </trkpt>
      <trkpt lat="45.890300273895264" lon="7.338902810588479">
        <ele>2396.6999999999998</ele>
        <time>2016-07-08T10:48:17Z</time>
      </trkpt>
      <trkpt lat="45.890109920874238" lon="7.338846316561103">
        <ele>2394.3000000000002</ele>
        <time>2016-07-08T10:48:32Z</time>
      </trkpt>
      <trkpt lat="45.889931637793779" lon="7.338826702907682">
        <ele>2391.9000000000001</ele>
        <time>2016-07-08T10:48:46Z</time>
      </trkpt>
      <trkpt lat="45.889750085771084" lon="7.338777501136065">
        <ele>2389.9699999999998</ele>
        <time>2016-07-08T10:49:00Z</time>
      </trkpt>
      <trkpt lat="45.889578592032194" lon="7.338747242465615">
        <ele>2387.5700000000002</ele>
        <time>2016-07-08T10:49:14Z</time>
      </trkpt>
      <trkpt lat="45.889413049444556" lon="7.338624782860279">
        <ele>2384.6900000000001</ele>
        <time>2016-07-08T10:49:28Z</time>
      </trkpt>
      <trkpt lat="45.889273742213845" lon="7.338472064584494">
        <ele>2381.8000000000002</ele>
        <time>2016-07-08T10:49:41Z</time>
      </trkpt>
      <trkpt lat="45.889127813279629" lon="7.338287243619561">
        <ele>2379.4000000000001</ele>
        <time>2016-07-08T10:49:55Z</time>
      </trkpt>
      <trkpt lat="45.888999067246914" lon="7.338149277493358">
        <ele>2377.48</ele>
        <time>2016-07-08T10:50:07Z</time>
      </trkpt>
      <trkpt lat="45.888839140534401" lon="7.338078618049622">
        <ele>2375.5500000000002</ele>
        <time>2016-07-08T10:50:20Z</time>
      </trkpt>
      <trkpt lat="45.88872036896646" lon="7.337997313588858">
        <ele>2374.1100000000001</ele>
        <time>2016-07-08T10:50:31Z</time>
      </trkpt>
      <trkpt lat="45.888633532449603" lon="7.337783239781857">
        <ele>2372.1900000000001</ele>
        <time>2016-07-08T10:50:46Z</time>
      </trkpt>
      <trkpt lat="45.888573098927736" lon="7.337558856233954">
        <ele>2370.75</ele>
        <time>2016-07-08T10:50:59Z</time>
      </trkpt>
      <trkpt lat="45.888528423383832" lon="7.337339166551828">
        <ele>2368.3499999999999</ele>
        <time>2016-07-08T10:51:12Z</time>
      </trkpt>
      <trkpt lat="45.888513503596187" lon="7.337271189317107">
        <ele>2367.8600000000001</ele>
        <time>2016-07-08T10:51:16Z</time>
      </trkpt>
      <trkpt lat="45.888494895771146" lon="7.337136492133141">
        <ele>2366.9000000000001</ele>
        <time>2016-07-08T10:51:24Z</time>
      </trkpt>
      <trkpt lat="45.888483915477991" lon="7.337070275098085">
        <ele>2366.9000000000001</ele>
        <time>2016-07-08T10:51:28Z</time>
      </trkpt>
      <trkpt lat="45.888462541624904" lon="7.336830049753189">
        <ele>2365.46</ele>
        <time>2016-07-08T10:51:41Z</time>
      </trkpt>
      <trkpt lat="45.888429852202535" lon="7.336677247658372">
        <ele>2364.98</ele>
        <time>2016-07-08T10:51:53Z</time>
      </trkpt>
      <trkpt lat="45.88843110948801" lon="7.336689066141844">
        <ele>2364.98</ele>
        <time>2016-07-08T10:51:56Z</time>
      </trkpt>
      <trkpt lat="45.888411495834589" lon="7.336493181064725">
        <ele>2363.0599999999999</ele>
        <time>2016-07-08T10:52:07Z</time>
      </trkpt>
      <trkpt lat="45.888394815847278" lon="7.336405925452709">
        <ele>2362.0999999999999</ele>
        <time>2016-07-08T10:52:12Z</time>
      </trkpt>
      <trkpt lat="45.888353744521737" lon="7.336133262142539">
        <ele>2360.6500000000001</ele>
        <time>2016-07-08T10:52:28Z</time>
      </trkpt>
      <trkpt lat="45.888307560235262" lon="7.335907621309161">
        <ele>2359.6900000000001</ele>
        <time>2016-07-08T10:52:41Z</time>
      </trkpt>
      <trkpt lat="45.888254586607218" lon="7.335689775645733">
        <ele>2359.21</ele>
        <time>2016-07-08T10:52:55Z</time>
      </trkpt>
      <trkpt lat="45.888185519725084" lon="7.335559269413352">
        <ele>2358.73</ele>
        <time>2016-07-08T10:53:06Z</time>
      </trkpt>
      <trkpt lat="45.888144616037607" lon="7.335482574999332">
        <ele>2358.25</ele>
        <time>2016-07-08T10:53:15Z</time>
      </trkpt>
      <trkpt lat="45.888042859733105" lon="7.335392720997334">
        <ele>2357.29</ele>
        <time>2016-07-08T10:53:27Z</time>
      </trkpt>
      <trkpt lat="45.88802408427" lon="7.335385009646416">
        <ele>2357.77</ele>
        <time>2016-07-08T10:53:41Z</time>
      </trkpt>
      <trkpt lat="45.888037998229265" lon="7.335393726825714">
        <ele>2357.29</ele>
        <time>2016-07-08T10:53:53Z</time>
      </trkpt>
      <trkpt lat="45.888072112575173" lon="7.335360618308187">
        <ele>2357.29</ele>
        <time>2016-07-08T10:54:04Z</time>
      </trkpt>
      <trkpt lat="45.888057947158813" lon="7.335365731269121">
        <ele>2357.29</ele>
        <time>2016-07-08T10:54:16Z</time>
      </trkpt>
      <trkpt lat="45.887961136177182" lon="7.335375789552927">
        <ele>2356.8099999999999</ele>
        <time>2016-07-08T10:54:26Z</time>
      </trkpt>
      <trkpt lat="45.887822918593884" lon="7.33533781953156">
        <ele>2354.8899999999999</ele>
        <time>2016-07-08T10:54:38Z</time>
      </trkpt>
      <trkpt lat="45.887737507000566" lon="7.335260035470128">
        <ele>2354.4099999999999</ele>
        <time>2016-07-08T10:54:48Z</time>
      </trkpt>
      <trkpt lat="45.887638181447983" lon="7.335249977186322">
        <ele>2354.4099999999999</ele>
        <time>2016-07-08T10:54:58Z</time>
      </trkpt>
      <trkpt lat="45.887596942484379" lon="7.335259364917874">
        <ele>2353.9299999999998</ele>
        <time>2016-07-08T10:55:04Z</time>
      </trkpt>
      <trkpt lat="45.887534748762846" lon="7.335277302190661">
        <ele>2352.96</ele>
        <time>2016-07-08T10:55:12Z</time>
      </trkpt>
      <trkpt lat="45.887515135109425" lon="7.335270009934902">
        <ele>2352.48</ele>
        <time>2016-07-08T10:55:14Z</time>
      </trkpt>
      <trkpt lat="45.887498371303082" lon="7.335261711850762">
        <ele>2352.48</ele>
        <time>2016-07-08T10:55:16Z</time>
      </trkpt>
      <trkpt lat="45.887434668838978" lon="7.335220389068127">
        <ele>2352</ele>
        <time>2016-07-08T10:55:24Z</time>
      </trkpt>
      <trkpt lat="45.887418827041984" lon="7.335227848961949">
        <ele>2352</ele>
        <time>2016-07-08T10:55:25Z</time>
      </trkpt>
      <trkpt lat="45.887381611391902" lon="7.33521519228816">
        <ele>2352</ele>
        <time>2016-07-08T10:55:30Z</time>
      </trkpt>
      <trkpt lat="45.887307347729802" lon="7.335193986073136">
        <ele>2351.52</ele>
        <time>2016-07-08T10:55:41Z</time>
      </trkpt>
      <trkpt lat="45.88730139657855" lon="7.335201110690832">
        <ele>2351.52</ele>
        <time>2016-07-08T10:55:42Z</time>
      </trkpt>
      <trkpt lat="45.88722419925034" lon="7.335256515070796">
        <ele>2352</ele>
        <time>2016-07-08T10:55:53Z</time>
      </trkpt>
      <trkpt lat="45.887212799862027" lon="7.335282750427723">
        <ele>2352</ele>
        <time>2016-07-08T10:55:59Z</time>
      </trkpt>
      <trkpt lat="45.887155886739492" lon="7.335370006039739">
        <ele>2350.0799999999999</ele>
        <time>2016-07-08T10:56:11Z</time>
      </trkpt>
      <trkpt lat="45.887128226459026" lon="7.335335640236735">
        <ele>2350.0799999999999</ele>
        <time>2016-07-08T10:56:23Z</time>
      </trkpt>
      <trkpt lat="45.887139374390244" lon="7.335324073210359">
        <ele>2350.0799999999999</ele>
        <time>2016-07-08T10:56:35Z</time>
      </trkpt>
      <trkpt lat="45.887128729373217" lon="7.335320385172963">
        <ele>2349.5999999999999</ele>
        <time>2016-07-08T10:56:47Z</time>
      </trkpt>
      <trkpt lat="45.887128561735153" lon="7.335324408486486">
        <ele>2349.5999999999999</ele>
        <time>2016-07-08T10:57:00Z</time>
      </trkpt>
      <trkpt lat="45.887127304449677" lon="7.335339076817036">
        <ele>2348.6399999999999</ele>
        <time>2016-07-08T10:57:10Z</time>
      </trkpt>
      <trkpt lat="45.887146247550845" lon="7.335336813703179">
        <ele>2348.6399999999999</ele>
        <time>2016-07-08T10:57:27Z</time>
      </trkpt>
      <trkpt lat="45.887153875082731" lon="7.335351565852761">
        <ele>2348.6399999999999</ele>
        <time>2016-07-08T10:57:41Z</time>
      </trkpt>
      <trkpt lat="45.887160999700427" lon="7.335351817309856">
        <ele>2348.6399999999999</ele>
        <time>2016-07-08T10:58:03Z</time>
      </trkpt>
      <trkpt lat="45.887165861204267" lon="7.335346536710858">
        <ele>2348.1599999999999</ele>
        <time>2016-07-08T10:58:30Z</time>
      </trkpt>
      <trkpt lat="45.887176003307104" lon="7.335342932492495">
        <ele>2348.1599999999999</ele>
        <time>2016-07-08T10:59:00Z</time>
      </trkpt>
      <trkpt lat="45.887175751850009" lon="7.335342429578304">
        <ele>2348.1599999999999</ele>
        <time>2016-07-08T10:59:20Z</time>
      </trkpt>
      <trkpt lat="45.887164436280727" lon="7.335338825359941">
        <ele>2348.1599999999999</ele>
        <time>2016-07-08T10:59:46Z</time>
      </trkpt>
      <trkpt lat="45.887165023013949" lon="7.335341675207019">
        <ele>2348.1599999999999</ele>
        <time>2016-07-08T11:00:11Z</time>
      </trkpt>
      <trkpt lat="45.887160580605268" lon="7.33534368686378">
        <ele>2348.1599999999999</ele>
        <time>2016-07-08T11:00:42Z</time>
      </trkpt>
      <trkpt lat="45.887164855375886" lon="7.335343267768621">
        <ele>2347.6799999999998</ele>
        <time>2016-07-08T11:01:13Z</time>
      </trkpt>
      <trkpt lat="45.887154210358858" lon="7.335346201434732">
        <ele>2347.6799999999998</ele>
        <time>2016-07-08T11:01:35Z</time>
      </trkpt>
      <trkpt lat="45.887160832062364" lon="7.335341088473797">
        <ele>2347.6799999999998</ele>
        <time>2016-07-08T11:02:02Z</time>
      </trkpt>
      <trkpt lat="45.887164436280727" lon="7.335341339930892">
        <ele>2347.6799999999998</ele>
        <time>2016-07-08T11:02:34Z</time>
      </trkpt>
      <trkpt lat="45.887171057984233" lon="7.335336897522211">
        <ele>2348.1599999999999</ele>
        <time>2016-07-08T11:03:09Z</time>
      </trkpt>
      <trkpt lat="45.887171979993582" lon="7.335334550589323">
        <ele>2347.6799999999998</ele>
        <time>2016-07-08T11:03:42Z</time>
      </trkpt>
      <trkpt lat="45.887171309441328" lon="7.33534025028348">
        <ele>2347.6799999999998</ele>
        <time>2016-07-08T11:04:08Z</time>
      </trkpt>
      <trkpt lat="45.887177009135485" lon="7.335335556417704">
        <ele>2347.6799999999998</ele>
        <time>2016-07-08T11:04:34Z</time>
      </trkpt>
      <trkpt lat="45.887169130146503" lon="7.335339663550258">
        <ele>2347.1999999999998</ele>
        <time>2016-07-08T11:05:09Z</time>
      </trkpt>
      <trkpt lat="45.887169381603599" lon="7.335333963856101">
        <ele>2347.6799999999998</ele>
        <time>2016-07-08T11:05:40Z</time>
      </trkpt>
      <trkpt lat="45.887169884517789" lon="7.335338406264782">
        <ele>2347.1999999999998</ele>
        <time>2016-07-08T11:06:06Z</time>
      </trkpt>
      <trkpt lat="45.887176673859358" lon="7.335328180342913">
        <ele>2347.1999999999998</ele>
        <time>2016-07-08T11:06:43Z</time>
      </trkpt>
      <trkpt lat="45.887178769335151" lon="7.335332958027721">
        <ele>2347.1999999999998</ele>
        <time>2016-07-08T11:07:12Z</time>
      </trkpt>
      <trkpt lat="45.887168543413281" lon="7.335336981341243">
        <ele>2347.1999999999998</ele>
        <time>2016-07-08T11:07:46Z</time>
      </trkpt>
      <trkpt lat="45.887171309441328" lon="7.335336226969957">
        <ele>2347.1999999999998</ele>
        <time>2016-07-08T11:08:16Z</time>
      </trkpt>
      <trkpt lat="45.887172818183899" lon="7.335335053503513">
        <ele>2346.7199999999998</ele>
        <time>2016-07-08T11:08:46Z</time>
      </trkpt>
      <trkpt lat="45.887167621403933" lon="7.335332958027721">
        <ele>2347.1999999999998</ele>
        <time>2016-07-08T11:09:19Z</time>
      </trkpt>
      <trkpt lat="45.887168627232313" lon="7.335336143150926">
        <ele>2346.7199999999998</ele>
        <time>2016-07-08T11:09:46Z</time>
      </trkpt>
      <trkpt lat="45.887171644717455" lon="7.335339915007353">
        <ele>2346.7199999999998</ele>
        <time>2016-07-08T11:10:10Z</time>
      </trkpt>
      <trkpt lat="45.88717189617455" lon="7.335336813703179">
        <ele>2346.23</ele>
        <time>2016-07-08T11:10:35Z</time>
      </trkpt>
      <trkpt lat="45.88716653175652" lon="7.335339579731226">
        <ele>2346.23</ele>
        <time>2016-07-08T11:11:07Z</time>
      </trkpt>
      <trkpt lat="45.887170974165201" lon="7.335336226969957">
        <ele>2346.23</ele>
        <time>2016-07-08T11:11:38Z</time>
      </trkpt>
      <trkpt lat="45.887170890346169" lon="7.335336897522211">
        <ele>2346.23</ele>
        <time>2016-07-08T11:12:07Z</time>
      </trkpt>
      <trkpt lat="45.887164184823632" lon="7.335338825359941">
        <ele>2346.23</ele>
        <time>2016-07-08T11:12:32Z</time>
      </trkpt>
      <trkpt lat="45.887169968336821" lon="7.33534368686378">
        <ele>2346.23</ele>
        <time>2016-07-08T11:13:02Z</time>
      </trkpt>
      <trkpt lat="45.887167705222964" lon="7.335348967462778">
        <ele>2345.75</ele>
        <time>2016-07-08T11:13:30Z</time>
      </trkpt>
      <trkpt lat="45.887171979993582" lon="7.335345866158605">
        <ele>2345.75</ele>
        <time>2016-07-08T11:13:58Z</time>
      </trkpt>
      <trkpt lat="45.887173991650343" lon="7.335343938320875">
        <ele>2345.75</ele>
        <time>2016-07-08T11:14:31Z</time>
      </trkpt>
      <trkpt lat="45.887177428230643" lon="7.335348380729556">
        <ele>2345.75</ele>
        <time>2016-07-08T11:14:55Z</time>
      </trkpt>
      <trkpt lat="45.887178517878056" lon="7.335350392386317">
        <ele>2346.23</ele>
        <time>2016-07-08T11:15:22Z</time>
      </trkpt>
      <trkpt lat="45.887148175388575" lon="7.335326168686152">
        <ele>2345.75</ele>
        <time>2016-07-08T11:15:33Z</time>
      </trkpt>
      <trkpt lat="45.88713962584734" lon="7.335291970521212">
        <ele>2345.75</ele>
        <time>2016-07-08T11:16:03Z</time>
      </trkpt>
      <trkpt lat="45.887154964730144" lon="7.335293143987656">
        <ele>2345.75</ele>
        <time>2016-07-08T11:16:38Z</time>
      </trkpt>
      <trkpt lat="45.887159155681729" lon="7.335299095138907">
        <ele>2345.75</ele>
        <time>2016-07-08T11:17:10Z</time>
      </trkpt>
      <trkpt lat="45.887158066034317" lon="7.335304878652096">
        <ele>2345.75</ele>
        <time>2016-07-08T11:17:56Z</time>
      </trkpt>
      <trkpt lat="45.887159155681729" lon="7.335303872823715">
        <ele>2345.27</ele>
        <time>2016-07-08T11:18:32Z</time>
      </trkpt>
      <trkpt lat="45.887160245329142" lon="7.335312087088823">
        <ele>2345.75</ele>
        <time>2016-07-08T11:19:14Z</time>
      </trkpt>
      <trkpt lat="45.887168040499091" lon="7.335342345759273">
        <ele>2345.75</ele>
        <time>2016-07-08T11:19:32Z</time>
      </trkpt>
      <trkpt lat="45.887180529534817" lon="7.335335807874799">
        <ele>2345.27</ele>
        <time>2016-07-08T11:20:03Z</time>
      </trkpt>
      <trkpt lat="45.88717139326036" lon="7.33533781953156">
        <ele>2344.79</ele>
        <time>2016-07-08T11:20:33Z</time>
      </trkpt>
      <trkpt lat="45.887166783213615" lon="7.335334215313196">
        <ele>2344.79</ele>
        <time>2016-07-08T11:21:05Z</time>
      </trkpt>
      <trkpt lat="45.887176003307104" lon="7.335337568074465">
        <ele>2344.79</ele>
        <time>2016-07-08T11:21:44Z</time>
      </trkpt>
      <trkpt lat="45.887176422402263" lon="7.335342094302177">
        <ele>2344.3099999999999</ele>
        <time>2016-07-08T11:22:18Z</time>
      </trkpt>
      <trkpt lat="45.887176003307104" lon="7.335332371294498">
        <ele>2344.3099999999999</ele>
        <time>2016-07-08T11:22:55Z</time>
      </trkpt>
      <trkpt lat="45.887173907831311" lon="7.335331281647086">
        <ele>2344.3099999999999</ele>
        <time>2016-07-08T11:23:29Z</time>
      </trkpt>
      <trkpt lat="45.887171560898423" lon="7.335338154807687">
        <ele>2344.3099999999999</ele>
        <time>2016-07-08T11:24:03Z</time>
      </trkpt>
      <trkpt lat="45.887173237279058" lon="7.335335724055767">
        <ele>2344.3099999999999</ele>
        <time>2016-07-08T11:24:42Z</time>
      </trkpt>
      <trkpt lat="45.88717533275485" lon="7.33533538877964">
        <ele>2344.3099999999999</ele>
        <time>2016-07-08T11:25:24Z</time>
      </trkpt>
      <trkpt lat="45.887168711051345" lon="7.335333460941911">
        <ele>2343.8299999999999</ele>
        <time>2016-07-08T11:26:02Z</time>
      </trkpt>
      <trkpt lat="45.887172063812613" lon="7.335333209484816">
        <ele>2343.8299999999999</ele>
        <time>2016-07-08T11:26:35Z</time>
      </trkpt>
      <trkpt lat="45.887170890346169" lon="7.335336059331894">
        <ele>2343.8299999999999</ele>
        <time>2016-07-08T11:27:10Z</time>
      </trkpt>
      <trkpt lat="45.887177176773548" lon="7.335339579731226">
        <ele>2343.8299999999999</ele>
        <time>2016-07-08T11:27:39Z</time>
      </trkpt>
      <trkpt lat="45.887182960286736" lon="7.335339579731226">
        <ele>2343.8299999999999</ele>
        <time>2016-07-08T11:28:11Z</time>
      </trkpt>
      <trkpt lat="45.887176087126136" lon="7.335337568074465">
        <ele>2343.3499999999999</ele>
        <time>2016-07-08T11:28:41Z</time>
      </trkpt>
      <trkpt lat="45.887177679687738" lon="7.335338909178972">
        <ele>2343.3499999999999</ele>
        <time>2016-07-08T11:29:14Z</time>
      </trkpt>
      <trkpt lat="45.887163430452347" lon="7.335340501740575">
        <ele>2343.3499999999999</ele>
        <time>2016-07-08T11:29:40Z</time>
      </trkpt>
      <trkpt lat="45.887151109054685" lon="7.335334466770291">
        <ele>2343.3499999999999</ele>
        <time>2016-07-08T11:30:05Z</time>
      </trkpt>
      <trkpt lat="45.887147588655353" lon="7.335333628579974">
        <ele>2343.3499999999999</ele>
        <time>2016-07-08T11:30:34Z</time>
      </trkpt>
      <trkpt lat="45.887167286127806" lon="7.335313428193331">
        <ele>2342.8699999999999</ele>
        <time>2016-07-08T11:31:10Z</time>
      </trkpt>
      <trkpt lat="45.88715823367238" lon="7.335337484255433">
        <ele>2342.3899999999999</ele>
        <time>2016-07-08T11:31:27Z</time>
      </trkpt>
      <trkpt lat="45.887166699394584" lon="7.335347710177302">
        <ele>2341.9099999999999</ele>
        <time>2016-07-08T11:31:44Z</time>
      </trkpt>
      <trkpt lat="45.887163262814283" lon="7.335348296910524">
        <ele>2342.3899999999999</ele>
        <time>2016-07-08T11:32:04Z</time>
      </trkpt>
      <trkpt lat="45.887165358290076" lon="7.33534662052989">
        <ele>2341.9099999999999</ele>
        <time>2016-07-08T11:32:30Z</time>
      </trkpt>
      <trkpt lat="45.887162508442998" lon="7.335341591387987">
        <ele>2341.9099999999999</ele>
        <time>2016-07-08T11:32:55Z</time>
      </trkpt>
      <trkpt lat="45.887166280299425" lon="7.33534712344408">
        <ele>2342.3899999999999</ele>
        <time>2016-07-08T11:33:22Z</time>
      </trkpt>
      <trkpt lat="45.887167369946837" lon="7.335333796218038">
        <ele>2341.9099999999999</ele>
        <time>2016-07-08T11:33:49Z</time>
      </trkpt>
      <trkpt lat="45.887164855375886" lon="7.33534561470151">
        <ele>2341.9099999999999</ele>
        <time>2016-07-08T11:34:09Z</time>
      </trkpt>
      <trkpt lat="45.88716259226203" lon="7.335343938320875">
        <ele>2341.9099999999999</ele>
        <time>2016-07-08T11:34:36Z</time>
      </trkpt>
      <trkpt lat="45.887160580605268" lon="7.335314601659775">
        <ele>2342.8699999999999</ele>
        <time>2016-07-08T11:34:47Z</time>
      </trkpt>
      <trkpt lat="45.887175751850009" lon="7.335307896137238">
        <ele>2343.3499999999999</ele>
        <time>2016-07-08T11:34:56Z</time>
      </trkpt>
      <trkpt lat="45.887171560898423" lon="7.335303956642747">
        <ele>2343.3499999999999</ele>
        <time>2016-07-08T11:35:14Z</time>
      </trkpt>
      <trkpt lat="45.887167369946837" lon="7.335298592224717">
        <ele>2342.8699999999999</ele>
        <time>2016-07-08T11:35:31Z</time>
      </trkpt>
      <trkpt lat="45.887162843719125" lon="7.33530705794692">
        <ele>2342.8699999999999</ele>
        <time>2016-07-08T11:35:48Z</time>
      </trkpt>
      <trkpt lat="45.887167034670711" lon="7.335312590003014">
        <ele>2342.8699999999999</ele>
        <time>2016-07-08T11:36:09Z</time>
      </trkpt>
      <trkpt lat="45.887162424623966" lon="7.335311332717538">
        <ele>2342.8699999999999</ele>
        <time>2016-07-08T11:36:27Z</time>
      </trkpt>
      <trkpt lat="45.887179020792246" lon="7.335319044068456">
        <ele>2342.8699999999999</ele>
        <time>2016-07-08T11:36:40Z</time>
      </trkpt>
      <trkpt lat="45.887169381603599" lon="7.335307560861111">
        <ele>2342.3899999999999</ele>
        <time>2016-07-08T11:36:51Z</time>
      </trkpt>
      <trkpt lat="45.887202154844999" lon="7.335279481485486">
        <ele>2342.8699999999999</ele>
        <time>2016-07-08T11:37:08Z</time>
      </trkpt>
      <trkpt lat="45.887265522032976" lon="7.335267998278141">
        <ele>2344.3099999999999</ele>
        <time>2016-07-08T11:37:20Z</time>
      </trkpt>
      <trkpt lat="45.887306341901422" lon="7.33525525778532">
        <ele>2344.3099999999999</ele>
        <time>2016-07-08T11:37:31Z</time>
      </trkpt>
      <trkpt lat="45.887308269739151" lon="7.335204547271133">
        <ele>2344.3099999999999</ele>
        <time>2016-07-08T11:37:35Z</time>
      </trkpt>
      <trkpt lat="45.887323189526796" lon="7.335109328851104">
        <ele>2343.8299999999999</ele>
        <time>2016-07-08T11:37:45Z</time>
      </trkpt>
      <trkpt lat="45.887362165376544" lon="7.335054595023394">
        <ele>2344.79</ele>
        <time>2016-07-08T11:37:55Z</time>
      </trkpt>
      <trkpt lat="45.887341126799583" lon="7.334960466250777">
        <ele>2345.75</ele>
        <time>2016-07-08T11:38:05Z</time>
      </trkpt>
      <trkpt lat="45.887371217831969" lon="7.334865834563971">
        <ele>2347.1999999999998</ele>
        <time>2016-07-08T11:38:15Z</time>
      </trkpt>
      <trkpt lat="45.887396782636642" lon="7.334820237010717">
        <ele>2347.6799999999998</ele>
        <time>2016-07-08T11:38:26Z</time>
      </trkpt>
      <trkpt lat="45.887431902810931" lon="7.334788469597697">
        <ele>2348.1599999999999</ele>
        <time>2016-07-08T11:38:35Z</time>
      </trkpt>
      <trkpt lat="45.887488229200244" lon="7.334760222584009">
        <ele>2348.6399999999999</ele>
        <time>2016-07-08T11:38:44Z</time>
      </trkpt>
      <trkpt lat="45.887570707127452" lon="7.334731472656131">
        <ele>2350.0799999999999</ele>
        <time>2016-07-08T11:38:57Z</time>
      </trkpt>
      <trkpt lat="45.887689311057329" lon="7.334741279482842">
        <ele>2350.0799999999999</ele>
        <time>2016-07-08T11:39:10Z</time>
      </trkpt>
      <trkpt lat="45.887704230844975" lon="7.334724012762308">
        <ele>2348.6399999999999</ele>
        <time>2016-07-08T11:39:12Z</time>
      </trkpt>
      <trkpt lat="45.887723844498396" lon="7.334699705243111">
        <ele>2348.6399999999999</ele>
        <time>2016-07-08T11:39:15Z</time>
      </trkpt>
      <trkpt lat="45.88774161413312" lon="7.334700962528586">
        <ele>2348.6399999999999</ele>
        <time>2016-07-08T11:39:17Z</time>
      </trkpt>
      <trkpt lat="45.887785535305738" lon="7.334636505693197">
        <ele>2347.6799999999998</ele>
        <time>2016-07-08T11:39:24Z</time>
      </trkpt>
      <trkpt lat="45.88781101629138" lon="7.334521925076842">
        <ele>2347.1999999999998</ele>
        <time>2016-07-08T11:39:34Z</time>
      </trkpt>
      <trkpt lat="45.887838006019592" lon="7.334454283118248">
        <ele>2345.75</ele>
        <time>2016-07-08T11:39:43Z</time>
      </trkpt>
      <trkpt lat="45.887835491448641" lon="7.334460988640785">
        <ele>2345.75</ele>
        <time>2016-07-08T11:39:53Z</time>
      </trkpt>
      <trkpt lat="45.887828534469008" lon="7.334310282021761">
        <ele>2345.75</ele>
        <time>2016-07-08T11:40:05Z</time>
      </trkpt>
      <trkpt lat="45.887824930250645" lon="7.334296787157655">
        <ele>2345.75</ele>
        <time>2016-07-08T11:40:06Z</time>
      </trkpt>
      <trkpt lat="45.887758042663336" lon="7.334086652845144">
        <ele>2345.27</ele>
        <time>2016-07-08T11:40:21Z</time>
      </trkpt>
      <trkpt lat="45.88767422363162" lon="7.33391784131527">
        <ele>2343.8299999999999</ele>
        <time>2016-07-08T11:40:35Z</time>
      </trkpt>
      <trkpt lat="45.887662656605244" lon="7.333899820223451">
        <ele>2343.3499999999999</ele>
        <time>2016-07-08T11:40:48Z</time>
      </trkpt>
      <trkpt lat="45.887656873092055" lon="7.333893030881882">
        <ele>2343.8299999999999</ele>
        <time>2016-07-08T11:41:00Z</time>
      </trkpt>
      <trkpt lat="45.887583196163177" lon="7.333724722266197">
        <ele>2341.9099999999999</ele>
        <time>2016-07-08T11:41:14Z</time>
      </trkpt>
      <trkpt lat="45.887528797611594" lon="7.333594551309943">
        <ele>2339.5100000000002</ele>
        <time>2016-07-08T11:41:24Z</time>
      </trkpt>
      <trkpt lat="45.887440200895071" lon="7.333434289321303">
        <ele>2339.5100000000002</ele>
        <time>2016-07-08T11:41:38Z</time>
      </trkpt>
      <trkpt lat="45.887367697432637" lon="7.333321636542678">
        <ele>2336.1399999999999</ele>
        <time>2016-07-08T11:41:48Z</time>
      </trkpt>
      <trkpt lat="45.887356717139482" lon="7.333297748118639">
        <ele>2335.1799999999998</ele>
        <time>2016-07-08T11:41:50Z</time>
      </trkpt>
      <trkpt lat="45.887332828715444" lon="7.333240415900946">
        <ele>2335.1799999999998</ele>
        <time>2016-07-08T11:41:54Z</time>
      </trkpt>
      <trkpt lat="45.887272814288735" lon="7.333075208589435">
        <ele>2333.7399999999998</ele>
        <time>2016-07-08T11:42:07Z</time>
      </trkpt>
      <trkpt lat="45.887269964441657" lon="7.3328145314008">
        <ele>2333.7399999999998</ele>
        <time>2016-07-08T11:42:22Z</time>
      </trkpt>
      <trkpt lat="45.88724322617054" lon="7.332544298842549">
        <ele>2332.3000000000002</ele>
        <time>2016-07-08T11:42:37Z</time>
      </trkpt>
      <trkpt lat="45.887154461815953" lon="7.332301810383797">
        <ele>2331.3299999999999</ele>
        <time>2016-07-08T11:42:53Z</time>
      </trkpt>
      <trkpt lat="45.887078940868378" lon="7.332074660807848">
        <ele>2330.3699999999999</ele>
        <time>2016-07-08T11:43:07Z</time>
      </trkpt>
      <trkpt lat="45.88705413043499" lon="7.331893527880311">
        <ele>2328.9299999999998</ele>
        <time>2016-07-08T11:43:19Z</time>
      </trkpt>
      <trkpt lat="45.886978190392256" lon="7.331665623933077">
        <ele>2328.4499999999998</ele>
        <time>2016-07-08T11:43:34Z</time>
      </trkpt>
      <trkpt lat="45.886854808777571" lon="7.331543751060963">
        <ele>2327.4899999999998</ele>
        <time>2016-07-08T11:43:46Z</time>
      </trkpt>
      <trkpt lat="45.886752549558878" lon="7.331406036391854">
        <ele>2325.5700000000002</ele>
        <time>2016-07-08T11:43:59Z</time>
      </trkpt>
      <trkpt lat="45.886629587039351" lon="7.331256587058306">
        <ele>2324.1199999999999</ele>
        <time>2016-07-08T11:44:12Z</time>
      </trkpt>
      <trkpt lat="45.88652640581131" lon="7.331063635647297">
        <ele>2323.6399999999999</ele>
        <time>2016-07-08T11:44:26Z</time>
      </trkpt>
      <trkpt lat="45.886434623971581" lon="7.330861296504736">
        <ele>2322.6799999999998</ele>
        <time>2016-07-08T11:44:40Z</time>
      </trkpt>
      <trkpt lat="45.88633144274354" lon="7.330738669261336">
        <ele>2322.6799999999998</ele>
        <time>2016-07-08T11:44:52Z</time>
      </trkpt>
      <trkpt lat="45.88626547716558" lon="7.330713858827949">
        <ele>2321.7199999999998</ele>
        <time>2016-07-08T11:45:04Z</time>
      </trkpt>
      <trkpt lat="45.886221555992961" lon="7.330625513568521">
        <ele>2320.2800000000002</ele>
        <time>2016-07-08T11:45:12Z</time>
      </trkpt>
      <trkpt lat="45.886146957054734" lon="7.330443290993571">
        <ele>2317.8800000000001</ele>
        <time>2016-07-08T11:45:26Z</time>
      </trkpt>
      <trkpt lat="45.886132707819343" lon="7.330400375649333">
        <ele>2317.4000000000001</ele>
        <time>2016-07-08T11:45:29Z</time>
      </trkpt>
      <trkpt lat="45.886136647313833" lon="7.33036114834249">
        <ele>2316.9099999999999</ele>
        <time>2016-07-08T11:45:32Z</time>
      </trkpt>
      <trkpt lat="45.886099180206656" lon="7.330245645716786">
        <ele>2315.4699999999998</ele>
        <time>2016-07-08T11:45:44Z</time>
      </trkpt>
      <trkpt lat="45.886084092780948" lon="7.330229552462697">
        <ele>2314.5100000000002</ele>
        <time>2016-07-08T11:45:46Z</time>
      </trkpt>
      <trkpt lat="45.886041345074773" lon="7.33015201985836">
        <ele>2312.5900000000001</ele>
        <time>2016-07-08T11:45:58Z</time>
      </trkpt>
      <trkpt lat="45.886027263477445" lon="7.330095861107111">
        <ele>2311.1500000000001</ele>
        <time>2016-07-08T11:46:08Z</time>
      </trkpt>
      <trkpt lat="45.886019552126527" lon="7.330009108409286">
        <ele>2309.2199999999998</ele>
        <time>2016-07-08T11:46:19Z</time>
      </trkpt>
      <trkpt lat="45.886008907109499" lon="7.329975916072726">
        <ele>2307.7800000000002</ele>
        <time>2016-07-08T11:46:28Z</time>
      </trkpt>
      <trkpt lat="45.885998765006661" lon="7.32995018362999">
        <ele>2306.8200000000002</ele>
        <time>2016-07-08T11:46:32Z</time>
      </trkpt>
      <trkpt lat="45.88596691377461" lon="7.329863263294101">
        <ele>2304.4200000000001</ele>
        <time>2016-07-08T11:46:43Z</time>
      </trkpt>
      <trkpt lat="45.885957358404994" lon="7.329820683225989">
        <ele>2302.98</ele>
        <time>2016-07-08T11:46:49Z</time>
      </trkpt>
      <trkpt lat="45.885894242674112" lon="7.329763015732169">
        <ele>2301.0500000000002</ele>
        <time>2016-07-08T11:46:59Z</time>
      </trkpt>
      <trkpt lat="45.885868677869439" lon="7.329690763726831">
        <ele>2299.1300000000001</ele>
        <time>2016-07-08T11:47:08Z</time>
      </trkpt>
      <trkpt lat="45.88585501536727" lon="7.329623373225331">
        <ele>2297.21</ele>
        <time>2016-07-08T11:47:18Z</time>
      </trkpt>
      <trkpt lat="45.885871946811676" lon="7.329579703509808">
        <ele>2295.77</ele>
        <time>2016-07-08T11:47:27Z</time>
      </trkpt>
      <trkpt lat="45.885867923498154" lon="7.329572914168239">
        <ele>2295.2800000000002</ele>
        <time>2016-07-08T11:47:28Z</time>
      </trkpt>
      <trkpt lat="45.885891644284129" lon="7.329426063224673">
        <ele>2292.4000000000001</ele>
        <time>2016-07-08T11:47:40Z</time>
      </trkpt>
      <trkpt lat="45.885905893519521" lon="7.329359175637364">
        <ele>2291.9200000000001</ele>
        <time>2016-07-08T11:47:45Z</time>
      </trkpt>
      <trkpt lat="45.885909916833043" lon="7.329301508143544">
        <ele>2290.96</ele>
        <time>2016-07-08T11:47:49Z</time>
      </trkpt>
      <trkpt lat="45.88592492043972" lon="7.329247361049056">
        <ele>2290</ele>
        <time>2016-07-08T11:47:54Z</time>
      </trkpt>
      <trkpt lat="45.885903965681791" lon="7.329121548682451">
        <ele>2289.04</ele>
        <time>2016-07-08T11:48:05Z</time>
      </trkpt>
      <trkpt lat="45.885906480252743" lon="7.329106796532869">
        <ele>2289.04</ele>
        <time>2016-07-08T11:48:06Z</time>
      </trkpt>
      <trkpt lat="45.885911509394646" lon="7.328982912003994">
        <ele>2287.5900000000001</ele>
        <time>2016-07-08T11:48:17Z</time>
      </trkpt>
      <trkpt lat="45.885911928489804" lon="7.328908229246736">
        <ele>2285.6700000000001</ele>
        <time>2016-07-08T11:48:25Z</time>
      </trkpt>
      <trkpt lat="45.885897846892476" lon="7.328787026926875">
        <ele>2283.75</ele>
        <time>2016-07-08T11:48:36Z</time>
      </trkpt>
      <trkpt lat="45.885892985388637" lon="7.328714858740568">
        <ele>2282.79</ele>
        <time>2016-07-08T11:48:43Z</time>
      </trkpt>
      <trkpt lat="45.885939672589302" lon="7.328577814623714">
        <ele>2281.3499999999999</ele>
        <time>2016-07-08T11:48:54Z</time>
      </trkpt>
      <trkpt lat="45.88595375418663" lon="7.328518638387322">
        <ele>2280.8699999999999</ele>
        <time>2016-07-08T11:49:01Z</time>
      </trkpt>
      <trkpt lat="45.885924752801657" lon="7.328427778556943">
        <ele>2278.46</ele>
        <time>2016-07-08T11:49:12Z</time>
      </trkpt>
      <trkpt lat="45.885930368676782" lon="7.328414954245091">
        <ele>2278.46</ele>
        <time>2016-07-08T11:49:14Z</time>
      </trkpt>
      <trkpt lat="45.885906312614679" lon="7.328357119113207">
        <ele>2276.0599999999999</ele>
        <time>2016-07-08T11:49:25Z</time>
      </trkpt>
      <trkpt lat="45.885862810537219" lon="7.328334404155612">
        <ele>2274.1399999999999</ele>
        <time>2016-07-08T11:49:35Z</time>
      </trkpt>
      <trkpt lat="45.885847471654415" lon="7.328244801610708">
        <ele>2273.1700000000001</ele>
        <time>2016-07-08T11:49:48Z</time>
      </trkpt>
      <trkpt lat="45.885841436684132" lon="7.328196270391345">
        <ele>2272.6900000000001</ele>
        <time>2016-07-08T11:49:56Z</time>
      </trkpt>
      <trkpt lat="45.885824840515852" lon="7.328177327290177">
        <ele>2273.1700000000001</ele>
        <time>2016-07-08T11:49:59Z</time>
      </trkpt>
      <trkpt lat="45.885802041739225" lon="7.328090574592352">
        <ele>2271.73</ele>
        <time>2016-07-08T11:50:08Z</time>
      </trkpt>
      <trkpt lat="45.885785864666104" lon="7.32805285602808">
        <ele>2271.25</ele>
        <time>2016-07-08T11:50:12Z</time>
      </trkpt>
      <trkpt lat="45.885762898251414" lon="7.327949339523912">
        <ele>2271.25</ele>
        <time>2016-07-08T11:50:20Z</time>
      </trkpt>
      <trkpt lat="45.885666087269783" lon="7.327790083363652">
        <ele>2270.29</ele>
        <time>2016-07-08T11:50:34Z</time>
      </trkpt>
      <trkpt lat="45.885667931288481" lon="7.327787904068828">
        <ele>2270.29</ele>
        <time>2016-07-08T11:50:38Z</time>
      </trkpt>
      <trkpt lat="45.885644797235727" lon="7.327734930440784">
        <ele>2269.3299999999999</ele>
        <time>2016-07-08T11:50:43Z</time>
      </trkpt>
      <trkpt lat="45.885621914640069" lon="7.327661840245128">
        <ele>2268.8499999999999</ele>
        <time>2016-07-08T11:50:48Z</time>
      </trkpt>
      <trkpt lat="45.885530216619372" lon="7.327491939067841">
        <ele>2266.4499999999998</ele>
        <time>2016-07-08T11:51:01Z</time>
      </trkpt>
      <trkpt lat="45.885455450043082" lon="7.327321954071522">
        <ele>2265</ele>
        <time>2016-07-08T11:51:14Z</time>
      </trkpt>
      <trkpt lat="45.885429130867124" lon="7.327174432575703">
        <ele>2264.04</ele>
        <time>2016-07-08T11:51:24Z</time>
      </trkpt>
      <trkpt lat="45.885370122268796" lon="7.327077370136976">
        <ele>2262.5999999999999</ele>
        <time>2016-07-08T11:51:32Z</time>
      </trkpt>
      <trkpt lat="45.885350257158279" lon="7.327068569138646">
        <ele>2261.6399999999999</ele>
        <time>2016-07-08T11:51:34Z</time>
      </trkpt>
      <trkpt lat="45.885299379006028" lon="7.326921802014113">
        <ele>2261.6399999999999</ele>
        <time>2016-07-08T11:51:44Z</time>
      </trkpt>
      <trkpt lat="45.885247914120555" lon="7.326845778152347">
        <ele>2262.1199999999999</ele>
        <time>2016-07-08T11:51:52Z</time>
      </trkpt>
      <trkpt lat="45.885136518627405" lon="7.326702866703272">
        <ele>2260.1999999999998</ele>
        <time>2016-07-08T11:52:05Z</time>
      </trkpt>
      <trkpt lat="45.885097961872816" lon="7.326575964689255">
        <ele>2258.27</ele>
        <time>2016-07-08T11:52:13Z</time>
      </trkpt>
      <trkpt lat="45.885020010173321" lon="7.326443865895271">
        <ele>2255.8699999999999</ele>
        <time>2016-07-08T11:52:24Z</time>
      </trkpt>
      <trkpt lat="45.884997295215726" lon="7.326406482607126">
        <ele>2255.3899999999999</ele>
        <time>2016-07-08T11:52:28Z</time>
      </trkpt>
      <trkpt lat="45.884997043758631" lon="7.326335487887263">
        <ele>2254.9099999999999</ele>
        <time>2016-07-08T11:52:33Z</time>
      </trkpt>
      <trkpt lat="45.88500483892858" lon="7.326270611956716">
        <ele>2254.9099999999999</ele>
        <time>2016-07-08T11:52:37Z</time>
      </trkpt>
      <trkpt lat="45.88501657359302" lon="7.326198359951377">
        <ele>2254.9099999999999</ele>
        <time>2016-07-08T11:52:44Z</time>
      </trkpt>
      <trkpt lat="45.884988913312554" lon="7.326186122372747">
        <ele>2254.9099999999999</ele>
        <time>2016-07-08T11:52:47Z</time>
      </trkpt>
      <trkpt lat="45.884874919429421" lon="7.32607682235539">
        <ele>2255.3899999999999</ele>
        <time>2016-07-08T11:52:59Z</time>
      </trkpt>
      <trkpt lat="45.884795626625419" lon="7.325981268659234">
        <ele>2255.3899999999999</ele>
        <time>2016-07-08T11:53:08Z</time>
      </trkpt>
      <trkpt lat="45.884743575006723" lon="7.325937347486615">
        <ele>2253.9499999999998</ele>
        <time>2016-07-08T11:53:14Z</time>
      </trkpt>
      <trkpt lat="45.88473217561841" lon="7.325915219262242">
        <ele>2253.9499999999998</ele>
        <time>2016-07-08T11:53:16Z</time>
      </trkpt>
      <trkpt lat="45.884693702682853" lon="7.325876830145717">
        <ele>2252.9899999999998</ele>
        <time>2016-07-08T11:53:21Z</time>
      </trkpt>
      <trkpt lat="45.884613068774343" lon="7.325772643089294">
        <ele>2251.54</ele>
        <time>2016-07-08T11:53:35Z</time>
      </trkpt>
      <trkpt lat="45.88461097329855" lon="7.3257758282125">
        <ele>2251.54</ele>
        <time>2016-07-08T11:53:39Z</time>
      </trkpt>
      <trkpt lat="45.884583899751306" lon="7.325725117698312">
        <ele>2250.5799999999999</ele>
        <time>2016-07-08T11:53:50Z</time>
      </trkpt>
      <trkpt lat="45.884578200057149" lon="7.325706593692303">
        <ele>2251.54</ele>
        <time>2016-07-08T11:54:01Z</time>
      </trkpt>
      <trkpt lat="45.88457090780139" lon="7.325699720531702">
        <ele>2250.5799999999999</ele>
        <time>2016-07-08T11:54:14Z</time>
      </trkpt>
      <trkpt lat="45.884517766535282" lon="7.325636269524694">
        <ele>2249.6199999999999</ele>
        <time>2016-07-08T11:54:20Z</time>
      </trkpt>
      <trkpt lat="45.884482562541962" lon="7.325544906780124">
        <ele>2249.6199999999999</ele>
        <time>2016-07-08T11:54:28Z</time>
      </trkpt>
      <trkpt lat="45.884426655247808" lon="7.325457064434886">
        <ele>2249.1399999999999</ele>
        <time>2016-07-08T11:54:42Z</time>
      </trkpt>
      <trkpt lat="45.884427493438125" lon="7.32542940415442">
        <ele>2249.1399999999999</ele>
        <time>2016-07-08T11:54:52Z</time>
      </trkpt>
      <trkpt lat="45.884394133463502" lon="7.325394283980131">
        <ele>2248.1799999999998</ele>
        <time>2016-07-08T11:54:57Z</time>
      </trkpt>
      <trkpt lat="45.884368484839797" lon="7.325344746932387">
        <ele>2247.2199999999998</ele>
        <time>2016-07-08T11:55:01Z</time>
      </trkpt>
      <trkpt lat="45.884316433221102" lon="7.325267549604178">
        <ele>2246.7399999999998</ele>
        <time>2016-07-08T11:55:12Z</time>
      </trkpt>
      <trkpt lat="45.884250300005078" lon="7.325175516307354">
        <ele>2244.8200000000002</ele>
        <time>2016-07-08T11:55:24Z</time>
      </trkpt>
      <trkpt lat="45.884226160123944" lon="7.325145676732063">
        <ele>2244.3299999999999</ele>
        <time>2016-07-08T11:55:34Z</time>
      </trkpt>
      <trkpt lat="45.884185759350657" lon="7.32508197426796">
        <ele>2242.8899999999999</ele>
        <time>2016-07-08T11:55:43Z</time>
      </trkpt>
      <trkpt lat="45.884093474596739" lon="7.324880892410874">
        <ele>2240.9699999999998</ele>
        <time>2016-07-08T11:55:58Z</time>
      </trkpt>
      <trkpt lat="45.884025748819113" lon="7.324749045073986">
        <ele>2241.4499999999998</ele>
        <time>2016-07-08T11:56:09Z</time>
      </trkpt>
      <trkpt lat="45.883956849575043" lon="7.324645528569818">
        <ele>2241.9299999999998</ele>
        <time>2016-07-08T11:56:18Z</time>
      </trkpt>
      <trkpt lat="45.883934134617448" lon="7.324609570205212">
        <ele>2241.9299999999998</ele>
        <time>2016-07-08T11:56:21Z</time>
      </trkpt>
      <trkpt lat="45.883905971422791" lon="7.324579898267984">
        <ele>2242.4099999999999</ele>
        <time>2016-07-08T11:56:25Z</time>
      </trkpt>
      <trkpt lat="45.883825672790408" lon="7.324481243267655">
        <ele>2242.4099999999999</ele>
        <time>2016-07-08T11:56:38Z</time>
      </trkpt>
      <trkpt lat="45.883820224553347" lon="7.324473364278674">
        <ele>2242.4099999999999</ele>
        <time>2016-07-08T11:56:45Z</time>
      </trkpt>
      <trkpt lat="45.883792899549007" lon="7.324465652927756">
        <ele>2242.4099999999999</ele>
        <time>2016-07-08T11:56:48Z</time>
      </trkpt>
      <trkpt lat="45.883692987263203" lon="7.324376553297043">
        <ele>2241.9299999999998</ele>
        <time>2016-07-08T11:56:59Z</time>
      </trkpt>
      <trkpt lat="45.88367915712297" lon="7.324388790875673">
        <ele>2241.9299999999998</ele>
        <time>2016-07-08T11:57:12Z</time>
      </trkpt>
      <trkpt lat="45.883659375831485" lon="7.324355095624924">
        <ele>2241.9299999999998</ele>
        <time>2016-07-08T11:57:27Z</time>
      </trkpt>
      <trkpt lat="45.883642360568047" lon="7.324358951300383">
        <ele>2241.9299999999998</ele>
        <time>2016-07-08T11:57:40Z</time>
      </trkpt>
      <trkpt lat="45.88356239721179" lon="7.324260883033276">
        <ele>2241.4499999999998</ele>
        <time>2016-07-08T11:57:50Z</time>
      </trkpt>
      <trkpt lat="45.883515458554029" lon="7.324182679876685">
        <ele>2240.9699999999998</ele>
        <time>2016-07-08T11:57:56Z</time>
      </trkpt>
      <trkpt lat="45.883486624807119" lon="7.324098022654653">
        <ele>2240.0100000000002</ele>
        <time>2016-07-08T11:58:02Z</time>
      </trkpt>
      <trkpt lat="45.883457958698273" lon="7.324049659073353">
        <ele>2240.0100000000002</ele>
        <time>2016-07-08T11:58:06Z</time>
      </trkpt>
      <trkpt lat="45.883412528783083" lon="7.323883194476366">
        <ele>2238.5700000000002</ele>
        <time>2016-07-08T11:58:18Z</time>
      </trkpt>
      <trkpt lat="45.883399704471231" lon="7.323870453983545">
        <ele>2238.0900000000001</ele>
        <time>2016-07-08T11:58:20Z</time>
      </trkpt>
      <trkpt lat="45.883340695872903" lon="7.323741456493735">
        <ele>2234.7199999999998</ele>
        <time>2016-07-08T11:58:33Z</time>
      </trkpt>
      <trkpt lat="45.883324183523655" lon="7.32359410263598">
        <ele>2232.3200000000002</ele>
        <time>2016-07-08T11:58:44Z</time>
      </trkpt>
      <trkpt lat="45.883325608447194" lon="7.323436439037323">
        <ele>2229.4299999999998</ele>
        <time>2016-07-08T11:58:54Z</time>
      </trkpt>
      <trkpt lat="45.883324770256877" lon="7.32336251065135">
        <ele>2228.4699999999998</ele>
        <time>2016-07-08T11:58:59Z</time>
      </trkpt>
      <trkpt lat="45.883272718638182" lon="7.323136366903782">
        <ele>2227.0300000000002</ele>
        <time>2016-07-08T11:59:15Z</time>
      </trkpt>
      <trkpt lat="45.883286381140351" lon="7.322935704141855">
        <ele>2226.0700000000002</ele>
        <time>2016-07-08T11:59:27Z</time>
      </trkpt>
      <trkpt lat="45.883319238200784" lon="7.322859596461058">
        <ele>2225.5900000000001</ele>
        <time>2016-07-08T11:59:32Z</time>
      </trkpt>
      <trkpt lat="45.883323848247528" lon="7.322816345840693">
        <ele>2225.1100000000001</ele>
        <time>2016-07-08T11:59:35Z</time>
      </trkpt>
      <trkpt lat="45.883300630375743" lon="7.322685504332185">
        <ele>2225.1100000000001</ele>
        <time>2016-07-08T11:59:45Z</time>
      </trkpt>
      <trkpt lat="45.883282944560051" lon="7.322651306167245">
        <ele>2225.1100000000001</ele>
        <time>2016-07-08T11:59:48Z</time>
      </trkpt>
      <trkpt lat="45.883237598463893" lon="7.32248593121767">
        <ele>2223.1900000000001</ele>
        <time>2016-07-08T12:00:01Z</time>
      </trkpt>
      <trkpt lat="45.883173979818821" lon="7.322354586794972">
        <ele>2221.2600000000002</ele>
        <time>2016-07-08T12:00:13Z</time>
      </trkpt>
      <trkpt lat="45.883136261254549" lon="7.322280993685126">
        <ele>2219.8200000000002</ele>
        <time>2016-07-08T12:00:19Z</time>
      </trkpt>
      <trkpt lat="45.883093932643533" lon="7.322157444432378">
        <ele>2217.9000000000001</ele>
        <time>2016-07-08T12:00:31Z</time>
      </trkpt>
      <trkpt lat="45.8830801025033" lon="7.322110841050744">
        <ele>2216.9400000000001</ele>
        <time>2016-07-08T12:00:35Z</time>
      </trkpt>
      <trkpt lat="45.883051520213485" lon="7.321973377838731">
        <ele>2213.5700000000002</ele>
        <time>2016-07-08T12:00:45Z</time>
      </trkpt>
      <trkpt lat="45.883062416687608" lon="7.321949740871787">
        <ele>2214.5300000000002</ele>
        <time>2016-07-08T12:00:54Z</time>
      </trkpt>
      <trkpt lat="45.883048502728343" lon="7.321955775842071">
        <ele>2215.0100000000002</ele>
        <time>2016-07-08T12:00:58Z</time>
      </trkpt>
      <trkpt lat="45.882979771122336" lon="7.321930713951588">
        <ele>2214.0500000000002</ele>
        <time>2016-07-08T12:01:04Z</time>
      </trkpt>
      <trkpt lat="45.882897963747382" lon="7.32171680778265">
        <ele>2211.6500000000001</ele>
        <time>2016-07-08T12:01:18Z</time>
      </trkpt>
      <trkpt lat="45.882813893258572" lon="7.321534669026732">
        <ele>2209.73</ele>
        <time>2016-07-08T12:01:30Z</time>
      </trkpt>
      <trkpt lat="45.882790256291628" lon="7.321435511112213">
        <ele>2209.25</ele>
        <time>2016-07-08T12:01:36Z</time>
      </trkpt>
      <trkpt lat="45.882704425603151" lon="7.321268292143941">
        <ele>2207.3200000000002</ele>
        <time>2016-07-08T12:01:48Z</time>
      </trkpt>
      <trkpt lat="45.882673244923353" lon="7.321175839751959">
        <ele>2206.3600000000001</ele>
        <time>2016-07-08T12:01:57Z</time>
      </trkpt>
      <trkpt lat="45.88265304453671" lon="7.321113897487521">
        <ele>2205.8800000000001</ele>
        <time>2016-07-08T12:02:02Z</time>
      </trkpt>
      <trkpt lat="45.882622785866261" lon="7.321042064577341">
        <ele>2204.9200000000001</ele>
        <time>2016-07-08T12:02:07Z</time>
      </trkpt>
      <trkpt lat="45.882536871358752" lon="7.320829248055816">
        <ele>2203</ele>
        <time>2016-07-08T12:02:21Z</time>
      </trkpt>
      <trkpt lat="45.882494207471609" lon="7.320685498416424">
        <ele>2201.0799999999999</ele>
        <time>2016-07-08T12:02:32Z</time>
      </trkpt>
      <trkpt lat="45.882438886910677" lon="7.320556752383709">
        <ele>2197.71</ele>
        <time>2016-07-08T12:02:44Z</time>
      </trkpt>
      <trkpt lat="45.882374178618193" lon="7.320399172604084">
        <ele>2195.3099999999999</ele>
        <time>2016-07-08T12:02:56Z</time>
      </trkpt>
      <trkpt lat="45.882336376234889" lon="7.320247041061521">
        <ele>2193.3899999999999</ele>
        <time>2016-07-08T12:03:07Z</time>
      </trkpt>
      <trkpt lat="45.882342746481299" lon="7.320152996107936">
        <ele>2192.9000000000001</ele>
        <time>2016-07-08T12:03:14Z</time>
      </trkpt>
      <trkpt lat="45.882340734824538" lon="7.320092143490911">
        <ele>2191.46</ele>
        <time>2016-07-08T12:03:18Z</time>
      </trkpt>
      <trkpt lat="45.882309218868613" lon="7.31995677575469">
        <ele>2190.98</ele>
        <time>2016-07-08T12:03:28Z</time>
      </trkpt>
      <trkpt lat="45.882318690419197" lon="7.319880584254861">
        <ele>2190.5</ele>
        <time>2016-07-08T12:03:38Z</time>
      </trkpt>
      <trkpt lat="45.88230368681252" lon="7.319733649492264">
        <ele>2186.6599999999999</ele>
        <time>2016-07-08T12:03:50Z</time>
      </trkpt>
      <trkpt lat="45.882272254675627" lon="7.319630719721317">
        <ele>2184.25</ele>
        <time>2016-07-08T12:04:01Z</time>
      </trkpt>
      <trkpt lat="45.882247695699334" lon="7.31958344578743">
        <ele>2182.8099999999999</ele>
        <time>2016-07-08T12:04:06Z</time>
      </trkpt>
      <trkpt lat="45.882228082045913" lon="7.319544050842524">
        <ele>2181.8499999999999</ele>
        <time>2016-07-08T12:04:09Z</time>
      </trkpt>
      <trkpt lat="45.882232859730721" lon="7.319460567086935">
        <ele>2179.4499999999998</ele>
        <time>2016-07-08T12:04:15Z</time>
      </trkpt>
      <trkpt lat="45.882162367925048" lon="7.319400552660227">
        <ele>2177.52</ele>
        <time>2016-07-08T12:04:23Z</time>
      </trkpt>
      <trkpt lat="45.88211752474308" lon="7.319279685616493">
        <ele>2174.1599999999999</ele>
        <time>2016-07-08T12:04:35Z</time>
      </trkpt>
      <trkpt lat="45.882060443982482" lon="7.319167535752058">
        <ele>2171.27</ele>
        <time>2016-07-08T12:04:47Z</time>
      </trkpt>
      <trkpt lat="45.882011661306024" lon="7.319084303453565">
        <ele>2168.8699999999999</ele>
        <time>2016-07-08T12:04:57Z</time>
      </trkpt>
      <trkpt lat="45.882002105936408" lon="7.319084387272596">
        <ele>2168.3899999999999</ele>
        <time>2016-07-08T12:04:58Z</time>
      </trkpt>
      <trkpt lat="45.881958855316043" lon="7.319100396707654">
        <ele>2167.9099999999999</ele>
        <time>2016-07-08T12:05:02Z</time>
      </trkpt>
      <trkpt lat="45.881871515884995" lon="7.319208942353725">
        <ele>2165.5100000000002</ele>
        <time>2016-07-08T12:05:16Z</time>
      </trkpt>
      <trkpt lat="45.881852488964796" lon="7.319181868806481">
        <ele>2165.5100000000002</ele>
        <time>2016-07-08T12:05:19Z</time>
      </trkpt>
      <trkpt lat="45.881846118718386" lon="7.319121770560741">
        <ele>2165.0300000000002</ele>
        <time>2016-07-08T12:05:23Z</time>
      </trkpt>
      <trkpt lat="45.881915856152773" lon="7.318936195224524">
        <ele>2163.0999999999999</ele>
        <time>2016-07-08T12:05:36Z</time>
      </trkpt>
      <trkpt lat="45.881920382380486" lon="7.318925131112337">
        <ele>2163.0999999999999</ele>
        <time>2016-07-08T12:05:37Z</time>
      </trkpt>
      <trkpt lat="45.88199682533741" lon="7.318756822496653">
        <ele>2160.6999999999998</ele>
        <time>2016-07-08T12:05:50Z</time>
      </trkpt>
      <trkpt lat="45.882053067907691" lon="7.31861206702888">
        <ele>2159.2600000000002</ele>
        <time>2016-07-08T12:06:01Z</time>
      </trkpt>
      <trkpt lat="45.88200269266963" lon="7.318576946854591">
        <ele>2158.7800000000002</ele>
        <time>2016-07-08T12:06:06Z</time>
      </trkpt>
      <trkpt lat="45.881962208077312" lon="7.318580970168114">
        <ele>2158.7800000000002</ele>
        <time>2016-07-08T12:06:09Z</time>
      </trkpt>
      <trkpt lat="45.881937313824892" lon="7.318595135584474">
        <ele>2158.3000000000002</ele>
        <time>2016-07-08T12:06:11Z</time>
      </trkpt>
      <trkpt lat="45.881766574457288" lon="7.318679708987474">
        <ele>2155.8899999999999</ele>
        <time>2016-07-08T12:06:26Z</time>
      </trkpt>
      <trkpt lat="45.881673535332084" lon="7.318598404526711">
        <ele>2155.4099999999999</ele>
        <time>2016-07-08T12:06:37Z</time>
      </trkpt>
      <trkpt lat="45.8816381637007" lon="7.318536126986146">
        <ele>2155.4099999999999</ele>
        <time>2016-07-08T12:06:46Z</time>
      </trkpt>
      <trkpt lat="45.88166993111372" lon="7.318503437563777">
        <ele>2154.9299999999998</ele>
        <time>2016-07-08T12:06:56Z</time>
      </trkpt>
      <trkpt lat="45.881666326895356" lon="7.318523889407516">
        <ele>2155.4099999999999</ele>
        <time>2016-07-08T12:07:08Z</time>
      </trkpt>
      <trkpt lat="45.881667584180832" lon="7.318491199985147">
        <ele>2154.9299999999998</ele>
        <time>2016-07-08T12:07:17Z</time>
      </trkpt>
      <trkpt lat="45.881711421534419" lon="7.318437220528722">
        <ele>2155.4099999999999</ele>
        <time>2016-07-08T12:07:25Z</time>
      </trkpt>
      <trkpt lat="45.881832707673311" lon="7.318346025422216">
        <ele>2153.4899999999998</ele>
        <time>2016-07-08T12:07:39Z</time>
      </trkpt>
      <trkpt lat="45.881950473412871" lon="7.31827880255878">
        <ele>2152.5300000000002</ele>
        <time>2016-07-08T12:07:51Z</time>
      </trkpt>
      <trkpt lat="45.882044602185488" lon="7.318195402622223">
        <ele>2153.0100000000002</ele>
        <time>2016-07-08T12:08:02Z</time>
      </trkpt>
      <trkpt lat="45.882119620218873" lon="7.318096831440926">
        <ele>2152.0500000000002</ele>
        <time>2016-07-08T12:08:11Z</time>
      </trkpt>
      <trkpt lat="45.882288012653589" lon="7.317685782909393">
        <ele>2153.4899999999998</ele>
        <time>2016-07-08T12:08:48Z</time>
      </trkpt>
      <trkpt lat="45.88230611756444" lon="7.3175991140306">
        <ele>2153.4899999999998</ele>
        <time>2016-07-08T12:08:54Z</time>
      </trkpt>
      <trkpt lat="45.882308799773455" lon="7.317425524815917">
        <ele>2153.9699999999998</ele>
        <time>2016-07-08T12:09:05Z</time>
      </trkpt>
      <trkpt lat="45.882292706519365" lon="7.317381855100393">
        <ele>2153.9699999999998</ele>
        <time>2016-07-08T12:09:11Z</time>
      </trkpt>
      <trkpt lat="45.882294299080968" lon="7.317218659445643">
        <ele>2154.4499999999998</ele>
        <time>2016-07-08T12:09:23Z</time>
      </trkpt>
      <trkpt lat="45.882290862500668" lon="7.317089326679707">
        <ele>2154.9299999999998</ele>
        <time>2016-07-08T12:09:32Z</time>
      </trkpt>
      <trkpt lat="45.882282061502337" lon="7.316948845982552">
        <ele>2155.4099999999999</ele>
        <time>2016-07-08T12:09:42Z</time>
      </trkpt>
      <trkpt lat="45.882266219705343" lon="7.316814651712775">
        <ele>2155.8899999999999</ele>
        <time>2016-07-08T12:09:51Z</time>
      </trkpt>
      <trkpt lat="45.882264375686646" lon="7.316668471321464">
        <ele>2155.8899999999999</ele>
        <time>2016-07-08T12:10:00Z</time>
      </trkpt>
      <trkpt lat="45.88228709064424" lon="7.316447524353862">
        <ele>2156.3699999999999</ele>
        <time>2016-07-08T12:10:14Z</time>
      </trkpt>
      <trkpt lat="45.882300166413188" lon="7.31625834479928">
        <ele>2156.3699999999999</ele>
        <time>2016-07-08T12:10:27Z</time>
      </trkpt>
      <trkpt lat="45.882306369021535" lon="7.316117277368903">
        <ele>2156.3699999999999</ele>
        <time>2016-07-08T12:10:37Z</time>
      </trkpt>
      <trkpt lat="45.882312320172787" lon="7.315967660397291">
        <ele>2156.3699999999999</ele>
        <time>2016-07-08T12:10:47Z</time>
      </trkpt>
      <trkpt lat="45.882294969633222" lon="7.315864814445376">
        <ele>2156.8600000000001</ele>
        <time>2016-07-08T12:10:56Z</time>
      </trkpt>
      <trkpt lat="45.882295472547412" lon="7.315847631543875">
        <ele>2157.3400000000001</ele>
        <time>2016-07-08T12:10:57Z</time>
      </trkpt>
      <trkpt lat="45.882309135049582" lon="7.315731626003981">
        <ele>2157.8200000000002</ele>
        <time>2016-07-08T12:11:05Z</time>
      </trkpt>
      <trkpt lat="45.882350625470281" lon="7.315584607422352">
        <ele>2158.7800000000002</ele>
        <time>2016-07-08T12:11:16Z</time>
      </trkpt>
      <trkpt lat="45.882397228851914" lon="7.31545795686543">
        <ele>2159.2600000000002</ele>
        <time>2016-07-08T12:11:26Z</time>
      </trkpt>
      <trkpt lat="45.882465122267604" lon="7.315316889435053">
        <ele>2159.7399999999998</ele>
        <time>2016-07-08T12:11:38Z</time>
      </trkpt>
      <trkpt lat="45.882556233555079" lon="7.315193340182304">
        <ele>2160.2199999999998</ele>
        <time>2016-07-08T12:11:49Z</time>
      </trkpt>
      <trkpt lat="45.882669389247894" lon="7.315117903053761">
        <ele>2159.7399999999998</ele>
        <time>2016-07-08T12:12:00Z</time>
      </trkpt>
      <trkpt lat="45.8828020747751" lon="7.315110275521874">
        <ele>2161.1799999999998</ele>
        <time>2016-07-08T12:12:14Z</time>
      </trkpt>
      <trkpt lat="45.882921852171421" lon="7.315137013792992">
        <ele>2161.1799999999998</ele>
        <time>2016-07-08T12:12:27Z</time>
      </trkpt>
      <trkpt lat="45.882958229631186" lon="7.315144641324878">
        <ele>2160.6999999999998</ele>
        <time>2016-07-08T12:12:38Z</time>
      </trkpt>
      <trkpt lat="45.883053867146373" lon="7.315132739022374">
        <ele>2160.2199999999998</ele>
        <time>2016-07-08T12:12:48Z</time>
      </trkpt>
      <trkpt lat="45.883132489398122" lon="7.315096277743578">
        <ele>2159.7399999999998</ele>
        <time>2016-07-08T12:12:55Z</time>
      </trkpt>
      <trkpt lat="45.883260564878583" lon="7.314995275810361">
        <ele>2159.7399999999998</ele>
        <time>2016-07-08T12:13:08Z</time>
      </trkpt>
      <trkpt lat="45.883340360596776" lon="7.314908690750599">
        <ele>2159.7399999999998</ele>
        <time>2016-07-08T12:13:18Z</time>
      </trkpt>
      <trkpt lat="45.883428119122982" lon="7.3147963732481">
        <ele>2158.7800000000002</ele>
        <time>2016-07-08T12:13:32Z</time>
      </trkpt>
      <trkpt lat="45.883429292589426" lon="7.314798636361957">
        <ele>2158.7800000000002</ele>
        <time>2016-07-08T12:13:52Z</time>
      </trkpt>
      <trkpt lat="45.883480170741677" lon="7.314794026315212">
        <ele>2158.7800000000002</ele>
        <time>2016-07-08T12:13:56Z</time>
      </trkpt>
      <trkpt lat="45.883673122152686" lon="7.314684391021729">
        <ele>2156.8600000000001</ele>
        <time>2016-07-08T12:14:12Z</time>
      </trkpt>
      <trkpt lat="45.883796671405435" lon="7.31457551009953">
        <ele>2156.3699999999999</ele>
        <time>2016-07-08T12:14:25Z</time>
      </trkpt>
      <trkpt lat="45.883891554549336" lon="7.314421618357301">
        <ele>2155.8899999999999</ele>
        <time>2016-07-08T12:14:38Z</time>
      </trkpt>
      <trkpt lat="45.883973948657513" lon="7.314286082983017">
        <ele>2154.9299999999998</ele>
        <time>2016-07-08T12:14:50Z</time>
      </trkpt>
      <trkpt lat="45.884052403271198" lon="7.31412255205214">
        <ele>2154.4499999999998</ele>
        <time>2016-07-08T12:15:03Z</time>
      </trkpt>
      <trkpt lat="45.884139575064182" lon="7.313940580934286">
        <ele>2153.4899999999998</ele>
        <time>2016-07-08T12:15:17Z</time>
      </trkpt>
      <trkpt lat="45.884214844554663" lon="7.31376975774765">
        <ele>2152.5300000000002</ele>
        <time>2016-07-08T12:15:31Z</time>
      </trkpt>
      <trkpt lat="45.884268991649151" lon="7.313607651740313">
        <ele>2152.0500000000002</ele>
        <time>2016-07-08T12:15:44Z</time>
      </trkpt>
      <trkpt lat="45.884353816509247" lon="7.313363403081894">
        <ele>2151.5700000000002</ele>
        <time>2016-07-08T12:16:01Z</time>
      </trkpt>
      <trkpt lat="45.884475186467171" lon="7.313175899907947">
        <ele>2150.6100000000001</ele>
        <time>2016-07-08T12:16:15Z</time>
      </trkpt>
      <trkpt lat="45.884561939164996" lon="7.312954617664218">
        <ele>2149.6500000000001</ele>
        <time>2016-07-08T12:16:30Z</time>
      </trkpt>
      <trkpt lat="45.884576272219419" lon="7.31272947974503">
        <ele>2148.6799999999998</ele>
        <time>2016-07-08T12:16:45Z</time>
      </trkpt>
      <trkpt lat="45.884587420150638" lon="7.312529319897294">
        <ele>2147.7199999999998</ele>
        <time>2016-07-08T12:16:57Z</time>
      </trkpt>
      <trkpt lat="45.884585324674845" lon="7.312330165877938">
        <ele>2146.7600000000002</ele>
        <time>2016-07-08T12:17:09Z</time>
      </trkpt>
      <trkpt lat="45.884580463171005" lon="7.312097819522023">
        <ele>2146.2800000000002</ele>
        <time>2016-07-08T12:17:22Z</time>
      </trkpt>
      <trkpt lat="45.884536458179355" lon="7.311906879767776">
        <ele>2145.3200000000002</ele>
        <time>2016-07-08T12:17:34Z</time>
      </trkpt>
      <trkpt lat="45.884483736008406" lon="7.311703283339739">
        <ele>2143.8800000000001</ele>
        <time>2016-07-08T12:17:46Z</time>
      </trkpt>
      <trkpt lat="45.884417938068509" lon="7.311452832072973">
        <ele>2142.4400000000001</ele>
        <time>2016-07-08T12:18:01Z</time>
      </trkpt>
      <trkpt lat="45.884410729631782" lon="7.31124403886497">
        <ele>2141.4699999999998</ele>
        <time>2016-07-08T12:18:13Z</time>
      </trkpt>
      <trkpt lat="45.884461607784033" lon="7.311057960614562">
        <ele>2140.0300000000002</ele>
        <time>2016-07-08T12:18:25Z</time>
      </trkpt>
      <trkpt lat="45.884480718523264" lon="7.310863249003887">
        <ele>2139.0700000000002</ele>
        <time>2016-07-08T12:18:36Z</time>
      </trkpt>
      <trkpt lat="45.884512569755316" lon="7.310655377805233">
        <ele>2138.1100000000001</ele>
        <time>2016-07-08T12:18:49Z</time>
      </trkpt>
      <trkpt lat="45.884552299976349" lon="7.310434598475695">
        <ele>2136.6700000000001</ele>
        <time>2016-07-08T12:19:02Z</time>
      </trkpt>
      <trkpt lat="45.884565962478518" lon="7.310368716716766">
        <ele>2136.6700000000001</ele>
        <time>2016-07-08T12:19:06Z</time>
      </trkpt>
      <trkpt lat="45.88458658196032" lon="7.310284227132797">
        <ele>2136.6700000000001</ele>
        <time>2016-07-08T12:19:11Z</time>
      </trkpt>
      <trkpt lat="45.88464517146349" lon="7.310041319578886">
        <ele>2135.23</ele>
        <time>2016-07-08T12:19:26Z</time>
      </trkpt>
      <trkpt lat="45.884714154526591" lon="7.309838645160198">
        <ele>2134.7399999999998</ele>
        <time>2016-07-08T12:19:38Z</time>
      </trkpt>
      <trkpt lat="45.884792190045118" lon="7.309646531939507">
        <ele>2134.2600000000002</ele>
        <time>2016-07-08T12:19:51Z</time>
      </trkpt>
      <trkpt lat="45.884804092347622" lon="7.309610573574901">
        <ele>2134.2600000000002</ele>
        <time>2016-07-08T12:19:54Z</time>
      </trkpt>
      <trkpt lat="45.884848264977336" lon="7.309511918574572">
        <ele>2133.7800000000002</ele>
        <time>2016-07-08T12:20:01Z</time>
      </trkpt>
      <trkpt lat="45.884935772046447" lon="7.309329444542527">
        <ele>2133.3000000000002</ele>
        <time>2016-07-08T12:20:14Z</time>
      </trkpt>
      <trkpt lat="45.885019758716226" lon="7.309147138148546">
        <ele>2133.3000000000002</ele>
        <time>2016-07-08T12:20:26Z</time>
      </trkpt>
      <trkpt lat="45.885092178359628" lon="7.308949576690793">
        <ele>2132.3400000000001</ele>
        <time>2016-07-08T12:20:39Z</time>
      </trkpt>
      <trkpt lat="45.885178260505199" lon="7.308739023283124">
        <ele>2130.9000000000001</ele>
        <time>2016-07-08T12:20:53Z</time>
      </trkpt>
      <trkpt lat="45.885232323780656" lon="7.30855948291719">
        <ele>2129.9400000000001</ele>
        <time>2016-07-08T12:21:05Z</time>
      </trkpt>
      <trkpt lat="45.885299295186996" lon="7.3083327524364">
        <ele>2128.5</ele>
        <time>2016-07-08T12:21:19Z</time>
      </trkpt>
      <trkpt lat="45.88532586582005" lon="7.308212220668793">
        <ele>2128.02</ele>
        <time>2016-07-08T12:21:27Z</time>
      </trkpt>
      <trkpt lat="45.885383449494839" lon="7.308002589270473">
        <ele>2126.0900000000001</ele>
        <time>2016-07-08T12:21:41Z</time>
      </trkpt>
      <trkpt lat="45.885430807247758" lon="7.307832939550281">
        <ele>2125.1300000000001</ele>
        <time>2016-07-08T12:21:51Z</time>
      </trkpt>
      <trkpt lat="45.885486546903849" lon="7.307611657306552">
        <ele>2123.6900000000001</ele>
        <time>2016-07-08T12:22:05Z</time>
      </trkpt>
      <trkpt lat="45.885558715090156" lon="7.307364474982023">
        <ele>2122.73</ele>
        <time>2016-07-08T12:22:19Z</time>
      </trkpt>
      <trkpt lat="45.885587632656097" lon="7.30729884468019">
        <ele>2121.29</ele>
        <time>2016-07-08T12:22:23Z</time>
      </trkpt>
      <trkpt lat="45.88568452745676" lon="7.30708728544414">
        <ele>2120.8099999999999</ele>
        <time>2016-07-08T12:22:37Z</time>
      </trkpt>
      <trkpt lat="45.885731130838394" lon="7.306984439492226">
        <ele>2119.3600000000001</ele>
        <time>2016-07-08T12:22:46Z</time>
      </trkpt>
      <trkpt lat="45.885722246021032" lon="7.306986786425114">
        <ele>2120.8099999999999</ele>
        <time>2016-07-08T12:22:48Z</time>
      </trkpt>
      <trkpt lat="45.885733142495155" lon="7.30700078420341">
        <ele>2120.3200000000002</ele>
        <time>2016-07-08T12:23:00Z</time>
      </trkpt>
      <trkpt lat="45.885879071429372" lon="7.306845802813768">
        <ele>2119.3600000000001</ele>
        <time>2016-07-08T12:23:14Z</time>
      </trkpt>
      <trkpt lat="45.886037740856409" lon="7.306668274104595">
        <ele>2118.4000000000001</ele>
        <time>2016-07-08T12:23:30Z</time>
      </trkpt>
      <trkpt lat="45.886186100542545" lon="7.306527709588409">
        <ele>2117.4400000000001</ele>
        <time>2016-07-08T12:23:44Z</time>
      </trkpt>
      <trkpt lat="45.886364132165909" lon="7.306382535025477">
        <ele>2116.48</ele>
        <time>2016-07-08T12:23:59Z</time>
      </trkpt>
      <trkpt lat="45.886514335870743" lon="7.306258315220475">
        <ele>2115.04</ele>
        <time>2016-07-08T12:24:13Z</time>
      </trkpt>
      <trkpt lat="45.886648362502456" lon="7.306182626634836">
        <ele>2114.5599999999999</ele>
        <time>2016-07-08T12:24:25Z</time>
      </trkpt>
      <trkpt lat="45.886711226776242" lon="7.306144991889596">
        <ele>2114.0799999999999</ele>
        <time>2016-07-08T12:24:30Z</time>
      </trkpt>
      <trkpt lat="45.886760596185923" lon="7.306118085980415">
        <ele>2114.0799999999999</ele>
        <time>2016-07-08T12:24:34Z</time>
      </trkpt>
      <trkpt lat="45.886941310018301" lon="7.306022699922323">
        <ele>2113.1199999999999</ele>
        <time>2016-07-08T12:24:49Z</time>
      </trkpt>
      <trkpt lat="45.886964611709118" lon="7.30601130053401">
        <ele>2112.6300000000001</ele>
        <time>2016-07-08T12:24:51Z</time>
      </trkpt>
      <trkpt lat="45.887101404368877" lon="7.305928990244865">
        <ele>2111.6700000000001</ele>
        <time>2016-07-08T12:25:04Z</time>
      </trkpt>
      <trkpt lat="45.887243980541825" lon="7.305838381871581">
        <ele>2111.1900000000001</ele>
        <time>2016-07-08T12:25:17Z</time>
      </trkpt>
      <trkpt lat="45.887310700491071" lon="7.305795717984438">
        <ele>2110.23</ele>
        <time>2016-07-08T12:25:27Z</time>
      </trkpt>
      <trkpt lat="45.887331990525126" lon="7.305775349959731">
        <ele>2110.23</ele>
        <time>2016-07-08T12:25:40Z</time>
      </trkpt>
      <trkpt lat="45.887490576133132" lon="7.305647693574429">
        <ele>2108.79</ele>
        <time>2016-07-08T12:25:55Z</time>
      </trkpt>
      <trkpt lat="45.887658633291721" lon="7.305521797388792">
        <ele>2107.8299999999999</ele>
        <time>2016-07-08T12:26:10Z</time>
      </trkpt>
      <trkpt lat="45.887826690450311" lon="7.305350722745061">
        <ele>2106.8699999999999</ele>
        <time>2016-07-08T12:26:26Z</time>
      </trkpt>
      <trkpt lat="45.887957951053977" lon="7.305216528475285">
        <ele>2105.9099999999999</ele>
        <time>2016-07-08T12:26:39Z</time>
      </trkpt>
      <trkpt lat="45.888113770633936" lon="7.30503598228097">
        <ele>2105.9099999999999</ele>
        <time>2016-07-08T12:26:54Z</time>
      </trkpt>
      <trkpt lat="45.888146795332432" lon="7.304986948147416">
        <ele>2104.46</ele>
        <time>2016-07-08T12:26:59Z</time>
      </trkpt>
      <trkpt lat="45.88816867209971" lon="7.304929783567786">
        <ele>2103.5</ele>
        <time>2016-07-08T12:27:03Z</time>
      </trkpt>
      <trkpt lat="45.888249222189188" lon="7.304742112755776">
        <ele>2103.5</ele>
        <time>2016-07-08T12:27:16Z</time>
      </trkpt>
      <trkpt lat="45.888369670137763" lon="7.30454639531672">
        <ele>2102.54</ele>
        <time>2016-07-08T12:27:30Z</time>
      </trkpt>
      <trkpt lat="45.888488357886672" lon="7.304338188841939">
        <ele>2101.5799999999999</ele>
        <time>2016-07-08T12:27:45Z</time>
      </trkpt>
      <trkpt lat="45.888575613498688" lon="7.304122522473335">
        <ele>2100.1399999999999</ele>
        <time>2016-07-08T12:27:57Z</time>
      </trkpt>
      <trkpt lat="45.888611236587167" lon="7.304058149456978">
        <ele>2099.6599999999999</ele>
        <time>2016-07-08T12:28:02Z</time>
      </trkpt>
      <trkpt lat="45.888781053945422" lon="7.303842315450311">
        <ele>2098.21</ele>
        <time>2016-07-08T12:28:19Z</time>
      </trkpt>
      <trkpt lat="45.888939807191491" lon="7.303700326010585">
        <ele>2097.25</ele>
        <time>2016-07-08T12:28:34Z</time>
      </trkpt>
      <trkpt lat="45.889109205454588" lon="7.303555486723781">
        <ele>2095.8099999999999</ele>
        <time>2016-07-08T12:28:48Z</time>
      </trkpt>
      <trkpt lat="45.889151534065604" lon="7.303525395691395">
        <ele>2095.8099999999999</ele>
        <time>2016-07-08T12:28:52Z</time>
      </trkpt>
      <trkpt lat="45.88929989375174" lon="7.303437888622284">
        <ele>2094.3699999999999</ele>
        <time>2016-07-08T12:29:06Z</time>
      </trkpt>
      <trkpt lat="45.889374660328031" lon="7.303353482857347">
        <ele>2094.3699999999999</ele>
        <time>2016-07-08T12:29:14Z</time>
      </trkpt>
      <trkpt lat="45.889543807134032" lon="7.303235633298755">
        <ele>2092.9299999999998</ele>
        <time>2016-07-08T12:29:28Z</time>
      </trkpt>
      <trkpt lat="45.889690071344376" lon="7.303155334666371">
        <ele>2092.4499999999998</ele>
        <time>2016-07-08T12:29:41Z</time>
      </trkpt>
      <trkpt lat="45.88982661254704" lon="7.30308048427105">
        <ele>2091.4899999999998</ele>
        <time>2016-07-08T12:29:53Z</time>
      </trkpt>
      <trkpt lat="45.889962818473577" lon="7.303045950829983">
        <ele>2090.52</ele>
        <time>2016-07-08T12:30:04Z</time>
      </trkpt>
      <trkpt lat="45.890097850933671" lon="7.303008735179901">
        <ele>2089.5599999999999</ele>
        <time>2016-07-08T12:30:15Z</time>
      </trkpt>
      <trkpt lat="45.890252413228154" lon="7.303010411560535">
        <ele>2088.5999999999999</ele>
        <time>2016-07-08T12:30:27Z</time>
      </trkpt>
      <trkpt lat="45.890444526448846" lon="7.303063552826643">
        <ele>2086.6799999999998</ele>
        <time>2016-07-08T12:30:42Z</time>
      </trkpt>
      <trkpt lat="45.890581486746669" lon="7.30308978818357">
        <ele>2085.7199999999998</ele>
        <time>2016-07-08T12:30:53Z</time>
      </trkpt>
      <trkpt lat="45.89075842872262" lon="7.30308442376554">
        <ele>2083.79</ele>
        <time>2016-07-08T12:31:08Z</time>
      </trkpt>
      <trkpt lat="45.890962779521942" lon="7.303094817325473">
        <ele>2082.8299999999999</ele>
        <time>2016-07-08T12:31:22Z</time>
      </trkpt>
      <trkpt lat="45.891140475869179" lon="7.303112838417292">
        <ele>2081.8699999999999</ele>
        <time>2016-07-08T12:31:39Z</time>
      </trkpt>
      <trkpt lat="45.891212392598391" lon="7.303089117631316">
        <ele>2081.8699999999999</ele>
        <time>2016-07-08T12:31:44Z</time>
      </trkpt>
      <trkpt lat="45.891262935474515" lon="7.303029606118798">
        <ele>2081.3899999999999</ele>
        <time>2016-07-08T12:31:50Z</time>
      </trkpt>
      <trkpt lat="45.891321273520589" lon="7.303032958880067">
        <ele>2081.3899999999999</ele>
        <time>2016-07-08T12:31:55Z</time>
      </trkpt>
      <trkpt lat="45.891331164166331" lon="7.303064726293087">
        <ele>2080.4299999999998</ele>
        <time>2016-07-08T12:32:05Z</time>
      </trkpt>
      <trkpt lat="45.891344072297215" lon="7.30307025834918">
        <ele>2079.9499999999998</ele>
        <time>2016-07-08T12:32:15Z</time>
      </trkpt>
      <trkpt lat="45.891338121145964" lon="7.303103534504771">
        <ele>2079.9499999999998</ele>
        <time>2016-07-08T12:32:47Z</time>
      </trkpt>
      <trkpt lat="45.891320770606399" lon="7.303119041025639">
        <ele>2079.9499999999998</ele>
        <time>2016-07-08T12:33:04Z</time>
      </trkpt>
      <trkpt lat="45.891318172216415" lon="7.303106468170881">
        <ele>2079.9499999999998</ele>
        <time>2016-07-08T12:33:14Z</time>
      </trkpt>
      <trkpt lat="45.891299229115248" lon="7.303044945001602">
        <ele>2081.3899999999999</ele>
        <time>2016-07-08T12:33:24Z</time>
      </trkpt>
      <trkpt lat="45.891320770606399" lon="7.303036898374558">
        <ele>2080.9099999999999</ele>
        <time>2016-07-08T12:33:38Z</time>
      </trkpt>
      <trkpt lat="45.891333678737283" lon="7.303017368540168">
        <ele>2080.4299999999998</ele>
        <time>2016-07-08T12:33:39Z</time>
      </trkpt>
      <trkpt lat="45.891360836103559" lon="7.302906224504113">
        <ele>2080.4299999999998</ele>
        <time>2016-07-08T12:33:46Z</time>
      </trkpt>
      <trkpt lat="45.891436608508229" lon="7.302720062434673">
        <ele>2080.4299999999998</ele>
        <time>2016-07-08T12:34:00Z</time>
      </trkpt>
      <trkpt lat="45.891492180526257" lon="7.302491990849376">
        <ele>2078.9899999999998</ele>
        <time>2016-07-08T12:34:16Z</time>
      </trkpt>
      <trkpt lat="45.891528138890862" lon="7.302304152399302">
        <ele>2079.4699999999998</ele>
        <time>2016-07-08T12:34:29Z</time>
      </trkpt>
      <trkpt lat="45.891548506915569" lon="7.30208270251751">
        <ele>2078.9899999999998</ele>
        <time>2016-07-08T12:34:42Z</time>
      </trkpt>
      <trkpt lat="45.891541466116905" lon="7.302080858498812">
        <ele>2078.9899999999998</ele>
        <time>2016-07-08T12:34:44Z</time>
      </trkpt>
      <trkpt lat="45.891492599621415" lon="7.302357209846377">
        <ele>2079.4699999999998</ele>
        <time>2016-07-08T12:34:58Z</time>
      </trkpt>
      <trkpt lat="45.891493605449796" lon="7.302378499880433">
        <ele>2079.4699999999998</ele>
        <time>2016-07-08T12:34:59Z</time>
      </trkpt>
      <trkpt lat="45.891476003453135" lon="7.302496768534184">
        <ele>2079.9499999999998</ele>
        <time>2016-07-08T12:35:05Z</time>
      </trkpt>
      <trkpt lat="45.891437279060483" lon="7.302714446559548">
        <ele>2080.4299999999998</ele>
        <time>2016-07-08T12:35:17Z</time>
      </trkpt>
      <trkpt lat="45.891370056197047" lon="7.302943607792258">
        <ele>2079.9499999999998</ele>
        <time>2016-07-08T12:35:31Z</time>
      </trkpt>
      <trkpt lat="45.891320770606399" lon="7.303118035197258">
        <ele>2078.9899999999998</ele>
        <time>2016-07-08T12:35:45Z</time>
      </trkpt>
      <trkpt lat="45.891319261863828" lon="7.303082831203938">
        <ele>2079.4699999999998</ele>
        <time>2016-07-08T12:35:48Z</time>
      </trkpt>
      <trkpt lat="45.891330409795046" lon="7.302975710481405">
        <ele>2079.9499999999998</ele>
        <time>2016-07-08T12:35:53Z</time>
      </trkpt>
      <trkpt lat="45.891393441706896" lon="7.302728276699781">
        <ele>2079.4699999999998</ele>
        <time>2016-07-08T12:36:07Z</time>
      </trkpt>
      <trkpt lat="45.891424538567662" lon="7.302567763254046">
        <ele>2079.4699999999998</ele>
        <time>2016-07-08T12:36:17Z</time>
      </trkpt>
      <trkpt lat="45.89147575199604" lon="7.302332483232021">
        <ele>2078.5100000000002</ele>
        <time>2016-07-08T12:36:31Z</time>
      </trkpt>
      <trkpt lat="45.891501568257809" lon="7.302100388333201">
        <ele>2077.5500000000002</ele>
        <time>2016-07-08T12:36:44Z</time>
      </trkpt>
      <trkpt lat="45.891511710360646" lon="7.301818504929543">
        <ele>2077.5500000000002</ele>
        <time>2016-07-08T12:36:59Z</time>
      </trkpt>
      <trkpt lat="45.89151531457901" lon="7.301610130816698">
        <ele>2076.5900000000001</ele>
        <time>2016-07-08T12:37:11Z</time>
      </trkpt>
      <trkpt lat="45.891517493873835" lon="7.301350627094507">
        <ele>2076.5900000000001</ele>
        <time>2016-07-08T12:37:26Z</time>
      </trkpt>
      <trkpt lat="45.89152411557734" lon="7.301086513325572">
        <ele>2077.0700000000002</ele>
        <time>2016-07-08T12:37:42Z</time>
      </trkpt>
      <trkpt lat="45.891536856070161" lon="7.300865650177002">
        <ele>2076.5900000000001</ele>
        <time>2016-07-08T12:37:55Z</time>
      </trkpt>
      <trkpt lat="45.89152998290956" lon="7.300848215818405">
        <ele>2076.0999999999999</ele>
        <time>2016-07-08T12:37:56Z</time>
      </trkpt>
      <trkpt lat="45.89154708199203" lon="7.300630118697882">
        <ele>2076.0999999999999</ele>
        <time>2016-07-08T12:38:09Z</time>
      </trkpt>
      <trkpt lat="45.891537191346288" lon="7.300353096798062">
        <ele>2075.6199999999999</ele>
        <time>2016-07-08T12:38:24Z</time>
      </trkpt>
      <trkpt lat="45.891528474166989" lon="7.300144052132964">
        <ele>2075.6199999999999</ele>
        <time>2016-07-08T12:38:36Z</time>
      </trkpt>
      <trkpt lat="45.891533000394702" lon="7.299923105165362">
        <ele>2075.1399999999999</ele>
        <time>2016-07-08T12:38:48Z</time>
      </trkpt>
      <trkpt lat="45.891524367034435" lon="7.299700146540999">
        <ele>2075.1399999999999</ele>
        <time>2016-07-08T12:39:01Z</time>
      </trkpt>
      <trkpt lat="45.891485223546624" lon="7.299495041370392">
        <ele>2074.6599999999999</ele>
        <time>2016-07-08T12:39:14Z</time>
      </trkpt>
      <trkpt lat="45.891478015109897" lon="7.299238722771406">
        <ele>2074.6599999999999</ele>
        <time>2016-07-08T12:39:29Z</time>
      </trkpt>
      <trkpt lat="45.891433507204056" lon="7.29900486767292">
        <ele>2074.1799999999998</ele>
        <time>2016-07-08T12:39:43Z</time>
      </trkpt>
      <trkpt lat="45.891404338181019" lon="7.298761624842882">
        <ele>2074.1799999999998</ele>
        <time>2016-07-08T12:39:56Z</time>
      </trkpt>
      <trkpt lat="45.891383718699217" lon="7.298572948202491">
        <ele>2073.6999999999998</ele>
        <time>2016-07-08T12:40:07Z</time>
      </trkpt>
      <trkpt lat="45.891335858032107" lon="7.298339260742068">
        <ele>2074.1799999999998</ele>
        <time>2016-07-08T12:40:21Z</time>
      </trkpt>
      <trkpt lat="45.891278777271509" lon="7.298135664314032">
        <ele>2073.6999999999998</ele>
        <time>2016-07-08T12:40:33Z</time>
      </trkpt>
      <trkpt lat="45.891201328486204" lon="7.297974228858948">
        <ele>2074.1799999999998</ele>
        <time>2016-07-08T12:40:45Z</time>
      </trkpt>
      <trkpt lat="45.891083814203739" lon="7.297835005447269">
        <ele>2075.1399999999999</ele>
        <time>2016-07-08T12:40:58Z</time>
      </trkpt>
      <trkpt lat="45.89098465628922" lon="7.297755125910044">
        <ele>2073.6999999999998</ele>
        <time>2016-07-08T12:41:08Z</time>
      </trkpt>
      <trkpt lat="45.890905195847154" lon="7.297671977430582">
        <ele>2074.1799999999998</ele>
        <time>2016-07-08T12:41:17Z</time>
      </trkpt>
      <trkpt lat="45.890867309644818" lon="7.297662170603871">
        <ele>2074.1799999999998</ele>
        <time>2016-07-08T12:41:20Z</time>
      </trkpt>
      <trkpt lat="45.890846522524953" lon="7.297651106491685">
        <ele>2073.6999999999998</ele>
        <time>2016-07-08T12:41:22Z</time>
      </trkpt>
      <trkpt lat="45.890800757333636" lon="7.297596456483007">
        <ele>2074.1799999999998</ele>
        <time>2016-07-08T12:41:34Z</time>
      </trkpt>
      <trkpt lat="45.890816934406757" lon="7.297607688233256">
        <ele>2073.2199999999998</ele>
        <time>2016-07-08T12:41:41Z</time>
      </trkpt>
      <trkpt lat="45.89081316255033" lon="7.297601820901036">
        <ele>2073.2199999999998</ele>
        <time>2016-07-08T12:42:04Z</time>
      </trkpt>
      <trkpt lat="45.890806624665856" lon="7.297596205025911">
        <ele>2073.2199999999998</ele>
        <time>2016-07-08T12:42:17Z</time>
      </trkpt>
      <trkpt lat="45.890809139236808" lon="7.297580949962139">
        <ele>2073.2199999999998</ele>
        <time>2016-07-08T12:42:31Z</time>
      </trkpt>
      <trkpt lat="45.890796566382051" lon="7.297572987154126">
        <ele>2073.6999999999998</ele>
        <time>2016-07-08T12:42:50Z</time>
      </trkpt>
      <trkpt lat="45.89078625664115" lon="7.297552535310388">
        <ele>2073.2199999999998</ele>
        <time>2016-07-08T12:43:01Z</time>
      </trkpt>
      <trkpt lat="45.890793548896909" lon="7.297575082629919">
        <ele>2073.2199999999998</ele>
        <time>2016-07-08T12:43:11Z</time>
      </trkpt>
      <trkpt lat="45.890789525583386" lon="7.297598803415895">
        <ele>2072.7399999999998</ele>
        <time>2016-07-08T12:43:23Z</time>
      </trkpt>
      <trkpt lat="45.890784915536642" lon="7.297562090680003">
        <ele>2075.6199999999999</ele>
        <time>2016-07-08T12:43:34Z</time>
      </trkpt>
      <trkpt lat="45.890748035162687" lon="7.29754532687366">
        <ele>2073.2199999999998</ele>
        <time>2016-07-08T12:43:42Z</time>
      </trkpt>
      <trkpt lat="45.890790782868862" lon="7.297555636614561">
        <ele>2072.7399999999998</ele>
        <time>2016-07-08T12:44:13Z</time>
      </trkpt>
      <trkpt lat="45.890787346288562" lon="7.297559240832925">
        <ele>2072.2600000000002</ele>
        <time>2016-07-08T12:44:48Z</time>
      </trkpt>
      <trkpt lat="45.890770750120282" lon="7.297552283853293">
        <ele>2072.2600000000002</ele>
        <time>2016-07-08T12:45:18Z</time>
      </trkpt>
      <trkpt lat="45.890777539461851" lon="7.297576675191522">
        <ele>2071.7800000000002</ele>
        <time>2016-07-08T12:45:53Z</time>
      </trkpt>
      <trkpt lat="45.89078675955534" lon="7.297567958012223">
        <ele>2071.7800000000002</ele>
        <time>2016-07-08T12:46:23Z</time>
      </trkpt>
      <trkpt lat="45.890774186700583" lon="7.29757709428668">
        <ele>2071.3000000000002</ele>
        <time>2016-07-08T12:46:49Z</time>
      </trkpt>
      <trkpt lat="45.890787513926625" lon="7.297602323815227">
        <ele>2071.3000000000002</ele>
        <time>2016-07-08T12:47:28Z</time>
      </trkpt>
      <trkpt lat="45.890783071517944" lon="7.297605173662305">
        <ele>2071.3000000000002</ele>
        <time>2016-07-08T12:47:47Z</time>
      </trkpt>
      <trkpt lat="45.890788268297911" lon="7.297572065144777">
        <ele>2071.7800000000002</ele>
        <time>2016-07-08T12:48:06Z</time>
      </trkpt>
      <trkpt lat="45.890790028497577" lon="7.297587990760803">
        <ele>2070.8200000000002</ele>
        <time>2016-07-08T12:48:24Z</time>
      </trkpt>
      <trkpt lat="45.890805032104254" lon="7.297588493674994">
        <ele>2070.8200000000002</ele>
        <time>2016-07-08T12:48:37Z</time>
      </trkpt>
      <trkpt lat="45.890833446756005" lon="7.297597378492355">
        <ele>2071.3000000000002</ele>
        <time>2016-07-08T12:48:46Z</time>
      </trkpt>
      <trkpt lat="45.890830848366022" lon="7.297580279409885">
        <ele>2070.3400000000001</ele>
        <time>2016-07-08T12:48:59Z</time>
      </trkpt>
      <trkpt lat="45.890811989083886" lon="7.297580111771822">
        <ele>2069.8600000000001</ele>
        <time>2016-07-08T12:49:13Z</time>
      </trkpt>
      <trkpt lat="45.890797488391399" lon="7.297571981325746">
        <ele>2069.8600000000001</ele>
        <time>2016-07-08T12:49:46Z</time>
      </trkpt>
      <trkpt lat="45.890792207792401" lon="7.297561420127749">
        <ele>2069.3800000000001</ele>
        <time>2016-07-08T12:50:12Z</time>
      </trkpt>
      <trkpt lat="45.890813581645489" lon="7.297589415684342">
        <ele>2069.3800000000001</ele>
        <time>2016-07-08T12:50:43Z</time>
      </trkpt>
      <trkpt lat="45.890813246369362" lon="7.297583464533091">
        <ele>2068.8899999999999</ele>
        <time>2016-07-08T12:51:11Z</time>
      </trkpt>
      <trkpt lat="45.89082095772028" lon="7.297594528645277">
        <ele>2069.8600000000001</ele>
        <time>2016-07-08T12:51:25Z</time>
      </trkpt>
      <trkpt lat="45.890817940235138" lon="7.297571478411555">
        <ele>2069.8600000000001</ele>
        <time>2016-07-08T12:51:34Z</time>
      </trkpt>
      <trkpt lat="45.890799583867192" lon="7.297558654099703">
        <ele>2069.8600000000001</ele>
        <time>2016-07-08T12:51:41Z</time>
      </trkpt>
      <trkpt lat="45.890802685171366" lon="7.297567036002874">
        <ele>2069.3800000000001</ele>
        <time>2016-07-08T12:51:55Z</time>
      </trkpt>
      <trkpt lat="45.89080193080008" lon="7.297593438997865">
        <ele>2069.3800000000001</ele>
        <time>2016-07-08T12:52:08Z</time>
      </trkpt>
      <trkpt lat="45.890796734020114" lon="7.29761372320354">
        <ele>2069.3800000000001</ele>
        <time>2016-07-08T12:52:17Z</time>
      </trkpt>
      <trkpt lat="45.890795895829797" lon="7.29762009344995">
        <ele>2069.3800000000001</ele>
        <time>2016-07-08T12:52:19Z</time>
      </trkpt>
      <trkpt lat="45.890716016292572" lon="7.297691842541099">
        <ele>2069.8600000000001</ele>
        <time>2016-07-08T12:52:29Z</time>
      </trkpt>
      <trkpt lat="45.890659773722291" lon="7.297747582197189">
        <ele>2069.8600000000001</ele>
        <time>2016-07-08T12:52:37Z</time>
      </trkpt>
      <trkpt lat="45.890587354078889" lon="7.297856463119388">
        <ele>2070.3400000000001</ele>
        <time>2016-07-08T12:52:48Z</time>
      </trkpt>
      <trkpt lat="45.89051267132163" lon="7.297941204160452">
        <ele>2070.8200000000002</ele>
        <time>2016-07-08T12:52:58Z</time>
      </trkpt>
      <trkpt lat="45.890418626368046" lon="7.298045307397842">
        <ele>2071.3000000000002</ele>
        <time>2016-07-08T12:53:10Z</time>
      </trkpt>
      <trkpt lat="45.890315193682909" lon="7.298099286854267">
        <ele>2071.7800000000002</ele>
        <time>2016-07-08T12:53:20Z</time>
      </trkpt>
      <trkpt lat="45.890206648036838" lon="7.298159971833229">
        <ele>2072.2600000000002</ele>
        <time>2016-07-08T12:53:30Z</time>
      </trkpt>
      <trkpt lat="45.890079662203789" lon="7.29821034707129">
        <ele>2072.2600000000002</ele>
        <time>2016-07-08T12:53:41Z</time>
      </trkpt>
      <trkpt lat="45.889955526217818" lon="7.298265835270286">
        <ele>2072.7399999999998</ele>
        <time>2016-07-08T12:53:52Z</time>
      </trkpt>
      <trkpt lat="45.889798700809479" lon="7.298327023163438">
        <ele>2073.2199999999998</ele>
        <time>2016-07-08T12:54:05Z</time>
      </trkpt>
      <trkpt lat="45.889701386913657" lon="7.298361556604505">
        <ele>2073.2199999999998</ele>
        <time>2016-07-08T12:54:13Z</time>
      </trkpt>
      <trkpt lat="45.889543723315001" lon="7.298371279612184">
        <ele>2073.2199999999998</ele>
        <time>2016-07-08T12:54:26Z</time>
      </trkpt>
      <trkpt lat="45.889387568458915" lon="7.298350408673286">
        <ele>2073.2199999999998</ele>
        <time>2016-07-08T12:54:38Z</time>
      </trkpt>
      <trkpt lat="45.88922118768096" lon="7.298286957666278">
        <ele>2073.2199999999998</ele>
        <time>2016-07-08T12:54:51Z</time>
      </trkpt>
      <trkpt lat="45.889067547395825" lon="7.298224261030555">
        <ele>2073.2199999999998</ele>
        <time>2016-07-08T12:55:04Z</time>
      </trkpt>
      <trkpt lat="45.888910470530391" lon="7.298134826123714">
        <ele>2072.7399999999998</ele>
        <time>2016-07-08T12:55:17Z</time>
      </trkpt>
      <trkpt lat="45.888756075873971" lon="7.298048492521048">
        <ele>2072.7399999999998</ele>
        <time>2016-07-08T12:55:30Z</time>
      </trkpt>
      <trkpt lat="45.888568321242929" lon="7.297962745651603">
        <ele>2072.2600000000002</ele>
        <time>2016-07-08T12:55:46Z</time>
      </trkpt>
      <trkpt lat="45.888422727584839" lon="7.297942545264959">
        <ele>2072.2600000000002</ele>
        <time>2016-07-08T12:55:58Z</time>
      </trkpt>
      <trkpt lat="45.888265985995531" lon="7.297954950481653">
        <ele>2071.7800000000002</ele>
        <time>2016-07-08T12:56:11Z</time>
      </trkpt>
      <trkpt lat="45.888095917180181" lon="7.298018569126725">
        <ele>2072.2600000000002</ele>
        <time>2016-07-08T12:56:25Z</time>
      </trkpt>
      <trkpt lat="45.887938840314746" lon="7.298070956021547">
        <ele>2071.7800000000002</ele>
        <time>2016-07-08T12:56:38Z</time>
      </trkpt>
      <trkpt lat="45.887768855318427" lon="7.298136418685317">
        <ele>2071.7800000000002</ele>
        <time>2016-07-08T12:56:52Z</time>
      </trkpt>
      <trkpt lat="45.887580765411258" lon="7.298209005966783">
        <ele>2071.7800000000002</ele>
        <time>2016-07-08T12:57:07Z</time>
      </trkpt>
      <trkpt lat="45.887394519522786" lon="7.298296764492989">
        <ele>2071.7800000000002</ele>
        <time>2016-07-08T12:57:23Z</time>
      </trkpt>
      <trkpt lat="45.887199304997921" lon="7.298407908529043">
        <ele>2072.2600000000002</ele>
        <time>2016-07-08T12:57:39Z</time>
      </trkpt>
      <trkpt lat="45.887034935876727" lon="7.298540007323027">
        <ele>2071.7800000000002</ele>
        <time>2016-07-08T12:57:53Z</time>
      </trkpt>
      <trkpt lat="45.886930413544178" lon="7.29860957711935">
        <ele>2072.2600000000002</ele>
        <time>2016-07-08T12:58:04Z</time>
      </trkpt>
      <trkpt lat="45.886801667511463" lon="7.29864863678813">
        <ele>2071.7800000000002</ele>
        <time>2016-07-08T12:58:15Z</time>
      </trkpt>
      <trkpt lat="45.886604944244027" lon="7.298675961792469">
        <ele>2071.3000000000002</ele>
        <time>2016-07-08T12:58:30Z</time>
      </trkpt>
      <trkpt lat="45.886428253725171" lon="7.298676380887628">
        <ele>2070.8200000000002</ele>
        <time>2016-07-08T12:58:44Z</time>
      </trkpt>
      <trkpt lat="45.886222897097468" lon="7.298684930428863">
        <ele>2070.3400000000001</ele>
        <time>2016-07-08T12:59:00Z</time>
      </trkpt>
      <trkpt lat="45.886060874909163" lon="7.298705382272601">
        <ele>2070.3400000000001</ele>
        <time>2016-07-08T12:59:13Z</time>
      </trkpt>
      <trkpt lat="45.885882927104831" lon="7.298705549910665">
        <ele>2069.8600000000001</ele>
        <time>2016-07-08T12:59:27Z</time>
      </trkpt>
      <trkpt lat="45.885851075872779" lon="7.298699012026191">
        <ele>2069.8600000000001</ele>
        <time>2016-07-08T12:59:30Z</time>
      </trkpt>
      <trkpt lat="45.885770861059427" lon="7.298705633729696">
        <ele>2069.8600000000001</ele>
        <time>2016-07-08T12:59:36Z</time>
      </trkpt>
      <trkpt lat="45.885606743395329" lon="7.298716949298978">
        <ele>2069.8600000000001</ele>
        <time>2016-07-08T12:59:49Z</time>
      </trkpt>
      <trkpt lat="45.885441368445754" lon="7.298788363113999">
        <ele>2068.8899999999999</ele>
        <time>2016-07-08T13:00:03Z</time>
      </trkpt>
      <trkpt lat="45.885294685140252" lon="7.298887856304646">
        <ele>2068.4099999999999</ele>
        <time>2016-07-08T13:00:16Z</time>
      </trkpt>
      <trkpt lat="45.885117910802364" lon="7.298946781083942">
        <ele>2067.9299999999998</ele>
        <time>2016-07-08T13:00:30Z</time>
      </trkpt>
      <trkpt lat="45.884947841987014" lon="7.298897160217166">
        <ele>2066.9699999999998</ele>
        <time>2016-07-08T13:00:43Z</time>
      </trkpt>
      <trkpt lat="45.884756147861481" lon="7.298825327306986">
        <ele>2066.4899999999998</ele>
        <time>2016-07-08T13:00:58Z</time>
      </trkpt>
      <trkpt lat="45.884563028812408" lon="7.29878350161016">
        <ele>2065.5300000000002</ele>
        <time>2016-07-08T13:01:13Z</time>
      </trkpt>
      <trkpt lat="45.884405197575688" lon="7.298796828836203">
        <ele>2064.5700000000002</ele>
        <time>2016-07-08T13:01:26Z</time>
      </trkpt>
      <trkpt lat="45.884189195930958" lon="7.298785597085953">
        <ele>2063.6100000000001</ele>
        <time>2016-07-08T13:01:42Z</time>
      </trkpt>
      <trkpt lat="45.884015019983053" lon="7.298803869634867">
        <ele>2061.6799999999998</ele>
        <time>2016-07-08T13:01:56Z</time>
      </trkpt>
      <trkpt lat="45.883824666962028" lon="7.298833457753062">
        <ele>2061.1999999999998</ele>
        <time>2016-07-08T13:02:11Z</time>
      </trkpt>
      <trkpt lat="45.88365183211863" lon="7.298847120255232">
        <ele>2058.8000000000002</ele>
        <time>2016-07-08T13:02:25Z</time>
      </trkpt>
      <trkpt lat="45.883472124114633" lon="7.298867655918002">
        <ele>2057.8400000000001</ele>
        <time>2016-07-08T13:02:39Z</time>
      </trkpt>
      <trkpt lat="45.883271712809801" lon="7.298931777477264">
        <ele>2056.4000000000001</ele>
        <time>2016-07-08T13:02:55Z</time>
      </trkpt>
      <trkpt lat="45.883084712550044" lon="7.299003275111318">
        <ele>2054.96</ele>
        <time>2016-07-08T13:03:10Z</time>
      </trkpt>
      <trkpt lat="45.882872901856899" lon="7.299070414155722">
        <ele>2053.9899999999998</ele>
        <time>2016-07-08T13:03:26Z</time>
      </trkpt>
      <trkpt lat="45.882714735344052" lon="7.29911676608026">
        <ele>2053.0300000000002</ele>
        <time>2016-07-08T13:03:39Z</time>
      </trkpt>
      <trkpt lat="45.882604010403156" lon="7.299167895689607">
        <ele>2052.0700000000002</ele>
        <time>2016-07-08T13:03:48Z</time>
      </trkpt>
      <trkpt lat="45.882445843890309" lon="7.299257833510637">
        <ele>2051.5900000000001</ele>
        <time>2016-07-08T13:04:01Z</time>
      </trkpt>
      <trkpt lat="45.882244678214192" lon="7.299373168498278">
        <ele>2050.1500000000001</ele>
        <time>2016-07-08T13:04:17Z</time>
      </trkpt>
      <trkpt lat="45.882085422053933" lon="7.299444079399109">
        <ele>2049.1900000000001</ele>
        <time>2016-07-08T13:04:30Z</time>
      </trkpt>
      <trkpt lat="45.881886603310704" lon="7.299477523192763">
        <ele>2047.75</ele>
        <time>2016-07-08T13:04:45Z</time>
      </trkpt>
      <trkpt lat="45.881699938327074" lon="7.299409881234169">
        <ele>2047.26</ele>
        <time>2016-07-08T13:04:59Z</time>
      </trkpt>
      <trkpt lat="45.881500029936433" lon="7.299338718876243">
        <ele>2045.3399999999999</ele>
        <time>2016-07-08T13:05:14Z</time>
      </trkpt>
      <trkpt lat="45.881289225071669" lon="7.299325224012137">
        <ele>2045.8199999999999</ele>
        <time>2016-07-08T13:05:30Z</time>
      </trkpt>
      <trkpt lat="45.881100548431277" lon="7.299358919262886">
        <ele>2045.3399999999999</ele>
        <time>2016-07-08T13:05:45Z</time>
      </trkpt>
      <trkpt lat="45.880950009450316" lon="7.299397559836507">
        <ele>2044.3800000000001</ele>
        <time>2016-07-08T13:05:57Z</time>
      </trkpt>
      <trkpt lat="45.880788909271359" lon="7.299432260915637">
        <ele>2043.9000000000001</ele>
        <time>2016-07-08T13:06:10Z</time>
      </trkpt>
      <trkpt lat="45.880622528493404" lon="7.299439217895269">
        <ele>2043.4200000000001</ele>
        <time>2016-07-08T13:06:23Z</time>
      </trkpt>
      <trkpt lat="45.880429912358522" lon="7.299428740516305">
        <ele>2042.9400000000001</ele>
        <time>2016-07-08T13:06:39Z</time>
      </trkpt>
      <trkpt lat="45.880279457196593" lon="7.299414994195104">
        <ele>2042.46</ele>
        <time>2016-07-08T13:06:52Z</time>
      </trkpt>
      <trkpt lat="45.880109388381243" lon="7.299409294500947">
        <ele>2041.98</ele>
        <time>2016-07-08T13:07:05Z</time>
      </trkpt>
      <trkpt lat="45.87992750108242" lon="7.299407785758376">
        <ele>2041.02</ele>
        <time>2016-07-08T13:07:20Z</time>
      </trkpt>
      <trkpt lat="45.87973153218627" lon="7.299408121034503">
        <ele>2040.05</ele>
        <time>2016-07-08T13:07:36Z</time>
      </trkpt>
      <trkpt lat="45.879570348188281" lon="7.299283733591437">
        <ele>2040.05</ele>
        <time>2016-07-08T13:07:51Z</time>
      </trkpt>
      <trkpt lat="45.879439590498805" lon="7.299132356420159">
        <ele>2038.6099999999999</ele>
        <time>2016-07-08T13:08:05Z</time>
      </trkpt>
      <trkpt lat="45.87941880337894" lon="7.299113161861897">
        <ele>2038.6099999999999</ele>
        <time>2016-07-08T13:08:07Z</time>
      </trkpt>
      <trkpt lat="45.879278993234038" lon="7.298968406394124">
        <ele>2037.6500000000001</ele>
        <time>2016-07-08T13:08:22Z</time>
      </trkpt>
      <trkpt lat="45.87922484613955" lon="7.298940746113658">
        <ele>2037.1700000000001</ele>
        <time>2016-07-08T13:08:27Z</time>
      </trkpt>
      <trkpt lat="45.879070954397321" lon="7.298912582919002">
        <ele>2036.6900000000001</ele>
        <time>2016-07-08T13:08:40Z</time>
      </trkpt>
      <trkpt lat="45.878898287191987" lon="7.298853406682611">
        <ele>2035.73</ele>
        <time>2016-07-08T13:08:55Z</time>
      </trkpt>
      <trkpt lat="45.878758393228054" lon="7.298763217404485">
        <ele>2035.25</ele>
        <time>2016-07-08T13:09:07Z</time>
      </trkpt>
      <trkpt lat="45.878614811226726" lon="7.298658695071936">
        <ele>2034.29</ele>
        <time>2016-07-08T13:09:20Z</time>
      </trkpt>
      <trkpt lat="45.878453543409705" lon="7.298524249345064">
        <ele>2033.3299999999999</ele>
        <time>2016-07-08T13:09:35Z</time>
      </trkpt>
      <trkpt lat="45.878318510949612" lon="7.298410255461931">
        <ele>2033.3299999999999</ele>
        <time>2016-07-08T13:09:48Z</time>
      </trkpt>
      <trkpt lat="45.878177024424076" lon="7.298244126141071">
        <ele>2031.8800000000001</ele>
        <time>2016-07-08T13:10:03Z</time>
      </trkpt>
      <trkpt lat="45.878058588132262" lon="7.298072213307023">
        <ele>2031.4000000000001</ele>
        <time>2016-07-08T13:10:16Z</time>
      </trkpt>
      <trkpt lat="45.877945348620415" lon="7.297899881377816">
        <ele>2030.9200000000001</ele>
        <time>2016-07-08T13:10:29Z</time>
      </trkpt>
      <trkpt lat="45.877815680578351" lon="7.297751186415553">
        <ele>2030.4400000000001</ele>
        <time>2016-07-08T13:10:43Z</time>
      </trkpt>
      <trkpt lat="45.877705123275518" lon="7.297613471746445">
        <ele>2030.4400000000001</ele>
        <time>2016-07-08T13:10:56Z</time>
      </trkpt>
      <trkpt lat="45.877593979239464" lon="7.297447258606553">
        <ele>2029</ele>
        <time>2016-07-08T13:11:09Z</time>
      </trkpt>
      <trkpt lat="45.877485852688551" lon="7.297280542552471">
        <ele>2028.04</ele>
        <time>2016-07-08T13:11:22Z</time>
      </trkpt>
      <trkpt lat="45.877338331192732" lon="7.29712950065732">
        <ele>2026.5999999999999</ele>
        <time>2016-07-08T13:11:37Z</time>
      </trkpt>
      <trkpt lat="45.877175554633141" lon="7.29697410017252">
        <ele>2025.6400000000001</ele>
        <time>2016-07-08T13:11:52Z</time>
      </trkpt>
      <trkpt lat="45.877028703689575" lon="7.29680017568171">
        <ele>2024.6700000000001</ele>
        <time>2016-07-08T13:12:07Z</time>
      </trkpt>
      <trkpt lat="45.876904567703605" lon="7.296630023047328">
        <ele>2022.75</ele>
        <time>2016-07-08T13:12:20Z</time>
      </trkpt>
      <trkpt lat="45.876807169988751" lon="7.296490464359522">
        <ele>2021.79</ele>
        <time>2016-07-08T13:12:31Z</time>
      </trkpt>
      <trkpt lat="45.876661576330662" lon="7.296330537647009">
        <ele>2019.8699999999999</ele>
        <time>2016-07-08T13:12:45Z</time>
      </trkpt>
      <trkpt lat="45.876516150310636" lon="7.296183938160539">
        <ele>2018.9100000000001</ele>
        <time>2016-07-08T13:12:58Z</time>
      </trkpt>
      <trkpt lat="45.876362761482596" lon="7.295958800241351">
        <ele>2016.5</ele>
        <time>2016-07-08T13:13:14Z</time>
      </trkpt>
      <trkpt lat="45.876256981864572" lon="7.29577942751348">
        <ele>2014.5799999999999</ele>
        <time>2016-07-08T13:13:27Z</time>
      </trkpt>
      <trkpt lat="45.87612203322351" lon="7.295538866892457">
        <ele>2012.1800000000001</ele>
        <time>2016-07-08T13:13:43Z</time>
      </trkpt>
      <trkpt lat="45.876043997704983" lon="7.295376593247056">
        <ele>2010.73</ele>
        <time>2016-07-08T13:13:53Z</time>
      </trkpt>
      <trkpt lat="45.875958250835538" lon="7.295138044282794">
        <ele>2009.29</ele>
        <time>2016-07-08T13:14:07Z</time>
      </trkpt>
      <trkpt lat="45.875867810100317" lon="7.294876361265779">
        <ele>2006.8900000000001</ele>
        <time>2016-07-08T13:14:22Z</time>
      </trkpt>
      <trkpt lat="45.875782230868936" lon="7.294585090130568">
        <ele>2004.97</ele>
        <time>2016-07-08T13:14:39Z</time>
      </trkpt>
      <trkpt lat="45.875746943056583" lon="7.29443421587348">
        <ele>2003.04</ele>
        <time>2016-07-08T13:14:47Z</time>
      </trkpt>
      <trkpt lat="45.875729843974113" lon="7.29421284981072">
        <ele>2003.04</ele>
        <time>2016-07-08T13:14:59Z</time>
      </trkpt>
      <trkpt lat="45.875724060460925" lon="7.294093742966652">
        <ele>2003.04</ele>
        <time>2016-07-08T13:15:06Z</time>
      </trkpt>
      <trkpt lat="45.875734789296985" lon="7.293886039406061">
        <ele>2002.0799999999999</ele>
        <time>2016-07-08T13:15:17Z</time>
      </trkpt>
      <trkpt lat="45.875806454569101" lon="7.293631648644805">
        <ele>2000.6400000000001</ele>
        <time>2016-07-08T13:15:32Z</time>
      </trkpt>
      <trkpt lat="45.875835288316011" lon="7.293521761894226">
        <ele>2000.1600000000001</ele>
        <time>2016-07-08T13:15:38Z</time>
      </trkpt>
      <trkpt lat="45.875910725444555" lon="7.293303161859512">
        <ele>1999.6800000000001</ele>
        <time>2016-07-08T13:15:51Z</time>
      </trkpt>
      <trkpt lat="45.875992616638541" lon="7.293083053082228">
        <ele>1998.72</ele>
        <time>2016-07-08T13:16:05Z</time>
      </trkpt>
      <trkpt lat="45.876072915270925" lon="7.292864620685577">
        <ele>1997.76</ele>
        <time>2016-07-08T13:16:18Z</time>
      </trkpt>
      <trkpt lat="45.876146759837866" lon="7.292662281543016">
        <ele>1996.8</ele>
        <time>2016-07-08T13:16:30Z</time>
      </trkpt>
      <trkpt lat="45.876244744285941" lon="7.292446363717318">
        <ele>1995.8299999999999</ele>
        <time>2016-07-08T13:16:44Z</time>
      </trkpt>
      <trkpt lat="45.876322444528341" lon="7.29225299321115">
        <ele>1995.8299999999999</ele>
        <time>2016-07-08T13:16:56Z</time>
      </trkpt>
      <trkpt lat="45.876396456733346" lon="7.292089629918337">
        <ele>1995.3499999999999</ele>
        <time>2016-07-08T13:17:07Z</time>
      </trkpt>
      <trkpt lat="45.876450352370739" lon="7.291917130351067">
        <ele>1995.3499999999999</ele>
        <time>2016-07-08T13:17:18Z</time>
      </trkpt>
      <trkpt lat="45.876516737043858" lon="7.291702050715685">
        <ele>1995.3499999999999</ele>
        <time>2016-07-08T13:17:31Z</time>
      </trkpt>
      <trkpt lat="45.876599550247192" lon="7.291475320234895">
        <ele>1996.3199999999999</ele>
        <time>2016-07-08T13:17:47Z</time>
      </trkpt>
      <trkpt lat="45.876614553853869" lon="7.291433662176132">
        <ele>1996.3199999999999</ele>
        <time>2016-07-08T13:17:50Z</time>
      </trkpt>
      <trkpt lat="45.876625617966056" lon="7.291388986632228">
        <ele>1996.8</ele>
        <time>2016-07-08T13:17:53Z</time>
      </trkpt>
      <trkpt lat="45.876691080629826" lon="7.291250936686993">
        <ele>1997.76</ele>
        <time>2016-07-08T13:18:03Z</time>
      </trkpt>
      <trkpt lat="45.876737348735332" lon="7.291160495951772">
        <ele>1997.76</ele>
        <time>2016-07-08T13:18:10Z</time>
      </trkpt>
      <trkpt lat="45.876781437546015" lon="7.29106804355979">
        <ele>1998.72</ele>
        <time>2016-07-08T13:18:17Z</time>
      </trkpt>
      <trkpt lat="45.87683935649693" lon="7.290960587561131">
        <ele>1999.2</ele>
        <time>2016-07-08T13:18:26Z</time>
      </trkpt>
      <trkpt lat="45.876898113638163" lon="7.290848437696695">
        <ele>2000.1600000000001</ele>
        <time>2016-07-08T13:18:35Z</time>
      </trkpt>
      <trkpt lat="45.876915464177728" lon="7.290812898427248">
        <ele>2000.6400000000001</ele>
        <time>2016-07-08T13:18:38Z</time>
      </trkpt>
      <trkpt lat="45.87694781832397" lon="7.290767971426249">
        <ele>2001.1199999999999</ele>
        <time>2016-07-08T13:18:42Z</time>
      </trkpt>
      <trkpt lat="45.876966845244169" lon="7.29072991758585">
        <ele>2001.1199999999999</ele>
        <time>2016-07-08T13:18:45Z</time>
      </trkpt>
      <trkpt lat="45.876990230754018" lon="7.290678368881345">
        <ele>2001.5999999999999</ele>
        <time>2016-07-08T13:18:49Z</time>
      </trkpt>
      <trkpt lat="45.877008251845837" lon="7.29065615683794">
        <ele>2001.5999999999999</ele>
        <time>2016-07-08T13:18:51Z</time>
      </trkpt>
      <trkpt lat="45.877029122784734" lon="7.290620869025588">
        <ele>2002.0799999999999</ele>
        <time>2016-07-08T13:18:54Z</time>
      </trkpt>
      <trkpt lat="45.877083521336317" lon="7.290540570393205">
        <ele>2002.5599999999999</ele>
        <time>2016-07-08T13:19:01Z</time>
      </trkpt>
      <trkpt lat="45.877148061990738" lon="7.290469324216247">
        <ele>2002.5599999999999</ele>
        <time>2016-07-08T13:19:08Z</time>
      </trkpt>
      <trkpt lat="45.877211932092905" lon="7.290402688086033">
        <ele>2003.52</ele>
        <time>2016-07-08T13:19:15Z</time>
      </trkpt>
      <trkpt lat="45.877226600423455" lon="7.290388103574514">
        <ele>2003.52</ele>
        <time>2016-07-08T13:19:17Z</time>
      </trkpt>
      <trkpt lat="45.877256523817778" lon="7.29035415686667">
        <ele>2004.01</ele>
        <time>2016-07-08T13:19:21Z</time>
      </trkpt>
      <trkpt lat="45.877335062250495" lon="7.290256172418594">
        <ele>2004.01</ele>
        <time>2016-07-08T13:19:30Z</time>
      </trkpt>
      <trkpt lat="45.877394741401076" lon="7.290189117193222">
        <ele>2004.97</ele>
        <time>2016-07-08T13:19:37Z</time>
      </trkpt>
      <trkpt lat="45.877448301762342" lon="7.29012306779623">
        <ele>2005.45</ele>
        <time>2016-07-08T13:19:44Z</time>
      </trkpt>
      <trkpt lat="45.877502365037799" lon="7.290039835497737">
        <ele>2006.4100000000001</ele>
        <time>2016-07-08T13:19:51Z</time>
      </trkpt>
      <trkpt lat="45.877527175471187" lon="7.290015947073698">
        <ele>2006.8900000000001</ele>
        <time>2016-07-08T13:19:54Z</time>
      </trkpt>
      <trkpt lat="45.877582663670182" lon="7.289944281801581">
        <ele>2006.8900000000001</ele>
        <time>2016-07-08T13:20:01Z</time>
      </trkpt>
      <trkpt lat="45.877637565135956" lon="7.28989290073514">
        <ele>2007.3699999999999</ele>
        <time>2016-07-08T13:20:07Z</time>
      </trkpt>
      <trkpt lat="45.877704452723265" lon="7.289824169129133">
        <ele>2007.3699999999999</ele>
        <time>2016-07-08T13:20:14Z</time>
      </trkpt>
      <trkpt lat="45.877723479643464" lon="7.289811093360186">
        <ele>2007.8499999999999</ele>
        <time>2016-07-08T13:20:16Z</time>
      </trkpt>
      <trkpt lat="45.877767903730273" lon="7.289777649566531">
        <ele>2007.8499999999999</ele>
        <time>2016-07-08T13:20:21Z</time>
      </trkpt>
      <trkpt lat="45.877819787710905" lon="7.289704224094749">
        <ele>2008.3299999999999</ele>
        <time>2016-07-08T13:20:27Z</time>
      </trkpt>
      <trkpt lat="45.877853063866496" lon="7.289635827764869">
        <ele>2008.8099999999999</ele>
        <time>2016-07-08T13:20:33Z</time>
      </trkpt>
      <trkpt lat="45.877882987260818" lon="7.289507752284408">
        <ele>2009.77</ele>
        <time>2016-07-08T13:20:43Z</time>
      </trkpt>
      <trkpt lat="45.877879802137613" lon="7.28949417360127">
        <ele>2009.77</ele>
        <time>2016-07-08T13:20:44Z</time>
      </trkpt>
      <trkpt lat="45.87787477299571" lon="7.289397781714797">
        <ele>2010.25</ele>
        <time>2016-07-08T13:20:50Z</time>
      </trkpt>
      <trkpt lat="45.877857841551304" lon="7.289305664598942">
        <ele>2010.73</ele>
        <time>2016-07-08T13:20:56Z</time>
      </trkpt>
      <trkpt lat="45.877868989482522" lon="7.289219917729497">
        <ele>2011.22</ele>
        <time>2016-07-08T13:21:01Z</time>
      </trkpt>
      <trkpt lat="45.877878041937947" lon="7.289098631590605">
        <ele>2011.7</ele>
        <time>2016-07-08T13:21:10Z</time>
      </trkpt>
      <trkpt lat="45.877891033887863" lon="7.289046663790941">
        <ele>2011.7</ele>
        <time>2016-07-08T13:21:14Z</time>
      </trkpt>
      <trkpt lat="45.877907378599048" lon="7.288985140621662">
        <ele>2011.7</ele>
        <time>2016-07-08T13:21:19Z</time>
      </trkpt>
      <trkpt lat="45.877961944788694" lon="7.288850108161569">
        <ele>2012.1800000000001</ele>
        <time>2016-07-08T13:21:29Z</time>
      </trkpt>
      <trkpt lat="45.877982815727592" lon="7.288797050714493">
        <ele>2012.1800000000001</ele>
        <time>2016-07-08T13:21:33Z</time>
      </trkpt>
      <trkpt lat="45.878016846254468" lon="7.288689091801643">
        <ele>2012.6600000000001</ele>
        <time>2016-07-08T13:21:40Z</time>
      </trkpt>
      <trkpt lat="45.87807116098702" lon="7.288564285263419">
        <ele>2012.6600000000001</ele>
        <time>2016-07-08T13:21:49Z</time>
      </trkpt>
      <trkpt lat="45.878155063837767" lon="7.288433024659753">
        <ele>2013.1400000000001</ele>
        <time>2016-07-08T13:22:00Z</time>
      </trkpt>
      <trkpt lat="45.878165541216731" lon="7.288422547280788">
        <ele>2013.1400000000001</ele>
        <time>2016-07-08T13:22:01Z</time>
      </trkpt>
      <trkpt lat="45.878249946981668" lon="7.288316348567605">
        <ele>2013.1400000000001</ele>
        <time>2016-07-08T13:22:11Z</time>
      </trkpt>
      <trkpt lat="45.87825883179903" lon="7.28830779902637">
        <ele>2013.6199999999999</ele>
        <time>2016-07-08T13:22:12Z</time>
      </trkpt>
      <trkpt lat="45.878285737708211" lon="7.288280557841063">
        <ele>2013.6199999999999</ele>
        <time>2016-07-08T13:22:15Z</time>
      </trkpt>
      <trkpt lat="45.878344662487507" lon="7.288193888962269">
        <ele>2014.0999999999999</ele>
        <time>2016-07-08T13:22:22Z</time>
      </trkpt>
      <trkpt lat="45.87840735912323" lon="7.288131779059768">
        <ele>2014.0999999999999</ele>
        <time>2016-07-08T13:22:29Z</time>
      </trkpt>
      <trkpt lat="45.87841515429318" lon="7.288123061880469">
        <ele>2014.5799999999999</ele>
        <time>2016-07-08T13:22:30Z</time>
      </trkpt>
      <trkpt lat="45.878475252538919" lon="7.288064556196332">
        <ele>2014.5799999999999</ele>
        <time>2016-07-08T13:22:36Z</time>
      </trkpt>
      <trkpt lat="45.878495536744595" lon="7.288042763248086">
        <ele>2015.0599999999999</ele>
        <time>2016-07-08T13:22:38Z</time>
      </trkpt>
      <trkpt lat="45.878524035215378" lon="7.287993393838406">
        <ele>2015.0599999999999</ele>
        <time>2016-07-08T13:22:42Z</time>
      </trkpt>
      <trkpt lat="45.878554880619049" lon="7.287965146824718">
        <ele>2015.0599999999999</ele>
        <time>2016-07-08T13:22:45Z</time>
      </trkpt>
      <trkpt lat="45.878600645810366" lon="7.287904880940914">
        <ele>2015.0599999999999</ele>
        <time>2016-07-08T13:22:50Z</time>
      </trkpt>
      <trkpt lat="45.87861305102706" lon="7.287879316136241">
        <ele>2015.0599999999999</ele>
        <time>2016-07-08T13:22:52Z</time>
      </trkpt>
      <trkpt lat="45.878636939451098" lon="7.287821983918548">
        <ele>2015.0599999999999</ele>
        <time>2016-07-08T13:22:57Z</time>
      </trkpt>
      <trkpt lat="45.878641214221716" lon="7.287737242877483">
        <ele>2015.54</ele>
        <time>2016-07-08T13:23:06Z</time>
      </trkpt>
      <trkpt lat="45.878631491214037" lon="7.287739589810371">
        <ele>2015.0599999999999</ele>
        <time>2016-07-08T13:23:11Z</time>
      </trkpt>
      <trkpt lat="45.878535602241755" lon="7.287603467702866">
        <ele>2014.5799999999999</ele>
        <time>2016-07-08T13:23:23Z</time>
      </trkpt>
      <trkpt lat="45.878374082967639" lon="7.287475727498531">
        <ele>2014.5799999999999</ele>
        <time>2016-07-08T13:23:39Z</time>
      </trkpt>
      <trkpt lat="45.878348685801029" lon="7.287448905408382">
        <ele>2014.5799999999999</ele>
        <time>2016-07-08T13:23:42Z</time>
      </trkpt>
      <trkpt lat="45.878194207325578" lon="7.287347400560975">
        <ele>2013.6199999999999</ele>
        <time>2016-07-08T13:23:57Z</time>
      </trkpt>
      <trkpt lat="45.878041991963983" lon="7.2873823530972">
        <ele>2013.6199999999999</ele>
        <time>2016-07-08T13:24:12Z</time>
      </trkpt>
      <trkpt lat="45.877934200689197" lon="7.287531550973654">
        <ele>2013.1400000000001</ele>
        <time>2016-07-08T13:24:25Z</time>
      </trkpt>
      <trkpt lat="45.877821715548635" lon="7.28772240690887">
        <ele>2012.1800000000001</ele>
        <time>2016-07-08T13:24:40Z</time>
      </trkpt>
      <trkpt lat="45.877733286470175" lon="7.287882585078478">
        <ele>2011.7</ele>
        <time>2016-07-08T13:24:53Z</time>
      </trkpt>
      <trkpt lat="45.877599008381367" lon="7.288054162636399">
        <ele>2010.25</ele>
        <time>2016-07-08T13:25:08Z</time>
      </trkpt>
      <trkpt lat="45.877466993406415" lon="7.28820076212287">
        <ele>2009.29</ele>
        <time>2016-07-08T13:25:22Z</time>
      </trkpt>
      <trkpt lat="45.877354172989726" lon="7.288307882845402">
        <ele>2008.8099999999999</ele>
        <time>2016-07-08T13:25:33Z</time>
      </trkpt>
      <trkpt lat="45.877209920436144" lon="7.288314253091812">
        <ele>2008.8099999999999</ele>
        <time>2016-07-08T13:25:44Z</time>
      </trkpt>
      <trkpt lat="45.877107745036483" lon="7.288121720775962">
        <ele>2009.29</ele>
        <time>2016-07-08T13:25:58Z</time>
      </trkpt>
      <trkpt lat="45.877105817198753" lon="7.288087522611022">
        <ele>2009.29</ele>
        <time>2016-07-08T13:26:00Z</time>
      </trkpt>
      <trkpt lat="45.877098860219121" lon="7.288003703579307">
        <ele>2009.77</ele>
        <time>2016-07-08T13:26:05Z</time>
      </trkpt>
      <trkpt lat="45.877083605155349" lon="7.287867832928896">
        <ele>2010.25</ele>
        <time>2016-07-08T13:26:13Z</time>
      </trkpt>
      <trkpt lat="45.877074049785733" lon="7.287705894559622">
        <ele>2010.73</ele>
        <time>2016-07-08T13:26:23Z</time>
      </trkpt>
      <trkpt lat="45.877067428082228" lon="7.287544375285506">
        <ele>2011.7</ele>
        <time>2016-07-08T13:26:34Z</time>
      </trkpt>
      <trkpt lat="45.877068433910608" lon="7.287527108564973">
        <ele>2011.7</ele>
        <time>2016-07-08T13:26:35Z</time>
      </trkpt>
      <trkpt lat="45.87706801481545" lon="7.287386376410723">
        <ele>2012.6600000000001</ele>
        <time>2016-07-08T13:26:44Z</time>
      </trkpt>
      <trkpt lat="45.877076983451843" lon="7.287301467731595">
        <ele>2012.6600000000001</ele>
        <time>2016-07-08T13:26:49Z</time>
      </trkpt>
      <trkpt lat="45.877102548256516" lon="7.287099128589034">
        <ele>2013.1400000000001</ele>
        <time>2016-07-08T13:27:01Z</time>
      </trkpt>
      <trkpt lat="45.877152755856514" lon="7.286878516897559">
        <ele>2013.1400000000001</ele>
        <time>2016-07-08T13:27:14Z</time>
      </trkpt>
      <trkpt lat="45.87719701230526" lon="7.286645164713264">
        <ele>2013.1400000000001</ele>
        <time>2016-07-08T13:27:28Z</time>
      </trkpt>
      <trkpt lat="45.877230120822787" lon="7.286413153633475">
        <ele>2013.6199999999999</ele>
        <time>2016-07-08T13:27:42Z</time>
      </trkpt>
      <trkpt lat="45.877227606251836" lon="7.2861632052809">
        <ele>2013.6199999999999</ele>
        <time>2016-07-08T13:27:56Z</time>
      </trkpt>
      <trkpt lat="45.877220733091235" lon="7.28590177372098">
        <ele>2012.6600000000001</ele>
        <time>2016-07-08T13:28:11Z</time>
      </trkpt>
      <trkpt lat="45.877218721434474" lon="7.285868329927325">
        <ele>2012.6600000000001</ele>
        <time>2016-07-08T13:28:13Z</time>
      </trkpt>
      <trkpt lat="45.877181254327297" lon="7.285681162029505">
        <ele>2012.1800000000001</ele>
        <time>2016-07-08T13:28:25Z</time>
      </trkpt>
      <trkpt lat="45.877104895189404" lon="7.28572784923017">
        <ele>2012.1800000000001</ele>
        <time>2016-07-08T13:28:34Z</time>
      </trkpt>
      <trkpt lat="45.877015879377723" lon="7.285832455381751">
        <ele>2012.1800000000001</ele>
        <time>2016-07-08T13:28:46Z</time>
      </trkpt>
      <trkpt lat="45.876983860507607" lon="7.285870425403118">
        <ele>2012.6600000000001</ele>
        <time>2016-07-08T13:28:50Z</time>
      </trkpt>
      <trkpt lat="45.876878164708614" lon="7.286007385700941">
        <ele>2012.1800000000001</ele>
        <time>2016-07-08T13:29:03Z</time>
      </trkpt>
      <trkpt lat="45.876829968765378" lon="7.286073435097933">
        <ele>2012.1800000000001</ele>
        <time>2016-07-08T13:29:09Z</time>
      </trkpt>
      <trkpt lat="45.8767821919173" lon="7.286123223602772">
        <ele>2012.1800000000001</ele>
        <time>2016-07-08T13:29:14Z</time>
      </trkpt>
      <trkpt lat="45.876677669584751" lon="7.28625507093966">
        <ele>2012.1800000000001</ele>
        <time>2016-07-08T13:29:26Z</time>
      </trkpt>
      <trkpt lat="45.876569878309965" lon="7.286353390663862">
        <ele>2011.7</ele>
        <time>2016-07-08T13:29:37Z</time>
      </trkpt>
      <trkpt lat="45.876427888870239" lon="7.286524381488562">
        <ele>2011.7</ele>
        <time>2016-07-08T13:29:52Z</time>
      </trkpt>
      <trkpt lat="45.876317331567407" lon="7.286666035652161">
        <ele>2011.22</ele>
        <time>2016-07-08T13:30:05Z</time>
      </trkpt>
      <trkpt lat="45.876195458695292" lon="7.286598812788725">
        <ele>2011.22</ele>
        <time>2016-07-08T13:30:16Z</time>
      </trkpt>
      <trkpt lat="45.876158243045211" lon="7.286398066207767">
        <ele>2009.77</ele>
        <time>2016-07-08T13:30:28Z</time>
      </trkpt>
      <trkpt lat="45.876171151176095" lon="7.286139065399766">
        <ele>2008.3299999999999</ele>
        <time>2016-07-08T13:30:42Z</time>
      </trkpt>
      <trkpt lat="45.876165870577097" lon="7.285932870581746">
        <ele>2006.8900000000001</ele>
        <time>2016-07-08T13:30:54Z</time>
      </trkpt>
      <trkpt lat="45.876075597479939" lon="7.285718712955713">
        <ele>2006.4100000000001</ele>
        <time>2016-07-08T13:31:08Z</time>
      </trkpt>
      <trkpt lat="45.876002507284284" lon="7.285523749887943">
        <ele>2005.9300000000001</ele>
        <time>2016-07-08T13:31:20Z</time>
      </trkpt>
      <trkpt lat="45.875945510342717" lon="7.285303389653564">
        <ele>2005.45</ele>
        <time>2016-07-08T13:31:33Z</time>
      </trkpt>
      <trkpt lat="45.875887088477612" lon="7.285096608102322">
        <ele>2004.49</ele>
        <time>2016-07-08T13:31:46Z</time>
      </trkpt>
      <trkpt lat="45.875737387686968" lon="7.284986637532711">
        <ele>2003.52</ele>
        <time>2016-07-08T13:32:00Z</time>
      </trkpt>
      <trkpt lat="45.875677205622196" lon="7.284981943666935">
        <ele>2003.52</ele>
        <time>2016-07-08T13:32:05Z</time>
      </trkpt>
      <trkpt lat="45.875558769330382" lon="7.28507305495441">
        <ele>2003.04</ele>
        <time>2016-07-08T13:32:18Z</time>
      </trkpt>
      <trkpt lat="45.875529767945409" lon="7.285209009423852">
        <ele>2003.04</ele>
        <time>2016-07-08T13:32:27Z</time>
      </trkpt>
      <trkpt lat="45.875530103221536" lon="7.285272544249892">
        <ele>2002.5599999999999</ele>
        <time>2016-07-08T13:32:31Z</time>
      </trkpt>
      <trkpt lat="45.87551224976778" lon="7.285401793196797">
        <ele>2001.1199999999999</ele>
        <time>2016-07-08T13:32:39Z</time>
      </trkpt>
      <trkpt lat="45.875489031895995" lon="7.285514362156391">
        <ele>2000.6400000000001</ele>
        <time>2016-07-08T13:32:46Z</time>
      </trkpt>
      <trkpt lat="45.875465227290988" lon="7.285740841180086">
        <ele>1999.2</ele>
        <time>2016-07-08T13:32:59Z</time>
      </trkpt>
      <trkpt lat="45.875434800982475" lon="7.285895235836506">
        <ele>1998.24</ele>
        <time>2016-07-08T13:33:08Z</time>
      </trkpt>
      <trkpt lat="45.875433543697" lon="7.285986682400107">
        <ele>1997.28</ele>
        <time>2016-07-08T13:33:13Z</time>
      </trkpt>
      <trkpt lat="45.875426502898335" lon="7.286043846979737">
        <ele>1996.8</ele>
        <time>2016-07-08T13:33:16Z</time>
      </trkpt>
      <trkpt lat="45.875415187329054" lon="7.286189524456859">
        <ele>1995.8299999999999</ele>
        <time>2016-07-08T13:33:24Z</time>
      </trkpt>
      <trkpt lat="45.875410744920373" lon="7.286269320175052">
        <ele>1995.3499999999999</ele>
        <time>2016-07-08T13:33:28Z</time>
      </trkpt>
      <trkpt lat="45.875407559797168" lon="7.286346768960357">
        <ele>1994.8699999999999</ele>
        <time>2016-07-08T13:33:32Z</time>
      </trkpt>
      <trkpt lat="45.875396160408854" lon="7.28645347058773">
        <ele>1993.9100000000001</ele>
        <time>2016-07-08T13:33:38Z</time>
      </trkpt>
      <trkpt lat="45.875343773514032" lon="7.28669436648488">
        <ele>1991.99</ele>
        <time>2016-07-08T13:33:51Z</time>
      </trkpt>
      <trkpt lat="45.875336984172463" lon="7.28674465790391">
        <ele>1991.03</ele>
        <time>2016-07-08T13:33:54Z</time>
      </trkpt>
      <trkpt lat="45.875313263386488" lon="7.286809869110584">
        <ele>1990.55</ele>
        <time>2016-07-08T13:33:58Z</time>
      </trkpt>
      <trkpt lat="45.875232880935073" lon="7.287018243223429">
        <ele>1988.6199999999999</ele>
        <time>2016-07-08T13:34:11Z</time>
      </trkpt>
      <trkpt lat="45.87522785179317" lon="7.287038192152977">
        <ele>1988.1400000000001</ele>
        <time>2016-07-08T13:34:12Z</time>
      </trkpt>
      <trkpt lat="45.875224247574806" lon="7.287101810798049">
        <ele>1987.6600000000001</ele>
        <time>2016-07-08T13:34:16Z</time>
      </trkpt>
      <trkpt lat="45.875187702476978" lon="7.287159143015742">
        <ele>1986.7</ele>
        <time>2016-07-08T13:34:20Z</time>
      </trkpt>
      <trkpt lat="45.875154677778482" lon="7.287274142727256">
        <ele>1985.74</ele>
        <time>2016-07-08T13:34:27Z</time>
      </trkpt>
      <trkpt lat="45.875140344724059" lon="7.287447061389685">
        <ele>1984.3</ele>
        <time>2016-07-08T13:34:37Z</time>
      </trkpt>
      <trkpt lat="45.875042611733079" lon="7.287596175447106">
        <ele>1982.3800000000001</ele>
        <time>2016-07-08T13:34:48Z</time>
      </trkpt>
      <trkpt lat="45.874890480190516" lon="7.287787031382322">
        <ele>1980.45</ele>
        <time>2016-07-08T13:35:03Z</time>
      </trkpt>
      <trkpt lat="45.874867010861635" lon="7.287811506539583">
        <ele>1979.97</ele>
        <time>2016-07-08T13:35:06Z</time>
      </trkpt>
      <trkpt lat="45.874694008380175" lon="7.287829192355275">
        <ele>1978.53</ele>
        <time>2016-07-08T13:35:20Z</time>
      </trkpt>
      <trkpt lat="45.874553695321083" lon="7.287749983370304">
        <ele>1977.0899999999999</ele>
        <time>2016-07-08T13:35:32Z</time>
      </trkpt>
      <trkpt lat="45.874392176046968" lon="7.287666331976652">
        <ele>1975.1700000000001</ele>
        <time>2016-07-08T13:35:46Z</time>
      </trkpt>
      <trkpt lat="45.874205846339464" lon="7.287626769393683">
        <ele>1974.2</ele>
        <time>2016-07-08T13:36:01Z</time>
      </trkpt>
      <trkpt lat="45.874033765867352" lon="7.287706062197685">
        <ele>1972.76</ele>
        <time>2016-07-08T13:36:16Z</time>
      </trkpt>
      <trkpt lat="45.873951371759176" lon="7.287818966433406">
        <ele>1972.28</ele>
        <time>2016-07-08T13:36:26Z</time>
      </trkpt>
      <trkpt lat="45.87392614223063" lon="7.287940504029393">
        <ele>1971.8</ele>
        <time>2016-07-08T13:36:33Z</time>
      </trkpt>
      <trkpt lat="45.873899487778544" lon="7.288080733269453">
        <ele>1970.8399999999999</ele>
        <time>2016-07-08T13:36:41Z</time>
      </trkpt>
      <trkpt lat="45.87378348223865" lon="7.288288520649076">
        <ele>1969.4000000000001</ele>
        <time>2016-07-08T13:36:56Z</time>
      </trkpt>
      <trkpt lat="45.873672170564532" lon="7.288462864235044">
        <ele>1967.48</ele>
        <time>2016-07-08T13:37:09Z</time>
      </trkpt>
      <trkpt lat="45.873573599383235" lon="7.288659755140543">
        <ele>1965.55</ele>
        <time>2016-07-08T13:37:23Z</time>
      </trkpt>
      <trkpt lat="45.873465472832322" lon="7.288895957171917">
        <ele>1963.6300000000001</ele>
        <time>2016-07-08T13:37:39Z</time>
      </trkpt>
      <trkpt lat="45.873347371816635" lon="7.289111372083426">
        <ele>1961.71</ele>
        <time>2016-07-08T13:37:54Z</time>
      </trkpt>
      <trkpt lat="45.873206052929163" lon="7.289232993498445">
        <ele>1960.27</ele>
        <time>2016-07-08T13:38:07Z</time>
      </trkpt>
      <trkpt lat="45.873050233349204" lon="7.289304407313466">
        <ele>1958.8199999999999</ele>
        <time>2016-07-08T13:38:20Z</time>
      </trkpt>
      <trkpt lat="45.872890222817659" lon="7.289423597976565">
        <ele>1956.9000000000001</ele>
        <time>2016-07-08T13:38:34Z</time>
      </trkpt>
      <trkpt lat="45.872774217277765" lon="7.289497945457697">
        <ele>1955.9400000000001</ele>
        <time>2016-07-08T13:38:45Z</time>
      </trkpt>
      <trkpt lat="45.872620828449726" lon="7.28961294516921">
        <ele>1954.5</ele>
        <time>2016-07-08T13:38:58Z</time>
      </trkpt>
      <trkpt lat="45.872478000819683" lon="7.289734315127134">
        <ele>1953.0599999999999</ele>
        <time>2016-07-08T13:39:11Z</time>
      </trkpt>
      <trkpt lat="45.872340202331543" lon="7.289841268211603">
        <ele>1952.0899999999999</ele>
        <time>2016-07-08T13:39:24Z</time>
      </trkpt>
      <trkpt lat="45.872305501252413" lon="7.28987580165267">
        <ele>1952.0899999999999</ele>
        <time>2016-07-08T13:39:28Z</time>
      </trkpt>
      <trkpt lat="45.8721490111202" lon="7.290072105824947">
        <ele>1951.6099999999999</ele>
        <time>2016-07-08T13:39:43Z</time>
      </trkpt>
      <trkpt lat="45.872052954509854" lon="7.290155589580536">
        <ele>1951.6099999999999</ele>
        <time>2016-07-08T13:39:53Z</time>
      </trkpt>
      <trkpt lat="45.871937619522214" lon="7.290220046415925">
        <ele>1952.0899999999999</ele>
        <time>2016-07-08T13:40:05Z</time>
      </trkpt>
      <trkpt lat="45.871782805770636" lon="7.290298501029611">
        <ele>1952.5699999999999</ele>
        <time>2016-07-08T13:40:19Z</time>
      </trkpt>
      <trkpt lat="45.871673421934247" lon="7.290381481871009">
        <ele>1953.0599999999999</ele>
        <time>2016-07-08T13:40:29Z</time>
      </trkpt>
      <trkpt lat="45.871563283726573" lon="7.290476197376847">
        <ele>1954.02</ele>
        <time>2016-07-08T13:40:39Z</time>
      </trkpt>
      <trkpt lat="45.871441746130586" lon="7.290570745244622">
        <ele>1955.46</ele>
        <time>2016-07-08T13:40:50Z</time>
      </trkpt>
      <trkpt lat="45.871366476640105" lon="7.290613744407892">
        <ele>1955.46</ele>
        <time>2016-07-08T13:40:59Z</time>
      </trkpt>
      <trkpt lat="45.871266648173332" lon="7.290704688057303">
        <ele>1956.4200000000001</ele>
        <time>2016-07-08T13:41:10Z</time>
      </trkpt>
      <trkpt lat="45.871182661503553" lon="7.290830668061972">
        <ele>1957.3800000000001</ele>
        <time>2016-07-08T13:41:21Z</time>
      </trkpt>
      <trkpt lat="45.871108062565327" lon="7.290948936715722">
        <ele>1957.8599999999999</ele>
        <time>2016-07-08T13:41:30Z</time>
      </trkpt>
      <trkpt lat="45.87099683471024" lon="7.291051195934415">
        <ele>1957.8599999999999</ele>
        <time>2016-07-08T13:41:41Z</time>
      </trkpt>
      <trkpt lat="45.870872363448143" lon="7.291193939745426">
        <ele>1957.8599999999999</ele>
        <time>2016-07-08T13:41:54Z</time>
      </trkpt>
      <trkpt lat="45.870747389271855" lon="7.291349424049258">
        <ele>1957.3800000000001</ele>
        <time>2016-07-08T13:42:07Z</time>
      </trkpt>
      <trkpt lat="45.870626103132963" lon="7.291462244465947">
        <ele>1956.4200000000001</ele>
        <time>2016-07-08T13:42:19Z</time>
      </trkpt>
      <trkpt lat="45.870592156425118" lon="7.291490575298667">
        <ele>1955.9400000000001</ele>
        <time>2016-07-08T13:42:22Z</time>
      </trkpt>
      <trkpt lat="45.870419824495912" lon="7.291590822860599">
        <ele>1954.5</ele>
        <time>2016-07-08T13:42:38Z</time>
      </trkpt>
      <trkpt lat="45.870295353233814" lon="7.291705906391144">
        <ele>1954.5</ele>
        <time>2016-07-08T13:42:48Z</time>
      </trkpt>
      <trkpt lat="45.870163505896926" lon="7.291833143681288">
        <ele>1954.02</ele>
        <time>2016-07-08T13:43:00Z</time>
      </trkpt>
      <trkpt lat="45.8700992166996" lon="7.292002290487289">
        <ele>1954.5</ele>
        <time>2016-07-08T13:43:11Z</time>
      </trkpt>
      <trkpt lat="45.870035933330655" lon="7.292132712900639">
        <ele>1954.98</ele>
        <time>2016-07-08T13:43:21Z</time>
      </trkpt>
      <trkpt lat="45.869960999116302" lon="7.292224410921335">
        <ele>1955.9400000000001</ele>
        <time>2016-07-08T13:43:29Z</time>
      </trkpt>
      <trkpt lat="45.86989302188158" lon="7.292311498895288">
        <ele>1956.9000000000001</ele>
        <time>2016-07-08T13:43:38Z</time>
      </trkpt>
      <trkpt lat="45.869850525632501" lon="7.292382158339024">
        <ele>1957.3800000000001</ele>
        <time>2016-07-08T13:43:44Z</time>
      </trkpt>
      <trkpt lat="45.869773579761386" lon="7.292454242706299">
        <ele>1958.3399999999999</ele>
        <time>2016-07-08T13:43:53Z</time>
      </trkpt>
      <trkpt lat="45.869749272242188" lon="7.292461032047868">
        <ele>1958.3399999999999</ele>
        <time>2016-07-08T13:43:55Z</time>
      </trkpt>
      <trkpt lat="45.869658663868904" lon="7.292475029826164">
        <ele>1959.78</ele>
        <time>2016-07-08T13:44:05Z</time>
      </trkpt>
      <trkpt lat="45.869564870372415" lon="7.292500846087933">
        <ele>1959.78</ele>
        <time>2016-07-08T13:44:14Z</time>
      </trkpt>
      <trkpt lat="45.86943419650197" lon="7.29252859018743">
        <ele>1960.75</ele>
        <time>2016-07-08T13:44:25Z</time>
      </trkpt>
      <trkpt lat="45.869323220103979" lon="7.292568823322654">
        <ele>1961.71</ele>
        <time>2016-07-08T13:44:36Z</time>
      </trkpt>
      <trkpt lat="45.869223643094301" lon="7.292570834979415">
        <ele>1962.1900000000001</ele>
        <time>2016-07-08T13:44:46Z</time>
      </trkpt>
      <trkpt lat="45.869103530421853" lon="7.292553232982755">
        <ele>1963.1500000000001</ele>
        <time>2016-07-08T13:44:56Z</time>
      </trkpt>
      <trkpt lat="45.869031446054578" lon="7.2925388161093">
        <ele>1963.6300000000001</ele>
        <time>2016-07-08T13:45:03Z</time>
      </trkpt>
      <trkpt lat="45.868940418586135" lon="7.292492548003793">
        <ele>1964.5899999999999</ele>
        <time>2016-07-08T13:45:12Z</time>
      </trkpt>
      <trkpt lat="45.86886246688664" lon="7.292453739792109">
        <ele>1965.0699999999999</ele>
        <time>2016-07-08T13:45:20Z</time>
      </trkpt>
      <trkpt lat="45.868804547935724" lon="7.292397832497954">
        <ele>1966.03</ele>
        <time>2016-07-08T13:45:27Z</time>
      </trkpt>
      <trkpt lat="45.868785185739398" lon="7.292383247986436">
        <ele>1966.03</ele>
        <time>2016-07-08T13:45:29Z</time>
      </trkpt>
      <trkpt lat="45.868697008118033" lon="7.292281072586775">
        <ele>1966.99</ele>
        <time>2016-07-08T13:45:41Z</time>
      </trkpt>
      <trkpt lat="45.868588043376803" lon="7.292132880538702">
        <ele>1967.96</ele>
        <time>2016-07-08T13:45:56Z</time>
      </trkpt>
      <trkpt lat="45.868512941524386" lon="7.292045876383781">
        <ele>1969.4000000000001</ele>
        <time>2016-07-08T13:46:07Z</time>
      </trkpt>
      <trkpt lat="45.868426943197846" lon="7.291959626600146">
        <ele>1970.3599999999999</ele>
        <time>2016-07-08T13:46:17Z</time>
      </trkpt>
      <trkpt lat="45.868345303460956" lon="7.291883770376444">
        <ele>1970.3599999999999</ele>
        <time>2016-07-08T13:46:27Z</time>
      </trkpt>
      <trkpt lat="45.868253521621227" lon="7.291806070134044">
        <ele>1970.3599999999999</ele>
        <time>2016-07-08T13:46:39Z</time>
      </trkpt>
      <trkpt lat="45.86817154660821" lon="7.291763406246901">
        <ele>1972.76</ele>
        <time>2016-07-08T13:46:49Z</time>
      </trkpt>
      <trkpt lat="45.868064509704709" lon="7.291723759844899">
        <ele>1973.24</ele>
        <time>2016-07-08T13:46:58Z</time>
      </trkpt>
      <trkpt lat="45.868006171658635" lon="7.291713114827871">
        <ele>1973.72</ele>
        <time>2016-07-08T13:47:03Z</time>
      </trkpt>
      <trkpt lat="45.867958227172494" lon="7.29168763384223">
        <ele>1974.2</ele>
        <time>2016-07-08T13:47:08Z</time>
      </trkpt>
      <trkpt lat="45.867846244946122" lon="7.291635498404503">
        <ele>1974.6900000000001</ele>
        <time>2016-07-08T13:47:18Z</time>
      </trkpt>
      <trkpt lat="45.867770137265325" lon="7.2916270326823">
        <ele>1975.1700000000001</ele>
        <time>2016-07-08T13:47:28Z</time>
      </trkpt>
      <trkpt lat="45.867765443399549" lon="7.291581770405173">
        <ele>1975.1700000000001</ele>
        <time>2016-07-08T13:47:41Z</time>
      </trkpt>
      <trkpt lat="45.86775622330606" lon="7.291527707129717">
        <ele>1975.1700000000001</ele>
        <time>2016-07-08T13:47:45Z</time>
      </trkpt>
      <trkpt lat="45.867703668773174" lon="7.291411869227886">
        <ele>1975.6500000000001</ele>
        <time>2016-07-08T13:47:55Z</time>
      </trkpt>
      <trkpt lat="45.867655724287033" lon="7.291303239762783">
        <ele>1976.6099999999999</ele>
        <time>2016-07-08T13:48:05Z</time>
      </trkpt>
      <trkpt lat="45.867596631869674" lon="7.291208356618881">
        <ele>1977.0899999999999</ele>
        <time>2016-07-08T13:48:14Z</time>
      </trkpt>
      <trkpt lat="45.867534941062331" lon="7.29113744571805">
        <ele>1978.05</ele>
        <time>2016-07-08T13:48:22Z</time>
      </trkpt>
      <trkpt lat="45.867443829774857" lon="7.291045663878322">
        <ele>1979.49</ele>
        <time>2016-07-08T13:48:33Z</time>
      </trkpt>
      <trkpt lat="45.867365039885044" lon="7.290997467935085">
        <ele>1979.97</ele>
        <time>2016-07-08T13:48:42Z</time>
      </trkpt>
      <trkpt lat="45.867273593321443" lon="7.290949188172817">
        <ele>1980.9300000000001</ele>
        <time>2016-07-08T13:48:52Z</time>
      </trkpt>
      <trkpt lat="45.867251884192228" lon="7.290940387174487">
        <ele>1981.4100000000001</ele>
        <time>2016-07-08T13:48:54Z</time>
      </trkpt>
      <trkpt lat="45.867166975513101" lon="7.290903003886342">
        <ele>1982.3800000000001</ele>
        <time>2016-07-08T13:49:03Z</time>
      </trkpt>
      <trkpt lat="45.867108888924122" lon="7.290867045521736">
        <ele>1982.8599999999999</ele>
        <time>2016-07-08T13:49:09Z</time>
      </trkpt>
      <trkpt lat="45.867009395733476" lon="7.290804265066981">
        <ele>1983.8199999999999</ele>
        <time>2016-07-08T13:49:20Z</time>
      </trkpt>
      <trkpt lat="45.866908226162195" lon="7.290717093273997">
        <ele>1984.78</ele>
        <time>2016-07-08T13:49:32Z</time>
      </trkpt>
      <trkpt lat="45.866863131523132" lon="7.29066445492208">
        <ele>1985.26</ele>
        <time>2016-07-08T13:49:38Z</time>
      </trkpt>
      <trkpt lat="45.866782749071717" lon="7.290590526536107">
        <ele>1986.22</ele>
        <time>2016-07-08T13:49:48Z</time>
      </trkpt>
      <trkpt lat="45.866727344691753" lon="7.290553729981184">
        <ele>1987.1800000000001</ele>
        <time>2016-07-08T13:49:54Z</time>
      </trkpt>
      <trkpt lat="45.866657104343176" lon="7.290495224297047">
        <ele>1988.1400000000001</ele>
        <time>2016-07-08T13:50:01Z</time>
      </trkpt>
      <trkpt lat="45.866636652499437" lon="7.290479298681021">
        <ele>1988.1400000000001</ele>
        <time>2016-07-08T13:50:04Z</time>
      </trkpt>
      <trkpt lat="45.866578398272395" lon="7.290380224585533">
        <ele>1989.0999999999999</ele>
        <time>2016-07-08T13:50:13Z</time>
      </trkpt>
      <trkpt lat="45.866574710235" lon="7.290365807712078">
        <ele>1989.5899999999999</ele>
        <time>2016-07-08T13:50:14Z</time>
      </trkpt>
      <trkpt lat="45.866586277261376" lon="7.290257262066007">
        <ele>1990.0699999999999</ele>
        <time>2016-07-08T13:50:23Z</time>
      </trkpt>
      <trkpt lat="45.866602370515466" lon="7.290245108306408">
        <ele>1990.55</ele>
        <time>2016-07-08T13:50:25Z</time>
      </trkpt>
      <trkpt lat="45.866678226739168" lon="7.290282659232616">
        <ele>1991.03</ele>
        <time>2016-07-08T13:50:33Z</time>
      </trkpt>
      <trkpt lat="45.866703875362873" lon="7.290317276492715">
        <ele>1991.03</ele>
        <time>2016-07-08T13:50:36Z</time>
      </trkpt>
      <trkpt lat="45.866782832890749" lon="7.290395060554147">
        <ele>1991.99</ele>
        <time>2016-07-08T13:50:46Z</time>
      </trkpt>
      <trkpt lat="45.866851145401597" lon="7.290458930656314">
        <ele>1993.4300000000001</ele>
        <time>2016-07-08T13:50:56Z</time>
      </trkpt>
      <trkpt lat="45.866964217275381" lon="7.290534367784858">
        <ele>1994.3900000000001</ele>
        <time>2016-07-08T13:51:08Z</time>
      </trkpt>
      <trkpt lat="45.867077875882387" lon="7.290567811578512">
        <ele>1995.3499999999999</ele>
        <time>2016-07-08T13:51:20Z</time>
      </trkpt>
      <trkpt lat="45.867163622751832" lon="7.290617600083351">
        <ele>1997.28</ele>
        <time>2016-07-08T13:51:31Z</time>
      </trkpt>
      <trkpt lat="45.867202430963516" lon="7.290617013350129">
        <ele>1997.76</ele>
        <time>2016-07-08T13:51:36Z</time>
      </trkpt>
      <trkpt lat="45.867242328822613" lon="7.29057895950973">
        <ele>1998.24</ele>
        <time>2016-07-08T13:51:41Z</time>
      </trkpt>
      <trkpt lat="45.867213997989893" lon="7.290488518774509">
        <ele>1999.2</ele>
        <time>2016-07-08T13:51:50Z</time>
      </trkpt>
      <trkpt lat="45.867153899744153" lon="7.290453985333443">
        <ele>2000.1600000000001</ele>
        <time>2016-07-08T13:51:58Z</time>
      </trkpt>
      <trkpt lat="45.867105955258012" lon="7.29043428786099">
        <ele>2000.6400000000001</ele>
        <time>2016-07-08T13:52:03Z</time>
      </trkpt>
      <trkpt lat="45.867077372968197" lon="7.290420709177852">
        <ele>2000.6400000000001</ele>
        <time>2016-07-08T13:52:06Z</time>
      </trkpt>
      <trkpt lat="45.867042671889067" lon="7.290413919836283">
        <ele>2001.1199999999999</ele>
        <time>2016-07-08T13:52:10Z</time>
      </trkpt>
      <trkpt lat="45.866977628320456" lon="7.290368070825934">
        <ele>2001.5999999999999</ele>
        <time>2016-07-08T13:52:17Z</time>
      </trkpt>
      <trkpt lat="45.866955248638988" lon="7.290352899581194">
        <ele>2002.0799999999999</ele>
        <time>2016-07-08T13:52:20Z</time>
      </trkpt>
      <trkpt lat="45.866927755996585" lon="7.290335632860661">
        <ele>2002.5599999999999</ele>
        <time>2016-07-08T13:52:23Z</time>
      </trkpt>
      <trkpt lat="45.866909483447671" lon="7.290316605940461">
        <ele>2003.04</ele>
        <time>2016-07-08T13:52:25Z</time>
      </trkpt>
      <trkpt lat="45.866897078230977" lon="7.290304368361831">
        <ele>2003.04</ele>
        <time>2016-07-08T13:52:26Z</time>
      </trkpt>
      <trkpt lat="45.866846032440662" lon="7.290223650634289">
        <ele>2004.01</ele>
        <time>2016-07-08T13:52:34Z</time>
      </trkpt>
      <trkpt lat="45.866840500384569" lon="7.290206048637629">
        <ele>2004.01</ele>
        <time>2016-07-08T13:52:35Z</time>
      </trkpt>
      <trkpt lat="45.866807559505105" lon="7.290152320638299">
        <ele>2004.49</ele>
        <time>2016-07-08T13:52:40Z</time>
      </trkpt>
      <trkpt lat="45.866784090176225" lon="7.290104376152158">
        <ele>2004.49</ele>
        <time>2016-07-08T13:52:44Z</time>
      </trkpt>
      <trkpt lat="45.866740588098764" lon="7.290044948458672">
        <ele>2005.45</ele>
        <time>2016-07-08T13:52:50Z</time>
      </trkpt>
      <trkpt lat="45.866722064092755" lon="7.290013348683715">
        <ele>2005.9300000000001</ele>
        <time>2016-07-08T13:52:53Z</time>
      </trkpt>
      <trkpt lat="45.866680825129151" lon="7.289926931262016">
        <ele>2006.4100000000001</ele>
        <time>2016-07-08T13:53:01Z</time>
      </trkpt>
      <trkpt lat="45.866662887856364" lon="7.289892733097076">
        <ele>2006.8900000000001</ele>
        <time>2016-07-08T13:53:04Z</time>
      </trkpt>
      <trkpt lat="45.866597173735499" lon="7.289803884923458">
        <ele>2007.8499999999999</ele>
        <time>2016-07-08T13:53:13Z</time>
      </trkpt>
      <trkpt lat="45.866591893136501" lon="7.289790976792574">
        <ele>2007.8499999999999</ele>
        <time>2016-07-08T13:53:14Z</time>
      </trkpt>
      <trkpt lat="45.866553839296103" lon="7.289738925173879">
        <ele>2008.3299999999999</ele>
        <time>2016-07-08T13:53:19Z</time>
      </trkpt>
      <trkpt lat="45.866510085761547" lon="7.289685280993581">
        <ele>2008.8099999999999</ele>
        <time>2016-07-08T13:53:25Z</time>
      </trkpt>
      <trkpt lat="45.866458369418979" lon="7.289621997624636">
        <ele>2009.77</ele>
        <time>2016-07-08T13:53:31Z</time>
      </trkpt>
      <trkpt lat="45.866375640034676" lon="7.289540441706777">
        <ele>2010.73</ele>
        <time>2016-07-08T13:53:41Z</time>
      </trkpt>
      <trkpt lat="45.866320906206965" lon="7.289496436715126">
        <ele>2011.22</ele>
        <time>2016-07-08T13:53:47Z</time>
      </trkpt>
      <trkpt lat="45.866301124915481" lon="7.289482019841671">
        <ele>2011.7</ele>
        <time>2016-07-08T13:53:50Z</time>
      </trkpt>
      <trkpt lat="45.866269441321492" lon="7.28946584276855">
        <ele>2012.1800000000001</ele>
        <time>2016-07-08T13:53:54Z</time>
      </trkpt>
      <trkpt lat="45.866198530420661" lon="7.28941647335887">
        <ele>2012.6600000000001</ele>
        <time>2016-07-08T13:54:01Z</time>
      </trkpt>
      <trkpt lat="45.866142874583602" lon="7.289376324042678">
        <ele>2013.6199999999999</ele>
        <time>2016-07-08T13:54:07Z</time>
      </trkpt>
      <trkpt lat="45.866115381941199" lon="7.289356123656035">
        <ele>2014.0999999999999</ele>
        <time>2016-07-08T13:54:10Z</time>
      </trkpt>
      <trkpt lat="45.86607875302434" lon="7.289325026795268">
        <ele>2014.5799999999999</ele>
        <time>2016-07-08T13:54:14Z</time>
      </trkpt>
      <trkpt lat="45.866051930934191" lon="7.2893026471138">
        <ele>2014.5799999999999</ele>
        <time>2016-07-08T13:54:17Z</time>
      </trkpt>
      <trkpt lat="45.866011613979936" lon="7.289278423413634">
        <ele>2015.0599999999999</ele>
        <time>2016-07-08T13:54:21Z</time>
      </trkpt>
      <trkpt lat="45.865919329226017" lon="7.289207177236676">
        <ele>2016.02</ele>
        <time>2016-07-08T13:54:31Z</time>
      </trkpt>
      <trkpt lat="45.865879515185952" lon="7.289184546098113">
        <ele>2016.5</ele>
        <time>2016-07-08T13:54:35Z</time>
      </trkpt>
      <trkpt lat="45.865799216553569" lon="7.289127800613642">
        <ele>2017.46</ele>
        <time>2016-07-08T13:54:43Z</time>
      </trkpt>
      <trkpt lat="45.865725120529532" lon="7.289089830592275">
        <ele>2018.9100000000001</ele>
        <time>2016-07-08T13:54:51Z</time>
      </trkpt>
      <trkpt lat="45.865703662857413" lon="7.289076251909137">
        <ele>2018.9100000000001</ele>
        <time>2016-07-08T13:54:53Z</time>
      </trkpt>
      <trkpt lat="45.865613976493478" lon="7.289002994075418">
        <ele>2019.8699999999999</ele>
        <time>2016-07-08T13:55:03Z</time>
      </trkpt>
      <trkpt lat="45.865560751408339" lon="7.288932083174586">
        <ele>2020.8299999999999</ele>
        <time>2016-07-08T13:55:11Z</time>
      </trkpt>
      <trkpt lat="45.865492857992649" lon="7.288849269971252">
        <ele>2022.27</ele>
        <time>2016-07-08T13:55:21Z</time>
      </trkpt>
      <trkpt lat="45.865467460826039" lon="7.288819598034024">
        <ele>2022.75</ele>
        <time>2016-07-08T13:55:24Z</time>
      </trkpt>
      <trkpt lat="45.865436866879463" lon="7.288779113441706">
        <ele>2022.75</ele>
        <time>2016-07-08T13:55:28Z</time>
      </trkpt>
      <trkpt lat="45.865347515791655" lon="7.288687331601977">
        <ele>2023.71</ele>
        <time>2016-07-08T13:55:39Z</time>
      </trkpt>
      <trkpt lat="45.865297727286816" lon="7.288641314953566">
        <ele>2024.6700000000001</ele>
        <time>2016-07-08T13:55:45Z</time>
      </trkpt>
      <trkpt lat="45.865225559100509" lon="7.288583982735872">
        <ele>2025.6400000000001</ele>
        <time>2016-07-08T13:55:54Z</time>
      </trkpt>
      <trkpt lat="45.865199491381645" lon="7.288564955815673">
        <ele>2026.1199999999999</ele>
        <time>2016-07-08T13:55:57Z</time>
      </trkpt>
      <trkpt lat="45.86510444059968" lon="7.288466887548566">
        <ele>2027.0799999999999</ele>
        <time>2016-07-08T13:56:09Z</time>
      </trkpt>
      <trkpt lat="45.865012742578983" lon="7.288376614451408">
        <ele>2028.04</ele>
        <time>2016-07-08T13:56:20Z</time>
      </trkpt>
      <trkpt lat="45.864913417026401" lon="7.288300758227706">
        <ele>2029</ele>
        <time>2016-07-08T13:56:31Z</time>
      </trkpt>
      <trkpt lat="45.864837812259793" lon="7.288231691345573">
        <ele>2029.48</ele>
        <time>2016-07-08T13:56:40Z</time>
      </trkpt>
      <trkpt lat="45.86472817696631" lon="7.288149716332555">
        <ele>2029.96</ele>
        <time>2016-07-08T13:56:52Z</time>
      </trkpt>
      <trkpt lat="45.86461435072124" lon="7.288091629743576">
        <ele>2030.9200000000001</ele>
        <time>2016-07-08T13:57:05Z</time>
      </trkpt>
      <trkpt lat="45.864592809230089" lon="7.288083583116531">
        <ele>2032.8399999999999</ele>
        <time>2016-07-08T13:57:07Z</time>
      </trkpt>
      <trkpt lat="45.864483090117574" lon="7.288007391616702">
        <ele>2034.29</ele>
        <time>2016-07-08T13:57:20Z</time>
      </trkpt>
      <trkpt lat="45.86442282423377" lon="7.287943940609694">
        <ele>2035.25</ele>
        <time>2016-07-08T13:57:27Z</time>
      </trkpt>
      <trkpt lat="45.864372448995709" lon="7.28786850348115">
        <ele>2035.73</ele>
        <time>2016-07-08T13:57:36Z</time>
      </trkpt>
      <trkpt lat="45.864371191710234" lon="7.287846878170967">
        <ele>2035.73</ele>
        <time>2016-07-08T13:57:48Z</time>
      </trkpt>
      <trkpt lat="45.864363228902221" lon="7.287870012223721">
        <ele>2035.73</ele>
        <time>2016-07-08T13:57:54Z</time>
      </trkpt>
      <trkpt lat="45.864340094849467" lon="7.287882752716541">
        <ele>2036.21</ele>
        <time>2016-07-08T13:57:57Z</time>
      </trkpt>
      <trkpt lat="45.86428988724947" lon="7.287858529016376">
        <ele>2036.6900000000001</ele>
        <time>2016-07-08T13:58:02Z</time>
      </trkpt>
      <trkpt lat="45.864244205877185" lon="7.287813266739249">
        <ele>2037.1700000000001</ele>
        <time>2016-07-08T13:58:08Z</time>
      </trkpt>
      <trkpt lat="45.864231549203396" lon="7.287790384143591">
        <ele>2037.1700000000001</ele>
        <time>2016-07-08T13:58:10Z</time>
      </trkpt>
      <trkpt lat="45.864183437079191" lon="7.287730872631073">
        <ele>2038.1300000000001</ele>
        <time>2016-07-08T13:58:16Z</time>
      </trkpt>
      <trkpt lat="45.864124428480864" lon="7.287676725536585">
        <ele>2038.6099999999999</ele>
        <time>2016-07-08T13:58:23Z</time>
      </trkpt>
      <trkpt lat="45.864094505086541" lon="7.287642695009708">
        <ele>2039.0899999999999</ele>
        <time>2016-07-08T13:58:27Z</time>
      </trkpt>
      <trkpt lat="45.864043040201068" lon="7.287595756351948">
        <ele>2040.05</ele>
        <time>2016-07-08T13:58:33Z</time>
      </trkpt>
      <trkpt lat="45.86402652785182" lon="7.287581423297525">
        <ele>2040.05</ele>
        <time>2016-07-08T13:58:35Z</time>
      </trkpt>
      <trkpt lat="45.863998532295227" lon="7.287567844614387">
        <ele>2040.54</ele>
        <time>2016-07-08T13:58:38Z</time>
      </trkpt>
      <trkpt lat="45.863897111266851" lon="7.287538424134255">
        <ele>2041.98</ele>
        <time>2016-07-08T13:58:49Z</time>
      </trkpt>
      <trkpt lat="45.863889316096902" lon="7.287536999210715">
        <ele>2041.98</ele>
        <time>2016-07-08T13:58:50Z</time>
      </trkpt>
      <trkpt lat="45.86382519453764" lon="7.287512943148613">
        <ele>2042.46</ele>
        <time>2016-07-08T13:58:57Z</time>
      </trkpt>
      <trkpt lat="45.863773059099913" lon="7.287497520446777">
        <ele>2043.4200000000001</ele>
        <time>2016-07-08T13:59:02Z</time>
      </trkpt>
      <trkpt lat="45.863743638619781" lon="7.287481930106878">
        <ele>2043.4200000000001</ele>
        <time>2016-07-08T13:59:05Z</time>
      </trkpt>
      <trkpt lat="45.863643307238817" lon="7.287439266219735">
        <ele>2043.9000000000001</ele>
        <time>2016-07-08T13:59:16Z</time>
      </trkpt>
      <trkpt lat="45.86363316513598" lon="7.287435662001371">
        <ele>2044.3800000000001</ele>
        <time>2016-07-08T13:59:17Z</time>
      </trkpt>
      <trkpt lat="45.863611707463861" lon="7.287425855174661">
        <ele>2044.8599999999999</ele>
        <time>2016-07-08T13:59:19Z</time>
      </trkpt>
      <trkpt lat="45.863582789897919" lon="7.287409091368318">
        <ele>2044.8599999999999</ele>
        <time>2016-07-08T13:59:22Z</time>
      </trkpt>
      <trkpt lat="45.863525290042162" lon="7.287375815212727">
        <ele>2045.8199999999999</ele>
        <time>2016-07-08T13:59:28Z</time>
      </trkpt>
      <trkpt lat="45.863437950611115" lon="7.287310184910893">
        <ele>2046.78</ele>
        <time>2016-07-08T13:59:37Z</time>
      </trkpt>
      <trkpt lat="45.863397633656859" lon="7.287285123020411">
        <ele>2046.78</ele>
        <time>2016-07-08T13:59:41Z</time>
      </trkpt>
      <trkpt lat="45.863310461863875" lon="7.28720691986382">
        <ele>2047.75</ele>
        <time>2016-07-08T13:59:51Z</time>
      </trkpt>
      <trkpt lat="45.863283220678568" lon="7.287184875458479">
        <ele>2048.23</ele>
        <time>2016-07-08T13:59:54Z</time>
      </trkpt>
      <trkpt lat="45.863234521821141" lon="7.287134500220418">
        <ele>2048.71</ele>
        <time>2016-07-08T14:00:00Z</time>
      </trkpt>
      <trkpt lat="45.863177105784416" lon="7.287032743915916">
        <ele>2049.6700000000001</ele>
        <time>2016-07-08T14:00:08Z</time>
      </trkpt>
      <trkpt lat="45.86309228092432" lon="7.286915984004736">
        <ele>2051.1100000000001</ele>
        <time>2016-07-08T14:00:20Z</time>
      </trkpt>
      <trkpt lat="45.863071829080582" lon="7.286869212985039">
        <ele>2051.1100000000001</ele>
        <time>2016-07-08T14:00:24Z</time>
      </trkpt>
      <trkpt lat="45.863010641187429" lon="7.286790255457163">
        <ele>2052.0700000000002</ele>
        <time>2016-07-08T14:00:32Z</time>
      </trkpt>
      <trkpt lat="45.862980047240853" lon="7.286747088655829">
        <ele>2052.5500000000002</ele>
        <time>2016-07-08T14:00:36Z</time>
      </trkpt>
      <trkpt lat="45.862933527678251" lon="7.286686487495899">
        <ele>2053.0300000000002</ele>
        <time>2016-07-08T14:00:42Z</time>
      </trkpt>
      <trkpt lat="45.862921122461557" lon="7.286660335958004">
        <ele>2053.0300000000002</ele>
        <time>2016-07-08T14:00:44Z</time>
      </trkpt>
      <trkpt lat="45.862853145226836" lon="7.286548940464854">
        <ele>2053.9899999999998</ele>
        <time>2016-07-08T14:00:54Z</time>
      </trkpt>
      <trkpt lat="45.862823976203799" lon="7.286506863310933">
        <ele>2054.4699999999998</ele>
        <time>2016-07-08T14:00:58Z</time>
      </trkpt>
      <trkpt lat="45.86281375028193" lon="7.286482471972704">
        <ele>2054.4699999999998</ele>
        <time>2016-07-08T14:01:00Z</time>
      </trkpt>
      <trkpt lat="45.862783323973417" lon="7.286429665982723">
        <ele>2055.4400000000001</ele>
        <time>2016-07-08T14:01:05Z</time>
      </trkpt>
      <trkpt lat="45.862761279568076" lon="7.286397144198418">
        <ele>2055.4400000000001</ele>
        <time>2016-07-08T14:01:08Z</time>
      </trkpt>
      <trkpt lat="45.862695313990116" lon="7.286284239962697">
        <ele>2056.4000000000001</ele>
        <time>2016-07-08T14:01:18Z</time>
      </trkpt>
      <trkpt lat="45.862666396424174" lon="7.286227578297257">
        <ele>2056.8800000000001</ele>
        <time>2016-07-08T14:01:23Z</time>
      </trkpt>
      <trkpt lat="45.862652901560068" lon="7.286204863339663">
        <ele>2056.8800000000001</ele>
        <time>2016-07-08T14:01:25Z</time>
      </trkpt>
      <trkpt lat="45.8626080583781" lon="7.286138143390417">
        <ele>2057.8400000000001</ele>
        <time>2016-07-08T14:01:31Z</time>
      </trkpt>
      <trkpt lat="45.862587606534362" lon="7.286089276894927">
        <ele>2057.8400000000001</ele>
        <time>2016-07-08T14:01:35Z</time>
      </trkpt>
      <trkpt lat="45.862566903233528" lon="7.28605767711997">
        <ele>2058.3200000000002</ele>
        <time>2016-07-08T14:01:38Z</time>
      </trkpt>
      <trkpt lat="45.862517952919006" lon="7.285992549732328">
        <ele>2059.2800000000002</ele>
        <time>2016-07-08T14:01:45Z</time>
      </trkpt>
      <trkpt lat="45.862482497468591" lon="7.285921135917306">
        <ele>2059.7600000000002</ele>
        <time>2016-07-08T14:01:51Z</time>
      </trkpt>
      <trkpt lat="45.86246145889163" lon="7.285895654931665">
        <ele>2060.2399999999998</ele>
        <time>2016-07-08T14:01:54Z</time>
      </trkpt>
      <trkpt lat="45.862370431423187" lon="7.2858074773103">
        <ele>2060.7199999999998</ele>
        <time>2016-07-08T14:02:05Z</time>
      </trkpt>
      <trkpt lat="45.862256018444896" lon="7.285735812038183">
        <ele>2062.1700000000001</ele>
        <time>2016-07-08T14:02:18Z</time>
      </trkpt>
      <trkpt lat="45.862243613228202" lon="7.285731034353375">
        <ele>2062.1700000000001</ele>
        <time>2016-07-08T14:02:19Z</time>
      </trkpt>
      <trkpt lat="45.862183850258589" lon="7.285656603053212">
        <ele>2063.1300000000001</ele>
        <time>2016-07-08T14:02:29Z</time>
      </trkpt>
      <trkpt lat="45.862177396193147" lon="7.285632211714983">
        <ele>2063.1300000000001</ele>
        <time>2016-07-08T14:02:45Z</time>
      </trkpt>
      <trkpt lat="45.862178988754749" lon="7.285647047683597">
        <ele>2063.1300000000001</ele>
        <time>2016-07-08T14:03:08Z</time>
      </trkpt>
      <trkpt lat="45.862172534689307" lon="7.285642269998789">
        <ele>2063.1300000000001</ele>
        <time>2016-07-08T14:03:21Z</time>
      </trkpt>
      <trkpt lat="45.862177228555083" lon="7.285636318847537">
        <ele>2063.1300000000001</ele>
        <time>2016-07-08T14:03:29Z</time>
      </trkpt>
      <trkpt lat="45.862173456698656" lon="7.285628691315651">
        <ele>2063.6100000000001</ele>
        <time>2016-07-08T14:03:42Z</time>
      </trkpt>
      <trkpt lat="45.862171361222863" lon="7.285648640245199">
        <ele>2063.6100000000001</ele>
        <time>2016-07-08T14:03:53Z</time>
      </trkpt>
      <trkpt lat="45.86219952441752" lon="7.285662302747369">
        <ele>2063.1300000000001</ele>
        <time>2016-07-08T14:04:00Z</time>
      </trkpt>
      <trkpt lat="45.862233471125364" lon="7.285640342161059">
        <ele>2063.6100000000001</ele>
        <time>2016-07-08T14:04:10Z</time>
      </trkpt>
      <trkpt lat="45.862207822501659" lon="7.285626344382763">
        <ele>2063.6100000000001</ele>
        <time>2016-07-08T14:04:24Z</time>
      </trkpt>
      <trkpt lat="45.862209582701325" lon="7.285655178129673">
        <ele>2063.6100000000001</ele>
        <time>2016-07-08T14:04:28Z</time>
      </trkpt>
      <trkpt lat="45.86215510033071" lon="7.285650735720992">
        <ele>2063.6100000000001</ele>
        <time>2016-07-08T14:04:33Z</time>
      </trkpt>
      <trkpt lat="45.862120315432549" lon="7.28560664691031">
        <ele>2063.6100000000001</ele>
        <time>2016-07-08T14:04:37Z</time>
      </trkpt>
      <trkpt lat="45.862076813355088" lon="7.285526851192117">
        <ele>2063.6100000000001</ele>
        <time>2016-07-08T14:04:43Z</time>
      </trkpt>
      <trkpt lat="45.861983522772789" lon="7.285340186208487">
        <ele>2063.1300000000001</ele>
        <time>2016-07-08T14:04:56Z</time>
      </trkpt>
      <trkpt lat="45.861891321837902" lon="7.285189479589462">
        <ele>2062.1700000000001</ele>
        <time>2016-07-08T14:05:07Z</time>
      </trkpt>
      <trkpt lat="45.861793840304017" lon="7.285027457401156">
        <ele>2061.6799999999998</ele>
        <time>2016-07-08T14:05:19Z</time>
      </trkpt>
      <trkpt lat="45.86166987195611" lon="7.284860657528043">
        <ele>2060.7199999999998</ele>
        <time>2016-07-08T14:05:32Z</time>
      </trkpt>
      <trkpt lat="45.861529894173145" lon="7.284728391095996">
        <ele>2060.2399999999998</ele>
        <time>2016-07-08T14:05:45Z</time>
      </trkpt>
      <trkpt lat="45.861351191997528" lon="7.284603919833899">
        <ele>2060.2399999999998</ele>
        <time>2016-07-08T14:06:01Z</time>
      </trkpt>
      <trkpt lat="45.861193528398871" lon="7.284511467441917">
        <ele>2059.7600000000002</ele>
        <time>2016-07-08T14:06:15Z</time>
      </trkpt>
      <trkpt lat="45.861043827608228" lon="7.284461846575141">
        <ele>2059.2800000000002</ele>
        <time>2016-07-08T14:06:27Z</time>
      </trkpt>
      <trkpt lat="45.860897982493043" lon="7.284423541277647">
        <ele>2059.2800000000002</ele>
        <time>2016-07-08T14:06:39Z</time>
      </trkpt>
      <trkpt lat="45.860748281702399" lon="7.284418344497681">
        <ele>2058.3200000000002</ele>
        <time>2016-07-08T14:06:51Z</time>
      </trkpt>
      <trkpt lat="45.8607033547014" lon="7.284438880160451">
        <ele>2058.8000000000002</ele>
        <time>2016-07-08T14:06:55Z</time>
      </trkpt>
      <trkpt lat="45.860663121566176" lon="7.284450279548764">
        <ele>2059.2800000000002</ele>
        <time>2016-07-08T14:07:06Z</time>
      </trkpt>
      <trkpt lat="45.860658176243305" lon="7.284410465508699">
        <ele>2058.3200000000002</ele>
        <time>2016-07-08T14:07:13Z</time>
      </trkpt>
      <trkpt lat="45.860649039968848" lon="7.284422535449266">
        <ele>2057.8400000000001</ele>
        <time>2016-07-08T14:07:35Z</time>
      </trkpt>
      <trkpt lat="45.860646441578865" lon="7.28442806750536">
        <ele>2057.8400000000001</ele>
        <time>2016-07-08T14:07:57Z</time>
      </trkpt>
      <trkpt lat="45.860651386901736" lon="7.284424966201186">
        <ele>2058.3200000000002</ele>
        <time>2016-07-08T14:08:06Z</time>
      </trkpt>
      <trkpt lat="45.860661529004574" lon="7.284462098032236">
        <ele>2060.2399999999998</ele>
        <time>2016-07-08T14:08:14Z</time>
      </trkpt>
      <trkpt lat="45.860649291425943" lon="7.284466037526727">
        <ele>2058.8000000000002</ele>
        <time>2016-07-08T14:08:22Z</time>
      </trkpt>
      <trkpt lat="45.860631102696061" lon="7.284496547654271">
        <ele>2059.2800000000002</ele>
        <time>2016-07-08T14:08:25Z</time>
      </trkpt>
      <trkpt lat="45.86062272079289" lon="7.284550024196506">
        <ele>2059.2800000000002</ele>
        <time>2016-07-08T14:08:39Z</time>
      </trkpt>
      <trkpt lat="45.860609980300069" lon="7.284570392221212">
        <ele>2059.2800000000002</ele>
        <time>2016-07-08T14:08:47Z</time>
      </trkpt>
      <trkpt lat="45.860591372475028" lon="7.284673741087318">
        <ele>2059.2800000000002</ele>
        <time>2016-07-08T14:08:54Z</time>
      </trkpt>
      <trkpt lat="45.860595144331455" lon="7.284728894010186">
        <ele>2058.8000000000002</ele>
        <time>2016-07-08T14:08:57Z</time>
      </trkpt>
      <trkpt lat="45.860604112967849" lon="7.284906590357423">
        <ele>2058.8000000000002</ele>
        <time>2016-07-08T14:09:09Z</time>
      </trkpt>
      <trkpt lat="45.860615344718099" lon="7.285084454342723">
        <ele>2059.7600000000002</ele>
        <time>2016-07-08T14:09:21Z</time>
      </trkpt>
      <trkpt lat="45.860621044412255" lon="7.285181516781449">
        <ele>2059.7600000000002</ele>
        <time>2016-07-08T14:09:28Z</time>
      </trkpt>
      <trkpt lat="45.860586846247315" lon="7.285347981378436">
        <ele>2060.2399999999998</ele>
        <time>2016-07-08T14:09:40Z</time>
      </trkpt>
      <trkpt lat="45.860534459352493" lon="7.285511428490281">
        <ele>2060.7199999999998</ele>
        <time>2016-07-08T14:09:51Z</time>
      </trkpt>
      <trkpt lat="45.860464805737138" lon="7.285675294697285">
        <ele>2061.6799999999998</ele>
        <time>2016-07-08T14:10:03Z</time>
      </trkpt>
      <trkpt lat="45.860422812402248" lon="7.285716952756047">
        <ele>2061.6799999999998</ele>
        <time>2016-07-08T14:10:11Z</time>
      </trkpt>
      <trkpt lat="45.860358187928796" lon="7.285818541422486">
        <ele>2062.1700000000001</ele>
        <time>2016-07-08T14:10:19Z</time>
      </trkpt>
      <trkpt lat="45.860323486849666" lon="7.285857265815139">
        <ele>2062.6500000000001</ele>
        <time>2016-07-08T14:10:23Z</time>
      </trkpt>
      <trkpt lat="45.86025726981461" lon="7.285923315212131">
        <ele>2063.1300000000001</ele>
        <time>2016-07-08T14:10:30Z</time>
      </trkpt>
      <trkpt lat="45.860238745808601" lon="7.285926416516304">
        <ele>2063.1300000000001</ele>
        <time>2016-07-08T14:10:32Z</time>
      </trkpt>
      <trkpt lat="45.860191723331809" lon="7.285965392366052">
        <ele>2063.1300000000001</ele>
        <time>2016-07-08T14:10:37Z</time>
      </trkpt>
      <trkpt lat="45.860082171857357" lon="7.28599120862782">
        <ele>2064.0900000000001</ele>
        <time>2016-07-08T14:10:48Z</time>
      </trkpt>
      <trkpt lat="45.860048979520798" lon="7.285995986312628">
        <ele>2064.0900000000001</ele>
        <time>2016-07-08T14:10:51Z</time>
      </trkpt>
      <trkpt lat="45.859942613169551" lon="7.285934630781412">
        <ele>2065.0500000000002</ele>
        <time>2016-07-08T14:11:02Z</time>
      </trkpt>
      <trkpt lat="45.859937332570553" lon="7.285881992429495">
        <ele>2065.5300000000002</ele>
        <time>2016-07-08T14:11:13Z</time>
      </trkpt>
      <trkpt lat="45.859914366155863" lon="7.28587687946856">
        <ele>2065.5300000000002</ele>
        <time>2016-07-08T14:11:24Z</time>
      </trkpt>
      <trkpt lat="45.85988980717957" lon="7.28587587364018">
        <ele>2065.5300000000002</ele>
        <time>2016-07-08T14:11:29Z</time>
      </trkpt>
      <trkpt lat="45.859924759715796" lon="7.285861456766725">
        <ele>2065.0500000000002</ele>
        <time>2016-07-08T14:11:32Z</time>
      </trkpt>
      <trkpt lat="45.859940098598599" lon="7.285888195037842">
        <ele>2065.0500000000002</ele>
        <time>2016-07-08T14:11:44Z</time>
      </trkpt>
      <trkpt lat="45.859931465238333" lon="7.285893643274903">
        <ele>2065.0500000000002</ele>
        <time>2016-07-08T14:11:49Z</time>
      </trkpt>
      <trkpt lat="45.859810598194599" lon="7.285854835063219">
        <ele>2065.5300000000002</ele>
        <time>2016-07-08T14:12:01Z</time>
      </trkpt>
      <trkpt lat="45.85968260653317" lon="7.285772189497948">
        <ele>2065.0500000000002</ele>
        <time>2016-07-08T14:12:13Z</time>
      </trkpt>
      <trkpt lat="45.859556123614311" lon="7.285675210878253">
        <ele>2065.0500000000002</ele>
        <time>2016-07-08T14:12:27Z</time>
      </trkpt>
      <trkpt lat="45.859411116689444" lon="7.285637073218823">
        <ele>2065.0500000000002</ele>
        <time>2016-07-08T14:12:39Z</time>
      </trkpt>
      <trkpt lat="45.85927658714354" lon="7.28566138073802">
        <ele>2065.5300000000002</ele>
        <time>2016-07-08T14:12:51Z</time>
      </trkpt>
      <trkpt lat="45.85921355523169" lon="7.285619555041194">
        <ele>2066.0100000000002</ele>
        <time>2016-07-08T14:13:01Z</time>
      </trkpt>
      <trkpt lat="45.859238198027015" lon="7.285579824820161">
        <ele>2067.4499999999998</ele>
        <time>2016-07-08T14:13:12Z</time>
      </trkpt>
      <trkpt lat="45.859221685677767" lon="7.285547303035855">
        <ele>2066.0100000000002</ele>
        <time>2016-07-08T14:13:23Z</time>
      </trkpt>
      <trkpt lat="45.859230319038033" lon="7.285550236701965">
        <ele>2066.0100000000002</ele>
        <time>2016-07-08T14:13:39Z</time>
      </trkpt>
      <trkpt lat="45.8592130523175" lon="7.285533808171749">
        <ele>2066.0100000000002</ele>
        <time>2016-07-08T14:13:58Z</time>
      </trkpt>
      <trkpt lat="45.859207520261407" lon="7.285532047972083">
        <ele>2066.0100000000002</ele>
        <time>2016-07-08T14:14:11Z</time>
      </trkpt>
      <trkpt lat="45.859213974326849" lon="7.285539004951716">
        <ele>2066.0100000000002</ele>
        <time>2016-07-08T14:14:26Z</time>
      </trkpt>
      <trkpt lat="45.85921498015523" lon="7.285539424046874">
        <ele>2066.0100000000002</ele>
        <time>2016-07-08T14:14:50Z</time>
      </trkpt>
      <trkpt lat="45.859223529696465" lon="7.285533640533686">
        <ele>2066.0100000000002</ele>
        <time>2016-07-08T14:15:06Z</time>
      </trkpt>
      <trkpt lat="45.859215650707483" lon="7.28557538241148">
        <ele>2066.9699999999998</ele>
        <time>2016-07-08T14:15:19Z</time>
      </trkpt>
      <trkpt lat="45.859221182763577" lon="7.285557528957725">
        <ele>2067.4499999999998</ele>
        <time>2016-07-08T14:15:34Z</time>
      </trkpt>
      <trkpt lat="45.859213722869754" lon="7.285549649968743">
        <ele>2066.9699999999998</ele>
        <time>2016-07-08T14:15:47Z</time>
      </trkpt>
      <trkpt lat="45.859218332916498" lon="7.285557026043534">
        <ele>2066.9699999999998</ele>
        <time>2016-07-08T14:16:01Z</time>
      </trkpt>
      <trkpt lat="45.859209867194295" lon="7.285563480108976">
        <ele>2066.9699999999998</ele>
        <time>2016-07-08T14:16:19Z</time>
      </trkpt>
      <trkpt lat="45.859226295724511" lon="7.285552583634853">
        <ele>2066.4899999999998</ele>
        <time>2016-07-08T14:16:41Z</time>
      </trkpt>
      <trkpt lat="45.859226463362575" lon="7.285547638311982">
        <ele>2066.4899999999998</ele>
        <time>2016-07-08T14:16:59Z</time>
      </trkpt>
      <trkpt lat="45.859221266582608" lon="7.285543279722333">
        <ele>2066.0100000000002</ele>
        <time>2016-07-08T14:17:16Z</time>
      </trkpt>
      <trkpt lat="45.859219087287784" lon="7.285531125962734">
        <ele>2066.4899999999998</ele>
        <time>2016-07-08T14:17:36Z</time>
      </trkpt>
      <trkpt lat="45.859224200248718" lon="7.285525677725673">
        <ele>2066.4899999999998</ele>
        <time>2016-07-08T14:17:54Z</time>
      </trkpt>
      <trkpt lat="45.859216321259737" lon="7.285535233095288">
        <ele>2066.0100000000002</ele>
        <time>2016-07-08T14:18:14Z</time>
      </trkpt>
      <trkpt lat="45.859209029003978" lon="7.285532550886273">
        <ele>2066.4899999999998</ele>
        <time>2016-07-08T14:18:31Z</time>
      </trkpt>
      <trkpt lat="45.859216572716832" lon="7.285531293600798">
        <ele>2066.4899999999998</ele>
        <time>2016-07-08T14:18:49Z</time>
      </trkpt>
      <trkpt lat="45.859227133914828" lon="7.285549063235521">
        <ele>2066.4899999999998</ele>
        <time>2016-07-08T14:19:19Z</time>
      </trkpt>
      <trkpt lat="45.859210453927517" lon="7.285536071285605">
        <ele>2066.4899999999998</ele>
        <time>2016-07-08T14:19:38Z</time>
      </trkpt>
      <trkpt lat="45.859211208298802" lon="7.285546297207475">
        <ele>2066.9699999999998</ele>
        <time>2016-07-08T14:20:03Z</time>
      </trkpt>
      <trkpt lat="45.859214477241039" lon="7.285537580028176">
        <ele>2066.9699999999998</ele>
        <time>2016-07-08T14:20:30Z</time>
      </trkpt>
      <trkpt lat="45.859224116429687" lon="7.285552332177758">
        <ele>2066.9699999999998</ele>
        <time>2016-07-08T14:20:46Z</time>
      </trkpt>
      <trkpt lat="45.859226128086448" lon="7.285530623048544">
        <ele>2066.9699999999998</ele>
        <time>2016-07-08T14:21:12Z</time>
      </trkpt>
      <trkpt lat="45.859222607687116" lon="7.285513943061233">
        <ele>2066.9699999999998</ele>
        <time>2016-07-08T14:21:35Z</time>
      </trkpt>
      <trkpt lat="45.859208609908819" lon="7.285517966374755">
        <ele>2067.4499999999998</ele>
        <time>2016-07-08T14:21:55Z</time>
      </trkpt>
      <trkpt lat="45.859215902164578" lon="7.285541100427508">
        <ele>2066.9699999999998</ele>
        <time>2016-07-08T14:22:16Z</time>
      </trkpt>
      <trkpt lat="45.859219841659069" lon="7.285542190074921">
        <ele>2066.9699999999998</ele>
        <time>2016-07-08T14:22:39Z</time>
      </trkpt>
      <trkpt lat="45.859220512211323" lon="7.285529281944037">
        <ele>2067.4499999999998</ele>
        <time>2016-07-08T14:23:02Z</time>
      </trkpt>
      <trkpt lat="45.859216824173927" lon="7.285543279722333">
        <ele>2067.4499999999998</ele>
        <time>2016-07-08T14:23:29Z</time>
      </trkpt>
      <trkpt lat="45.85922671481967" lon="7.285558534786105">
        <ele>2066.9699999999998</ele>
        <time>2016-07-08T14:23:55Z</time>
      </trkpt>
      <trkpt lat="45.859210202470422" lon="7.285537412390113">
        <ele>2067.4499999999998</ele>
        <time>2016-07-08T14:24:19Z</time>
      </trkpt>
      <trkpt lat="45.859222104772925" lon="7.285523917526007">
        <ele>2067.9299999999998</ele>
        <time>2016-07-08T14:24:44Z</time>
      </trkpt>
      <trkpt lat="45.859228223562241" lon="7.285546967759728">
        <ele>2067.9299999999998</ele>
        <time>2016-07-08T14:25:09Z</time>
      </trkpt>
      <trkpt lat="45.859222104772925" lon="7.28554068133235">
        <ele>2067.9299999999998</ele>
        <time>2016-07-08T14:25:34Z</time>
      </trkpt>
      <trkpt lat="45.859221182763577" lon="7.285557445138693">
        <ele>2067.9299999999998</ele>
        <time>2016-07-08T14:25:58Z</time>
      </trkpt>
      <trkpt lat="45.859248675405979" lon="7.285549398511648">
        <ele>2068.4099999999999</ele>
        <time>2016-07-08T14:26:26Z</time>
      </trkpt>
      <trkpt lat="45.859226379543543" lon="7.285563731566072">
        <ele>2067.9299999999998</ele>
        <time>2016-07-08T14:26:46Z</time>
      </trkpt>
      <trkpt lat="45.859238617122173" lon="7.285544704645872">
        <ele>2067.9299999999998</ele>
        <time>2016-07-08T14:27:07Z</time>
      </trkpt>
      <trkpt lat="45.859217243269086" lon="7.28555291891098">
        <ele>2067.4499999999998</ele>
        <time>2016-07-08T14:27:36Z</time>
      </trkpt>
      <trkpt lat="45.859225038439035" lon="7.285545291379094">
        <ele>2068.4099999999999</ele>
        <time>2016-07-08T14:27:59Z</time>
      </trkpt>
      <trkpt lat="45.859223948791623" lon="7.285541519522667">
        <ele>2069.3800000000001</ele>
        <time>2016-07-08T14:28:24Z</time>
      </trkpt>
      <trkpt lat="45.859223445877433" lon="7.285551493987441">
        <ele>2068.4099999999999</ele>
        <time>2016-07-08T14:28:45Z</time>
      </trkpt>
      <trkpt lat="45.859222942963243" lon="7.285540848970413">
        <ele>2068.8899999999999</ele>
        <time>2016-07-08T14:29:05Z</time>
      </trkpt>
      <trkpt lat="45.859225960448384" lon="7.285543698817492">
        <ele>2068.4099999999999</ele>
        <time>2016-07-08T14:29:20Z</time>
      </trkpt>
      <trkpt lat="45.859229397028685" lon="7.285538585856557">
        <ele>2067.9299999999998</ele>
        <time>2016-07-08T14:29:45Z</time>
      </trkpt>
      <trkpt lat="45.859205424785614" lon="7.285545961931348">
        <ele>2067.9299999999998</ele>
        <time>2016-07-08T14:30:09Z</time>
      </trkpt>
      <trkpt lat="45.859219087287784" lon="7.285535987466574">
        <ele>2068.4099999999999</ele>
        <time>2016-07-08T14:30:27Z</time>
      </trkpt>
      <trkpt lat="45.859217830002308" lon="7.285545039921999">
        <ele>2068.4099999999999</ele>
        <time>2016-07-08T14:30:54Z</time>
      </trkpt>
      <trkpt lat="45.859205257147551" lon="7.285547219216824">
        <ele>2068.8899999999999</ele>
        <time>2016-07-08T14:31:16Z</time>
      </trkpt>
      <trkpt lat="45.859207017347217" lon="7.285544956102967">
        <ele>2068.4099999999999</ele>
        <time>2016-07-08T14:31:36Z</time>
      </trkpt>
      <trkpt lat="45.859209364280105" lon="7.28554705157876">
        <ele>2068.4099999999999</ele>
        <time>2016-07-08T14:32:03Z</time>
      </trkpt>
      <trkpt lat="45.85921548306942" lon="7.285549147054553">
        <ele>2068.4099999999999</ele>
        <time>2016-07-08T14:32:29Z</time>
      </trkpt>
      <trkpt lat="45.859210286289454" lon="7.28552701883018">
        <ele>2068.4099999999999</ele>
        <time>2016-07-08T14:32:52Z</time>
      </trkpt>
      <trkpt lat="45.859204670414329" lon="7.285542525351048">
        <ele>2068.4099999999999</ele>
        <time>2016-07-08T14:33:19Z</time>
      </trkpt>
      <trkpt lat="45.859210705384612" lon="7.285532634705305">
        <ele>2068.4099999999999</ele>
        <time>2016-07-08T14:33:43Z</time>
      </trkpt>
      <trkpt lat="45.859209867194295" lon="7.285550069063902">
        <ele>2068.4099999999999</ele>
        <time>2016-07-08T14:34:20Z</time>
      </trkpt>
      <trkpt lat="45.859205676242709" lon="7.285543447360396">
        <ele>2068.4099999999999</ele>
        <time>2016-07-08T14:34:49Z</time>
      </trkpt>
      <trkpt lat="45.859211375936866" lon="7.285541016608477">
        <ele>2068.4099999999999</ele>
        <time>2016-07-08T14:35:25Z</time>
      </trkpt>
      <trkpt lat="45.859215566888452" lon="7.285535652190447">
        <ele>2068.4099999999999</ele>
        <time>2016-07-08T14:35:50Z</time>
      </trkpt>
      <trkpt lat="45.859220596030354" lon="7.285549901425839">
        <ele>2068.4099999999999</ele>
        <time>2016-07-08T14:36:16Z</time>
      </trkpt>
      <trkpt lat="45.859209783375263" lon="7.28555291891098">
        <ele>2068.4099999999999</ele>
        <time>2016-07-08T14:36:41Z</time>
      </trkpt>
      <trkpt lat="45.859207855537534" lon="7.285540765151382">
        <ele>2068.4099999999999</ele>
        <time>2016-07-08T14:37:06Z</time>
      </trkpt>
      <trkpt lat="45.859203916043043" lon="7.285535568371415">
        <ele>2068.4099999999999</ele>
        <time>2016-07-08T14:37:35Z</time>
      </trkpt>
      <trkpt lat="45.8592130523175" lon="7.28552894666791">
        <ele>2068.4099999999999</ele>
        <time>2016-07-08T14:38:00Z</time>
      </trkpt>
      <trkpt lat="45.859228391200304" lon="7.285549230873585">
        <ele>2068.8899999999999</ele>
        <time>2016-07-08T14:38:16Z</time>
      </trkpt>
      <trkpt lat="45.859215147793293" lon="7.285569682717323">
        <ele>2069.3800000000001</ele>
        <time>2016-07-08T14:38:27Z</time>
      </trkpt>
      <trkpt lat="45.859231492504478" lon="7.285548057407141">
        <ele>2069.3800000000001</ele>
        <time>2016-07-08T14:38:41Z</time>
      </trkpt>
      <trkpt lat="45.859234929084778" lon="7.285542776808143">
        <ele>2069.8600000000001</ele>
        <time>2016-07-08T14:38:52Z</time>
      </trkpt>
      <trkpt lat="45.859236270189285" lon="7.285525510087609">
        <ele>2069.8600000000001</ele>
        <time>2016-07-08T14:39:03Z</time>
      </trkpt>
      <trkpt lat="45.859227469190955" lon="7.285551326349378">
        <ele>2069.8600000000001</ele>
        <time>2016-07-08T14:39:16Z</time>
      </trkpt>
      <trkpt lat="45.859226379543543" lon="7.285554092377424">
        <ele>2069.8600000000001</ele>
        <time>2016-07-08T14:39:32Z</time>
      </trkpt>
      <trkpt lat="45.859223362058401" lon="7.285546967759728">
        <ele>2069.8600000000001</ele>
        <time>2016-07-08T14:39:45Z</time>
      </trkpt>
      <trkpt lat="45.859221518039703" lon="7.285541938617826">
        <ele>2070.3400000000001</ele>
        <time>2016-07-08T14:39:49Z</time>
      </trkpt>
      <trkpt lat="45.859248926863074" lon="7.285506734624505">
        <ele>2069.3800000000001</ele>
        <time>2016-07-08T14:39:57Z</time>
      </trkpt>
      <trkpt lat="45.859253033995628" lon="7.285471865907311">
        <ele>2069.3800000000001</ele>
        <time>2016-07-08T14:40:08Z</time>
      </trkpt>
      <trkpt lat="45.859299888834357" lon="7.285416377708316">
        <ele>2069.3800000000001</ele>
        <time>2016-07-08T14:40:18Z</time>
      </trkpt>
      <trkpt lat="45.859278850257397" lon="7.285386454313994">
        <ele>2069.8600000000001</ele>
        <time>2016-07-08T14:40:23Z</time>
      </trkpt>
      <trkpt lat="45.859285555779934" lon="7.285283105447888">
        <ele>2070.8200000000002</ele>
        <time>2016-07-08T14:40:31Z</time>
      </trkpt>
      <trkpt lat="45.859314221888781" lon="7.285203225910664">
        <ele>2071.3000000000002</ele>
        <time>2016-07-08T14:40:38Z</time>
      </trkpt>
      <trkpt lat="45.85933031514287" lon="7.285091243684292">
        <ele>2072.2600000000002</ele>
        <time>2016-07-08T14:40:48Z</time>
      </trkpt>
      <trkpt lat="45.859322100877762" lon="7.284973142668605">
        <ele>2073.2199999999998</ele>
        <time>2016-07-08T14:40:57Z</time>
      </trkpt>
      <trkpt lat="45.859303828328848" lon="7.284843977540731">
        <ele>2073.6999999999998</ele>
        <time>2016-07-08T14:41:07Z</time>
      </trkpt>
      <trkpt lat="45.859301062300801" lon="7.284832326695323">
        <ele>2073.6999999999998</ele>
        <time>2016-07-08T14:41:08Z</time>
      </trkpt>
      <trkpt lat="45.859285555779934" lon="7.284807516261935">
        <ele>2073.6999999999998</ele>
        <time>2016-07-08T14:41:11Z</time>
      </trkpt>
      <trkpt lat="45.859257727861404" lon="7.28468606248498">
        <ele>2074.6599999999999</ele>
        <time>2016-07-08T14:41:20Z</time>
      </trkpt>
      <trkpt lat="45.859246579930186" lon="7.284673238173127">
        <ele>2074.6599999999999</ele>
        <time>2016-07-08T14:41:22Z</time>
      </trkpt>
      <trkpt lat="45.859186146408319" lon="7.284662509337068">
        <ele>2075.6199999999999</ele>
        <time>2016-07-08T14:41:31Z</time>
      </trkpt>
      <trkpt lat="45.859141638502479" lon="7.284650271758437">
        <ele>2076.0999999999999</ele>
        <time>2016-07-08T14:41:37Z</time>
      </trkpt>
      <trkpt lat="45.859086234122515" lon="7.284574750810862">
        <ele>2077.5500000000002</ele>
        <time>2016-07-08T14:41:48Z</time>
      </trkpt>
      <trkpt lat="45.85901515558362" lon="7.284548096358776">
        <ele>2079.4699999999998</ele>
        <time>2016-07-08T14:42:00Z</time>
      </trkpt>
      <trkpt lat="45.859007444232702" lon="7.284549437463284">
        <ele>2079.4699999999998</ele>
        <time>2016-07-08T14:42:01Z</time>
      </trkpt>
      <trkpt lat="45.85895162075758" lon="7.28458983823657">
        <ele>2081.8699999999999</ele>
        <time>2016-07-08T14:42:14Z</time>
      </trkpt>
      <trkpt lat="45.858883475884795" lon="7.284588245674968">
        <ele>2083.3099999999999</ele>
        <time>2016-07-08T14:42:25Z</time>
      </trkpt>
      <trkpt lat="45.858813989907503" lon="7.284591933712363">
        <ele>2084.2800000000002</ele>
        <time>2016-07-08T14:42:38Z</time>
      </trkpt>
      <trkpt lat="45.85873369127512" lon="7.284673405811191">
        <ele>2085.2399999999998</ele>
        <time>2016-07-08T14:42:49Z</time>
      </trkpt>
      <trkpt lat="45.858674682676792" lon="7.284769965335727">
        <ele>2085.7199999999998</ele>
        <time>2016-07-08T14:43:00Z</time>
      </trkpt>
      <trkpt lat="45.858624977990985" lon="7.284832997247577">
        <ele>2086.6799999999998</ele>
        <time>2016-07-08T14:43:09Z</time>
      </trkpt>
      <trkpt lat="45.858604023233056" lon="7.284932574257255">
        <ele>2088.1199999999999</ele>
        <time>2016-07-08T14:43:21Z</time>
      </trkpt>
      <trkpt lat="45.858574435114861" lon="7.28499099612236">
        <ele>2089.0799999999999</ele>
        <time>2016-07-08T14:43:31Z</time>
      </trkpt>
      <trkpt lat="45.858534537255764" lon="7.285051597282291">
        <ele>2091</ele>
        <time>2016-07-08T14:43:42Z</time>
      </trkpt>
      <trkpt lat="45.858542919158936" lon="7.285062912851572">
        <ele>2089.5599999999999</ele>
        <time>2016-07-08T14:43:53Z</time>
      </trkpt>
      <trkpt lat="45.858543841168284" lon="7.285088477656245">
        <ele>2089.5599999999999</ele>
        <time>2016-07-08T14:43:57Z</time>
      </trkpt>
      <trkpt lat="45.858528418466449" lon="7.285279920324683">
        <ele>2089.5599999999999</ele>
        <time>2016-07-08T14:44:10Z</time>
      </trkpt>
      <trkpt lat="45.858512744307518" lon="7.285369522869587">
        <ele>2090.04</ele>
        <time>2016-07-08T14:44:16Z</time>
      </trkpt>
      <trkpt lat="45.858496986329556" lon="7.285449402406812">
        <ele>2090.04</ele>
        <time>2016-07-08T14:44:22Z</time>
      </trkpt>
      <trkpt lat="45.858454741537571" lon="7.285486115142703">
        <ele>2091</ele>
        <time>2016-07-08T14:44:32Z</time>
      </trkpt>
      <trkpt lat="45.858403360471129" lon="7.285460969433188">
        <ele>2092.9299999999998</ele>
        <time>2016-07-08T14:44:42Z</time>
      </trkpt>
      <trkpt lat="45.858415011316538" lon="7.285400703549385">
        <ele>2093.8899999999999</ele>
        <time>2016-07-08T14:44:49Z</time>
      </trkpt>
      <trkpt lat="45.858404785394669" lon="7.285424172878265">
        <ele>2093.8899999999999</ele>
        <time>2016-07-08T14:44:59Z</time>
      </trkpt>
      <trkpt lat="45.858391877263784" lon="7.285459209233522">
        <ele>2093.8899999999999</ele>
        <time>2016-07-08T14:45:12Z</time>
      </trkpt>
      <trkpt lat="45.858389781787992" lon="7.285465663298965">
        <ele>2093.8899999999999</ele>
        <time>2016-07-08T14:45:13Z</time>
      </trkpt>
      <trkpt lat="45.858360193669796" lon="7.285553840920329">
        <ele>2095.3299999999999</ele>
        <time>2016-07-08T14:45:24Z</time>
      </trkpt>
      <trkpt lat="45.8583012688905" lon="7.285697171464562">
        <ele>2095.8099999999999</ele>
        <time>2016-07-08T14:45:36Z</time>
      </trkpt>
      <trkpt lat="45.858290120959282" lon="7.285730615258217">
        <ele>2096.29</ele>
        <time>2016-07-08T14:45:43Z</time>
      </trkpt>
      <trkpt lat="45.858252234756947" lon="7.285800604149699">
        <ele>2096.29</ele>
        <time>2016-07-08T14:45:54Z</time>
      </trkpt>
      <trkpt lat="45.858226586133242" lon="7.285906635224819">
        <ele>2097.25</ele>
        <time>2016-07-08T14:46:02Z</time>
      </trkpt>
      <trkpt lat="45.858169002458453" lon="7.286001099273562">
        <ele>2097.25</ele>
        <time>2016-07-08T14:46:11Z</time>
      </trkpt>
      <trkpt lat="45.858126422390342" lon="7.286141747608781">
        <ele>2097.25</ele>
        <time>2016-07-08T14:46:20Z</time>
      </trkpt>
      <trkpt lat="45.858089290559292" lon="7.28620033711195">
        <ele>2096.77</ele>
        <time>2016-07-08T14:46:25Z</time>
      </trkpt>
      <trkpt lat="45.858032209798694" lon="7.286292286589742">
        <ele>2098.6999999999998</ele>
        <time>2016-07-08T14:46:35Z</time>
      </trkpt>
      <trkpt lat="45.857950318604708" lon="7.286363700404763">
        <ele>2099.6599999999999</ele>
        <time>2016-07-08T14:46:47Z</time>
      </trkpt>
      <trkpt lat="45.857839928939939" lon="7.286357497796416">
        <ele>2100.6199999999999</ele>
        <time>2016-07-08T14:47:01Z</time>
      </trkpt>
      <trkpt lat="45.857781590893865" lon="7.286401921883225">
        <ele>2102.54</ele>
        <time>2016-07-08T14:47:12Z</time>
      </trkpt>
      <trkpt lat="45.857734819874167" lon="7.286413991823793">
        <ele>2104.46</ele>
        <time>2016-07-08T14:47:21Z</time>
      </trkpt>
      <trkpt lat="45.857736580073833" lon="7.286441568285227">
        <ele>2103.98</ele>
        <time>2016-07-08T14:47:30Z</time>
      </trkpt>
      <trkpt lat="45.857734316959977" lon="7.286441568285227">
        <ele>2103.5</ele>
        <time>2016-07-08T14:47:39Z</time>
      </trkpt>
      <trkpt lat="45.857737837359309" lon="7.286424301564694">
        <ele>2104.46</ele>
        <time>2016-07-08T14:47:51Z</time>
      </trkpt>
      <trkpt lat="45.857707494869828" lon="7.286453051492572">
        <ele>2104.9400000000001</ele>
        <time>2016-07-08T14:48:07Z</time>
      </trkpt>
      <trkpt lat="45.857662232592702" lon="7.286471659317613">
        <ele>2104.46</ele>
        <time>2016-07-08T14:48:15Z</time>
      </trkpt>
      <trkpt lat="45.85753365419805" lon="7.286538379266858">
        <ele>2104.46</ele>
        <time>2016-07-08T14:48:27Z</time>
      </trkpt>
      <trkpt lat="45.857411026954651" lon="7.286585317924619">
        <ele>2104.9400000000001</ele>
        <time>2016-07-08T14:48:41Z</time>
      </trkpt>
      <trkpt lat="45.857299212366343" lon="7.286653378978372">
        <ele>2106.8699999999999</ele>
        <time>2016-07-08T14:48:54Z</time>
      </trkpt>
      <trkpt lat="45.857208352535963" lon="7.286680117249489">
        <ele>2106.3899999999999</ele>
        <time>2016-07-08T14:49:04Z</time>
      </trkpt>
      <trkpt lat="45.857199635356665" lon="7.286689504981041">
        <ele>2106.3899999999999</ele>
        <time>2016-07-08T14:49:16Z</time>
      </trkpt>
      <trkpt lat="45.857183039188385" lon="7.2866674605757">
        <ele>2106.3899999999999</ele>
        <time>2016-07-08T14:49:20Z</time>
      </trkpt>
      <trkpt lat="45.85715445689857" lon="7.286571990698576">
        <ele>2104.9400000000001</ele>
        <time>2016-07-08T14:49:28Z</time>
      </trkpt>
      <trkpt lat="45.85715688765049" lon="7.286541061475873">
        <ele>2104.9400000000001</ele>
        <time>2016-07-08T14:49:30Z</time>
      </trkpt>
      <trkpt lat="45.857112044468522" lon="7.286428492516279">
        <ele>2106.3899999999999</ele>
        <time>2016-07-08T14:49:41Z</time>
      </trkpt>
      <trkpt lat="45.857061669230461" lon="7.286411561071873">
        <ele>2107.3499999999999</ele>
        <time>2016-07-08T14:49:50Z</time>
      </trkpt>
      <trkpt lat="45.857038116082549" lon="7.286392534151673">
        <ele>2107.3499999999999</ele>
        <time>2016-07-08T14:49:53Z</time>
      </trkpt>
      <trkpt lat="45.856981538236141" lon="7.286309553310275">
        <ele>2107.8299999999999</ele>
        <time>2016-07-08T14:50:02Z</time>
      </trkpt>
      <trkpt lat="45.85691062733531" lon="7.286259345710278">
        <ele>2108.3099999999999</ele>
        <time>2016-07-08T14:50:12Z</time>
      </trkpt>
      <trkpt lat="45.856857653707266" lon="7.286260602995753">
        <ele>2108.3099999999999</ele>
        <time>2016-07-08T14:50:19Z</time>
      </trkpt>
      <trkpt lat="45.856789592653513" lon="7.286215256899595">
        <ele>2107.8299999999999</ele>
        <time>2016-07-08T14:50:27Z</time>
      </trkpt>
      <trkpt lat="45.856742989271879" lon="7.28618667460978">
        <ele>2107.8299999999999</ele>
        <time>2016-07-08T14:50:32Z</time>
      </trkpt>
      <trkpt lat="45.856671156361699" lon="7.286134790629149">
        <ele>2108.79</ele>
        <time>2016-07-08T14:50:41Z</time>
      </trkpt>
      <trkpt lat="45.856632012873888" lon="7.286119787022471">
        <ele>2108.79</ele>
        <time>2016-07-08T14:50:45Z</time>
      </trkpt>
      <trkpt lat="45.856611477211118" lon="7.286100760102272">
        <ele>2108.79</ele>
        <time>2016-07-08T14:50:48Z</time>
      </trkpt>
      <trkpt lat="45.856534028425813" lon="7.286062957718968">
        <ele>2109.27</ele>
        <time>2016-07-08T14:50:57Z</time>
      </trkpt>
      <trkpt lat="45.856430428102612" lon="7.28596874512732">
        <ele>2109.27</ele>
        <time>2016-07-08T14:51:10Z</time>
      </trkpt>
      <trkpt lat="45.856333365663886" lon="7.285873359069228">
        <ele>2108.79</ele>
        <time>2016-07-08T14:51:24Z</time>
      </trkpt>
      <trkpt lat="45.856256252154708" lon="7.285808231681585">
        <ele>2109.75</ele>
        <time>2016-07-08T14:51:36Z</time>
      </trkpt>
      <trkpt lat="45.856150221079588" lon="7.28575961664319">
        <ele>2111.1900000000001</ele>
        <time>2016-07-08T14:51:51Z</time>
      </trkpt>
      <trkpt lat="45.856141000986099" lon="7.285759449005127">
        <ele>2110.71</ele>
        <time>2016-07-08T14:51:52Z</time>
      </trkpt>
      <trkpt lat="45.856058606877923" lon="7.285715695470572">
        <ele>2111.1900000000001</ele>
        <time>2016-07-08T14:52:02Z</time>
      </trkpt>
      <trkpt lat="45.856013931334019" lon="7.285711420699954">
        <ele>2112.1500000000001</ele>
        <time>2016-07-08T14:52:08Z</time>
      </trkpt>
      <trkpt lat="45.855939164757729" lon="7.285702871158719">
        <ele>2112.1500000000001</ele>
        <time>2016-07-08T14:52:17Z</time>
      </trkpt>
      <trkpt lat="45.855921478942037" lon="7.285715360194445">
        <ele>2112.1500000000001</ele>
        <time>2016-07-08T14:52:19Z</time>
      </trkpt>
      <trkpt lat="45.855880239978433" lon="7.285699602216482">
        <ele>2112.1500000000001</ele>
        <time>2016-07-08T14:52:27Z</time>
      </trkpt>
      <trkpt lat="45.855816453695297" lon="7.285702116787434">
        <ele>2112.6300000000001</ele>
        <time>2016-07-08T14:52:35Z</time>
      </trkpt>
      <trkpt lat="45.855798181146383" lon="7.285714689642191">
        <ele>2112.6300000000001</ele>
        <time>2016-07-08T14:52:38Z</time>
      </trkpt>
      <trkpt lat="45.855742106214166" lon="7.285677306354046">
        <ele>2112.6300000000001</ele>
        <time>2016-07-08T14:52:47Z</time>
      </trkpt>
      <trkpt lat="45.855699107050896" lon="7.285673199221492">
        <ele>2113.1199999999999</ele>
        <time>2016-07-08T14:52:53Z</time>
      </trkpt>
      <trkpt lat="45.855629537254572" lon="7.285612681880593">
        <ele>2113.1199999999999</ele>
        <time>2016-07-08T14:53:03Z</time>
      </trkpt>
      <trkpt lat="45.8556142821908" lon="7.285597678273916">
        <ele>2113.1199999999999</ele>
        <time>2016-07-08T14:53:05Z</time>
      </trkpt>
      <trkpt lat="45.855595171451569" lon="7.285592062398791">
        <ele>2113.5999999999999</ele>
        <time>2016-07-08T14:53:07Z</time>
      </trkpt>
      <trkpt lat="45.855553932487965" lon="7.285551745444536">
        <ele>2114.0799999999999</ele>
        <time>2016-07-08T14:53:13Z</time>
      </trkpt>
      <trkpt lat="45.855481680482626" lon="7.285492401570082">
        <ele>2114.0799999999999</ele>
        <time>2016-07-08T14:53:22Z</time>
      </trkpt>
      <trkpt lat="45.855462150648236" lon="7.285463819280267">
        <ele>2114.0799999999999</ele>
        <time>2016-07-08T14:53:25Z</time>
      </trkpt>
      <trkpt lat="45.855446560308337" lon="7.28543565608561">
        <ele>2114.5599999999999</ele>
        <time>2016-07-08T14:53:28Z</time>
      </trkpt>
      <trkpt lat="45.855423510074615" lon="7.28541218675673">
        <ele>2114.5599999999999</ele>
        <time>2016-07-08T14:53:31Z</time>
      </trkpt>
      <trkpt lat="45.855389647185802" lon="7.285383939743042">
        <ele>2114.5599999999999</ele>
        <time>2016-07-08T14:53:35Z</time>
      </trkpt>
      <trkpt lat="45.855305911973119" lon="7.285381257534027">
        <ele>2115.52</ele>
        <time>2016-07-08T14:53:44Z</time>
      </trkpt>
      <trkpt lat="45.855251848697662" lon="7.285342700779438">
        <ele>2116</ele>
        <time>2016-07-08T14:53:52Z</time>
      </trkpt>
      <trkpt lat="45.855217566713691" lon="7.285318141803145">
        <ele>2116</ele>
        <time>2016-07-08T14:53:56Z</time>
      </trkpt>
      <trkpt lat="45.85516425780952" lon="7.285296097397804">
        <ele>2117.4400000000001</ele>
        <time>2016-07-08T14:54:03Z</time>
      </trkpt>
      <trkpt lat="45.855141878128052" lon="7.285270867869258">
        <ele>2117.4400000000001</ele>
        <time>2016-07-08T14:54:06Z</time>
      </trkpt>
      <trkpt lat="45.855072727426887" lon="7.285224851220846">
        <ele>2118.4000000000001</ele>
        <time>2016-07-08T14:54:15Z</time>
      </trkpt>
      <trkpt lat="45.855004666373134" lon="7.285188473761082">
        <ele>2119.3600000000001</ele>
        <time>2016-07-08T14:54:23Z</time>
      </trkpt>
      <trkpt lat="45.854991842061281" lon="7.285174475982785">
        <ele>2119.3600000000001</ele>
        <time>2016-07-08T14:54:25Z</time>
      </trkpt>
      <trkpt lat="45.854916153475642" lon="7.285140864551067">
        <ele>2120.3200000000002</ele>
        <time>2016-07-08T14:54:34Z</time>
      </trkpt>
      <trkpt lat="45.85490140132606" lon="7.285132650285959">
        <ele>2120.3200000000002</ele>
        <time>2016-07-08T14:54:36Z</time>
      </trkpt>
      <trkpt lat="45.85482026450336" lon="7.2850960213691">
        <ele>2120.8099999999999</ele>
        <time>2016-07-08T14:54:46Z</time>
      </trkpt>
      <trkpt lat="45.854751784354448" lon="7.285040784627199">
        <ele>2121.77</ele>
        <time>2016-07-08T14:54:55Z</time>
      </trkpt>
      <trkpt lat="45.854694787412882" lon="7.28499099612236">
        <ele>2121.77</ele>
        <time>2016-07-08T14:55:03Z</time>
      </trkpt>
      <trkpt lat="45.85466536693275" lon="7.28498462587595">
        <ele>2121.77</ele>
        <time>2016-07-08T14:55:07Z</time>
      </trkpt>
      <trkpt lat="45.854588504880667" lon="7.284967778250575">
        <ele>2122.73</ele>
        <time>2016-07-08T14:55:16Z</time>
      </trkpt>
      <trkpt lat="45.85454567335546" lon="7.284921342507005">
        <ele>2123.21</ele>
        <time>2016-07-08T14:55:23Z</time>
      </trkpt>
      <trkpt lat="45.854508290067315" lon="7.284890664741397">
        <ele>2122.73</ele>
        <time>2016-07-08T14:55:29Z</time>
      </trkpt>
      <trkpt lat="45.854461519047618" lon="7.28478915989399">
        <ele>2123.21</ele>
        <time>2016-07-08T14:55:37Z</time>
      </trkpt>
      <trkpt lat="45.854419022798538" lon="7.284688912332058">
        <ele>2123.21</ele>
        <time>2016-07-08T14:55:46Z</time>
      </trkpt>
      <trkpt lat="45.854412987828255" lon="7.284680362790823">
        <ele>2123.6900000000001</ele>
        <time>2016-07-08T14:55:47Z</time>
      </trkpt>
      <trkpt lat="45.854392452165484" lon="7.28466359898448">
        <ele>2123.6900000000001</ele>
        <time>2016-07-08T14:55:50Z</time>
      </trkpt>
      <trkpt lat="45.854343669489026" lon="7.284564608708024">
        <ele>2124.1700000000001</ele>
        <time>2016-07-08T14:56:00Z</time>
      </trkpt>
      <trkpt lat="45.854302765801549" lon="7.284449441358447">
        <ele>2124.6500000000001</ele>
        <time>2016-07-08T14:56:10Z</time>
      </trkpt>
      <trkpt lat="45.854285163804889" lon="7.284367801621556">
        <ele>2125.6100000000001</ele>
        <time>2016-07-08T14:56:19Z</time>
      </trkpt>
      <trkpt lat="45.854259515181184" lon="7.284295298159123">
        <ele>2126.5700000000002</ele>
        <time>2016-07-08T14:56:28Z</time>
      </trkpt>
      <trkpt lat="45.8542207069695" lon="7.284194715321064">
        <ele>2127.0500000000002</ele>
        <time>2016-07-08T14:56:38Z</time>
      </trkpt>
      <trkpt lat="45.854208469390869" lon="7.284117266535759">
        <ele>2128.02</ele>
        <time>2016-07-08T14:56:45Z</time>
      </trkpt>
      <trkpt lat="45.854155411943793" lon="7.284010145813227">
        <ele>2128.02</ele>
        <time>2016-07-08T14:56:56Z</time>
      </trkpt>
      <trkpt lat="45.854139570146799" lon="7.283898498862982">
        <ele>2128.5</ele>
        <time>2016-07-08T14:57:05Z</time>
      </trkpt>
      <trkpt lat="45.85413764230907" lon="7.283854158595204">
        <ele>2128.98</ele>
        <time>2016-07-08T14:57:08Z</time>
      </trkpt>
      <trkpt lat="45.854090536013246" lon="7.283771177753806">
        <ele>2128.98</ele>
        <time>2016-07-08T14:57:18Z</time>
      </trkpt>
      <trkpt lat="45.854073688387871" lon="7.283759191632271">
        <ele>2128.98</ele>
        <time>2016-07-08T14:57:21Z</time>
      </trkpt>
      <trkpt lat="45.854042759165168" lon="7.283636732026935">
        <ele>2129.46</ele>
        <time>2016-07-08T14:57:31Z</time>
      </trkpt>
      <trkpt lat="45.853998837992549" lon="7.283523324877024">
        <ele>2129.9400000000001</ele>
        <time>2016-07-08T14:57:41Z</time>
      </trkpt>
      <trkpt lat="45.853952402248979" lon="7.28341125883162">
        <ele>2130.4200000000001</ele>
        <time>2016-07-08T14:57:51Z</time>
      </trkpt>
      <trkpt lat="45.853932201862335" lon="7.283273041248322">
        <ele>2130.4200000000001</ele>
        <time>2016-07-08T14:58:02Z</time>
      </trkpt>
      <trkpt lat="45.85391828790307" lon="7.283220570534468">
        <ele>2130.4200000000001</ele>
        <time>2016-07-08T14:58:06Z</time>
      </trkpt>
      <trkpt lat="45.853852909058332" lon="7.283188132569194">
        <ele>2130.9000000000001</ele>
        <time>2016-07-08T14:58:15Z</time>
      </trkpt>
      <trkpt lat="45.853816028684378" lon="7.283151336014271">
        <ele>2131.3800000000001</ele>
        <time>2016-07-08T14:58:24Z</time>
      </trkpt>
      <trkpt lat="45.853798594325781" lon="7.283171704038978">
        <ele>2131.8600000000001</ele>
        <time>2016-07-08T14:58:27Z</time>
      </trkpt>
      <trkpt lat="45.853736232966185" lon="7.283119149506092">
        <ele>2132.3400000000001</ele>
        <time>2016-07-08T14:58:39Z</time>
      </trkpt>
      <trkpt lat="45.853683091700077" lon="7.283157035708427">
        <ele>2133.7800000000002</ele>
        <time>2016-07-08T14:58:51Z</time>
      </trkpt>
      <trkpt lat="45.853669261559844" lon="7.283149240538478">
        <ele>2133.7800000000002</ele>
        <time>2016-07-08T14:58:54Z</time>
      </trkpt>
      <trkpt lat="45.853620395064354" lon="7.283120574429631">
        <ele>2135.23</ele>
        <time>2016-07-08T14:59:03Z</time>
      </trkpt>
      <trkpt lat="45.853614779189229" lon="7.2831273637712">
        <ele>2135.23</ele>
        <time>2016-07-08T14:59:04Z</time>
      </trkpt>
      <trkpt lat="45.853578234091401" lon="7.283108672127128">
        <ele>2135.71</ele>
        <time>2016-07-08T14:59:09Z</time>
      </trkpt>
      <trkpt lat="45.853476645424962" lon="7.283083274960518">
        <ele>2137.1500000000001</ele>
        <time>2016-07-08T14:59:22Z</time>
      </trkpt>
      <trkpt lat="45.8534384239465" lon="7.283036671578884">
        <ele>2137.6300000000001</ele>
        <time>2016-07-08T14:59:32Z</time>
      </trkpt>
      <trkpt lat="45.853431886062026" lon="7.28303013369441">
        <ele>2137.6300000000001</ele>
        <time>2016-07-08T14:59:34Z</time>
      </trkpt>
      <trkpt lat="45.853371117264032" lon="7.283018063753843">
        <ele>2139.5500000000002</ele>
        <time>2016-07-08T14:59:44Z</time>
      </trkpt>
      <trkpt lat="45.853321831673384" lon="7.28297246620059">
        <ele>2140.0300000000002</ele>
        <time>2016-07-08T14:59:53Z</time>
      </trkpt>
      <trkpt lat="45.853256620466709" lon="7.282949918881059">
        <ele>2141.4699999999998</ele>
        <time>2016-07-08T15:00:04Z</time>
      </trkpt>
      <trkpt lat="45.853209597989917" lon="7.282921923324466">
        <ele>2142.9200000000001</ele>
        <time>2016-07-08T15:00:14Z</time>
      </trkpt>
      <trkpt lat="45.853141620755196" lon="7.28290013037622">
        <ele>2144.8400000000001</ele>
        <time>2016-07-08T15:00:25Z</time>
      </trkpt>
      <trkpt lat="45.8530636690557" lon="7.282882193103433">
        <ele>2145.8000000000002</ele>
        <time>2016-07-08T15:00:35Z</time>
      </trkpt>
      <trkpt lat="45.853020334616303" lon="7.282847156748176">
        <ele>2145.8000000000002</ele>
        <time>2016-07-08T15:00:40Z</time>
      </trkpt>
      <trkpt lat="45.852890247479081" lon="7.282831063494086">
        <ele>2145.8000000000002</ele>
        <time>2016-07-08T15:00:53Z</time>
      </trkpt>
      <trkpt lat="45.85278706625104" lon="7.28279166854918">
        <ele>2147.2399999999998</ele>
        <time>2016-07-08T15:01:06Z</time>
      </trkpt>
      <trkpt lat="45.85268396884203" lon="7.282817987725139">
        <ele>2148.1999999999998</ele>
        <time>2016-07-08T15:01:17Z</time>
      </trkpt>
      <trkpt lat="45.852613728493452" lon="7.282820837572217">
        <ele>2149.6500000000001</ele>
        <time>2016-07-08T15:01:26Z</time>
      </trkpt>
      <trkpt lat="45.852516498416662" lon="7.282801726832986">
        <ele>2150.1300000000001</ele>
        <time>2016-07-08T15:01:36Z</time>
      </trkpt>
      <trkpt lat="45.852484311908484" lon="7.282794434577227">
        <ele>2150.1300000000001</ele>
        <time>2016-07-08T15:01:39Z</time>
      </trkpt>
      <trkpt lat="45.852438462898135" lon="7.282764511182904">
        <ele>2150.1300000000001</ele>
        <time>2016-07-08T15:01:44Z</time>
      </trkpt>
      <trkpt lat="45.852414071559906" lon="7.282763589173555">
        <ele>2150.6100000000001</ele>
        <time>2016-07-08T15:01:47Z</time>
      </trkpt>
      <trkpt lat="45.852341651916504" lon="7.282767780125141">
        <ele>2151.0900000000001</ele>
        <time>2016-07-08T15:01:54Z</time>
      </trkpt>
      <trkpt lat="45.852313656359911" lon="7.282758476212621">
        <ele>2151.0900000000001</ele>
        <time>2016-07-08T15:01:57Z</time>
      </trkpt>
      <trkpt lat="45.8522745128721" lon="7.28275210596621">
        <ele>2151.5700000000002</ele>
        <time>2016-07-08T15:02:01Z</time>
      </trkpt>
      <trkpt lat="45.85221248678863" lon="7.282773731276393">
        <ele>2151.5700000000002</ele>
        <time>2016-07-08T15:02:07Z</time>
      </trkpt>
      <trkpt lat="45.852126320824027" lon="7.282754788175225">
        <ele>2152.0500000000002</ele>
        <time>2016-07-08T15:02:15Z</time>
      </trkpt>
      <trkpt lat="45.852110730484128" lon="7.282745568081737">
        <ele>2152.0500000000002</ele>
        <time>2016-07-08T15:02:17Z</time>
      </trkpt>
      <trkpt lat="45.852060187608004" lon="7.282754285261035">
        <ele>2152.5300000000002</ele>
        <time>2016-07-08T15:02:22Z</time>
      </trkpt>
      <trkpt lat="45.852019619196653" lon="7.282757721841335">
        <ele>2152.5300000000002</ele>
        <time>2016-07-08T15:02:26Z</time>
      </trkpt>
      <trkpt lat="45.851993467658758" lon="7.282751183956862">
        <ele>2152.0500000000002</ele>
        <time>2016-07-08T15:02:29Z</time>
      </trkpt>
      <trkpt lat="45.851879809051752" lon="7.282759314402938">
        <ele>2152.0500000000002</ele>
        <time>2016-07-08T15:02:40Z</time>
      </trkpt>
      <trkpt lat="45.851814597845078" lon="7.282745065167546">
        <ele>2153.0100000000002</ele>
        <time>2016-07-08T15:02:48Z</time>
      </trkpt>
      <trkpt lat="45.851745028048754" lon="7.28275939822197">
        <ele>2153.9699999999998</ele>
        <time>2016-07-08T15:02:57Z</time>
      </trkpt>
      <trkpt lat="45.851717032492161" lon="7.282703490927815">
        <ele>2155.4099999999999</ele>
        <time>2016-07-08T15:03:07Z</time>
      </trkpt>
      <trkpt lat="45.851675039157271" lon="7.282615816220641">
        <ele>2156.3699999999999</ele>
        <time>2016-07-08T15:03:16Z</time>
      </trkpt>
      <trkpt lat="45.851638410240412" lon="7.282614056020975">
        <ele>2157.8200000000002</ele>
        <time>2016-07-08T15:03:28Z</time>
      </trkpt>
      <trkpt lat="45.851620556786656" lon="7.282643979415298">
        <ele>2160.2199999999998</ele>
        <time>2016-07-08T15:03:40Z</time>
      </trkpt>
      <trkpt lat="45.851579653099179" lon="7.282720254734159">
        <ele>2161.6599999999999</ele>
        <time>2016-07-08T15:03:52Z</time>
      </trkpt>
      <trkpt lat="45.851547047495842" lon="7.282613972201943">
        <ele>2163.0999999999999</ele>
        <time>2016-07-08T15:04:02Z</time>
      </trkpt>
      <trkpt lat="45.851535396650434" lon="7.282522609457374">
        <ele>2165.0300000000002</ele>
        <time>2016-07-08T15:04:13Z</time>
      </trkpt>
      <trkpt lat="45.851499605923891" lon="7.282461002469063">
        <ele>2166.9499999999998</ele>
        <time>2016-07-08T15:04:25Z</time>
      </trkpt>
      <trkpt lat="45.851487368345261" lon="7.28240660391748">
        <ele>2169.8299999999999</ele>
        <time>2016-07-08T15:04:36Z</time>
      </trkpt>
      <trkpt lat="45.851462725549936" lon="7.282339632511139">
        <ele>2171.27</ele>
        <time>2016-07-08T15:04:48Z</time>
      </trkpt>
      <trkpt lat="45.851447302848101" lon="7.282253634184599">
        <ele>2173.1999999999998</ele>
        <time>2016-07-08T15:05:00Z</time>
      </trkpt>
      <trkpt lat="45.851416625082493" lon="7.282174341380596">
        <ele>2175.1199999999999</ele>
        <time>2016-07-08T15:05:12Z</time>
      </trkpt>
      <trkpt lat="45.85140866227448" lon="7.282084319740534">
        <ele>2177.04</ele>
        <time>2016-07-08T15:05:22Z</time>
      </trkpt>
      <trkpt lat="45.851395586505532" lon="7.282005697488785">
        <ele>2178.9699999999998</ele>
        <time>2016-07-08T15:05:33Z</time>
      </trkpt>
      <trkpt lat="45.85137203335762" lon="7.281965799629688">
        <ele>2180.4099999999999</ele>
        <time>2016-07-08T15:05:44Z</time>
      </trkpt>
      <trkpt lat="45.851375721395016" lon="7.281943922862411">
        <ele>2181.3699999999999</ele>
        <time>2016-07-08T15:05:55Z</time>
      </trkpt>
      <trkpt lat="45.851338002830744" lon="7.281846525147557">
        <ele>2183.77</ele>
        <time>2016-07-08T15:06:09Z</time>
      </trkpt>
      <trkpt lat="45.851313527673483" lon="7.28172792121768">
        <ele>2185.6900000000001</ele>
        <time>2016-07-08T15:06:23Z</time>
      </trkpt>
      <trkpt lat="45.851332303136587" lon="7.281662542372942">
        <ele>2189.0599999999999</ele>
        <time>2016-07-08T15:06:37Z</time>
      </trkpt>
      <trkpt lat="45.851330878213048" lon="7.281592385843396">
        <ele>2190.02</ele>
        <time>2016-07-08T15:06:48Z</time>
      </trkpt>
      <trkpt lat="45.851288549602032" lon="7.281527761369944">
        <ele>2191.9400000000001</ele>
        <time>2016-07-08T15:07:02Z</time>
      </trkpt>
      <trkpt lat="45.851281341165304" lon="7.281430782750249">
        <ele>2193.8699999999999</ele>
        <time>2016-07-08T15:07:14Z</time>
      </trkpt>
      <trkpt lat="45.851276312023401" lon="7.281352831050754">
        <ele>2195.3099999999999</ele>
        <time>2016-07-08T15:07:26Z</time>
      </trkpt>
      <trkpt lat="45.85125326178968" lon="7.281285524368286">
        <ele>2197.71</ele>
        <time>2016-07-08T15:07:38Z</time>
      </trkpt>
      <trkpt lat="45.851249406114221" lon="7.281295666471124">
        <ele>2197.71</ele>
        <time>2016-07-08T15:07:41Z</time>
      </trkpt>
      <trkpt lat="45.851250579580665" lon="7.281204471364617">
        <ele>2199.1500000000001</ele>
        <time>2016-07-08T15:07:50Z</time>
      </trkpt>
      <trkpt lat="45.85125083103776" lon="7.281127944588661">
        <ele>2200.5900000000001</ele>
        <time>2016-07-08T15:08:02Z</time>
      </trkpt>
      <trkpt lat="45.851258877664804" lon="7.281022081151605">
        <ele>2203</ele>
        <time>2016-07-08T15:08:15Z</time>
      </trkpt>
      <trkpt lat="45.851258793845773" lon="7.280957875773311">
        <ele>2203.96</ele>
        <time>2016-07-08T15:08:24Z</time>
      </trkpt>
      <trkpt lat="45.851240856572986" lon="7.280884701758623">
        <ele>2205.8800000000001</ele>
        <time>2016-07-08T15:08:35Z</time>
      </trkpt>
      <trkpt lat="45.851227110251784" lon="7.280813623219729">
        <ele>2207.8099999999999</ele>
        <time>2016-07-08T15:08:46Z</time>
      </trkpt>
      <trkpt lat="45.851208502426744" lon="7.280727457255125">
        <ele>2209.25</ele>
        <time>2016-07-08T15:08:57Z</time>
      </trkpt>
      <trkpt lat="45.851236833259463" lon="7.28067054413259">
        <ele>2209.73</ele>
        <time>2016-07-08T15:09:07Z</time>
      </trkpt>
      <trkpt lat="45.851247645914555" lon="7.280557053163648">
        <ele>2211.6500000000001</ele>
        <time>2016-07-08T15:09:19Z</time>
      </trkpt>
      <trkpt lat="45.851231636479497" lon="7.280476083979011">
        <ele>2212.6100000000001</ele>
        <time>2016-07-08T15:09:28Z</time>
      </trkpt>
      <trkpt lat="45.851224344223738" lon="7.280346835032105">
        <ele>2214.0500000000002</ele>
        <time>2016-07-08T15:09:40Z</time>
      </trkpt>
      <trkpt lat="45.851217219606042" lon="7.280246922746301">
        <ele>2215.98</ele>
        <time>2016-07-08T15:09:51Z</time>
      </trkpt>
      <trkpt lat="45.851204311475158" lon="7.280142232775688">
        <ele>2217.4200000000001</ele>
        <time>2016-07-08T15:10:02Z</time>
      </trkpt>
      <trkpt lat="45.851201713085175" lon="7.280041230842471">
        <ele>2217.9000000000001</ele>
        <time>2016-07-08T15:10:11Z</time>
      </trkpt>
      <trkpt lat="45.851200455799699" lon="7.280011307448149">
        <ele>2218.3800000000001</ele>
        <time>2016-07-08T15:10:13Z</time>
      </trkpt>
      <trkpt lat="45.851196013391018" lon="7.279960680752993">
        <ele>2218.3800000000001</ele>
        <time>2016-07-08T15:10:17Z</time>
      </trkpt>
      <trkpt lat="45.851198527961969" lon="7.2798359580338">
        <ele>2219.8200000000002</ele>
        <time>2016-07-08T15:10:28Z</time>
      </trkpt>
      <trkpt lat="45.851201377809048" lon="7.279796060174704">
        <ele>2220.3000000000002</ele>
        <time>2016-07-08T15:10:31Z</time>
      </trkpt>
      <trkpt lat="45.851190816611052" lon="7.279656752943993">
        <ele>2221.7399999999998</ele>
        <time>2016-07-08T15:10:42Z</time>
      </trkpt>
      <trkpt lat="45.85117413662374" lon="7.279537059366703">
        <ele>2223.1900000000001</ele>
        <time>2016-07-08T15:10:52Z</time>
      </trkpt>
      <trkpt lat="45.851182183250785" lon="7.279465980827808">
        <ele>2224.6300000000001</ele>
        <time>2016-07-08T15:11:01Z</time>
      </trkpt>
      <trkpt lat="45.851183021441102" lon="7.279457347467542">
        <ele>2225.1100000000001</ele>
        <time>2016-07-08T15:11:02Z</time>
      </trkpt>
      <trkpt lat="45.851182769984007" lon="7.279370091855526">
        <ele>2226.0700000000002</ele>
        <time>2016-07-08T15:11:12Z</time>
      </trkpt>
      <trkpt lat="45.851151086390018" lon="7.279364978894591">
        <ele>2226.5500000000002</ele>
        <time>2016-07-08T15:11:21Z</time>
      </trkpt>
      <trkpt lat="45.851176483556628" lon="7.279371852055192">
        <ele>2227.0300000000002</ele>
        <time>2016-07-08T15:11:43Z</time>
      </trkpt>
      <trkpt lat="45.851175896823406" lon="7.279377803206444">
        <ele>2226.5500000000002</ele>
        <time>2016-07-08T15:11:52Z</time>
      </trkpt>
      <trkpt lat="45.851171538233757" lon="7.279367996379733">
        <ele>2227.5100000000002</ele>
        <time>2016-07-08T15:12:09Z</time>
      </trkpt>
      <trkpt lat="45.851159049198031" lon="7.279356513172388">
        <ele>2227.0300000000002</ele>
        <time>2016-07-08T15:12:23Z</time>
      </trkpt>
      <trkpt lat="45.85116533562541" lon="7.279366571456194">
        <ele>2227.0300000000002</ele>
        <time>2016-07-08T15:12:38Z</time>
      </trkpt>
      <trkpt lat="45.851178327575326" lon="7.279370930045843">
        <ele>2227.0300000000002</ele>
        <time>2016-07-08T15:12:41Z</time>
      </trkpt>
      <trkpt lat="45.851219734176993" lon="7.279379311949015">
        <ele>2226.5500000000002</ele>
        <time>2016-07-08T15:12:52Z</time>
      </trkpt>
      <trkpt lat="45.851203557103872" lon="7.279388112947345">
        <ele>2226.5500000000002</ele>
        <time>2016-07-08T15:13:08Z</time>
      </trkpt>
      <trkpt lat="45.851203221827745" lon="7.279413845390081">
        <ele>2226.5500000000002</ele>
        <time>2016-07-08T15:13:20Z</time>
      </trkpt>
      <trkpt lat="45.851183189079165" lon="7.27941082790494">
        <ele>2227.0300000000002</ele>
        <time>2016-07-08T15:13:34Z</time>
      </trkpt>
      <trkpt lat="45.851159635931253" lon="7.279378725215793">
        <ele>2227.0300000000002</ele>
        <time>2016-07-08T15:13:38Z</time>
      </trkpt>
      <trkpt lat="45.851116301491857" lon="7.279319548979402">
        <ele>2227.9899999999998</ele>
        <time>2016-07-08T15:13:47Z</time>
      </trkpt>
      <trkpt lat="45.851074308156967" lon="7.279282752424479">
        <ele>2229.4299999999998</ele>
        <time>2016-07-08T15:13:57Z</time>
      </trkpt>
      <trkpt lat="45.851081851869822" lon="7.279183678328991">
        <ele>2230.8800000000001</ele>
        <time>2016-07-08T15:14:08Z</time>
      </trkpt>
      <trkpt lat="45.851112781092525" lon="7.279126765206456">
        <ele>2231.8400000000001</ele>
        <time>2016-07-08T15:14:16Z</time>
      </trkpt>
      <trkpt lat="45.851107584312558" lon="7.279054261744022">
        <ele>2234.2399999999998</ele>
        <time>2016-07-08T15:14:27Z</time>
      </trkpt>
      <trkpt lat="45.851083528250456" lon="7.278968514874578">
        <ele>2235.6799999999998</ele>
        <time>2016-07-08T15:14:37Z</time>
      </trkpt>
      <trkpt lat="45.851075565442443" lon="7.278921995311976">
        <ele>2236.1599999999999</ele>
        <time>2016-07-08T15:14:48Z</time>
      </trkpt>
      <trkpt lat="45.851057963445783" lon="7.278866255655885">
        <ele>2237.6100000000001</ele>
        <time>2016-07-08T15:14:57Z</time>
      </trkpt>
      <trkpt lat="45.851018652319908" lon="7.278788220137358">
        <ele>2239.5300000000002</ele>
        <time>2016-07-08T15:15:09Z</time>
      </trkpt>
      <trkpt lat="45.851012449711561" lon="7.278718901798129">
        <ele>2240.9699999999998</ele>
        <time>2016-07-08T15:15:18Z</time>
      </trkpt>
      <trkpt lat="45.850973390042782" lon="7.278635250404477">
        <ele>2242.8899999999999</ele>
        <time>2016-07-08T15:15:29Z</time>
      </trkpt>
      <trkpt lat="45.850928379222751" lon="7.27865737862885">
        <ele>2244.8200000000002</ele>
        <time>2016-07-08T15:15:41Z</time>
      </trkpt>
      <trkpt lat="45.850888146087527" lon="7.278700293973088">
        <ele>2246.2600000000002</ele>
        <time>2016-07-08T15:15:50Z</time>
      </trkpt>
      <trkpt lat="45.8508291374892" lon="7.27873214520514">
        <ele>2247.6999999999998</ele>
        <time>2016-07-08T15:15:59Z</time>
      </trkpt>
      <trkpt lat="45.850839195773005" lon="7.278595604002476">
        <ele>2248.6599999999999</ele>
        <time>2016-07-08T15:16:11Z</time>
      </trkpt>
      <trkpt lat="45.850865263491869" lon="7.278491919860244">
        <ele>2250.5799999999999</ele>
        <time>2016-07-08T15:16:22Z</time>
      </trkpt>
      <trkpt lat="45.850882949307561" lon="7.278431402519345">
        <ele>2252.5100000000002</ele>
        <time>2016-07-08T15:16:32Z</time>
      </trkpt>
      <trkpt lat="45.850885128602386" lon="7.278339369222522">
        <ele>2254.4299999999998</ele>
        <time>2016-07-08T15:16:43Z</time>
      </trkpt>
      <trkpt lat="45.850873645395041" lon="7.278229985386133">
        <ele>2256.3499999999999</ele>
        <time>2016-07-08T15:16:56Z</time>
      </trkpt>
      <trkpt lat="45.850856211036444" lon="7.27817215025425">
        <ele>2256.8299999999999</ele>
        <time>2016-07-08T15:17:06Z</time>
      </trkpt>
      <trkpt lat="45.85084967315197" lon="7.278143651783466">
        <ele>2257.79</ele>
        <time>2016-07-08T15:17:09Z</time>
      </trkpt>
      <trkpt lat="45.850856127217412" lon="7.278123702853918">
        <ele>2258.27</ele>
        <time>2016-07-08T15:17:11Z</time>
      </trkpt>
      <trkpt lat="45.850932486355305" lon="7.278040051460266">
        <ele>2260.6799999999998</ele>
        <time>2016-07-08T15:17:24Z</time>
      </trkpt>
      <trkpt lat="45.850949166342616" lon="7.27796109393239">
        <ele>2262.5999999999999</ele>
        <time>2016-07-08T15:17:34Z</time>
      </trkpt>
      <trkpt lat="45.850892253220081" lon="7.277914993464947">
        <ele>2264.52</ele>
        <time>2016-07-08T15:17:45Z</time>
      </trkpt>
      <trkpt lat="45.850841542705894" lon="7.277900241315365">
        <ele>2265.48</ele>
        <time>2016-07-08T15:17:55Z</time>
      </trkpt>
      <trkpt lat="45.850806506350636" lon="7.27784383110702">
        <ele>2266.9299999999998</ele>
        <time>2016-07-08T15:18:04Z</time>
      </trkpt>
      <trkpt lat="45.850761998444796" lon="7.277811979874969">
        <ele>2269.3299999999999</ele>
        <time>2016-07-08T15:18:17Z</time>
      </trkpt>
      <trkpt lat="45.850736182183027" lon="7.277692034840584">
        <ele>2271.25</ele>
        <time>2016-07-08T15:18:30Z</time>
      </trkpt>
      <trkpt lat="45.850711120292544" lon="7.277618190273643">
        <ele>2274.1399999999999</ele>
        <time>2016-07-08T15:18:41Z</time>
      </trkpt>
      <trkpt lat="45.850678095594049" lon="7.277533281594515">
        <ele>2274.6199999999999</ele>
        <time>2016-07-08T15:18:53Z</time>
      </trkpt>
      <trkpt lat="45.85065177641809" lon="7.277459856122732">
        <ele>2276.54</ele>
        <time>2016-07-08T15:19:05Z</time>
      </trkpt>
      <trkpt lat="45.850639371201396" lon="7.277429262176156">
        <ele>2277.5</ele>
        <time>2016-07-08T15:19:18Z</time>
      </trkpt>
      <trkpt lat="45.850630737841129" lon="7.277348544448614">
        <ele>2279.4200000000001</ele>
        <time>2016-07-08T15:19:29Z</time>
      </trkpt>
      <trkpt lat="45.850593773648143" lon="7.277288194745779">
        <ele>2281.8299999999999</ele>
        <time>2016-07-08T15:19:42Z</time>
      </trkpt>
      <trkpt lat="45.85056820884347" lon="7.277220217511058">
        <ele>2283.27</ele>
        <time>2016-07-08T15:19:52Z</time>
      </trkpt>
      <trkpt lat="45.850525293499231" lon="7.277136063203216">
        <ele>2285.1900000000001</ele>
        <time>2016-07-08T15:20:05Z</time>
      </trkpt>
      <trkpt lat="45.850483886897564" lon="7.277085520327091">
        <ele>2287.1100000000001</ele>
        <time>2016-07-08T15:20:18Z</time>
      </trkpt>
      <trkpt lat="45.850478773936629" lon="7.277067331597209">
        <ele>2287.5900000000001</ele>
        <time>2016-07-08T15:20:20Z</time>
      </trkpt>
      <trkpt lat="45.850440133363008" lon="7.276992984116077">
        <ele>2289.04</ele>
        <time>2016-07-08T15:20:31Z</time>
      </trkpt>
      <trkpt lat="45.850397469475865" lon="7.276923917233944">
        <ele>2291.9200000000001</ele>
        <time>2016-07-08T15:20:42Z</time>
      </trkpt>
      <trkpt lat="45.850367713719606" lon="7.276852671056986">
        <ele>2292.4000000000001</ele>
        <time>2016-07-08T15:20:53Z</time>
      </trkpt>
      <trkpt lat="45.850323708727956" lon="7.276812018826604">
        <ele>2293.8400000000001</ele>
        <time>2016-07-08T15:21:06Z</time>
      </trkpt>
      <trkpt lat="45.850282553583384" lon="7.276791399344802">
        <ele>2295.77</ele>
        <time>2016-07-08T15:21:16Z</time>
      </trkpt>
      <trkpt lat="45.850218264386058" lon="7.276734905317426">
        <ele>2297.21</ele>
        <time>2016-07-08T15:21:28Z</time>
      </trkpt>
      <trkpt lat="45.85018758662045" lon="7.276704646646977">
        <ele>2298.1700000000001</ele>
        <time>2016-07-08T15:21:38Z</time>
      </trkpt>
      <trkpt lat="45.850123716518283" lon="7.276652846485376">
        <ele>2300.5700000000002</ele>
        <time>2016-07-08T15:21:49Z</time>
      </trkpt>
      <trkpt lat="45.850089937448502" lon="7.276596184819937">
        <ele>2301.0500000000002</ele>
        <time>2016-07-08T15:22:01Z</time>
      </trkpt>
      <trkpt lat="45.850076694041491" lon="7.276597861200571">
        <ele>2301.0500000000002</ele>
        <time>2016-07-08T15:22:14Z</time>
      </trkpt>
      <trkpt lat="45.850072000175714" lon="7.276551425457001">
        <ele>2301.5300000000002</ele>
        <time>2016-07-08T15:22:23Z</time>
      </trkpt>
      <trkpt lat="45.850076945498586" lon="7.276559136807919">
        <ele>2301.5300000000002</ele>
        <time>2016-07-08T15:22:34Z</time>
      </trkpt>
      <trkpt lat="45.850067222490907" lon="7.276551341637969">
        <ele>2302.0100000000002</ele>
        <time>2016-07-08T15:22:50Z</time>
      </trkpt>
      <trkpt lat="45.850064121186733" lon="7.276537427678704">
        <ele>2302.0100000000002</ele>
        <time>2016-07-08T15:23:07Z</time>
      </trkpt>
      <trkpt lat="45.85006345063448" lon="7.276551257818937">
        <ele>2302.0100000000002</ele>
        <time>2016-07-08T15:23:24Z</time>
      </trkpt>
      <trkpt lat="45.85004635155201" lon="7.27647271938622">
        <ele>2302.98</ele>
        <time>2016-07-08T15:23:33Z</time>
      </trkpt>
      <trkpt lat="45.850039478391409" lon="7.276383619755507">
        <ele>2303.9400000000001</ele>
        <time>2016-07-08T15:23:43Z</time>
      </trkpt>
      <trkpt lat="45.850019529461861" lon="7.276297202333808">
        <ele>2306.3400000000001</ele>
        <time>2016-07-08T15:23:54Z</time>
      </trkpt>
      <trkpt lat="45.849980637431145" lon="7.276221262291074">
        <ele>2307.7800000000002</ele>
        <time>2016-07-08T15:24:04Z</time>
      </trkpt>
      <trkpt lat="45.849957084283233" lon="7.276170467957854">
        <ele>2308.2600000000002</ele>
        <time>2016-07-08T15:24:10Z</time>
      </trkpt>
      <trkpt lat="45.849904278293252" lon="7.276072399690747">
        <ele>2309.6999999999998</ele>
        <time>2016-07-08T15:24:21Z</time>
      </trkpt>
      <trkpt lat="45.84987485781312" lon="7.275987910106778">
        <ele>2311.1500000000001</ele>
        <time>2016-07-08T15:24:31Z</time>
      </trkpt>
      <trkpt lat="45.849827164784074" lon="7.275884561240673">
        <ele>2313.0700000000002</ele>
        <time>2016-07-08T15:24:42Z</time>
      </trkpt>
      <trkpt lat="45.849798498675227" lon="7.275768388062716">
        <ele>2314.9899999999998</ele>
        <time>2016-07-08T15:24:53Z</time>
      </trkpt>
      <trkpt lat="45.849776370450854" lon="7.275682222098112">
        <ele>2314.9899999999998</ele>
        <time>2016-07-08T15:25:01Z</time>
      </trkpt>
      <trkpt lat="45.849752398207784" lon="7.275549452751875">
        <ele>2316.4299999999998</ele>
        <time>2016-07-08T15:25:12Z</time>
      </trkpt>
      <trkpt lat="45.84973806515336" lon="7.275444427505136">
        <ele>2316.9099999999999</ele>
        <time>2016-07-08T15:25:22Z</time>
      </trkpt>
      <trkpt lat="45.849708477035165" lon="7.275349041447043">
        <ele>2318.8400000000001</ele>
        <time>2016-07-08T15:25:32Z</time>
      </trkpt>
      <trkpt lat="45.849679978564382" lon="7.275244854390621">
        <ele>2320.7600000000002</ele>
        <time>2016-07-08T15:25:44Z</time>
      </trkpt>
      <trkpt lat="45.849643684923649" lon="7.275130022317171">
        <ele>2322.6799999999998</ele>
        <time>2016-07-08T15:25:56Z</time>
      </trkpt>
      <trkpt lat="45.849623149260879" lon="7.275017034262419">
        <ele>2324.1199999999999</ele>
        <time>2016-07-08T15:26:07Z</time>
      </trkpt>
      <trkpt lat="45.849609570577741" lon="7.274913098663092">
        <ele>2325.5700000000002</ele>
        <time>2016-07-08T15:26:17Z</time>
      </trkpt>
      <trkpt lat="45.849589705467224" lon="7.274808743968606">
        <ele>2327.0100000000002</ele>
        <time>2016-07-08T15:26:27Z</time>
      </trkpt>
      <trkpt lat="45.849560787901282" lon="7.274703131988645">
        <ele>2328.4499999999998</ele>
        <time>2016-07-08T15:26:37Z</time>
      </trkpt>
      <trkpt lat="45.849534720182419" lon="7.274610847234726">
        <ele>2329.8899999999999</ele>
        <time>2016-07-08T15:26:47Z</time>
      </trkpt>
      <trkpt lat="45.849522398784757" lon="7.274519819766283">
        <ele>2330.8499999999999</ele>
        <time>2016-07-08T15:26:57Z</time>
      </trkpt>
      <trkpt lat="45.849511083215475" lon="7.274420158937573">
        <ele>2333.2600000000002</ele>
        <time>2016-07-08T15:27:08Z</time>
      </trkpt>
      <trkpt lat="45.849496079608798" lon="7.274334412068129">
        <ele>2335.6599999999999</ele>
        <time>2016-07-08T15:27:20Z</time>
      </trkpt>
      <trkpt lat="45.849486272782087" lon="7.274208180606365">
        <ele>2337.0999999999999</ele>
        <time>2016-07-08T15:27:31Z</time>
      </trkpt>
      <trkpt lat="45.84948199801147" lon="7.274097790941596">
        <ele>2338.0599999999999</ele>
        <time>2016-07-08T15:27:42Z</time>
      </trkpt>
      <trkpt lat="45.849488787353039" lon="7.2739387024194">
        <ele>2339.9899999999998</ele>
        <time>2016-07-08T15:27:58Z</time>
      </trkpt>
      <trkpt lat="45.849478477612138" lon="7.273825714364648">
        <ele>2341.9099999999999</ele>
        <time>2016-07-08T15:28:08Z</time>
      </trkpt>
      <trkpt lat="45.849460875615478" lon="7.273700824007392">
        <ele>2342.8699999999999</ele>
        <time>2016-07-08T15:28:18Z</time>
      </trkpt>
      <trkpt lat="45.849444195628166" lon="7.273568557575345">
        <ele>2344.3099999999999</ele>
        <time>2016-07-08T15:28:28Z</time>
      </trkpt>
      <trkpt lat="45.849437573924661" lon="7.2734759375453">
        <ele>2345.27</ele>
        <time>2016-07-08T15:28:36Z</time>
      </trkpt>
      <trkpt lat="45.84941896609962" lon="7.273338474333286">
        <ele>2346.23</ele>
        <time>2016-07-08T15:28:47Z</time>
      </trkpt>
      <trkpt lat="45.849397089332342" lon="7.273249793797731">
        <ele>2347.6799999999998</ele>
        <time>2016-07-08T15:28:56Z</time>
      </trkpt>
      <trkpt lat="45.849380828440189" lon="7.273160442709923">
        <ele>2349.5999999999999</ele>
        <time>2016-07-08T15:29:05Z</time>
      </trkpt>
      <trkpt lat="45.849364986643195" lon="7.273058854043484">
        <ele>2351.52</ele>
        <time>2016-07-08T15:29:15Z</time>
      </trkpt>
      <trkpt lat="45.849344367161393" lon="7.272943770512939">
        <ele>2353.4400000000001</ele>
        <time>2016-07-08T15:29:27Z</time>
      </trkpt>
      <trkpt lat="45.849337996914983" lon="7.272825166583061">
        <ele>2354.8899999999999</ele>
        <time>2016-07-08T15:29:38Z</time>
      </trkpt>
      <trkpt lat="45.849351240321994" lon="7.272689631208777">
        <ele>2356.3299999999999</ele>
        <time>2016-07-08T15:29:50Z</time>
      </trkpt>
      <trkpt lat="45.849371608346701" lon="7.272605644538999">
        <ele>2357.29</ele>
        <time>2016-07-08T15:29:59Z</time>
      </trkpt>
      <trkpt lat="45.849401196464896" lon="7.272493410855532">
        <ele>2358.73</ele>
        <time>2016-07-08T15:30:10Z</time>
      </trkpt>
      <trkpt lat="45.849395161494613" lon="7.27239509113133">
        <ele>2360.6500000000001</ele>
        <time>2016-07-08T15:30:22Z</time>
      </trkpt>
      <trkpt lat="45.849399017170072" lon="7.272316385060549">
        <ele>2362.5799999999999</ele>
        <time>2016-07-08T15:30:33Z</time>
      </trkpt>
      <trkpt lat="45.849392395466566" lon="7.272249665111303">
        <ele>2363.54</ele>
        <time>2016-07-08T15:30:41Z</time>
      </trkpt>
      <trkpt lat="45.849405890330672" lon="7.272154865786433">
        <ele>2364.5</ele>
        <time>2016-07-08T15:30:48Z</time>
      </trkpt>
      <trkpt lat="45.849389461800456" lon="7.27201790548861">
        <ele>2365.9400000000001</ele>
        <time>2016-07-08T15:30:59Z</time>
      </trkpt>
      <trkpt lat="45.849385354667902" lon="7.271915478631854">
        <ele>2367.8600000000001</ele>
        <time>2016-07-08T15:31:09Z</time>
      </trkpt>
      <trkpt lat="45.849391892552376" lon="7.27181171067059">
        <ele>2369.79</ele>
        <time>2016-07-08T15:31:19Z</time>
      </trkpt>
      <trkpt lat="45.849403962492943" lon="7.271781703457236">
        <ele>2370.75</ele>
        <time>2016-07-08T15:31:23Z</time>
      </trkpt>
      <trkpt lat="45.849429946392775" lon="7.271714396774769">
        <ele>2371.23</ele>
        <time>2016-07-08T15:31:30Z</time>
      </trkpt>
      <trkpt lat="45.849477052688599" lon="7.271611550822854">
        <ele>2372.1900000000001</ele>
        <time>2016-07-08T15:31:40Z</time>
      </trkpt>
      <trkpt lat="45.849483422935009" lon="7.271522367373109">
        <ele>2372.6700000000001</ele>
        <time>2016-07-08T15:31:47Z</time>
      </trkpt>
      <trkpt lat="45.849476717412472" lon="7.271386748179793">
        <ele>2374.1100000000001</ele>
        <time>2016-07-08T15:31:57Z</time>
      </trkpt>
      <trkpt lat="45.849480824545026" lon="7.271251967176795">
        <ele>2375.0700000000002</ele>
        <time>2016-07-08T15:32:07Z</time>
      </trkpt>
      <trkpt lat="45.849499516189098" lon="7.271129172295332">
        <ele>2376.04</ele>
        <time>2016-07-08T15:32:16Z</time>
      </trkpt>
      <trkpt lat="45.849508987739682" lon="7.271098075434566">
        <ele>2376.04</ele>
        <time>2016-07-08T15:32:18Z</time>
      </trkpt>
      <trkpt lat="45.849508568644524" lon="7.271065637469292">
        <ele>2376.52</ele>
        <time>2016-07-08T15:32:20Z</time>
      </trkpt>
      <trkpt lat="45.849555591121316" lon="7.270956840366125">
        <ele>2377.96</ele>
        <time>2016-07-08T15:32:31Z</time>
      </trkpt>
      <trkpt lat="45.84961979649961" lon="7.27089841850102">
        <ele>2379.8800000000001</ele>
        <time>2016-07-08T15:32:41Z</time>
      </trkpt>
      <trkpt lat="45.849682576954365" lon="7.270855670794845">
        <ele>2381.3200000000002</ele>
        <time>2016-07-08T15:32:49Z</time>
      </trkpt>
      <trkpt lat="45.849773436784744" lon="7.270858939737082">
        <ele>2382.7600000000002</ele>
        <time>2016-07-08T15:33:00Z</time>
      </trkpt>
      <trkpt lat="45.849782656878233" lon="7.270859777927399">
        <ele>2382.7600000000002</ele>
        <time>2016-07-08T15:33:01Z</time>
      </trkpt>
      <trkpt lat="45.849877120926976" lon="7.270886516198516">
        <ele>2384.21</ele>
        <time>2016-07-08T15:33:11Z</time>
      </trkpt>
      <trkpt lat="45.849945098161697" lon="7.270862963050604">
        <ele>2384.6900000000001</ele>
        <time>2016-07-08T15:33:19Z</time>
      </trkpt>
      <trkpt lat="45.849970662966371" lon="7.270843684673309">
        <ele>2384.6900000000001</ele>
        <time>2016-07-08T15:33:22Z</time>
      </trkpt>
      <trkpt lat="45.850011985749006" lon="7.27078752592206">
        <ele>2385.1700000000001</ele>
        <time>2016-07-08T15:33:28Z</time>
      </trkpt>
      <trkpt lat="45.850071916356683" lon="7.270704545080662">
        <ele>2386.1300000000001</ele>
        <time>2016-07-08T15:33:37Z</time>
      </trkpt>
      <trkpt lat="45.850122207775712" lon="7.270598094910383">
        <ele>2387.5700000000002</ele>
        <time>2016-07-08T15:33:47Z</time>
      </trkpt>
      <trkpt lat="45.850138552486897" lon="7.270558699965477">
        <ele>2388.0500000000002</ele>
        <time>2016-07-08T15:33:51Z</time>
      </trkpt>
      <trkpt lat="45.850150873884559" lon="7.270516622811556">
        <ele>2388.0500000000002</ele>
        <time>2016-07-08T15:33:54Z</time>
      </trkpt>
      <trkpt lat="45.850193705409765" lon="7.27038636803627">
        <ele>2389.4899999999998</ele>
        <time>2016-07-08T15:34:05Z</time>
      </trkpt>
      <trkpt lat="45.850221700966358" lon="7.270283354446292">
        <ele>2390.9400000000001</ele>
        <time>2016-07-08T15:34:14Z</time>
      </trkpt>
      <trkpt lat="45.850233267992735" lon="7.270246893167496">
        <ele>2391.4200000000001</ele>
        <time>2016-07-08T15:34:17Z</time>
      </trkpt>
      <trkpt lat="45.850262772291899" lon="7.270176904276013">
        <ele>2392.8600000000001</ele>
        <time>2016-07-08T15:34:25Z</time>
      </trkpt>
      <trkpt lat="45.850279117003083" lon="7.270141197368503">
        <ele>2393.3400000000001</ele>
        <time>2016-07-08T15:34:29Z</time>
      </trkpt>
      <trkpt lat="45.850282218307257" lon="7.270117057487369">
        <ele>2393.8200000000002</ele>
        <time>2016-07-08T15:34:31Z</time>
      </trkpt>
      <trkpt lat="45.850315829738975" lon="7.270040027797222">
        <ele>2395.2600000000002</ele>
        <time>2016-07-08T15:34:39Z</time>
      </trkpt>
      <trkpt lat="45.850350111722946" lon="7.269950844347477">
        <ele>2396.2199999999998</ele>
        <time>2016-07-08T15:34:49Z</time>
      </trkpt>
      <trkpt lat="45.8503801189363" lon="7.269873060286045">
        <ele>2398.1500000000001</ele>
        <time>2016-07-08T15:34:57Z</time>
      </trkpt>
      <trkpt lat="45.850436026230454" lon="7.269798796623945">
        <ele>2400.0700000000002</ele>
        <time>2016-07-08T15:35:08Z</time>
      </trkpt>
      <trkpt lat="45.850482461974025" lon="7.269710451364517">
        <ele>2401.0300000000002</ele>
        <time>2016-07-08T15:35:18Z</time>
      </trkpt>
      <trkpt lat="45.850487910211086" lon="7.269616825506091">
        <ele>2402.4699999999998</ele>
        <time>2016-07-08T15:35:27Z</time>
      </trkpt>
      <trkpt lat="45.850486485287547" lon="7.269532084465027">
        <ele>2404.3899999999999</ele>
        <time>2016-07-08T15:35:37Z</time>
      </trkpt>
      <trkpt lat="45.850478271022439" lon="7.269466957077384">
        <ele>2405.3600000000001</ele>
        <time>2016-07-08T15:35:43Z</time>
      </trkpt>
      <trkpt lat="45.850488916039467" lon="7.269366709515452">
        <ele>2407.2800000000002</ele>
        <time>2016-07-08T15:35:53Z</time>
      </trkpt>
      <trkpt lat="45.850496627390385" lon="7.269272916018963">
        <ele>2409.1999999999998</ele>
        <time>2016-07-08T15:36:04Z</time>
      </trkpt>
      <trkpt lat="45.850516576319933" lon="7.269141152501106">
        <ele>2411.1199999999999</ele>
        <time>2016-07-08T15:36:17Z</time>
      </trkpt>
      <trkpt lat="45.850529987365007" lon="7.269108463078737">
        <ele>2411.5999999999999</ele>
        <time>2016-07-08T15:36:21Z</time>
      </trkpt>
      <trkpt lat="45.850541219115257" lon="7.269009137526155">
        <ele>2413.5300000000002</ele>
        <time>2016-07-08T15:36:33Z</time>
      </trkpt>
      <trkpt lat="45.850498303771019" lon="7.268992708995938">
        <ele>2415.9299999999998</ele>
        <time>2016-07-08T15:36:45Z</time>
      </trkpt>
      <trkpt lat="45.850432924926281" lon="7.268985416740179">
        <ele>2416.8899999999999</ele>
        <time>2016-07-08T15:36:55Z</time>
      </trkpt>
      <trkpt lat="45.850388836115599" lon="7.268992541357875">
        <ele>2417.3699999999999</ele>
        <time>2016-07-08T15:37:00Z</time>
      </trkpt>
      <trkpt lat="45.850375425070524" lon="7.269000001251698">
        <ele>2417.3699999999999</ele>
        <time>2016-07-08T15:37:02Z</time>
      </trkpt>
      <trkpt lat="45.850272076204419" lon="7.269051969051361">
        <ele>2417.8499999999999</ele>
        <time>2016-07-08T15:37:14Z</time>
      </trkpt>
      <trkpt lat="45.850195633247495" lon="7.269079377874732">
        <ele>2418.8099999999999</ele>
        <time>2016-07-08T15:37:23Z</time>
      </trkpt>
      <trkpt lat="45.850189430639148" lon="7.26908465847373">
        <ele>2419.3000000000002</ele>
        <time>2016-07-08T15:37:24Z</time>
      </trkpt>
      <trkpt lat="45.850083818659186" lon="7.269170070067048">
        <ele>2420.2600000000002</ele>
        <time>2016-07-08T15:37:36Z</time>
      </trkpt>
      <trkpt lat="45.850019194185734" lon="7.269177446141839">
        <ele>2420.7399999999998</ele>
        <time>2016-07-08T15:37:46Z</time>
      </trkpt>
      <trkpt lat="45.850020032376051" lon="7.269167136400938">
        <ele>2420.7399999999998</ele>
        <time>2016-07-08T15:38:02Z</time>
      </trkpt>
      <trkpt lat="45.850022966042161" lon="7.269188174977899">
        <ele>2420.7399999999998</ele>
        <time>2016-07-08T15:38:19Z</time>
      </trkpt>
      <trkpt lat="45.850030593574047" lon="7.26915406063199">
        <ele>2420.7399999999998</ele>
        <time>2016-07-08T15:38:30Z</time>
      </trkpt>
      <trkpt lat="45.850006034597754" lon="7.26916135288775">
        <ele>2420.7399999999998</ele>
        <time>2016-07-08T15:38:48Z</time>
      </trkpt>
      <trkpt lat="45.850010979920626" lon="7.26916478946805">
        <ele>2420.7399999999998</ele>
        <time>2016-07-08T15:38:55Z</time>
      </trkpt>
      <trkpt lat="45.850024726241827" lon="7.269144421443343">
        <ele>2420.7399999999998</ele>
        <time>2016-07-08T15:39:02Z</time>
      </trkpt>
      <trkpt lat="45.850031431764364" lon="7.269134530797601">
        <ele>2420.2600000000002</ele>
        <time>2016-07-08T15:39:16Z</time>
      </trkpt>
      <trkpt lat="45.850037299096584" lon="7.269128076732159">
        <ele>2420.2600000000002</ele>
        <time>2016-07-08T15:39:37Z</time>
      </trkpt>
      <trkpt lat="45.85004786029458" lon="7.269140398129821">
        <ele>2420.7399999999998</ele>
        <time>2016-07-08T15:39:59Z</time>
      </trkpt>
      <trkpt lat="45.850056745111942" lon="7.269111815840006">
        <ele>2420.2600000000002</ele>
        <time>2016-07-08T15:40:21Z</time>
      </trkpt>
      <trkpt lat="45.850033694878221" lon="7.269110977649689">
        <ele>2420.7399999999998</ele>
        <time>2016-07-08T15:40:38Z</time>
      </trkpt>
      <trkpt lat="45.850023971870542" lon="7.269114749506116">
        <ele>2420.7399999999998</ele>
        <time>2016-07-08T15:40:56Z</time>
      </trkpt>
      <trkpt lat="45.85001902654767" lon="7.269104942679405">
        <ele>2420.2600000000002</ele>
        <time>2016-07-08T15:41:22Z</time>
      </trkpt>
      <trkpt lat="45.8500209543854" lon="7.269134949892759">
        <ele>2420.2600000000002</ele>
        <time>2016-07-08T15:41:40Z</time>
      </trkpt>
      <trkpt lat="45.850025983527303" lon="7.269141739234328">
        <ele>2420.7399999999998</ele>
        <time>2016-07-08T15:41:52Z</time>
      </trkpt>
      <trkpt lat="45.850025983527303" lon="7.269132100045681">
        <ele>2420.7399999999998</ele>
        <time>2016-07-08T15:42:07Z</time>
      </trkpt>
      <trkpt lat="45.849999748170376" lon="7.269125729799271">
        <ele>2420.7399999999998</ele>
        <time>2016-07-08T15:42:35Z</time>
      </trkpt>
      <trkpt lat="45.850014751777053" lon="7.269123131409288">
        <ele>2420.7399999999998</ele>
        <time>2016-07-08T15:43:05Z</time>
      </trkpt>
      <trkpt lat="45.849997736513615" lon="7.269114665687084">
        <ele>2420.7399999999998</ele>
        <time>2016-07-08T15:43:31Z</time>
      </trkpt>
      <trkpt lat="45.84999899379909" lon="7.26914475671947">
        <ele>2421.6999999999998</ele>
        <time>2016-07-08T15:43:44Z</time>
      </trkpt>
      <trkpt lat="45.85002045147121" lon="7.269111983478069">
        <ele>2421.2199999999998</ele>
        <time>2016-07-08T15:43:56Z</time>
      </trkpt>
    </trkseg>
  </trk>

  <trk>
    <name>col-de-mille-pagnossiere2016-07-06</name>
    <extensions>
      <gpxx:TrackExtension>
        <gpxx:DisplayColor>Yellow</gpxx:DisplayColor>
      </gpxx:TrackExtension>
      <gpxtrkx:TrackStatsExtension xmlns:gpxtrkx="http://www.garmin.com/xmlschemas/TrackStatsExtension/v1">
        <gpxtrkx:Distance>16447</gpxtrkx:Distance>
        <gpxtrkx:TotalElapsedTime>26508</gpxtrkx:TotalElapsedTime>
        <gpxtrkx:MovingTime>18053</gpxtrkx:MovingTime>
        <gpxtrkx:StoppedTime>8363</gpxtrkx:StoppedTime>
        <gpxtrkx:MovingSpeed>1</gpxtrkx:MovingSpeed>
        <gpxtrkx:MaxSpeed>2</gpxtrkx:MaxSpeed>
        <gpxtrkx:MaxElevation>2642</gpxtrkx:MaxElevation>
        <gpxtrkx:MinElevation>2010</gpxtrkx:MinElevation>
        <gpxtrkx:Ascent>956</gpxtrkx:Ascent>
        <gpxtrkx:Descent>800</gpxtrkx:Descent>
        <gpxtrkx:AvgAscentRate>0</gpxtrkx:AvgAscentRate>
        <gpxtrkx:MaxAscentRate>0</gpxtrkx:MaxAscentRate>
        <gpxtrkx:AvgDescentRate>0</gpxtrkx:AvgDescentRate>
        <gpxtrkx:MaxDescentRate>-1</gpxtrkx:MaxDescentRate>
      </gpxtrkx:TrackStatsExtension>
    </extensions>
    <trkseg>
      <trkpt lat="46.013726647943258" lon="7.206788342446089">
        <ele>2486.1100000000001</ele>
        <time>2016-07-06T06:33:30Z</time>
      </trkpt>
      <trkpt lat="46.013725725933909" lon="7.206786749884486">
        <ele>2486.1100000000001</ele>
        <time>2016-07-06T06:33:31Z</time>
      </trkpt>
      <trkpt lat="46.013709967955947" lon="7.206753976643086">
        <ele>2485.1500000000001</ele>
        <time>2016-07-06T06:33:41Z</time>
      </trkpt>
      <trkpt lat="46.013714158907533" lon="7.206772919744253">
        <ele>2485.1500000000001</ele>
        <time>2016-07-06T06:33:55Z</time>
      </trkpt>
      <trkpt lat="46.013734024018049" lon="7.206807620823383">
        <ele>2485.1500000000001</ele>
        <time>2016-07-06T06:34:03Z</time>
      </trkpt>
      <trkpt lat="46.013756655156612" lon="7.206804938614368">
        <ele>2485.1500000000001</ele>
        <time>2016-07-06T06:34:11Z</time>
      </trkpt>
      <trkpt lat="46.013793284073472" lon="7.206865372136235">
        <ele>2485.6300000000001</ele>
        <time>2016-07-06T06:34:21Z</time>
      </trkpt>
      <trkpt lat="46.013835277408361" lon="7.206949777901173">
        <ele>2486.5900000000001</ele>
        <time>2016-07-06T06:34:31Z</time>
      </trkpt>
      <trkpt lat="46.013871654868126" lon="7.20702487975359">
        <ele>2487.5500000000002</ele>
        <time>2016-07-06T06:34:41Z</time>
      </trkpt>
      <trkpt lat="46.0139040928334" lon="7.207056228071451">
        <ele>2487.0700000000002</ele>
        <time>2016-07-06T06:34:50Z</time>
      </trkpt>
      <trkpt lat="46.01390509866178" lon="7.207079278305173">
        <ele>2487.5500000000002</ele>
        <time>2016-07-06T06:35:07Z</time>
      </trkpt>
      <trkpt lat="46.013901075348258" lon="7.207105346024036">
        <ele>2487.5500000000002</ele>
        <time>2016-07-06T06:35:09Z</time>
      </trkpt>
      <trkpt lat="46.013931501656771" lon="7.207184219732881">
        <ele>2487.5500000000002</ele>
        <time>2016-07-06T06:35:19Z</time>
      </trkpt>
      <trkpt lat="46.013926304876804" lon="7.207189919427037">
        <ele>2488.0300000000002</ele>
        <time>2016-07-06T06:35:28Z</time>
      </trkpt>
      <trkpt lat="46.013936698436737" lon="7.207179861143231">
        <ele>2488.0300000000002</ele>
        <time>2016-07-06T06:35:36Z</time>
      </trkpt>
      <trkpt lat="46.014005513861775" lon="7.207300225272775">
        <ele>2488.0300000000002</ele>
        <time>2016-07-06T06:35:48Z</time>
      </trkpt>
      <trkpt lat="46.014058571308851" lon="7.207392677664757">
        <ele>2487.5500000000002</ele>
        <time>2016-07-06T06:35:57Z</time>
      </trkpt>
      <trkpt lat="46.014074245467782" lon="7.207428636029363">
        <ele>2488.0300000000002</ele>
        <time>2016-07-06T06:36:08Z</time>
      </trkpt>
      <trkpt lat="46.014077933505177" lon="7.207536930218339">
        <ele>2486.5900000000001</ele>
        <time>2016-07-06T06:36:21Z</time>
      </trkpt>
      <trkpt lat="46.014107018709183" lon="7.207660311833024">
        <ele>2485.6300000000001</ele>
        <time>2016-07-06T06:36:31Z</time>
      </trkpt>
      <trkpt lat="46.014115484431386" lon="7.207816382870078">
        <ele>2485.6300000000001</ele>
        <time>2016-07-06T06:36:41Z</time>
      </trkpt>
      <trkpt lat="46.014117076992989" lon="7.207949655130506">
        <ele>2484.1799999999998</ele>
        <time>2016-07-06T06:36:49Z</time>
      </trkpt>
      <trkpt lat="46.014115735888481" lon="7.208085441961885">
        <ele>2483.2199999999998</ele>
        <time>2016-07-06T06:36:57Z</time>
      </trkpt>
      <trkpt lat="46.014123950153589" lon="7.208205219358206">
        <ele>2482.2600000000002</ele>
        <time>2016-07-06T06:37:04Z</time>
      </trkpt>
      <trkpt lat="46.014127638190985" lon="7.208242770284414">
        <ele>2482.2600000000002</ele>
        <time>2016-07-06T06:37:06Z</time>
      </trkpt>
      <trkpt lat="46.014141049236059" lon="7.208359194919467">
        <ele>2481.3000000000002</ele>
        <time>2016-07-06T06:37:16Z</time>
      </trkpt>
      <trkpt lat="46.014136858284473" lon="7.208363050594926">
        <ele>2482.2600000000002</ele>
        <time>2016-07-06T06:37:27Z</time>
      </trkpt>
      <trkpt lat="46.014091847464442" lon="7.208399763330817">
        <ele>2481.3000000000002</ele>
        <time>2016-07-06T06:37:40Z</time>
      </trkpt>
      <trkpt lat="46.014059241861105" lon="7.208408731967211">
        <ele>2480.8200000000002</ele>
        <time>2016-07-06T06:37:53Z</time>
      </trkpt>
      <trkpt lat="46.014083968475461" lon="7.208422981202602">
        <ele>2480.8200000000002</ele>
        <time>2016-07-06T06:38:13Z</time>
      </trkpt>
      <trkpt lat="46.01409955881536" lon="7.208468243479729">
        <ele>2480.3400000000001</ele>
        <time>2016-07-06T06:38:18Z</time>
      </trkpt>
      <trkpt lat="46.014117915183306" lon="7.208531862124801">
        <ele>2479.3800000000001</ele>
        <time>2016-07-06T06:38:22Z</time>
      </trkpt>
      <trkpt lat="46.014110706746578" lon="7.208713497966528">
        <ele>2479.3800000000001</ele>
        <time>2016-07-06T06:38:35Z</time>
      </trkpt>
      <trkpt lat="46.014088410884142" lon="7.208842327818275">
        <ele>2479.3800000000001</ele>
        <time>2016-07-06T06:38:46Z</time>
      </trkpt>
      <trkpt lat="46.014103330671787" lon="7.208852134644985">
        <ele>2479.3800000000001</ele>
        <time>2016-07-06T06:38:56Z</time>
      </trkpt>
      <trkpt lat="46.014149682596326" lon="7.20886018127203">
        <ele>2476.9699999999998</ele>
        <time>2016-07-06T06:39:05Z</time>
      </trkpt>
      <trkpt lat="46.014154711738229" lon="7.20890611410141">
        <ele>2475.5300000000002</ele>
        <time>2016-07-06T06:39:12Z</time>
      </trkpt>
      <trkpt lat="46.014136858284473" lon="7.208964452147484">
        <ele>2474.5700000000002</ele>
        <time>2016-07-06T06:39:19Z</time>
      </trkpt>
      <trkpt lat="46.014139456674457" lon="7.20912354066968">
        <ele>2473.1300000000001</ele>
        <time>2016-07-06T06:39:32Z</time>
      </trkpt>
      <trkpt lat="46.014105342328548" lon="7.209267960861325">
        <ele>2471.21</ele>
        <time>2016-07-06T06:39:44Z</time>
      </trkpt>
      <trkpt lat="46.014128727838397" lon="7.209400227293372">
        <ele>2468.3200000000002</ele>
        <time>2016-07-06T06:39:57Z</time>
      </trkpt>
      <trkpt lat="46.014148592948914" lon="7.209447417408228">
        <ele>2467.3600000000001</ele>
        <time>2016-07-06T06:40:03Z</time>
      </trkpt>
      <trkpt lat="46.014153705909848" lon="7.209508940577507">
        <ele>2466.8800000000001</ele>
        <time>2016-07-06T06:40:08Z</time>
      </trkpt>
      <trkpt lat="46.014152616262436" lon="7.20954280346632">
        <ele>2466.8800000000001</ele>
        <time>2016-07-06T06:40:11Z</time>
      </trkpt>
      <trkpt lat="46.014193268492818" lon="7.209598375484347">
        <ele>2466.4000000000001</ele>
        <time>2016-07-06T06:40:22Z</time>
      </trkpt>
      <trkpt lat="46.014217576012015" lon="7.209644978865981">
        <ele>2465.4400000000001</ele>
        <time>2016-07-06T06:40:29Z</time>
      </trkpt>
      <trkpt lat="46.014239955693483" lon="7.209764420986176">
        <ele>2463.04</ele>
        <time>2016-07-06T06:40:41Z</time>
      </trkpt>
      <trkpt lat="46.014264347031713" lon="7.209884030744433">
        <ele>2462.5500000000002</ele>
        <time>2016-07-06T06:40:52Z</time>
      </trkpt>
      <trkpt lat="46.014315225183964" lon="7.209901968017221">
        <ele>2462.5500000000002</ele>
        <time>2016-07-06T06:41:00Z</time>
      </trkpt>
      <trkpt lat="46.014336431398988" lon="7.209927029907703">
        <ele>2461.1100000000001</ele>
        <time>2016-07-06T06:41:03Z</time>
      </trkpt>
      <trkpt lat="46.014355206862092" lon="7.210001042112708">
        <ele>2461.1100000000001</ele>
        <time>2016-07-06T06:41:14Z</time>
      </trkpt>
      <trkpt lat="46.014376496896148" lon="7.210028534755111">
        <ele>2459.6700000000001</ele>
        <time>2016-07-06T06:41:23Z</time>
      </trkpt>
      <trkpt lat="46.014444390311837" lon="7.210181755945087">
        <ele>2457.75</ele>
        <time>2016-07-06T06:41:35Z</time>
      </trkpt>
      <trkpt lat="46.014449000358582" lon="7.210192149505019">
        <ele>2458.23</ele>
        <time>2016-07-06T06:41:36Z</time>
      </trkpt>
      <trkpt lat="46.014480013400316" lon="7.210269514471293">
        <ele>2457.27</ele>
        <time>2016-07-06T06:41:42Z</time>
      </trkpt>
      <trkpt lat="46.014499962329865" lon="7.210331708192825">
        <ele>2455.8200000000002</ele>
        <time>2016-07-06T06:41:46Z</time>
      </trkpt>
      <trkpt lat="46.01451588794589" lon="7.210441762581468">
        <ele>2455.3400000000001</ele>
        <time>2016-07-06T06:41:53Z</time>
      </trkpt>
      <trkpt lat="46.014589900150895" lon="7.210596073418856">
        <ele>2453.9000000000001</ele>
        <time>2016-07-06T06:42:04Z</time>
      </trkpt>
      <trkpt lat="46.014599539339542" lon="7.210642844438553">
        <ele>2454.8600000000001</ele>
        <time>2016-07-06T06:42:07Z</time>
      </trkpt>
      <trkpt lat="46.014625439420342" lon="7.210692213848233">
        <ele>2454.8600000000001</ele>
        <time>2016-07-06T06:42:11Z</time>
      </trkpt>
      <trkpt lat="46.014638682827353" lon="7.210760777816176">
        <ele>2454.3800000000001</ele>
        <time>2016-07-06T06:42:15Z</time>
      </trkpt>
      <trkpt lat="46.014680592343211" lon="7.210928834974766">
        <ele>2452.9400000000001</ele>
        <time>2016-07-06T06:42:26Z</time>
      </trkpt>
      <trkpt lat="46.01468151435256" lon="7.210994549095631">
        <ele>2452.9400000000001</ele>
        <time>2016-07-06T06:42:30Z</time>
      </trkpt>
      <trkpt lat="46.014705486595631" lon="7.211124552413821">
        <ele>2452.9400000000001</ele>
        <time>2016-07-06T06:42:39Z</time>
      </trkpt>
      <trkpt lat="46.01477530784905" lon="7.211256148293614">
        <ele>2451.98</ele>
        <time>2016-07-06T06:42:49Z</time>
      </trkpt>
      <trkpt lat="46.014849152415991" lon="7.211409956216812">
        <ele>2451.98</ele>
        <time>2016-07-06T06:43:00Z</time>
      </trkpt>
      <trkpt lat="46.014856863766909" lon="7.211426720023155">
        <ele>2451.98</ele>
        <time>2016-07-06T06:43:01Z</time>
      </trkpt>
      <trkpt lat="46.01489944383502" lon="7.211547419428825">
        <ele>2451.02</ele>
        <time>2016-07-06T06:43:09Z</time>
      </trkpt>
      <trkpt lat="46.014944789931178" lon="7.211685301735997">
        <ele>2449.5799999999999</ele>
        <time>2016-07-06T06:43:18Z</time>
      </trkpt>
      <trkpt lat="46.014969348907471" lon="7.211708771064878">
        <ele>2449.0999999999999</ele>
        <time>2016-07-06T06:43:21Z</time>
      </trkpt>
      <trkpt lat="46.014983095228672" lon="7.21175822429359">
        <ele>2448.6199999999999</ele>
        <time>2016-07-06T06:43:24Z</time>
      </trkpt>
      <trkpt lat="46.014996841549873" lon="7.211823267862201">
        <ele>2448.6199999999999</ele>
        <time>2016-07-06T06:43:28Z</time>
      </trkpt>
      <trkpt lat="46.01501083932817" lon="7.211965760216117">
        <ele>2447.1700000000001</ele>
        <time>2016-07-06T06:43:40Z</time>
      </trkpt>
      <trkpt lat="46.015031458809972" lon="7.212017895653844">
        <ele>2446.21</ele>
        <time>2016-07-06T06:43:44Z</time>
      </trkpt>
      <trkpt lat="46.015033051371574" lon="7.212066175416112">
        <ele>2445.73</ele>
        <time>2016-07-06T06:43:47Z</time>
      </trkpt>
      <trkpt lat="46.015047049149871" lon="7.21208905801177">
        <ele>2445.73</ele>
        <time>2016-07-06T06:43:53Z</time>
      </trkpt>
      <trkpt lat="46.01509683765471" lon="7.212248146533966">
        <ele>2445.25</ele>
        <time>2016-07-06T06:44:04Z</time>
      </trkpt>
      <trkpt lat="46.015115026384592" lon="7.21226348541677">
        <ele>2445.25</ele>
        <time>2016-07-06T06:44:07Z</time>
      </trkpt>
      <trkpt lat="46.015216279774904" lon="7.212371025234461">
        <ele>2444.29</ele>
        <time>2016-07-06T06:44:18Z</time>
      </trkpt>
      <trkpt lat="46.015222314745188" lon="7.212386531755328">
        <ele>2443.8099999999999</ele>
        <time>2016-07-06T06:44:19Z</time>
      </trkpt>
      <trkpt lat="46.01524394005537" lon="7.212505890056491">
        <ele>2443.8099999999999</ele>
        <time>2016-07-06T06:44:27Z</time>
      </trkpt>
      <trkpt lat="46.015266152098775" lon="7.212591134011746">
        <ele>2441.8899999999999</ele>
        <time>2016-07-06T06:44:34Z</time>
      </trkpt>
      <trkpt lat="46.015275036916137" lon="7.21266464330256">
        <ele>2442.3699999999999</ele>
        <time>2016-07-06T06:44:40Z</time>
      </trkpt>
      <trkpt lat="46.01531527005136" lon="7.212842423468828">
        <ele>2441.4099999999999</ele>
        <time>2016-07-06T06:44:52Z</time>
      </trkpt>
      <trkpt lat="46.015318287536502" lon="7.212851140648127">
        <ele>2441.4099999999999</ele>
        <time>2016-07-06T06:44:53Z</time>
      </trkpt>
      <trkpt lat="46.015345528721809" lon="7.212956165894866">
        <ele>2439.96</ele>
        <time>2016-07-06T06:45:01Z</time>
      </trkpt>
      <trkpt lat="46.015335721895099" lon="7.213025987148285">
        <ele>2439.48</ele>
        <time>2016-07-06T06:45:05Z</time>
      </trkpt>
      <trkpt lat="46.015362292528152" lon="7.213111817836762">
        <ele>2437.0799999999999</ele>
        <time>2016-07-06T06:45:16Z</time>
      </trkpt>
      <trkpt lat="46.015372602269053" lon="7.213121876120567">
        <ele>2436.5999999999999</ele>
        <time>2016-07-06T06:45:18Z</time>
      </trkpt>
      <trkpt lat="46.015442591160536" lon="7.213178370147944">
        <ele>2433.23</ele>
        <time>2016-07-06T06:45:29Z</time>
      </trkpt>
      <trkpt lat="46.015504701063037" lon="7.21321776509285">
        <ele>2429.8699999999999</ele>
        <time>2016-07-06T06:45:39Z</time>
      </trkpt>
      <trkpt lat="46.015547784045339" lon="7.213252885267139">
        <ele>2428.4299999999998</ele>
        <time>2016-07-06T06:45:45Z</time>
      </trkpt>
      <trkpt lat="46.015577204525471" lon="7.213284401223064">
        <ele>2427.4699999999998</ele>
        <time>2016-07-06T06:45:49Z</time>
      </trkpt>
      <trkpt lat="46.01559380069375" lon="7.21332723274827">
        <ele>2426.9899999999998</ele>
        <time>2016-07-06T06:45:52Z</time>
      </trkpt>
      <trkpt lat="46.015627663582563" lon="7.21339269541204">
        <ele>2426.9899999999998</ele>
        <time>2016-07-06T06:45:58Z</time>
      </trkpt>
      <trkpt lat="46.015694048255682" lon="7.213476598262787">
        <ele>2424.5799999999999</ele>
        <time>2016-07-06T06:46:09Z</time>
      </trkpt>
      <trkpt lat="46.015752470120788" lon="7.213554969057441">
        <ele>2421.6999999999998</ele>
        <time>2016-07-06T06:46:20Z</time>
      </trkpt>
      <trkpt lat="46.015794379636645" lon="7.213620599359274">
        <ele>2420.2600000000002</ele>
        <time>2016-07-06T06:46:29Z</time>
      </trkpt>
      <trkpt lat="46.015835450962186" lon="7.213681368157268">
        <ele>2419.3000000000002</ele>
        <time>2016-07-06T06:46:40Z</time>
      </trkpt>
      <trkpt lat="46.015869900584221" lon="7.213704837486148">
        <ele>2418.3299999999999</ele>
        <time>2016-07-06T06:46:50Z</time>
      </trkpt>
      <trkpt lat="46.015914492309093" lon="7.213772982358933">
        <ele>2416.8899999999999</ele>
        <time>2016-07-06T06:46:58Z</time>
      </trkpt>
      <trkpt lat="46.015919856727123" lon="7.21380315721035">
        <ele>2415.9299999999998</ele>
        <time>2016-07-06T06:47:00Z</time>
      </trkpt>
      <trkpt lat="46.015961850062013" lon="7.213949672877789">
        <ele>2414.0100000000002</ele>
        <time>2016-07-06T06:47:11Z</time>
      </trkpt>
      <trkpt lat="46.016012141481042" lon="7.213996527716517">
        <ele>2412.5700000000002</ele>
        <time>2016-07-06T06:47:21Z</time>
      </trkpt>
      <trkpt lat="46.016040807589889" lon="7.21400449052453">
        <ele>2410.6399999999999</ele>
        <time>2016-07-06T06:47:28Z</time>
      </trkpt>
      <trkpt lat="46.016093194484711" lon="7.214045310392976">
        <ele>2408.7199999999998</ele>
        <time>2016-07-06T06:47:36Z</time>
      </trkpt>
      <trkpt lat="46.016150610521436" lon="7.214122340083122">
        <ele>2406.8000000000002</ele>
        <time>2016-07-06T06:47:43Z</time>
      </trkpt>
      <trkpt lat="46.016166871413589" lon="7.214176990091801">
        <ele>2406.3200000000002</ele>
        <time>2016-07-06T06:47:47Z</time>
      </trkpt>
      <trkpt lat="46.016190759837627" lon="7.21432694233954">
        <ele>2404.8800000000001</ele>
        <time>2016-07-06T06:47:57Z</time>
      </trkpt>
      <trkpt lat="46.016242308542132" lon="7.214496927335858">
        <ele>2402.9499999999998</ele>
        <time>2016-07-06T06:48:09Z</time>
      </trkpt>
      <trkpt lat="46.01627298630774" lon="7.214640760794282">
        <ele>2401.9899999999998</ele>
        <time>2016-07-06T06:48:21Z</time>
      </trkpt>
      <trkpt lat="46.01624608039856" lon="7.214649058878422">
        <ele>2401.5100000000002</ele>
        <time>2016-07-06T06:48:33Z</time>
      </trkpt>
      <trkpt lat="46.01623292081058" lon="7.214637659490109">
        <ele>2401.5100000000002</ele>
        <time>2016-07-06T06:48:47Z</time>
      </trkpt>
      <trkpt lat="46.016251109540462" lon="7.214633217081428">
        <ele>2402.9499999999998</ele>
        <time>2016-07-06T06:48:58Z</time>
      </trkpt>
      <trkpt lat="46.016250858083367" lon="7.214609663933516">
        <ele>2401.0300000000002</ele>
        <time>2016-07-06T06:49:10Z</time>
      </trkpt>
      <trkpt lat="46.016239039599895" lon="7.214640509337187">
        <ele>2401.0300000000002</ele>
        <time>2016-07-06T06:49:37Z</time>
      </trkpt>
      <trkpt lat="46.016222611069679" lon="7.214608322829008">
        <ele>2401.0300000000002</ele>
        <time>2016-07-06T06:49:57Z</time>
      </trkpt>
      <trkpt lat="46.016249936074018" lon="7.214597929269075">
        <ele>2401.0300000000002</ele>
        <time>2016-07-06T06:50:18Z</time>
      </trkpt>
      <trkpt lat="46.016241805627942" lon="7.214627685025334">
        <ele>2401.0300000000002</ele>
        <time>2016-07-06T06:50:38Z</time>
      </trkpt>
      <trkpt lat="46.016236357390881" lon="7.214630618691444">
        <ele>2401.5100000000002</ele>
        <time>2016-07-06T06:50:44Z</time>
      </trkpt>
      <trkpt lat="46.016233004629612" lon="7.214635983109474">
        <ele>2401.5100000000002</ele>
        <time>2016-07-06T06:51:02Z</time>
      </trkpt>
      <trkpt lat="46.016241135075688" lon="7.214654758572578">
        <ele>2401.5100000000002</ele>
        <time>2016-07-06T06:51:17Z</time>
      </trkpt>
      <trkpt lat="46.016230909153819" lon="7.214638497680426">
        <ele>2401.5100000000002</ele>
        <time>2016-07-06T06:51:36Z</time>
      </trkpt>
      <trkpt lat="46.016237698495388" lon="7.214657943695784">
        <ele>2401.5100000000002</ele>
        <time>2016-07-06T06:51:56Z</time>
      </trkpt>
      <trkpt lat="46.016260664910078" lon="7.21467143855989">
        <ele>2401.5100000000002</ele>
        <time>2016-07-06T06:52:06Z</time>
      </trkpt>
      <trkpt lat="46.016270890831947" lon="7.214731201529503">
        <ele>2401.0300000000002</ele>
        <time>2016-07-06T06:52:19Z</time>
      </trkpt>
      <trkpt lat="46.016271561384201" lon="7.214875454083085">
        <ele>2401.0300000000002</ele>
        <time>2016-07-06T06:52:29Z</time>
      </trkpt>
      <trkpt lat="46.016277931630611" lon="7.214913256466389">
        <ele>2401.0300000000002</ele>
        <time>2016-07-06T06:52:32Z</time>
      </trkpt>
      <trkpt lat="46.016328558325768" lon="7.215060191228986">
        <ele>2399.5900000000001</ele>
        <time>2016-07-06T06:52:43Z</time>
      </trkpt>
      <trkpt lat="46.01633258163929" lon="7.215117858722806">
        <ele>2399.1100000000001</ele>
        <time>2016-07-06T06:52:47Z</time>
      </trkpt>
      <trkpt lat="46.016338029876351" lon="7.215228751301765">
        <ele>2398.1500000000001</ele>
        <time>2016-07-06T06:52:54Z</time>
      </trkpt>
      <trkpt lat="46.016336185857654" lon="7.215266553685069">
        <ele>2397.6700000000001</ele>
        <time>2016-07-06T06:52:56Z</time>
      </trkpt>
      <trkpt lat="46.016359236091375" lon="7.215366130694747">
        <ele>2397.1799999999998</ele>
        <time>2016-07-06T06:53:02Z</time>
      </trkpt>
      <trkpt lat="46.016399636864662" lon="7.21552119590342">
        <ele>2395.7399999999998</ele>
        <time>2016-07-06T06:53:13Z</time>
      </trkpt>
      <trkpt lat="46.016419753432274" lon="7.215683721005917">
        <ele>2392.8600000000001</ele>
        <time>2016-07-06T06:53:23Z</time>
      </trkpt>
      <trkpt lat="46.01644498296082" lon="7.215819843113422">
        <ele>2391.9000000000001</ele>
        <time>2016-07-06T06:53:32Z</time>
      </trkpt>
      <trkpt lat="46.016441630199552" lon="7.215856723487377">
        <ele>2391.4200000000001</ele>
        <time>2016-07-06T06:53:34Z</time>
      </trkpt>
      <trkpt lat="46.016460489481688" lon="7.215983122587204">
        <ele>2389.9699999999998</ele>
        <time>2016-07-06T06:53:42Z</time>
      </trkpt>
      <trkpt lat="46.016502231359482" lon="7.216099798679352">
        <ele>2388.5300000000002</ele>
        <time>2016-07-06T06:53:51Z</time>
      </trkpt>
      <trkpt lat="46.016510110348463" lon="7.216141121461988">
        <ele>2388.5300000000002</ele>
        <time>2016-07-06T06:53:54Z</time>
      </trkpt>
      <trkpt lat="46.016542967408895" lon="7.216172888875008">
        <ele>2388.5300000000002</ele>
        <time>2016-07-06T06:53:58Z</time>
      </trkpt>
      <trkpt lat="46.016624523326755" lon="7.216242123395205">
        <ele>2385.6500000000001</ele>
        <time>2016-07-06T06:54:09Z</time>
      </trkpt>
      <trkpt lat="46.016638018190861" lon="7.2162423748523">
        <ele>2385.1700000000001</ele>
        <time>2016-07-06T06:54:11Z</time>
      </trkpt>
      <trkpt lat="46.016671126708388" lon="7.216276489198208">
        <ele>2383.73</ele>
        <time>2016-07-06T06:54:18Z</time>
      </trkpt>
      <trkpt lat="46.01673767901957" lon="7.21621940843761">
        <ele>2380.3600000000001</ele>
        <time>2016-07-06T06:54:28Z</time>
      </trkpt>
      <trkpt lat="46.016790736466646" lon="7.216230472549796">
        <ele>2378.4400000000001</ele>
        <time>2016-07-06T06:54:34Z</time>
      </trkpt>
      <trkpt lat="46.016849409788847" lon="7.216335916891694">
        <ele>2376.04</ele>
        <time>2016-07-06T06:54:45Z</time>
      </trkpt>
      <trkpt lat="46.016883021220565" lon="7.21625947393477">
        <ele>2373.6300000000001</ele>
        <time>2016-07-06T06:54:54Z</time>
      </trkpt>
      <trkpt lat="46.016933480277658" lon="7.216199962422252">
        <ele>2371.23</ele>
        <time>2016-07-06T06:55:06Z</time>
      </trkpt>
      <trkpt lat="46.016948148608208" lon="7.216201638802886">
        <ele>2371.23</ele>
        <time>2016-07-06T06:55:08Z</time>
      </trkpt>
      <trkpt lat="46.017020149156451" lon="7.216253522783518">
        <ele>2369.3099999999999</ele>
        <time>2016-07-06T06:55:16Z</time>
      </trkpt>
      <trkpt lat="46.017070859670639" lon="7.216303981840611">
        <ele>2367.3800000000001</ele>
        <time>2016-07-06T06:55:26Z</time>
      </trkpt>
      <trkpt lat="46.017096256837249" lon="7.216218151152134">
        <ele>2364.98</ele>
        <time>2016-07-06T06:55:34Z</time>
      </trkpt>
      <trkpt lat="46.017165658995509" lon="7.216311022639275">
        <ele>2362.5799999999999</ele>
        <time>2016-07-06T06:55:46Z</time>
      </trkpt>
      <trkpt lat="46.017208155244589" lon="7.216275986284018">
        <ele>2360.1700000000001</ele>
        <time>2016-07-06T06:55:55Z</time>
      </trkpt>
      <trkpt lat="46.017252160236239" lon="7.216240949928761">
        <ele>2359.21</ele>
        <time>2016-07-06T06:56:01Z</time>
      </trkpt>
      <trkpt lat="46.017332961782813" lon="7.216238686814904">
        <ele>2355.8499999999999</ele>
        <time>2016-07-06T06:56:10Z</time>
      </trkpt>
      <trkpt lat="46.017369087785482" lon="7.216271292418242">
        <ele>2354.4099999999999</ele>
        <time>2016-07-06T06:56:15Z</time>
      </trkpt>
      <trkpt lat="46.01738702505827" lon="7.216305239126086">
        <ele>2353.4400000000001</ele>
        <time>2016-07-06T06:56:18Z</time>
      </trkpt>
      <trkpt lat="46.01738752797246" lon="7.216447731480002">
        <ele>2352</ele>
        <time>2016-07-06T06:56:28Z</time>
      </trkpt>
      <trkpt lat="46.017392976209521" lon="7.216589134186506">
        <ele>2350.0799999999999</ele>
        <time>2016-07-06T06:56:38Z</time>
      </trkpt>
      <trkpt lat="46.017401441931725" lon="7.216642443090677">
        <ele>2349.1199999999999</ele>
        <time>2016-07-06T06:56:49Z</time>
      </trkpt>
      <trkpt lat="46.017427928745747" lon="7.216662894934416">
        <ele>2348.1599999999999</ele>
        <time>2016-07-06T06:56:56Z</time>
      </trkpt>
      <trkpt lat="46.017496827989817" lon="7.21676523797214">
        <ele>2344.79</ele>
        <time>2016-07-06T06:57:05Z</time>
      </trkpt>
      <trkpt lat="46.017507892102003" lon="7.216790383681655">
        <ele>2344.3099999999999</ele>
        <time>2016-07-06T06:57:07Z</time>
      </trkpt>
      <trkpt lat="46.017590956762433" lon="7.216920051723719">
        <ele>2340.4699999999998</ele>
        <time>2016-07-06T06:57:19Z</time>
      </trkpt>
      <trkpt lat="46.017607804387808" lon="7.216955842450261">
        <ele>2339.02</ele>
        <time>2016-07-06T06:57:22Z</time>
      </trkpt>
      <trkpt lat="46.017659436911345" lon="7.217075871303678">
        <ele>2336.1399999999999</ele>
        <time>2016-07-06T06:57:32Z</time>
      </trkpt>
      <trkpt lat="46.017732862383127" lon="7.217147285118699">
        <ele>2333.7399999999998</ele>
        <time>2016-07-06T06:57:42Z</time>
      </trkpt>
      <trkpt lat="46.017794720828533" lon="7.217217609286308">
        <ele>2331.3299999999999</ele>
        <time>2016-07-06T06:57:50Z</time>
      </trkpt>
      <trkpt lat="46.017800001427531" lon="7.217272510752082">
        <ele>2330.8499999999999</ele>
        <time>2016-07-06T06:58:00Z</time>
      </trkpt>
      <trkpt lat="46.017913743853569" lon="7.21737552434206">
        <ele>2328.9299999999998</ele>
        <time>2016-07-06T06:58:12Z</time>
      </trkpt>
      <trkpt lat="46.017995635047555" lon="7.217524303123355">
        <ele>2326.0500000000002</ele>
        <time>2016-07-06T06:58:23Z</time>
      </trkpt>
      <trkpt lat="46.018046177923679" lon="7.21767651848495">
        <ele>2323.6399999999999</ele>
        <time>2016-07-06T06:58:34Z</time>
      </trkpt>
      <trkpt lat="46.018048021942377" lon="7.217689929530025">
        <ele>2323.1599999999999</ele>
        <time>2016-07-06T06:58:35Z</time>
      </trkpt>
      <trkpt lat="46.018045423552394" lon="7.217737454921007">
        <ele>2322.1999999999998</ele>
        <time>2016-07-06T06:58:38Z</time>
      </trkpt>
      <trkpt lat="46.018049782142043" lon="7.217853292822838">
        <ele>2320.2800000000002</ele>
        <time>2016-07-06T06:58:46Z</time>
      </trkpt>
      <trkpt lat="46.018040645867586" lon="7.217879025265575">
        <ele>2320.2800000000002</ele>
        <time>2016-07-06T06:58:48Z</time>
      </trkpt>
      <trkpt lat="46.018044333904982" lon="7.217985726892948">
        <ele>2318.8400000000001</ele>
        <time>2016-07-06T06:58:55Z</time>
      </trkpt>
      <trkpt lat="46.018056320026517" lon="7.218038951978087">
        <ele>2316.9099999999999</ele>
        <time>2016-07-06T06:58:59Z</time>
      </trkpt>
      <trkpt lat="46.018022792413831" lon="7.218181444332004">
        <ele>2315.9499999999998</ele>
        <time>2016-07-06T06:59:12Z</time>
      </trkpt>
      <trkpt lat="46.01801348850131" lon="7.21820181235671">
        <ele>2315.4699999999998</ele>
        <time>2016-07-06T06:59:24Z</time>
      </trkpt>
      <trkpt lat="46.018014578148723" lon="7.218191334977746">
        <ele>2315.4699999999998</ele>
        <time>2016-07-06T06:59:37Z</time>
      </trkpt>
      <trkpt lat="46.018010638654232" lon="7.218194017186761">
        <ele>2315.4699999999998</ele>
        <time>2016-07-06T06:59:49Z</time>
      </trkpt>
      <trkpt lat="46.017995970323682" lon="7.218194017186761">
        <ele>2315.4699999999998</ele>
        <time>2016-07-06T07:00:01Z</time>
      </trkpt>
      <trkpt lat="46.017997898161411" lon="7.218183791264892">
        <ele>2315.4699999999998</ele>
        <time>2016-07-06T07:00:15Z</time>
      </trkpt>
      <trkpt lat="46.017987504601479" lon="7.218196447938681">
        <ele>2315.9499999999998</ele>
        <time>2016-07-06T07:00:35Z</time>
      </trkpt>
      <trkpt lat="46.01800661534071" lon="7.21821011044085">
        <ele>2315.9499999999998</ele>
        <time>2016-07-06T07:00:47Z</time>
      </trkpt>
      <trkpt lat="46.018040562048554" lon="7.21821740269661">
        <ele>2315.4699999999998</ele>
        <time>2016-07-06T07:01:01Z</time>
      </trkpt>
      <trkpt lat="46.018068641424179" lon="7.218341203406453">
        <ele>2314.0300000000002</ele>
        <time>2016-07-06T07:01:11Z</time>
      </trkpt>
      <trkpt lat="46.018068557605147" lon="7.218413623049855">
        <ele>2314.0300000000002</ele>
        <time>2016-07-06T07:01:16Z</time>
      </trkpt>
      <trkpt lat="46.018147682771087" lon="7.218466680496931">
        <ele>2314.0300000000002</ele>
        <time>2016-07-06T07:01:24Z</time>
      </trkpt>
      <trkpt lat="46.018251618370414" lon="7.218557205051184">
        <ele>2311.6300000000001</ele>
        <time>2016-07-06T07:01:35Z</time>
      </trkpt>
      <trkpt lat="46.018285565078259" lon="7.218585703521967">
        <ele>2310.6700000000001</ele>
        <time>2016-07-06T07:01:39Z</time>
      </trkpt>
      <trkpt lat="46.018370054662228" lon="7.21866306848824">
        <ele>2307.3000000000002</ele>
        <time>2016-07-06T07:01:49Z</time>
      </trkpt>
      <trkpt lat="46.018382711336017" lon="7.218678407371044">
        <ele>2306.3400000000001</ele>
        <time>2016-07-06T07:01:51Z</time>
      </trkpt>
      <trkpt lat="46.018416071310639" lon="7.218720400705934">
        <ele>2304.9000000000001</ele>
        <time>2016-07-06T07:01:55Z</time>
      </trkpt>
      <trkpt lat="46.018446581438184" lon="7.218730039894581">
        <ele>2303.9400000000001</ele>
        <time>2016-07-06T07:01:58Z</time>
      </trkpt>
      <trkpt lat="46.018604412674904" lon="7.218652758747339">
        <ele>2302.4899999999998</ele>
        <time>2016-07-06T07:02:13Z</time>
      </trkpt>
      <trkpt lat="46.018670294433832" lon="7.218678155913949">
        <ele>2301.5300000000002</ele>
        <time>2016-07-06T07:02:18Z</time>
      </trkpt>
      <trkpt lat="46.018790071830153" lon="7.218749988824129">
        <ele>2298.1700000000001</ele>
        <time>2016-07-06T07:02:29Z</time>
      </trkpt>
      <trkpt lat="46.01888713426888" lon="7.218806566670537">
        <ele>2295.2800000000002</ele>
        <time>2016-07-06T07:02:39Z</time>
      </trkpt>
      <trkpt lat="46.019025100395083" lon="7.218854511156678">
        <ele>2292.8800000000001</ele>
        <time>2016-07-06T07:02:51Z</time>
      </trkpt>
      <trkpt lat="46.019120067358017" lon="7.21890052780509">
        <ele>2290.48</ele>
        <time>2016-07-06T07:03:00Z</time>
      </trkpt>
      <trkpt lat="46.019145045429468" lon="7.218933468684554">
        <ele>2290</ele>
        <time>2016-07-06T07:03:03Z</time>
      </trkpt>
      <trkpt lat="46.019136076793075" lon="7.219005469232798">
        <ele>2288.5599999999999</ele>
        <time>2016-07-06T07:03:07Z</time>
      </trkpt>
      <trkpt lat="46.019142111763358" lon="7.219066070392728">
        <ele>2288.0799999999999</ele>
        <time>2016-07-06T07:03:10Z</time>
      </trkpt>
      <trkpt lat="46.019140016287565" lon="7.219112338498235">
        <ele>2288.5599999999999</ele>
        <time>2016-07-06T07:03:14Z</time>
      </trkpt>
      <trkpt lat="46.019144123420119" lon="7.219194732606411">
        <ele>2288.5599999999999</ele>
        <time>2016-07-06T07:03:19Z</time>
      </trkpt>
      <trkpt lat="46.01913733407855" lon="7.219289615750313">
        <ele>2285.1900000000001</ele>
        <time>2016-07-06T07:03:26Z</time>
      </trkpt>
      <trkpt lat="46.019136076793075" lon="7.219313504174352">
        <ele>2284.23</ele>
        <time>2016-07-06T07:03:28Z</time>
      </trkpt>
      <trkpt lat="46.019116379320621" lon="7.219427498057485">
        <ele>2282.79</ele>
        <time>2016-07-06T07:03:36Z</time>
      </trkpt>
      <trkpt lat="46.019115876406431" lon="7.219439819455147">
        <ele>2282.79</ele>
        <time>2016-07-06T07:03:37Z</time>
      </trkpt>
      <trkpt lat="46.019147979095578" lon="7.219553142786026">
        <ele>2280.8699999999999</ele>
        <time>2016-07-06T07:03:46Z</time>
      </trkpt>
      <trkpt lat="46.019155774265528" lon="7.219613324850798">
        <ele>2279.9000000000001</ele>
        <time>2016-07-06T07:03:52Z</time>
      </trkpt>
      <trkpt lat="46.019150326028466" lon="7.219690354540944">
        <ele>2278.46</ele>
        <time>2016-07-06T07:03:58Z</time>
      </trkpt>
      <trkpt lat="46.019164491444826" lon="7.219725642353296">
        <ele>2277.02</ele>
        <time>2016-07-06T07:04:01Z</time>
      </trkpt>
      <trkpt lat="46.019192570820451" lon="7.21972337923944">
        <ele>2276.0599999999999</ele>
        <time>2016-07-06T07:04:06Z</time>
      </trkpt>
      <trkpt lat="46.01923213340342" lon="7.219770653173327">
        <ele>2274.6199999999999</ele>
        <time>2016-07-06T07:04:11Z</time>
      </trkpt>
      <trkpt lat="46.019289884716272" lon="7.219878025352955">
        <ele>2270.29</ele>
        <time>2016-07-06T07:04:21Z</time>
      </trkpt>
      <trkpt lat="46.019338667392731" lon="7.219931669533253">
        <ele>2268.8499999999999</ele>
        <time>2016-07-06T07:04:29Z</time>
      </trkpt>
      <trkpt lat="46.019392730668187" lon="7.219975171610713">
        <ele>2266.9299999999998</ele>
        <time>2016-07-06T07:04:35Z</time>
      </trkpt>
      <trkpt lat="46.019469844177365" lon="7.220017081126571">
        <ele>2263.5599999999999</ele>
        <time>2016-07-06T07:04:44Z</time>
      </trkpt>
      <trkpt lat="46.01946565322578" lon="7.220082124695182">
        <ele>2261.6399999999999</ele>
        <time>2016-07-06T07:04:53Z</time>
      </trkpt>
      <trkpt lat="46.019457941874862" lon="7.220103666186333">
        <ele>2261.1599999999999</ele>
        <time>2016-07-06T07:04:58Z</time>
      </trkpt>
      <trkpt lat="46.019438076764345" lon="7.220171894878149">
        <ele>2259.2399999999998</ele>
        <time>2016-07-06T07:05:02Z</time>
      </trkpt>
      <trkpt lat="46.019502952694893" lon="7.220329558476806">
        <ele>2256.8299999999999</ele>
        <time>2016-07-06T07:05:15Z</time>
      </trkpt>
      <trkpt lat="46.019516615197062" lon="7.22038303501904">
        <ele>2255.8699999999999</ele>
        <time>2016-07-06T07:05:19Z</time>
      </trkpt>
      <trkpt lat="46.019522901624441" lon="7.220526114106178">
        <ele>2255.8699999999999</ele>
        <time>2016-07-06T07:05:30Z</time>
      </trkpt>
      <trkpt lat="46.019524829462171" lon="7.220578920096159">
        <ele>2255.8699999999999</ele>
        <time>2016-07-06T07:05:33Z</time>
      </trkpt>
      <trkpt lat="46.019528014585376" lon="7.220673551782966">
        <ele>2255.8699999999999</ele>
        <time>2016-07-06T07:05:39Z</time>
      </trkpt>
      <trkpt lat="46.019541844725609" lon="7.22079835832119">
        <ele>2256.3499999999999</ele>
        <time>2016-07-06T07:05:49Z</time>
      </trkpt>
      <trkpt lat="46.019525583833456" lon="7.220844207331538">
        <ele>2255.8699999999999</ele>
        <time>2016-07-06T07:05:59Z</time>
      </trkpt>
      <trkpt lat="46.019509406760335" lon="7.220858624204993">
        <ele>2255.8699999999999</ele>
        <time>2016-07-06T07:06:04Z</time>
      </trkpt>
      <trkpt lat="46.019414775073528" lon="7.22097085788846">
        <ele>2256.3499999999999</ele>
        <time>2016-07-06T07:06:15Z</time>
      </trkpt>
      <trkpt lat="46.019347468391061" lon="7.221083762124181">
        <ele>2255.8699999999999</ele>
        <time>2016-07-06T07:06:25Z</time>
      </trkpt>
      <trkpt lat="46.019279574975371" lon="7.221194738522172">
        <ele>2256.3499999999999</ele>
        <time>2016-07-06T07:06:38Z</time>
      </trkpt>
      <trkpt lat="46.019274378195405" lon="7.221217788755894">
        <ele>2256.3499999999999</ele>
        <time>2016-07-06T07:06:40Z</time>
      </trkpt>
      <trkpt lat="46.019307486712933" lon="7.221359442919493">
        <ele>2255.8699999999999</ele>
        <time>2016-07-06T07:06:50Z</time>
      </trkpt>
      <trkpt lat="46.019312767311931" lon="7.221378972753882">
        <ele>2255.8699999999999</ele>
        <time>2016-07-06T07:06:52Z</time>
      </trkpt>
      <trkpt lat="46.019299440085888" lon="7.221488272771239">
        <ele>2255.8699999999999</ele>
        <time>2016-07-06T07:07:02Z</time>
      </trkpt>
      <trkpt lat="46.019323999062181" lon="7.221556082367897">
        <ele>2256.3499999999999</ele>
        <time>2016-07-06T07:07:11Z</time>
      </trkpt>
      <trkpt lat="46.019385019317269" lon="7.221585419028997">
        <ele>2256.8299999999999</ele>
        <time>2016-07-06T07:07:19Z</time>
      </trkpt>
      <trkpt lat="46.019438076764345" lon="7.221656329929829">
        <ele>2258.75</ele>
        <time>2016-07-06T07:07:30Z</time>
      </trkpt>
      <trkpt lat="46.019465569406748" lon="7.221715589985251">
        <ele>2260.6799999999998</ele>
        <time>2016-07-06T07:07:41Z</time>
      </trkpt>
      <trkpt lat="46.019443944096565" lon="7.221759343519807">
        <ele>2262.1199999999999</ele>
        <time>2016-07-06T07:07:49Z</time>
      </trkpt>
      <trkpt lat="46.019452745094895" lon="7.221833942458034">
        <ele>2263.0799999999999</ele>
        <time>2016-07-06T07:07:58Z</time>
      </trkpt>
      <trkpt lat="46.019463473930955" lon="7.221880881115794">
        <ele>2263.5599999999999</ele>
        <time>2016-07-06T07:08:02Z</time>
      </trkpt>
      <trkpt lat="46.019460624083877" lon="7.221920359879732">
        <ele>2263.5599999999999</ele>
        <time>2016-07-06T07:08:05Z</time>
      </trkpt>
      <trkpt lat="46.019468335434794" lon="7.222003256902099">
        <ele>2263.5599999999999</ele>
        <time>2016-07-06T07:08:11Z</time>
      </trkpt>
      <trkpt lat="46.019477974623442" lon="7.222039718180895">
        <ele>2264.04</ele>
        <time>2016-07-06T07:08:14Z</time>
      </trkpt>
      <trkpt lat="46.019467748701572" lon="7.222197884693742">
        <ele>2264.04</ele>
        <time>2016-07-06T07:08:24Z</time>
      </trkpt>
      <trkpt lat="46.019469257444143" lon="7.222271980717778">
        <ele>2263.5599999999999</ele>
        <time>2016-07-06T07:08:29Z</time>
      </trkpt>
      <trkpt lat="46.019486105069518" lon="7.222355380654335">
        <ele>2262.5999999999999</ele>
        <time>2016-07-06T07:08:34Z</time>
      </trkpt>
      <trkpt lat="46.019501024857163" lon="7.222548415884376">
        <ele>2261.6399999999999</ele>
        <time>2016-07-06T07:08:46Z</time>
      </trkpt>
      <trkpt lat="46.019520973786712" lon="7.222673390060663">
        <ele>2261.6399999999999</ele>
        <time>2016-07-06T07:08:55Z</time>
      </trkpt>
      <trkpt lat="46.019523404538631" lon="7.222707588225603">
        <ele>2261.6399999999999</ele>
        <time>2016-07-06T07:08:57Z</time>
      </trkpt>
      <trkpt lat="46.019514771178365" lon="7.222739774733782">
        <ele>2261.1599999999999</ele>
        <time>2016-07-06T07:09:06Z</time>
      </trkpt>
      <trkpt lat="46.019519045948982" lon="7.222750755026937">
        <ele>2261.1599999999999</ele>
        <time>2016-07-06T07:09:10Z</time>
      </trkpt>
      <trkpt lat="46.019489960744977" lon="7.222853181883693">
        <ele>2260.1999999999998</ele>
        <time>2016-07-06T07:09:23Z</time>
      </trkpt>
      <trkpt lat="46.019461462274194" lon="7.222986621782184">
        <ele>2258.75</ele>
        <time>2016-07-06T07:09:34Z</time>
      </trkpt>
      <trkpt lat="46.019452242180705" lon="7.22305971197784">
        <ele>2258.75</ele>
        <time>2016-07-06T07:09:43Z</time>
      </trkpt>
      <trkpt lat="46.019430784508586" lon="7.22311737947166">
        <ele>2258.75</ele>
        <time>2016-07-06T07:09:51Z</time>
      </trkpt>
      <trkpt lat="46.01944712921977" lon="7.223199186846614">
        <ele>2258.75</ele>
        <time>2016-07-06T07:10:02Z</time>
      </trkpt>
      <trkpt lat="46.019454505294561" lon="7.223260290920734">
        <ele>2258.27</ele>
        <time>2016-07-06T07:10:11Z</time>
      </trkpt>
      <trkpt lat="46.019464312121272" lon="7.223320892080665">
        <ele>2257.79</ele>
        <time>2016-07-06T07:10:22Z</time>
      </trkpt>
      <trkpt lat="46.019471017643809" lon="7.223382834345102">
        <ele>2256.8299999999999</ele>
        <time>2016-07-06T07:10:30Z</time>
      </trkpt>
      <trkpt lat="46.01946959272027" lon="7.223490960896015">
        <ele>2256.8299999999999</ele>
        <time>2016-07-06T07:10:41Z</time>
      </trkpt>
      <trkpt lat="46.019490044564009" lon="7.223565224558115">
        <ele>2256.3499999999999</ele>
        <time>2016-07-06T07:10:52Z</time>
      </trkpt>
      <trkpt lat="46.019508987665176" lon="7.223680559545755">
        <ele>2256.8299999999999</ele>
        <time>2016-07-06T07:11:05Z</time>
      </trkpt>
      <trkpt lat="46.019534301012754" lon="7.223715595901012">
        <ele>2256.8299999999999</ele>
        <time>2016-07-06T07:11:14Z</time>
      </trkpt>
      <trkpt lat="46.019580820575356" lon="7.223811401054263">
        <ele>2258.27</ele>
        <time>2016-07-06T07:11:25Z</time>
      </trkpt>
      <trkpt lat="46.019604541361332" lon="7.223891532048583">
        <ele>2259.2399999999998</ele>
        <time>2016-07-06T07:11:32Z</time>
      </trkpt>
      <trkpt lat="46.019645947962999" lon="7.224044417962432">
        <ele>2257.3099999999999</ele>
        <time>2016-07-06T07:11:44Z</time>
      </trkpt>
      <trkpt lat="46.019671009853482" lon="7.224116250872612">
        <ele>2255.8699999999999</ele>
        <time>2016-07-06T07:11:56Z</time>
      </trkpt>
      <trkpt lat="46.019763378426433" lon="7.224217420443893">
        <ele>2257.79</ele>
        <time>2016-07-06T07:12:08Z</time>
      </trkpt>
      <trkpt lat="46.01983118802309" lon="7.224275590851903">
        <ele>2259.7199999999998</ele>
        <time>2016-07-06T07:12:19Z</time>
      </trkpt>
      <trkpt lat="46.019852310419083" lon="7.224285816773772">
        <ele>2260.1999999999998</ele>
        <time>2016-07-06T07:12:22Z</time>
      </trkpt>
      <trkpt lat="46.019941829144955" lon="7.224330743774772">
        <ele>2260.1999999999998</ele>
        <time>2016-07-06T07:12:32Z</time>
      </trkpt>
      <trkpt lat="46.020019110292196" lon="7.224343316629529">
        <ele>2260.1999999999998</ele>
        <time>2016-07-06T07:12:41Z</time>
      </trkpt>
      <trkpt lat="46.020042579621077" lon="7.224345412105322">
        <ele>2259.7199999999998</ele>
        <time>2016-07-06T07:12:56Z</time>
      </trkpt>
      <trkpt lat="46.02016294375062" lon="7.224342143163085">
        <ele>2257.3099999999999</ele>
        <time>2016-07-06T07:13:07Z</time>
      </trkpt>
      <trkpt lat="46.02027827873826" lon="7.224359409883618">
        <ele>2253.9499999999998</ele>
        <time>2016-07-06T07:13:18Z</time>
      </trkpt>
      <trkpt lat="46.020287331193686" lon="7.224363014101982">
        <ele>2253.9499999999998</ele>
        <time>2016-07-06T07:13:19Z</time>
      </trkpt>
      <trkpt lat="46.020369222387671" lon="7.224340047687292">
        <ele>2253.9499999999998</ele>
        <time>2016-07-06T07:13:32Z</time>
      </trkpt>
      <trkpt lat="46.020380118861794" lon="7.224332168698311">
        <ele>2251.54</ele>
        <time>2016-07-06T07:13:36Z</time>
      </trkpt>
      <trkpt lat="46.020394451916218" lon="7.224295875057578">
        <ele>2250.0999999999999</ele>
        <time>2016-07-06T07:13:46Z</time>
      </trkpt>
      <trkpt lat="46.020508361980319" lon="7.224310962483287">
        <ele>2246.7399999999998</ele>
        <time>2016-07-06T07:13:58Z</time>
      </trkpt>
      <trkpt lat="46.020565442740917" lon="7.224300904199481">
        <ele>2243.8499999999999</ele>
        <time>2016-07-06T07:14:07Z</time>
      </trkpt>
      <trkpt lat="46.02063400670886" lon="7.224290762096643">
        <ele>2241.4499999999998</ele>
        <time>2016-07-06T07:14:14Z</time>
      </trkpt>
      <trkpt lat="46.020677760243416" lon="7.22428715787828">
        <ele>2239.5300000000002</ele>
        <time>2016-07-06T07:14:24Z</time>
      </trkpt>
      <trkpt lat="46.020676754415035" lon="7.224287576973438">
        <ele>2239.5300000000002</ele>
        <time>2016-07-06T07:14:28Z</time>
      </trkpt>
      <trkpt lat="46.0207873955369" lon="7.22425052896142">
        <ele>2237.1300000000001</ele>
        <time>2016-07-06T07:14:38Z</time>
      </trkpt>
      <trkpt lat="46.020909855142236" lon="7.224260838702321">
        <ele>2234.2399999999998</ele>
        <time>2016-07-06T07:14:47Z</time>
      </trkpt>
      <trkpt lat="46.021047905087471" lon="7.224243739619851">
        <ele>2231.3600000000001</ele>
        <time>2016-07-06T07:15:01Z</time>
      </trkpt>
      <trkpt lat="46.021038265898824" lon="7.224240386858583">
        <ele>2231.3600000000001</ele>
        <time>2016-07-06T07:15:16Z</time>
      </trkpt>
      <trkpt lat="46.021132729947567" lon="7.224229071289301">
        <ele>2229.4299999999998</ele>
        <time>2016-07-06T07:15:26Z</time>
      </trkpt>
      <trkpt lat="46.021171119064093" lon="7.22421633079648">
        <ele>2227.9899999999998</ele>
        <time>2016-07-06T07:15:30Z</time>
      </trkpt>
      <trkpt lat="46.021273881196976" lon="7.224217252805829">
        <ele>2224.6300000000001</ele>
        <time>2016-07-06T07:15:40Z</time>
      </trkpt>
      <trkpt lat="46.021312437951565" lon="7.224189173430204">
        <ele>2223.1900000000001</ele>
        <time>2016-07-06T07:15:44Z</time>
      </trkpt>
      <trkpt lat="46.021387707442045" lon="7.224281122907996">
        <ele>2219.3400000000001</ele>
        <time>2016-07-06T07:15:53Z</time>
      </trkpt>
      <trkpt lat="46.021416122093797" lon="7.224283050745726">
        <ele>2218.8600000000001</ele>
        <time>2016-07-06T07:15:56Z</time>
      </trkpt>
      <trkpt lat="46.021442022174597" lon="7.22429889254272">
        <ele>2217.9000000000001</ele>
        <time>2016-07-06T07:15:59Z</time>
      </trkpt>
      <trkpt lat="46.021546125411987" lon="7.224324122071266">
        <ele>2214.0500000000002</ele>
        <time>2016-07-06T07:16:09Z</time>
      </trkpt>
      <trkpt lat="46.021555848419666" lon="7.224327558651567">
        <ele>2214.0500000000002</ele>
        <time>2016-07-06T07:16:10Z</time>
      </trkpt>
      <trkpt lat="46.021626340225339" lon="7.224369803443551">
        <ele>2211.1700000000001</ele>
        <time>2016-07-06T07:16:18Z</time>
      </trkpt>
      <trkpt lat="46.021726755425334" lon="7.224404839798808">
        <ele>2207.8099999999999</ele>
        <time>2016-07-06T07:16:29Z</time>
      </trkpt>
      <trkpt lat="46.02179397828877" lon="7.224421352148056">
        <ele>2204.9200000000001</ele>
        <time>2016-07-06T07:16:38Z</time>
      </trkpt>
      <trkpt lat="46.021875031292439" lon="7.224455466493964">
        <ele>2202.04</ele>
        <time>2016-07-06T07:16:49Z</time>
      </trkpt>
      <trkpt lat="46.021934123709798" lon="7.224527802318335">
        <ele>2199.1500000000001</ele>
        <time>2016-07-06T07:16:59Z</time>
      </trkpt>
      <trkpt lat="46.021968992426991" lon="7.22466291859746">
        <ele>2197.23</ele>
        <time>2016-07-06T07:17:09Z</time>
      </trkpt>
      <trkpt lat="46.022012662142515" lon="7.224679514765739">
        <ele>2196.75</ele>
        <time>2016-07-06T07:17:14Z</time>
      </trkpt>
      <trkpt lat="46.022119028493762" lon="7.224873974919319">
        <ele>2194.8299999999999</ele>
        <time>2016-07-06T07:17:29Z</time>
      </trkpt>
      <trkpt lat="46.022127075120807" lon="7.224888978525996">
        <ele>2195.3099999999999</ele>
        <time>2016-07-06T07:17:30Z</time>
      </trkpt>
      <trkpt lat="46.022208966314793" lon="7.225011102855206">
        <ele>2192.9000000000001</ele>
        <time>2016-07-06T07:17:41Z</time>
      </trkpt>
      <trkpt lat="46.022264957427979" lon="7.225083606317639">
        <ele>2190.98</ele>
        <time>2016-07-06T07:17:51Z</time>
      </trkpt>
      <trkpt lat="46.022314494475722" lon="7.225151583552361">
        <ele>2188.0999999999999</ele>
        <time>2016-07-06T07:18:02Z</time>
      </trkpt>
      <trkpt lat="46.022375598549843" lon="7.225248897448182">
        <ele>2185.6900000000001</ele>
        <time>2016-07-06T07:18:13Z</time>
      </trkpt>
      <trkpt lat="46.022409796714783" lon="7.225235234946013">
        <ele>2187.1399999999999</ele>
        <time>2016-07-06T07:18:19Z</time>
      </trkpt>
      <trkpt lat="46.022459585219622" lon="7.225196091458201">
        <ele>2187.1399999999999</ele>
        <time>2016-07-06T07:18:24Z</time>
      </trkpt>
      <trkpt lat="46.022553546354175" lon="7.225170023739338">
        <ele>2186.6599999999999</ele>
        <time>2016-07-06T07:18:33Z</time>
      </trkpt>
      <trkpt lat="46.022575590759516" lon="7.225191229954362">
        <ele>2186.6599999999999</ele>
        <time>2016-07-06T07:18:35Z</time>
      </trkpt>
      <trkpt lat="46.022621272131801" lon="7.225241772830486">
        <ele>2185.6900000000001</ele>
        <time>2016-07-06T07:18:45Z</time>
      </trkpt>
      <trkpt lat="46.022706180810928" lon="7.22529617138207">
        <ele>2184.73</ele>
        <time>2016-07-06T07:18:53Z</time>
      </trkpt>
      <trkpt lat="46.022865269333124" lon="7.225340595468879">
        <ele>2181.3699999999999</ele>
        <time>2016-07-06T07:19:06Z</time>
      </trkpt>
      <trkpt lat="46.023009940981865" lon="7.225369429215789">
        <ele>2178.48</ele>
        <time>2016-07-06T07:19:19Z</time>
      </trkpt>
      <trkpt lat="46.023120414465666" lon="7.225403040647507">
        <ele>2177.04</ele>
        <time>2016-07-06T07:19:30Z</time>
      </trkpt>
      <trkpt lat="46.023231307044625" lon="7.225412093102932">
        <ele>2174.6399999999999</ele>
        <time>2016-07-06T07:19:41Z</time>
      </trkpt>
      <trkpt lat="46.023356448858976" lon="7.225459199398756">
        <ele>2173.1999999999998</ele>
        <time>2016-07-06T07:19:52Z</time>
      </trkpt>
      <trkpt lat="46.023474633693695" lon="7.225538995116949">
        <ele>2171.27</ele>
        <time>2016-07-06T07:20:03Z</time>
      </trkpt>
      <trkpt lat="46.023581502959132" lon="7.225661957636476">
        <ele>2170.3099999999999</ele>
        <time>2016-07-06T07:20:15Z</time>
      </trkpt>
      <trkpt lat="46.023682337254286" lon="7.225741418078542">
        <ele>2168.8699999999999</ele>
        <time>2016-07-06T07:20:26Z</time>
      </trkpt>
      <trkpt lat="46.023770850151777" lon="7.225810317322612">
        <ele>2167.4299999999998</ele>
        <time>2016-07-06T07:20:36Z</time>
      </trkpt>
      <trkpt lat="46.023865230381489" lon="7.225874606519938">
        <ele>2165.9899999999998</ele>
        <time>2016-07-06T07:20:47Z</time>
      </trkpt>
      <trkpt lat="46.023936225101352" lon="7.225947864353657">
        <ele>2164.5500000000002</ele>
        <time>2016-07-06T07:20:57Z</time>
      </trkpt>
      <trkpt lat="46.024038484320045" lon="7.226024307310581">
        <ele>2163.0999999999999</ele>
        <time>2016-07-06T07:21:08Z</time>
      </trkpt>
      <trkpt lat="46.024113418534398" lon="7.226060433313251">
        <ele>2161.6599999999999</ele>
        <time>2016-07-06T07:21:17Z</time>
      </trkpt>
      <trkpt lat="46.024218527600169" lon="7.226106869056821">
        <ele>2160.2199999999998</ele>
        <time>2016-07-06T07:21:28Z</time>
      </trkpt>
      <trkpt lat="46.024297988042235" lon="7.226123716682196">
        <ele>2158.3000000000002</ele>
        <time>2016-07-06T07:21:38Z</time>
      </trkpt>
      <trkpt lat="46.024323469027877" lon="7.226137965917587">
        <ele>2157.3400000000001</ele>
        <time>2016-07-06T07:21:41Z</time>
      </trkpt>
      <trkpt lat="46.024408712983131" lon="7.226255480200052">
        <ele>2154.9299999999998</ele>
        <time>2016-07-06T07:21:53Z</time>
      </trkpt>
      <trkpt lat="46.024476522579789" lon="7.226387327536941">
        <ele>2152.0500000000002</ele>
        <time>2016-07-06T07:22:05Z</time>
      </trkpt>
      <trkpt lat="46.024533938616514" lon="7.226432003080845">
        <ele>2150.1300000000001</ele>
        <time>2016-07-06T07:22:16Z</time>
      </trkpt>
      <trkpt lat="46.024613315239549" lon="7.226489000022411">
        <ele>2148.1999999999998</ele>
        <time>2016-07-06T07:22:28Z</time>
      </trkpt>
      <trkpt lat="46.024678023532033" lon="7.226544404402375">
        <ele>2146.2800000000002</ele>
        <time>2016-07-06T07:22:39Z</time>
      </trkpt>
      <trkpt lat="46.024739379063249" lon="7.226579859852791">
        <ele>2144.8400000000001</ele>
        <time>2016-07-06T07:22:48Z</time>
      </trkpt>
      <trkpt lat="46.024868544191122" lon="7.226669462397695">
        <ele>2141.4699999999998</ele>
        <time>2016-07-06T07:23:03Z</time>
      </trkpt>
      <trkpt lat="46.024875165894628" lon="7.226669881492853">
        <ele>2140.9899999999998</ele>
        <time>2016-07-06T07:23:04Z</time>
      </trkpt>
      <trkpt lat="46.024910202249885" lon="7.226661164313555">
        <ele>2140.5100000000002</ele>
        <time>2016-07-06T07:23:08Z</time>
      </trkpt>
      <trkpt lat="46.025032661855221" lon="7.226710114628077">
        <ele>2138.5900000000001</ele>
        <time>2016-07-06T07:23:21Z</time>
      </trkpt>
      <trkpt lat="46.025056717917323" lon="7.226720508188009">
        <ele>2138.5900000000001</ele>
        <time>2016-07-06T07:23:24Z</time>
      </trkpt>
      <trkpt lat="46.025168783962727" lon="7.226721262559295">
        <ele>2136.6700000000001</ele>
        <time>2016-07-06T07:23:35Z</time>
      </trkpt>
      <trkpt lat="46.025289567187428" lon="7.226734170690179">
        <ele>2133.7800000000002</ele>
        <time>2016-07-06T07:23:48Z</time>
      </trkpt>
      <trkpt lat="46.025353772565722" lon="7.226826790720224">
        <ele>2130.9000000000001</ele>
        <time>2016-07-06T07:23:59Z</time>
      </trkpt>
      <trkpt lat="46.025360729545355" lon="7.226832238957286">
        <ele>2130.4200000000001</ele>
        <time>2016-07-06T07:24:00Z</time>
      </trkpt>
      <trkpt lat="46.025448990985751" lon="7.2269247751683">
        <ele>2128.02</ele>
        <time>2016-07-06T07:24:12Z</time>
      </trkpt>
      <trkpt lat="46.025463743135333" lon="7.226943550631404">
        <ele>2128.02</ele>
        <time>2016-07-06T07:24:16Z</time>
      </trkpt>
      <trkpt lat="46.025483859702945" lon="7.226998955011368">
        <ele>2127.5300000000002</ele>
        <time>2016-07-06T07:24:21Z</time>
      </trkpt>
      <trkpt lat="46.025505485013127" lon="7.227027369663119">
        <ele>2127.0500000000002</ele>
        <time>2016-07-06T07:24:24Z</time>
      </trkpt>
      <trkpt lat="46.025523422285914" lon="7.227041367441416">
        <ele>2127.0500000000002</ele>
        <time>2016-07-06T07:24:26Z</time>
      </trkpt>
      <trkpt lat="46.025596596300602" lon="7.22722384147346">
        <ele>2125.6100000000001</ele>
        <time>2016-07-06T07:24:39Z</time>
      </trkpt>
      <trkpt lat="46.025679409503937" lon="7.227411344647408">
        <ele>2123.21</ele>
        <time>2016-07-06T07:24:53Z</time>
      </trkpt>
      <trkpt lat="46.025789799168706" lon="7.227559788152576">
        <ele>2122.25</ele>
        <time>2016-07-06T07:25:06Z</time>
      </trkpt>
      <trkpt lat="46.025883089751005" lon="7.227701023221016">
        <ele>2122.25</ele>
        <time>2016-07-06T07:25:18Z</time>
      </trkpt>
      <trkpt lat="46.025989623740315" lon="7.227835301309824">
        <ele>2121.29</ele>
        <time>2016-07-06T07:25:31Z</time>
      </trkpt>
      <trkpt lat="46.025998676195741" lon="7.227840917184949">
        <ele>2121.29</ele>
        <time>2016-07-06T07:25:32Z</time>
      </trkpt>
      <trkpt lat="46.026112083345652" lon="7.227908810600638">
        <ele>2120.8099999999999</ele>
        <time>2016-07-06T07:25:43Z</time>
      </trkpt>
      <trkpt lat="46.026214007288218" lon="7.22793429158628">
        <ele>2119.8400000000001</ele>
        <time>2016-07-06T07:25:52Z</time>
      </trkpt>
      <trkpt lat="46.026313919574022" lon="7.227961616590619">
        <ele>2118.8800000000001</ele>
        <time>2016-07-06T07:26:01Z</time>
      </trkpt>
      <trkpt lat="46.026376113295555" lon="7.227988271042705">
        <ele>2118.8800000000001</ele>
        <time>2016-07-06T07:26:07Z</time>
      </trkpt>
      <trkpt lat="46.026412658393383" lon="7.228008303791285">
        <ele>2118.8800000000001</ele>
        <time>2016-07-06T07:26:12Z</time>
      </trkpt>
      <trkpt lat="46.026487844064832" lon="7.228013416752219">
        <ele>2118.8800000000001</ele>
        <time>2016-07-06T07:26:19Z</time>
      </trkpt>
      <trkpt lat="46.026598401367664" lon="7.227982990443707">
        <ele>2118.4000000000001</ele>
        <time>2016-07-06T07:26:30Z</time>
      </trkpt>
      <trkpt lat="46.026626313105226" lon="7.227967735379934">
        <ele>2117.9200000000001</ele>
        <time>2016-07-06T07:26:33Z</time>
      </trkpt>
      <trkpt lat="46.026648273691535" lon="7.227969747036696">
        <ele>2117.9200000000001</ele>
        <time>2016-07-06T07:26:40Z</time>
      </trkpt>
      <trkpt lat="46.026709377765656" lon="7.227980475872755">
        <ele>2117.9200000000001</ele>
        <time>2016-07-06T07:26:46Z</time>
      </trkpt>
      <trkpt lat="46.026801411062479" lon="7.227969411760569">
        <ele>2117.4400000000001</ele>
        <time>2016-07-06T07:26:56Z</time>
      </trkpt>
      <trkpt lat="46.026864442974329" lon="7.227997994050384">
        <ele>2116.96</ele>
        <time>2016-07-06T07:27:01Z</time>
      </trkpt>
      <trkpt lat="46.026958487927914" lon="7.228047195822001">
        <ele>2116</ele>
        <time>2016-07-06T07:27:11Z</time>
      </trkpt>
      <trkpt lat="46.02703551761806" lon="7.228136966004968">
        <ele>2115.52</ele>
        <time>2016-07-06T07:27:19Z</time>
      </trkpt>
      <trkpt lat="46.027108859270811" lon="7.228205362334848">
        <ele>2115.52</ele>
        <time>2016-07-06T07:27:27Z</time>
      </trkpt>
      <trkpt lat="46.027168622240424" lon="7.228250624611974">
        <ele>2115.52</ele>
        <time>2016-07-06T07:27:34Z</time>
      </trkpt>
      <trkpt lat="46.027256967499852" lon="7.228334527462721">
        <ele>2115.04</ele>
        <time>2016-07-06T07:27:46Z</time>
      </trkpt>
      <trkpt lat="46.027308516204357" lon="7.228401498869062">
        <ele>2115.04</ele>
        <time>2016-07-06T07:27:55Z</time>
      </trkpt>
      <trkpt lat="46.027413289994001" lon="7.228533178567886">
        <ele>2114.5599999999999</ele>
        <time>2016-07-06T07:28:07Z</time>
      </trkpt>
      <trkpt lat="46.027483697980642" lon="7.228686483576894">
        <ele>2114.5599999999999</ele>
        <time>2016-07-06T07:28:20Z</time>
      </trkpt>
      <trkpt lat="46.027495851740241" lon="7.228707019239664">
        <ele>2114.5599999999999</ele>
        <time>2016-07-06T07:28:23Z</time>
      </trkpt>
      <trkpt lat="46.027543293312192" lon="7.228841297328472">
        <ele>2114.0799999999999</ele>
        <time>2016-07-06T07:28:34Z</time>
      </trkpt>
      <trkpt lat="46.027586376294494" lon="7.228975491598249">
        <ele>2114.0799999999999</ele>
        <time>2016-07-06T07:28:43Z</time>
      </trkpt>
      <trkpt lat="46.027613449841738" lon="7.22903466783464">
        <ele>2114.0799999999999</ele>
        <time>2016-07-06T07:28:54Z</time>
      </trkpt>
      <trkpt lat="46.02762677706778" lon="7.229156875982881">
        <ele>2113.5999999999999</ele>
        <time>2016-07-06T07:29:02Z</time>
      </trkpt>
      <trkpt lat="46.027636751532555" lon="7.229201216250658">
        <ele>2113.5999999999999</ele>
        <time>2016-07-06T07:29:05Z</time>
      </trkpt>
      <trkpt lat="46.027684612199664" lon="7.229299200698733">
        <ele>2113.1199999999999</ele>
        <time>2016-07-06T07:29:15Z</time>
      </trkpt>
      <trkpt lat="46.027730377390981" lon="7.229344211518765">
        <ele>2113.1199999999999</ele>
        <time>2016-07-06T07:29:26Z</time>
      </trkpt>
      <trkpt lat="46.027775723487139" lon="7.229393580928445">
        <ele>2113.1199999999999</ele>
        <time>2016-07-06T07:29:34Z</time>
      </trkpt>
      <trkpt lat="46.027839928865433" lon="7.229445548728108">
        <ele>2113.1199999999999</ele>
        <time>2016-07-06T07:29:44Z</time>
      </trkpt>
      <trkpt lat="46.027882676571608" lon="7.229464575648308">
        <ele>2113.1199999999999</ele>
        <time>2016-07-06T07:29:50Z</time>
      </trkpt>
      <trkpt lat="46.027913689613342" lon="7.229450410231948">
        <ele>2112.6300000000001</ele>
        <time>2016-07-06T07:29:54Z</time>
      </trkpt>
      <trkpt lat="46.027955850586295" lon="7.229476310312748">
        <ele>2112.6300000000001</ele>
        <time>2016-07-06T07:29:59Z</time>
      </trkpt>
      <trkpt lat="46.027986612170935" lon="7.229495504871011">
        <ele>2112.1500000000001</ele>
        <time>2016-07-06T07:30:03Z</time>
      </trkpt>
      <trkpt lat="46.028064982965589" lon="7.229552837088704">
        <ele>2112.6300000000001</ele>
        <time>2016-07-06T07:30:13Z</time>
      </trkpt>
      <trkpt lat="46.028098007664084" lon="7.229560799896717">
        <ele>2112.1500000000001</ele>
        <time>2016-07-06T07:30:17Z</time>
      </trkpt>
      <trkpt lat="46.028158022090793" lon="7.229580665007234">
        <ele>2112.1500000000001</ele>
        <time>2016-07-06T07:30:23Z</time>
      </trkpt>
      <trkpt lat="46.028220886364579" lon="7.229594327509403">
        <ele>2111.6700000000001</ele>
        <time>2016-07-06T07:30:32Z</time>
      </trkpt>
      <trkpt lat="46.02823656052351" lon="7.229617293924093">
        <ele>2111.6700000000001</ele>
        <time>2016-07-06T07:30:34Z</time>
      </trkpt>
      <trkpt lat="46.028284505009651" lon="7.229696670547128">
        <ele>2111.6700000000001</ele>
        <time>2016-07-06T07:30:42Z</time>
      </trkpt>
      <trkpt lat="46.028329432010651" lon="7.229728186503053">
        <ele>2111.6700000000001</ele>
        <time>2016-07-06T07:30:47Z</time>
      </trkpt>
      <trkpt lat="46.028417022898793" lon="7.229855256155133">
        <ele>2111.1900000000001</ele>
        <time>2016-07-06T07:30:59Z</time>
      </trkpt>
      <trkpt lat="46.028482066467404" lon="7.229963634163141">
        <ele>2111.1900000000001</ele>
        <time>2016-07-06T07:31:09Z</time>
      </trkpt>
      <trkpt lat="46.028488939628005" lon="7.229990372434259">
        <ele>2110.71</ele>
        <time>2016-07-06T07:31:11Z</time>
      </trkpt>
      <trkpt lat="46.028507044538856" lon="7.230028677731752">
        <ele>2111.1900000000001</ele>
        <time>2016-07-06T07:31:14Z</time>
      </trkpt>
      <trkpt lat="46.028540739789605" lon="7.230084836483002">
        <ele>2110.71</ele>
        <time>2016-07-06T07:31:19Z</time>
      </trkpt>
      <trkpt lat="46.028590528294444" lon="7.230214923620224">
        <ele>2109.75</ele>
        <time>2016-07-06T07:31:28Z</time>
      </trkpt>
      <trkpt lat="46.028659595176578" lon="7.230349956080318">
        <ele>2110.71</ele>
        <time>2016-07-06T07:31:41Z</time>
      </trkpt>
      <trkpt lat="46.028678035363555" lon="7.230358757078648">
        <ele>2110.71</ele>
        <time>2016-07-06T07:31:43Z</time>
      </trkpt>
      <trkpt lat="46.028713071718812" lon="7.230409299954772">
        <ele>2110.71</ele>
        <time>2016-07-06T07:31:48Z</time>
      </trkpt>
      <trkpt lat="46.028798567131162" lon="7.230461770668626">
        <ele>2110.23</ele>
        <time>2016-07-06T07:31:58Z</time>
      </trkpt>
      <trkpt lat="46.028831340372562" lon="7.230479791760445">
        <ele>2110.23</ele>
        <time>2016-07-06T07:32:02Z</time>
      </trkpt>
      <trkpt lat="46.02894407697022" lon="7.230474762618542">
        <ele>2109.27</ele>
        <time>2016-07-06T07:32:14Z</time>
      </trkpt>
      <trkpt lat="46.029036110267043" lon="7.230520024895668">
        <ele>2109.27</ele>
        <time>2016-07-06T07:32:24Z</time>
      </trkpt>
      <trkpt lat="46.029072320088744" lon="7.230560760945082">
        <ele>2108.79</ele>
        <time>2016-07-06T07:32:28Z</time>
      </trkpt>
      <trkpt lat="46.029144488275051" lon="7.230655727908015">
        <ele>2108.79</ele>
        <time>2016-07-06T07:32:39Z</time>
      </trkpt>
      <trkpt lat="46.02920307777822" lon="7.230749437585473">
        <ele>2108.3099999999999</ele>
        <time>2016-07-06T07:32:47Z</time>
      </trkpt>
      <trkpt lat="46.029264684766531" lon="7.230872400105">
        <ele>2107.8299999999999</ele>
        <time>2016-07-06T07:32:57Z</time>
      </trkpt>
      <trkpt lat="46.029384545981884" lon="7.230966780334711">
        <ele>2106.3899999999999</ele>
        <time>2016-07-06T07:33:10Z</time>
      </trkpt>
      <trkpt lat="46.029469119384885" lon="7.231040121987462">
        <ele>2106.8699999999999</ele>
        <time>2016-07-06T07:33:20Z</time>
      </trkpt>
      <trkpt lat="46.029477752745152" lon="7.231046324595809">
        <ele>2106.8699999999999</ele>
        <time>2016-07-06T07:33:21Z</time>
      </trkpt>
      <trkpt lat="46.02955779992044" lon="7.231117151677609">
        <ele>2107.8299999999999</ele>
        <time>2016-07-06T07:33:31Z</time>
      </trkpt>
      <trkpt lat="46.029605828225613" lon="7.231152774766088">
        <ele>2108.3099999999999</ele>
        <time>2016-07-06T07:33:37Z</time>
      </trkpt>
      <trkpt lat="46.029718732461333" lon="7.231148751452565">
        <ele>2109.27</ele>
        <time>2016-07-06T07:33:48Z</time>
      </trkpt>
      <trkpt lat="46.029737759381533" lon="7.231158223003149">
        <ele>2109.27</ele>
        <time>2016-07-06T07:33:50Z</time>
      </trkpt>
      <trkpt lat="46.029785955324769" lon="7.231167694553733">
        <ele>2109.27</ele>
        <time>2016-07-06T07:33:55Z</time>
      </trkpt>
      <trkpt lat="46.029898356646299" lon="7.231271965429187">
        <ele>2108.79</ele>
        <time>2016-07-06T07:34:08Z</time>
      </trkpt>
      <trkpt lat="46.029912186786532" lon="7.231266601011157">
        <ele>2108.79</ele>
        <time>2016-07-06T07:34:11Z</time>
      </trkpt>
      <trkpt lat="46.029999693855643" lon="7.231310857459903">
        <ele>2106.8699999999999</ele>
        <time>2016-07-06T07:34:20Z</time>
      </trkpt>
      <trkpt lat="46.030023330822587" lon="7.231348073109984">
        <ele>2106.3899999999999</ele>
        <time>2016-07-06T07:34:23Z</time>
      </trkpt>
      <trkpt lat="46.030065910890698" lon="7.231414373964071">
        <ele>2106.3899999999999</ele>
        <time>2016-07-06T07:34:29Z</time>
      </trkpt>
      <trkpt lat="46.030099773779511" lon="7.231428874656558">
        <ele>2105.9099999999999</ele>
        <time>2016-07-06T07:34:32Z</time>
      </trkpt>
      <trkpt lat="46.030143359676003" lon="7.231484614312649">
        <ele>2105.9099999999999</ele>
        <time>2016-07-06T07:34:37Z</time>
      </trkpt>
      <trkpt lat="46.030240841209888" lon="7.231590729206801">
        <ele>2107.3499999999999</ele>
        <time>2016-07-06T07:34:50Z</time>
      </trkpt>
      <trkpt lat="46.030294736847281" lon="7.231689970940352">
        <ele>2108.79</ele>
        <time>2016-07-06T07:35:00Z</time>
      </trkpt>
      <trkpt lat="46.030355505645275" lon="7.231826847419143">
        <ele>2109.75</ele>
        <time>2016-07-06T07:35:11Z</time>
      </trkpt>
      <trkpt lat="46.030394481495023" lon="7.231906056404114">
        <ele>2111.6700000000001</ele>
        <time>2016-07-06T07:35:20Z</time>
      </trkpt>
      <trkpt lat="46.030423901975155" lon="7.231923239305615">
        <ele>2112.1500000000001</ele>
        <time>2016-07-06T07:35:24Z</time>
      </trkpt>
      <trkpt lat="46.030448209494352" lon="7.231955006718636">
        <ele>2112.6300000000001</ele>
        <time>2016-07-06T07:35:28Z</time>
      </trkpt>
      <trkpt lat="46.030467236414552" lon="7.232005130499601">
        <ele>2112.6300000000001</ele>
        <time>2016-07-06T07:35:32Z</time>
      </trkpt>
      <trkpt lat="46.030497495085001" lon="7.232021056115627">
        <ele>2112.6300000000001</ele>
        <time>2016-07-06T07:35:35Z</time>
      </trkpt>
      <trkpt lat="46.030531190335751" lon="7.232047040015459">
        <ele>2113.1199999999999</ele>
        <time>2016-07-06T07:35:40Z</time>
      </trkpt>
      <trkpt lat="46.03058785200119" lon="7.232105294242501">
        <ele>2113.1199999999999</ele>
        <time>2016-07-06T07:35:47Z</time>
      </trkpt>
      <trkpt lat="46.030630934983492" lon="7.232141420245171">
        <ele>2113.1199999999999</ele>
        <time>2016-07-06T07:35:52Z</time>
      </trkpt>
      <trkpt lat="46.030651722103357" lon="7.23215508274734">
        <ele>2113.1199999999999</ele>
        <time>2016-07-06T07:35:54Z</time>
      </trkpt>
      <trkpt lat="46.030717100948095" lon="7.232246110215783">
        <ele>2113.1199999999999</ele>
        <time>2016-07-06T07:36:03Z</time>
      </trkpt>
      <trkpt lat="46.030834196135402" lon="7.232332527637482">
        <ele>2112.6300000000001</ele>
        <time>2016-07-06T07:36:15Z</time>
      </trkpt>
      <trkpt lat="46.030872836709023" lon="7.23237200640142">
        <ele>2113.1199999999999</ele>
        <time>2016-07-06T07:36:20Z</time>
      </trkpt>
      <trkpt lat="46.030958080664277" lon="7.232448449358344">
        <ele>2113.5999999999999</ele>
        <time>2016-07-06T07:36:29Z</time>
      </trkpt>
      <trkpt lat="46.03096948005259" lon="7.232463285326958">
        <ele>2113.5999999999999</ele>
        <time>2016-07-06T07:36:31Z</time>
      </trkpt>
      <trkpt lat="46.030999906361103" lon="7.232494214549661">
        <ele>2113.5999999999999</ele>
        <time>2016-07-06T07:36:35Z</time>
      </trkpt>
      <trkpt lat="46.031052879989147" lon="7.232548445463181">
        <ele>2114.0799999999999</ele>
        <time>2016-07-06T07:36:42Z</time>
      </trkpt>
      <trkpt lat="46.031135190278292" lon="7.232595719397068">
        <ele>2113.1199999999999</ele>
        <time>2016-07-06T07:36:50Z</time>
      </trkpt>
      <trkpt lat="46.031243149191141" lon="7.232693871483207">
        <ele>2112.6300000000001</ele>
        <time>2016-07-06T07:37:02Z</time>
      </trkpt>
      <trkpt lat="46.03127877227962" lon="7.232715915888548">
        <ele>2112.6300000000001</ele>
        <time>2016-07-06T07:37:06Z</time>
      </trkpt>
      <trkpt lat="46.031409110873938" lon="7.23283376544714">
        <ele>2112.1500000000001</ele>
        <time>2016-07-06T07:37:19Z</time>
      </trkpt>
      <trkpt lat="46.031462922692299" lon="7.2328738309443">
        <ele>2112.6300000000001</ele>
        <time>2016-07-06T07:37:26Z</time>
      </trkpt>
      <trkpt lat="46.031504329293966" lon="7.23292076960206">
        <ele>2113.5999999999999</ele>
        <time>2016-07-06T07:37:32Z</time>
      </trkpt>
      <trkpt lat="46.031619245186448" lon="7.232966534793377">
        <ele>2114.0799999999999</ele>
        <time>2016-07-06T07:37:44Z</time>
      </trkpt>
      <trkpt lat="46.031639948487282" lon="7.232980951666832">
        <ele>2114.5599999999999</ele>
        <time>2016-07-06T07:37:47Z</time>
      </trkpt>
      <trkpt lat="46.031735586002469" lon="7.232998805120587">
        <ele>2114.5599999999999</ele>
        <time>2016-07-06T07:37:59Z</time>
      </trkpt>
      <trkpt lat="46.031756289303303" lon="7.233022106811404">
        <ele>2114.0799999999999</ele>
        <time>2016-07-06T07:38:23Z</time>
      </trkpt>
      <trkpt lat="46.03176592849195" lon="7.233027890324593">
        <ele>2114.0799999999999</ele>
        <time>2016-07-06T07:38:24Z</time>
      </trkpt>
      <trkpt lat="46.031871205195785" lon="7.233108021318913">
        <ele>2115.04</ele>
        <time>2016-07-06T07:38:35Z</time>
      </trkpt>
      <trkpt lat="46.031922586262226" lon="7.233138279989362">
        <ele>2115.52</ele>
        <time>2016-07-06T07:38:40Z</time>
      </trkpt>
      <trkpt lat="46.032012775540352" lon="7.233179016038775">
        <ele>2116</ele>
        <time>2016-07-06T07:38:47Z</time>
      </trkpt>
      <trkpt lat="46.032039597630501" lon="7.23320315591991">
        <ele>2116</ele>
        <time>2016-07-06T07:38:49Z</time>
      </trkpt>
      <trkpt lat="46.032091230154037" lon="7.233230480924249">
        <ele>2116</ele>
        <time>2016-07-06T07:38:54Z</time>
      </trkpt>
      <trkpt lat="46.032204804942012" lon="7.233305331319571">
        <ele>2115.52</ele>
        <time>2016-07-06T07:39:04Z</time>
      </trkpt>
      <trkpt lat="46.0323400888592" lon="7.233350006863475">
        <ele>2114.5599999999999</ele>
        <time>2016-07-06T07:39:15Z</time>
      </trkpt>
      <trkpt lat="46.032386859878898" lon="7.233391162008047">
        <ele>2114.5599999999999</ele>
        <time>2016-07-06T07:39:19Z</time>
      </trkpt>
      <trkpt lat="46.03252281434834" lon="7.233474394306541">
        <ele>2114.5599999999999</ele>
        <time>2016-07-06T07:39:31Z</time>
      </trkpt>
      <trkpt lat="46.03253211826086" lon="7.233479339629412">
        <ele>2114.5599999999999</ele>
        <time>2016-07-06T07:39:32Z</time>
      </trkpt>
      <trkpt lat="46.032613757997751" lon="7.233566511422396">
        <ele>2116</ele>
        <time>2016-07-06T07:39:42Z</time>
      </trkpt>
      <trkpt lat="46.032635048031807" lon="7.233573384582996">
        <ele>2116.48</ele>
        <time>2016-07-06T07:39:45Z</time>
      </trkpt>
      <trkpt lat="46.032683746889234" lon="7.233666926622391">
        <ele>2117.9200000000001</ele>
        <time>2016-07-06T07:39:54Z</time>
      </trkpt>
      <trkpt lat="46.032686093822122" lon="7.233676062896848">
        <ele>2117.9200000000001</ele>
        <time>2016-07-06T07:39:55Z</time>
      </trkpt>
      <trkpt lat="46.032694978639483" lon="7.233699867501855">
        <ele>2117.9200000000001</ele>
        <time>2016-07-06T07:39:57Z</time>
      </trkpt>
      <trkpt lat="46.032765805721283" lon="7.233767593279481">
        <ele>2117.9200000000001</ele>
        <time>2016-07-06T07:40:04Z</time>
      </trkpt>
      <trkpt lat="46.032796567305923" lon="7.233815370127559">
        <ele>2118.4000000000001</ele>
        <time>2016-07-06T07:40:08Z</time>
      </trkpt>
      <trkpt lat="46.032855324447155" lon="7.233913438394666">
        <ele>2118.8800000000001</ele>
        <time>2016-07-06T07:40:17Z</time>
      </trkpt>
      <trkpt lat="46.032887678593397" lon="7.233986025676131">
        <ele>2119.8400000000001</ele>
        <time>2016-07-06T07:40:24Z</time>
      </trkpt>
      <trkpt lat="46.032930007204413" lon="7.234079400077462">
        <ele>2120.8099999999999</ele>
        <time>2016-07-06T07:40:32Z</time>
      </trkpt>
      <trkpt lat="46.032931515946984" lon="7.234210995957255">
        <ele>2122.25</ele>
        <time>2016-07-06T07:40:43Z</time>
      </trkpt>
      <trkpt lat="46.03298650123179" lon="7.234344016760588">
        <ele>2122.73</ele>
        <time>2016-07-06T07:40:54Z</time>
      </trkpt>
      <trkpt lat="46.033011982217431" lon="7.234522299841046">
        <ele>2122.73</ele>
        <time>2016-07-06T07:41:05Z</time>
      </trkpt>
      <trkpt lat="46.033008964732289" lon="7.234538476914167">
        <ele>2122.73</ele>
        <time>2016-07-06T07:41:06Z</time>
      </trkpt>
      <trkpt lat="46.033029751852155" lon="7.234637886285782">
        <ele>2122.25</ele>
        <time>2016-07-06T07:41:12Z</time>
      </trkpt>
      <trkpt lat="46.033020280301571" lon="7.234728075563908">
        <ele>2123.6900000000001</ele>
        <time>2016-07-06T07:41:19Z</time>
      </trkpt>
      <trkpt lat="46.033013658598065" lon="7.234801333397627">
        <ele>2124.1700000000001</ele>
        <time>2016-07-06T07:41:25Z</time>
      </trkpt>
      <trkpt lat="46.032986165955663" lon="7.234859839081764">
        <ele>2124.1700000000001</ele>
        <time>2016-07-06T07:41:29Z</time>
      </trkpt>
      <trkpt lat="46.032974515110254" lon="7.234890935942531">
        <ele>2123.6900000000001</ele>
        <time>2016-07-06T07:41:31Z</time>
      </trkpt>
      <trkpt lat="46.03299580514431" lon="7.235104087740183">
        <ele>2122.73</ele>
        <time>2016-07-06T07:41:44Z</time>
      </trkpt>
      <trkpt lat="46.032990273088217" lon="7.235237024724484">
        <ele>2122.73</ele>
        <time>2016-07-06T07:41:53Z</time>
      </trkpt>
      <trkpt lat="46.032989183440804" lon="7.235265774652362">
        <ele>2123.21</ele>
        <time>2016-07-06T07:41:55Z</time>
      </trkpt>
      <trkpt lat="46.032988429069519" lon="7.235294105485082">
        <ele>2123.21</ele>
        <time>2016-07-06T07:41:57Z</time>
      </trkpt>
      <trkpt lat="46.032996224239469" lon="7.23533945158124">
        <ele>2122.73</ele>
        <time>2016-07-06T07:42:00Z</time>
      </trkpt>
      <trkpt lat="46.032956577837467" lon="7.235447242856026">
        <ele>2123.21</ele>
        <time>2016-07-06T07:42:07Z</time>
      </trkpt>
      <trkpt lat="46.032959930598736" lon="7.235609516501427">
        <ele>2121.77</ele>
        <time>2016-07-06T07:42:17Z</time>
      </trkpt>
      <trkpt lat="46.032944256439805" lon="7.23568051122129">
        <ele>2122.25</ele>
        <time>2016-07-06T07:42:22Z</time>
      </trkpt>
      <trkpt lat="46.032891031354666" lon="7.235829709097743">
        <ele>2121.29</ele>
        <time>2016-07-06T07:42:32Z</time>
      </trkpt>
      <trkpt lat="46.032830262556672" lon="7.235976476222277">
        <ele>2120.8099999999999</ele>
        <time>2016-07-06T07:42:43Z</time>
      </trkpt>
      <trkpt lat="46.032811822369695" lon="7.236120477318764">
        <ele>2119.3600000000001</ele>
        <time>2016-07-06T07:42:53Z</time>
      </trkpt>
      <trkpt lat="46.032777791842818" lon="7.236188957467675">
        <ele>2119.3600000000001</ele>
        <time>2016-07-06T07:42:59Z</time>
      </trkpt>
      <trkpt lat="46.03277494199574" lon="7.236259868368506">
        <ele>2119.3600000000001</ele>
        <time>2016-07-06T07:43:04Z</time>
      </trkpt>
      <trkpt lat="46.032776786014438" lon="7.23630060441792">
        <ele>2117.4400000000001</ele>
        <time>2016-07-06T07:43:07Z</time>
      </trkpt>
      <trkpt lat="46.032762620598078" lon="7.236413424834609">
        <ele>2116</ele>
        <time>2016-07-06T07:43:15Z</time>
      </trkpt>
      <trkpt lat="46.032748119905591" lon="7.236538147553802">
        <ele>2114.0799999999999</ele>
        <time>2016-07-06T07:43:25Z</time>
      </trkpt>
      <trkpt lat="46.032747197896242" lon="7.236562790349126">
        <ele>2114.0799999999999</ele>
        <time>2016-07-06T07:43:27Z</time>
      </trkpt>
      <trkpt lat="46.03273244574666" lon="7.23660402931273">
        <ele>2112.6300000000001</ele>
        <time>2016-07-06T07:43:30Z</time>
      </trkpt>
      <trkpt lat="46.032705372199416" lon="7.236683573573828">
        <ele>2112.6300000000001</ele>
        <time>2016-07-06T07:43:35Z</time>
      </trkpt>
      <trkpt lat="46.032622223719954" lon="7.236794717609882">
        <ele>2112.1500000000001</ele>
        <time>2016-07-06T07:43:46Z</time>
      </trkpt>
      <trkpt lat="46.032620212063193" lon="7.236805865541101">
        <ele>2111.6700000000001</ele>
        <time>2016-07-06T07:43:47Z</time>
      </trkpt>
      <trkpt lat="46.032589199021459" lon="7.236898150295019">
        <ele>2110.71</ele>
        <time>2016-07-06T07:43:54Z</time>
      </trkpt>
      <trkpt lat="46.032565478235483" lon="7.236962523311377">
        <ele>2109.75</ele>
        <time>2016-07-06T07:43:59Z</time>
      </trkpt>
      <trkpt lat="46.032533375546336" lon="7.23706042394042">
        <ele>2108.3099999999999</ele>
        <time>2016-07-06T07:44:08Z</time>
      </trkpt>
      <trkpt lat="46.032473612576723" lon="7.237210879102349">
        <ele>2105.9099999999999</ele>
        <time>2016-07-06T07:44:20Z</time>
      </trkpt>
      <trkpt lat="46.032409993931651" lon="7.237287238240242">
        <ele>2104.9400000000001</ele>
        <time>2016-07-06T07:44:28Z</time>
      </trkpt>
      <trkpt lat="46.032385937869549" lon="7.237368710339069">
        <ele>2103.98</ele>
        <time>2016-07-06T07:44:35Z</time>
      </trkpt>
      <trkpt lat="46.032392224296927" lon="7.237441884353757">
        <ele>2103.5</ele>
        <time>2016-07-06T07:44:40Z</time>
      </trkpt>
      <trkpt lat="46.032370766624808" lon="7.23754950799048">
        <ele>2102.54</ele>
        <time>2016-07-06T07:44:47Z</time>
      </trkpt>
      <trkpt lat="46.032385434955359" lon="7.237623268738389">
        <ele>2102.54</ele>
        <time>2016-07-06T07:44:53Z</time>
      </trkpt>
      <trkpt lat="46.032363390550017" lon="7.237660987302661">
        <ele>2102.0599999999999</ele>
        <time>2016-07-06T07:44:57Z</time>
      </trkpt>
      <trkpt lat="46.032351907342672" lon="7.237792918458581">
        <ele>2099.6599999999999</ele>
        <time>2016-07-06T07:45:09Z</time>
      </trkpt>
      <trkpt lat="46.032363390550017" lon="7.237863410264254">
        <ele>2098.6999999999998</ele>
        <time>2016-07-06T07:45:17Z</time>
      </trkpt>
      <trkpt lat="46.032393146306276" lon="7.237904230132699">
        <ele>2097.73</ele>
        <time>2016-07-06T07:45:27Z</time>
      </trkpt>
      <trkpt lat="46.03240798227489" lon="7.237930884584785">
        <ele>2097.73</ele>
        <time>2016-07-06T07:45:36Z</time>
      </trkpt>
      <trkpt lat="46.032398762181401" lon="7.237981092184782">
        <ele>2097.73</ele>
        <time>2016-07-06T07:45:40Z</time>
      </trkpt>
      <trkpt lat="46.032362384721637" lon="7.237993581220508">
        <ele>2098.21</ele>
        <time>2016-07-06T07:45:50Z</time>
      </trkpt>
      <trkpt lat="46.032382920384407" lon="7.237982684746385">
        <ele>2098.21</ele>
        <time>2016-07-06T07:46:00Z</time>
      </trkpt>
      <trkpt lat="46.03235324844718" lon="7.238008165732026">
        <ele>2097.25</ele>
        <time>2016-07-06T07:46:07Z</time>
      </trkpt>
      <trkpt lat="46.032321229577065" lon="7.238076813519001">
        <ele>2095.3299999999999</ele>
        <time>2016-07-06T07:46:21Z</time>
      </trkpt>
      <trkpt lat="46.032344698905945" lon="7.238100785762072">
        <ele>2094.8499999999999</ele>
        <time>2016-07-06T07:46:24Z</time>
      </trkpt>
      <trkpt lat="46.032404042780399" lon="7.238183934241533">
        <ele>2092.9299999999998</ele>
        <time>2016-07-06T07:46:36Z</time>
      </trkpt>
      <trkpt lat="46.032377053052187" lon="7.238211594521999">
        <ele>2091.9699999999998</ele>
        <time>2016-07-06T07:46:39Z</time>
      </trkpt>
      <trkpt lat="46.032352326437831" lon="7.238237662240863">
        <ele>2091</ele>
        <time>2016-07-06T07:46:42Z</time>
      </trkpt>
      <trkpt lat="46.03228778578341" lon="7.238282170146704">
        <ele>2090.04</ele>
        <time>2016-07-06T07:46:51Z</time>
      </trkpt>
      <trkpt lat="46.032211175188422" lon="7.238397840410471">
        <ele>2087.6399999999999</ele>
        <time>2016-07-06T07:47:03Z</time>
      </trkpt>
      <trkpt lat="46.032133223488927" lon="7.238476043567061">
        <ele>2085.7199999999998</ele>
        <time>2016-07-06T07:47:14Z</time>
      </trkpt>
      <trkpt lat="46.032057786360383" lon="7.238561371341348">
        <ele>2084.2800000000002</ele>
        <time>2016-07-06T07:47:25Z</time>
      </trkpt>
      <trkpt lat="46.032055271789432" lon="7.238563550636172">
        <ele>2084.2800000000002</ele>
        <time>2016-07-06T07:47:31Z</time>
      </trkpt>
      <trkpt lat="46.032000370323658" lon="7.238586349412799">
        <ele>2083.3099999999999</ele>
        <time>2016-07-06T07:47:37Z</time>
      </trkpt>
      <trkpt lat="46.031938595697284" lon="7.238557264208794">
        <ele>2082.8299999999999</ele>
        <time>2016-07-06T07:47:47Z</time>
      </trkpt>
      <trkpt lat="46.031910516321659" lon="7.238508900627494">
        <ele>2084.2800000000002</ele>
        <time>2016-07-06T07:47:54Z</time>
      </trkpt>
      <trkpt lat="46.031887549906969" lon="7.238466236740351">
        <ele>2083.3099999999999</ele>
        <time>2016-07-06T07:48:03Z</time>
      </trkpt>
      <trkpt lat="46.031882604584098" lon="7.238502195104957">
        <ele>2083.3099999999999</ele>
        <time>2016-07-06T07:48:28Z</time>
      </trkpt>
      <trkpt lat="46.03192082606256" lon="7.238475875928998">
        <ele>2082.8299999999999</ele>
        <time>2016-07-06T07:48:39Z</time>
      </trkpt>
      <trkpt lat="46.031933901831508" lon="7.238516109064221">
        <ele>2083.79</ele>
        <time>2016-07-06T07:48:48Z</time>
      </trkpt>
      <trkpt lat="46.031927866861224" lon="7.238536644726992">
        <ele>2083.79</ele>
        <time>2016-07-06T07:48:52Z</time>
      </trkpt>
      <trkpt lat="46.03188956156373" lon="7.238585846498609">
        <ele>2082.8299999999999</ele>
        <time>2016-07-06T07:48:57Z</time>
      </trkpt>
      <trkpt lat="46.031846981495619" lon="7.23865332081914">
        <ele>2080.9099999999999</ele>
        <time>2016-07-06T07:49:03Z</time>
      </trkpt>
      <trkpt lat="46.031791158020496" lon="7.238735379651189">
        <ele>2078.0300000000002</ele>
        <time>2016-07-06T07:49:12Z</time>
      </trkpt>
      <trkpt lat="46.031724354252219" lon="7.238788437098265">
        <ele>2076.5900000000001</ele>
        <time>2016-07-06T07:49:19Z</time>
      </trkpt>
      <trkpt lat="46.031700549647212" lon="7.238837890326977">
        <ele>2075.6199999999999</ele>
        <time>2016-07-06T07:49:23Z</time>
      </trkpt>
      <trkpt lat="46.031683115288615" lon="7.238862365484238">
        <ele>2075.6199999999999</ele>
        <time>2016-07-06T07:49:25Z</time>
      </trkpt>
      <trkpt lat="46.031613629311323" lon="7.23888298496604">
        <ele>2075.6199999999999</ele>
        <time>2016-07-06T07:49:32Z</time>
      </trkpt>
      <trkpt lat="46.031592004001141" lon="7.238905783742666">
        <ele>2075.6199999999999</ele>
        <time>2016-07-06T07:49:37Z</time>
      </trkpt>
      <trkpt lat="46.031569791957736" lon="7.238912992179394">
        <ele>2075.1399999999999</ele>
        <time>2016-07-06T07:49:40Z</time>
      </trkpt>
      <trkpt lat="46.031467951834202" lon="7.238999158143997">
        <ele>2074.6599999999999</ele>
        <time>2016-07-06T07:49:53Z</time>
      </trkpt>
      <trkpt lat="46.031448924914002" lon="7.2390076238662">
        <ele>2074.1799999999998</ele>
        <time>2016-07-06T07:49:55Z</time>
      </trkpt>
      <trkpt lat="46.031363680958748" lon="7.239057077094913">
        <ele>2073.6999999999998</ele>
        <time>2016-07-06T07:50:05Z</time>
      </trkpt>
      <trkpt lat="46.031366027891636" lon="7.239064704626799">
        <ele>2072.7399999999998</ele>
        <time>2016-07-06T07:50:15Z</time>
      </trkpt>
      <trkpt lat="46.031351359561086" lon="7.239066297188401">
        <ele>2072.2600000000002</ele>
        <time>2016-07-06T07:50:16Z</time>
      </trkpt>
      <trkpt lat="46.031318670138717" lon="7.239073924720287">
        <ele>2073.2199999999998</ele>
        <time>2016-07-06T07:50:26Z</time>
      </trkpt>
      <trkpt lat="46.031261002644897" lon="7.239121031016111">
        <ele>2072.7399999999998</ele>
        <time>2016-07-06T07:50:31Z</time>
      </trkpt>
      <trkpt lat="46.031192187219858" lon="7.239152630791068">
        <ele>2072.2600000000002</ele>
        <time>2016-07-06T07:50:42Z</time>
      </trkpt>
      <trkpt lat="46.031170142814517" lon="7.239150535315275">
        <ele>2072.2600000000002</ele>
        <time>2016-07-06T07:50:51Z</time>
      </trkpt>
      <trkpt lat="46.031120186671615" lon="7.239180123433471">
        <ele>2072.2600000000002</ele>
        <time>2016-07-06T07:51:00Z</time>
      </trkpt>
      <trkpt lat="46.031108954921365" lon="7.239140560850501">
        <ele>2072.7399999999998</ele>
        <time>2016-07-06T07:51:10Z</time>
      </trkpt>
      <trkpt lat="46.031108619645238" lon="7.239142656326294">
        <ele>2072.7399999999998</ele>
        <time>2016-07-06T07:51:17Z</time>
      </trkpt>
      <trkpt lat="46.031122952699661" lon="7.239161767065525">
        <ele>2071.7800000000002</ele>
        <time>2016-07-06T07:51:25Z</time>
      </trkpt>
      <trkpt lat="46.031140219420195" lon="7.239169646054506">
        <ele>2071.7800000000002</ele>
        <time>2016-07-06T07:51:49Z</time>
      </trkpt>
      <trkpt lat="46.031150193884969" lon="7.239165203645825">
        <ele>2071.7800000000002</ele>
        <time>2016-07-06T07:52:11Z</time>
      </trkpt>
      <trkpt lat="46.031152540817857" lon="7.239157408475876">
        <ele>2071.7800000000002</ele>
        <time>2016-07-06T07:52:42Z</time>
      </trkpt>
      <trkpt lat="46.031135525554419" lon="7.239182470366359">
        <ele>2072.2600000000002</ele>
        <time>2016-07-06T07:52:56Z</time>
      </trkpt>
      <trkpt lat="46.031100992113352" lon="7.239161264151335">
        <ele>2072.2600000000002</ele>
        <time>2016-07-06T07:53:18Z</time>
      </trkpt>
      <trkpt lat="46.031112559139729" lon="7.239187080413103">
        <ele>2072.2600000000002</ele>
        <time>2016-07-06T07:53:35Z</time>
      </trkpt>
      <trkpt lat="46.0311468411237" lon="7.239185990765691">
        <ele>2072.2600000000002</ele>
        <time>2016-07-06T07:53:59Z</time>
      </trkpt>
      <trkpt lat="46.031153211370111" lon="7.239185404032469">
        <ele>2072.2600000000002</ele>
        <time>2016-07-06T07:54:21Z</time>
      </trkpt>
      <trkpt lat="46.031192187219858" lon="7.239136705175042">
        <ele>2072.2600000000002</ele>
        <time>2016-07-06T07:54:39Z</time>
      </trkpt>
      <trkpt lat="46.031175507232547" lon="7.239150200039148">
        <ele>2072.2600000000002</ele>
        <time>2016-07-06T07:54:55Z</time>
      </trkpt>
      <trkpt lat="46.031142733991146" lon="7.239177273586392">
        <ele>2072.7399999999998</ele>
        <time>2016-07-06T07:55:18Z</time>
      </trkpt>
      <trkpt lat="46.031130496412516" lon="7.239152798429132">
        <ele>2072.7399999999998</ele>
        <time>2016-07-06T07:55:39Z</time>
      </trkpt>
      <trkpt lat="46.03111800737679" lon="7.239164030179381">
        <ele>2072.7399999999998</ele>
        <time>2016-07-06T07:55:59Z</time>
      </trkpt>
      <trkpt lat="46.031088167801499" lon="7.239172160625458">
        <ele>2072.7399999999998</ele>
        <time>2016-07-06T07:56:17Z</time>
      </trkpt>
      <trkpt lat="46.031073583289981" lon="7.239187331870198">
        <ele>2072.7399999999998</ele>
        <time>2016-07-06T07:56:39Z</time>
      </trkpt>
      <trkpt lat="46.031093364581466" lon="7.239194624125958">
        <ele>2072.7399999999998</ele>
        <time>2016-07-06T07:57:01Z</time>
      </trkpt>
      <trkpt lat="46.031111385673285" lon="7.239164784550667">
        <ele>2072.7399999999998</ele>
        <time>2016-07-06T07:57:24Z</time>
      </trkpt>
      <trkpt lat="46.031133597716689" lon="7.239170987159014">
        <ele>2072.7399999999998</ele>
        <time>2016-07-06T07:57:44Z</time>
      </trkpt>
      <trkpt lat="46.031118594110012" lon="7.239191187545657">
        <ele>2072.7399999999998</ele>
        <time>2016-07-06T07:58:08Z</time>
      </trkpt>
      <trkpt lat="46.031119683757424" lon="7.239195462316275">
        <ele>2072.7399999999998</ele>
        <time>2016-07-06T07:58:33Z</time>
      </trkpt>
      <trkpt lat="46.031122952699661" lon="7.239145422354341">
        <ele>2072.7399999999998</ele>
        <time>2016-07-06T07:59:05Z</time>
      </trkpt>
      <trkpt lat="46.031124126166105" lon="7.239163778722286">
        <ele>2072.2600000000002</ele>
        <time>2016-07-06T07:59:25Z</time>
      </trkpt>
      <trkpt lat="46.031121863052249" lon="7.239191858097911">
        <ele>2072.2600000000002</ele>
        <time>2016-07-06T07:59:53Z</time>
      </trkpt>
      <trkpt lat="46.031130999326706" lon="7.239187080413103">
        <ele>2072.2600000000002</ele>
        <time>2016-07-06T08:00:11Z</time>
      </trkpt>
      <trkpt lat="46.031133597716689" lon="7.239145422354341">
        <ele>2072.2600000000002</ele>
        <time>2016-07-06T08:00:30Z</time>
      </trkpt>
      <trkpt lat="46.031134855002165" lon="7.23911558277905">
        <ele>2072.2600000000002</ele>
        <time>2016-07-06T08:00:52Z</time>
      </trkpt>
      <trkpt lat="46.03112680837512" lon="7.239145254716277">
        <ele>2072.2600000000002</ele>
        <time>2016-07-06T08:01:19Z</time>
      </trkpt>
      <trkpt lat="46.0311209410429" lon="7.239184314385057">
        <ele>2072.2600000000002</ele>
        <time>2016-07-06T08:01:42Z</time>
      </trkpt>
      <trkpt lat="46.031118845567107" lon="7.239176351577044">
        <ele>2072.2600000000002</ele>
        <time>2016-07-06T08:02:03Z</time>
      </trkpt>
      <trkpt lat="46.031129322946072" lon="7.239163024351001">
        <ele>2071.7800000000002</ele>
        <time>2016-07-06T08:02:29Z</time>
      </trkpt>
      <trkpt lat="46.031132340431213" lon="7.239167215302587">
        <ele>2071.7800000000002</ele>
        <time>2016-07-06T08:02:48Z</time>
      </trkpt>
      <trkpt lat="46.031104428693652" lon="7.239148439839482">
        <ele>2071.7800000000002</ele>
        <time>2016-07-06T08:03:07Z</time>
      </trkpt>
      <trkpt lat="46.031116247177124" lon="7.239136202260852">
        <ele>2072.2600000000002</ele>
        <time>2016-07-06T08:03:31Z</time>
      </trkpt>
      <trkpt lat="46.031099651008844" lon="7.23913075402379">
        <ele>2072.2600000000002</ele>
        <time>2016-07-06T08:03:53Z</time>
      </trkpt>
      <trkpt lat="46.031129322946072" lon="7.239158833399415">
        <ele>2071.7800000000002</ele>
        <time>2016-07-06T08:04:11Z</time>
      </trkpt>
      <trkpt lat="46.031173327937722" lon="7.239122036844492">
        <ele>2072.2600000000002</ele>
        <time>2016-07-06T08:04:31Z</time>
      </trkpt>
      <trkpt lat="46.031176261603832" lon="7.239127149805427">
        <ele>2072.2600000000002</ele>
        <time>2016-07-06T08:04:52Z</time>
      </trkpt>
      <trkpt lat="46.031175842508674" lon="7.239163359627128">
        <ele>2072.2600000000002</ele>
        <time>2016-07-06T08:05:10Z</time>
      </trkpt>
      <trkpt lat="46.03119470179081" lon="7.239135364070535">
        <ele>2072.2600000000002</ele>
        <time>2016-07-06T08:05:29Z</time>
      </trkpt>
      <trkpt lat="46.03121523745358" lon="7.239129496738315">
        <ele>2072.2600000000002</ele>
        <time>2016-07-06T08:05:50Z</time>
      </trkpt>
      <trkpt lat="46.031245496124029" lon="7.239150870591402">
        <ele>2072.2600000000002</ele>
        <time>2016-07-06T08:06:16Z</time>
      </trkpt>
      <trkpt lat="46.031251195818186" lon="7.239154055714607">
        <ele>2072.2600000000002</ele>
        <time>2016-07-06T08:06:39Z</time>
      </trkpt>
      <trkpt lat="46.031256644055247" lon="7.239160761237145">
        <ele>2072.7399999999998</ele>
        <time>2016-07-06T08:07:00Z</time>
      </trkpt>
      <trkpt lat="46.031264439225197" lon="7.23915514536202">
        <ele>2072.7399999999998</ele>
        <time>2016-07-06T08:07:21Z</time>
      </trkpt>
      <trkpt lat="46.031292686238885" lon="7.239137794822455">
        <ele>2072.7399999999998</ele>
        <time>2016-07-06T08:07:42Z</time>
      </trkpt>
      <trkpt lat="46.031278688460588" lon="7.2391492780298">
        <ele>2072.7399999999998</ele>
        <time>2016-07-06T08:08:06Z</time>
      </trkpt>
      <trkpt lat="46.031278101727366" lon="7.239134693518281">
        <ele>2072.7399999999998</ele>
        <time>2016-07-06T08:08:27Z</time>
      </trkpt>
      <trkpt lat="46.031266953796148" lon="7.23913318477571">
        <ele>2072.7399999999998</ele>
        <time>2016-07-06T08:08:50Z</time>
      </trkpt>
      <trkpt lat="46.03128757327795" lon="7.239164113998413">
        <ele>2072.7399999999998</ele>
        <time>2016-07-06T08:09:16Z</time>
      </trkpt>
      <trkpt lat="46.031277598813176" lon="7.239142991602421">
        <ele>2072.2600000000002</ele>
        <time>2016-07-06T08:09:38Z</time>
      </trkpt>
      <trkpt lat="46.031287740916014" lon="7.239154390990734">
        <ele>2072.7399999999998</ele>
        <time>2016-07-06T08:10:00Z</time>
      </trkpt>
      <trkpt lat="46.031295200809836" lon="7.239147601649165">
        <ele>2072.2600000000002</ele>
        <time>2016-07-06T08:10:19Z</time>
      </trkpt>
      <trkpt lat="46.031296709552407" lon="7.239155396819115">
        <ele>2072.7399999999998</ele>
        <time>2016-07-06T08:10:46Z</time>
      </trkpt>
      <trkpt lat="46.031312383711338" lon="7.239152630791068">
        <ele>2072.7399999999998</ele>
        <time>2016-07-06T08:11:16Z</time>
      </trkpt>
      <trkpt lat="46.031341971829534" lon="7.239165203645825">
        <ele>2072.7399999999998</ele>
        <time>2016-07-06T08:11:48Z</time>
      </trkpt>
      <trkpt lat="46.031347000971437" lon="7.239144584164023">
        <ele>2072.7399999999998</ele>
        <time>2016-07-06T08:12:11Z</time>
      </trkpt>
      <trkpt lat="46.031361920759082" lon="7.239156821742654">
        <ele>2072.7399999999998</ele>
        <time>2016-07-06T08:12:33Z</time>
      </trkpt>
      <trkpt lat="46.031378768384457" lon="7.239140393212438">
        <ele>2072.7399999999998</ele>
        <time>2016-07-06T08:12:59Z</time>
      </trkpt>
      <trkpt lat="46.031386395916343" lon="7.239164868369699">
        <ele>2072.7399999999998</ele>
        <time>2016-07-06T08:13:19Z</time>
      </trkpt>
      <trkpt lat="46.031570797786117" lon="7.239146260544658">
        <ele>2073.2199999999998</ele>
        <time>2016-07-06T08:13:43Z</time>
      </trkpt>
      <trkpt lat="46.031550681218505" lon="7.239136956632137">
        <ele>2073.2199999999998</ele>
        <time>2016-07-06T08:14:02Z</time>
      </trkpt>
      <trkpt lat="46.031542550772429" lon="7.23914684727788">
        <ele>2072.7399999999998</ele>
        <time>2016-07-06T08:14:22Z</time>
      </trkpt>
      <trkpt lat="46.031530816107988" lon="7.239154307171702">
        <ele>2072.7399999999998</ele>
        <time>2016-07-06T08:14:44Z</time>
      </trkpt>
      <trkpt lat="46.031511873006821" lon="7.239134190604091">
        <ele>2072.7399999999998</ele>
        <time>2016-07-06T08:15:06Z</time>
      </trkpt>
      <trkpt lat="46.031520506367087" lon="7.239161934703589">
        <ele>2072.7399999999998</ele>
        <time>2016-07-06T08:15:31Z</time>
      </trkpt>
      <trkpt lat="46.031513633206487" lon="7.239154474809766">
        <ele>2072.7399999999998</ele>
        <time>2016-07-06T08:15:58Z</time>
      </trkpt>
      <trkpt lat="46.031534923240542" lon="7.239187583327293">
        <ele>2072.7399999999998</ele>
        <time>2016-07-06T08:16:25Z</time>
      </trkpt>
      <trkpt lat="46.031518075615168" lon="7.239119103178382">
        <ele>2072.7399999999998</ele>
        <time>2016-07-06T08:16:44Z</time>
      </trkpt>
      <trkpt lat="46.031305510550737" lon="7.239157911390066">
        <ele>2072.7399999999998</ele>
        <time>2016-07-06T08:17:00Z</time>
      </trkpt>
      <trkpt lat="46.031235940754414" lon="7.239173166453838">
        <ele>2072.7399999999998</ele>
        <time>2016-07-06T08:17:17Z</time>
      </trkpt>
      <trkpt lat="46.031211130321026" lon="7.239180877804756">
        <ele>2072.7399999999998</ele>
        <time>2016-07-06T08:17:47Z</time>
      </trkpt>
      <trkpt lat="46.031221942976117" lon="7.239172412082553">
        <ele>2072.2600000000002</ele>
        <time>2016-07-06T08:17:54Z</time>
      </trkpt>
      <trkpt lat="46.03121523745358" lon="7.239136453717947">
        <ele>2073.2199999999998</ele>
        <time>2016-07-06T08:18:02Z</time>
      </trkpt>
      <trkpt lat="46.031174752861261" lon="7.239162186160684">
        <ele>2073.6999999999998</ele>
        <time>2016-07-06T08:18:15Z</time>
      </trkpt>
      <trkpt lat="46.031172992661595" lon="7.23916101269424">
        <ele>2073.6999999999998</ele>
        <time>2016-07-06T08:18:31Z</time>
      </trkpt>
      <trkpt lat="46.03116880171001" lon="7.239165287464857">
        <ele>2073.6999999999998</ele>
        <time>2016-07-06T08:18:46Z</time>
      </trkpt>
      <trkpt lat="46.031162263825536" lon="7.239166460931301">
        <ele>2073.6999999999998</ele>
        <time>2016-07-06T08:18:59Z</time>
      </trkpt>
      <trkpt lat="46.031146757304668" lon="7.239169981330633">
        <ele>2073.2199999999998</ele>
        <time>2016-07-06T08:19:12Z</time>
      </trkpt>
      <trkpt lat="46.031093616038561" lon="7.239165790379047">
        <ele>2073.6999999999998</ele>
        <time>2016-07-06T08:19:28Z</time>
      </trkpt>
      <trkpt lat="46.03106033988297" lon="7.239170232787728">
        <ele>2074.1799999999998</ele>
        <time>2016-07-06T08:19:47Z</time>
      </trkpt>
      <trkpt lat="46.031062686815858" lon="7.239176100119948">
        <ele>2073.2199999999998</ele>
        <time>2016-07-06T08:19:57Z</time>
      </trkpt>
      <trkpt lat="46.031070062890649" lon="7.239144500344992">
        <ele>2073.2199999999998</ele>
        <time>2016-07-06T08:20:09Z</time>
      </trkpt>
      <trkpt lat="46.031069559976459" lon="7.239140141755343">
        <ele>2073.2199999999998</ele>
        <time>2016-07-06T08:20:21Z</time>
      </trkpt>
      <trkpt lat="46.03111214004457" lon="7.239123713225126">
        <ele>2072.7399999999998</ele>
        <time>2016-07-06T08:20:32Z</time>
      </trkpt>
      <trkpt lat="46.031161341816187" lon="7.239107452332974">
        <ele>2072.7399999999998</ele>
        <time>2016-07-06T08:20:41Z</time>
      </trkpt>
      <trkpt lat="46.031179111450911" lon="7.239105356857181">
        <ele>2072.7399999999998</ele>
        <time>2016-07-06T08:20:43Z</time>
      </trkpt>
      <trkpt lat="46.031202748417854" lon="7.239094795659185">
        <ele>2072.7399999999998</ele>
        <time>2016-07-06T08:20:46Z</time>
      </trkpt>
      <trkpt lat="46.031248765066266" lon="7.239067889750004">
        <ele>2073.2199999999998</ele>
        <time>2016-07-06T08:20:52Z</time>
      </trkpt>
      <trkpt lat="46.031308611854911" lon="7.239074427634478">
        <ele>2073.2199999999998</ele>
        <time>2016-07-06T08:20:58Z</time>
      </trkpt>
      <trkpt lat="46.031389497220516" lon="7.239104015752673">
        <ele>2072.7399999999998</ele>
        <time>2016-07-06T08:21:07Z</time>
      </trkpt>
      <trkpt lat="46.031429227441549" lon="7.239147936925292">
        <ele>2072.2600000000002</ele>
        <time>2016-07-06T08:21:13Z</time>
      </trkpt>
      <trkpt lat="46.031456803902984" lon="7.23917962051928">
        <ele>2072.7399999999998</ele>
        <time>2016-07-06T08:21:16Z</time>
      </trkpt>
      <trkpt lat="46.031503323465586" lon="7.239274922758341">
        <ele>2072.2600000000002</ele>
        <time>2016-07-06T08:21:25Z</time>
      </trkpt>
      <trkpt lat="46.031523607671261" lon="7.239334266632795">
        <ele>2072.2600000000002</ele>
        <time>2016-07-06T08:21:31Z</time>
      </trkpt>
      <trkpt lat="46.031529055908322" lon="7.23940241150558">
        <ele>2072.7399999999998</ele>
        <time>2016-07-06T08:21:36Z</time>
      </trkpt>
      <trkpt lat="46.031556548550725" lon="7.239545239135623">
        <ele>2072.2600000000002</ele>
        <time>2016-07-06T08:21:47Z</time>
      </trkpt>
      <trkpt lat="46.031531319022179" lon="7.239599889144301">
        <ele>2071.7800000000002</ele>
        <time>2016-07-06T08:21:57Z</time>
      </trkpt>
      <trkpt lat="46.031508268788457" lon="7.239698208868504">
        <ele>2071.7800000000002</ele>
        <time>2016-07-06T08:22:06Z</time>
      </trkpt>
      <trkpt lat="46.031501144170761" lon="7.239718828350306">
        <ele>2071.7800000000002</ele>
        <time>2016-07-06T08:22:08Z</time>
      </trkpt>
      <trkpt lat="46.031492091715336" lon="7.239737519994378">
        <ele>2072.2600000000002</ele>
        <time>2016-07-06T08:22:10Z</time>
      </trkpt>
      <trkpt lat="46.031463844701648" lon="7.239854028448463">
        <ele>2072.2600000000002</ele>
        <time>2016-07-06T08:22:18Z</time>
      </trkpt>
      <trkpt lat="46.031448002904654" lon="7.239949833601713">
        <ele>2072.2600000000002</ele>
        <time>2016-07-06T08:22:26Z</time>
      </trkpt>
      <trkpt lat="46.031379690393806" lon="7.239973805844784">
        <ele>2072.2600000000002</ele>
        <time>2016-07-06T08:22:33Z</time>
      </trkpt>
      <trkpt lat="46.031334931030869" lon="7.240043543279171">
        <ele>2072.2600000000002</ele>
        <time>2016-07-06T08:22:41Z</time>
      </trkpt>
      <trkpt lat="46.03129637427628" lon="7.240123674273491">
        <ele>2072.7399999999998</ele>
        <time>2016-07-06T08:22:49Z</time>
      </trkpt>
      <trkpt lat="46.031278856098652" lon="7.240157453343272">
        <ele>2072.7399999999998</ele>
        <time>2016-07-06T08:22:52Z</time>
      </trkpt>
      <trkpt lat="46.0312435682863" lon="7.24026532843709">
        <ele>2072.7399999999998</ele>
        <time>2016-07-06T08:23:01Z</time>
      </trkpt>
      <trkpt lat="46.031232001259923" lon="7.240305561572313">
        <ele>2073.2199999999998</ele>
        <time>2016-07-06T08:23:04Z</time>
      </trkpt>
      <trkpt lat="46.031222445890307" lon="7.24032886326313">
        <ele>2073.2199999999998</ele>
        <time>2016-07-06T08:23:06Z</time>
      </trkpt>
      <trkpt lat="46.031216746196151" lon="7.240367336198688">
        <ele>2073.6999999999998</ele>
        <time>2016-07-06T08:23:10Z</time>
      </trkpt>
      <trkpt lat="46.031222529709339" lon="7.240484599024057">
        <ele>2073.6999999999998</ele>
        <time>2016-07-06T08:23:19Z</time>
      </trkpt>
      <trkpt lat="46.03125773370266" lon="7.240565568208695">
        <ele>2073.6999999999998</ele>
        <time>2016-07-06T08:23:26Z</time>
      </trkpt>
      <trkpt lat="46.031328476965427" lon="7.240577302873135">
        <ele>2074.1799999999998</ele>
        <time>2016-07-06T08:23:36Z</time>
      </trkpt>
      <trkpt lat="46.031370721757412" lon="7.240656344220042">
        <ele>2074.6599999999999</ele>
        <time>2016-07-06T08:23:46Z</time>
      </trkpt>
      <trkpt lat="46.031397627666593" lon="7.240760028362274">
        <ele>2075.6199999999999</ele>
        <time>2016-07-06T08:23:57Z</time>
      </trkpt>
      <trkpt lat="46.031441632658243" lon="7.240829179063439">
        <ele>2075.6199999999999</ele>
        <time>2016-07-06T08:24:04Z</time>
      </trkpt>
      <trkpt lat="46.031519081443548" lon="7.240946525707841">
        <ele>2075.6199999999999</ele>
        <time>2016-07-06T08:24:14Z</time>
      </trkpt>
      <trkpt lat="46.031535593792796" lon="7.241012491285801">
        <ele>2076.5900000000001</ele>
        <time>2016-07-06T08:24:19Z</time>
      </trkpt>
      <trkpt lat="46.03156023658812" lon="7.241138638928533">
        <ele>2077.5500000000002</ele>
        <time>2016-07-06T08:24:29Z</time>
      </trkpt>
      <trkpt lat="46.031561577692628" lon="7.241152804344893">
        <ele>2078.0300000000002</ele>
        <time>2016-07-06T08:24:30Z</time>
      </trkpt>
      <trkpt lat="46.031571887433529" lon="7.241188511252403">
        <ele>2078.0300000000002</ele>
        <time>2016-07-06T08:24:33Z</time>
      </trkpt>
      <trkpt lat="46.031571133062243" lon="7.241317173466086">
        <ele>2078.5100000000002</ele>
        <time>2016-07-06T08:24:42Z</time>
      </trkpt>
      <trkpt lat="46.031558979302645" lon="7.241414654999971">
        <ele>2078.9899999999998</ele>
        <time>2016-07-06T08:24:50Z</time>
      </trkpt>
      <trkpt lat="46.031556045636535" lon="7.2414356097579">
        <ele>2078.9899999999998</ele>
        <time>2016-07-06T08:24:52Z</time>
      </trkpt>
      <trkpt lat="46.031552441418171" lon="7.241524960845709">
        <ele>2079.9499999999998</ele>
        <time>2016-07-06T08:25:02Z</time>
      </trkpt>
      <trkpt lat="46.031544981524348" lon="7.241619927808642">
        <ele>2079.9499999999998</ele>
        <time>2016-07-06T08:25:12Z</time>
      </trkpt>
      <trkpt lat="46.031574988737702" lon="7.241664687171578">
        <ele>2079.9499999999998</ele>
        <time>2016-07-06T08:25:17Z</time>
      </trkpt>
      <trkpt lat="46.031620753929019" lon="7.2417326644063">
        <ele>2079.9499999999998</ele>
        <time>2016-07-06T08:25:24Z</time>
      </trkpt>
      <trkpt lat="46.03164573200047" lon="7.241769125685096">
        <ele>2079.9499999999998</ele>
        <time>2016-07-06T08:25:29Z</time>
      </trkpt>
      <trkpt lat="46.031708596274257" lon="7.241855543106794">
        <ele>2079.9499999999998</ele>
        <time>2016-07-06T08:25:39Z</time>
      </trkpt>
      <trkpt lat="46.031766934320331" lon="7.241914300248027">
        <ele>2080.4299999999998</ele>
        <time>2016-07-06T08:25:47Z</time>
      </trkpt>
      <trkpt lat="46.031799037009478" lon="7.241946067661047">
        <ele>2080.9099999999999</ele>
        <time>2016-07-06T08:25:52Z</time>
      </trkpt>
      <trkpt lat="46.031869361177087" lon="7.242022259160876">
        <ele>2080.9099999999999</ele>
        <time>2016-07-06T08:26:01Z</time>
      </trkpt>
      <trkpt lat="46.031915880739689" lon="7.242076573893428">
        <ele>2081.3899999999999</ele>
        <time>2016-07-06T08:26:09Z</time>
      </trkpt>
      <trkpt lat="46.031940774992108" lon="7.242102138698101">
        <ele>2080.9099999999999</ele>
        <time>2016-07-06T08:26:12Z</time>
      </trkpt>
      <trkpt lat="46.032020822167397" lon="7.242243876680732">
        <ele>2080.4299999999998</ele>
        <time>2016-07-06T08:26:25Z</time>
      </trkpt>
      <trkpt lat="46.032025851309299" lon="7.242253683507443">
        <ele>2080.4299999999998</ele>
        <time>2016-07-06T08:26:26Z</time>
      </trkpt>
      <trkpt lat="46.032086787745357" lon="7.242349656298757">
        <ele>2080.9099999999999</ele>
        <time>2016-07-06T08:26:35Z</time>
      </trkpt>
      <trkpt lat="46.032091565430164" lon="7.242360133677721">
        <ele>2080.9099999999999</ele>
        <time>2016-07-06T08:26:36Z</time>
      </trkpt>
      <trkpt lat="46.032165745273232" lon="7.242444874718785">
        <ele>2080.9099999999999</ele>
        <time>2016-07-06T08:26:47Z</time>
      </trkpt>
      <trkpt lat="46.032228693366051" lon="7.242502123117447">
        <ele>2081.3899999999999</ele>
        <time>2016-07-06T08:26:56Z</time>
      </trkpt>
      <trkpt lat="46.032290551811457" lon="7.242559539154172">
        <ele>2082.3499999999999</ele>
        <time>2016-07-06T08:27:07Z</time>
      </trkpt>
      <trkpt lat="46.03231955319643" lon="7.242612009868026">
        <ele>2082.8299999999999</ele>
        <time>2016-07-06T08:27:14Z</time>
      </trkpt>
      <trkpt lat="46.032383423298597" lon="7.242746790871024">
        <ele>2082.3499999999999</ele>
        <time>2016-07-06T08:27:25Z</time>
      </trkpt>
      <trkpt lat="46.032383758574724" lon="7.242774115875363">
        <ele>2082.8299999999999</ele>
        <time>2016-07-06T08:27:27Z</time>
      </trkpt>
      <trkpt lat="46.032394738867879" lon="7.242811415344477">
        <ele>2082.3499999999999</ele>
        <time>2016-07-06T08:27:30Z</time>
      </trkpt>
      <trkpt lat="46.032403288409114" lon="7.242944436147809">
        <ele>2081.8699999999999</ele>
        <time>2016-07-06T08:27:40Z</time>
      </trkpt>
      <trkpt lat="46.032384261488914" lon="7.243091706186533">
        <ele>2080.9099999999999</ele>
        <time>2016-07-06T08:27:51Z</time>
      </trkpt>
      <trkpt lat="46.032381830736995" lon="7.243194216862321">
        <ele>2080.9099999999999</ele>
        <time>2016-07-06T08:28:00Z</time>
      </trkpt>
      <trkpt lat="46.03238015435636" lon="7.243273509666324">
        <ele>2080.4299999999998</ele>
        <time>2016-07-06T08:28:09Z</time>
      </trkpt>
      <trkpt lat="46.032414268702269" lon="7.243351880460978">
        <ele>2078.5100000000002</ele>
        <time>2016-07-06T08:28:19Z</time>
      </trkpt>
      <trkpt lat="46.032403036952019" lon="7.243475513532758">
        <ele>2076.5900000000001</ele>
        <time>2016-07-06T08:28:29Z</time>
      </trkpt>
      <trkpt lat="46.032440504059196" lon="7.2435890045017">
        <ele>2076.0999999999999</ele>
        <time>2016-07-06T08:28:40Z</time>
      </trkpt>
      <trkpt lat="46.032444108277559" lon="7.243602499365807">
        <ele>2076.5900000000001</ele>
        <time>2016-07-06T08:28:43Z</time>
      </trkpt>
      <trkpt lat="46.032458608970046" lon="7.243650108575821">
        <ele>2076.0999999999999</ele>
        <time>2016-07-06T08:28:47Z</time>
      </trkpt>
      <trkpt lat="46.032471181824803" lon="7.243741722777486">
        <ele>2076.0999999999999</ele>
        <time>2016-07-06T08:28:58Z</time>
      </trkpt>
      <trkpt lat="46.032500518485904" lon="7.243801737204194">
        <ele>2076.5900000000001</ele>
        <time>2016-07-06T08:29:07Z</time>
      </trkpt>
      <trkpt lat="46.032536057755351" lon="7.24390022456646">
        <ele>2075.6199999999999</ele>
        <time>2016-07-06T08:29:18Z</time>
      </trkpt>
      <trkpt lat="46.032562963664532" lon="7.243943307548761">
        <ele>2075.6199999999999</ele>
        <time>2016-07-06T08:29:26Z</time>
      </trkpt>
      <trkpt lat="46.032619373872876" lon="7.243969207629561">
        <ele>2075.1399999999999</ele>
        <time>2016-07-06T08:29:36Z</time>
      </trkpt>
      <trkpt lat="46.032663965597749" lon="7.24401505663991">
        <ele>2074.6599999999999</ele>
        <time>2016-07-06T08:29:42Z</time>
      </trkpt>
      <trkpt lat="46.03272263891995" lon="7.244037184864283">
        <ele>2073.2199999999998</ele>
        <time>2016-07-06T08:29:53Z</time>
      </trkpt>
      <trkpt lat="46.0327632073313" lon="7.244106251746416">
        <ele>2072.7399999999998</ele>
        <time>2016-07-06T08:29:59Z</time>
      </trkpt>
      <trkpt lat="46.032763291150331" lon="7.24422468803823">
        <ele>2073.6999999999998</ele>
        <time>2016-07-06T08:30:10Z</time>
      </trkpt>
      <trkpt lat="46.032805368304253" lon="7.2442642506212">
        <ele>2075.1399999999999</ele>
        <time>2016-07-06T08:30:20Z</time>
      </trkpt>
      <trkpt lat="46.032877620309591" lon="7.244321331381798">
        <ele>2075.6199999999999</ele>
        <time>2016-07-06T08:30:31Z</time>
      </trkpt>
      <trkpt lat="46.032918356359005" lon="7.244343878701329">
        <ele>2076.0999999999999</ele>
        <time>2016-07-06T08:30:38Z</time>
      </trkpt>
      <trkpt lat="46.032971749082208" lon="7.244375981390476">
        <ele>2076.5900000000001</ele>
        <time>2016-07-06T08:30:46Z</time>
      </trkpt>
      <trkpt lat="46.033015167340636" lon="7.2443971876055">
        <ele>2077.0700000000002</ele>
        <time>2016-07-06T08:30:52Z</time>
      </trkpt>
      <trkpt lat="46.03307886980474" lon="7.244470277801156">
        <ele>2077.5500000000002</ele>
        <time>2016-07-06T08:31:02Z</time>
      </trkpt>
      <trkpt lat="46.033133268356323" lon="7.244521072134376">
        <ele>2078.0300000000002</ele>
        <time>2016-07-06T08:31:11Z</time>
      </trkpt>
      <trkpt lat="46.033177273347974" lon="7.244548229500651">
        <ele>2078.9899999999998</ele>
        <time>2016-07-06T08:31:20Z</time>
      </trkpt>
      <trkpt lat="46.033237036317587" lon="7.244588881731033">
        <ele>2080.9099999999999</ele>
        <time>2016-07-06T08:31:33Z</time>
      </trkpt>
      <trkpt lat="46.033250615000725" lon="7.244583014398813">
        <ele>2081.3899999999999</ele>
        <time>2016-07-06T08:31:35Z</time>
      </trkpt>
      <trkpt lat="46.03331683203578" lon="7.244601370766759">
        <ele>2080.9099999999999</ele>
        <time>2016-07-06T08:31:41Z</time>
      </trkpt>
      <trkpt lat="46.033363770693541" lon="7.244667001068592">
        <ele>2081.3899999999999</ele>
        <time>2016-07-06T08:31:51Z</time>
      </trkpt>
      <trkpt lat="46.033418336883187" lon="7.244750820100308">
        <ele>2083.79</ele>
        <time>2016-07-06T08:32:03Z</time>
      </trkpt>
      <trkpt lat="46.033448847010732" lon="7.244761465117335">
        <ele>2084.2800000000002</ele>
        <time>2016-07-06T08:32:07Z</time>
      </trkpt>
      <trkpt lat="46.033498635515571" lon="7.244778731837869">
        <ele>2085.2399999999998</ele>
        <time>2016-07-06T08:32:14Z</time>
      </trkpt>
      <trkpt lat="46.033556386828423" lon="7.244821228086948">
        <ele>2086.6799999999998</ele>
        <time>2016-07-06T08:32:26Z</time>
      </trkpt>
      <trkpt lat="46.033624950796366" lon="7.244766494259238">
        <ele>2085.2399999999998</ele>
        <time>2016-07-06T08:32:36Z</time>
      </trkpt>
      <trkpt lat="46.033634170889854" lon="7.244768003001809">
        <ele>2085.2399999999998</ele>
        <time>2016-07-06T08:32:37Z</time>
      </trkpt>
      <trkpt lat="46.033675074577332" lon="7.244781078770757">
        <ele>2084.2800000000002</ele>
        <time>2016-07-06T08:32:41Z</time>
      </trkpt>
      <trkpt lat="46.033734753727913" lon="7.244841596111655">
        <ele>2085.7199999999998</ele>
        <time>2016-07-06T08:32:52Z</time>
      </trkpt>
      <trkpt lat="46.033783033490181" lon="7.244912004098296">
        <ele>2086.6799999999998</ele>
        <time>2016-07-06T08:33:03Z</time>
      </trkpt>
      <trkpt lat="46.033823015168309" lon="7.244945028796792">
        <ele>2087.1599999999999</ele>
        <time>2016-07-06T08:33:12Z</time>
      </trkpt>
      <trkpt lat="46.033897949382663" lon="7.24492491222918">
        <ele>2085.2399999999998</ele>
        <time>2016-07-06T08:33:22Z</time>
      </trkpt>
      <trkpt lat="46.034004231914878" lon="7.244978472590447">
        <ele>2084.7600000000002</ele>
        <time>2016-07-06T08:33:33Z</time>
      </trkpt>
      <trkpt lat="46.034030383452773" lon="7.24498936906457">
        <ele>2085.2399999999998</ele>
        <time>2016-07-06T08:33:36Z</time>
      </trkpt>
      <trkpt lat="46.034129457548261" lon="7.245001019909978">
        <ele>2085.2399999999998</ele>
        <time>2016-07-06T08:33:45Z</time>
      </trkpt>
      <trkpt lat="46.034199446439743" lon="7.244989033788443">
        <ele>2084.2800000000002</ele>
        <time>2016-07-06T08:33:52Z</time>
      </trkpt>
      <trkpt lat="46.034289048984647" lon="7.245007725432515">
        <ele>2084.2800000000002</ele>
        <time>2016-07-06T08:34:01Z</time>
      </trkpt>
      <trkpt lat="46.034307321533561" lon="7.24500940181315">
        <ele>2084.7600000000002</ele>
        <time>2016-07-06T08:34:03Z</time>
      </trkpt>
      <trkpt lat="46.034338921308517" lon="7.24499624222517">
        <ele>2084.7600000000002</ele>
        <time>2016-07-06T08:34:07Z</time>
      </trkpt>
      <trkpt lat="46.034411005675793" lon="7.244974197819829">
        <ele>2085.2399999999998</ele>
        <time>2016-07-06T08:34:17Z</time>
      </trkpt>
      <trkpt lat="46.034449059516191" lon="7.244975287467241">
        <ele>2085.2399999999998</ele>
        <time>2016-07-06T08:34:22Z</time>
      </trkpt>
      <trkpt lat="46.034521898254752" lon="7.244968079030514">
        <ele>2084.2800000000002</ele>
        <time>2016-07-06T08:34:30Z</time>
      </trkpt>
      <trkpt lat="46.03456330485642" lon="7.244979729875922">
        <ele>2083.79</ele>
        <time>2016-07-06T08:34:34Z</time>
      </trkpt>
      <trkpt lat="46.03460730984807" lon="7.244996996596456">
        <ele>2083.79</ele>
        <time>2016-07-06T08:34:39Z</time>
      </trkpt>
      <trkpt lat="46.034685429185629" lon="7.24501334130764">
        <ele>2083.79</ele>
        <time>2016-07-06T08:34:47Z</time>
      </trkpt>
      <trkpt lat="46.034786850214005" lon="7.245042258873582">
        <ele>2083.3099999999999</ele>
        <time>2016-07-06T08:34:57Z</time>
      </trkpt>
      <trkpt lat="46.034849211573601" lon="7.245041504502296">
        <ele>2084.2800000000002</ele>
        <time>2016-07-06T08:35:05Z</time>
      </trkpt>
      <trkpt lat="46.034855581820011" lon="7.245042091235519">
        <ele>2084.2800000000002</ele>
        <time>2016-07-06T08:35:06Z</time>
      </trkpt>
      <trkpt lat="46.034928923472762" lon="7.245046533644199">
        <ele>2084.7600000000002</ele>
        <time>2016-07-06T08:35:16Z</time>
      </trkpt>
      <trkpt lat="46.034936802461743" lon="7.245041336864233">
        <ele>2085.2399999999998</ele>
        <time>2016-07-06T08:35:17Z</time>
      </trkpt>
      <trkpt lat="46.034998493269086" lon="7.245041420683265">
        <ele>2084.7600000000002</ele>
        <time>2016-07-06T08:35:24Z</time>
      </trkpt>
      <trkpt lat="46.035049539059401" lon="7.245016610249877">
        <ele>2084.2800000000002</ele>
        <time>2016-07-06T08:35:29Z</time>
      </trkpt>
      <trkpt lat="46.035130424425006" lon="7.245052652433515">
        <ele>2085.7199999999998</ele>
        <time>2016-07-06T08:35:38Z</time>
      </trkpt>
      <trkpt lat="46.035220697522163" lon="7.245030859485269">
        <ele>2086.6799999999998</ele>
        <time>2016-07-06T08:35:48Z</time>
      </trkpt>
      <trkpt lat="46.035292111337185" lon="7.245011329650879">
        <ele>2086.6799999999998</ele>
        <time>2016-07-06T08:35:55Z</time>
      </trkpt>
      <trkpt lat="46.035328069701791" lon="7.244978975504637">
        <ele>2086.1999999999998</ele>
        <time>2016-07-06T08:35:59Z</time>
      </trkpt>
      <trkpt lat="46.035410463809967" lon="7.244989788159728">
        <ele>2087.1599999999999</ele>
        <time>2016-07-06T08:36:08Z</time>
      </trkpt>
      <trkpt lat="46.035493528470397" lon="7.245008228346705">
        <ele>2088.1199999999999</ele>
        <time>2016-07-06T08:36:20Z</time>
      </trkpt>
      <trkpt lat="46.035517919808626" lon="7.245003953576088">
        <ele>2088.1199999999999</ele>
        <time>2016-07-06T08:36:22Z</time>
      </trkpt>
      <trkpt lat="46.035556644201279" lon="7.245012167841196">
        <ele>2088.1199999999999</ele>
        <time>2016-07-06T08:36:26Z</time>
      </trkpt>
      <trkpt lat="46.03560408577323" lon="7.245010742917657">
        <ele>2088.1199999999999</ele>
        <time>2016-07-06T08:36:31Z</time>
      </trkpt>
      <trkpt lat="46.035656053572893" lon="7.24505877122283">
        <ele>2088.5999999999999</ele>
        <time>2016-07-06T08:36:39Z</time>
      </trkpt>
      <trkpt lat="46.035747835412621" lon="7.245064973831177">
        <ele>2089.5599999999999</ele>
        <time>2016-07-06T08:36:50Z</time>
      </trkpt>
      <trkpt lat="46.03577951900661" lon="7.245055669918656">
        <ele>2091</ele>
        <time>2016-07-06T08:37:00Z</time>
      </trkpt>
      <trkpt lat="46.035858308896422" lon="7.245077043771744">
        <ele>2091.9699999999998</ele>
        <time>2016-07-06T08:37:09Z</time>
      </trkpt>
      <trkpt lat="46.035869624465704" lon="7.24507830105722">
        <ele>2091.9699999999998</ele>
        <time>2016-07-06T08:37:11Z</time>
      </trkpt>
      <trkpt lat="46.035906421020627" lon="7.245044354349375">
        <ele>2091.4899999999998</ele>
        <time>2016-07-06T08:37:15Z</time>
      </trkpt>
      <trkpt lat="46.036001807078719" lon="7.24504804238677">
        <ele>2091.9699999999998</ele>
        <time>2016-07-06T08:37:25Z</time>
      </trkpt>
      <trkpt lat="46.036063581705093" lon="7.245059693232179">
        <ele>2092.9299999999998</ele>
        <time>2016-07-06T08:37:33Z</time>
      </trkpt>
      <trkpt lat="46.036124685779214" lon="7.245062040165067">
        <ele>2093.4099999999999</ele>
        <time>2016-07-06T08:37:41Z</time>
      </trkpt>
      <trkpt lat="46.036176821216941" lon="7.245083497837186">
        <ele>2094.3699999999999</ele>
        <time>2016-07-06T08:37:48Z</time>
      </trkpt>
      <trkpt lat="46.036270949989557" lon="7.245151391252875">
        <ele>2094.8499999999999</ele>
        <time>2016-07-06T08:37:58Z</time>
      </trkpt>
      <trkpt lat="46.036348901689053" lon="7.245191372931004">
        <ele>2094.8499999999999</ele>
        <time>2016-07-06T08:38:09Z</time>
      </trkpt>
      <trkpt lat="46.036383435130119" lon="7.245197826996446">
        <ele>2095.8099999999999</ele>
        <time>2016-07-06T08:38:18Z</time>
      </trkpt>
      <trkpt lat="46.036422997713089" lon="7.245226660743356">
        <ele>2095.8099999999999</ele>
        <time>2016-07-06T08:38:31Z</time>
      </trkpt>
      <trkpt lat="46.036476222798228" lon="7.245311737060547">
        <ele>2096.29</ele>
        <time>2016-07-06T08:38:43Z</time>
      </trkpt>
      <trkpt lat="46.036531710997224" lon="7.245375774800777">
        <ele>2096.29</ele>
        <time>2016-07-06T08:38:53Z</time>
      </trkpt>
      <trkpt lat="46.036587618291378" lon="7.245449619367719">
        <ele>2096.77</ele>
        <time>2016-07-06T08:39:03Z</time>
      </trkpt>
      <trkpt lat="46.036641513928771" lon="7.245500413700938">
        <ele>2097.73</ele>
        <time>2016-07-06T08:39:15Z</time>
      </trkpt>
      <trkpt lat="46.036695325747132" lon="7.245536874979734">
        <ele>2098.6999999999998</ele>
        <time>2016-07-06T08:39:22Z</time>
      </trkpt>
      <trkpt lat="46.036750227212906" lon="7.245604936033487">
        <ele>2100.1399999999999</ele>
        <time>2016-07-06T08:39:34Z</time>
      </trkpt>
      <trkpt lat="46.036815773695707" lon="7.245656568557024">
        <ele>2100.1399999999999</ele>
        <time>2016-07-06T08:39:43Z</time>
      </trkpt>
      <trkpt lat="46.036811918020248" lon="7.245688419789076">
        <ele>2100.1399999999999</ele>
        <time>2016-07-06T08:39:53Z</time>
      </trkpt>
      <trkpt lat="46.036821473389864" lon="7.245708703994751">
        <ele>2099.6599999999999</ele>
        <time>2016-07-06T08:40:12Z</time>
      </trkpt>
      <trkpt lat="46.036854162812233" lon="7.245765700936317">
        <ele>2098.6999999999998</ele>
        <time>2016-07-06T08:40:18Z</time>
      </trkpt>
      <trkpt lat="46.036886852234602" lon="7.245767042040825">
        <ele>2097.25</ele>
        <time>2016-07-06T08:40:22Z</time>
      </trkpt>
      <trkpt lat="46.036893557757139" lon="7.245772322639823">
        <ele>2096.29</ele>
        <time>2016-07-06T08:40:24Z</time>
      </trkpt>
      <trkpt lat="46.036962540820241" lon="7.245815992355347">
        <ele>2093.8899999999999</ele>
        <time>2016-07-06T08:40:34Z</time>
      </trkpt>
      <trkpt lat="46.036949632689357" lon="7.245934428647161">
        <ele>2091.4899999999998</ele>
        <time>2016-07-06T08:40:44Z</time>
      </trkpt>
      <trkpt lat="46.036955919116735" lon="7.245941888540983">
        <ele>2091.4899999999998</ele>
        <time>2016-07-06T08:40:45Z</time>
      </trkpt>
      <trkpt lat="46.037027416750789" lon="7.245974242687225">
        <ele>2088.5999999999999</ele>
        <time>2016-07-06T08:40:52Z</time>
      </trkpt>
      <trkpt lat="46.037084581330419" lon="7.246050434187055">
        <ele>2085.7199999999998</ele>
        <time>2016-07-06T08:41:02Z</time>
      </trkpt>
      <trkpt lat="46.037079887464643" lon="7.246191836893559">
        <ele>2082.8299999999999</ele>
        <time>2016-07-06T08:41:15Z</time>
      </trkpt>
      <trkpt lat="46.037090867757797" lon="7.246231734752655">
        <ele>2081.3899999999999</ele>
        <time>2016-07-06T08:41:19Z</time>
      </trkpt>
      <trkpt lat="46.037062956020236" lon="7.246328126639128">
        <ele>2079.9499999999998</ele>
        <time>2016-07-06T08:41:26Z</time>
      </trkpt>
      <trkpt lat="46.037040157243609" lon="7.246391996741295">
        <ele>2078.9899999999998</ele>
        <time>2016-07-06T08:41:32Z</time>
      </trkpt>
      <trkpt lat="46.036997493356466" lon="7.246542535722256">
        <ele>2077.0700000000002</ele>
        <time>2016-07-06T08:41:45Z</time>
      </trkpt>
      <trkpt lat="46.036988440901041" lon="7.246653344482184">
        <ele>2075.1399999999999</ele>
        <time>2016-07-06T08:41:54Z</time>
      </trkpt>
      <trkpt lat="46.036973018199205" lon="7.246725847944617">
        <ele>2073.6999999999998</ele>
        <time>2016-07-06T08:41:59Z</time>
      </trkpt>
      <trkpt lat="46.036962373182178" lon="7.24686766974628">
        <ele>2071.7800000000002</ele>
        <time>2016-07-06T08:42:10Z</time>
      </trkpt>
      <trkpt lat="46.036936808377504" lon="7.24700060673058">
        <ele>2070.8200000000002</ele>
        <time>2016-07-06T08:42:20Z</time>
      </trkpt>
      <trkpt lat="46.036933539435267" lon="7.247048802673817">
        <ele>2069.8600000000001</ele>
        <time>2016-07-06T08:42:23Z</time>
      </trkpt>
      <trkpt lat="46.036902777850628" lon="7.247258434072137">
        <ele>2068.8899999999999</ele>
        <time>2016-07-06T08:42:37Z</time>
      </trkpt>
      <trkpt lat="46.036906465888023" lon="7.247281232848764">
        <ele>2068.8899999999999</ele>
        <time>2016-07-06T08:42:39Z</time>
      </trkpt>
      <trkpt lat="46.036907555535436" lon="7.247304450720549">
        <ele>2068.8899999999999</ele>
        <time>2016-07-06T08:42:42Z</time>
      </trkpt>
      <trkpt lat="46.036906465888023" lon="7.247375445440412">
        <ele>2068.4099999999999</ele>
        <time>2016-07-06T08:42:49Z</time>
      </trkpt>
      <trkpt lat="46.036912836134434" lon="7.247435543686152">
        <ele>2067.9299999999998</ele>
        <time>2016-07-06T08:42:53Z</time>
      </trkpt>
      <trkpt lat="46.036905711516738" lon="7.247485751286149">
        <ele>2067.9299999999998</ele>
        <time>2016-07-06T08:42:56Z</time>
      </trkpt>
      <trkpt lat="46.036894815042615" lon="7.247581724077463">
        <ele>2066.9699999999998</ele>
        <time>2016-07-06T08:43:03Z</time>
      </trkpt>
      <trkpt lat="46.036894479766488" lon="7.24776822142303">
        <ele>2065.5300000000002</ele>
        <time>2016-07-06T08:43:15Z</time>
      </trkpt>
      <trkpt lat="46.036899425089359" lon="7.24790308624506">
        <ele>2064.5700000000002</ele>
        <time>2016-07-06T08:43:24Z</time>
      </trkpt>
      <trkpt lat="46.036901185289025" lon="7.248108945786953">
        <ele>2063.1300000000001</ele>
        <time>2016-07-06T08:43:37Z</time>
      </trkpt>
      <trkpt lat="46.036912333220243" lon="7.248279517516494">
        <ele>2060.7199999999998</ele>
        <time>2016-07-06T08:43:49Z</time>
      </trkpt>
      <trkpt lat="46.036912249401212" lon="7.248308937996626">
        <ele>2060.7199999999998</ele>
        <time>2016-07-06T08:43:51Z</time>
      </trkpt>
      <trkpt lat="46.036945693194866" lon="7.248503481969237">
        <ele>2059.2800000000002</ele>
        <time>2016-07-06T08:44:04Z</time>
      </trkpt>
      <trkpt lat="46.03695172816515" lon="7.248718645423651">
        <ele>2057.3600000000001</ele>
        <time>2016-07-06T08:44:17Z</time>
      </trkpt>
      <trkpt lat="46.036956422030926" lon="7.248796178027988">
        <ele>2056.8800000000001</ele>
        <time>2016-07-06T08:44:22Z</time>
      </trkpt>
      <trkpt lat="46.036977041512728" lon="7.248905058950186">
        <ele>2056.8800000000001</ele>
        <time>2016-07-06T08:44:29Z</time>
      </trkpt>
      <trkpt lat="46.036997158080339" lon="7.24910169839859">
        <ele>2056.4000000000001</ele>
        <time>2016-07-06T08:44:41Z</time>
      </trkpt>
      <trkpt lat="46.037006294354796" lon="7.249174453318119">
        <ele>2055.9200000000001</ele>
        <time>2016-07-06T08:44:46Z</time>
      </trkpt>
      <trkpt lat="46.037037642672658" lon="7.24928786046803">
        <ele>2055.9200000000001</ele>
        <time>2016-07-06T08:44:54Z</time>
      </trkpt>
      <trkpt lat="46.037030601873994" lon="7.249452816322446">
        <ele>2053.0300000000002</ele>
        <time>2016-07-06T08:45:06Z</time>
      </trkpt>
      <trkpt lat="46.037034709006548" lon="7.24958835169673">
        <ele>2051.5900000000001</ele>
        <time>2016-07-06T08:45:16Z</time>
      </trkpt>
      <trkpt lat="46.037041414529085" lon="7.249740231782198">
        <ele>2048.23</ele>
        <time>2016-07-06T08:45:27Z</time>
      </trkpt>
      <trkpt lat="46.037051305174828" lon="7.249878952279687">
        <ele>2045.8199999999999</ele>
        <time>2016-07-06T08:45:36Z</time>
      </trkpt>
      <trkpt lat="46.037049880251288" lon="7.250053463503718">
        <ele>2045.3399999999999</ele>
        <time>2016-07-06T08:45:47Z</time>
      </trkpt>
      <trkpt lat="46.037066644057631" lon="7.250201152637601">
        <ele>2043.4200000000001</ele>
        <time>2016-07-06T08:45:59Z</time>
      </trkpt>
      <trkpt lat="46.037064213305712" lon="7.250247085466981">
        <ele>2042.46</ele>
        <time>2016-07-06T08:46:08Z</time>
      </trkpt>
      <trkpt lat="46.037056250497699" lon="7.250355128198862">
        <ele>2041.98</ele>
        <time>2016-07-06T08:46:17Z</time>
      </trkpt>
      <trkpt lat="46.037017107009888" lon="7.250483958050609">
        <ele>2040.54</ele>
        <time>2016-07-06T08:46:25Z</time>
      </trkpt>
      <trkpt lat="46.036968994885683" lon="7.250521089881659">
        <ele>2040.05</ele>
        <time>2016-07-06T08:46:29Z</time>
      </trkpt>
      <trkpt lat="46.03685500100255" lon="7.25063793361187">
        <ele>2039.5699999999999</ele>
        <time>2016-07-06T08:46:41Z</time>
      </trkpt>
      <trkpt lat="46.036783084273338" lon="7.250761231407523">
        <ele>2039.0899999999999</ele>
        <time>2016-07-06T08:46:51Z</time>
      </trkpt>
      <trkpt lat="46.036713682115078" lon="7.250859802588821">
        <ele>2040.05</ele>
        <time>2016-07-06T08:47:01Z</time>
      </trkpt>
      <trkpt lat="46.036710496991873" lon="7.250899700447917">
        <ele>2039.0899999999999</ele>
        <time>2016-07-06T08:47:11Z</time>
      </trkpt>
      <trkpt lat="46.036708569154143" lon="7.250921996310353">
        <ele>2038.1300000000001</ele>
        <time>2016-07-06T08:47:13Z</time>
      </trkpt>
      <trkpt lat="46.036744192242622" lon="7.250977316871285">
        <ele>2035.25</ele>
        <time>2016-07-06T08:47:23Z</time>
      </trkpt>
      <trkpt lat="46.036736648529768" lon="7.25101956166327">
        <ele>2033.8099999999999</ele>
        <time>2016-07-06T08:47:28Z</time>
      </trkpt>
      <trkpt lat="46.036711083725095" lon="7.251041606068611">
        <ele>2032.8399999999999</ele>
        <time>2016-07-06T08:47:32Z</time>
      </trkpt>
      <trkpt lat="46.03668644092977" lon="7.251151325181127">
        <ele>2030.9200000000001</ele>
        <time>2016-07-06T08:47:43Z</time>
      </trkpt>
      <trkpt lat="46.036661546677351" lon="7.251284178346396">
        <ele>2029.96</ele>
        <time>2016-07-06T08:47:53Z</time>
      </trkpt>
      <trkpt lat="46.036641765385866" lon="7.251369254663587">
        <ele>2029</ele>
        <time>2016-07-06T08:48:02Z</time>
      </trkpt>
      <trkpt lat="46.036600274965167" lon="7.251430777832866">
        <ele>2028.04</ele>
        <time>2016-07-06T08:48:07Z</time>
      </trkpt>
      <trkpt lat="46.036558030173182" lon="7.251506969332695">
        <ele>2027.5599999999999</ele>
        <time>2016-07-06T08:48:14Z</time>
      </trkpt>
      <trkpt lat="46.036551827564836" lon="7.251551393419504">
        <ele>2027.0799999999999</ele>
        <time>2016-07-06T08:48:17Z</time>
      </trkpt>
      <trkpt lat="46.036551408469677" lon="7.251582490280271">
        <ele>2026.5999999999999</ele>
        <time>2016-07-06T08:48:19Z</time>
      </trkpt>
      <trkpt lat="46.036532633006573" lon="7.25171928294003">
        <ele>2024.6700000000001</ele>
        <time>2016-07-06T08:48:30Z</time>
      </trkpt>
      <trkpt lat="46.036509247496724" lon="7.251786086708307">
        <ele>2023.23</ele>
        <time>2016-07-06T08:48:35Z</time>
      </trkpt>
      <trkpt lat="46.0364587046206" lon="7.251912988722324">
        <ele>2022.27</ele>
        <time>2016-07-06T08:48:48Z</time>
      </trkpt>
      <trkpt lat="46.036457614973187" lon="7.251916090026498">
        <ele>2022.27</ele>
        <time>2016-07-06T08:48:49Z</time>
      </trkpt>
      <trkpt lat="46.03644747287035" lon="7.251937296241522">
        <ele>2021.79</ele>
        <time>2016-07-06T08:48:51Z</time>
      </trkpt>
      <trkpt lat="46.036427523940802" lon="7.251969315111637">
        <ele>2022.27</ele>
        <time>2016-07-06T08:48:54Z</time>
      </trkpt>
      <trkpt lat="46.036411011591554" lon="7.252117590978742">
        <ele>2022.27</ele>
        <time>2016-07-06T08:49:05Z</time>
      </trkpt>
      <trkpt lat="46.03638201020658" lon="7.252222364768386">
        <ele>2023.71</ele>
        <time>2016-07-06T08:49:14Z</time>
      </trkpt>
      <trkpt lat="46.036387542262673" lon="7.252253713086247">
        <ele>2024.1900000000001</ele>
        <time>2016-07-06T08:49:18Z</time>
      </trkpt>
      <trkpt lat="46.036367006599903" lon="7.25234666839242">
        <ele>2025.1500000000001</ele>
        <time>2016-07-06T08:49:28Z</time>
      </trkpt>
      <trkpt lat="46.036361306905746" lon="7.252465942874551">
        <ele>2025.6400000000001</ele>
        <time>2016-07-06T08:49:37Z</time>
      </trkpt>
      <trkpt lat="46.036324258893728" lon="7.252612290903926">
        <ele>2026.5999999999999</ele>
        <time>2016-07-06T08:49:50Z</time>
      </trkpt>
      <trkpt lat="46.036271871998906" lon="7.252638274803758">
        <ele>2027.5599999999999</ele>
        <time>2016-07-06T08:49:59Z</time>
      </trkpt>
      <trkpt lat="46.036238009110093" lon="7.252664929255843">
        <ele>2028.52</ele>
        <time>2016-07-06T08:50:09Z</time>
      </trkpt>
      <trkpt lat="46.036186628043652" lon="7.252696277573705">
        <ele>2030.4400000000001</ele>
        <time>2016-07-06T08:50:20Z</time>
      </trkpt>
      <trkpt lat="46.036183862015605" lon="7.252700133249164">
        <ele>2030.4400000000001</ele>
        <time>2016-07-06T08:50:21Z</time>
      </trkpt>
      <trkpt lat="46.036123679950833" lon="7.252686889842153">
        <ele>2032.3599999999999</ele>
        <time>2016-07-06T08:50:32Z</time>
      </trkpt>
      <trkpt lat="46.03612594306469" lon="7.252644309774041">
        <ele>2033.3299999999999</ele>
        <time>2016-07-06T08:50:41Z</time>
      </trkpt>
      <trkpt lat="46.036074394360185" lon="7.252663085237145">
        <ele>2035.25</ele>
        <time>2016-07-06T08:50:54Z</time>
      </trkpt>
      <trkpt lat="46.03603114373982" lon="7.252725614234805">
        <ele>2036.6900000000001</ele>
        <time>2016-07-06T08:51:04Z</time>
      </trkpt>
      <trkpt lat="46.036043129861355" lon="7.252774899825454">
        <ele>2037.1700000000001</ele>
        <time>2016-07-06T08:51:13Z</time>
      </trkpt>
      <trkpt lat="46.036044135689735" lon="7.252783114090562">
        <ele>2037.1700000000001</ele>
        <time>2016-07-06T08:51:14Z</time>
      </trkpt>
      <trkpt lat="46.036043465137482" lon="7.252919655293226">
        <ele>2036.21</ele>
        <time>2016-07-06T08:51:27Z</time>
      </trkpt>
      <trkpt lat="46.036014631390572" lon="7.252943962812424">
        <ele>2036.6900000000001</ele>
        <time>2016-07-06T08:51:32Z</time>
      </trkpt>
      <trkpt lat="46.035998119041324" lon="7.253031469881535">
        <ele>2036.6900000000001</ele>
        <time>2016-07-06T08:51:42Z</time>
      </trkpt>
      <trkpt lat="46.036001555621624" lon="7.253129538148642">
        <ele>2034.77</ele>
        <time>2016-07-06T08:51:52Z</time>
      </trkpt>
      <trkpt lat="46.036010021343827" lon="7.253242693841457">
        <ele>2033.3299999999999</ele>
        <time>2016-07-06T08:52:02Z</time>
      </trkpt>
      <trkpt lat="46.035975906997919" lon="7.253338498994708">
        <ele>2033.8099999999999</ele>
        <time>2016-07-06T08:52:13Z</time>
      </trkpt>
      <trkpt lat="46.035941625013947" lon="7.253381749615073">
        <ele>2035.73</ele>
        <time>2016-07-06T08:52:20Z</time>
      </trkpt>
      <trkpt lat="46.035904493182898" lon="7.253459701314569">
        <ele>2037.1700000000001</ele>
        <time>2016-07-06T08:52:31Z</time>
      </trkpt>
      <trkpt lat="46.035859398543835" lon="7.253526840358973">
        <ele>2038.1300000000001</ele>
        <time>2016-07-06T08:52:40Z</time>
      </trkpt>
      <trkpt lat="46.035782787948847" lon="7.253537401556969">
        <ele>2039.5699999999999</ele>
        <time>2016-07-06T08:52:50Z</time>
      </trkpt>
      <trkpt lat="46.035752361640334" lon="7.253605294972658">
        <ele>2041.02</ele>
        <time>2016-07-06T08:53:00Z</time>
      </trkpt>
      <trkpt lat="46.035722438246012" lon="7.253632871434093">
        <ele>2042.46</ele>
        <time>2016-07-06T08:53:11Z</time>
      </trkpt>
      <trkpt lat="46.03566812351346" lon="7.25367184728384">
        <ele>2043.9000000000001</ele>
        <time>2016-07-06T08:53:21Z</time>
      </trkpt>
      <trkpt lat="46.035648509860039" lon="7.253705374896526">
        <ele>2044.3800000000001</ele>
        <time>2016-07-06T08:53:32Z</time>
      </trkpt>
      <trkpt lat="46.035609282553196" lon="7.253739908337593">
        <ele>2046.3</ele>
        <time>2016-07-06T08:53:45Z</time>
      </trkpt>
      <trkpt lat="46.035591764375567" lon="7.253780728206039">
        <ele>2048.23</ele>
        <time>2016-07-06T08:53:54Z</time>
      </trkpt>
      <trkpt lat="46.035547759383917" lon="7.253821967169642">
        <ele>2049.6700000000001</ele>
        <time>2016-07-06T08:54:04Z</time>
      </trkpt>
      <trkpt lat="46.035539377480745" lon="7.253850381821394">
        <ele>2050.6300000000001</ele>
        <time>2016-07-06T08:54:16Z</time>
      </trkpt>
      <trkpt lat="46.035531666129827" lon="7.253888268023729">
        <ele>2050.6300000000001</ele>
        <time>2016-07-06T08:54:20Z</time>
      </trkpt>
      <trkpt lat="46.035509705543518" lon="7.253914754837751">
        <ele>2051.1100000000001</ele>
        <time>2016-07-06T08:54:23Z</time>
      </trkpt>
      <trkpt lat="46.035460503771901" lon="7.253940654918551">
        <ele>2051.1100000000001</ele>
        <time>2016-07-06T08:54:29Z</time>
      </trkpt>
      <trkpt lat="46.035344582051039" lon="7.254002261906862">
        <ele>2050.1500000000001</ele>
        <time>2016-07-06T08:54:42Z</time>
      </trkpt>
      <trkpt lat="46.035301415249705" lon="7.254042495042086">
        <ele>2049.1900000000001</ele>
        <time>2016-07-06T08:54:47Z</time>
      </trkpt>
      <trkpt lat="46.035259002819657" lon="7.254050709307194">
        <ele>2048.71</ele>
        <time>2016-07-06T08:54:52Z</time>
      </trkpt>
      <trkpt lat="46.035184152424335" lon="7.254082476720214">
        <ele>2048.23</ele>
        <time>2016-07-06T08:55:00Z</time>
      </trkpt>
      <trkpt lat="46.0351203661412" lon="7.254052888602018">
        <ele>2048.23</ele>
        <time>2016-07-06T08:55:07Z</time>
      </trkpt>
      <trkpt lat="46.035062950104475" lon="7.254106868058443">
        <ele>2047.75</ele>
        <time>2016-07-06T08:55:13Z</time>
      </trkpt>
      <trkpt lat="46.035007713362575" lon="7.254151459783316">
        <ele>2048.23</ele>
        <time>2016-07-06T08:55:21Z</time>
      </trkpt>
      <trkpt lat="46.034977622330189" lon="7.254232261329889">
        <ele>2049.6700000000001</ele>
        <time>2016-07-06T08:55:31Z</time>
      </trkpt>
      <trkpt lat="46.034959433600307" lon="7.25429923273623">
        <ele>2051.1100000000001</ele>
        <time>2016-07-06T08:55:39Z</time>
      </trkpt>
      <trkpt lat="46.034929845482111" lon="7.254427056759596">
        <ele>2051.1100000000001</ele>
        <time>2016-07-06T08:55:50Z</time>
      </trkpt>
      <trkpt lat="46.034871088340878" lon="7.254490926861763">
        <ele>2051.5900000000001</ele>
        <time>2016-07-06T08:56:00Z</time>
      </trkpt>
      <trkpt lat="46.034852229058743" lon="7.254590755328536">
        <ele>2052.0700000000002</ele>
        <time>2016-07-06T08:56:09Z</time>
      </trkpt>
      <trkpt lat="46.034813756123185" lon="7.254661750048399">
        <ele>2052.5500000000002</ele>
        <time>2016-07-06T08:56:17Z</time>
      </trkpt>
      <trkpt lat="46.034763129428029" lon="7.254715980961919">
        <ele>2053.0300000000002</ele>
        <time>2016-07-06T08:56:25Z</time>
      </trkpt>
      <trkpt lat="46.034702695906162" lon="7.254700474441052">
        <ele>2054.96</ele>
        <time>2016-07-06T08:56:33Z</time>
      </trkpt>
      <trkpt lat="46.034682830795646" lon="7.254738109186292">
        <ele>2055.9200000000001</ele>
        <time>2016-07-06T08:56:41Z</time>
      </trkpt>
      <trkpt lat="46.034660451114178" lon="7.25475512444973">
        <ele>2056.4000000000001</ele>
        <time>2016-07-06T08:56:45Z</time>
      </trkpt>
      <trkpt lat="46.03459314443171" lon="7.254853527992964">
        <ele>2056.8800000000001</ele>
        <time>2016-07-06T08:56:56Z</time>
      </trkpt>
      <trkpt lat="46.034563221037388" lon="7.254867944866419">
        <ele>2057.3600000000001</ele>
        <time>2016-07-06T08:57:01Z</time>
      </trkpt>
      <trkpt lat="46.034510415047407" lon="7.254914632067084">
        <ele>2056.8800000000001</ele>
        <time>2016-07-06T08:57:07Z</time>
      </trkpt>
      <trkpt lat="46.034459453076124" lon="7.254921589046717">
        <ele>2057.8400000000001</ele>
        <time>2016-07-06T08:57:16Z</time>
      </trkpt>
      <trkpt lat="46.034419471397996" lon="7.254999289289117">
        <ele>2056.4000000000001</ele>
        <time>2016-07-06T08:57:26Z</time>
      </trkpt>
      <trkpt lat="46.034371107816696" lon="7.255102135241032">
        <ele>2055.4400000000001</ele>
        <time>2016-07-06T08:57:35Z</time>
      </trkpt>
      <trkpt lat="46.034336071461439" lon="7.255133651196957">
        <ele>2056.8800000000001</ele>
        <time>2016-07-06T08:57:45Z</time>
      </trkpt>
      <trkpt lat="46.034324336796999" lon="7.255213111639023">
        <ele>2057.3600000000001</ele>
        <time>2016-07-06T08:57:55Z</time>
      </trkpt>
      <trkpt lat="46.034302627667785" lon="7.255333475768566">
        <ele>2054.96</ele>
        <time>2016-07-06T08:58:06Z</time>
      </trkpt>
      <trkpt lat="46.034292401745915" lon="7.255350407212973">
        <ele>2054.96</ele>
        <time>2016-07-06T08:58:08Z</time>
      </trkpt>
      <trkpt lat="46.034285696223378" lon="7.255445290356875">
        <ele>2053.5100000000002</ele>
        <time>2016-07-06T08:58:16Z</time>
      </trkpt>
      <trkpt lat="46.034192740917206" lon="7.255503628402948">
        <ele>2051.5900000000001</ele>
        <time>2016-07-06T08:58:28Z</time>
      </trkpt>
      <trkpt lat="46.034159129485488" lon="7.25555207580328">
        <ele>2050.6300000000001</ele>
        <time>2016-07-06T08:58:35Z</time>
      </trkpt>
      <trkpt lat="46.034107580780983" lon="7.255632793530822">
        <ele>2051.1100000000001</ele>
        <time>2016-07-06T08:58:45Z</time>
      </trkpt>
      <trkpt lat="46.034101797267795" lon="7.25564050488174">
        <ele>2051.1100000000001</ele>
        <time>2016-07-06T08:58:46Z</time>
      </trkpt>
      <trkpt lat="46.034084279090166" lon="7.255696915090084">
        <ele>2051.1100000000001</ele>
        <time>2016-07-06T08:58:52Z</time>
      </trkpt>
      <trkpt lat="46.034068521112204" lon="7.255731280893087">
        <ele>2051.1100000000001</ele>
        <time>2016-07-06T08:58:55Z</time>
      </trkpt>
      <trkpt lat="46.03402242064476" lon="7.255840664729476">
        <ele>2052.5500000000002</ele>
        <time>2016-07-06T08:59:07Z</time>
      </trkpt>
      <trkpt lat="46.033978583291173" lon="7.255897410213947">
        <ele>2055.4400000000001</ele>
        <time>2016-07-06T08:59:21Z</time>
      </trkpt>
      <trkpt lat="46.033953353762627" lon="7.255992125719786">
        <ele>2056.8800000000001</ele>
        <time>2016-07-06T08:59:33Z</time>
      </trkpt>
      <trkpt lat="46.033910857513547" lon="7.256028586998582">
        <ele>2057.8400000000001</ele>
        <time>2016-07-06T08:59:40Z</time>
      </trkpt>
      <trkpt lat="46.033837515860796" lon="7.256044261157513">
        <ele>2059.7600000000002</ele>
        <time>2016-07-06T08:59:51Z</time>
      </trkpt>
      <trkpt lat="46.033806335180998" lon="7.256091786548495">
        <ele>2060.7199999999998</ele>
        <time>2016-07-06T09:00:00Z</time>
      </trkpt>
      <trkpt lat="46.033756043761969" lon="7.256173342466354">
        <ele>2061.6799999999998</ele>
        <time>2016-07-06T09:00:10Z</time>
      </trkpt>
      <trkpt lat="46.033736346289515" lon="7.256234027445316">
        <ele>2062.6500000000001</ele>
        <time>2016-07-06T09:00:19Z</time>
      </trkpt>
      <trkpt lat="46.033739447593689" lon="7.256244169548154">
        <ele>2062.1700000000001</ele>
        <time>2016-07-06T09:00:20Z</time>
      </trkpt>
      <trkpt lat="46.033738944679499" lon="7.256339136511087">
        <ele>2063.1300000000001</ele>
        <time>2016-07-06T09:00:28Z</time>
      </trkpt>
      <trkpt lat="46.033704495057464" lon="7.256475007161498">
        <ele>2064.5700000000002</ele>
        <time>2016-07-06T09:00:42Z</time>
      </trkpt>
      <trkpt lat="46.033687815070152" lon="7.256542481482029">
        <ele>2066.9699999999998</ele>
        <time>2016-07-06T09:00:53Z</time>
      </trkpt>
      <trkpt lat="46.033678259700537" lon="7.256612973287702">
        <ele>2068.4099999999999</ele>
        <time>2016-07-06T09:01:04Z</time>
      </trkpt>
      <trkpt lat="46.033629644662142" lon="7.256663180887699">
        <ele>2069.8600000000001</ele>
        <time>2016-07-06T09:01:15Z</time>
      </trkpt>
      <trkpt lat="46.033589746803045" lon="7.256726548075676">
        <ele>2072.2600000000002</ele>
        <time>2016-07-06T09:01:28Z</time>
      </trkpt>
      <trkpt lat="46.033573402091861" lon="7.256772564724088">
        <ele>2073.6999999999998</ele>
        <time>2016-07-06T09:01:36Z</time>
      </trkpt>
      <trkpt lat="46.033517410978675" lon="7.256804248318076">
        <ele>2073.6999999999998</ele>
        <time>2016-07-06T09:01:43Z</time>
      </trkpt>
      <trkpt lat="46.033460833132267" lon="7.256788071244955">
        <ele>2073.2199999999998</ele>
        <time>2016-07-06T09:01:49Z</time>
      </trkpt>
      <trkpt lat="46.033383384346962" lon="7.256808523088694">
        <ele>2070.8200000000002</ele>
        <time>2016-07-06T09:02:00Z</time>
      </trkpt>
      <trkpt lat="46.033295793458819" lon="7.256750268861651">
        <ele>2068.8899999999999</ele>
        <time>2016-07-06T09:02:12Z</time>
      </trkpt>
      <trkpt lat="46.033256649971008" lon="7.256742976605892">
        <ele>2066.9699999999998</ele>
        <time>2016-07-06T09:02:22Z</time>
      </trkpt>
      <trkpt lat="46.033203089609742" lon="7.256740294396877">
        <ele>2065.0500000000002</ele>
        <time>2016-07-06T09:02:32Z</time>
      </trkpt>
      <trkpt lat="46.033213064074516" lon="7.256803410127759">
        <ele>2063.1300000000001</ele>
        <time>2016-07-06T09:02:43Z</time>
      </trkpt>
      <trkpt lat="46.033153720200062" lon="7.256815982982516">
        <ele>2061.1999999999998</ele>
        <time>2016-07-06T09:02:52Z</time>
      </trkpt>
      <trkpt lat="46.033068560063839" lon="7.256853450089693">
        <ele>2059.2800000000002</ele>
        <time>2016-07-06T09:03:01Z</time>
      </trkpt>
      <trkpt lat="46.033053724095225" lon="7.256877338513732">
        <ele>2059.2800000000002</ele>
        <time>2016-07-06T09:03:06Z</time>
      </trkpt>
      <trkpt lat="46.033032098785043" lon="7.256961073726416">
        <ele>2058.8000000000002</ele>
        <time>2016-07-06T09:03:13Z</time>
      </trkpt>
      <trkpt lat="46.033033691346645" lon="7.256980687379837">
        <ele>2058.8000000000002</ele>
        <time>2016-07-06T09:03:15Z</time>
      </trkpt>
      <trkpt lat="46.033022962510586" lon="7.257033996284008">
        <ele>2058.8000000000002</ele>
        <time>2016-07-06T09:03:21Z</time>
      </trkpt>
      <trkpt lat="46.032994296401739" lon="7.257084036245942">
        <ele>2058.3200000000002</ele>
        <time>2016-07-06T09:03:25Z</time>
      </trkpt>
      <trkpt lat="46.032920870929956" lon="7.257166262716055">
        <ele>2057.3600000000001</ele>
        <time>2016-07-06T09:03:33Z</time>
      </trkpt>
      <trkpt lat="46.032896479591727" lon="7.257190486416221">
        <ele>2057.8400000000001</ele>
        <time>2016-07-06T09:03:36Z</time>
      </trkpt>
      <trkpt lat="46.032854989171028" lon="7.257226025685668">
        <ele>2058.3200000000002</ele>
        <time>2016-07-06T09:03:41Z</time>
      </trkpt>
      <trkpt lat="46.032773265615106" lon="7.257302636280656">
        <ele>2058.3200000000002</ele>
        <time>2016-07-06T09:03:51Z</time>
      </trkpt>
      <trkpt lat="46.032769242301583" lon="7.257311940193176">
        <ele>2058.8000000000002</ele>
        <time>2016-07-06T09:03:52Z</time>
      </trkpt>
      <trkpt lat="46.032686932012439" lon="7.257412942126393">
        <ele>2058.3200000000002</ele>
        <time>2016-07-06T09:04:03Z</time>
      </trkpt>
      <trkpt lat="46.032633706927299" lon="7.257442446425557">
        <ele>2058.3200000000002</ele>
        <time>2016-07-06T09:04:12Z</time>
      </trkpt>
      <trkpt lat="46.032610321417451" lon="7.257488546893001">
        <ele>2058.3200000000002</ele>
        <time>2016-07-06T09:04:22Z</time>
      </trkpt>
      <trkpt lat="46.032568914815784" lon="7.257563145831227">
        <ele>2058.8000000000002</ele>
        <time>2016-07-06T09:04:31Z</time>
      </trkpt>
      <trkpt lat="46.032562293112278" lon="7.257585525512695">
        <ele>2058.3200000000002</ele>
        <time>2016-07-06T09:04:34Z</time>
      </trkpt>
      <trkpt lat="46.032543852925301" lon="7.257634978741407">
        <ele>2057.8400000000001</ele>
        <time>2016-07-06T09:04:38Z</time>
      </trkpt>
      <trkpt lat="46.032517533749342" lon="7.257671356201172">
        <ele>2057.8400000000001</ele>
        <time>2016-07-06T09:04:42Z</time>
      </trkpt>
      <trkpt lat="46.032483670860529" lon="7.257783254608512">
        <ele>2056.8800000000001</ele>
        <time>2016-07-06T09:04:50Z</time>
      </trkpt>
      <trkpt lat="46.032447041943669" lon="7.257893895730376">
        <ele>2055.4400000000001</ele>
        <time>2016-07-06T09:05:00Z</time>
      </trkpt>
      <trkpt lat="46.032413430511951" lon="7.257954329252243">
        <ele>2054.96</ele>
        <time>2016-07-06T09:05:07Z</time>
      </trkpt>
      <trkpt lat="46.032397840172052" lon="7.258014343678951">
        <ele>2054.4699999999998</ele>
        <time>2016-07-06T09:05:13Z</time>
      </trkpt>
      <trkpt lat="46.032381411641836" lon="7.258129427209497">
        <ele>2052.0700000000002</ele>
        <time>2016-07-06T09:05:23Z</time>
      </trkpt>
      <trkpt lat="46.032392308115959" lon="7.258178126066923">
        <ele>2051.1100000000001</ele>
        <time>2016-07-06T09:05:29Z</time>
      </trkpt>
      <trkpt lat="46.032417621463537" lon="7.258219951763749">
        <ele>2050.1500000000001</ele>
        <time>2016-07-06T09:05:35Z</time>
      </trkpt>
      <trkpt lat="46.032421141862869" lon="7.258357750251889">
        <ele>2048.23</ele>
        <time>2016-07-06T09:05:46Z</time>
      </trkpt>
      <trkpt lat="46.032400690019131" lon="7.258421955630183">
        <ele>2047.26</ele>
        <time>2016-07-06T09:05:53Z</time>
      </trkpt>
      <trkpt lat="46.032367330044508" lon="7.258547265082598">
        <ele>2045.8199999999999</ele>
        <time>2016-07-06T09:06:04Z</time>
      </trkpt>
      <trkpt lat="46.032350482419133" lon="7.258601747453213">
        <ele>2044.3800000000001</ele>
        <time>2016-07-06T09:06:08Z</time>
      </trkpt>
      <trkpt lat="46.032334892079234" lon="7.25871104747057">
        <ele>2042.46</ele>
        <time>2016-07-06T09:06:19Z</time>
      </trkpt>
      <trkpt lat="46.032346040010452" lon="7.258815905079246">
        <ele>2040.54</ele>
        <time>2016-07-06T09:06:29Z</time>
      </trkpt>
      <trkpt lat="46.032317876815796" lon="7.258908189833164">
        <ele>2039.0899999999999</ele>
        <time>2016-07-06T09:06:39Z</time>
      </trkpt>
      <trkpt lat="46.032310668379068" lon="7.258987734094262">
        <ele>2036.6900000000001</ele>
        <time>2016-07-06T09:06:47Z</time>
      </trkpt>
      <trkpt lat="46.032221401110291" lon="7.259092591702938">
        <ele>2036.6900000000001</ele>
        <time>2016-07-06T09:06:58Z</time>
      </trkpt>
      <trkpt lat="46.032172115519643" lon="7.259170627221465">
        <ele>2038.1300000000001</ele>
        <time>2016-07-06T09:07:07Z</time>
      </trkpt>
      <trkpt lat="46.032136073336005" lon="7.259255284443498">
        <ele>2039.5699999999999</ele>
        <time>2016-07-06T09:07:18Z</time>
      </trkpt>
      <trkpt lat="46.032095924019814" lon="7.259270371869206">
        <ele>2041.5</ele>
        <time>2016-07-06T09:07:30Z</time>
      </trkpt>
      <trkpt lat="46.032073963433504" lon="7.259279089048505">
        <ele>2043.4200000000001</ele>
        <time>2016-07-06T09:07:40Z</time>
      </trkpt>
      <trkpt lat="46.03201269172132" lon="7.259283866733313">
        <ele>2044.8599999999999</ele>
        <time>2016-07-06T09:07:51Z</time>
      </trkpt>
      <trkpt lat="46.031969273462892" lon="7.259308006614447">
        <ele>2046.78</ele>
        <time>2016-07-06T09:08:03Z</time>
      </trkpt>
      <trkpt lat="46.031970446929336" lon="7.259345054626465">
        <ele>2048.23</ele>
        <time>2016-07-06T09:08:12Z</time>
      </trkpt>
      <trkpt lat="46.031967764720321" lon="7.259384784847498">
        <ele>2050.1500000000001</ele>
        <time>2016-07-06T09:08:22Z</time>
      </trkpt>
      <trkpt lat="46.031938511878252" lon="7.259414456784725">
        <ele>2051.5900000000001</ele>
        <time>2016-07-06T09:08:32Z</time>
      </trkpt>
      <trkpt lat="46.031907582655549" lon="7.259443374350667">
        <ele>2053.5100000000002</ele>
        <time>2016-07-06T09:08:43Z</time>
      </trkpt>
      <trkpt lat="46.03189735673368" lon="7.259533982723951">
        <ele>2055.4400000000001</ele>
        <time>2016-07-06T09:08:54Z</time>
      </trkpt>
      <trkpt lat="46.031902972608805" lon="7.259554266929627">
        <ele>2055.9200000000001</ele>
        <time>2016-07-06T09:08:56Z</time>
      </trkpt>
      <trkpt lat="46.031903810799122" lon="7.259624172002077">
        <ele>2055.4400000000001</ele>
        <time>2016-07-06T09:09:01Z</time>
      </trkpt>
      <trkpt lat="46.031874977052212" lon="7.259793402627111">
        <ele>2053.5100000000002</ele>
        <time>2016-07-06T09:09:13Z</time>
      </trkpt>
      <trkpt lat="46.03184949606657" lon="7.259854255244136">
        <ele>2054.4699999999998</ele>
        <time>2016-07-06T09:09:22Z</time>
      </trkpt>
      <trkpt lat="46.031814711168408" lon="7.259920975193381">
        <ele>2055.4400000000001</ele>
        <time>2016-07-06T09:09:32Z</time>
      </trkpt>
      <trkpt lat="46.031804569065571" lon="7.259983671829104">
        <ele>2055.9200000000001</ele>
        <time>2016-07-06T09:09:37Z</time>
      </trkpt>
      <trkpt lat="46.03176006115973" lon="7.260079644620419">
        <ele>2055.9200000000001</ele>
        <time>2016-07-06T09:09:47Z</time>
      </trkpt>
      <trkpt lat="46.031752685084939" lon="7.260104706510902">
        <ele>2055.4400000000001</ele>
        <time>2016-07-06T09:09:49Z</time>
      </trkpt>
      <trkpt lat="46.031715301796794" lon="7.260225992649794">
        <ele>2054.4699999999998</ele>
        <time>2016-07-06T09:09:59Z</time>
      </trkpt>
      <trkpt lat="46.031659310683608" lon="7.260342249646783">
        <ele>2052.5500000000002</ele>
        <time>2016-07-06T09:10:09Z</time>
      </trkpt>
      <trkpt lat="46.031624190509319" lon="7.2603430878371">
        <ele>2052.0700000000002</ele>
        <time>2016-07-06T09:10:13Z</time>
      </trkpt>
      <trkpt lat="46.031562332063913" lon="7.260361108928919">
        <ele>2051.5900000000001</ele>
        <time>2016-07-06T09:10:20Z</time>
      </trkpt>
      <trkpt lat="46.031503742560744" lon="7.26046864874661">
        <ele>2049.6700000000001</ele>
        <time>2016-07-06T09:10:30Z</time>
      </trkpt>
      <trkpt lat="46.031433502212167" lon="7.260558251291513">
        <ele>2049.1900000000001</ele>
        <time>2016-07-06T09:10:41Z</time>
      </trkpt>
      <trkpt lat="46.031424198299646" lon="7.260610638186336">
        <ele>2050.1500000000001</ele>
        <time>2016-07-06T09:10:45Z</time>
      </trkpt>
      <trkpt lat="46.031382624059916" lon="7.260771151632071">
        <ele>2048.23</ele>
        <time>2016-07-06T09:10:58Z</time>
      </trkpt>
      <trkpt lat="46.031383294612169" lon="7.260876428335905">
        <ele>2046.3</ele>
        <time>2016-07-06T09:11:08Z</time>
      </trkpt>
      <trkpt lat="46.031381282955408" lon="7.261000396683812">
        <ele>2043.9000000000001</ele>
        <time>2016-07-06T09:11:18Z</time>
      </trkpt>
      <trkpt lat="46.031395113095641" lon="7.261129645630717">
        <ele>2041.02</ele>
        <time>2016-07-06T09:11:29Z</time>
      </trkpt>
      <trkpt lat="46.031383713707328" lon="7.261252943426371">
        <ele>2038.6099999999999</ele>
        <time>2016-07-06T09:11:40Z</time>
      </trkpt>
      <trkpt lat="46.031383713707328" lon="7.261371714994311">
        <ele>2036.21</ele>
        <time>2016-07-06T09:11:49Z</time>
      </trkpt>
      <trkpt lat="46.031378684565425" lon="7.261473974213004">
        <ele>2033.8099999999999</ele>
        <time>2016-07-06T09:11:59Z</time>
      </trkpt>
      <trkpt lat="46.031404165551066" lon="7.26155343465507">
        <ele>2031.4000000000001</ele>
        <time>2016-07-06T09:12:08Z</time>
      </trkpt>
      <trkpt lat="46.031403746455908" lon="7.261665668338537">
        <ele>2029.48</ele>
        <time>2016-07-06T09:12:16Z</time>
      </trkpt>
      <trkpt lat="46.031417241320014" lon="7.261803215369582">
        <ele>2028.04</ele>
        <time>2016-07-06T09:12:26Z</time>
      </trkpt>
      <trkpt lat="46.031415816396475" lon="7.261836742982268">
        <ele>2027.5599999999999</ele>
        <time>2016-07-06T09:12:30Z</time>
      </trkpt>
      <trkpt lat="46.031421264633536" lon="7.261952664703131">
        <ele>2025.6400000000001</ele>
        <time>2016-07-06T09:12:41Z</time>
      </trkpt>
      <trkpt lat="46.031440962105989" lon="7.262049810960889">
        <ele>2023.71</ele>
        <time>2016-07-06T09:12:51Z</time>
      </trkpt>
      <trkpt lat="46.031441800296307" lon="7.262077303603292">
        <ele>2023.23</ele>
        <time>2016-07-06T09:12:54Z</time>
      </trkpt>
      <trkpt lat="46.03143953718245" lon="7.262183669954538">
        <ele>2021.3099999999999</ele>
        <time>2016-07-06T09:13:04Z</time>
      </trkpt>
      <trkpt lat="46.031409781426191" lon="7.262298166751862">
        <ele>2019.8699999999999</ele>
        <time>2016-07-06T09:13:13Z</time>
      </trkpt>
      <trkpt lat="46.031406931579113" lon="7.262362372130156">
        <ele>2019.3900000000001</ele>
        <time>2016-07-06T09:13:17Z</time>
      </trkpt>
      <trkpt lat="46.031395029276609" lon="7.262520790100098">
        <ele>2018.9100000000001</ele>
        <time>2016-07-06T09:13:27Z</time>
      </trkpt>
      <trkpt lat="46.031382540240884" lon="7.262662444263697">
        <ele>2018.9100000000001</ele>
        <time>2016-07-06T09:13:36Z</time>
      </trkpt>
      <trkpt lat="46.031355299055576" lon="7.262843158096075">
        <ele>2019.3900000000001</ele>
        <time>2016-07-06T09:13:48Z</time>
      </trkpt>
      <trkpt lat="46.031337529420853" lon="7.262923792004585">
        <ele>2016.5</ele>
        <time>2016-07-06T09:13:55Z</time>
      </trkpt>
      <trkpt lat="46.031285813078284" lon="7.262949356809259">
        <ele>2015.54</ele>
        <time>2016-07-06T09:14:01Z</time>
      </trkpt>
      <trkpt lat="46.031212471425533" lon="7.263041473925114">
        <ele>2012.6600000000001</ele>
        <time>2016-07-06T09:14:13Z</time>
      </trkpt>
      <trkpt lat="46.031198306009173" lon="7.263062596321106">
        <ele>2012.6600000000001</ele>
        <time>2016-07-06T09:14:15Z</time>
      </trkpt>
      <trkpt lat="46.031144578009844" lon="7.263158652931452">
        <ele>2012.1800000000001</ele>
        <time>2016-07-06T09:14:23Z</time>
      </trkpt>
      <trkpt lat="46.031110212206841" lon="7.263279603794217">
        <ele>2010.73</ele>
        <time>2016-07-06T09:14:34Z</time>
      </trkpt>
      <trkpt lat="46.031110212206841" lon="7.263289242982864">
        <ele>2010.73</ele>
        <time>2016-07-06T09:14:35Z</time>
      </trkpt>
      <trkpt lat="46.031049862504005" lon="7.26339552551508">
        <ele>2013.1400000000001</ele>
        <time>2016-07-06T09:14:45Z</time>
      </trkpt>
      <trkpt lat="46.030993536114693" lon="7.26351622492075">
        <ele>2012.1800000000001</ele>
        <time>2016-07-06T09:14:56Z</time>
      </trkpt>
      <trkpt lat="46.030979622155428" lon="7.263624016195536">
        <ele>2013.1400000000001</ele>
        <time>2016-07-06T09:15:04Z</time>
      </trkpt>
      <trkpt lat="46.030976520851254" lon="7.263735327869654">
        <ele>2013.1400000000001</ele>
        <time>2016-07-06T09:15:13Z</time>
      </trkpt>
      <trkpt lat="46.030958080664277" lon="7.263911180198193">
        <ele>2015.54</ele>
        <time>2016-07-06T09:15:26Z</time>
      </trkpt>
      <trkpt lat="46.030921619385481" lon="7.264009416103363">
        <ele>2016.5</ele>
        <time>2016-07-06T09:15:35Z</time>
      </trkpt>
      <trkpt lat="46.030914159491658" lon="7.264019977301359">
        <ele>2016.98</ele>
        <time>2016-07-06T09:15:36Z</time>
      </trkpt>
      <trkpt lat="46.03084928356111" lon="7.264109747484326">
        <ele>2017.46</ele>
        <time>2016-07-06T09:15:45Z</time>
      </trkpt>
      <trkpt lat="46.030803434550762" lon="7.26418225094676">
        <ele>2017.9400000000001</ele>
        <time>2016-07-06T09:15:52Z</time>
      </trkpt>
      <trkpt lat="46.030787425115705" lon="7.264216868206859">
        <ele>2018.4300000000001</ele>
        <time>2016-07-06T09:15:55Z</time>
      </trkpt>
      <trkpt lat="46.030763620510697" lon="7.264264058321714">
        <ele>2018.9100000000001</ele>
        <time>2016-07-06T09:15:59Z</time>
      </trkpt>
      <trkpt lat="46.030744425952435" lon="7.26431074552238">
        <ele>2019.3900000000001</ele>
        <time>2016-07-06T09:16:03Z</time>
      </trkpt>
      <trkpt lat="46.030630934983492" lon="7.26448517292738">
        <ele>2020.3499999999999</ele>
        <time>2016-07-06T09:16:19Z</time>
      </trkpt>
      <trkpt lat="46.03061567991972" lon="7.264531776309013">
        <ele>2021.3099999999999</ele>
        <time>2016-07-06T09:16:23Z</time>
      </trkpt>
      <trkpt lat="46.030566478148103" lon="7.264609141275287">
        <ele>2021.79</ele>
        <time>2016-07-06T09:16:30Z</time>
      </trkpt>
      <trkpt lat="46.030544601380825" lon="7.264733277261257">
        <ele>2022.75</ele>
        <time>2016-07-06T09:16:40Z</time>
      </trkpt>
      <trkpt lat="46.030548373237252" lon="7.264872835949063">
        <ele>2023.71</ele>
        <time>2016-07-06T09:16:50Z</time>
      </trkpt>
      <trkpt lat="46.030559604987502" lon="7.265002252534032">
        <ele>2025.1500000000001</ele>
        <time>2016-07-06T09:17:00Z</time>
      </trkpt>
      <trkpt lat="46.030577374622226" lon="7.265147678554058">
        <ele>2026.1199999999999</ele>
        <time>2016-07-06T09:17:11Z</time>
      </trkpt>
      <trkpt lat="46.030584750697017" lon="7.265272988006473">
        <ele>2027.0799999999999</ele>
        <time>2016-07-06T09:17:20Z</time>
      </trkpt>
      <trkpt lat="46.030575027689338" lon="7.265444314107299">
        <ele>2028.04</ele>
        <time>2016-07-06T09:17:32Z</time>
      </trkpt>
      <trkpt lat="46.030563712120056" lon="7.265547998249531">
        <ele>2028.52</ele>
        <time>2016-07-06T09:17:39Z</time>
      </trkpt>
      <trkpt lat="46.030541332438588" lon="7.265673726797104">
        <ele>2029.48</ele>
        <time>2016-07-06T09:17:49Z</time>
      </trkpt>
      <trkpt lat="46.030510319396853" lon="7.26577858440578">
        <ele>2029.96</ele>
        <time>2016-07-06T09:17:58Z</time>
      </trkpt>
      <trkpt lat="46.030471595004201" lon="7.26592711172998">
        <ele>2031.8800000000001</ele>
        <time>2016-07-06T09:18:10Z</time>
      </trkpt>
      <trkpt lat="46.030437732115388" lon="7.266053259372711">
        <ele>2032.8399999999999</ele>
        <time>2016-07-06T09:18:20Z</time>
      </trkpt>
      <trkpt lat="46.030407724902034" lon="7.266177143901587">
        <ele>2033.8099999999999</ele>
        <time>2016-07-06T09:18:30Z</time>
      </trkpt>
      <trkpt lat="46.030372185632586" lon="7.266304716467857">
        <ele>2034.77</ele>
        <time>2016-07-06T09:18:39Z</time>
      </trkpt>
      <trkpt lat="46.030335305258632" lon="7.266446202993393">
        <ele>2036.21</ele>
        <time>2016-07-06T09:18:50Z</time>
      </trkpt>
      <trkpt lat="46.030308986082673" lon="7.266545780003071">
        <ele>2037.1700000000001</ele>
        <time>2016-07-06T09:18:58Z</time>
      </trkpt>
      <trkpt lat="46.030300939455628" lon="7.266732780262828">
        <ele>2038.1300000000001</ele>
        <time>2016-07-06T09:19:11Z</time>
      </trkpt>
      <trkpt lat="46.03028979152441" lon="7.266894886270165">
        <ele>2039.5699999999999</ele>
        <time>2016-07-06T09:19:23Z</time>
      </trkpt>
      <trkpt lat="46.030260622501373" lon="7.267025643959642">
        <ele>2040.54</ele>
        <time>2016-07-06T09:19:32Z</time>
      </trkpt>
      <trkpt lat="46.03023405186832" lon="7.267178697511554">
        <ele>2041.02</ele>
        <time>2016-07-06T09:19:43Z</time>
      </trkpt>
      <trkpt lat="46.030211756005883" lon="7.267255391925573">
        <ele>2041.98</ele>
        <time>2016-07-06T09:19:49Z</time>
      </trkpt>
      <trkpt lat="46.030201697722077" lon="7.267294451594353">
        <ele>2043.4200000000001</ele>
        <time>2016-07-06T09:19:52Z</time>
      </trkpt>
      <trkpt lat="46.030180742964149" lon="7.267423700541258">
        <ele>2042.9400000000001</ele>
        <time>2016-07-06T09:20:01Z</time>
      </trkpt>
      <trkpt lat="46.030184598639607" lon="7.267503244802356">
        <ele>2043.9000000000001</ele>
        <time>2016-07-06T09:20:07Z</time>
      </trkpt>
      <trkpt lat="46.030190885066986" lon="7.267528055235744">
        <ele>2044.3800000000001</ele>
        <time>2016-07-06T09:20:09Z</time>
      </trkpt>
      <trkpt lat="46.030208319425583" lon="7.267674403265119">
        <ele>2045.3399999999999</ele>
        <time>2016-07-06T09:20:20Z</time>
      </trkpt>
      <trkpt lat="46.030222233384848" lon="7.267809519544244">
        <ele>2045.8199999999999</ele>
        <time>2016-07-06T09:20:29Z</time>
      </trkpt>
      <trkpt lat="46.030218042433262" lon="7.267850758507848">
        <ele>2046.3</ele>
        <time>2016-07-06T09:20:32Z</time>
      </trkpt>
      <trkpt lat="46.030232040211558" lon="7.268013367429376">
        <ele>2047.26</ele>
        <time>2016-07-06T09:20:43Z</time>
      </trkpt>
      <trkpt lat="46.030231537297368" lon="7.268169689923525">
        <ele>2048.23</ele>
        <time>2016-07-06T09:20:54Z</time>
      </trkpt>
      <trkpt lat="46.030199183151126" lon="7.268322156742215">
        <ele>2049.6700000000001</ele>
        <time>2016-07-06T09:21:05Z</time>
      </trkpt>
      <trkpt lat="46.030155010521412" lon="7.268418297171593">
        <ele>2050.1500000000001</ele>
        <time>2016-07-06T09:21:13Z</time>
      </trkpt>
      <trkpt lat="46.030102791264653" lon="7.268520137295127">
        <ele>2051.1100000000001</ele>
        <time>2016-07-06T09:21:22Z</time>
      </trkpt>
      <trkpt lat="46.030064905062318" lon="7.268643854185939">
        <ele>2052.5500000000002</ele>
        <time>2016-07-06T09:21:32Z</time>
      </trkpt>
      <trkpt lat="46.03000589646399" lon="7.268755417317152">
        <ele>2053.0300000000002</ele>
        <time>2016-07-06T09:21:42Z</time>
      </trkpt>
      <trkpt lat="46.029943618923426" lon="7.268873518332839">
        <ele>2055.4400000000001</ele>
        <time>2016-07-06T09:21:53Z</time>
      </trkpt>
      <trkpt lat="46.0299276933074" lon="7.268992876634002">
        <ele>2055.4400000000001</ele>
        <time>2016-07-06T09:22:03Z</time>
      </trkpt>
      <trkpt lat="46.029904391616583" lon="7.269095806404948">
        <ele>2055.9200000000001</ele>
        <time>2016-07-06T09:22:11Z</time>
      </trkpt>
      <trkpt lat="46.029861979186535" lon="7.269232850521803">
        <ele>2056.4000000000001</ele>
        <time>2016-07-06T09:22:21Z</time>
      </trkpt>
      <trkpt lat="46.029846807941794" lon="7.26930845528841">
        <ele>2056.4000000000001</ele>
        <time>2016-07-06T09:22:27Z</time>
      </trkpt>
      <trkpt lat="46.029827361926436" lon="7.269463939592242">
        <ele>2057.3600000000001</ele>
        <time>2016-07-06T09:22:38Z</time>
      </trkpt>
      <trkpt lat="46.029810095205903" lon="7.269643312320113">
        <ele>2058.3200000000002</ele>
        <time>2016-07-06T09:22:50Z</time>
      </trkpt>
      <trkpt lat="46.029797019436955" lon="7.269817907363176">
        <ele>2059.2800000000002</ele>
        <time>2016-07-06T09:23:02Z</time>
      </trkpt>
      <trkpt lat="46.029795343056321" lon="7.269830983132124">
        <ele>2059.7600000000002</ele>
        <time>2016-07-06T09:23:03Z</time>
      </trkpt>
      <trkpt lat="46.02978109382093" lon="7.269929051399231">
        <ele>2060.2399999999998</ele>
        <time>2016-07-06T09:23:10Z</time>
      </trkpt>
      <trkpt lat="46.029692078009248" lon="7.270043883472681">
        <ele>2061.1999999999998</ele>
        <time>2016-07-06T09:23:21Z</time>
      </trkpt>
      <trkpt lat="46.029655868187547" lon="7.270078249275684">
        <ele>2061.6799999999998</ele>
        <time>2016-07-06T09:23:25Z</time>
      </trkpt>
      <trkpt lat="46.02959836833179" lon="7.270176568999887">
        <ele>2062.6500000000001</ele>
        <time>2016-07-06T09:23:34Z</time>
      </trkpt>
      <trkpt lat="46.029590321704745" lon="7.270235745236278">
        <ele>2062.6500000000001</ele>
        <time>2016-07-06T09:23:38Z</time>
      </trkpt>
      <trkpt lat="46.029585544019938" lon="7.27039223536849">
        <ele>2064.0900000000001</ele>
        <time>2016-07-06T09:23:49Z</time>
      </trkpt>
      <trkpt lat="46.029607923701406" lon="7.27061259560287">
        <ele>2065.0500000000002</ele>
        <time>2016-07-06T09:24:04Z</time>
      </trkpt>
      <trkpt lat="46.029609851539135" lon="7.270626844838262">
        <ele>2065.5300000000002</ele>
        <time>2016-07-06T09:24:05Z</time>
      </trkpt>
      <trkpt lat="46.029627034440637" lon="7.270691972225905">
        <ele>2066.0100000000002</ele>
        <time>2016-07-06T09:24:10Z</time>
      </trkpt>
      <trkpt lat="46.029650000855327" lon="7.270782245323062">
        <ele>2066.4899999999998</ele>
        <time>2016-07-06T09:24:17Z</time>
      </trkpt>
      <trkpt lat="46.029695766046643" lon="7.270975532010198">
        <ele>2067.9299999999998</ele>
        <time>2016-07-06T09:24:31Z</time>
      </trkpt>
      <trkpt lat="46.029710937291384" lon="7.271138727664948">
        <ele>2069.3800000000001</ele>
        <time>2016-07-06T09:24:42Z</time>
      </trkpt>
      <trkpt lat="46.029736921191216" lon="7.271244926378131">
        <ele>2069.8600000000001</ele>
        <time>2016-07-06T09:24:50Z</time>
      </trkpt>
      <trkpt lat="46.029756283387542" lon="7.271277196705341">
        <ele>2070.3400000000001</ele>
        <time>2016-07-06T09:24:53Z</time>
      </trkpt>
      <trkpt lat="46.0298275295645" lon="7.271402338519692">
        <ele>2071.3000000000002</ele>
        <time>2016-07-06T09:25:04Z</time>
      </trkpt>
      <trkpt lat="46.029844461008906" lon="7.271439051255584">
        <ele>2071.7800000000002</ele>
        <time>2016-07-06T09:25:07Z</time>
      </trkpt>
      <trkpt lat="46.029858710244298" lon="7.271461598575115">
        <ele>2072.2600000000002</ele>
        <time>2016-07-06T09:25:09Z</time>
      </trkpt>
      <trkpt lat="46.029871953651309" lon="7.271518176421523">
        <ele>2072.7399999999998</ele>
        <time>2016-07-06T09:25:13Z</time>
      </trkpt>
      <trkpt lat="46.029864409938455" lon="7.271551871672273">
        <ele>2072.7399999999998</ele>
        <time>2016-07-06T09:25:15Z</time>
      </trkpt>
      <trkpt lat="46.029824009165168" lon="7.271688496693969">
        <ele>2073.6999999999998</ele>
        <time>2016-07-06T09:25:25Z</time>
      </trkpt>
      <trkpt lat="46.029820656403899" lon="7.271699896082282">
        <ele>2073.6999999999998</ele>
        <time>2016-07-06T09:25:26Z</time>
      </trkpt>
      <trkpt lat="46.02980992756784" lon="7.271796120330691">
        <ele>2074.1799999999998</ele>
        <time>2016-07-06T09:25:33Z</time>
      </trkpt>
      <trkpt lat="46.029820488765836" lon="7.271905923262239">
        <ele>2074.6599999999999</ele>
        <time>2016-07-06T09:25:41Z</time>
      </trkpt>
      <trkpt lat="46.029840102419257" lon="7.272000219672918">
        <ele>2075.6199999999999</ele>
        <time>2016-07-06T09:25:48Z</time>
      </trkpt>
      <trkpt lat="46.029844963923097" lon="7.272041290998459">
        <ele>2075.6199999999999</ele>
        <time>2016-07-06T09:25:51Z</time>
      </trkpt>
      <trkpt lat="46.029848484322429" lon="7.272055959329009">
        <ele>2076.0999999999999</ele>
        <time>2016-07-06T09:25:52Z</time>
      </trkpt>
      <trkpt lat="46.029874132946134" lon="7.27218110114336">
        <ele>2076.5900000000001</ele>
        <time>2016-07-06T09:26:02Z</time>
      </trkpt>
      <trkpt lat="46.029914617538452" lon="7.272279504686594">
        <ele>2077.5500000000002</ele>
        <time>2016-07-06T09:26:11Z</time>
      </trkpt>
      <trkpt lat="46.029948648065329" lon="7.272366844117641">
        <ele>2078.5100000000002</ele>
        <time>2016-07-06T09:26:19Z</time>
      </trkpt>
      <trkpt lat="46.030009919777513" lon="7.272505480796099">
        <ele>2079.4699999999998</ele>
        <time>2016-07-06T09:26:31Z</time>
      </trkpt>
      <trkpt lat="46.030034646391869" lon="7.272555939853191">
        <ele>2079.9499999999998</ele>
        <time>2016-07-06T09:26:35Z</time>
      </trkpt>
      <trkpt lat="46.030095499008894" lon="7.272674543783069">
        <ele>2081.3899999999999</ele>
        <time>2016-07-06T09:26:45Z</time>
      </trkpt>
      <trkpt lat="46.030151573941112" lon="7.272804128006101">
        <ele>2082.3499999999999</ele>
        <time>2016-07-06T09:26:55Z</time>
      </trkpt>
      <trkpt lat="46.030191220343113" lon="7.272881828248501">
        <ele>2082.8299999999999</ele>
        <time>2016-07-06T09:27:04Z</time>
      </trkpt>
      <trkpt lat="46.030224496498704" lon="7.272984171286225">
        <ele>2085.2399999999998</ele>
        <time>2016-07-06T09:27:16Z</time>
      </trkpt>
      <trkpt lat="46.030227346345782" lon="7.273102691397071">
        <ele>2086.6799999999998</ele>
        <time>2016-07-06T09:27:26Z</time>
      </trkpt>
      <trkpt lat="46.030247965827584" lon="7.273187348619103">
        <ele>2088.1199999999999</ele>
        <time>2016-07-06T09:27:36Z</time>
      </trkpt>
      <trkpt lat="46.030271854251623" lon="7.273251889273524">
        <ele>2089.0799999999999</ele>
        <time>2016-07-06T09:27:45Z</time>
      </trkpt>
      <trkpt lat="46.0303127579391" lon="7.273266054689884">
        <ele>2090.52</ele>
        <time>2016-07-06T09:27:52Z</time>
      </trkpt>
      <trkpt lat="46.03038752451539" lon="7.273295056074858">
        <ele>2091.4899999999998</ele>
        <time>2016-07-06T09:28:02Z</time>
      </trkpt>
      <trkpt lat="46.030395906418562" lon="7.273384239524603">
        <ele>2093.4099999999999</ele>
        <time>2016-07-06T09:28:12Z</time>
      </trkpt>
      <trkpt lat="46.030407473444939" lon="7.273466130718589">
        <ele>2094.8499999999999</ele>
        <time>2016-07-06T09:28:22Z</time>
      </trkpt>
      <trkpt lat="46.030428679659963" lon="7.273455569520593">
        <ele>2095.8099999999999</ele>
        <time>2016-07-06T09:28:27Z</time>
      </trkpt>
      <trkpt lat="46.030455753207207" lon="7.273465795442462">
        <ele>2096.29</ele>
        <time>2016-07-06T09:28:31Z</time>
      </trkpt>
      <trkpt lat="46.030471343547106" lon="7.273501921445131">
        <ele>2097.25</ele>
        <time>2016-07-06T09:28:34Z</time>
      </trkpt>
      <trkpt lat="46.030444269999862" lon="7.27364550344646">
        <ele>2099.6599999999999</ele>
        <time>2016-07-06T09:28:48Z</time>
      </trkpt>
      <trkpt lat="46.030368329957128" lon="7.273641312494874">
        <ele>2100.6199999999999</ele>
        <time>2016-07-06T09:29:00Z</time>
      </trkpt>
      <trkpt lat="46.030299682170153" lon="7.273642485961318">
        <ele>2102.54</ele>
        <time>2016-07-06T09:29:11Z</time>
      </trkpt>
      <trkpt lat="46.030256347730756" lon="7.273737201467156">
        <ele>2104.46</ele>
        <time>2016-07-06T09:29:24Z</time>
      </trkpt>
      <trkpt lat="46.030218964442611" lon="7.273848010227084">
        <ele>2106.3899999999999</ele>
        <time>2016-07-06T09:29:38Z</time>
      </trkpt>
      <trkpt lat="46.030202955007553" lon="7.273899391293526">
        <ele>2105.9099999999999</ele>
        <time>2016-07-06T09:29:48Z</time>
      </trkpt>
      <trkpt lat="46.030202871188521" lon="7.274031406268477">
        <ele>2106.8699999999999</ele>
        <time>2016-07-06T09:29:59Z</time>
      </trkpt>
      <trkpt lat="46.030226005241275" lon="7.274102987721562">
        <ele>2107.3499999999999</ele>
        <time>2016-07-06T09:30:09Z</time>
      </trkpt>
      <trkpt lat="46.03026975877583" lon="7.274236846715212">
        <ele>2108.79</ele>
        <time>2016-07-06T09:30:24Z</time>
      </trkpt>
      <trkpt lat="46.030277470126748" lon="7.274285545572639">
        <ele>2109.27</ele>
        <time>2016-07-06T09:30:37Z</time>
      </trkpt>
      <trkpt lat="46.030258610844612" lon="7.274314379319549">
        <ele>2109.27</ele>
        <time>2016-07-06T09:30:44Z</time>
      </trkpt>
      <trkpt lat="46.030220221728086" lon="7.274306332692504">
        <ele>2108.3099999999999</ele>
        <time>2016-07-06T09:30:55Z</time>
      </trkpt>
      <trkpt lat="46.030254671350121" lon="7.274272805079818">
        <ele>2109.27</ele>
        <time>2016-07-06T09:31:07Z</time>
      </trkpt>
      <trkpt lat="46.030265484005213" lon="7.274270206689835">
        <ele>2108.3099999999999</ele>
        <time>2016-07-06T09:31:21Z</time>
      </trkpt>
      <trkpt lat="46.030274285003543" lon="7.274269200861454">
        <ele>2108.79</ele>
        <time>2016-07-06T09:31:36Z</time>
      </trkpt>
      <trkpt lat="46.030264226719737" lon="7.27425872348249">
        <ele>2109.75</ele>
        <time>2016-07-06T09:31:51Z</time>
      </trkpt>
      <trkpt lat="46.030243607237935" lon="7.274259561672807">
        <ele>2109.27</ele>
        <time>2016-07-06T09:32:07Z</time>
      </trkpt>
      <trkpt lat="46.030256934463978" lon="7.274258807301521">
        <ele>2109.27</ele>
        <time>2016-07-06T09:32:26Z</time>
      </trkpt>
      <trkpt lat="46.030275709927082" lon="7.274231482297182">
        <ele>2109.27</ele>
        <time>2016-07-06T09:32:38Z</time>
      </trkpt>
      <trkpt lat="46.030318792909384" lon="7.274197535589337">
        <ele>2109.27</ele>
        <time>2016-07-06T09:32:46Z</time>
      </trkpt>
      <trkpt lat="46.030345028266311" lon="7.274158727377653">
        <ele>2110.23</ele>
        <time>2016-07-06T09:32:57Z</time>
      </trkpt>
      <trkpt lat="46.030343687161803" lon="7.274148669093847">
        <ele>2109.75</ele>
        <time>2016-07-06T09:33:07Z</time>
      </trkpt>
      <trkpt lat="46.030358439311385" lon="7.274145232513547">
        <ele>2109.75</ele>
        <time>2016-07-06T09:33:20Z</time>
      </trkpt>
      <trkpt lat="46.030328935012221" lon="7.27415956556797">
        <ele>2109.75</ele>
        <time>2016-07-06T09:33:25Z</time>
      </trkpt>
      <trkpt lat="46.030293060466647" lon="7.274131402373314">
        <ele>2110.23</ele>
        <time>2016-07-06T09:33:29Z</time>
      </trkpt>
      <trkpt lat="46.03032005019486" lon="7.274075662717223">
        <ele>2109.27</ele>
        <time>2016-07-06T09:33:40Z</time>
      </trkpt>
      <trkpt lat="46.030314937233925" lon="7.274093264713883">
        <ele>2108.79</ele>
        <time>2016-07-06T09:33:54Z</time>
      </trkpt>
      <trkpt lat="46.030316026881337" lon="7.274094689637423">
        <ele>2109.27</ele>
        <time>2016-07-06T09:34:17Z</time>
      </trkpt>
      <trkpt lat="46.030314099043608" lon="7.27409946732223">
        <ele>2109.27</ele>
        <time>2016-07-06T09:34:42Z</time>
      </trkpt>
      <trkpt lat="46.030321223661304" lon="7.274097036570311">
        <ele>2109.27</ele>
        <time>2016-07-06T09:35:08Z</time>
      </trkpt>
      <trkpt lat="46.030326839536428" lon="7.274100724607706">
        <ele>2109.27</ele>
        <time>2016-07-06T09:35:31Z</time>
      </trkpt>
      <trkpt lat="46.030326839536428" lon="7.274094186723232">
        <ele>2109.27</ele>
        <time>2016-07-06T09:35:55Z</time>
      </trkpt>
      <trkpt lat="46.030338406562805" lon="7.274098042398691">
        <ele>2109.27</ele>
        <time>2016-07-06T09:36:22Z</time>
      </trkpt>
      <trkpt lat="46.030330192297697" lon="7.274093348532915">
        <ele>2109.27</ele>
        <time>2016-07-06T09:36:45Z</time>
      </trkpt>
      <trkpt lat="46.030331868678331" lon="7.274093767628074">
        <ele>2109.27</ele>
        <time>2016-07-06T09:37:07Z</time>
      </trkpt>
      <trkpt lat="46.03032055310905" lon="7.274084966629744">
        <ele>2108.79</ele>
        <time>2016-07-06T09:37:36Z</time>
      </trkpt>
      <trkpt lat="46.030313596129417" lon="7.274085888639092">
        <ele>2109.27</ele>
        <time>2016-07-06T09:38:00Z</time>
      </trkpt>
      <trkpt lat="46.030311584472656" lon="7.274068873375654">
        <ele>2108.79</ele>
        <time>2016-07-06T09:38:18Z</time>
      </trkpt>
      <trkpt lat="46.030313344672322" lon="7.274088738486171">
        <ele>2109.27</ele>
        <time>2016-07-06T09:38:45Z</time>
      </trkpt>
      <trkpt lat="46.030341926962137" lon="7.274093516170979">
        <ele>2109.27</ele>
        <time>2016-07-06T09:39:03Z</time>
      </trkpt>
      <trkpt lat="46.030348297208548" lon="7.274089241400361">
        <ele>2108.79</ele>
        <time>2016-07-06T09:39:37Z</time>
      </trkpt>
      <trkpt lat="46.030338909476995" lon="7.274082535877824">
        <ele>2108.79</ele>
        <time>2016-07-06T09:40:09Z</time>
      </trkpt>
      <trkpt lat="46.030310411006212" lon="7.274075662717223">
        <ele>2108.79</ele>
        <time>2016-07-06T09:40:44Z</time>
      </trkpt>
      <trkpt lat="46.030324157327414" lon="7.274080188944936">
        <ele>2109.27</ele>
        <time>2016-07-06T09:41:13Z</time>
      </trkpt>
      <trkpt lat="46.030318709090352" lon="7.274083038792014">
        <ele>2108.79</ele>
        <time>2016-07-06T09:41:37Z</time>
      </trkpt>
      <trkpt lat="46.030321810394526" lon="7.274087984114885">
        <ele>2108.79</ele>
        <time>2016-07-06T09:42:07Z</time>
      </trkpt>
      <trkpt lat="46.03030881844461" lon="7.274085637181997">
        <ele>2108.79</ele>
        <time>2016-07-06T09:42:37Z</time>
      </trkpt>
      <trkpt lat="46.03032692335546" lon="7.274086978286505">
        <ele>2108.79</ele>
        <time>2016-07-06T09:43:07Z</time>
      </trkpt>
      <trkpt lat="46.030331198126078" lon="7.27409795857966">
        <ele>2108.3099999999999</ele>
        <time>2016-07-06T09:43:34Z</time>
      </trkpt>
      <trkpt lat="46.030337316915393" lon="7.274100221693516">
        <ele>2108.3099999999999</ele>
        <time>2016-07-06T09:44:01Z</time>
      </trkpt>
      <trkpt lat="46.030333545058966" lon="7.274104245007038">
        <ele>2108.3099999999999</ele>
        <time>2016-07-06T09:44:29Z</time>
      </trkpt>
      <trkpt lat="46.0303317848593" lon="7.274084631353617">
        <ele>2108.79</ele>
        <time>2016-07-06T09:45:00Z</time>
      </trkpt>
      <trkpt lat="46.030335891991854" lon="7.27409653365612">
        <ele>2108.3099999999999</ele>
        <time>2016-07-06T09:45:26Z</time>
      </trkpt>
      <trkpt lat="46.030329689383507" lon="7.274085134267807">
        <ele>2108.3099999999999</ele>
        <time>2016-07-06T09:45:52Z</time>
      </trkpt>
      <trkpt lat="46.030321223661304" lon="7.274080440402031">
        <ele>2108.3099999999999</ele>
        <time>2016-07-06T09:46:18Z</time>
      </trkpt>
      <trkpt lat="46.03031518869102" lon="7.274080943316221">
        <ele>2108.3099999999999</ele>
        <time>2016-07-06T09:46:43Z</time>
      </trkpt>
      <trkpt lat="46.030326252803206" lon="7.274086140096188">
        <ele>2108.3099999999999</ele>
        <time>2016-07-06T09:47:14Z</time>
      </trkpt>
      <trkpt lat="46.030326252803206" lon="7.274086894467473">
        <ele>2108.3099999999999</ele>
        <time>2016-07-06T09:47:50Z</time>
      </trkpt>
      <trkpt lat="46.030332706868649" lon="7.274090247228742">
        <ele>2107.8299999999999</ele>
        <time>2016-07-06T09:48:18Z</time>
      </trkpt>
      <trkpt lat="46.030339999124408" lon="7.274091672152281">
        <ele>2108.3099999999999</ele>
        <time>2016-07-06T09:48:51Z</time>
      </trkpt>
      <trkpt lat="46.030327007174492" lon="7.274091672152281">
        <ele>2108.3099999999999</ele>
        <time>2016-07-06T09:49:23Z</time>
      </trkpt>
      <trkpt lat="46.030330443754792" lon="7.274102987721562">
        <ele>2108.3099999999999</ele>
        <time>2016-07-06T09:49:51Z</time>
      </trkpt>
      <trkpt lat="46.030307477340102" lon="7.274105418473482">
        <ele>2108.79</ele>
        <time>2016-07-06T09:49:59Z</time>
      </trkpt>
      <trkpt lat="46.030302532017231" lon="7.274116817861795">
        <ele>2108.3099999999999</ele>
        <time>2016-07-06T09:50:14Z</time>
      </trkpt>
      <trkpt lat="46.030296329408884" lon="7.274142969399691">
        <ele>2108.3099999999999</ele>
        <time>2016-07-06T09:50:41Z</time>
      </trkpt>
      <trkpt lat="46.030280152335763" lon="7.2741614934057">
        <ele>2108.3099999999999</ele>
        <time>2016-07-06T09:51:07Z</time>
      </trkpt>
      <trkpt lat="46.030269004404545" lon="7.274153111502528">
        <ele>2108.79</ele>
        <time>2016-07-06T09:51:26Z</time>
      </trkpt>
      <trkpt lat="46.030267328023911" lon="7.27415612898767">
        <ele>2108.79</ele>
        <time>2016-07-06T09:51:55Z</time>
      </trkpt>
      <trkpt lat="46.030272105708718" lon="7.274147914722562">
        <ele>2109.27</ele>
        <time>2016-07-06T09:52:06Z</time>
      </trkpt>
      <trkpt lat="46.030274787917733" lon="7.274112459272146">
        <ele>2109.27</ele>
        <time>2016-07-06T09:52:18Z</time>
      </trkpt>
      <trkpt lat="46.030299179255962" lon="7.274089828133583">
        <ele>2109.27</ele>
        <time>2016-07-06T09:52:39Z</time>
      </trkpt>
      <trkpt lat="46.030296161770821" lon="7.274112878367305">
        <ele>2109.75</ele>
        <time>2016-07-06T09:52:58Z</time>
      </trkpt>
      <trkpt lat="46.030283756554127" lon="7.274141376838088">
        <ele>2109.75</ele>
        <time>2016-07-06T09:53:30Z</time>
      </trkpt>
      <trkpt lat="46.030293647199869" lon="7.274110112339258">
        <ele>2109.75</ele>
        <time>2016-07-06T09:54:02Z</time>
      </trkpt>
      <trkpt lat="46.030307896435261" lon="7.274110028520227">
        <ele>2110.23</ele>
        <time>2016-07-06T09:54:16Z</time>
      </trkpt>
      <trkpt lat="46.03030739352107" lon="7.274095444008708">
        <ele>2110.23</ele>
        <time>2016-07-06T09:54:31Z</time>
      </trkpt>
      <trkpt lat="46.030315440148115" lon="7.27411606349051">
        <ele>2109.75</ele>
        <time>2016-07-06T09:54:56Z</time>
      </trkpt>
      <trkpt lat="46.030302448198199" lon="7.274103239178658">
        <ele>2110.23</ele>
        <time>2016-07-06T09:55:31Z</time>
      </trkpt>
      <trkpt lat="46.030309740453959" lon="7.274100724607706">
        <ele>2110.23</ele>
        <time>2016-07-06T09:56:02Z</time>
      </trkpt>
      <trkpt lat="46.030316194519401" lon="7.274110028520227">
        <ele>2110.23</ele>
        <time>2016-07-06T09:56:35Z</time>
      </trkpt>
      <trkpt lat="46.030303537845612" lon="7.274109944701195">
        <ele>2110.23</ele>
        <time>2016-07-06T09:57:07Z</time>
      </trkpt>
      <trkpt lat="46.030303202569485" lon="7.274094605818391">
        <ele>2110.23</ele>
        <time>2016-07-06T09:57:44Z</time>
      </trkpt>
      <trkpt lat="46.03030052036047" lon="7.274107681587338">
        <ele>2110.23</ele>
        <time>2016-07-06T09:58:22Z</time>
      </trkpt>
      <trkpt lat="46.030288953334093" lon="7.274102820083499">
        <ele>2110.23</ele>
        <time>2016-07-06T09:59:00Z</time>
      </trkpt>
      <trkpt lat="46.030301777645946" lon="7.274121008813381">
        <ele>2110.23</ele>
        <time>2016-07-06T09:59:36Z</time>
      </trkpt>
      <trkpt lat="46.030310243368149" lon="7.274129055440426">
        <ele>2110.23</ele>
        <time>2016-07-06T10:00:02Z</time>
      </trkpt>
      <trkpt lat="46.030292809009552" lon="7.274123774841428">
        <ele>2110.23</ele>
        <time>2016-07-06T10:00:36Z</time>
      </trkpt>
      <trkpt lat="46.030305800959468" lon="7.274127211421728">
        <ele>2110.71</ele>
        <time>2016-07-06T10:01:12Z</time>
      </trkpt>
      <trkpt lat="46.030296077951789" lon="7.274138191714883">
        <ele>2110.71</ele>
        <time>2016-07-06T10:01:48Z</time>
      </trkpt>
      <trkpt lat="46.030291803181171" lon="7.274146657437086">
        <ele>2110.71</ele>
        <time>2016-07-06T10:02:22Z</time>
      </trkpt>
      <trkpt lat="46.030288450419903" lon="7.27413366548717">
        <ele>2110.71</ele>
        <time>2016-07-06T10:02:52Z</time>
      </trkpt>
      <trkpt lat="46.030309991911054" lon="7.274117823690176">
        <ele>2110.71</ele>
        <time>2016-07-06T10:03:30Z</time>
      </trkpt>
      <trkpt lat="46.030317870900035" lon="7.274116985499859">
        <ele>2111.1900000000001</ele>
        <time>2016-07-06T10:04:03Z</time>
      </trkpt>
      <trkpt lat="46.030304376035929" lon="7.274122266098857">
        <ele>2110.71</ele>
        <time>2016-07-06T10:04:40Z</time>
      </trkpt>
      <trkpt lat="46.030287863686681" lon="7.274125786498189">
        <ele>2111.1900000000001</ele>
        <time>2016-07-06T10:05:11Z</time>
      </trkpt>
      <trkpt lat="46.030288534238935" lon="7.274125115945935">
        <ele>2111.1900000000001</ele>
        <time>2016-07-06T10:05:42Z</time>
      </trkpt>
      <trkpt lat="46.030299933627248" lon="7.274119080975652">
        <ele>2111.1900000000001</ele>
        <time>2016-07-06T10:06:12Z</time>
      </trkpt>
      <trkpt lat="46.030293731018901" lon="7.274121176451445">
        <ele>2111.1900000000001</ele>
        <time>2016-07-06T10:06:49Z</time>
      </trkpt>
      <trkpt lat="46.030297419056296" lon="7.274128552526236">
        <ele>2111.1900000000001</ele>
        <time>2016-07-06T10:07:29Z</time>
      </trkpt>
      <trkpt lat="46.030280739068985" lon="7.274131402373314">
        <ele>2111.1900000000001</ele>
        <time>2016-07-06T10:08:05Z</time>
      </trkpt>
      <trkpt lat="46.030288534238935" lon="7.274115476757288">
        <ele>2111.1900000000001</ele>
        <time>2016-07-06T10:08:33Z</time>
      </trkpt>
      <trkpt lat="46.030282834544778" lon="7.27411363273859">
        <ele>2111.1900000000001</ele>
        <time>2016-07-06T10:09:11Z</time>
      </trkpt>
      <trkpt lat="46.03028635494411" lon="7.27411899715662">
        <ele>2111.6700000000001</ele>
        <time>2016-07-06T10:09:45Z</time>
      </trkpt>
      <trkpt lat="46.030269088223577" lon="7.27412679232657">
        <ele>2111.6700000000001</ele>
        <time>2016-07-06T10:10:19Z</time>
      </trkpt>
      <trkpt lat="46.030273195356131" lon="7.274117572233081">
        <ele>2111.6700000000001</ele>
        <time>2016-07-06T10:10:52Z</time>
      </trkpt>
      <trkpt lat="46.030298676341772" lon="7.274128468707204">
        <ele>2111.6700000000001</ele>
        <time>2016-07-06T10:11:24Z</time>
      </trkpt>
      <trkpt lat="46.030307142063975" lon="7.274130145087838">
        <ele>2111.6700000000001</ele>
        <time>2016-07-06T10:11:51Z</time>
      </trkpt>
      <trkpt lat="46.03030689060688" lon="7.274127462878823">
        <ele>2112.1500000000001</ele>
        <time>2016-07-06T10:12:10Z</time>
      </trkpt>
      <trkpt lat="46.030308650806546" lon="7.274120086804032">
        <ele>2112.1500000000001</ele>
        <time>2016-07-06T10:12:30Z</time>
      </trkpt>
      <trkpt lat="46.030317116528749" lon="7.274118410423398">
        <ele>2111.6700000000001</ele>
        <time>2016-07-06T10:12:54Z</time>
      </trkpt>
      <trkpt lat="46.030316445976496" lon="7.274124026298523">
        <ele>2111.6700000000001</ele>
        <time>2016-07-06T10:13:23Z</time>
      </trkpt>
      <trkpt lat="46.030314937233925" lon="7.274125954136252">
        <ele>2112.1500000000001</ele>
        <time>2016-07-06T10:13:46Z</time>
      </trkpt>
      <trkpt lat="46.030310327187181" lon="7.274130648002029">
        <ele>2112.1500000000001</ele>
        <time>2016-07-06T10:14:02Z</time>
      </trkpt>
      <trkpt lat="46.030309656634927" lon="7.274130899459124">
        <ele>2112.1500000000001</ele>
        <time>2016-07-06T10:14:28Z</time>
      </trkpt>
      <trkpt lat="46.030314350500703" lon="7.274126624688506">
        <ele>2112.1500000000001</ele>
        <time>2016-07-06T10:14:55Z</time>
      </trkpt>
      <trkpt lat="46.030313763767481" lon="7.274139868095517">
        <ele>2112.1500000000001</ele>
        <time>2016-07-06T10:15:26Z</time>
      </trkpt>
      <trkpt lat="46.03032449260354" lon="7.274134922772646">
        <ele>2112.1500000000001</ele>
        <time>2016-07-06T10:15:42Z</time>
      </trkpt>
      <trkpt lat="46.030329773202538" lon="7.274123523384333">
        <ele>2112.1500000000001</ele>
        <time>2016-07-06T10:16:00Z</time>
      </trkpt>
      <trkpt lat="46.030329521745443" lon="7.274121763184667">
        <ele>2112.6300000000001</ele>
        <time>2016-07-06T10:16:29Z</time>
      </trkpt>
      <trkpt lat="46.030317703261971" lon="7.274126708507538">
        <ele>2112.6300000000001</ele>
        <time>2016-07-06T10:16:48Z</time>
      </trkpt>
      <trkpt lat="46.030321978032589" lon="7.27412972599268">
        <ele>2112.6300000000001</ele>
        <time>2016-07-06T10:17:05Z</time>
      </trkpt>
      <trkpt lat="46.030320972204208" lon="7.274121847003698">
        <ele>2112.6300000000001</ele>
        <time>2016-07-06T10:17:31Z</time>
      </trkpt>
      <trkpt lat="46.030313596129417" lon="7.274120757356286">
        <ele>2112.6300000000001</ele>
        <time>2016-07-06T10:17:59Z</time>
      </trkpt>
      <trkpt lat="46.030317703261971" lon="7.274082871153951">
        <ele>2113.1199999999999</ele>
        <time>2016-07-06T10:18:07Z</time>
      </trkpt>
      <trkpt lat="46.030320972204208" lon="7.274066023528576">
        <ele>2113.1199999999999</ele>
        <time>2016-07-06T10:18:28Z</time>
      </trkpt>
      <trkpt lat="46.030320888385177" lon="7.274061664938927">
        <ele>2113.1199999999999</ele>
        <time>2016-07-06T10:18:45Z</time>
      </trkpt>
      <trkpt lat="46.03032105602324" lon="7.274082116782665">
        <ele>2113.1199999999999</ele>
        <time>2016-07-06T10:19:05Z</time>
      </trkpt>
      <trkpt lat="46.030304376035929" lon="7.274084631353617">
        <ele>2113.1199999999999</ele>
        <time>2016-07-06T10:19:30Z</time>
      </trkpt>
      <trkpt lat="46.030306974425912" lon="7.274076836183667">
        <ele>2112.6300000000001</ele>
        <time>2016-07-06T10:19:57Z</time>
      </trkpt>
      <trkpt lat="46.030307142063975" lon="7.274075327441096">
        <ele>2113.5999999999999</ele>
        <time>2016-07-06T10:20:28Z</time>
      </trkpt>
      <trkpt lat="46.030313931405544" lon="7.274079015478492">
        <ele>2112.6300000000001</ele>
        <time>2016-07-06T10:20:54Z</time>
      </trkpt>
      <trkpt lat="46.030328599736094" lon="7.274072980508208">
        <ele>2112.6300000000001</ele>
        <time>2016-07-06T10:21:21Z</time>
      </trkpt>
      <trkpt lat="46.030353661626577" lon="7.27406426332891">
        <ele>2112.6300000000001</ele>
        <time>2016-07-06T10:21:47Z</time>
      </trkpt>
      <trkpt lat="46.030344692990184" lon="7.274070465937257">
        <ele>2112.6300000000001</ele>
        <time>2016-07-06T10:22:09Z</time>
      </trkpt>
      <trkpt lat="46.030337316915393" lon="7.274072393774986">
        <ele>2112.6300000000001</ele>
        <time>2016-07-06T10:22:28Z</time>
      </trkpt>
      <trkpt lat="46.030336730182171" lon="7.274082954972982">
        <ele>2112.6300000000001</ele>
        <time>2016-07-06T10:22:48Z</time>
      </trkpt>
      <trkpt lat="46.030323570594192" lon="7.274082535877824">
        <ele>2112.6300000000001</ele>
        <time>2016-07-06T10:23:14Z</time>
      </trkpt>
      <trkpt lat="46.030310075730085" lon="7.27408773265779">
        <ele>2112.6300000000001</ele>
        <time>2016-07-06T10:23:34Z</time>
      </trkpt>
      <trkpt lat="46.030312590301037" lon="7.27407356724143">
        <ele>2112.6300000000001</ele>
        <time>2016-07-06T10:23:48Z</time>
      </trkpt>
      <trkpt lat="46.030331281945109" lon="7.274067029356957">
        <ele>2112.6300000000001</ele>
        <time>2016-07-06T10:24:10Z</time>
      </trkpt>
      <trkpt lat="46.030341256409883" lon="7.274066861718893">
        <ele>2113.5999999999999</ele>
        <time>2016-07-06T10:24:30Z</time>
      </trkpt>
      <trkpt lat="46.030350811779499" lon="7.274065352976322">
        <ele>2112.6300000000001</ele>
        <time>2016-07-06T10:24:45Z</time>
      </trkpt>
      <trkpt lat="46.030343351885676" lon="7.274063928052783">
        <ele>2112.6300000000001</ele>
        <time>2016-07-06T10:25:02Z</time>
      </trkpt>
      <trkpt lat="46.030343184247613" lon="7.2740647662431">
        <ele>2112.6300000000001</ele>
        <time>2016-07-06T10:25:17Z</time>
      </trkpt>
      <trkpt lat="46.030321475118399" lon="7.274075662717223">
        <ele>2112.6300000000001</ele>
        <time>2016-07-06T10:25:35Z</time>
      </trkpt>
      <trkpt lat="46.030334299430251" lon="7.274069292470813">
        <ele>2112.6300000000001</ele>
        <time>2016-07-06T10:25:56Z</time>
      </trkpt>
      <trkpt lat="46.030328180640936" lon="7.274077003821731">
        <ele>2112.6300000000001</ele>
        <time>2016-07-06T10:26:16Z</time>
      </trkpt>
      <trkpt lat="46.030336478725076" lon="7.274082116782665">
        <ele>2112.6300000000001</ele>
        <time>2016-07-06T10:26:37Z</time>
      </trkpt>
      <trkpt lat="46.030326001346111" lon="7.274087565019727">
        <ele>2112.6300000000001</ele>
        <time>2016-07-06T10:27:00Z</time>
      </trkpt>
      <trkpt lat="46.030318709090352" lon="7.274084463715553">
        <ele>2112.6300000000001</ele>
        <time>2016-07-06T10:27:18Z</time>
      </trkpt>
      <trkpt lat="46.030325330793858" lon="7.274073148146272">
        <ele>2112.6300000000001</ele>
        <time>2016-07-06T10:27:40Z</time>
      </trkpt>
      <trkpt lat="46.030327174812555" lon="7.274067364633083">
        <ele>2113.1199999999999</ele>
        <time>2016-07-06T10:28:04Z</time>
      </trkpt>
      <trkpt lat="46.030342010781169" lon="7.274060994386673">
        <ele>2113.1199999999999</ele>
        <time>2016-07-06T10:28:27Z</time>
      </trkpt>
      <trkpt lat="46.03032398968935" lon="7.274063341319561">
        <ele>2113.1199999999999</ele>
        <time>2016-07-06T10:28:53Z</time>
      </trkpt>
      <trkpt lat="46.030320217832923" lon="7.274088906124234">
        <ele>2113.5999999999999</ele>
        <time>2016-07-06T10:29:11Z</time>
      </trkpt>
      <trkpt lat="46.030294736847281" lon="7.274116734042764">
        <ele>2114.0799999999999</ele>
        <time>2016-07-06T10:29:21Z</time>
      </trkpt>
      <trkpt lat="46.030279565602541" lon="7.274134587496519">
        <ele>2113.5999999999999</ele>
        <time>2016-07-06T10:29:36Z</time>
      </trkpt>
      <trkpt lat="46.030289707705379" lon="7.274095360189676">
        <ele>2113.5999999999999</ele>
        <time>2016-07-06T10:29:50Z</time>
      </trkpt>
      <trkpt lat="46.03030395694077" lon="7.274091672152281">
        <ele>2113.5999999999999</ele>
        <time>2016-07-06T10:30:05Z</time>
      </trkpt>
      <trkpt lat="46.030305800959468" lon="7.274090750142932">
        <ele>2113.5999999999999</ele>
        <time>2016-07-06T10:30:23Z</time>
      </trkpt>
      <trkpt lat="46.030300604179502" lon="7.274099802598357">
        <ele>2114.0799999999999</ele>
        <time>2016-07-06T10:30:35Z</time>
      </trkpt>
      <trkpt lat="46.030292892828584" lon="7.274110447615385">
        <ele>2114.0799999999999</ele>
        <time>2016-07-06T10:30:49Z</time>
      </trkpt>
      <trkpt lat="46.030297754332423" lon="7.274112710729241">
        <ele>2114.0799999999999</ele>
        <time>2016-07-06T10:31:02Z</time>
      </trkpt>
      <trkpt lat="46.030294904485345" lon="7.274117069318891">
        <ele>2114.0799999999999</ele>
        <time>2016-07-06T10:31:20Z</time>
      </trkpt>
      <trkpt lat="46.030298005789518" lon="7.274107011035085">
        <ele>2114.0799999999999</ele>
        <time>2016-07-06T10:31:35Z</time>
      </trkpt>
      <trkpt lat="46.030290797352791" lon="7.274111788719893">
        <ele>2113.5999999999999</ele>
        <time>2016-07-06T10:31:51Z</time>
      </trkpt>
      <trkpt lat="46.030295994132757" lon="7.274108184501529">
        <ele>2113.5999999999999</ele>
        <time>2016-07-06T10:32:13Z</time>
      </trkpt>
      <trkpt lat="46.030292389914393" lon="7.274101059883833">
        <ele>2114.0799999999999</ele>
        <time>2016-07-06T10:32:34Z</time>
      </trkpt>
      <trkpt lat="46.030303873121738" lon="7.274095779284835">
        <ele>2114.0799999999999</ele>
        <time>2016-07-06T10:32:53Z</time>
      </trkpt>
      <trkpt lat="46.030292054638267" lon="7.27412486448884">
        <ele>2113.5999999999999</ele>
        <time>2016-07-06T10:33:08Z</time>
      </trkpt>
      <trkpt lat="46.030294820666313" lon="7.274190410971642">
        <ele>2113.1199999999999</ele>
        <time>2016-07-06T10:33:21Z</time>
      </trkpt>
      <trkpt lat="46.030276464298368" lon="7.274238523095846">
        <ele>2113.1199999999999</ele>
        <time>2016-07-06T10:33:30Z</time>
      </trkpt>
      <trkpt lat="46.030304292216897" lon="7.274284288287163">
        <ele>2113.1199999999999</ele>
        <time>2016-07-06T10:33:40Z</time>
      </trkpt>
      <trkpt lat="46.030321810394526" lon="7.274322090670466">
        <ele>2113.1199999999999</ele>
        <time>2016-07-06T10:33:51Z</time>
      </trkpt>
      <trkpt lat="46.030310243368149" lon="7.274340027943254">
        <ele>2113.5999999999999</ele>
        <time>2016-07-06T10:34:05Z</time>
      </trkpt>
      <trkpt lat="46.030301861464977" lon="7.274368777871132">
        <ele>2113.1199999999999</ele>
        <time>2016-07-06T10:34:16Z</time>
      </trkpt>
      <trkpt lat="46.030258443206549" lon="7.274284288287163">
        <ele>2112.6300000000001</ele>
        <time>2016-07-06T10:34:29Z</time>
      </trkpt>
      <trkpt lat="46.030265567824244" lon="7.274279845878482">
        <ele>2112.6300000000001</ele>
        <time>2016-07-06T10:34:42Z</time>
      </trkpt>
      <trkpt lat="46.030260538682342" lon="7.274281354621053">
        <ele>2112.6300000000001</ele>
        <time>2016-07-06T10:34:55Z</time>
      </trkpt>
      <trkpt lat="46.03022575378418" lon="7.274308847263455">
        <ele>2112.6300000000001</ele>
        <time>2016-07-06T10:35:11Z</time>
      </trkpt>
      <trkpt lat="46.030200691893697" lon="7.274329299107194">
        <ele>2111.6700000000001</ele>
        <time>2016-07-06T10:35:15Z</time>
      </trkpt>
      <trkpt lat="46.030147634446621" lon="7.274387385696173">
        <ele>2110.71</ele>
        <time>2016-07-06T10:35:26Z</time>
      </trkpt>
      <trkpt lat="46.030103042721748" lon="7.274429798126221">
        <ele>2110.23</ele>
        <time>2016-07-06T10:35:35Z</time>
      </trkpt>
      <trkpt lat="46.030031628906727" lon="7.274486627429724">
        <ele>2107.3499999999999</ele>
        <time>2016-07-06T10:35:48Z</time>
      </trkpt>
      <trkpt lat="46.02996583096683" lon="7.274495176970959">
        <ele>2105.9099999999999</ele>
        <time>2016-07-06T10:35:54Z</time>
      </trkpt>
      <trkpt lat="46.029870444908738" lon="7.274560807272792">
        <ele>2103.98</ele>
        <time>2016-07-06T10:36:04Z</time>
      </trkpt>
      <trkpt lat="46.029854603111744" lon="7.274702796712518">
        <ele>2105.4200000000001</ele>
        <time>2016-07-06T10:36:16Z</time>
      </trkpt>
      <trkpt lat="46.029795845970511" lon="7.274823496118188">
        <ele>2103.98</ele>
        <time>2016-07-06T10:36:27Z</time>
      </trkpt>
      <trkpt lat="46.029734909534454" lon="7.274966156110168">
        <ele>2102.54</ele>
        <time>2016-07-06T10:36:39Z</time>
      </trkpt>
      <trkpt lat="46.029714876785874" lon="7.275076797232032">
        <ele>2101.0999999999999</ele>
        <time>2016-07-06T10:36:51Z</time>
      </trkpt>
      <trkpt lat="46.029712194576859" lon="7.275080904364586">
        <ele>2101.5799999999999</ele>
        <time>2016-07-06T10:37:03Z</time>
      </trkpt>
      <trkpt lat="46.029664920642972" lon="7.275259271264076">
        <ele>2100.1399999999999</ele>
        <time>2016-07-06T10:37:15Z</time>
      </trkpt>
      <trkpt lat="46.029635416343808" lon="7.27532247081399">
        <ele>2100.1399999999999</ele>
        <time>2016-07-06T10:37:20Z</time>
      </trkpt>
      <trkpt lat="46.029622005298734" lon="7.275358429178596">
        <ele>2100.1399999999999</ele>
        <time>2016-07-06T10:37:23Z</time>
      </trkpt>
      <trkpt lat="46.029613791033626" lon="7.275448031723499">
        <ele>2099.1799999999998</ele>
        <time>2016-07-06T10:37:31Z</time>
      </trkpt>
      <trkpt lat="46.029551848769188" lon="7.27549446746707">
        <ele>2097.73</ele>
        <time>2016-07-06T10:37:42Z</time>
      </trkpt>
      <trkpt lat="46.029508849605918" lon="7.275570742785931">
        <ele>2095.3299999999999</ele>
        <time>2016-07-06T10:37:53Z</time>
      </trkpt>
      <trkpt lat="46.029462413862348" lon="7.2756103053689">
        <ele>2093.4099999999999</ele>
        <time>2016-07-06T10:38:01Z</time>
      </trkpt>
      <trkpt lat="46.029338780790567" lon="7.275675432756543">
        <ele>2091.4899999999998</ele>
        <time>2016-07-06T10:38:13Z</time>
      </trkpt>
      <trkpt lat="46.029285890981555" lon="7.275706445798278">
        <ele>2091.9699999999998</ele>
        <time>2016-07-06T10:38:19Z</time>
      </trkpt>
      <trkpt lat="46.029176842421293" lon="7.275784397497773">
        <ele>2092.4499999999998</ele>
        <time>2016-07-06T10:38:30Z</time>
      </trkpt>
      <trkpt lat="46.029174160212278" lon="7.275790432468057">
        <ele>2092.9299999999998</ele>
        <time>2016-07-06T10:38:31Z</time>
      </trkpt>
      <trkpt lat="46.029151948168874" lon="7.275865031406283">
        <ele>2093.8899999999999</ele>
        <time>2016-07-06T10:38:37Z</time>
      </trkpt>
      <trkpt lat="46.029112720862031" lon="7.275948598980904">
        <ele>2095.8099999999999</ele>
        <time>2016-07-06T10:38:48Z</time>
      </trkpt>
      <trkpt lat="46.029115570709109" lon="7.275997716933489">
        <ele>2095.8099999999999</ele>
        <time>2016-07-06T10:38:53Z</time>
      </trkpt>
      <trkpt lat="46.029119761660695" lon="7.276067789644003">
        <ele>2095.8099999999999</ele>
        <time>2016-07-06T10:38:58Z</time>
      </trkpt>
      <trkpt lat="46.029119258746505" lon="7.276092935353518">
        <ele>2095.8099999999999</ele>
        <time>2016-07-06T10:39:00Z</time>
      </trkpt>
      <trkpt lat="46.029124120250344" lon="7.276150602847338">
        <ele>2095.8099999999999</ele>
        <time>2016-07-06T10:39:04Z</time>
      </trkpt>
      <trkpt lat="46.029111966490746" lon="7.276246743276715">
        <ele>2095.8099999999999</ele>
        <time>2016-07-06T10:39:12Z</time>
      </trkpt>
      <trkpt lat="46.029119091108441" lon="7.276255125179887">
        <ele>2095.3299999999999</ele>
        <time>2016-07-06T10:39:13Z</time>
      </trkpt>
      <trkpt lat="46.029179776087403" lon="7.276393510401249">
        <ele>2094.3699999999999</ele>
        <time>2016-07-06T10:39:25Z</time>
      </trkpt>
      <trkpt lat="46.029181033372879" lon="7.276408178731799">
        <ele>2093.8899999999999</ele>
        <time>2016-07-06T10:39:26Z</time>
      </trkpt>
      <trkpt lat="46.029167035594583" lon="7.276540864259005">
        <ele>2092.4499999999998</ele>
        <time>2016-07-06T10:39:35Z</time>
      </trkpt>
      <trkpt lat="46.029151109978557" lon="7.276585036888719">
        <ele>2092.4499999999998</ele>
        <time>2016-07-06T10:39:38Z</time>
      </trkpt>
      <trkpt lat="46.02911464869976" lon="7.276667766273022">
        <ele>2092.9299999999998</ele>
        <time>2016-07-06T10:39:47Z</time>
      </trkpt>
      <trkpt lat="46.029110960662365" lon="7.276713531464338">
        <ele>2093.8899999999999</ele>
        <time>2016-07-06T10:39:52Z</time>
      </trkpt>
      <trkpt lat="46.02907307446003" lon="7.27681377902627">
        <ele>2093.4099999999999</ele>
        <time>2016-07-06T10:40:00Z</time>
      </trkpt>
      <trkpt lat="46.028976766392589" lon="7.276956019923091">
        <ele>2091</ele>
        <time>2016-07-06T10:40:13Z</time>
      </trkpt>
      <trkpt lat="46.028907699510455" lon="7.277027685195208">
        <ele>2090.04</ele>
        <time>2016-07-06T10:40:20Z</time>
      </trkpt>
      <trkpt lat="46.028820611536503" lon="7.277123825624585">
        <ele>2089.5599999999999</ele>
        <time>2016-07-06T10:40:29Z</time>
      </trkpt>
      <trkpt lat="46.028784150257707" lon="7.277156263589859">
        <ele>2089.5599999999999</ele>
        <time>2016-07-06T10:40:34Z</time>
      </trkpt>
      <trkpt lat="46.028763949871063" lon="7.277266485616565">
        <ele>2091</ele>
        <time>2016-07-06T10:40:44Z</time>
      </trkpt>
      <trkpt lat="46.028735870495439" lon="7.277311244979501">
        <ele>2092.4499999999998</ele>
        <time>2016-07-06T10:40:48Z</time>
      </trkpt>
      <trkpt lat="46.028708713129163" lon="7.277405709028244">
        <ele>2091.4899999999998</ele>
        <time>2016-07-06T10:40:55Z</time>
      </trkpt>
      <trkpt lat="46.028667893260717" lon="7.27745683863759">
        <ele>2090.52</ele>
        <time>2016-07-06T10:41:05Z</time>
      </trkpt>
      <trkpt lat="46.028640065342188" lon="7.277464969083667">
        <ele>2090.52</ele>
        <time>2016-07-06T10:41:15Z</time>
      </trkpt>
      <trkpt lat="46.028579045087099" lon="7.277486678212881">
        <ele>2090.52</ele>
        <time>2016-07-06T10:41:26Z</time>
      </trkpt>
      <trkpt lat="46.02854585275054" lon="7.277538729831576">
        <ele>2090.04</ele>
        <time>2016-07-06T10:41:36Z</time>
      </trkpt>
      <trkpt lat="46.028472762554884" lon="7.277583070099354">
        <ele>2090.52</ele>
        <time>2016-07-06T10:41:47Z</time>
      </trkpt>
      <trkpt lat="46.028411071747541" lon="7.277566222473979">
        <ele>2089.0799999999999</ele>
        <time>2016-07-06T10:41:58Z</time>
      </trkpt>
      <trkpt lat="46.028381232172251" lon="7.277578292414546">
        <ele>2089.0799999999999</ele>
        <time>2016-07-06T10:42:08Z</time>
      </trkpt>
      <trkpt lat="46.028380142524838" lon="7.277565635740757">
        <ele>2089.0799999999999</ele>
        <time>2016-07-06T10:42:27Z</time>
      </trkpt>
      <trkpt lat="46.028374023735523" lon="7.277562953531742">
        <ele>2089.0799999999999</ele>
        <time>2016-07-06T10:42:37Z</time>
      </trkpt>
      <trkpt lat="46.028292970731854" lon="7.277432195842266">
        <ele>2088.5999999999999</ele>
        <time>2016-07-06T10:42:47Z</time>
      </trkpt>
      <trkpt lat="46.0282560903579" lon="7.277396069839597">
        <ele>2088.1199999999999</ele>
        <time>2016-07-06T10:42:51Z</time>
      </trkpt>
      <trkpt lat="46.028158608824015" lon="7.277315184473991">
        <ele>2087.1599999999999</ele>
        <time>2016-07-06T10:43:00Z</time>
      </trkpt>
      <trkpt lat="46.028027264401317" lon="7.27720127440989">
        <ele>2086.6799999999998</ele>
        <time>2016-07-06T10:43:13Z</time>
      </trkpt>
      <trkpt lat="46.027943780645728" lon="7.277100943028927">
        <ele>2087.1599999999999</ele>
        <time>2016-07-06T10:43:22Z</time>
      </trkpt>
      <trkpt lat="46.027861135080457" lon="7.27695157751441">
        <ele>2086.6799999999998</ele>
        <time>2016-07-06T10:43:33Z</time>
      </trkpt>
      <trkpt lat="46.027759546414018" lon="7.27681671269238">
        <ele>2086.6799999999998</ele>
        <time>2016-07-06T10:43:45Z</time>
      </trkpt>
      <trkpt lat="46.027746638283134" lon="7.276808330789208">
        <ele>2086.6799999999998</ele>
        <time>2016-07-06T10:43:46Z</time>
      </trkpt>
      <trkpt lat="46.027679834514856" lon="7.276778072118759">
        <ele>2085.7199999999998</ele>
        <time>2016-07-06T10:43:51Z</time>
      </trkpt>
      <trkpt lat="46.027610516175628" lon="7.276742197573185">
        <ele>2086.1999999999998</ele>
        <time>2016-07-06T10:43:57Z</time>
      </trkpt>
      <trkpt lat="46.027581095695496" lon="7.276714621111751">
        <ele>2086.1999999999998</ele>
        <time>2016-07-06T10:44:00Z</time>
      </trkpt>
      <trkpt lat="46.027440866455436" lon="7.2766740527004">
        <ele>2085.7199999999998</ele>
        <time>2016-07-06T10:44:12Z</time>
      </trkpt>
      <trkpt lat="46.02736190892756" lon="7.276631472632289">
        <ele>2086.6799999999998</ele>
        <time>2016-07-06T10:44:20Z</time>
      </trkpt>
      <trkpt lat="46.027298457920551" lon="7.276530973613262">
        <ele>2087.6399999999999</ele>
        <time>2016-07-06T10:44:31Z</time>
      </trkpt>
      <trkpt lat="46.027250178158283" lon="7.276449669152498">
        <ele>2091</ele>
        <time>2016-07-06T10:44:42Z</time>
      </trkpt>
      <trkpt lat="46.027223858982325" lon="7.276436761021614">
        <ele>2090.04</ele>
        <time>2016-07-06T10:44:46Z</time>
      </trkpt>
      <trkpt lat="46.027206759899855" lon="7.276426367461681">
        <ele>2090.52</ele>
        <time>2016-07-06T10:44:48Z</time>
      </trkpt>
      <trkpt lat="46.027128892019391" lon="7.27643852122128">
        <ele>2090.52</ele>
        <time>2016-07-06T10:44:57Z</time>
      </trkpt>
      <trkpt lat="46.027092095464468" lon="7.276395605877042">
        <ele>2091.4899999999998</ele>
        <time>2016-07-06T10:45:08Z</time>
      </trkpt>
      <trkpt lat="46.027056304737926" lon="7.276355875656009">
        <ele>2091.9699999999998</ele>
        <time>2016-07-06T10:45:14Z</time>
      </trkpt>
      <trkpt lat="46.02701598778367" lon="7.276320587843657">
        <ele>2091.9699999999998</ele>
        <time>2016-07-06T10:45:19Z</time>
      </trkpt>
      <trkpt lat="46.026963349431753" lon="7.276330143213272">
        <ele>2091</ele>
        <time>2016-07-06T10:45:24Z</time>
      </trkpt>
      <trkpt lat="46.026886738836765" lon="7.276263507083058">
        <ele>2091</ele>
        <time>2016-07-06T10:45:33Z</time>
      </trkpt>
      <trkpt lat="46.026882715523243" lon="7.276255376636982">
        <ele>2091.4899999999998</ele>
        <time>2016-07-06T10:45:34Z</time>
      </trkpt>
      <trkpt lat="46.026857988908887" lon="7.276216233149171">
        <ele>2091.9699999999998</ele>
        <time>2016-07-06T10:45:40Z</time>
      </trkpt>
      <trkpt lat="46.026809625327587" lon="7.276196954771876">
        <ele>2092.4499999999998</ele>
        <time>2016-07-06T10:45:45Z</time>
      </trkpt>
      <trkpt lat="46.026729242876172" lon="7.276179352775216">
        <ele>2093.4099999999999</ele>
        <time>2016-07-06T10:45:55Z</time>
      </trkpt>
      <trkpt lat="46.026661600917578" lon="7.276179939508438">
        <ele>2095.3299999999999</ele>
        <time>2016-07-06T10:46:06Z</time>
      </trkpt>
      <trkpt lat="46.026598820462823" lon="7.27618295699358">
        <ele>2096.77</ele>
        <time>2016-07-06T10:46:17Z</time>
      </trkpt>
      <trkpt lat="46.026577865704894" lon="7.276194524019957">
        <ele>2097.73</ele>
        <time>2016-07-06T10:46:21Z</time>
      </trkpt>
      <trkpt lat="46.026495639234781" lon="7.276211706921458">
        <ele>2099.6599999999999</ele>
        <time>2016-07-06T10:46:32Z</time>
      </trkpt>
      <trkpt lat="46.026440989226103" lon="7.276250431314111">
        <ele>2099.6599999999999</ele>
        <time>2016-07-06T10:46:38Z</time>
      </trkpt>
      <trkpt lat="46.026413664221764" lon="7.276237020269036">
        <ele>2100.1399999999999</ele>
        <time>2016-07-06T10:46:49Z</time>
      </trkpt>
      <trkpt lat="46.026373766362667" lon="7.276219166815281">
        <ele>2101.5799999999999</ele>
        <time>2016-07-06T10:46:57Z</time>
      </trkpt>
      <trkpt lat="46.026337724179029" lon="7.276166863739491">
        <ele>2103.5</ele>
        <time>2016-07-06T10:47:06Z</time>
      </trkpt>
      <trkpt lat="46.026322972029448" lon="7.276131995022297">
        <ele>2104.46</ele>
        <time>2016-07-06T10:47:12Z</time>
      </trkpt>
      <trkpt lat="46.026267902925611" lon="7.276070974767208">
        <ele>2106.3899999999999</ele>
        <time>2016-07-06T10:47:24Z</time>
      </trkpt>
      <trkpt lat="46.026223814114928" lon="7.276064436882734">
        <ele>2107.3499999999999</ele>
        <time>2016-07-06T10:47:29Z</time>
      </trkpt>
      <trkpt lat="46.026128511875868" lon="7.276038788259029">
        <ele>2107.3499999999999</ele>
        <time>2016-07-06T10:47:40Z</time>
      </trkpt>
      <trkpt lat="46.026115939021111" lon="7.276043398305774">
        <ele>2107.8299999999999</ele>
        <time>2016-07-06T10:47:41Z</time>
      </trkpt>
      <trkpt lat="46.026035221293569" lon="7.276015905663371">
        <ele>2108.79</ele>
        <time>2016-07-06T10:47:52Z</time>
      </trkpt>
      <trkpt lat="46.025976128876209" lon="7.275969972833991">
        <ele>2110.23</ele>
        <time>2016-07-06T10:48:02Z</time>
      </trkpt>
      <trkpt lat="46.025944445282221" lon="7.275941139087081">
        <ele>2110.23</ele>
        <time>2016-07-06T10:48:07Z</time>
      </trkpt>
      <trkpt lat="46.025845957919955" lon="7.27592303417623">
        <ele>2110.71</ele>
        <time>2016-07-06T10:48:17Z</time>
      </trkpt>
      <trkpt lat="46.02581343613565" lon="7.275872491300106">
        <ele>2112.6300000000001</ele>
        <time>2016-07-06T10:48:27Z</time>
      </trkpt>
      <trkpt lat="46.025764485821128" lon="7.275884309783578">
        <ele>2113.5999999999999</ele>
        <time>2016-07-06T10:48:36Z</time>
      </trkpt>
      <trkpt lat="46.025693658739328" lon="7.275776183232665">
        <ele>2115.52</ele>
        <time>2016-07-06T10:48:47Z</time>
      </trkpt>
      <trkpt lat="46.025678906589746" lon="7.275725472718477">
        <ele>2116</ele>
        <time>2016-07-06T10:48:57Z</time>
      </trkpt>
      <trkpt lat="46.02566440589726" lon="7.275699991732836">
        <ele>2117.4400000000001</ele>
        <time>2016-07-06T10:49:09Z</time>
      </trkpt>
      <trkpt lat="46.025608750060201" lon="7.27566746994853">
        <ele>2118.4000000000001</ele>
        <time>2016-07-06T10:49:18Z</time>
      </trkpt>
      <trkpt lat="46.025547310709953" lon="7.275586249306798">
        <ele>2119.3600000000001</ele>
        <time>2016-07-06T10:49:30Z</time>
      </trkpt>
      <trkpt lat="46.025497354567051" lon="7.275611897930503">
        <ele>2120.3200000000002</ele>
        <time>2016-07-06T10:49:41Z</time>
      </trkpt>
      <trkpt lat="46.025465838611126" lon="7.275605527684093">
        <ele>2122.25</ele>
        <time>2016-07-06T10:49:52Z</time>
      </trkpt>
      <trkpt lat="46.02544111199677" lon="7.275586919859052">
        <ele>2123.6900000000001</ele>
        <time>2016-07-06T10:50:03Z</time>
      </trkpt>
      <trkpt lat="46.025396687909961" lon="7.275558421388269">
        <ele>2125.1300000000001</ele>
        <time>2016-07-06T10:50:13Z</time>
      </trkpt>
      <trkpt lat="46.025356203317642" lon="7.275568228214979">
        <ele>2126.0900000000001</ele>
        <time>2016-07-06T10:50:20Z</time>
      </trkpt>
      <trkpt lat="46.025285795331001" lon="7.27556437253952">
        <ele>2127.5300000000002</ele>
        <time>2016-07-06T10:50:29Z</time>
      </trkpt>
      <trkpt lat="46.025217399001122" lon="7.27554626762867">
        <ele>2128.02</ele>
        <time>2016-07-06T10:50:38Z</time>
      </trkpt>
      <trkpt lat="46.025190744549036" lon="7.275554146617651">
        <ele>2128.5</ele>
        <time>2016-07-06T10:50:41Z</time>
      </trkpt>
      <trkpt lat="46.025147829204798" lon="7.275635534897447">
        <ele>2127.5300000000002</ele>
        <time>2016-07-06T10:50:51Z</time>
      </trkpt>
      <trkpt lat="46.025124946609139" lon="7.275691274553537">
        <ele>2127.0500000000002</ele>
        <time>2016-07-06T10:50:55Z</time>
      </trkpt>
      <trkpt lat="46.025073900818825" lon="7.275770399719477">
        <ele>2128.5</ele>
        <time>2016-07-06T10:51:04Z</time>
      </trkpt>
      <trkpt lat="46.025013634935021" lon="7.275859080255032">
        <ele>2129.9400000000001</ele>
        <time>2016-07-06T10:51:15Z</time>
      </trkpt>
      <trkpt lat="46.024982118979096" lon="7.275904761627317">
        <ele>2130.9000000000001</ele>
        <time>2016-07-06T10:51:24Z</time>
      </trkpt>
      <trkpt lat="46.024897797033191" lon="7.27592739276588">
        <ele>2129.9400000000001</ele>
        <time>2016-07-06T10:51:35Z</time>
      </trkpt>
      <trkpt lat="46.024876423180103" lon="7.275926889851689">
        <ele>2128.02</ele>
        <time>2016-07-06T10:51:37Z</time>
      </trkpt>
      <trkpt lat="46.024810457602143" lon="7.27593619376421">
        <ele>2128.5</ele>
        <time>2016-07-06T10:51:44Z</time>
      </trkpt>
      <trkpt lat="46.024746671319008" lon="7.275884980335832">
        <ele>2126.5700000000002</ele>
        <time>2016-07-06T10:51:53Z</time>
      </trkpt>
      <trkpt lat="46.024701576679945" lon="7.275717761367559">
        <ele>2125.1300000000001</ele>
        <time>2016-07-06T10:52:04Z</time>
      </trkpt>
      <trkpt lat="46.024650782346725" lon="7.275577699765563">
        <ele>2124.6500000000001</ele>
        <time>2016-07-06T10:52:15Z</time>
      </trkpt>
      <trkpt lat="46.024599149823189" lon="7.275483319535852">
        <ele>2126.0900000000001</ele>
        <time>2016-07-06T10:52:25Z</time>
      </trkpt>
      <trkpt lat="46.024580374360085" lon="7.275468986481428">
        <ele>2126.0900000000001</ele>
        <time>2016-07-06T10:52:28Z</time>
      </trkpt>
      <trkpt lat="46.024496722966433" lon="7.275421544909477">
        <ele>2124.6500000000001</ele>
        <time>2016-07-06T10:52:36Z</time>
      </trkpt>
      <trkpt lat="46.024374682456255" lon="7.275301096960902">
        <ele>2122.73</ele>
        <time>2016-07-06T10:52:49Z</time>
      </trkpt>
      <trkpt lat="46.024289857596159" lon="7.275178302079439">
        <ele>2122.73</ele>
        <time>2016-07-06T10:53:00Z</time>
      </trkpt>
      <trkpt lat="46.024175276979804" lon="7.274972526356578">
        <ele>2121.77</ele>
        <time>2016-07-06T10:53:15Z</time>
      </trkpt>
      <trkpt lat="46.024131523445249" lon="7.27490371093154">
        <ele>2121.29</ele>
        <time>2016-07-06T10:53:21Z</time>
      </trkpt>
      <trkpt lat="46.024058265611529" lon="7.274799691513181">
        <ele>2121.77</ele>
        <time>2016-07-06T10:53:33Z</time>
      </trkpt>
      <trkpt lat="46.024004789069295" lon="7.274742946028709">
        <ele>2122.73</ele>
        <time>2016-07-06T10:53:42Z</time>
      </trkpt>
      <trkpt lat="46.023924741894007" lon="7.274675220251083">
        <ele>2122.73</ele>
        <time>2016-07-06T10:53:51Z</time>
      </trkpt>
      <trkpt lat="46.023834552615881" lon="7.274519149214029">
        <ele>2122.25</ele>
        <time>2016-07-06T10:54:03Z</time>
      </trkpt>
      <trkpt lat="46.023751236498356" lon="7.274389816448093">
        <ele>2121.77</ele>
        <time>2016-07-06T10:54:14Z</time>
      </trkpt>
      <trkpt lat="46.023659035563469" lon="7.274270039051771">
        <ele>2122.25</ele>
        <time>2016-07-06T10:54:25Z</time>
      </trkpt>
      <trkpt lat="46.023614360019565" lon="7.274182364344597">
        <ele>2121.77</ele>
        <time>2016-07-06T10:54:33Z</time>
      </trkpt>
      <trkpt lat="46.023604134097695" lon="7.274156380444765">
        <ele>2121.77</ele>
        <time>2016-07-06T10:54:35Z</time>
      </trkpt>
      <trkpt lat="46.02359164506197" lon="7.274118578061461">
        <ele>2121.77</ele>
        <time>2016-07-06T10:54:38Z</time>
      </trkpt>
      <trkpt lat="46.023551914840937" lon="7.274012211710215">
        <ele>2121.29</ele>
        <time>2016-07-06T10:54:46Z</time>
      </trkpt>
      <trkpt lat="46.023543197661638" lon="7.273992849513888">
        <ele>2121.77</ele>
        <time>2016-07-06T10:54:48Z</time>
      </trkpt>
      <trkpt lat="46.023514866828918" lon="7.273948090150952">
        <ele>2121.29</ele>
        <time>2016-07-06T10:54:52Z</time>
      </trkpt>
      <trkpt lat="46.023474968969822" lon="7.273890087381005">
        <ele>2121.29</ele>
        <time>2016-07-06T10:54:59Z</time>
      </trkpt>
      <trkpt lat="46.02340648882091" lon="7.273779194802046">
        <ele>2120.8099999999999</ele>
        <time>2016-07-06T10:55:09Z</time>
      </trkpt>
      <trkpt lat="46.023343205451965" lon="7.273637540638447">
        <ele>2121.29</ele>
        <time>2016-07-06T10:55:22Z</time>
      </trkpt>
      <trkpt lat="46.023305486887693" lon="7.273513153195381">
        <ele>2121.77</ele>
        <time>2016-07-06T10:55:32Z</time>
      </trkpt>
      <trkpt lat="46.023233402520418" lon="7.273376695811749">
        <ele>2123.21</ele>
        <time>2016-07-06T10:55:44Z</time>
      </trkpt>
      <trkpt lat="46.023193169385195" lon="7.273323219269514">
        <ele>2123.6900000000001</ele>
        <time>2016-07-06T10:55:49Z</time>
      </trkpt>
      <trkpt lat="46.023139357566833" lon="7.273229341953993">
        <ele>2124.6500000000001</ele>
        <time>2016-07-06T10:55:58Z</time>
      </trkpt>
      <trkpt lat="46.023073308169842" lon="7.2731305193156">
        <ele>2125.6100000000001</ele>
        <time>2016-07-06T10:56:08Z</time>
      </trkpt>
      <trkpt lat="46.023021675646305" lon="7.273033205419779">
        <ele>2126.5700000000002</ele>
        <time>2016-07-06T10:56:17Z</time>
      </trkpt>
      <trkpt lat="46.022962080314755" lon="7.272927174344659">
        <ele>2127.0500000000002</ele>
        <time>2016-07-06T10:56:27Z</time>
      </trkpt>
      <trkpt lat="46.022936096414924" lon="7.272870931774378">
        <ele>2127.5300000000002</ele>
        <time>2016-07-06T10:56:32Z</time>
      </trkpt>
      <trkpt lat="46.022919500246644" lon="7.272834135219455">
        <ele>2127.5300000000002</ele>
        <time>2016-07-06T10:56:35Z</time>
      </trkpt>
      <trkpt lat="46.022901060059667" lon="7.27277722209692">
        <ele>2128.02</ele>
        <time>2016-07-06T10:56:41Z</time>
      </trkpt>
      <trkpt lat="46.022895192727447" lon="7.272754926234484">
        <ele>2128.5</ele>
        <time>2016-07-06T10:56:43Z</time>
      </trkpt>
      <trkpt lat="46.022827466949821" lon="7.272655097767711">
        <ele>2128.98</ele>
        <time>2016-07-06T10:56:54Z</time>
      </trkpt>
      <trkpt lat="46.02275563403964" lon="7.272621318697929">
        <ele>2129.46</ele>
        <time>2016-07-06T10:57:03Z</time>
      </trkpt>
      <trkpt lat="46.022698050364852" lon="7.272564992308617">
        <ele>2130.4200000000001</ele>
        <time>2016-07-06T10:57:12Z</time>
      </trkpt>
      <trkpt lat="46.022645244374871" lon="7.272556442767382">
        <ele>2130.9000000000001</ele>
        <time>2016-07-06T10:57:18Z</time>
      </trkpt>
      <trkpt lat="46.022569639608264" lon="7.272559963166714">
        <ele>2131.8600000000001</ele>
        <time>2016-07-06T10:57:29Z</time>
      </trkpt>
      <trkpt lat="46.022519432008266" lon="7.272534146904945">
        <ele>2133.3000000000002</ele>
        <time>2016-07-06T10:57:37Z</time>
      </trkpt>
      <trkpt lat="46.022471152245998" lon="7.272519394755364">
        <ele>2135.23</ele>
        <time>2016-07-06T10:57:46Z</time>
      </trkpt>
      <trkpt lat="46.022437792271376" lon="7.272503972053528">
        <ele>2136.6700000000001</ele>
        <time>2016-07-06T10:57:55Z</time>
      </trkpt>
      <trkpt lat="46.022364534437656" lon="7.272489219903946">
        <ele>2138.1100000000001</ele>
        <time>2016-07-06T10:58:06Z</time>
      </trkpt>
      <trkpt lat="46.022320194169879" lon="7.272369861602783">
        <ele>2140.0300000000002</ele>
        <time>2016-07-06T10:58:18Z</time>
      </trkpt>
      <trkpt lat="46.022292030975223" lon="7.272305572405458">
        <ele>2140.5100000000002</ele>
        <time>2016-07-06T10:58:25Z</time>
      </trkpt>
      <trkpt lat="46.022189604118466" lon="7.27229786105454">
        <ele>2140.5100000000002</ele>
        <time>2016-07-06T10:58:35Z</time>
      </trkpt>
      <trkpt lat="46.022103689610958" lon="7.27227489463985">
        <ele>2140.9899999999998</ele>
        <time>2016-07-06T10:58:44Z</time>
      </trkpt>
      <trkpt lat="46.021999167278409" lon="7.272310433909297">
        <ele>2141.4699999999998</ele>
        <time>2016-07-06T10:58:54Z</time>
      </trkpt>
      <trkpt lat="46.021975362673402" lon="7.272314876317978">
        <ele>2141.4699999999998</ele>
        <time>2016-07-06T10:58:57Z</time>
      </trkpt>
      <trkpt lat="46.021893806755543" lon="7.272330382838845">
        <ele>2142.4400000000001</ele>
        <time>2016-07-06T10:59:06Z</time>
      </trkpt>
      <trkpt lat="46.021846365183592" lon="7.272335076704621">
        <ele>2143.8800000000001</ele>
        <time>2016-07-06T10:59:16Z</time>
      </trkpt>
      <trkpt lat="46.021805629134178" lon="7.272381093353033">
        <ele>2145.3200000000002</ele>
        <time>2016-07-06T10:59:26Z</time>
      </trkpt>
      <trkpt lat="46.021784925833344" lon="7.272461978718638">
        <ele>2146.7600000000002</ele>
        <time>2016-07-06T10:59:37Z</time>
      </trkpt>
      <trkpt lat="46.021754750981927" lon="7.272445885464549">
        <ele>2147.2399999999998</ele>
        <time>2016-07-06T10:59:41Z</time>
      </trkpt>
      <trkpt lat="46.0217319522053" lon="7.272428367286921">
        <ele>2147.7199999999998</ele>
        <time>2016-07-06T10:59:43Z</time>
      </trkpt>
      <trkpt lat="46.021678140386939" lon="7.272414453327656">
        <ele>2147.2399999999998</ele>
        <time>2016-07-06T10:59:49Z</time>
      </trkpt>
      <trkpt lat="46.021595578640699" lon="7.272502463310957">
        <ele>2147.7199999999998</ele>
        <time>2016-07-06T10:59:59Z</time>
      </trkpt>
      <trkpt lat="46.021534223109484" lon="7.272591311484575">
        <ele>2146.7600000000002</ele>
        <time>2016-07-06T11:00:08Z</time>
      </trkpt>
      <trkpt lat="46.021500695496798" lon="7.272595250979066">
        <ele>2147.7199999999998</ele>
        <time>2016-07-06T11:00:14Z</time>
      </trkpt>
      <trkpt lat="46.021422827616334" lon="7.272633723914623">
        <ele>2148.1999999999998</ele>
        <time>2016-07-06T11:00:24Z</time>
      </trkpt>
      <trkpt lat="46.02136105298996" lon="7.272619726136327">
        <ele>2149.1599999999999</ele>
        <time>2016-07-06T11:00:33Z</time>
      </trkpt>
      <trkpt lat="46.021319562569261" lon="7.272605560719967">
        <ele>2149.1599999999999</ele>
        <time>2016-07-06T11:00:42Z</time>
      </trkpt>
      <trkpt lat="46.021287376061082" lon="7.272578235715628">
        <ele>2150.6100000000001</ele>
        <time>2016-07-06T11:00:51Z</time>
      </trkpt>
      <trkpt lat="46.021239515393972" lon="7.272586366161704">
        <ele>2151.5700000000002</ele>
        <time>2016-07-06T11:01:02Z</time>
      </trkpt>
      <trkpt lat="46.021198024973273" lon="7.272576056420803">
        <ele>2153.0100000000002</ele>
        <time>2016-07-06T11:01:11Z</time>
      </trkpt>
      <trkpt lat="46.021148823201656" lon="7.272535739466548">
        <ele>2153.9699999999998</ele>
        <time>2016-07-06T11:01:22Z</time>
      </trkpt>
      <trkpt lat="46.021141111850739" lon="7.272510342299938">
        <ele>2154.4499999999998</ele>
        <time>2016-07-06T11:01:26Z</time>
      </trkpt>
      <trkpt lat="46.021110601723194" lon="7.272493075579405">
        <ele>2155.4099999999999</ele>
        <time>2016-07-06T11:01:34Z</time>
      </trkpt>
      <trkpt lat="46.021084450185299" lon="7.272462733089924">
        <ele>2156.8600000000001</ele>
        <time>2016-07-06T11:01:45Z</time>
      </trkpt>
      <trkpt lat="46.021097106859088" lon="7.272396935150027">
        <ele>2158.3000000000002</ele>
        <time>2016-07-06T11:01:56Z</time>
      </trkpt>
      <trkpt lat="46.021103477105498" lon="7.272352678701282">
        <ele>2159.7399999999998</ele>
        <time>2016-07-06T11:02:07Z</time>
      </trkpt>
      <trkpt lat="46.02107766084373" lon="7.272338764742017">
        <ele>2161.6599999999999</ele>
        <time>2016-07-06T11:02:18Z</time>
      </trkpt>
      <trkpt lat="46.021056957542896" lon="7.272316720336676">
        <ele>2162.6199999999999</ele>
        <time>2016-07-06T11:02:29Z</time>
      </trkpt>
      <trkpt lat="46.021034074947238" lon="7.2723188996315">
        <ele>2163.5799999999999</ele>
        <time>2016-07-06T11:02:37Z</time>
      </trkpt>
      <trkpt lat="46.020991159603" lon="7.272316133603454">
        <ele>2165.5100000000002</ele>
        <time>2016-07-06T11:02:47Z</time>
      </trkpt>
      <trkpt lat="46.020959140732884" lon="7.272314541041851">
        <ele>2165.9899999999998</ele>
        <time>2016-07-06T11:02:52Z</time>
      </trkpt>
      <trkpt lat="46.020917482674122" lon="7.272325940430164">
        <ele>2166.4699999999998</ele>
        <time>2016-07-06T11:02:59Z</time>
      </trkpt>
      <trkpt lat="46.020851265639067" lon="7.272295346483588">
        <ele>2167.4299999999998</ele>
        <time>2016-07-06T11:03:10Z</time>
      </trkpt>
      <trkpt lat="46.02083089761436" lon="7.27230716496706">
        <ele>2168.3899999999999</ele>
        <time>2016-07-06T11:03:20Z</time>
      </trkpt>
      <trkpt lat="46.020795190706849" lon="7.272341111674905">
        <ele>2169.3499999999999</ele>
        <time>2016-07-06T11:03:29Z</time>
      </trkpt>
      <trkpt lat="46.020787646993995" lon="7.272302554920316">
        <ele>2171.27</ele>
        <time>2016-07-06T11:03:40Z</time>
      </trkpt>
      <trkpt lat="46.020736936479807" lon="7.272347565740347">
        <ele>2173.1999999999998</ele>
        <time>2016-07-06T11:03:51Z</time>
      </trkpt>
      <trkpt lat="46.020707599818707" lon="7.272390900179744">
        <ele>2173.6799999999998</ele>
        <time>2016-07-06T11:03:57Z</time>
      </trkpt>
      <trkpt lat="46.020608441904187" lon="7.272434318438172">
        <ele>2172.7199999999998</ele>
        <time>2016-07-06T11:04:10Z</time>
      </trkpt>
      <trkpt lat="46.020543901249766" lon="7.27238385938108">
        <ele>2174.1599999999999</ele>
        <time>2016-07-06T11:04:20Z</time>
      </trkpt>
      <trkpt lat="46.02051816880703" lon="7.272312361747026">
        <ele>2175.5999999999999</ele>
        <time>2016-07-06T11:04:30Z</time>
      </trkpt>
      <trkpt lat="46.020502913743258" lon="7.272281432524324">
        <ele>2177.04</ele>
        <time>2016-07-06T11:04:39Z</time>
      </trkpt>
      <trkpt lat="46.02044734172523" lon="7.272264081984758">
        <ele>2178</ele>
        <time>2016-07-06T11:04:49Z</time>
      </trkpt>
      <trkpt lat="46.020402917638421" lon="7.272242708131671">
        <ele>2179.9299999999998</ele>
        <time>2016-07-06T11:04:59Z</time>
      </trkpt>
      <trkpt lat="46.020388249307871" lon="7.272216724231839">
        <ele>2179.9299999999998</ele>
        <time>2016-07-06T11:05:02Z</time>
      </trkpt>
      <trkpt lat="46.020336113870144" lon="7.272183950990439">
        <ele>2180.4099999999999</ele>
        <time>2016-07-06T11:05:10Z</time>
      </trkpt>
      <trkpt lat="46.020278949290514" lon="7.272141203284264">
        <ele>2181.8499999999999</ele>
        <time>2016-07-06T11:05:21Z</time>
      </trkpt>
      <trkpt lat="46.020251037552953" lon="7.272107759490609">
        <ele>2182.8099999999999</ele>
        <time>2016-07-06T11:05:30Z</time>
      </trkpt>
      <trkpt lat="46.020208541303873" lon="7.272103484719992">
        <ele>2184.25</ele>
        <time>2016-07-06T11:05:39Z</time>
      </trkpt>
      <trkpt lat="46.02015120908618" lon="7.272080266848207">
        <ele>2185.6900000000001</ele>
        <time>2016-07-06T11:05:49Z</time>
      </trkpt>
      <trkpt lat="46.020152466371655" lon="7.272000135853887">
        <ele>2187.1399999999999</ele>
        <time>2016-07-06T11:06:00Z</time>
      </trkpt>
      <trkpt lat="46.02013218216598" lon="7.27200860157609">
        <ele>2187.6199999999999</ele>
        <time>2016-07-06T11:06:03Z</time>
      </trkpt>
      <trkpt lat="46.020036544650793" lon="7.272013463079929">
        <ele>2188.0999999999999</ele>
        <time>2016-07-06T11:06:15Z</time>
      </trkpt>
      <trkpt lat="46.0199792124331" lon="7.271996028721333">
        <ele>2189.54</ele>
        <time>2016-07-06T11:06:24Z</time>
      </trkpt>
      <trkpt lat="46.019947864115238" lon="7.271991921588779">
        <ele>2189.54</ele>
        <time>2016-07-06T11:06:36Z</time>
      </trkpt>
      <trkpt lat="46.019938644021749" lon="7.271985970437527">
        <ele>2188.0999999999999</ele>
        <time>2016-07-06T11:06:39Z</time>
      </trkpt>
      <trkpt lat="46.019923137500882" lon="7.271978510543704">
        <ele>2189.54</ele>
        <time>2016-07-06T11:06:44Z</time>
      </trkpt>
      <trkpt lat="46.019814172759652" lon="7.271933164447546">
        <ele>2188.0999999999999</ele>
        <time>2016-07-06T11:06:55Z</time>
      </trkpt>
      <trkpt lat="46.019761366769671" lon="7.271866109222174">
        <ele>2187.6199999999999</ele>
        <time>2016-07-06T11:07:06Z</time>
      </trkpt>
      <trkpt lat="46.019701939076185" lon="7.271842388436198">
        <ele>2187.1399999999999</ele>
        <time>2016-07-06T11:07:16Z</time>
      </trkpt>
      <trkpt lat="46.01967578753829" lon="7.271801987662911">
        <ele>2187.6199999999999</ele>
        <time>2016-07-06T11:07:26Z</time>
      </trkpt>
      <trkpt lat="46.019648713991046" lon="7.27184196934104">
        <ele>2187.6199999999999</ele>
        <time>2016-07-06T11:07:38Z</time>
      </trkpt>
      <trkpt lat="46.019658604636788" lon="7.271796874701977">
        <ele>2187.6199999999999</ele>
        <time>2016-07-06T11:07:49Z</time>
      </trkpt>
      <trkpt lat="46.019647624343634" lon="7.271805172786117">
        <ele>2187.6199999999999</ele>
        <time>2016-07-06T11:07:53Z</time>
      </trkpt>
      <trkpt lat="46.01960688829422" lon="7.271803161129355">
        <ele>2185.6900000000001</ele>
        <time>2016-07-06T11:08:02Z</time>
      </trkpt>
      <trkpt lat="46.019594231620431" lon="7.271821433678269">
        <ele>2185.6900000000001</ele>
        <time>2016-07-06T11:08:17Z</time>
      </trkpt>
      <trkpt lat="46.019555339589715" lon="7.271793773397803">
        <ele>2185.21</ele>
        <time>2016-07-06T11:08:23Z</time>
      </trkpt>
      <trkpt lat="46.019522901624441" lon="7.271723030135036">
        <ele>2183.77</ele>
        <time>2016-07-06T11:08:30Z</time>
      </trkpt>
      <trkpt lat="46.019420139491558" lon="7.271691681817174">
        <ele>2180.8899999999999</ele>
        <time>2016-07-06T11:08:40Z</time>
      </trkpt>
      <trkpt lat="46.019371775910258" lon="7.271679611876607">
        <ele>2180.4099999999999</ele>
        <time>2016-07-06T11:08:51Z</time>
      </trkpt>
      <trkpt lat="46.019300445914268" lon="7.271688245236874">
        <ele>2178.9699999999998</ele>
        <time>2016-07-06T11:08:59Z</time>
      </trkpt>
      <trkpt lat="46.019290219992399" lon="7.27174867875874">
        <ele>2178</ele>
        <time>2016-07-06T11:09:04Z</time>
      </trkpt>
      <trkpt lat="46.019284101203084" lon="7.271807603538036">
        <ele>2177.04</ele>
        <time>2016-07-06T11:09:08Z</time>
      </trkpt>
      <trkpt lat="46.019252417609096" lon="7.271876502782106">
        <ele>2176.0799999999999</ele>
        <time>2016-07-06T11:09:18Z</time>
      </trkpt>
      <trkpt lat="46.019226098433137" lon="7.271926878020167">
        <ele>2175.1199999999999</ele>
        <time>2016-07-06T11:09:30Z</time>
      </trkpt>
      <trkpt lat="46.019168933853507" lon="7.272015558555722">
        <ele>2173.6799999999998</ele>
        <time>2016-07-06T11:09:42Z</time>
      </trkpt>
      <trkpt lat="46.019185781478882" lon="7.271994100883603">
        <ele>2174.1599999999999</ele>
        <time>2016-07-06T11:09:55Z</time>
      </trkpt>
      <trkpt lat="46.019136998802423" lon="7.272081524133682">
        <ele>2173.1999999999998</ele>
        <time>2016-07-06T11:10:05Z</time>
      </trkpt>
      <trkpt lat="46.019068015739322" lon="7.272213874384761">
        <ele>2173.6799999999998</ele>
        <time>2016-07-06T11:10:17Z</time>
      </trkpt>
      <trkpt lat="46.019010348245502" lon="7.272183448076248">
        <ele>2173.6799999999998</ele>
        <time>2016-07-06T11:10:35Z</time>
      </trkpt>
      <trkpt lat="46.01902543567121" lon="7.272184370085597">
        <ele>2173.1999999999998</ele>
        <time>2016-07-06T11:10:56Z</time>
      </trkpt>
      <trkpt lat="46.019030045717955" lon="7.272170120850205">
        <ele>2173.6799999999998</ele>
        <time>2016-07-06T11:11:14Z</time>
      </trkpt>
      <trkpt lat="46.019050246104598" lon="7.27218646556139">
        <ele>2173.6799999999998</ele>
        <time>2016-07-06T11:11:34Z</time>
      </trkpt>
      <trkpt lat="46.019076565280557" lon="7.272165259346366">
        <ele>2173.6799999999998</ele>
        <time>2016-07-06T11:11:49Z</time>
      </trkpt>
      <trkpt lat="46.01907966658473" lon="7.272167606279254">
        <ele>2173.6799999999998</ele>
        <time>2016-07-06T11:12:06Z</time>
      </trkpt>
      <trkpt lat="46.019109589979053" lon="7.272169953212142">
        <ele>2173.6799999999998</ele>
        <time>2016-07-06T11:12:20Z</time>
      </trkpt>
      <trkpt lat="46.019083438441157" lon="7.27213273756206">
        <ele>2173.6799999999998</ele>
        <time>2016-07-06T11:12:35Z</time>
      </trkpt>
      <trkpt lat="46.019089641049504" lon="7.272176407277584">
        <ele>2175.1199999999999</ele>
        <time>2016-07-06T11:12:59Z</time>
      </trkpt>
      <trkpt lat="46.01910606957972" lon="7.272211443632841">
        <ele>2174.1599999999999</ele>
        <time>2016-07-06T11:13:16Z</time>
      </trkpt>
      <trkpt lat="46.019140016287565" lon="7.272265674546361">
        <ele>2174.1599999999999</ele>
        <time>2016-07-06T11:13:25Z</time>
      </trkpt>
      <trkpt lat="46.019153678789735" lon="7.272282689809799">
        <ele>2174.1599999999999</ele>
        <time>2016-07-06T11:13:35Z</time>
      </trkpt>
      <trkpt lat="46.019149990752339" lon="7.272288389503956">
        <ele>2174.1599999999999</ele>
        <time>2016-07-06T11:13:58Z</time>
      </trkpt>
      <trkpt lat="46.019192654639482" lon="7.272296855226159">
        <ele>2174.6399999999999</ele>
        <time>2016-07-06T11:14:11Z</time>
      </trkpt>
      <trkpt lat="46.019173543900251" lon="7.272388720884919">
        <ele>2175.5999999999999</ele>
        <time>2016-07-06T11:14:18Z</time>
      </trkpt>
      <trkpt lat="46.019181339070201" lon="7.272426942363381">
        <ele>2176.0799999999999</ele>
        <time>2016-07-06T11:14:21Z</time>
      </trkpt>
      <trkpt lat="46.019208328798413" lon="7.272577648982406">
        <ele>2175.5999999999999</ele>
        <time>2016-07-06T11:14:31Z</time>
      </trkpt>
      <trkpt lat="46.019208747893572" lon="7.272631460800767">
        <ele>2176.0799999999999</ele>
        <time>2016-07-06T11:14:35Z</time>
      </trkpt>
      <trkpt lat="46.019238252192736" lon="7.272690888494253">
        <ele>2176.5599999999999</ele>
        <time>2016-07-06T11:14:40Z</time>
      </trkpt>
      <trkpt lat="46.019242191687226" lon="7.272768002003431">
        <ele>2176.0799999999999</ele>
        <time>2016-07-06T11:14:45Z</time>
      </trkpt>
      <trkpt lat="46.019250322133303" lon="7.272959612309933">
        <ele>2173.6799999999998</ele>
        <time>2016-07-06T11:14:57Z</time>
      </trkpt>
      <trkpt lat="46.019259709864855" lon="7.273122975602746">
        <ele>2174.1599999999999</ele>
        <time>2016-07-06T11:15:09Z</time>
      </trkpt>
      <trkpt lat="46.019287370145321" lon="7.273194473236799">
        <ele>2175.1199999999999</ele>
        <time>2016-07-06T11:15:18Z</time>
      </trkpt>
      <trkpt lat="46.019298015162349" lon="7.273292792961001">
        <ele>2175.1199999999999</ele>
        <time>2016-07-06T11:15:27Z</time>
      </trkpt>
      <trkpt lat="46.019312096759677" lon="7.273337803781033">
        <ele>2175.5999999999999</ele>
        <time>2016-07-06T11:15:31Z</time>
      </trkpt>
      <trkpt lat="46.019302206113935" lon="7.273456659168005">
        <ele>2173.1999999999998</ele>
        <time>2016-07-06T11:15:40Z</time>
      </trkpt>
      <trkpt lat="46.019282592460513" lon="7.273531090468168">
        <ele>2172.2399999999998</ele>
        <time>2016-07-06T11:15:46Z</time>
      </trkpt>
      <trkpt lat="46.019241521134973" lon="7.273609628900886">
        <ele>2172.2399999999998</ele>
        <time>2016-07-06T11:15:52Z</time>
      </trkpt>
      <trkpt lat="46.019180417060852" lon="7.273644413799048">
        <ele>2171.7600000000002</ele>
        <time>2016-07-06T11:16:00Z</time>
      </trkpt>
      <trkpt lat="46.019119983538985" lon="7.273747511208057">
        <ele>2169.3499999999999</ele>
        <time>2016-07-06T11:16:09Z</time>
      </trkpt>
      <trkpt lat="46.01911386474967" lon="7.273799311369658">
        <ele>2168.3899999999999</ele>
        <time>2016-07-06T11:16:13Z</time>
      </trkpt>
      <trkpt lat="46.019133729860187" lon="7.273816242814064">
        <ele>2167.9099999999999</ele>
        <time>2016-07-06T11:16:15Z</time>
      </trkpt>
      <trkpt lat="46.019143704324961" lon="7.273824708536267">
        <ele>2167.4299999999998</ele>
        <time>2016-07-06T11:16:16Z</time>
      </trkpt>
      <trkpt lat="46.01918033324182" lon="7.273912550881505">
        <ele>2166.4699999999998</ele>
        <time>2016-07-06T11:16:23Z</time>
      </trkpt>
      <trkpt lat="46.019190391525626" lon="7.273921016603708">
        <ele>2166.4699999999998</ele>
        <time>2016-07-06T11:16:24Z</time>
      </trkpt>
      <trkpt lat="46.019287370145321" lon="7.2740388661623">
        <ele>2164.5500000000002</ele>
        <time>2016-07-06T11:16:34Z</time>
      </trkpt>
      <trkpt lat="46.019382672384381" lon="7.274112123996019">
        <ele>2162.6199999999999</ele>
        <time>2016-07-06T11:16:43Z</time>
      </trkpt>
      <trkpt lat="46.019417373463511" lon="7.274140119552612">
        <ele>2161.6599999999999</ele>
        <time>2016-07-06T11:16:46Z</time>
      </trkpt>
      <trkpt lat="46.019450314342976" lon="7.274228632450104">
        <ele>2161.1799999999998</ele>
        <time>2016-07-06T11:16:51Z</time>
      </trkpt>
      <trkpt lat="46.019424330443144" lon="7.274354444816709">
        <ele>2162.6199999999999</ele>
        <time>2016-07-06T11:17:00Z</time>
      </trkpt>
      <trkpt lat="46.019401531666517" lon="7.274439185857773">
        <ele>2164.5500000000002</ele>
        <time>2016-07-06T11:17:11Z</time>
      </trkpt>
      <trkpt lat="46.019400022923946" lon="7.274511521682143">
        <ele>2165.0300000000002</ele>
        <time>2016-07-06T11:17:22Z</time>
      </trkpt>
      <trkpt lat="46.019426593557" lon="7.274550413712859">
        <ele>2165.0300000000002</ele>
        <time>2016-07-06T11:17:30Z</time>
      </trkpt>
      <trkpt lat="46.019442100077868" lon="7.274580337107182">
        <ele>2164.5500000000002</ele>
        <time>2016-07-06T11:17:33Z</time>
      </trkpt>
      <trkpt lat="46.019476549699903" lon="7.274667425081134">
        <ele>2165.5100000000002</ele>
        <time>2016-07-06T11:17:44Z</time>
      </trkpt>
      <trkpt lat="46.019480992108583" lon="7.274688882753253">
        <ele>2165.9899999999998</ele>
        <time>2016-07-06T11:17:54Z</time>
      </trkpt>
      <trkpt lat="46.019449140876532" lon="7.274764738976955">
        <ele>2166.9499999999998</ele>
        <time>2016-07-06T11:18:03Z</time>
      </trkpt>
      <trkpt lat="46.019439166411757" lon="7.274824166670442">
        <ele>2168.3899999999999</ele>
        <time>2016-07-06T11:18:12Z</time>
      </trkpt>
      <trkpt lat="46.019432125613093" lon="7.274855179712176">
        <ele>2168.8699999999999</ele>
        <time>2016-07-06T11:18:16Z</time>
      </trkpt>
      <trkpt lat="46.019462971016765" lon="7.274917708709836">
        <ele>2169.8299999999999</ele>
        <time>2016-07-06T11:18:25Z</time>
      </trkpt>
      <trkpt lat="46.019498007372022" lon="7.274977806955576">
        <ele>2169.3499999999999</ele>
        <time>2016-07-06T11:18:34Z</time>
      </trkpt>
      <trkpt lat="46.019509825855494" lon="7.275066655129194">
        <ele>2171.27</ele>
        <time>2016-07-06T11:18:44Z</time>
      </trkpt>
      <trkpt lat="46.019553076475859" lon="7.275124741718173">
        <ele>2172.7199999999998</ele>
        <time>2016-07-06T11:18:53Z</time>
      </trkpt>
      <trkpt lat="46.019596075639129" lon="7.275197328999639">
        <ele>2172.7199999999998</ele>
        <time>2016-07-06T11:19:01Z</time>
      </trkpt>
      <trkpt lat="46.019624741747975" lon="7.275284584611654">
        <ele>2173.6799999999998</ele>
        <time>2016-07-06T11:19:10Z</time>
      </trkpt>
      <trkpt lat="46.019655922427773" lon="7.275355830788612">
        <ele>2174.6399999999999</ele>
        <time>2016-07-06T11:19:20Z</time>
      </trkpt>
      <trkpt lat="46.019680229946971" lon="7.275430010631681">
        <ele>2175.1199999999999</ele>
        <time>2016-07-06T11:19:28Z</time>
      </trkpt>
      <trkpt lat="46.019689198583364" lon="7.275460939854384">
        <ele>2175.1199999999999</ele>
        <time>2016-07-06T11:19:30Z</time>
      </trkpt>
      <trkpt lat="46.01972172036767" lon="7.275500502437353">
        <ele>2175.1199999999999</ele>
        <time>2016-07-06T11:19:34Z</time>
      </trkpt>
      <trkpt lat="46.019738400354981" lon="7.275514667853713">
        <ele>2175.5999999999999</ele>
        <time>2016-07-06T11:19:36Z</time>
      </trkpt>
      <trkpt lat="46.019765976816416" lon="7.275589434430003">
        <ele>2175.1199999999999</ele>
        <time>2016-07-06T11:19:46Z</time>
      </trkpt>
      <trkpt lat="46.01979698985815" lon="7.275661267340183">
        <ele>2172.7199999999998</ele>
        <time>2016-07-06T11:19:56Z</time>
      </trkpt>
      <trkpt lat="46.019802605733275" lon="7.275667302310467">
        <ele>2172.2399999999998</ele>
        <time>2016-07-06T11:19:57Z</time>
      </trkpt>
      <trkpt lat="46.019878210499883" lon="7.275727735832334">
        <ele>2172.7199999999998</ele>
        <time>2016-07-06T11:20:07Z</time>
      </trkpt>
      <trkpt lat="46.019934704527259" lon="7.275808285921812">
        <ele>2173.6799999999998</ele>
        <time>2016-07-06T11:20:16Z</time>
      </trkpt>
      <trkpt lat="46.019980804994702" lon="7.275881040841341">
        <ele>2173.1999999999998</ele>
        <time>2016-07-06T11:20:23Z</time>
      </trkpt>
      <trkpt lat="46.020017769187689" lon="7.275983886793256">
        <ele>2173.1999999999998</ele>
        <time>2016-07-06T11:20:33Z</time>
      </trkpt>
      <trkpt lat="46.020025229081511" lon="7.27599386125803">
        <ele>2173.1999999999998</ele>
        <time>2016-07-06T11:20:34Z</time>
      </trkpt>
      <trkpt lat="46.020083734765649" lon="7.276084972545505">
        <ele>2174.6399999999999</ele>
        <time>2016-07-06T11:20:45Z</time>
      </trkpt>
      <trkpt lat="46.020134780555964" lon="7.276153285056353">
        <ele>2174.1599999999999</ele>
        <time>2016-07-06T11:20:53Z</time>
      </trkpt>
      <trkpt lat="46.020173504948616" lon="7.276243977248669">
        <ele>2175.1199999999999</ele>
        <time>2016-07-06T11:21:03Z</time>
      </trkpt>
      <trkpt lat="46.020236788317561" lon="7.276314971968532">
        <ele>2175.1199999999999</ele>
        <time>2016-07-06T11:21:13Z</time>
      </trkpt>
      <trkpt lat="46.020302334800363" lon="7.276382697746158">
        <ele>2173.6799999999998</ele>
        <time>2016-07-06T11:21:22Z</time>
      </trkpt>
      <trkpt lat="46.020385231822729" lon="7.276470623910427">
        <ele>2174.1599999999999</ele>
        <time>2016-07-06T11:21:33Z</time>
      </trkpt>
      <trkpt lat="46.020397301763296" lon="7.27649912238121">
        <ele>2174.1599999999999</ele>
        <time>2016-07-06T11:21:37Z</time>
      </trkpt>
      <trkpt lat="46.020470224320889" lon="7.276560226455331">
        <ele>2173.6799999999998</ele>
        <time>2016-07-06T11:21:48Z</time>
      </trkpt>
      <trkpt lat="46.020513642579317" lon="7.276583611965179">
        <ele>2174.1599999999999</ele>
        <time>2016-07-06T11:21:57Z</time>
      </trkpt>
      <trkpt lat="46.020561251789331" lon="7.27665695361793">
        <ele>2175.1199999999999</ele>
        <time>2016-07-06T11:22:08Z</time>
      </trkpt>
      <trkpt lat="46.020601065829396" lon="7.276701964437962">
        <ele>2177.04</ele>
        <time>2016-07-06T11:22:18Z</time>
      </trkpt>
      <trkpt lat="46.020610285922885" lon="7.276768768206239">
        <ele>2178.9699999999998</ele>
        <time>2016-07-06T11:22:29Z</time>
      </trkpt>
      <trkpt lat="46.020663762465119" lon="7.276824424043298">
        <ele>2180.4099999999999</ele>
        <time>2016-07-06T11:22:39Z</time>
      </trkpt>
      <trkpt lat="46.020690500736237" lon="7.276846552267671">
        <ele>2180.4099999999999</ele>
        <time>2016-07-06T11:22:42Z</time>
      </trkpt>
      <trkpt lat="46.020720843225718" lon="7.276904555037618">
        <ele>2181.3699999999999</ele>
        <time>2016-07-06T11:22:52Z</time>
      </trkpt>
      <trkpt lat="46.020739786326885" lon="7.276979656890035">
        <ele>2182.3299999999999</ele>
        <time>2016-07-06T11:23:02Z</time>
      </trkpt>
      <trkpt lat="46.0207873955369" lon="7.277027182281017">
        <ele>2183.77</ele>
        <time>2016-07-06T11:23:12Z</time>
      </trkpt>
      <trkpt lat="46.020802734419703" lon="7.277021314948797">
        <ele>2183.77</ele>
        <time>2016-07-06T11:23:19Z</time>
      </trkpt>
      <trkpt lat="46.020896947011352" lon="7.277077222242951">
        <ele>2183.77</ele>
        <time>2016-07-06T11:23:30Z</time>
      </trkpt>
      <trkpt lat="46.020913207903504" lon="7.277096332982183">
        <ele>2183.29</ele>
        <time>2016-07-06T11:23:33Z</time>
      </trkpt>
      <trkpt lat="46.020949250087142" lon="7.277155760675669">
        <ele>2182.3299999999999</ele>
        <time>2016-07-06T11:23:39Z</time>
      </trkpt>
      <trkpt lat="46.020956793799996" lon="7.277202196419239">
        <ele>2182.3299999999999</ele>
        <time>2016-07-06T11:23:42Z</time>
      </trkpt>
      <trkpt lat="46.020996943116188" lon="7.277331696823239">
        <ele>2180.8899999999999</ele>
        <time>2016-07-06T11:23:53Z</time>
      </trkpt>
      <trkpt lat="46.021001636981964" lon="7.277367822825909">
        <ele>2180.8899999999999</ele>
        <time>2016-07-06T11:23:56Z</time>
      </trkpt>
      <trkpt lat="46.021074810996652" lon="7.277474943548441">
        <ele>2180.4099999999999</ele>
        <time>2016-07-06T11:24:07Z</time>
      </trkpt>
      <trkpt lat="46.021121917292476" lon="7.277603773400188">
        <ele>2179.4499999999998</ele>
        <time>2016-07-06T11:24:18Z</time>
      </trkpt>
      <trkpt lat="46.021127616986632" lon="7.277618357911706">
        <ele>2178.9699999999998</ele>
        <time>2016-07-06T11:24:19Z</time>
      </trkpt>
      <trkpt lat="46.021188721060753" lon="7.277718689292669">
        <ele>2178</ele>
        <time>2016-07-06T11:24:29Z</time>
      </trkpt>
      <trkpt lat="46.021217219531536" lon="7.277746349573135">
        <ele>2177.52</ele>
        <time>2016-07-06T11:24:32Z</time>
      </trkpt>
      <trkpt lat="46.021257620304823" lon="7.277874341234565">
        <ele>2177.04</ele>
        <time>2016-07-06T11:24:43Z</time>
      </trkpt>
      <trkpt lat="46.021303134039044" lon="7.277992945164442">
        <ele>2175.5999999999999</ele>
        <time>2016-07-06T11:24:54Z</time>
      </trkpt>
      <trkpt lat="46.021325848996639" lon="7.278088498860598">
        <ele>2173.6799999999998</ele>
        <time>2016-07-06T11:25:01Z</time>
      </trkpt>
      <trkpt lat="46.021331548690796" lon="7.278215568512678">
        <ele>2174.1599999999999</ele>
        <time>2016-07-06T11:25:12Z</time>
      </trkpt>
      <trkpt lat="46.021333895623684" lon="7.278247252106667">
        <ele>2172.7199999999998</ele>
        <time>2016-07-06T11:25:16Z</time>
      </trkpt>
      <trkpt lat="46.021343367174268" lon="7.278316486626864">
        <ele>2173.1999999999998</ele>
        <time>2016-07-06T11:25:25Z</time>
      </trkpt>
      <trkpt lat="46.021368931978941" lon="7.278356468304992">
        <ele>2173.1999999999998</ele>
        <time>2016-07-06T11:25:32Z</time>
      </trkpt>
      <trkpt lat="46.021409248933196" lon="7.278425619006157">
        <ele>2172.7199999999998</ele>
        <time>2016-07-06T11:25:42Z</time>
      </trkpt>
      <trkpt lat="46.021433053538203" lon="7.278483286499977">
        <ele>2172.7199999999998</ele>
        <time>2016-07-06T11:25:49Z</time>
      </trkpt>
      <trkpt lat="46.021495833992958" lon="7.278547324240208">
        <ele>2171.7600000000002</ele>
        <time>2016-07-06T11:25:58Z</time>
      </trkpt>
      <trkpt lat="46.021581748500466" lon="7.278637429699302">
        <ele>2172.2399999999998</ele>
        <time>2016-07-06T11:26:09Z</time>
      </trkpt>
      <trkpt lat="46.021599434316158" lon="7.278659641742706">
        <ele>2172.2399999999998</ele>
        <time>2016-07-06T11:26:12Z</time>
      </trkpt>
      <trkpt lat="46.021622903645039" lon="7.278783610090613">
        <ele>2171.7600000000002</ele>
        <time>2016-07-06T11:26:23Z</time>
      </trkpt>
      <trkpt lat="46.021669842302799" lon="7.278902465477586">
        <ele>2170.79</ele>
        <time>2016-07-06T11:26:35Z</time>
      </trkpt>
      <trkpt lat="46.021713763475418" lon="7.278959043323994">
        <ele>2171.27</ele>
        <time>2016-07-06T11:26:43Z</time>
      </trkpt>
      <trkpt lat="46.021749805659056" lon="7.279008077457547">
        <ele>2173.1999999999998</ele>
        <time>2016-07-06T11:26:53Z</time>
      </trkpt>
      <trkpt lat="46.021788194775581" lon="7.279082927852869">
        <ele>2173.1999999999998</ele>
        <time>2016-07-06T11:27:04Z</time>
      </trkpt>
      <trkpt lat="46.021850807592273" lon="7.279233550652862">
        <ele>2173.1999999999998</ele>
        <time>2016-07-06T11:27:15Z</time>
      </trkpt>
      <trkpt lat="46.02188634686172" lon="7.27934829890728">
        <ele>2173.1999999999998</ele>
        <time>2016-07-06T11:27:24Z</time>
      </trkpt>
      <trkpt lat="46.021898500621319" lon="7.279430022463203">
        <ele>2173.1999999999998</ele>
        <time>2016-07-06T11:27:31Z</time>
      </trkpt>
      <trkpt lat="46.021910486742854" lon="7.279555667191744">
        <ele>2172.2399999999998</ele>
        <time>2016-07-06T11:27:42Z</time>
      </trkpt>
      <trkpt lat="46.021915767341852" lon="7.279602270573378">
        <ele>2171.7600000000002</ele>
        <time>2016-07-06T11:27:45Z</time>
      </trkpt>
      <trkpt lat="46.021935464814305" lon="7.279702350497246">
        <ele>2171.27</ele>
        <time>2016-07-06T11:27:55Z</time>
      </trkpt>
      <trkpt lat="46.021969243884087" lon="7.279819697141647">
        <ele>2171.27</ele>
        <time>2016-07-06T11:28:06Z</time>
      </trkpt>
      <trkpt lat="46.021950468420982" lon="7.279922375455499">
        <ele>2171.7600000000002</ele>
        <time>2016-07-06T11:28:16Z</time>
      </trkpt>
      <trkpt lat="46.021959939971566" lon="7.280002422630787">
        <ele>2173.1999999999998</ele>
        <time>2016-07-06T11:28:26Z</time>
      </trkpt>
      <trkpt lat="46.021938398480415" lon="7.280079619958997">
        <ele>2175.1199999999999</ele>
        <time>2016-07-06T11:28:38Z</time>
      </trkpt>
      <trkpt lat="46.021911492571235" lon="7.280143070966005">
        <ele>2177.04</ele>
        <time>2016-07-06T11:28:50Z</time>
      </trkpt>
      <trkpt lat="46.021911324933171" lon="7.280168971046805">
        <ele>2177.52</ele>
        <time>2016-07-06T11:28:54Z</time>
      </trkpt>
      <trkpt lat="46.021946026012301" lon="7.280197804793716">
        <ele>2177.52</ele>
        <time>2016-07-06T11:28:59Z</time>
      </trkpt>
      <trkpt lat="46.021993886679411" lon="7.280262345448136">
        <ele>2178</ele>
        <time>2016-07-06T11:29:09Z</time>
      </trkpt>
      <trkpt lat="46.022013332694769" lon="7.280336441472173">
        <ele>2178.48</ele>
        <time>2016-07-06T11:29:18Z</time>
      </trkpt>
      <trkpt lat="46.022044094279408" lon="7.280384637415409">
        <ele>2178</ele>
        <time>2016-07-06T11:29:27Z</time>
      </trkpt>
      <trkpt lat="46.02204417809844" lon="7.280392097309232">
        <ele>2177.04</ele>
        <time>2016-07-06T11:29:28Z</time>
      </trkpt>
      <trkpt lat="46.022074520587921" lon="7.280473904684186">
        <ele>2177.04</ele>
        <time>2016-07-06T11:29:36Z</time>
      </trkpt>
      <trkpt lat="46.022101594135165" lon="7.280566776171327">
        <ele>2176.0799999999999</ele>
        <time>2016-07-06T11:29:46Z</time>
      </trkpt>
      <trkpt lat="46.022131852805614" lon="7.280610864982009">
        <ele>2175.5999999999999</ele>
        <time>2016-07-06T11:29:53Z</time>
      </trkpt>
      <trkpt lat="46.022138725966215" lon="7.28071010671556">
        <ele>2176.0799999999999</ele>
        <time>2016-07-06T11:30:04Z</time>
      </trkpt>
      <trkpt lat="46.022145180031657" lon="7.280800212174654">
        <ele>2174.6399999999999</ele>
        <time>2016-07-06T11:30:15Z</time>
      </trkpt>
      <trkpt lat="46.022152472287416" lon="7.280898531898856">
        <ele>2174.1599999999999</ele>
        <time>2016-07-06T11:30:25Z</time>
      </trkpt>
      <trkpt lat="46.022144760936499" lon="7.280953684821725">
        <ele>2172.2399999999998</ele>
        <time>2016-07-06T11:30:30Z</time>
      </trkpt>
      <trkpt lat="46.022145515307784" lon="7.28102870285511">
        <ele>2172.2399999999998</ele>
        <time>2016-07-06T11:30:40Z</time>
      </trkpt>
      <trkpt lat="46.022176276892424" lon="7.281129118055105">
        <ele>2170.79</ele>
        <time>2016-07-06T11:30:51Z</time>
      </trkpt>
      <trkpt lat="46.022203853353858" lon="7.281231377273798">
        <ele>2170.3099999999999</ele>
        <time>2016-07-06T11:30:59Z</time>
      </trkpt>
      <trkpt lat="46.022186335176229" lon="7.281409995630384">
        <ele>2169.3499999999999</ele>
        <time>2016-07-06T11:31:11Z</time>
      </trkpt>
      <trkpt lat="46.022207709029317" lon="7.281515188515186">
        <ele>2168.3899999999999</ele>
        <time>2016-07-06T11:31:21Z</time>
      </trkpt>
      <trkpt lat="46.022151969373226" lon="7.281631361693144">
        <ele>2167.9099999999999</ele>
        <time>2016-07-06T11:31:31Z</time>
      </trkpt>
      <trkpt lat="46.022150041535497" lon="7.281680228188634">
        <ele>2167.4299999999998</ele>
        <time>2016-07-06T11:31:35Z</time>
      </trkpt>
      <trkpt lat="46.022161524742842" lon="7.281696489080787">
        <ele>2167.4299999999998</ele>
        <time>2016-07-06T11:31:37Z</time>
      </trkpt>
      <trkpt lat="46.02216781117022" lon="7.281767819076777">
        <ele>2166.9499999999998</ele>
        <time>2016-07-06T11:31:42Z</time>
      </trkpt>
      <trkpt lat="46.022145263850689" lon="7.281845603138208">
        <ele>2166.9499999999998</ele>
        <time>2016-07-06T11:31:47Z</time>
      </trkpt>
      <trkpt lat="46.022145515307784" lon="7.281945096328855">
        <ele>2168.3899999999999</ele>
        <time>2016-07-06T11:31:58Z</time>
      </trkpt>
      <trkpt lat="46.022161273285747" lon="7.282025227323175">
        <ele>2168.8699999999999</ele>
        <time>2016-07-06T11:32:07Z</time>
      </trkpt>
      <trkpt lat="46.022170409560204" lon="7.282032016664743">
        <ele>2168.3899999999999</ele>
        <time>2016-07-06T11:32:09Z</time>
      </trkpt>
      <trkpt lat="46.022229669615626" lon="7.282136119902134">
        <ele>2167.4299999999998</ele>
        <time>2016-07-06T11:32:20Z</time>
      </trkpt>
      <trkpt lat="46.022232016548514" lon="7.28215154260397">
        <ele>2167.4299999999998</ele>
        <time>2016-07-06T11:32:21Z</time>
      </trkpt>
      <trkpt lat="46.022253474220634" lon="7.282222118228674">
        <ele>2167.9099999999999</ele>
        <time>2016-07-06T11:32:28Z</time>
      </trkpt>
      <trkpt lat="46.022286331281066" lon="7.282258244231343">
        <ele>2167.4299999999998</ele>
        <time>2016-07-06T11:32:37Z</time>
      </trkpt>
      <trkpt lat="46.022298401221633" lon="7.282285736873746">
        <ele>2165.9899999999998</ele>
        <time>2016-07-06T11:32:44Z</time>
      </trkpt>
      <trkpt lat="46.022298401221633" lon="7.282339632511139">
        <ele>2165.0300000000002</ele>
        <time>2016-07-06T11:32:50Z</time>
      </trkpt>
      <trkpt lat="46.022301083430648" lon="7.282412555068731">
        <ele>2164.0599999999999</ele>
        <time>2016-07-06T11:32:54Z</time>
      </trkpt>
      <trkpt lat="46.022311141714454" lon="7.28243887424469">
        <ele>2164.0599999999999</ele>
        <time>2016-07-06T11:32:56Z</time>
      </trkpt>
      <trkpt lat="46.022354308515787" lon="7.282598465681076">
        <ele>2163.5799999999999</ele>
        <time>2016-07-06T11:33:07Z</time>
      </trkpt>
      <trkpt lat="46.022366881370544" lon="7.282660324126482">
        <ele>2162.6199999999999</ele>
        <time>2016-07-06T11:33:12Z</time>
      </trkpt>
      <trkpt lat="46.022399067878723" lon="7.282684547826648">
        <ele>2162.6199999999999</ele>
        <time>2016-07-06T11:33:17Z</time>
      </trkpt>
      <trkpt lat="46.022429578006268" lon="7.282699132338166">
        <ele>2162.1399999999999</ele>
        <time>2016-07-06T11:33:21Z</time>
      </trkpt>
      <trkpt lat="46.022426392883062" lon="7.282744729891419">
        <ele>2161.6599999999999</ele>
        <time>2016-07-06T11:33:30Z</time>
      </trkpt>
      <trkpt lat="46.022467045113444" lon="7.282789740711451">
        <ele>2161.1799999999998</ele>
        <time>2016-07-06T11:33:34Z</time>
      </trkpt>
      <trkpt lat="46.022469475865364" lon="7.282842798158526">
        <ele>2160.6999999999998</ele>
        <time>2016-07-06T11:33:37Z</time>
      </trkpt>
      <trkpt lat="46.0224624350667" lon="7.282873056828976">
        <ele>2160.6999999999998</ele>
        <time>2016-07-06T11:33:39Z</time>
      </trkpt>
      <trkpt lat="46.022425638511777" lon="7.282993672415614">
        <ele>2159.7399999999998</ele>
        <time>2016-07-06T11:33:49Z</time>
      </trkpt>
      <trkpt lat="46.022383896633983" lon="7.283046394586563">
        <ele>2159.7399999999998</ele>
        <time>2016-07-06T11:33:59Z</time>
      </trkpt>
      <trkpt lat="46.022343998774886" lon="7.283066092059016">
        <ele>2159.7399999999998</ele>
        <time>2016-07-06T11:34:14Z</time>
      </trkpt>
      <trkpt lat="46.022334024310112" lon="7.283068103715777">
        <ele>2159.7399999999998</ele>
        <time>2016-07-06T11:34:15Z</time>
      </trkpt>
      <trkpt lat="46.022258838638663" lon="7.283120658248663">
        <ele>2159.7399999999998</ele>
        <time>2016-07-06T11:34:25Z</time>
      </trkpt>
      <trkpt lat="46.022242913022637" lon="7.283135745674372">
        <ele>2159.2600000000002</ele>
        <time>2016-07-06T11:34:27Z</time>
      </trkpt>
      <trkpt lat="46.022165045142174" lon="7.283195341005921">
        <ele>2158.3000000000002</ele>
        <time>2016-07-06T11:34:36Z</time>
      </trkpt>
      <trkpt lat="46.022110395133495" lon="7.28324169293046">
        <ele>2156.8600000000001</ele>
        <time>2016-07-06T11:34:43Z</time>
      </trkpt>
      <trkpt lat="46.02203537710011" lon="7.283276477828622">
        <ele>2155.4099999999999</ele>
        <time>2016-07-06T11:34:50Z</time>
      </trkpt>
      <trkpt lat="46.021989779546857" lon="7.283281339332461">
        <ele>2155.4099999999999</ele>
        <time>2016-07-06T11:34:54Z</time>
      </trkpt>
      <trkpt lat="46.021952480077744" lon="7.283343030139804">
        <ele>2155.4099999999999</ele>
        <time>2016-07-06T11:35:04Z</time>
      </trkpt>
      <trkpt lat="46.021956000477076" lon="7.283388208597899">
        <ele>2157.3400000000001</ele>
        <time>2016-07-06T11:35:10Z</time>
      </trkpt>
      <trkpt lat="46.021916605532169" lon="7.283480912446976">
        <ele>2157.8200000000002</ele>
        <time>2016-07-06T11:35:18Z</time>
      </trkpt>
      <trkpt lat="46.021859860047698" lon="7.283535981550813">
        <ele>2158.3000000000002</ele>
        <time>2016-07-06T11:35:27Z</time>
      </trkpt>
      <trkpt lat="46.021836223080754" lon="7.28353975340724">
        <ele>2158.3000000000002</ele>
        <time>2016-07-06T11:35:35Z</time>
      </trkpt>
      <trkpt lat="46.021743100136518" lon="7.283531036227942">
        <ele>2158.3000000000002</ele>
        <time>2016-07-06T11:35:44Z</time>
      </trkpt>
      <trkpt lat="46.021714936941862" lon="7.283542519435287">
        <ele>2158.3000000000002</ele>
        <time>2016-07-06T11:35:47Z</time>
      </trkpt>
      <trkpt lat="46.021696999669075" lon="7.283557523041964">
        <ele>2158.7800000000002</ele>
        <time>2016-07-06T11:35:49Z</time>
      </trkpt>
      <trkpt lat="46.021679313853383" lon="7.28357789106667">
        <ele>2158.7800000000002</ele>
        <time>2016-07-06T11:35:51Z</time>
      </trkpt>
      <trkpt lat="46.021648552268744" lon="7.283598762005568">
        <ele>2159.2600000000002</ele>
        <time>2016-07-06T11:35:54Z</time>
      </trkpt>
      <trkpt lat="46.021603457629681" lon="7.283682832494378">
        <ele>2160.2199999999998</ele>
        <time>2016-07-06T11:36:03Z</time>
      </trkpt>
      <trkpt lat="46.021565403789282" lon="7.283762376755476">
        <ele>2159.7399999999998</ele>
        <time>2016-07-06T11:36:10Z</time>
      </trkpt>
      <trkpt lat="46.021550986915827" lon="7.28381484746933">
        <ele>2160.2199999999998</ele>
        <time>2016-07-06T11:36:14Z</time>
      </trkpt>
      <trkpt lat="46.021552830934525" lon="7.283852817490697">
        <ele>2160.2199999999998</ele>
        <time>2016-07-06T11:36:17Z</time>
      </trkpt>
      <trkpt lat="46.021530283614993" lon="7.283871425315738">
        <ele>2160.6999999999998</ele>
        <time>2016-07-06T11:36:28Z</time>
      </trkpt>
      <trkpt lat="46.021521482616663" lon="7.283881902694702">
        <ele>2160.6999999999998</ele>
        <time>2016-07-06T11:36:30Z</time>
      </trkpt>
      <trkpt lat="46.021488374099135" lon="7.283916771411896">
        <ele>2160.6999999999998</ele>
        <time>2016-07-06T11:36:34Z</time>
      </trkpt>
      <trkpt lat="46.02140991948545" lon="7.284016096964479">
        <ele>2159.7399999999998</ele>
        <time>2016-07-06T11:36:44Z</time>
      </trkpt>
      <trkpt lat="46.021354598924518" lon="7.284003272652626">
        <ele>2160.2199999999998</ele>
        <time>2016-07-06T11:36:50Z</time>
      </trkpt>
      <trkpt lat="46.021324004977942" lon="7.283976869657636">
        <ele>2160.2199999999998</ele>
        <time>2016-07-06T11:36:53Z</time>
      </trkpt>
      <trkpt lat="46.021301876753569" lon="7.28398634120822">
        <ele>2159.7399999999998</ele>
        <time>2016-07-06T11:36:55Z</time>
      </trkpt>
      <trkpt lat="46.021233312785625" lon="7.28411533869803">
        <ele>2160.2199999999998</ele>
        <time>2016-07-06T11:37:06Z</time>
      </trkpt>
      <trkpt lat="46.021215375512838" lon="7.284176275134087">
        <ele>2160.2199999999998</ele>
        <time>2016-07-06T11:37:12Z</time>
      </trkpt>
      <trkpt lat="46.02120372466743" lon="7.284215837717056">
        <ele>2159.7399999999998</ele>
        <time>2016-07-06T11:37:15Z</time>
      </trkpt>
      <trkpt lat="46.021101884543896" lon="7.284316504374147">
        <ele>2159.2600000000002</ele>
        <time>2016-07-06T11:37:27Z</time>
      </trkpt>
      <trkpt lat="46.021045977249742" lon="7.284371070563793">
        <ele>2160.6999999999998</ele>
        <time>2016-07-06T11:37:35Z</time>
      </trkpt>
      <trkpt lat="46.021016137674451" lon="7.284408453851938">
        <ele>2161.1799999999998</ele>
        <time>2016-07-06T11:37:39Z</time>
      </trkpt>
      <trkpt lat="46.020993003621697" lon="7.284424128010869">
        <ele>2161.6599999999999</ele>
        <time>2016-07-06T11:37:42Z</time>
      </trkpt>
      <trkpt lat="46.020939946174622" lon="7.284506689757109">
        <ele>2163.0999999999999</ele>
        <time>2016-07-06T11:37:52Z</time>
      </trkpt>
      <trkpt lat="46.020886218175292" lon="7.284547593444586">
        <ele>2165.0300000000002</ele>
        <time>2016-07-06T11:38:02Z</time>
      </trkpt>
      <trkpt lat="46.020838273689151" lon="7.284618588164449">
        <ele>2165.0300000000002</ele>
        <time>2016-07-06T11:38:11Z</time>
      </trkpt>
      <trkpt lat="46.020788736641407" lon="7.28474766947329">
        <ele>2163.5799999999999</ele>
        <time>2016-07-06T11:38:21Z</time>
      </trkpt>
      <trkpt lat="46.020744312554598" lon="7.284845402464271">
        <ele>2163.5799999999999</ele>
        <time>2016-07-06T11:38:32Z</time>
      </trkpt>
      <trkpt lat="46.02073660120368" lon="7.284877086058259">
        <ele>2163.5799999999999</ele>
        <time>2016-07-06T11:38:51Z</time>
      </trkpt>
      <trkpt lat="46.020732242614031" lon="7.284880522638559">
        <ele>2163.5799999999999</ele>
        <time>2016-07-06T11:39:05Z</time>
      </trkpt>
      <trkpt lat="46.020714640617371" lon="7.284876750782132">
        <ele>2164.0599999999999</ele>
        <time>2016-07-06T11:39:07Z</time>
      </trkpt>
      <trkpt lat="46.020672563463449" lon="7.284920336678624">
        <ele>2164.0599999999999</ele>
        <time>2016-07-06T11:39:16Z</time>
      </trkpt>
      <trkpt lat="46.020650435239077" lon="7.284922432154417">
        <ele>2164.0599999999999</ele>
        <time>2016-07-06T11:39:31Z</time>
      </trkpt>
      <trkpt lat="46.020632665604353" lon="7.284917151555419">
        <ele>2165.0300000000002</ele>
        <time>2016-07-06T11:39:34Z</time>
      </trkpt>
      <trkpt lat="46.020596539601684" lon="7.284939279779792">
        <ele>2165.9899999999998</ele>
        <time>2016-07-06T11:39:40Z</time>
      </trkpt>
      <trkpt lat="46.020571645349264" lon="7.28496266528964">
        <ele>2165.0300000000002</ele>
        <time>2016-07-06T11:39:43Z</time>
      </trkpt>
      <trkpt lat="46.020516576245427" lon="7.284971047192812">
        <ele>2165.9899999999998</ele>
        <time>2016-07-06T11:39:54Z</time>
      </trkpt>
      <trkpt lat="46.020516576245427" lon="7.284986302256584">
        <ele>2165.9899999999998</ele>
        <time>2016-07-06T11:40:03Z</time>
      </trkpt>
      <trkpt lat="46.020469218492508" lon="7.28504866361618">
        <ele>2166.9499999999998</ele>
        <time>2016-07-06T11:40:12Z</time>
      </trkpt>
      <trkpt lat="46.020412473008037" lon="7.285073641687632">
        <ele>2165.5100000000002</ele>
        <time>2016-07-06T11:40:20Z</time>
      </trkpt>
      <trkpt lat="46.020398894324899" lon="7.28507942520082">
        <ele>2165.9899999999998</ele>
        <time>2016-07-06T11:40:22Z</time>
      </trkpt>
      <trkpt lat="46.020339215174317" lon="7.285144720226526">
        <ele>2164.5500000000002</ele>
        <time>2016-07-06T11:40:30Z</time>
      </trkpt>
      <trkpt lat="46.020304514095187" lon="7.285244045779109">
        <ele>2163.5799999999999</ele>
        <time>2016-07-06T11:40:38Z</time>
      </trkpt>
      <trkpt lat="46.0202606767416" lon="7.285295007750392">
        <ele>2163.5799999999999</ele>
        <time>2016-07-06T11:40:44Z</time>
      </trkpt>
      <trkpt lat="46.020224718376994" lon="7.28535451926291">
        <ele>2162.1399999999999</ele>
        <time>2016-07-06T11:40:50Z</time>
      </trkpt>
      <trkpt lat="46.020167218521237" lon="7.285462897270918">
        <ele>2159.7399999999998</ele>
        <time>2016-07-06T11:41:02Z</time>
      </trkpt>
      <trkpt lat="46.020078957080841" lon="7.285558534786105">
        <ele>2158.7800000000002</ele>
        <time>2016-07-06T11:41:14Z</time>
      </trkpt>
      <trkpt lat="46.020029839128256" lon="7.2856555134058">
        <ele>2157.3400000000001</ele>
        <time>2016-07-06T11:41:23Z</time>
      </trkpt>
      <trkpt lat="46.02001441642642" lon="7.285700356587768">
        <ele>2156.8600000000001</ele>
        <time>2016-07-06T11:41:27Z</time>
      </trkpt>
      <trkpt lat="46.020018942654133" lon="7.285744529217482">
        <ele>2155.8899999999999</ele>
        <time>2016-07-06T11:41:30Z</time>
      </trkpt>
      <trkpt lat="46.019989354535937" lon="7.285826420411468">
        <ele>2155.4099999999999</ele>
        <time>2016-07-06T11:41:37Z</time>
      </trkpt>
      <trkpt lat="46.019940488040447" lon="7.285893140360713">
        <ele>2154.9299999999998</ele>
        <time>2016-07-06T11:41:43Z</time>
      </trkpt>
      <trkpt lat="46.019924730062485" lon="7.285930691286922">
        <ele>2154.9299999999998</ele>
        <time>2016-07-06T11:41:46Z</time>
      </trkpt>
      <trkpt lat="46.019862117245793" lon="7.286001099273562">
        <ele>2154.4499999999998</ele>
        <time>2016-07-06T11:41:53Z</time>
      </trkpt>
      <trkpt lat="46.019851975142956" lon="7.286019790917635">
        <ele>2154.9299999999998</ele>
        <time>2016-07-06T11:41:55Z</time>
      </trkpt>
      <trkpt lat="46.019775867462158" lon="7.286113081499934">
        <ele>2154.9299999999998</ele>
        <time>2016-07-06T11:42:04Z</time>
      </trkpt>
      <trkpt lat="46.019746949896216" lon="7.286158008500934">
        <ele>2154.9299999999998</ele>
        <time>2016-07-06T11:42:08Z</time>
      </trkpt>
      <trkpt lat="46.019703280180693" lon="7.286213329061866">
        <ele>2155.4099999999999</ele>
        <time>2016-07-06T11:42:14Z</time>
      </trkpt>
      <trkpt lat="46.019649719819427" lon="7.286330172792077">
        <ele>2154.9299999999998</ele>
        <time>2016-07-06T11:42:23Z</time>
      </trkpt>
      <trkpt lat="46.019611833617091" lon="7.286411058157682">
        <ele>2154.4499999999998</ele>
        <time>2016-07-06T11:42:29Z</time>
      </trkpt>
      <trkpt lat="46.019547544419765" lon="7.286462523043156">
        <ele>2155.4099999999999</ele>
        <time>2016-07-06T11:42:38Z</time>
      </trkpt>
      <trkpt lat="46.019532037898898" lon="7.286523208022118">
        <ele>2154.4499999999998</ele>
        <time>2016-07-06T11:42:44Z</time>
      </trkpt>
      <trkpt lat="46.01952726021409" lon="7.286546006798744">
        <ele>2153.9699999999998</ele>
        <time>2016-07-06T11:42:46Z</time>
      </trkpt>
      <trkpt lat="46.019479818642139" lon="7.28667919524014">
        <ele>2153.0100000000002</ele>
        <time>2016-07-06T11:42:56Z</time>
      </trkpt>
      <trkpt lat="46.019453918561339" lon="7.286717332899571">
        <ele>2152.5300000000002</ele>
        <time>2016-07-06T11:43:01Z</time>
      </trkpt>
      <trkpt lat="46.019451320171356" lon="7.286766534671187">
        <ele>2152.0500000000002</ele>
        <time>2016-07-06T11:43:04Z</time>
      </trkpt>
      <trkpt lat="46.019426845014095" lon="7.286821100860834">
        <ele>2152.0500000000002</ele>
        <time>2016-07-06T11:43:14Z</time>
      </trkpt>
      <trkpt lat="46.019401699304581" lon="7.286845576018095">
        <ele>2152.0500000000002</ele>
        <time>2016-07-06T11:43:28Z</time>
      </trkpt>
      <trkpt lat="46.019393736496568" lon="7.286850353702903">
        <ele>2152.0500000000002</ele>
        <time>2016-07-06T11:43:29Z</time>
      </trkpt>
      <trkpt lat="46.019347887486219" lon="7.286894442513585">
        <ele>2150.6100000000001</ele>
        <time>2016-07-06T11:43:35Z</time>
      </trkpt>
      <trkpt lat="46.019221488386393" lon="7.286958144977689">
        <ele>2148.6799999999998</ele>
        <time>2016-07-06T11:43:48Z</time>
      </trkpt>
      <trkpt lat="46.019205059856176" lon="7.286958815529943">
        <ele>2148.1999999999998</ele>
        <time>2016-07-06T11:43:50Z</time>
      </trkpt>
      <trkpt lat="46.019197683781385" lon="7.286974657326937">
        <ele>2147.2399999999998</ele>
        <time>2016-07-06T11:43:52Z</time>
      </trkpt>
      <trkpt lat="46.019173795357347" lon="7.28700952604413">
        <ele>2146.2800000000002</ele>
        <time>2016-07-06T11:43:56Z</time>
      </trkpt>
      <trkpt lat="46.019095592200756" lon="7.287058057263494">
        <ele>2146.2800000000002</ele>
        <time>2016-07-06T11:44:06Z</time>
      </trkpt>
      <trkpt lat="46.019031135365367" lon="7.287171380594373">
        <ele>2145.8000000000002</ele>
        <time>2016-07-06T11:44:18Z</time>
      </trkpt>
      <trkpt lat="46.018997440114617" lon="7.287272047251463">
        <ele>2145.3200000000002</ele>
        <time>2016-07-06T11:44:27Z</time>
      </trkpt>
      <trkpt lat="46.018991740420461" lon="7.287317980080843">
        <ele>2144.8400000000001</ele>
        <time>2016-07-06T11:44:30Z</time>
      </trkpt>
      <trkpt lat="46.018974306061864" lon="7.287345724180341">
        <ele>2145.8000000000002</ele>
        <time>2016-07-06T11:44:39Z</time>
      </trkpt>
      <trkpt lat="46.018969779834151" lon="7.287346562370658">
        <ele>2145.3200000000002</ele>
        <time>2016-07-06T11:44:55Z</time>
      </trkpt>
      <trkpt lat="46.018959889188409" lon="7.287341617047787">
        <ele>2145.3200000000002</ele>
        <time>2016-07-06T11:45:10Z</time>
      </trkpt>
      <trkpt lat="46.018966007977724" lon="7.287332899868488">
        <ele>2145.3200000000002</ele>
        <time>2016-07-06T11:45:22Z</time>
      </trkpt>
      <trkpt lat="46.018948238343" lon="7.287326026707888">
        <ele>2145.8000000000002</ele>
        <time>2016-07-06T11:45:39Z</time>
      </trkpt>
      <trkpt lat="46.018973216414452" lon="7.287355782464147">
        <ele>2145.3200000000002</ele>
        <time>2016-07-06T11:45:56Z</time>
      </trkpt>
      <trkpt lat="46.018966007977724" lon="7.28731781244278">
        <ele>2145.8000000000002</ele>
        <time>2016-07-06T11:46:10Z</time>
      </trkpt>
      <trkpt lat="46.018966846168041" lon="7.287337174639106">
        <ele>2145.3200000000002</ele>
        <time>2016-07-06T11:46:27Z</time>
      </trkpt>
      <trkpt lat="46.018951507285237" lon="7.287342706695199">
        <ele>2146.2800000000002</ele>
        <time>2016-07-06T11:46:46Z</time>
      </trkpt>
      <trkpt lat="46.018949244171381" lon="7.287392327561975">
        <ele>2145.3200000000002</ele>
        <time>2016-07-06T11:46:57Z</time>
      </trkpt>
      <trkpt lat="46.018950417637825" lon="7.287451000884175">
        <ele>2145.3200000000002</ele>
        <time>2016-07-06T11:47:02Z</time>
      </trkpt>
      <trkpt lat="46.018933318555355" lon="7.287526354193687">
        <ele>2144.8400000000001</ele>
        <time>2016-07-06T11:47:09Z</time>
      </trkpt>
      <trkpt lat="46.018930468708277" lon="7.287572119385004">
        <ele>2142.9200000000001</ele>
        <time>2016-07-06T11:47:13Z</time>
      </trkpt>
      <trkpt lat="46.018836675211787" lon="7.287682928144932">
        <ele>2142.4400000000001</ele>
        <time>2016-07-06T11:47:25Z</time>
      </trkpt>
      <trkpt lat="46.018728548660874" lon="7.287732297554612">
        <ele>2142.4400000000001</ele>
        <time>2016-07-06T11:47:36Z</time>
      </trkpt>
      <trkpt lat="46.018696445971727" lon="7.287756940349937">
        <ele>2142.4400000000001</ele>
        <time>2016-07-06T11:47:41Z</time>
      </trkpt>
      <trkpt lat="46.018601981922984" lon="7.287870263680816">
        <ele>2140.0300000000002</ele>
        <time>2016-07-06T11:47:54Z</time>
      </trkpt>
      <trkpt lat="46.018595192581415" lon="7.287881160154939">
        <ele>2140.0300000000002</ele>
        <time>2016-07-06T11:47:55Z</time>
      </trkpt>
      <trkpt lat="46.018552612513304" lon="7.287986017763615">
        <ele>2140.9899999999998</ele>
        <time>2016-07-06T11:48:06Z</time>
      </trkpt>
      <trkpt lat="46.018465021625161" lon="7.288074865937233">
        <ele>2139.5500000000002</ele>
        <time>2016-07-06T11:48:16Z</time>
      </trkpt>
      <trkpt lat="46.018417328596115" lon="7.288103029131889">
        <ele>2139.5500000000002</ele>
        <time>2016-07-06T11:48:21Z</time>
      </trkpt>
      <trkpt lat="46.018350692465901" lon="7.288205455988646">
        <ele>2140.9899999999998</ele>
        <time>2016-07-06T11:48:33Z</time>
      </trkpt>
      <trkpt lat="46.018331162631512" lon="7.288214676082134">
        <ele>2140.9899999999998</ele>
        <time>2016-07-06T11:48:35Z</time>
      </trkpt>
      <trkpt lat="46.018229322507977" lon="7.288276283070445">
        <ele>2141.9499999999998</ele>
        <time>2016-07-06T11:48:48Z</time>
      </trkpt>
      <trkpt lat="46.018167966976762" lon="7.288347445428371">
        <ele>2142.9200000000001</ele>
        <time>2016-07-06T11:48:58Z</time>
      </trkpt>
      <trkpt lat="46.018074927851558" lon="7.288378877565265">
        <ele>2143.8800000000001</ele>
        <time>2016-07-06T11:49:08Z</time>
      </trkpt>
      <trkpt lat="46.018002843484282" lon="7.28842849843204">
        <ele>2145.3200000000002</ele>
        <time>2016-07-06T11:49:18Z</time>
      </trkpt>
      <trkpt lat="46.017935536801815" lon="7.288453727960587">
        <ele>2146.2800000000002</ele>
        <time>2016-07-06T11:49:28Z</time>
      </trkpt>
      <trkpt lat="46.017854567617178" lon="7.288477784022689">
        <ele>2147.2399999999998</ele>
        <time>2016-07-06T11:49:39Z</time>
      </trkpt>
      <trkpt lat="46.017780723050237" lon="7.288497146219015">
        <ele>2146.7600000000002</ele>
        <time>2016-07-06T11:49:47Z</time>
      </trkpt>
      <trkpt lat="46.01776085793972" lon="7.288606446236372">
        <ele>2147.7199999999998</ele>
        <time>2016-07-06T11:49:58Z</time>
      </trkpt>
      <trkpt lat="46.017724648118019" lon="7.288656402379274">
        <ele>2148.1999999999998</ele>
        <time>2016-07-06T11:50:05Z</time>
      </trkpt>
      <trkpt lat="46.017612498253584" lon="7.288705771788955">
        <ele>2149.1599999999999</ele>
        <time>2016-07-06T11:50:18Z</time>
      </trkpt>
      <trkpt lat="46.017559692263603" lon="7.288730414584279">
        <ele>2149.1599999999999</ele>
        <time>2016-07-06T11:50:25Z</time>
      </trkpt>
      <trkpt lat="46.017544269561768" lon="7.288765534758568">
        <ele>2148.6799999999998</ele>
        <time>2016-07-06T11:50:28Z</time>
      </trkpt>
      <trkpt lat="46.017437735572457" lon="7.288814652711153">
        <ele>2148.6799999999998</ele>
        <time>2016-07-06T11:50:41Z</time>
      </trkpt>
      <trkpt lat="46.017317203804851" lon="7.288850778713822">
        <ele>2149.6500000000001</ele>
        <time>2016-07-06T11:50:56Z</time>
      </trkpt>
      <trkpt lat="46.017236234620214" lon="7.288916576653719">
        <ele>2152.5300000000002</ele>
        <time>2016-07-06T11:51:09Z</time>
      </trkpt>
      <trkpt lat="46.017204718664289" lon="7.288944739848375">
        <ele>2153.0100000000002</ele>
        <time>2016-07-06T11:51:16Z</time>
      </trkpt>
      <trkpt lat="46.017166413366795" lon="7.289002239704132">
        <ele>2153.9699999999998</ele>
        <time>2016-07-06T11:51:22Z</time>
      </trkpt>
      <trkpt lat="46.017143446952105" lon="7.289026882499456">
        <ele>2153.9699999999998</ele>
        <time>2016-07-06T11:51:25Z</time>
      </trkpt>
      <trkpt lat="46.017071530222893" lon="7.289109276607633">
        <ele>2155.8899999999999</ele>
        <time>2016-07-06T11:51:37Z</time>
      </trkpt>
      <trkpt lat="46.01706750690937" lon="7.289122603833675">
        <ele>2156.3699999999999</ele>
        <time>2016-07-06T11:51:39Z</time>
      </trkpt>
      <trkpt lat="46.017015874385834" lon="7.289154455065727">
        <ele>2158.3000000000002</ele>
        <time>2016-07-06T11:51:48Z</time>
      </trkpt>
      <trkpt lat="46.016969606280327" lon="7.289210613816977">
        <ele>2159.7399999999998</ele>
        <time>2016-07-06T11:51:58Z</time>
      </trkpt>
      <trkpt lat="46.016952926293015" lon="7.289218157529831">
        <ele>2160.6999999999998</ele>
        <time>2016-07-06T11:52:03Z</time>
      </trkpt>
      <trkpt lat="46.016929624602199" lon="7.289191503077745">
        <ele>2160.6999999999998</ele>
        <time>2016-07-06T11:52:15Z</time>
      </trkpt>
      <trkpt lat="46.016887798905373" lon="7.289242716506124">
        <ele>2160.2199999999998</ele>
        <time>2016-07-06T11:52:23Z</time>
      </trkpt>
      <trkpt lat="46.016807667911053" lon="7.289282195270062">
        <ele>2161.6599999999999</ele>
        <time>2016-07-06T11:52:36Z</time>
      </trkpt>
      <trkpt lat="46.016706246882677" lon="7.289300467818975">
        <ele>2161.6599999999999</ele>
        <time>2016-07-06T11:52:48Z</time>
      </trkpt>
      <trkpt lat="46.01661454886198" lon="7.289310609921813">
        <ele>2161.1799999999998</ele>
        <time>2016-07-06T11:52:59Z</time>
      </trkpt>
      <trkpt lat="46.016571801155806" lon="7.289331899955869">
        <ele>2163.0999999999999</ele>
        <time>2016-07-06T11:53:09Z</time>
      </trkpt>
      <trkpt lat="46.016538692638278" lon="7.289364086464047">
        <ele>2166.4699999999998</ele>
        <time>2016-07-06T11:53:18Z</time>
      </trkpt>
      <trkpt lat="46.016459316015244" lon="7.289359727874398">
        <ele>2167.4299999999998</ele>
        <time>2016-07-06T11:53:32Z</time>
      </trkpt>
      <trkpt lat="46.016424363479018" lon="7.289402391761541">
        <ele>2169.3499999999999</ele>
        <time>2016-07-06T11:53:43Z</time>
      </trkpt>
      <trkpt lat="46.016413047909737" lon="7.289411863312125">
        <ele>2170.3099999999999</ele>
        <time>2016-07-06T11:53:52Z</time>
      </trkpt>
      <trkpt lat="46.016393853351474" lon="7.289402140304446">
        <ele>2169.8299999999999</ele>
        <time>2016-07-06T11:54:05Z</time>
      </trkpt>
      <trkpt lat="46.016376418992877" lon="7.289433488622308">
        <ele>2170.3099999999999</ele>
        <time>2016-07-06T11:54:21Z</time>
      </trkpt>
      <trkpt lat="46.016359236091375" lon="7.289418568834662">
        <ele>2171.27</ele>
        <time>2016-07-06T11:54:32Z</time>
      </trkpt>
      <trkpt lat="46.016342975199223" lon="7.289354111999273">
        <ele>2170.79</ele>
        <time>2016-07-06T11:55:01Z</time>
      </trkpt>
      <trkpt lat="46.016314560547471" lon="7.289335420355201">
        <ele>2170.79</ele>
        <time>2016-07-06T11:55:23Z</time>
      </trkpt>
      <trkpt lat="46.016280362382531" lon="7.28946098126471">
        <ele>2171.27</ele>
        <time>2016-07-06T11:55:34Z</time>
      </trkpt>
      <trkpt lat="46.01622018031776" lon="7.289559971541166">
        <ele>2172.7199999999998</ele>
        <time>2016-07-06T11:55:46Z</time>
      </trkpt>
      <trkpt lat="46.016142144799232" lon="7.289598109200597">
        <ele>2175.1199999999999</ele>
        <time>2016-07-06T11:55:59Z</time>
      </trkpt>
      <trkpt lat="46.016077604144812" lon="7.28964664041996">
        <ele>2176.5599999999999</ele>
        <time>2016-07-06T11:56:10Z</time>
      </trkpt>
      <trkpt lat="46.016008453443646" lon="7.289690058678389">
        <ele>2178</ele>
        <time>2016-07-06T11:56:21Z</time>
      </trkpt>
      <trkpt lat="46.015988504514098" lon="7.289701290428639">
        <ele>2178.48</ele>
        <time>2016-07-06T11:56:24Z</time>
      </trkpt>
      <trkpt lat="46.015904517844319" lon="7.289774212986231">
        <ele>2178</ele>
        <time>2016-07-06T11:56:35Z</time>
      </trkpt>
      <trkpt lat="46.015838468447328" lon="7.289790809154511">
        <ele>2179.4499999999998</ele>
        <time>2016-07-06T11:56:44Z</time>
      </trkpt>
      <trkpt lat="46.015741992741823" lon="7.289799526333809">
        <ele>2180.8899999999999</ele>
        <time>2016-07-06T11:56:56Z</time>
      </trkpt>
      <trkpt lat="46.015673512592912" lon="7.289866581559181">
        <ele>2181.3699999999999</ele>
        <time>2016-07-06T11:57:07Z</time>
      </trkpt>
      <trkpt lat="46.015601763501763" lon="7.289926595985889">
        <ele>2182.3299999999999</ele>
        <time>2016-07-06T11:57:18Z</time>
      </trkpt>
      <trkpt lat="46.0155273322016" lon="7.289940258488059">
        <ele>2184.73</ele>
        <time>2016-07-06T11:57:30Z</time>
      </trkpt>
      <trkpt lat="46.015484165400267" lon="7.289956100285053">
        <ele>2186.6599999999999</ele>
        <time>2016-07-06T11:57:40Z</time>
      </trkpt>
      <trkpt lat="46.015422390773892" lon="7.289928942918778">
        <ele>2188.5799999999999</ele>
        <time>2016-07-06T11:57:54Z</time>
      </trkpt>
      <trkpt lat="46.015361286699772" lon="7.289934391155839">
        <ele>2190.5</ele>
        <time>2016-07-06T11:58:06Z</time>
      </trkpt>
      <trkpt lat="46.01528693921864" lon="7.289926344528794">
        <ele>2192.4200000000001</ele>
        <time>2016-07-06T11:58:19Z</time>
      </trkpt>
      <trkpt lat="46.015236647799611" lon="7.289925673976541">
        <ele>2194.3499999999999</ele>
        <time>2016-07-06T11:58:30Z</time>
      </trkpt>
      <trkpt lat="46.015180572867393" lon="7.289922656491399">
        <ele>2195.79</ele>
        <time>2016-07-06T11:58:41Z</time>
      </trkpt>
      <trkpt lat="46.015164563432336" lon="7.289931792765856">
        <ele>2197.23</ele>
        <time>2016-07-06T11:58:50Z</time>
      </trkpt>
      <trkpt lat="46.015123324468732" lon="7.289918716996908">
        <ele>2199.6300000000001</ele>
        <time>2016-07-06T11:59:00Z</time>
      </trkpt>
      <trkpt lat="46.015119133517146" lon="7.289938917383552">
        <ele>2200.5900000000001</ele>
        <time>2016-07-06T11:59:10Z</time>
      </trkpt>
      <trkpt lat="46.015083426609635" lon="7.289919806644321">
        <ele>2201.5599999999999</ele>
        <time>2016-07-06T11:59:18Z</time>
      </trkpt>
      <trkpt lat="46.015057023614645" lon="7.289894744753838">
        <ele>2203</ele>
        <time>2016-07-06T11:59:22Z</time>
      </trkpt>
      <trkpt lat="46.014987202361226" lon="7.289862222969532">
        <ele>2203.96</ele>
        <time>2016-07-06T11:59:38Z</time>
      </trkpt>
      <trkpt lat="46.014934480190277" lon="7.28979810141027">
        <ele>2206.8400000000001</ele>
        <time>2016-07-06T11:59:54Z</time>
      </trkpt>
      <trkpt lat="46.014900365844369" lon="7.289755186066032">
        <ele>2209.25</ele>
        <time>2016-07-06T12:00:08Z</time>
      </trkpt>
      <trkpt lat="46.014885362237692" lon="7.289762813597918">
        <ele>2210.6900000000001</ele>
        <time>2016-07-06T12:00:20Z</time>
      </trkpt>
      <trkpt lat="46.014878656715155" lon="7.289837663993239">
        <ele>2212.6100000000001</ele>
        <time>2016-07-06T12:00:32Z</time>
      </trkpt>
      <trkpt lat="46.014842530712485" lon="7.289747139438987">
        <ele>2214.0500000000002</ele>
        <time>2016-07-06T12:00:43Z</time>
      </trkpt>
      <trkpt lat="46.014786707237363" lon="7.289712857455015">
        <ele>2216.9400000000001</ele>
        <time>2016-07-06T12:00:58Z</time>
      </trkpt>
      <trkpt lat="46.014748988673091" lon="7.289681676775217">
        <ele>2217.9000000000001</ele>
        <time>2016-07-06T12:01:06Z</time>
      </trkpt>
      <trkpt lat="46.014734152704477" lon="7.289730459451675">
        <ele>2219.3400000000001</ele>
        <time>2016-07-06T12:01:17Z</time>
      </trkpt>
      <trkpt lat="46.014724262058735" lon="7.289840932935476">
        <ele>2222.2199999999998</ele>
        <time>2016-07-06T12:01:31Z</time>
      </trkpt>
      <trkpt lat="46.014691404998302" lon="7.289825929328799">
        <ele>2223.6700000000001</ele>
        <time>2016-07-06T12:01:43Z</time>
      </trkpt>
      <trkpt lat="46.014649495482445" lon="7.289785109460354">
        <ele>2225.5900000000001</ele>
        <time>2016-07-06T12:01:53Z</time>
      </trkpt>
      <trkpt lat="46.014616219326854" lon="7.289744876325131">
        <ele>2227.0300000000002</ele>
        <time>2016-07-06T12:02:05Z</time>
      </trkpt>
      <trkpt lat="46.014576405286789" lon="7.289692740887404">
        <ele>2228.9499999999998</ele>
        <time>2016-07-06T12:02:17Z</time>
      </trkpt>
      <trkpt lat="46.014573220163584" lon="7.289746971800923">
        <ele>2230.8800000000001</ele>
        <time>2016-07-06T12:02:30Z</time>
      </trkpt>
      <trkpt lat="46.014583446085453" lon="7.28983573615551">
        <ele>2232.3200000000002</ele>
        <time>2016-07-06T12:02:42Z</time>
      </trkpt>
      <trkpt lat="46.014567604288459" lon="7.289899941533804">
        <ele>2233.2800000000002</ele>
        <time>2016-07-06T12:02:52Z</time>
      </trkpt>
      <trkpt lat="46.014512199908495" lon="7.289836322888732">
        <ele>2235.6799999999998</ele>
        <time>2016-07-06T12:03:05Z</time>
      </trkpt>
      <trkpt lat="46.01447531953454" lon="7.289806567132473">
        <ele>2237.1300000000001</ele>
        <time>2016-07-06T12:03:17Z</time>
      </trkpt>
      <trkpt lat="46.014489568769932" lon="7.289882004261017">
        <ele>2239.0500000000002</ele>
        <time>2016-07-06T12:03:31Z</time>
      </trkpt>
      <trkpt lat="46.014471212401986" lon="7.289940845221281">
        <ele>2240.4899999999998</ele>
        <time>2016-07-06T12:03:43Z</time>
      </trkpt>
      <trkpt lat="46.014423770830035" lon="7.289890302345157">
        <ele>2242.4099999999999</ele>
        <time>2016-07-06T12:03:55Z</time>
      </trkpt>
      <trkpt lat="46.014405246824026" lon="7.289918381720781">
        <ele>2243.8499999999999</ele>
        <time>2016-07-06T12:04:05Z</time>
      </trkpt>
      <trkpt lat="46.014358894899487" lon="7.289878986775875">
        <ele>2245.7800000000002</ele>
        <time>2016-07-06T12:04:16Z</time>
      </trkpt>
      <trkpt lat="46.014312878251076" lon="7.289801118895412">
        <ele>2248.1799999999998</ele>
        <time>2016-07-06T12:04:32Z</time>
      </trkpt>
      <trkpt lat="46.014289828017354" lon="7.289810674265027">
        <ele>2249.6199999999999</ele>
        <time>2016-07-06T12:04:43Z</time>
      </trkpt>
      <trkpt lat="46.014286307618022" lon="7.289883345365524">
        <ele>2251.54</ele>
        <time>2016-07-06T12:04:56Z</time>
      </trkpt>
      <trkpt lat="46.014241548255086" lon="7.289822576567531">
        <ele>2252.9899999999998</ele>
        <time>2016-07-06T12:05:05Z</time>
      </trkpt>
      <trkpt lat="46.014211624860764" lon="7.289782846346498">
        <ele>2255.3899999999999</ele>
        <time>2016-07-06T12:05:17Z</time>
      </trkpt>
      <trkpt lat="46.014167200773954" lon="7.289726436138153">
        <ele>2257.3099999999999</ele>
        <time>2016-07-06T12:05:30Z</time>
      </trkpt>
      <trkpt lat="46.014134176075459" lon="7.289723502472043">
        <ele>2259.2399999999998</ele>
        <time>2016-07-06T12:05:43Z</time>
      </trkpt>
      <trkpt lat="46.01414205506444" lon="7.289790557697415">
        <ele>2261.6399999999999</ele>
        <time>2016-07-06T12:05:56Z</time>
      </trkpt>
      <trkpt lat="46.014097966253757" lon="7.289733644574881">
        <ele>2262.5999999999999</ele>
        <time>2016-07-06T12:06:06Z</time>
      </trkpt>
      <trkpt lat="46.014060750603676" lon="7.289683185517788">
        <ele>2265</ele>
        <time>2016-07-06T12:06:17Z</time>
      </trkpt>
      <trkpt lat="46.0140370298177" lon="7.289659380912781">
        <ele>2266.9299999999998</ele>
        <time>2016-07-06T12:06:31Z</time>
      </trkpt>
      <trkpt lat="46.014001658186316" lon="7.289651334285736">
        <ele>2268.8499999999999</ele>
        <time>2016-07-06T12:06:42Z</time>
      </trkpt>
      <trkpt lat="46.013980451971292" lon="7.289596684277058">
        <ele>2270.29</ele>
        <time>2016-07-06T12:06:53Z</time>
      </trkpt>
      <trkpt lat="46.013952288776636" lon="7.289525689557195">
        <ele>2272.21</ele>
        <time>2016-07-06T12:07:04Z</time>
      </trkpt>
      <trkpt lat="46.013943906873465" lon="7.289466680958867">
        <ele>2273.6599999999999</ele>
        <time>2016-07-06T12:07:13Z</time>
      </trkpt>
      <trkpt lat="46.013926723971963" lon="7.289462490007281">
        <ele>2274.6199999999999</ele>
        <time>2016-07-06T12:07:23Z</time>
      </trkpt>
      <trkpt lat="46.013914654031396" lon="7.289341874420643">
        <ele>2276.54</ele>
        <time>2016-07-06T12:07:36Z</time>
      </trkpt>
      <trkpt lat="46.013917671516538" lon="7.289357800036669">
        <ele>2277.5</ele>
        <time>2016-07-06T12:07:44Z</time>
      </trkpt>
      <trkpt lat="46.013907864689827" lon="7.289420915767551">
        <ele>2277.98</ele>
        <time>2016-07-06T12:07:59Z</time>
      </trkpt>
      <trkpt lat="46.013877019286156" lon="7.289442457258701">
        <ele>2279.4200000000001</ele>
        <time>2016-07-06T12:08:11Z</time>
      </trkpt>
      <trkpt lat="46.013869224116206" lon="7.289366852492094">
        <ele>2280.3800000000001</ele>
        <time>2016-07-06T12:08:28Z</time>
      </trkpt>
      <trkpt lat="46.013858579099178" lon="7.289331061765552">
        <ele>2282.3099999999999</ele>
        <time>2016-07-06T12:08:37Z</time>
      </trkpt>
      <trkpt lat="46.01381566375494" lon="7.289353189989924">
        <ele>2283.75</ele>
        <time>2016-07-06T12:08:47Z</time>
      </trkpt>
      <trkpt lat="46.013786410912871" lon="7.289312621578574">
        <ele>2285.6700000000001</ele>
        <time>2016-07-06T12:08:59Z</time>
      </trkpt>
      <trkpt lat="46.013765204697847" lon="7.289291499182582">
        <ele>2286.1500000000001</ele>
        <time>2016-07-06T12:09:11Z</time>
      </trkpt>
      <trkpt lat="46.01381910033524" lon="7.289249170571566">
        <ele>2288.5599999999999</ele>
        <time>2016-07-06T12:09:21Z</time>
      </trkpt>
      <trkpt lat="46.013763528317213" lon="7.289222432300448">
        <ele>2290</ele>
        <time>2016-07-06T12:09:32Z</time>
      </trkpt>
      <trkpt lat="46.013709045946598" lon="7.289173230528832">
        <ele>2290.96</ele>
        <time>2016-07-06T12:09:44Z</time>
      </trkpt>
      <trkpt lat="46.013673590496182" lon="7.289143726229668">
        <ele>2291.4400000000001</ele>
        <time>2016-07-06T12:09:49Z</time>
      </trkpt>
      <trkpt lat="46.013611564412713" lon="7.28909938596189">
        <ele>2292.8800000000001</ele>
        <time>2016-07-06T12:10:00Z</time>
      </trkpt>
      <trkpt lat="46.013591280207038" lon="7.289091758430004">
        <ele>2292.8800000000001</ele>
        <time>2016-07-06T12:10:03Z</time>
      </trkpt>
      <trkpt lat="46.013504611328244" lon="7.289052279666066">
        <ele>2294.8000000000002</ele>
        <time>2016-07-06T12:10:15Z</time>
      </trkpt>
      <trkpt lat="46.013449626043439" lon="7.28903878480196">
        <ele>2295.77</ele>
        <time>2016-07-06T12:10:25Z</time>
      </trkpt>
      <trkpt lat="46.013375362381339" lon="7.289049094542861">
        <ele>2297.6900000000001</ele>
        <time>2016-07-06T12:10:37Z</time>
      </trkpt>
      <trkpt lat="46.013309648260474" lon="7.289028726518154">
        <ele>2299.6100000000001</ele>
        <time>2016-07-06T12:10:48Z</time>
      </trkpt>
      <trkpt lat="46.013319371268153" lon="7.289049262180924">
        <ele>2299.6100000000001</ele>
        <time>2016-07-06T12:10:59Z</time>
      </trkpt>
      <trkpt lat="46.013266146183014" lon="7.289031660184264">
        <ele>2300.5700000000002</ele>
        <time>2016-07-06T12:11:09Z</time>
      </trkpt>
      <trkpt lat="46.01325717754662" lon="7.28902654722333">
        <ele>2300.5700000000002</ele>
        <time>2016-07-06T12:11:10Z</time>
      </trkpt>
      <trkpt lat="46.013132119551301" lon="7.288951613008976">
        <ele>2300.0900000000001</ele>
        <time>2016-07-06T12:11:23Z</time>
      </trkpt>
      <trkpt lat="46.0129957459867" lon="7.288964185863733">
        <ele>2301.0500000000002</ele>
        <time>2016-07-06T12:11:38Z</time>
      </trkpt>
      <trkpt lat="46.012900359928608" lon="7.288988074287772">
        <ele>2302.4899999999998</ele>
        <time>2016-07-06T12:11:50Z</time>
      </trkpt>
      <trkpt lat="46.012802040204406" lon="7.288980195298791">
        <ele>2305.3800000000001</ele>
        <time>2016-07-06T12:12:03Z</time>
      </trkpt>
      <trkpt lat="46.012795502319932" lon="7.288977429270744">
        <ele>2304.9000000000001</ele>
        <time>2016-07-06T12:12:04Z</time>
      </trkpt>
      <trkpt lat="46.012753508985043" lon="7.288945661857724">
        <ele>2306.3400000000001</ele>
        <time>2016-07-06T12:12:12Z</time>
      </trkpt>
      <trkpt lat="46.01272551342845" lon="7.288928311318159">
        <ele>2307.7800000000002</ele>
        <time>2016-07-06T12:12:17Z</time>
      </trkpt>
      <trkpt lat="46.012667762115598" lon="7.288901740685105">
        <ele>2308.7399999999998</ele>
        <time>2016-07-06T12:12:25Z</time>
      </trkpt>
      <trkpt lat="46.012645466253161" lon="7.288893442600966">
        <ele>2308.7399999999998</ele>
        <time>2016-07-06T12:12:28Z</time>
      </trkpt>
      <trkpt lat="46.012504985556006" lon="7.288867374882102">
        <ele>2307.7800000000002</ele>
        <time>2016-07-06T12:12:41Z</time>
      </trkpt>
      <trkpt lat="46.012479923665524" lon="7.288844157010317">
        <ele>2307.7800000000002</ele>
        <time>2016-07-06T12:12:44Z</time>
      </trkpt>
      <trkpt lat="46.012379676103592" lon="7.288849940523505">
        <ele>2308.7399999999998</ele>
        <time>2016-07-06T12:12:56Z</time>
      </trkpt>
      <trkpt lat="46.012333491817117" lon="7.288845833390951">
        <ele>2308.7399999999998</ele>
        <time>2016-07-06T12:13:08Z</time>
      </trkpt>
      <trkpt lat="46.012210361659527" lon="7.288883803412318">
        <ele>2307.7800000000002</ele>
        <time>2016-07-06T12:13:20Z</time>
      </trkpt>
      <trkpt lat="46.012199381366372" lon="7.288889419287443">
        <ele>2307.7800000000002</ele>
        <time>2016-07-06T12:13:21Z</time>
      </trkpt>
      <trkpt lat="46.012158477678895" lon="7.288911966606975">
        <ele>2307.7800000000002</ele>
        <time>2016-07-06T12:13:25Z</time>
      </trkpt>
      <trkpt lat="46.012112461030483" lon="7.288930825889111">
        <ele>2308.7399999999998</ele>
        <time>2016-07-06T12:13:29Z</time>
      </trkpt>
      <trkpt lat="46.011972231790423" lon="7.28889754973352">
        <ele>2308.2600000000002</ele>
        <time>2016-07-06T12:13:42Z</time>
      </trkpt>
      <trkpt lat="46.011841222643852" lon="7.288896376267076">
        <ele>2307.7800000000002</ele>
        <time>2016-07-06T12:13:54Z</time>
      </trkpt>
      <trkpt lat="46.011809622868896" lon="7.288885815069079">
        <ele>2307.7800000000002</ele>
        <time>2016-07-06T12:13:57Z</time>
      </trkpt>
      <trkpt lat="46.011756816878915" lon="7.288890928030014">
        <ele>2307.7800000000002</ele>
        <time>2016-07-06T12:14:03Z</time>
      </trkpt>
      <trkpt lat="46.01171163842082" lon="7.288907859474421">
        <ele>2307.3000000000002</ele>
        <time>2016-07-06T12:14:07Z</time>
      </trkpt>
      <trkpt lat="46.011609379202127" lon="7.288925880566239">
        <ele>2307.3000000000002</ele>
        <time>2016-07-06T12:14:19Z</time>
      </trkpt>
      <trkpt lat="46.011594710871577" lon="7.288914229720831">
        <ele>2307.7800000000002</ele>
        <time>2016-07-06T12:14:28Z</time>
      </trkpt>
      <trkpt lat="46.011575432494283" lon="7.288917498663068">
        <ele>2307.7800000000002</ele>
        <time>2016-07-06T12:14:30Z</time>
      </trkpt>
      <trkpt lat="46.011514663696289" lon="7.289014058187604">
        <ele>2308.7399999999998</ele>
        <time>2016-07-06T12:14:40Z</time>
      </trkpt>
      <trkpt lat="46.011465881019831" lon="7.289043478667736">
        <ele>2309.2199999999998</ele>
        <time>2016-07-06T12:14:45Z</time>
      </trkpt>
      <trkpt lat="46.011350378394127" lon="7.288989163935185">
        <ele>2309.6999999999998</ele>
        <time>2016-07-06T12:14:57Z</time>
      </trkpt>
      <trkpt lat="46.011325819417834" lon="7.28891565464437">
        <ele>2309.6999999999998</ele>
        <time>2016-07-06T12:15:06Z</time>
      </trkpt>
      <trkpt lat="46.011322718113661" lon="7.288896879181266">
        <ele>2310.1900000000001</ele>
        <time>2016-07-06T12:15:08Z</time>
      </trkpt>
      <trkpt lat="46.01136714220047" lon="7.288874248042703">
        <ele>2311.1500000000001</ele>
        <time>2016-07-06T12:15:19Z</time>
      </trkpt>
      <trkpt lat="46.011358508840203" lon="7.288866117596626">
        <ele>2311.1500000000001</ele>
        <time>2016-07-06T12:15:32Z</time>
      </trkpt>
      <trkpt lat="46.01134417578578" lon="7.288851952180266">
        <ele>2311.1500000000001</ele>
        <time>2016-07-06T12:15:41Z</time>
      </trkpt>
      <trkpt lat="46.011350881308317" lon="7.288841474801302">
        <ele>2311.1500000000001</ele>
        <time>2016-07-06T12:15:50Z</time>
      </trkpt>
      <trkpt lat="46.011343253776431" lon="7.288833511993289">
        <ele>2311.1500000000001</ele>
        <time>2016-07-06T12:15:59Z</time>
      </trkpt>
      <trkpt lat="46.011344008147717" lon="7.288816832005978">
        <ele>2310.6700000000001</ele>
        <time>2016-07-06T12:16:21Z</time>
      </trkpt>
      <trkpt lat="46.011344343423843" lon="7.288802582770586">
        <ele>2310.6700000000001</ele>
        <time>2016-07-06T12:16:43Z</time>
      </trkpt>
      <trkpt lat="46.011345768347383" lon="7.288806103169918">
        <ele>2310.6700000000001</ele>
        <time>2016-07-06T12:17:05Z</time>
      </trkpt>
      <trkpt lat="46.01134174503386" lon="7.288893777877092">
        <ele>2310.6700000000001</ele>
        <time>2016-07-06T12:17:33Z</time>
      </trkpt>
      <trkpt lat="46.011349707841873" lon="7.288884809240699">
        <ele>2310.6700000000001</ele>
        <time>2016-07-06T12:18:04Z</time>
      </trkpt>
      <trkpt lat="46.0113534796983" lon="7.288876008242369">
        <ele>2310.6700000000001</ele>
        <time>2016-07-06T12:18:29Z</time>
      </trkpt>
      <trkpt lat="46.011366220191121" lon="7.288902411237359">
        <ele>2310.6700000000001</ele>
        <time>2016-07-06T12:18:45Z</time>
      </trkpt>
      <trkpt lat="46.011370830237865" lon="7.288894196972251">
        <ele>2310.6700000000001</ele>
        <time>2016-07-06T12:19:08Z</time>
      </trkpt>
      <trkpt lat="46.011364627629519" lon="7.288914062082768">
        <ele>2310.6700000000001</ele>
        <time>2016-07-06T12:19:32Z</time>
      </trkpt>
      <trkpt lat="46.011367477476597" lon="7.28892982006073">
        <ele>2311.1500000000001</ele>
        <time>2016-07-06T12:19:53Z</time>
      </trkpt>
      <trkpt lat="46.011370327323675" lon="7.288919929414988">
        <ele>2311.1500000000001</ele>
        <time>2016-07-06T12:20:13Z</time>
      </trkpt>
      <trkpt lat="46.011376781389117" lon="7.28894985280931">
        <ele>2311.1500000000001</ele>
        <time>2016-07-06T12:20:33Z</time>
      </trkpt>
      <trkpt lat="46.011367393657565" lon="7.288901824504137">
        <ele>2311.1500000000001</ele>
        <time>2016-07-06T12:20:58Z</time>
      </trkpt>
      <trkpt lat="46.011378625407815" lon="7.288925461471081">
        <ele>2311.1500000000001</ele>
        <time>2016-07-06T12:21:20Z</time>
      </trkpt>
      <trkpt lat="46.011392204090953" lon="7.288939291611314">
        <ele>2311.1500000000001</ele>
        <time>2016-07-06T12:21:36Z</time>
      </trkpt>
      <trkpt lat="46.011387007310987" lon="7.288945410400629">
        <ele>2311.1500000000001</ele>
        <time>2016-07-06T12:22:01Z</time>
      </trkpt>
      <trkpt lat="46.011386169120669" lon="7.288929233327508">
        <ele>2311.1500000000001</ele>
        <time>2016-07-06T12:22:20Z</time>
      </trkpt>
      <trkpt lat="46.011382816359401" lon="7.288936609402299">
        <ele>2311.1500000000001</ele>
        <time>2016-07-06T12:22:40Z</time>
      </trkpt>
      <trkpt lat="46.011385917663574" lon="7.288930406793952">
        <ele>2311.6300000000001</ele>
        <time>2016-07-06T12:23:07Z</time>
      </trkpt>
      <trkpt lat="46.01139354519546" lon="7.288920599967241">
        <ele>2311.6300000000001</ele>
        <time>2016-07-06T12:23:27Z</time>
      </trkpt>
      <trkpt lat="46.011383403092623" lon="7.288940632715821">
        <ele>2311.6300000000001</ele>
        <time>2016-07-06T12:23:45Z</time>
      </trkpt>
      <trkpt lat="46.011379044502974" lon="7.288903333246708">
        <ele>2311.6300000000001</ele>
        <time>2016-07-06T12:24:08Z</time>
      </trkpt>
      <trkpt lat="46.011386588215828" lon="7.288915989920497">
        <ele>2312.1100000000001</ele>
        <time>2016-07-06T12:24:33Z</time>
      </trkpt>
      <trkpt lat="46.01138231344521" lon="7.288875756785274">
        <ele>2311.6300000000001</ele>
        <time>2016-07-06T12:24:58Z</time>
      </trkpt>
      <trkpt lat="46.011371081694961" lon="7.288869051262736">
        <ele>2312.1100000000001</ele>
        <time>2016-07-06T12:25:25Z</time>
      </trkpt>
      <trkpt lat="46.011382900178432" lon="7.288870140910149">
        <ele>2311.6300000000001</ele>
        <time>2016-07-06T12:25:51Z</time>
      </trkpt>
      <trkpt lat="46.011359179392457" lon="7.288861339911819">
        <ele>2312.1100000000001</ele>
        <time>2016-07-06T12:26:18Z</time>
      </trkpt>
      <trkpt lat="46.011370662599802" lon="7.28885849006474">
        <ele>2312.1100000000001</ele>
        <time>2016-07-06T12:26:42Z</time>
      </trkpt>
      <trkpt lat="46.011362615972757" lon="7.288871314376593">
        <ele>2311.6300000000001</ele>
        <time>2016-07-06T12:27:11Z</time>
      </trkpt>
      <trkpt lat="46.011360436677933" lon="7.288854802027345">
        <ele>2311.6300000000001</ele>
        <time>2016-07-06T12:27:39Z</time>
      </trkpt>
      <trkpt lat="46.011360520496964" lon="7.288847509771586">
        <ele>2311.6300000000001</ele>
        <time>2016-07-06T12:28:04Z</time>
      </trkpt>
      <trkpt lat="46.011347360908985" lon="7.288867710158229">
        <ele>2311.6300000000001</ele>
        <time>2016-07-06T12:28:28Z</time>
      </trkpt>
      <trkpt lat="46.011333279311657" lon="7.288872571662068">
        <ele>2311.6300000000001</ele>
        <time>2016-07-06T12:28:47Z</time>
      </trkpt>
      <trkpt lat="46.011336715891957" lon="7.288879612460733">
        <ele>2312.1100000000001</ele>
        <time>2016-07-06T12:29:13Z</time>
      </trkpt>
      <trkpt lat="46.011340152472258" lon="7.288880702108145">
        <ele>2311.6300000000001</ele>
        <time>2016-07-06T12:29:33Z</time>
      </trkpt>
      <trkpt lat="46.011346019804478" lon="7.288892604410648">
        <ele>2312.1100000000001</ele>
        <time>2016-07-06T12:29:58Z</time>
      </trkpt>
      <trkpt lat="46.01134124211967" lon="7.288896879181266">
        <ele>2312.1100000000001</ele>
        <time>2016-07-06T12:30:15Z</time>
      </trkpt>
      <trkpt lat="46.011343169957399" lon="7.288877181708813">
        <ele>2311.6300000000001</ele>
        <time>2016-07-06T12:30:44Z</time>
      </trkpt>
      <trkpt lat="46.011336212977767" lon="7.288879612460733">
        <ele>2311.6300000000001</ele>
        <time>2016-07-06T12:31:04Z</time>
      </trkpt>
      <trkpt lat="46.011335626244545" lon="7.288886401802301">
        <ele>2311.6300000000001</ele>
        <time>2016-07-06T12:31:23Z</time>
      </trkpt>
      <trkpt lat="46.011326238512993" lon="7.288903333246708">
        <ele>2311.6300000000001</ele>
        <time>2016-07-06T12:31:44Z</time>
      </trkpt>
      <trkpt lat="46.011325232684612" lon="7.288898890838027">
        <ele>2311.6300000000001</ele>
        <time>2016-07-06T12:32:12Z</time>
      </trkpt>
      <trkpt lat="46.011321041733027" lon="7.288905177265406">
        <ele>2311.6300000000001</ele>
        <time>2016-07-06T12:32:34Z</time>
      </trkpt>
      <trkpt lat="46.01132364012301" lon="7.288909452036023">
        <ele>2311.6300000000001</ele>
        <time>2016-07-06T12:33:00Z</time>
      </trkpt>
      <trkpt lat="46.011321293190122" lon="7.28889905847609">
        <ele>2311.6300000000001</ele>
        <time>2016-07-06T12:33:16Z</time>
      </trkpt>
      <trkpt lat="46.011331435292959" lon="7.288873409852386">
        <ele>2311.6300000000001</ele>
        <time>2016-07-06T12:33:40Z</time>
      </trkpt>
      <trkpt lat="46.011325316503644" lon="7.288879277184606">
        <ele>2311.6300000000001</ele>
        <time>2016-07-06T12:33:59Z</time>
      </trkpt>
      <trkpt lat="46.011322550475597" lon="7.288889084011316">
        <ele>2311.6300000000001</ele>
        <time>2016-07-06T12:34:24Z</time>
      </trkpt>
      <trkpt lat="46.011325148865581" lon="7.288898471742868">
        <ele>2311.6300000000001</ele>
        <time>2016-07-06T12:34:44Z</time>
      </trkpt>
      <trkpt lat="46.011326741427183" lon="7.288903333246708">
        <ele>2311.6300000000001</ele>
        <time>2016-07-06T12:35:03Z</time>
      </trkpt>
      <trkpt lat="46.011332273483276" lon="7.288904087617993">
        <ele>2311.6300000000001</ele>
        <time>2016-07-06T12:35:22Z</time>
      </trkpt>
      <trkpt lat="46.011311821639538" lon="7.288912134245038">
        <ele>2311.6300000000001</ele>
        <time>2016-07-06T12:35:47Z</time>
      </trkpt>
      <trkpt lat="46.011330680921674" lon="7.288880283012986">
        <ele>2311.6300000000001</ele>
        <time>2016-07-06T12:36:06Z</time>
      </trkpt>
      <trkpt lat="46.011332022026181" lon="7.288892604410648">
        <ele>2312.1100000000001</ele>
        <time>2016-07-06T12:36:27Z</time>
      </trkpt>
      <trkpt lat="46.011343086138368" lon="7.288889084011316">
        <ele>2311.6300000000001</ele>
        <time>2016-07-06T12:36:53Z</time>
      </trkpt>
      <trkpt lat="46.011329172179103" lon="7.288883551955223">
        <ele>2311.6300000000001</ele>
        <time>2016-07-06T12:37:11Z</time>
      </trkpt>
      <trkpt lat="46.011351300403476" lon="7.288881372660399">
        <ele>2311.6300000000001</ele>
        <time>2016-07-06T12:37:34Z</time>
      </trkpt>
      <trkpt lat="46.011352054774761" lon="7.288874415680766">
        <ele>2312.1100000000001</ele>
        <time>2016-07-06T12:37:58Z</time>
      </trkpt>
      <trkpt lat="46.011343253776431" lon="7.288871230557561">
        <ele>2312.1100000000001</ele>
        <time>2016-07-06T12:38:19Z</time>
      </trkpt>
      <trkpt lat="46.011349624022841" lon="7.288890006020665">
        <ele>2313.0700000000002</ele>
        <time>2016-07-06T12:38:28Z</time>
      </trkpt>
      <trkpt lat="46.011330345645547" lon="7.288886737078428">
        <ele>2312.5900000000001</ele>
        <time>2016-07-06T12:38:37Z</time>
      </trkpt>
      <trkpt lat="46.011331770569086" lon="7.288879277184606">
        <ele>2313.0700000000002</ele>
        <time>2016-07-06T12:39:00Z</time>
      </trkpt>
      <trkpt lat="46.011314084753394" lon="7.2888692189008">
        <ele>2312.5900000000001</ele>
        <time>2016-07-06T12:39:13Z</time>
      </trkpt>
      <trkpt lat="46.011331686750054" lon="7.288839966058731">
        <ele>2313.0700000000002</ele>
        <time>2016-07-06T12:39:29Z</time>
      </trkpt>
      <trkpt lat="46.011322634294629" lon="7.288881791755557">
        <ele>2313.0700000000002</ele>
        <time>2016-07-06T12:39:42Z</time>
      </trkpt>
      <trkpt lat="46.011311486363411" lon="7.288869554176927">
        <ele>2313.0700000000002</ele>
        <time>2016-07-06T12:39:54Z</time>
      </trkpt>
      <trkpt lat="46.011326657608151" lon="7.288924371823669">
        <ele>2312.5900000000001</ele>
        <time>2016-07-06T12:40:09Z</time>
      </trkpt>
      <trkpt lat="46.011286675930023" lon="7.288962928578258">
        <ele>2312.1100000000001</ele>
        <time>2016-07-06T12:40:16Z</time>
      </trkpt>
      <trkpt lat="46.011259853839874" lon="7.288939040154219">
        <ele>2312.1100000000001</ele>
        <time>2016-07-06T12:40:19Z</time>
      </trkpt>
      <trkpt lat="46.011256165802479" lon="7.288942225277424">
        <ele>2311.6300000000001</ele>
        <time>2016-07-06T12:40:29Z</time>
      </trkpt>
      <trkpt lat="46.011256752535701" lon="7.288952451199293">
        <ele>2311.6300000000001</ele>
        <time>2016-07-06T12:40:42Z</time>
      </trkpt>
      <trkpt lat="46.011240407824516" lon="7.288912469521165">
        <ele>2312.1100000000001</ele>
        <time>2016-07-06T12:40:50Z</time>
      </trkpt>
      <trkpt lat="46.011170251294971" lon="7.288870643824339">
        <ele>2312.1100000000001</ele>
        <time>2016-07-06T12:40:59Z</time>
      </trkpt>
      <trkpt lat="46.011095652356744" lon="7.288809958845377">
        <ele>2312.1100000000001</ele>
        <time>2016-07-06T12:41:08Z</time>
      </trkpt>
      <trkpt lat="46.01099967956543" lon="7.288839546963573">
        <ele>2313.0700000000002</ele>
        <time>2016-07-06T12:41:20Z</time>
      </trkpt>
      <trkpt lat="46.01094301789999" lon="7.288845665752888">
        <ele>2313.5500000000002</ele>
        <time>2016-07-06T12:41:29Z</time>
      </trkpt>
      <trkpt lat="46.010894989594817" lon="7.28886435739696">
        <ele>2314.9899999999998</ele>
        <time>2016-07-06T12:41:38Z</time>
      </trkpt>
      <trkpt lat="46.010809661820531" lon="7.288816664367914">
        <ele>2315.4699999999998</ele>
        <time>2016-07-06T12:41:49Z</time>
      </trkpt>
      <trkpt lat="46.010744031518698" lon="7.288813646882772">
        <ele>2316.9099999999999</ele>
        <time>2016-07-06T12:41:59Z</time>
      </trkpt>
      <trkpt lat="46.010681502521038" lon="7.2887656185776">
        <ele>2317.8800000000001</ele>
        <time>2016-07-06T12:42:09Z</time>
      </trkpt>
      <trkpt lat="46.010622242465615" lon="7.288721026852727">
        <ele>2317.8800000000001</ele>
        <time>2016-07-06T12:42:20Z</time>
      </trkpt>
      <trkpt lat="46.010607071220875" lon="7.28872605599463">
        <ele>2318.3600000000001</ele>
        <time>2016-07-06T12:42:36Z</time>
      </trkpt>
      <trkpt lat="46.010584775358438" lon="7.288685068488121">
        <ele>2318.3600000000001</ele>
        <time>2016-07-06T12:42:53Z</time>
      </trkpt>
      <trkpt lat="46.010514618828893" lon="7.288690684363246">
        <ele>2317.8800000000001</ele>
        <time>2016-07-06T12:43:05Z</time>
      </trkpt>
      <trkpt lat="46.010459549725056" lon="7.288664029911161">
        <ele>2318.3600000000001</ele>
        <time>2016-07-06T12:43:15Z</time>
      </trkpt>
      <trkpt lat="46.010403642430902" lon="7.288621785119176">
        <ele>2319.3200000000002</ele>
        <time>2016-07-06T12:43:26Z</time>
      </trkpt>
      <trkpt lat="46.01032979786396" lon="7.288556573912501">
        <ele>2320.7600000000002</ele>
        <time>2016-07-06T12:43:38Z</time>
      </trkpt>
      <trkpt lat="46.010275818407536" lon="7.288549616932869">
        <ele>2321.7199999999998</ele>
        <time>2016-07-06T12:43:47Z</time>
      </trkpt>
      <trkpt lat="46.010239189490676" lon="7.288547353819013">
        <ele>2322.1999999999998</ele>
        <time>2016-07-06T12:43:59Z</time>
      </trkpt>
      <trkpt lat="46.01019786670804" lon="7.288516759872437">
        <ele>2322.6799999999998</ele>
        <time>2016-07-06T12:44:11Z</time>
      </trkpt>
      <trkpt lat="46.010134415701032" lon="7.28842506185174">
        <ele>2322.6799999999998</ele>
        <time>2016-07-06T12:44:20Z</time>
      </trkpt>
      <trkpt lat="46.009982116520405" lon="7.288402430713177">
        <ele>2321.2399999999998</ele>
        <time>2016-07-06T12:44:34Z</time>
      </trkpt>
      <trkpt lat="46.00988999940455" lon="7.288358677178621">
        <ele>2320.7600000000002</ele>
        <time>2016-07-06T12:44:43Z</time>
      </trkpt>
      <trkpt lat="46.00985043682158" lon="7.288342248648405">
        <ele>2320.7600000000002</ele>
        <time>2016-07-06T12:44:47Z</time>
      </trkpt>
      <trkpt lat="46.009777095168829" lon="7.28836202993989">
        <ele>2320.2800000000002</ele>
        <time>2016-07-06T12:44:54Z</time>
      </trkpt>
      <trkpt lat="46.00967307575047" lon="7.288402682170272">
        <ele>2320.7600000000002</ele>
        <time>2016-07-06T12:45:06Z</time>
      </trkpt>
      <trkpt lat="46.009670309722424" lon="7.288415338844061">
        <ele>2320.7600000000002</ele>
        <time>2016-07-06T12:45:07Z</time>
      </trkpt>
      <trkpt lat="46.009605014696717" lon="7.288497230038047">
        <ele>2322.1999999999998</ele>
        <time>2016-07-06T12:45:18Z</time>
      </trkpt>
      <trkpt lat="46.009530751034617" lon="7.288498403504491">
        <ele>2323.1599999999999</ele>
        <time>2016-07-06T12:45:29Z</time>
      </trkpt>
      <trkpt lat="46.009447183459997" lon="7.288516256958246">
        <ele>2324.1199999999999</ele>
        <time>2016-07-06T12:45:40Z</time>
      </trkpt>
      <trkpt lat="46.009429413825274" lon="7.288522375747562">
        <ele>2324.1199999999999</ele>
        <time>2016-07-06T12:45:43Z</time>
      </trkpt>
      <trkpt lat="46.009355569258332" lon="7.288451548665762">
        <ele>2324.6100000000001</ele>
        <time>2016-07-06T12:45:54Z</time>
      </trkpt>
      <trkpt lat="46.009349785745144" lon="7.288432605564594">
        <ele>2324.6100000000001</ele>
        <time>2016-07-06T12:46:06Z</time>
      </trkpt>
      <trkpt lat="46.009316509589553" lon="7.288410561159253">
        <ele>2325.0900000000001</ele>
        <time>2016-07-06T12:46:16Z</time>
      </trkpt>
      <trkpt lat="46.009227158501744" lon="7.288432354107499">
        <ele>2324.6100000000001</ele>
        <time>2016-07-06T12:46:27Z</time>
      </trkpt>
      <trkpt lat="46.009180219843984" lon="7.28840796276927">
        <ele>2325.0900000000001</ele>
        <time>2016-07-06T12:46:37Z</time>
      </trkpt>
      <trkpt lat="46.009119618684053" lon="7.288376782089472">
        <ele>2326.5300000000002</ele>
        <time>2016-07-06T12:46:46Z</time>
      </trkpt>
      <trkpt lat="46.009050467982888" lon="7.288332944735885">
        <ele>2327.4899999999998</ele>
        <time>2016-07-06T12:46:57Z</time>
      </trkpt>
      <trkpt lat="46.008999170735478" lon="7.288348702713847">
        <ele>2328.4499999999998</ele>
        <time>2016-07-06T12:47:03Z</time>
      </trkpt>
      <trkpt lat="46.008959356695414" lon="7.288368567824364">
        <ele>2329.4099999999999</ele>
        <time>2016-07-06T12:47:09Z</time>
      </trkpt>
      <trkpt lat="46.008886769413948" lon="7.288343086838722">
        <ele>2330.8499999999999</ele>
        <time>2016-07-06T12:47:21Z</time>
      </trkpt>
      <trkpt lat="46.008837148547173" lon="7.288338057696819">
        <ele>2332.3000000000002</ele>
        <time>2016-07-06T12:47:30Z</time>
      </trkpt>
      <trkpt lat="46.008759532123804" lon="7.288334118202329">
        <ele>2334.2199999999998</ele>
        <time>2016-07-06T12:47:41Z</time>
      </trkpt>
      <trkpt lat="46.008677976205945" lon="7.288316683843732">
        <ele>2336.1399999999999</ele>
        <time>2016-07-06T12:47:54Z</time>
      </trkpt>
      <trkpt lat="46.008597845211625" lon="7.28827603161335">
        <ele>2336.6199999999999</ele>
        <time>2016-07-06T12:48:03Z</time>
      </trkpt>
      <trkpt lat="46.008509332314134" lon="7.28822473436594">
        <ele>2338.54</ele>
        <time>2016-07-06T12:48:16Z</time>
      </trkpt>
      <trkpt lat="46.008419143036008" lon="7.288156757131219">
        <ele>2339.02</ele>
        <time>2016-07-06T12:48:28Z</time>
      </trkpt>
      <trkpt lat="46.00835083052516" lon="7.288151644170284">
        <ele>2339.02</ele>
        <time>2016-07-06T12:48:35Z</time>
      </trkpt>
      <trkpt lat="46.008327780291438" lon="7.288166228681803">
        <ele>2339.02</ele>
        <time>2016-07-06T12:48:38Z</time>
      </trkpt>
      <trkpt lat="46.008282015100121" lon="7.288202187046409">
        <ele>2338.0599999999999</ele>
        <time>2016-07-06T12:48:43Z</time>
      </trkpt>
      <trkpt lat="46.008187970146537" lon="7.288178969174624">
        <ele>2338.54</ele>
        <time>2016-07-06T12:48:52Z</time>
      </trkpt>
      <trkpt lat="46.008128374814987" lon="7.288185004144907">
        <ele>2339.02</ele>
        <time>2016-07-06T12:49:02Z</time>
      </trkpt>
      <trkpt lat="46.008101552724838" lon="7.288162037730217">
        <ele>2339.5100000000002</ele>
        <time>2016-07-06T12:49:11Z</time>
      </trkpt>
      <trkpt lat="46.008047489449382" lon="7.288140160962939">
        <ele>2340.9499999999998</ele>
        <time>2016-07-06T12:49:21Z</time>
      </trkpt>
      <trkpt lat="46.007996611297131" lon="7.288097916170955">
        <ele>2342.8699999999999</ele>
        <time>2016-07-06T12:49:34Z</time>
      </trkpt>
      <trkpt lat="46.007939865812659" lon="7.288067489862442">
        <ele>2344.3099999999999</ele>
        <time>2016-07-06T12:49:45Z</time>
      </trkpt>
      <trkpt lat="46.007879599928856" lon="7.288023736327887">
        <ele>2345.27</ele>
        <time>2016-07-06T12:49:56Z</time>
      </trkpt>
      <trkpt lat="46.007830146700144" lon="7.287989035248756">
        <ele>2345.75</ele>
        <time>2016-07-06T12:50:05Z</time>
      </trkpt>
      <trkpt lat="46.007739203050733" lon="7.287911754101515">
        <ele>2345.75</ele>
        <time>2016-07-06T12:50:17Z</time>
      </trkpt>
      <trkpt lat="46.007645996287465" lon="7.287874622270465">
        <ele>2347.1999999999998</ele>
        <time>2016-07-06T12:50:28Z</time>
      </trkpt>
      <trkpt lat="46.007571564987302" lon="7.287875209003687">
        <ele>2348.1599999999999</ele>
        <time>2016-07-06T12:50:38Z</time>
      </trkpt>
      <trkpt lat="46.007536528632045" lon="7.287842268124223">
        <ele>2348.6399999999999</ele>
        <time>2016-07-06T12:50:43Z</time>
      </trkpt>
      <trkpt lat="46.007454805076122" lon="7.287821648642421">
        <ele>2350.0799999999999</ele>
        <time>2016-07-06T12:50:54Z</time>
      </trkpt>
      <trkpt lat="46.007396802306175" lon="7.287865988910198">
        <ele>2350.0799999999999</ele>
        <time>2016-07-06T12:51:04Z</time>
      </trkpt>
      <trkpt lat="46.007399149239063" lon="7.287851152941585">
        <ele>2350.0799999999999</ele>
        <time>2016-07-06T12:51:18Z</time>
      </trkpt>
      <trkpt lat="46.00740292109549" lon="7.287885937839747">
        <ele>2350.5599999999999</ele>
        <time>2016-07-06T12:51:31Z</time>
      </trkpt>
      <trkpt lat="46.007406022399664" lon="7.287922482937574">
        <ele>2350.5599999999999</ele>
        <time>2016-07-06T12:51:35Z</time>
      </trkpt>
      <trkpt lat="46.00739068351686" lon="7.288008900359273">
        <ele>2349.1199999999999</ele>
        <time>2016-07-06T12:51:42Z</time>
      </trkpt>
      <trkpt lat="46.007292866706848" lon="7.288053659722209">
        <ele>2349.5999999999999</ele>
        <time>2016-07-06T12:51:54Z</time>
      </trkpt>
      <trkpt lat="46.007293537259102" lon="7.288132701069117">
        <ele>2347.6799999999998</ele>
        <time>2016-07-06T12:52:04Z</time>
      </trkpt>
      <trkpt lat="46.007281802594662" lon="7.288213251158595">
        <ele>2347.6799999999998</ele>
        <time>2016-07-06T12:52:13Z</time>
      </trkpt>
      <trkpt lat="46.007249532267451" lon="7.28823596611619">
        <ele>2348.6399999999999</ele>
        <time>2016-07-06T12:52:21Z</time>
      </trkpt>
      <trkpt lat="46.00719278678298" lon="7.288257172331214">
        <ele>2350.5599999999999</ele>
        <time>2016-07-06T12:52:31Z</time>
      </trkpt>
      <trkpt lat="46.007144087925553" lon="7.288207300007343">
        <ele>2351.04</ele>
        <time>2016-07-06T12:52:40Z</time>
      </trkpt>
      <trkpt lat="46.007081978023052" lon="7.288167653605342">
        <ele>2351.52</ele>
        <time>2016-07-06T12:52:50Z</time>
      </trkpt>
      <trkpt lat="46.007036129012704" lon="7.288141585886478">
        <ele>2352.96</ele>
        <time>2016-07-06T12:52:59Z</time>
      </trkpt>
      <trkpt lat="46.00702615454793" lon="7.288153739646077">
        <ele>2352.96</ele>
        <time>2016-07-06T12:53:05Z</time>
      </trkpt>
      <trkpt lat="46.007003020495176" lon="7.288131443783641">
        <ele>2352.96</ele>
        <time>2016-07-06T12:53:08Z</time>
      </trkpt>
      <trkpt lat="46.006944682449102" lon="7.288134712725878">
        <ele>2352</ele>
        <time>2016-07-06T12:53:14Z</time>
      </trkpt>
      <trkpt lat="46.00693236105144" lon="7.288182741031051">
        <ele>2352.48</ele>
        <time>2016-07-06T12:53:18Z</time>
      </trkpt>
      <trkpt lat="46.006927415728569" lon="7.288213921710849">
        <ele>2352</ele>
        <time>2016-07-06T12:53:20Z</time>
      </trkpt>
      <trkpt lat="46.006904533132911" lon="7.28825113736093">
        <ele>2352</ele>
        <time>2016-07-06T12:53:23Z</time>
      </trkpt>
      <trkpt lat="46.006872514262795" lon="7.288286006078124">
        <ele>2352</ele>
        <time>2016-07-06T12:53:28Z</time>
      </trkpt>
      <trkpt lat="46.006870418787003" lon="7.288431264460087">
        <ele>2352.48</ele>
        <time>2016-07-06T12:53:39Z</time>
      </trkpt>
      <trkpt lat="46.006862204521894" lon="7.288538971915841">
        <ele>2354.4099999999999</ele>
        <time>2016-07-06T12:53:51Z</time>
      </trkpt>
      <trkpt lat="46.006832700222731" lon="7.288637543097138">
        <ele>2354.8899999999999</ele>
        <time>2016-07-06T12:54:01Z</time>
      </trkpt>
      <trkpt lat="46.006771344691515" lon="7.288647685199976">
        <ele>2355.8499999999999</ele>
        <time>2016-07-06T12:54:10Z</time>
      </trkpt>
      <trkpt lat="46.006746534258127" lon="7.288683811202645">
        <ele>2357.29</ele>
        <time>2016-07-06T12:54:18Z</time>
      </trkpt>
      <trkpt lat="46.006739242002368" lon="7.288703927770257">
        <ele>2357.77</ele>
        <time>2016-07-06T12:54:22Z</time>
      </trkpt>
      <trkpt lat="46.006690124049783" lon="7.288746843114495">
        <ele>2358.73</ele>
        <time>2016-07-06T12:54:33Z</time>
      </trkpt>
      <trkpt lat="46.006665900349617" lon="7.288807025179267">
        <ele>2359.21</ele>
        <time>2016-07-06T12:54:43Z</time>
      </trkpt>
      <trkpt lat="46.006669420748949" lon="7.288811383768916">
        <ele>2359.21</ele>
        <time>2016-07-06T12:54:55Z</time>
      </trkpt>
      <trkpt lat="46.006643520668149" lon="7.28874265216291">
        <ele>2359.6900000000001</ele>
        <time>2016-07-06T12:55:07Z</time>
      </trkpt>
      <trkpt lat="46.006629187613726" lon="7.288687918335199">
        <ele>2360.6500000000001</ele>
        <time>2016-07-06T12:55:16Z</time>
      </trkpt>
      <trkpt lat="46.006598006933928" lon="7.288639303296804">
        <ele>2361.6199999999999</ele>
        <time>2016-07-06T12:55:24Z</time>
      </trkpt>
      <trkpt lat="46.006552828475833" lon="7.288625137880445">
        <ele>2363.0599999999999</ele>
        <time>2016-07-06T12:55:35Z</time>
      </trkpt>
      <trkpt lat="46.00653070025146" lon="7.28862589225173">
        <ele>2363.54</ele>
        <time>2016-07-06T12:55:40Z</time>
      </trkpt>
      <trkpt lat="46.006471188738942" lon="7.288616923615336">
        <ele>2364.5</ele>
        <time>2016-07-06T12:55:50Z</time>
      </trkpt>
      <trkpt lat="46.006497675552964" lon="7.288651959970594">
        <ele>2364.5</ele>
        <time>2016-07-06T12:56:12Z</time>
      </trkpt>
      <trkpt lat="46.006453167647123" lon="7.288650870323181">
        <ele>2364.98</ele>
        <time>2016-07-06T12:56:29Z</time>
      </trkpt>
      <trkpt lat="46.006448222324252" lon="7.288665287196636">
        <ele>2364.98</ele>
        <time>2016-07-06T12:56:44Z</time>
      </trkpt>
      <trkpt lat="46.006435230374336" lon="7.288630250841379">
        <ele>2364.5</ele>
        <time>2016-07-06T12:56:54Z</time>
      </trkpt>
      <trkpt lat="46.006357194855809" lon="7.288566883653402">
        <ele>2364.02</ele>
        <time>2016-07-06T12:57:06Z</time>
      </trkpt>
      <trkpt lat="46.006332887336612" lon="7.288538720458746">
        <ele>2364.5</ele>
        <time>2016-07-06T12:57:22Z</time>
      </trkpt>
      <trkpt lat="46.00635526701808" lon="7.288504270836711">
        <ele>2365.46</ele>
        <time>2016-07-06T12:57:31Z</time>
      </trkpt>
      <trkpt lat="46.006311513483524" lon="7.288495888933539">
        <ele>2364.98</ele>
        <time>2016-07-06T12:57:44Z</time>
      </trkpt>
      <trkpt lat="46.006322661414742" lon="7.288473509252071">
        <ele>2365.46</ele>
        <time>2016-07-06T12:57:53Z</time>
      </trkpt>
      <trkpt lat="46.006346046924591" lon="7.288507288321853">
        <ele>2364.98</ele>
        <time>2016-07-06T12:58:08Z</time>
      </trkpt>
      <trkpt lat="46.006352752447128" lon="7.288523213937879">
        <ele>2364.98</ele>
        <time>2016-07-06T12:58:20Z</time>
      </trkpt>
      <trkpt lat="46.006347723305225" lon="7.288540899753571">
        <ele>2364.98</ele>
        <time>2016-07-06T12:58:38Z</time>
      </trkpt>
      <trkpt lat="46.00634403526783" lon="7.288561686873436">
        <ele>2364.02</ele>
        <time>2016-07-06T12:58:50Z</time>
      </trkpt>
      <trkpt lat="46.006342945620418" lon="7.288579791784287">
        <ele>2364.5</ele>
        <time>2016-07-06T13:00:11Z</time>
      </trkpt>
      <trkpt lat="46.006323080509901" lon="7.288532769307494">
        <ele>2364.5</ele>
        <time>2016-07-06T13:00:12Z</time>
      </trkpt>
      <trkpt lat="46.006303802132607" lon="7.288534948602319">
        <ele>2364.02</ele>
        <time>2016-07-06T13:00:25Z</time>
      </trkpt>
      <trkpt lat="46.006281170994043" lon="7.288524890318513">
        <ele>2364.98</ele>
        <time>2016-07-06T13:00:36Z</time>
      </trkpt>
      <trkpt lat="46.006279578432441" lon="7.288563949987292">
        <ele>2364.5</ele>
        <time>2016-07-06T13:00:57Z</time>
      </trkpt>
      <trkpt lat="46.006263233721256" lon="7.288550874218345">
        <ele>2364.98</ele>
        <time>2016-07-06T13:01:07Z</time>
      </trkpt>
      <trkpt lat="46.006215875968337" lon="7.288693869486451">
        <ele>2364.02</ele>
        <time>2016-07-06T13:01:19Z</time>
      </trkpt>
      <trkpt lat="46.006199195981026" lon="7.288751369342208">
        <ele>2364.02</ele>
        <time>2016-07-06T13:01:24Z</time>
      </trkpt>
      <trkpt lat="46.006125099956989" lon="7.288939207792282">
        <ele>2364.02</ele>
        <time>2016-07-06T13:01:41Z</time>
      </trkpt>
      <trkpt lat="46.006104815751314" lon="7.288994528353214">
        <ele>2363.54</ele>
        <time>2016-07-06T13:01:54Z</time>
      </trkpt>
      <trkpt lat="46.006046645343304" lon="7.289120340719819">
        <ele>2363.0599999999999</ele>
        <time>2016-07-06T13:02:06Z</time>
      </trkpt>
      <trkpt lat="46.006022086367011" lon="7.289236262440682">
        <ele>2363.0599999999999</ele>
        <time>2016-07-06T13:02:20Z</time>
      </trkpt>
      <trkpt lat="46.005976991727948" lon="7.289338437840343">
        <ele>2363.0599999999999</ele>
        <time>2016-07-06T13:02:32Z</time>
      </trkpt>
      <trkpt lat="46.00593944080174" lon="7.289445893839002">
        <ele>2363.0599999999999</ele>
        <time>2016-07-06T13:02:43Z</time>
      </trkpt>
      <trkpt lat="46.005870122462511" lon="7.289576651528478">
        <ele>2363.54</ele>
        <time>2016-07-06T13:02:57Z</time>
      </trkpt>
      <trkpt lat="46.005833828821778" lon="7.289674719795585">
        <ele>2363.54</ele>
        <time>2016-07-06T13:03:07Z</time>
      </trkpt>
      <trkpt lat="46.005796864628792" lon="7.289825342595577">
        <ele>2364.5</ele>
        <time>2016-07-06T13:03:19Z</time>
      </trkpt>
      <trkpt lat="46.005770042538643" lon="7.289888877421618">
        <ele>2364.98</ele>
        <time>2016-07-06T13:03:29Z</time>
      </trkpt>
      <trkpt lat="46.005754871293902" lon="7.289886362850666">
        <ele>2364.98</ele>
        <time>2016-07-06T13:03:41Z</time>
      </trkpt>
      <trkpt lat="46.005741376429796" lon="7.289949227124453">
        <ele>2364.98</ele>
        <time>2016-07-06T13:03:52Z</time>
      </trkpt>
      <trkpt lat="46.005671806633472" lon="7.290090881288052">
        <ele>2367.3800000000001</ele>
        <time>2016-07-06T13:04:05Z</time>
      </trkpt>
      <trkpt lat="46.005631992593408" lon="7.290204456076026">
        <ele>2367.8600000000001</ele>
        <time>2016-07-06T13:04:16Z</time>
      </trkpt>
      <trkpt lat="46.005586897954345" lon="7.290313839912415">
        <ele>2368.3499999999999</ele>
        <time>2016-07-06T13:04:27Z</time>
      </trkpt>
      <trkpt lat="46.005536857992411" lon="7.290445184335113">
        <ele>2369.79</ele>
        <time>2016-07-06T13:04:40Z</time>
      </trkpt>
      <trkpt lat="46.005500061437488" lon="7.290550880134106">
        <ele>2370.27</ele>
        <time>2016-07-06T13:04:51Z</time>
      </trkpt>
      <trkpt lat="46.005469299852848" lon="7.290636207908392">
        <ele>2371.23</ele>
        <time>2016-07-06T13:05:02Z</time>
      </trkpt>
      <trkpt lat="46.005481285974383" lon="7.290666131302714">
        <ele>2370.75</ele>
        <time>2016-07-06T13:05:12Z</time>
      </trkpt>
      <trkpt lat="46.005476759746671" lon="7.290697228163481">
        <ele>2370.75</ele>
        <time>2016-07-06T13:05:25Z</time>
      </trkpt>
      <trkpt lat="46.005483884364367" lon="7.290718266740441">
        <ele>2370.75</ele>
        <time>2016-07-06T13:05:39Z</time>
      </trkpt>
      <trkpt lat="46.005486566573381" lon="7.290752967819572">
        <ele>2370.27</ele>
        <time>2016-07-06T13:05:49Z</time>
      </trkpt>
      <trkpt lat="46.005511628463864" lon="7.290797056630254">
        <ele>2370.75</ele>
        <time>2016-07-06T13:05:59Z</time>
      </trkpt>
      <trkpt lat="46.005510790273547" lon="7.290761349722743">
        <ele>2370.75</ele>
        <time>2016-07-06T13:06:10Z</time>
      </trkpt>
      <trkpt lat="46.005498887971044" lon="7.290739975869656">
        <ele>2370.75</ele>
        <time>2016-07-06T13:06:28Z</time>
      </trkpt>
      <trkpt lat="46.005524871870875" lon="7.290816754102707">
        <ele>2371.23</ele>
        <time>2016-07-06T13:06:44Z</time>
      </trkpt>
      <trkpt lat="46.005543144419789" lon="7.290915492922068">
        <ele>2372.6700000000001</ele>
        <time>2016-07-06T13:06:55Z</time>
      </trkpt>
      <trkpt lat="46.005558986216784" lon="7.290970562025905">
        <ele>2373.1500000000001</ele>
        <time>2016-07-06T13:07:02Z</time>
      </trkpt>
      <trkpt lat="46.005575079470873" lon="7.291028648614883">
        <ele>2372.1900000000001</ele>
        <time>2016-07-06T13:07:06Z</time>
      </trkpt>
      <trkpt lat="46.005589915439487" lon="7.291136775165796">
        <ele>2372.6700000000001</ele>
        <time>2016-07-06T13:07:18Z</time>
      </trkpt>
      <trkpt lat="46.005601985380054" lon="7.29116577655077">
        <ele>2374.5900000000001</ele>
        <time>2016-07-06T13:07:22Z</time>
      </trkpt>
      <trkpt lat="46.005617994815111" lon="7.29123517870903">
        <ele>2375.0700000000002</ele>
        <time>2016-07-06T13:07:32Z</time>
      </trkpt>
      <trkpt lat="46.005630483850837" lon="7.291289828717709">
        <ele>2377</ele>
        <time>2016-07-06T13:07:44Z</time>
      </trkpt>
      <trkpt lat="46.005645403638482" lon="7.291390411555767">
        <ele>2378.9200000000001</ele>
        <time>2016-07-06T13:07:56Z</time>
      </trkpt>
      <trkpt lat="46.005674321204424" lon="7.291433326900005">
        <ele>2379.4000000000001</ele>
        <time>2016-07-06T13:08:02Z</time>
      </trkpt>
      <trkpt lat="46.005696197971702" lon="7.291515301913023">
        <ele>2379.8800000000001</ele>
        <time>2016-07-06T13:08:11Z</time>
      </trkpt>
      <trkpt lat="46.005663843825459" lon="7.291489485651255">
        <ele>2379.8800000000001</ele>
        <time>2016-07-06T13:08:22Z</time>
      </trkpt>
      <trkpt lat="46.005691168829799" lon="7.291584955528379">
        <ele>2378.4400000000001</ele>
        <time>2016-07-06T13:08:31Z</time>
      </trkpt>
      <trkpt lat="46.005681781098247" lon="7.29166567325592">
        <ele>2378.4400000000001</ele>
        <time>2016-07-06T13:08:38Z</time>
      </trkpt>
      <trkpt lat="46.005718493834138" lon="7.291764663532376">
        <ele>2378.9200000000001</ele>
        <time>2016-07-06T13:08:48Z</time>
      </trkpt>
      <trkpt lat="46.005765181034803" lon="7.291851751506329">
        <ele>2379.8800000000001</ele>
        <time>2016-07-06T13:08:58Z</time>
      </trkpt>
      <trkpt lat="46.005801055580378" lon="7.291911765933037">
        <ele>2380.8400000000001</ele>
        <time>2016-07-06T13:09:07Z</time>
      </trkpt>
      <trkpt lat="46.005831146612763" lon="7.291960380971432">
        <ele>2382.2800000000002</ele>
        <time>2016-07-06T13:09:14Z</time>
      </trkpt>
      <trkpt lat="46.005897196009755" lon="7.292021904140711">
        <ele>2383.25</ele>
        <time>2016-07-06T13:09:25Z</time>
      </trkpt>
      <trkpt lat="46.005951259285212" lon="7.292075799778104">
        <ele>2384.6900000000001</ele>
        <time>2016-07-06T13:09:35Z</time>
      </trkpt>
      <trkpt lat="46.006011692807078" lon="7.292150817811489">
        <ele>2385.6500000000001</ele>
        <time>2016-07-06T13:09:45Z</time>
      </trkpt>
      <trkpt lat="46.006076987832785" lon="7.292227847501636">
        <ele>2386.6100000000001</ele>
        <time>2016-07-06T13:09:56Z</time>
      </trkpt>
      <trkpt lat="46.00615443661809" lon="7.292309822514653">
        <ele>2387.0900000000001</ele>
        <time>2016-07-06T13:10:06Z</time>
      </trkpt>
      <trkpt lat="46.006235321983695" lon="7.29238735511899">
        <ele>2385.1700000000001</ele>
        <time>2016-07-06T13:10:15Z</time>
      </trkpt>
      <trkpt lat="46.006271867081523" lon="7.292462456971407">
        <ele>2385.6500000000001</ele>
        <time>2016-07-06T13:10:25Z</time>
      </trkpt>
      <trkpt lat="46.00632693618536" lon="7.292563039809465">
        <ele>2386.6100000000001</ele>
        <time>2016-07-06T13:10:34Z</time>
      </trkpt>
      <trkpt lat="46.006392985582352" lon="7.292668735608459">
        <ele>2389.0100000000002</ele>
        <time>2016-07-06T13:10:46Z</time>
      </trkpt>
      <trkpt lat="46.006430871784687" lon="7.29270787909627">
        <ele>2389.0100000000002</ele>
        <time>2016-07-06T13:10:53Z</time>
      </trkpt>
      <trkpt lat="46.006451155990362" lon="7.292741658166051">
        <ele>2389.0100000000002</ele>
        <time>2016-07-06T13:10:56Z</time>
      </trkpt>
      <trkpt lat="46.00646766833961" lon="7.292809216305614">
        <ele>2389.0100000000002</ele>
        <time>2016-07-06T13:11:06Z</time>
      </trkpt>
      <trkpt lat="46.006446965038776" lon="7.29284810833633">
        <ele>2390.9400000000001</ele>
        <time>2016-07-06T13:11:16Z</time>
      </trkpt>
      <trkpt lat="46.006437661126256" lon="7.292857663705945">
        <ele>2391.9000000000001</ele>
        <time>2016-07-06T13:11:24Z</time>
      </trkpt>
      <trkpt lat="46.006469177082181" lon="7.292958749458194">
        <ele>2394.3000000000002</ele>
        <time>2016-07-06T13:11:35Z</time>
      </trkpt>
      <trkpt lat="46.006487784907222" lon="7.293077688664198">
        <ele>2396.6999999999998</ele>
        <time>2016-07-06T13:11:48Z</time>
      </trkpt>
      <trkpt lat="46.006514020264149" lon="7.293187323957682">
        <ele>2398.6300000000001</ele>
        <time>2016-07-06T13:12:02Z</time>
      </trkpt>
      <trkpt lat="46.006532041355968" lon="7.293258653953672">
        <ele>2399.5900000000001</ele>
        <time>2016-07-06T13:12:13Z</time>
      </trkpt>
      <trkpt lat="46.006563473492861" lon="7.293392512947321">
        <ele>2401.5100000000002</ele>
        <time>2016-07-06T13:12:27Z</time>
      </trkpt>
      <trkpt lat="46.006570849567652" lon="7.293477589264512">
        <ele>2403.4299999999998</ele>
        <time>2016-07-06T13:12:39Z</time>
      </trkpt>
      <trkpt lat="46.006592139601707" lon="7.293602647259831">
        <ele>2405.3600000000001</ele>
        <time>2016-07-06T13:12:54Z</time>
      </trkpt>
      <trkpt lat="46.006611585617065" lon="7.293686298653483">
        <ele>2406.8000000000002</ele>
        <time>2016-07-06T13:13:04Z</time>
      </trkpt>
      <trkpt lat="46.00664159283042" lon="7.293778583407402">
        <ele>2408.2399999999998</ele>
        <time>2016-07-06T13:13:15Z</time>
      </trkpt>
      <trkpt lat="46.00661032833159" lon="7.293856870383024">
        <ele>2410.1599999999999</ele>
        <time>2016-07-06T13:13:26Z</time>
      </trkpt>
      <trkpt lat="46.006518714129925" lon="7.293841699138284">
        <ele>2410.6399999999999</ele>
        <time>2016-07-06T13:13:36Z</time>
      </trkpt>
      <trkpt lat="46.006445959210396" lon="7.293828874826431">
        <ele>2411.5999999999999</ele>
        <time>2016-07-06T13:13:46Z</time>
      </trkpt>
      <trkpt lat="46.006402038037777" lon="7.293827114626765">
        <ele>2413.0500000000002</ele>
        <time>2016-07-06T13:13:56Z</time>
      </trkpt>
      <trkpt lat="46.006352584809065" lon="7.293828623369336">
        <ele>2414.9699999999998</ele>
        <time>2016-07-06T13:14:07Z</time>
      </trkpt>
      <trkpt lat="46.006333641707897" lon="7.293845722451806">
        <ele>2415.9299999999998</ele>
        <time>2016-07-06T13:14:18Z</time>
      </trkpt>
      <trkpt lat="46.006319643929601" lon="7.293897019699216">
        <ele>2417.8499999999999</ele>
        <time>2016-07-06T13:14:28Z</time>
      </trkpt>
      <trkpt lat="46.006344119086862" lon="7.294025346636772">
        <ele>2419.3000000000002</ele>
        <time>2016-07-06T13:14:42Z</time>
      </trkpt>
      <trkpt lat="46.006356691941619" lon="7.294126097112894">
        <ele>2420.7399999999998</ele>
        <time>2016-07-06T13:14:54Z</time>
      </trkpt>
      <trkpt lat="46.006355853751302" lon="7.294137747958303">
        <ele>2421.2199999999998</ele>
        <time>2016-07-06T13:14:55Z</time>
      </trkpt>
      <trkpt lat="46.006335485726595" lon="7.294229697436094">
        <ele>2422.1799999999998</ele>
        <time>2016-07-06T13:15:06Z</time>
      </trkpt>
      <trkpt lat="46.006274381652474" lon="7.294170605018735">
        <ele>2423.6199999999999</ele>
        <time>2016-07-06T13:15:16Z</time>
      </trkpt>
      <trkpt lat="46.00623314268887" lon="7.294206814840436">
        <ele>2424.5799999999999</ele>
        <time>2016-07-06T13:15:24Z</time>
      </trkpt>
      <trkpt lat="46.006232975050807" lon="7.29429884813726">
        <ele>2425.0599999999999</ele>
        <time>2016-07-06T13:15:34Z</time>
      </trkpt>
      <trkpt lat="46.006234819069505" lon="7.294310079887509">
        <ele>2425.0599999999999</ele>
        <time>2016-07-06T13:15:35Z</time>
      </trkpt>
      <trkpt lat="46.006261222064495" lon="7.294410075992346">
        <ele>2426.5</ele>
        <time>2016-07-06T13:15:46Z</time>
      </trkpt>
      <trkpt lat="46.006265077739954" lon="7.294415356591344">
        <ele>2426.5</ele>
        <time>2016-07-06T13:15:47Z</time>
      </trkpt>
      <trkpt lat="46.006303718313575" lon="7.294511245563626">
        <ele>2427.9499999999998</ele>
        <time>2016-07-06T13:15:58Z</time>
      </trkpt>
      <trkpt lat="46.006336743012071" lon="7.294598584994674">
        <ele>2428.9099999999999</ele>
        <time>2016-07-06T13:16:08Z</time>
      </trkpt>
      <trkpt lat="46.006261389702559" lon="7.294565476477146">
        <ele>2430.3499999999999</ele>
        <time>2016-07-06T13:16:19Z</time>
      </trkpt>
      <trkpt lat="46.006203219294548" lon="7.294539241120219">
        <ele>2432.27</ele>
        <time>2016-07-06T13:16:32Z</time>
      </trkpt>
      <trkpt lat="46.006156951189041" lon="7.29453831911087">
        <ele>2434.6799999999998</ele>
        <time>2016-07-06T13:16:44Z</time>
      </trkpt>
      <trkpt lat="46.006105318665504" lon="7.294528009369969">
        <ele>2436.1199999999999</ele>
        <time>2016-07-06T13:16:56Z</time>
      </trkpt>
      <trkpt lat="46.006051590666175" lon="7.294525075703859">
        <ele>2437.5599999999999</ele>
        <time>2016-07-06T13:17:06Z</time>
      </trkpt>
      <trkpt lat="46.005969615653157" lon="7.294515604153276">
        <ele>2439.48</ele>
        <time>2016-07-06T13:17:18Z</time>
      </trkpt>
      <trkpt lat="46.005889065563679" lon="7.294509569182992">
        <ele>2440.4400000000001</ele>
        <time>2016-07-06T13:17:31Z</time>
      </trkpt>
      <trkpt lat="46.005802983418107" lon="7.294511497020721">
        <ele>2443.3299999999999</ele>
        <time>2016-07-06T13:17:45Z</time>
      </trkpt>
      <trkpt lat="46.005716565996408" lon="7.294536307454109">
        <ele>2444.77</ele>
        <time>2016-07-06T13:17:57Z</time>
      </trkpt>
      <trkpt lat="46.005666442215443" lon="7.29455198161304">
        <ele>2446.6900000000001</ele>
        <time>2016-07-06T13:18:06Z</time>
      </trkpt>
      <trkpt lat="46.005599135532975" lon="7.294562626630068">
        <ele>2447.1700000000001</ele>
        <time>2016-07-06T13:18:18Z</time>
      </trkpt>
      <trkpt lat="46.005523698404431" lon="7.294589029625058">
        <ele>2448.6199999999999</ele>
        <time>2016-07-06T13:18:30Z</time>
      </trkpt>
      <trkpt lat="46.005427474156022" lon="7.294601183384657">
        <ele>2450.54</ele>
        <time>2016-07-06T13:18:43Z</time>
      </trkpt>
      <trkpt lat="46.005381038412452" lon="7.294629011303186">
        <ele>2451.5</ele>
        <time>2016-07-06T13:18:53Z</time>
      </trkpt>
      <trkpt lat="46.005349103361368" lon="7.294678380712867">
        <ele>2453.4200000000001</ele>
        <time>2016-07-06T13:19:06Z</time>
      </trkpt>
      <trkpt lat="46.005326891317964" lon="7.294569164514542">
        <ele>2454.3800000000001</ele>
        <time>2016-07-06T13:19:18Z</time>
      </trkpt>
      <trkpt lat="46.005307110026479" lon="7.294530440121889">
        <ele>2455.3400000000001</ele>
        <time>2016-07-06T13:19:31Z</time>
      </trkpt>
      <trkpt lat="46.005288669839501" lon="7.294563297182322">
        <ele>2456.79</ele>
        <time>2016-07-06T13:19:43Z</time>
      </trkpt>
      <trkpt lat="46.005284814164042" lon="7.294616606086493">
        <ele>2457.75</ele>
        <time>2016-07-06T13:19:51Z</time>
      </trkpt>
      <trkpt lat="46.005235612392426" lon="7.294573104009032">
        <ele>2460.1500000000001</ele>
        <time>2016-07-06T13:20:03Z</time>
      </trkpt>
      <trkpt lat="46.005220524966717" lon="7.294459864497185">
        <ele>2462.0700000000002</ele>
        <time>2016-07-06T13:20:17Z</time>
      </trkpt>
      <trkpt lat="46.005207197740674" lon="7.294458691030741">
        <ele>2463.04</ele>
        <time>2016-07-06T13:20:27Z</time>
      </trkpt>
      <trkpt lat="46.005198815837502" lon="7.294492637738586">
        <ele>2464</ele>
        <time>2016-07-06T13:20:34Z</time>
      </trkpt>
      <trkpt lat="46.005164701491594" lon="7.294537397101522">
        <ele>2465.4400000000001</ele>
        <time>2016-07-06T13:20:44Z</time>
      </trkpt>
      <trkpt lat="46.005146009847522" lon="7.294579222798348">
        <ele>2466.8800000000001</ele>
        <time>2016-07-06T13:20:54Z</time>
      </trkpt>
      <trkpt lat="46.005088845267892" lon="7.294604452326894">
        <ele>2468.8000000000002</ele>
        <time>2016-07-06T13:21:07Z</time>
      </trkpt>
      <trkpt lat="46.005064286291599" lon="7.294515436515212">
        <ele>2470.73</ele>
        <time>2016-07-06T13:21:19Z</time>
      </trkpt>
      <trkpt lat="46.005061436444521" lon="7.29443522170186">
        <ele>2472.6500000000001</ele>
        <time>2016-07-06T13:21:33Z</time>
      </trkpt>
      <trkpt lat="46.005071830004454" lon="7.294370178133249">
        <ele>2474.0900000000001</ele>
        <time>2016-07-06T13:21:43Z</time>
      </trkpt>
      <trkpt lat="46.005046768113971" lon="7.294371770694852">
        <ele>2475.5300000000002</ele>
        <time>2016-07-06T13:21:54Z</time>
      </trkpt>
      <trkpt lat="46.005023466423154" lon="7.294454835355282">
        <ele>2477.4499999999998</ele>
        <time>2016-07-06T13:22:07Z</time>
      </trkpt>
      <trkpt lat="46.004968648776412" lon="7.294482411816716">
        <ele>2478.9000000000001</ele>
        <time>2016-07-06T13:22:18Z</time>
      </trkpt>
      <trkpt lat="46.004881476983428" lon="7.294473107904196">
        <ele>2480.8200000000002</ele>
        <time>2016-07-06T13:22:31Z</time>
      </trkpt>
      <trkpt lat="46.004874855279922" lon="7.294471012428403">
        <ele>2480.8200000000002</ele>
        <time>2016-07-06T13:22:32Z</time>
      </trkpt>
      <trkpt lat="46.004786258563399" lon="7.294403873383999">
        <ele>2481.7800000000002</ele>
        <time>2016-07-06T13:22:44Z</time>
      </trkpt>
      <trkpt lat="46.004717024043202" lon="7.294354001060128">
        <ele>2482.2600000000002</ele>
        <time>2016-07-06T13:22:53Z</time>
      </trkpt>
      <trkpt lat="46.004683161154389" lon="7.294338829815388">
        <ele>2482.7399999999998</ele>
        <time>2016-07-06T13:22:57Z</time>
      </trkpt>
      <trkpt lat="46.004643011838198" lon="7.294393312186003">
        <ele>2482.7399999999998</ele>
        <time>2016-07-06T13:23:08Z</time>
      </trkpt>
      <trkpt lat="46.004617195576429" lon="7.294424995779991">
        <ele>2484.1799999999998</ele>
        <time>2016-07-06T13:23:16Z</time>
      </trkpt>
      <trkpt lat="46.004614513367414" lon="7.294504707679153">
        <ele>2486.1100000000001</ele>
        <time>2016-07-06T13:23:30Z</time>
      </trkpt>
      <trkpt lat="46.004567993804812" lon="7.294560531154275">
        <ele>2487.5500000000002</ele>
        <time>2016-07-06T13:23:43Z</time>
      </trkpt>
      <trkpt lat="46.004564138129354" lon="7.294557597488165">
        <ele>2488.0300000000002</ele>
        <time>2016-07-06T13:23:44Z</time>
      </trkpt>
      <trkpt lat="46.004525581374764" lon="7.294550724327564">
        <ele>2488.9899999999998</ele>
        <time>2016-07-06T13:23:53Z</time>
      </trkpt>
      <trkpt lat="46.004480067640543" lon="7.29455441236496">
        <ele>2490.9099999999999</ele>
        <time>2016-07-06T13:24:04Z</time>
      </trkpt>
      <trkpt lat="46.004424998536706" lon="7.294491128996015">
        <ele>2492.3600000000001</ele>
        <time>2016-07-06T13:24:15Z</time>
      </trkpt>
      <trkpt lat="46.00438610650599" lon="7.294504791498184">
        <ele>2493.8000000000002</ele>
        <time>2016-07-06T13:24:28Z</time>
      </trkpt>
      <trkpt lat="46.004353752359748" lon="7.294525327160955">
        <ele>2495.7199999999998</ele>
        <time>2016-07-06T13:24:38Z</time>
      </trkpt>
      <trkpt lat="46.004343861714005" lon="7.294587772339582">
        <ele>2497.1599999999999</ele>
        <time>2016-07-06T13:24:48Z</time>
      </trkpt>
      <trkpt lat="46.004346963018179" lon="7.294617611914873">
        <ele>2497.1599999999999</ele>
        <time>2016-07-06T13:24:51Z</time>
      </trkpt>
      <trkpt lat="46.004376215860248" lon="7.294740239158273">
        <ele>2498.1199999999999</ele>
        <time>2016-07-06T13:25:06Z</time>
      </trkpt>
      <trkpt lat="46.004382250830531" lon="7.294793296605349">
        <ele>2500.0500000000002</ele>
        <time>2016-07-06T13:25:18Z</time>
      </trkpt>
      <trkpt lat="46.004354590550065" lon="7.294866386801004">
        <ele>2501.9699999999998</ele>
        <time>2016-07-06T13:25:30Z</time>
      </trkpt>
      <trkpt lat="46.004287535324693" lon="7.294884575530887">
        <ele>2503.4099999999999</ele>
        <time>2016-07-06T13:25:41Z</time>
      </trkpt>
      <trkpt lat="46.004196926951408" lon="7.29485641233623">
        <ele>2505.3299999999999</ele>
        <time>2016-07-06T13:25:52Z</time>
      </trkpt>
      <trkpt lat="46.004144120961428" lon="7.294862698763609">
        <ele>2506.77</ele>
        <time>2016-07-06T13:26:02Z</time>
      </trkpt>
      <trkpt lat="46.004104809835553" lon="7.294911397621036">
        <ele>2508.2199999999998</ele>
        <time>2016-07-06T13:26:13Z</time>
      </trkpt>
      <trkpt lat="46.004081591963768" lon="7.294963533058763">
        <ele>2509.6599999999999</ele>
        <time>2016-07-06T13:26:24Z</time>
      </trkpt>
      <trkpt lat="46.00405678153038" lon="7.295024637132883">
        <ele>2511.0999999999999</ele>
        <time>2016-07-06T13:26:36Z</time>
      </trkpt>
      <trkpt lat="46.004023421555758" lon="7.295150700956583">
        <ele>2512.54</ele>
        <time>2016-07-06T13:26:49Z</time>
      </trkpt>
      <trkpt lat="46.003989307209849" lon="7.295215157791972">
        <ele>2514.9499999999998</ele>
        <time>2016-07-06T13:27:03Z</time>
      </trkpt>
      <trkpt lat="46.003976985812187" lon="7.295233514159918">
        <ele>2515.4299999999998</ele>
        <time>2016-07-06T13:27:07Z</time>
      </trkpt>
      <trkpt lat="46.003926359117031" lon="7.295339880511165">
        <ele>2515.4299999999998</ele>
        <time>2016-07-06T13:27:18Z</time>
      </trkpt>
      <trkpt lat="46.003867350518703" lon="7.295340467244387">
        <ele>2517.3499999999999</ele>
        <time>2016-07-06T13:27:28Z</time>
      </trkpt>
      <trkpt lat="46.003820328041911" lon="7.295294031500816">
        <ele>2519.27</ele>
        <time>2016-07-06T13:27:39Z</time>
      </trkpt>
      <trkpt lat="46.003804737702012" lon="7.295284559950233">
        <ele>2519.27</ele>
        <time>2016-07-06T13:27:43Z</time>
      </trkpt>
      <trkpt lat="46.003746651113033" lon="7.295155897736549">
        <ele>2520.23</ele>
        <time>2016-07-06T13:27:55Z</time>
      </trkpt>
      <trkpt lat="46.00366978906095" lon="7.295149946585298">
        <ele>2521.1900000000001</ele>
        <time>2016-07-06T13:28:06Z</time>
      </trkpt>
      <trkpt lat="46.00366149097681" lon="7.295161848887801">
        <ele>2521.1900000000001</ele>
        <time>2016-07-06T13:28:08Z</time>
      </trkpt>
      <trkpt lat="46.003650259226561" lon="7.295177606865764">
        <ele>2521.1900000000001</ele>
        <time>2016-07-06T13:28:10Z</time>
      </trkpt>
      <trkpt lat="46.00359158590436" lon="7.295224796980619">
        <ele>2519.27</ele>
        <time>2016-07-06T13:28:20Z</time>
      </trkpt>
      <trkpt lat="46.003577001392841" lon="7.295270226895809">
        <ele>2518.79</ele>
        <time>2016-07-06T13:28:25Z</time>
      </trkpt>
      <trkpt lat="46.003568954765797" lon="7.295308532193303">
        <ele>2518.79</ele>
        <time>2016-07-06T13:28:28Z</time>
      </trkpt>
      <trkpt lat="46.003514472395182" lon="7.295396625995636">
        <ele>2519.27</ele>
        <time>2016-07-06T13:28:39Z</time>
      </trkpt>
      <trkpt lat="46.003508102148771" lon="7.29545789770782">
        <ele>2520.23</ele>
        <time>2016-07-06T13:28:46Z</time>
      </trkpt>
      <trkpt lat="46.003495613113046" lon="7.295515146106482">
        <ele>2520.71</ele>
        <time>2016-07-06T13:28:52Z</time>
      </trkpt>
      <trkpt lat="46.003495613113046" lon="7.295607849955559">
        <ele>2521.1900000000001</ele>
        <time>2016-07-06T13:29:00Z</time>
      </trkpt>
      <trkpt lat="46.003378769382834" lon="7.295617992058396">
        <ele>2522.1599999999999</ele>
        <time>2016-07-06T13:29:12Z</time>
      </trkpt>
      <trkpt lat="46.003345577046275" lon="7.295633247122169">
        <ele>2522.6399999999999</ele>
        <time>2016-07-06T13:29:16Z</time>
      </trkpt>
      <trkpt lat="46.003320347517729" lon="7.295634420588613">
        <ele>2522.6399999999999</ele>
        <time>2016-07-06T13:29:26Z</time>
      </trkpt>
      <trkpt lat="46.003335518762469" lon="7.295652609318495">
        <ele>2522.6399999999999</ele>
        <time>2016-07-06T13:29:39Z</time>
      </trkpt>
      <trkpt lat="46.003354964777827" lon="7.29562109336257">
        <ele>2521.6799999999998</ele>
        <time>2016-07-06T13:29:52Z</time>
      </trkpt>
      <trkpt lat="46.003336105495691" lon="7.295632073655725">
        <ele>2521.6799999999998</ele>
        <time>2016-07-06T13:30:11Z</time>
      </trkpt>
      <trkpt lat="46.003329148516059" lon="7.295621009543538">
        <ele>2522.6399999999999</ele>
        <time>2016-07-06T13:30:31Z</time>
      </trkpt>
      <trkpt lat="46.003337111324072" lon="7.295643640682101">
        <ele>2522.6399999999999</ele>
        <time>2016-07-06T13:30:41Z</time>
      </trkpt>
      <trkpt lat="46.003325460478663" lon="7.295639701187611">
        <ele>2523.5999999999999</ele>
        <time>2016-07-06T13:30:54Z</time>
      </trkpt>
      <trkpt lat="46.003325209021568" lon="7.295653447508812">
        <ele>2523.1199999999999</ele>
        <time>2016-07-06T13:31:09Z</time>
      </trkpt>
      <trkpt lat="46.003265446051955" lon="7.295654704794288">
        <ele>2524.5599999999999</ele>
        <time>2016-07-06T13:31:19Z</time>
      </trkpt>
      <trkpt lat="46.003203922882676" lon="7.29567633010447">
        <ele>2526.48</ele>
        <time>2016-07-06T13:31:30Z</time>
      </trkpt>
      <trkpt lat="46.003140974789858" lon="7.295674402266741">
        <ele>2528.4000000000001</ele>
        <time>2016-07-06T13:31:40Z</time>
      </trkpt>
      <trkpt lat="46.003053216263652" lon="7.295652609318495">
        <ele>2529.3699999999999</ele>
        <time>2016-07-06T13:31:50Z</time>
      </trkpt>
      <trkpt lat="46.002947520464659" lon="7.295698374509811">
        <ele>2529.3699999999999</ele>
        <time>2016-07-06T13:32:02Z</time>
      </trkpt>
      <trkpt lat="46.002877615392208" lon="7.295685801655054">
        <ele>2531.29</ele>
        <time>2016-07-06T13:32:12Z</time>
      </trkpt>
      <trkpt lat="46.002773847430944" lon="7.295725867152214">
        <ele>2531.29</ele>
        <time>2016-07-06T13:32:23Z</time>
      </trkpt>
      <trkpt lat="46.002761609852314" lon="7.295738942921162">
        <ele>2530.8099999999999</ele>
        <time>2016-07-06T13:32:25Z</time>
      </trkpt>
      <trkpt lat="46.00267443805933" lon="7.295747576281428">
        <ele>2532.25</ele>
        <time>2016-07-06T13:32:36Z</time>
      </trkpt>
      <trkpt lat="46.002603275701404" lon="7.295767944306135">
        <ele>2533.6900000000001</ele>
        <time>2016-07-06T13:32:47Z</time>
      </trkpt>
      <trkpt lat="46.002538148313761" lon="7.295804908499122">
        <ele>2536.0999999999999</ele>
        <time>2016-07-06T13:32:58Z</time>
      </trkpt>
      <trkpt lat="46.002525743097067" lon="7.295818319544196">
        <ele>2536.0999999999999</ele>
        <time>2016-07-06T13:33:00Z</time>
      </trkpt>
      <trkpt lat="46.002448629587889" lon="7.295833406969905">
        <ele>2536.5799999999999</ele>
        <time>2016-07-06T13:33:10Z</time>
      </trkpt>
      <trkpt lat="46.002428261563182" lon="7.295858133584261">
        <ele>2538.02</ele>
        <time>2016-07-06T13:33:15Z</time>
      </trkpt>
      <trkpt lat="46.002340922132134" lon="7.295848662033677">
        <ele>2539.46</ele>
        <time>2016-07-06T13:33:27Z</time>
      </trkpt>
      <trkpt lat="46.002266407012939" lon="7.295872634276748">
        <ele>2540.4200000000001</ele>
        <time>2016-07-06T13:33:38Z</time>
      </trkpt>
      <trkpt lat="46.002201782539487" lon="7.295887302607298">
        <ele>2541.8600000000001</ele>
        <time>2016-07-06T13:33:49Z</time>
      </trkpt>
      <trkpt lat="46.002127099782228" lon="7.295885961502791">
        <ele>2543.3099999999999</ele>
        <time>2016-07-06T13:33:59Z</time>
      </trkpt>
      <trkpt lat="46.002083094790578" lon="7.295931642875075">
        <ele>2544.75</ele>
        <time>2016-07-06T13:34:11Z</time>
      </trkpt>
      <trkpt lat="46.002067672088742" lon="7.295962488278747">
        <ele>2546.1900000000001</ele>
        <time>2016-07-06T13:34:21Z</time>
      </trkpt>
      <trkpt lat="46.002000449225307" lon="7.295972462743521">
        <ele>2548.1100000000001</ele>
        <time>2016-07-06T13:34:33Z</time>
      </trkpt>
      <trkpt lat="46.001916294917464" lon="7.295988891273737">
        <ele>2549.5500000000002</ele>
        <time>2016-07-06T13:34:45Z</time>
      </trkpt>
      <trkpt lat="46.001845384016633" lon="7.296000625938177">
        <ele>2551</ele>
        <time>2016-07-06T13:34:58Z</time>
      </trkpt>
      <trkpt lat="46.001850077882409" lon="7.296018060296774">
        <ele>2551</ele>
        <time>2016-07-06T13:35:15Z</time>
      </trkpt>
      <trkpt lat="46.001809341832995" lon="7.29610632173717">
        <ele>2551.96</ele>
        <time>2016-07-06T13:35:27Z</time>
      </trkpt>
      <trkpt lat="46.00178025662899" lon="7.296197600662708">
        <ele>2553.4000000000001</ele>
        <time>2016-07-06T13:35:38Z</time>
      </trkpt>
      <trkpt lat="46.001725606620312" lon="7.296285443007946">
        <ele>2554.3600000000001</ele>
        <time>2016-07-06T13:35:49Z</time>
      </trkpt>
      <trkpt lat="46.001676321029663" lon="7.296344786882401">
        <ele>2555.8000000000002</ele>
        <time>2016-07-06T13:36:00Z</time>
      </trkpt>
      <trkpt lat="46.001607840880752" lon="7.296447046101093">
        <ele>2556.7600000000002</ele>
        <time>2016-07-06T13:36:14Z</time>
      </trkpt>
      <trkpt lat="46.001634830608964" lon="7.296502450481057">
        <ele>2557.73</ele>
        <time>2016-07-06T13:36:25Z</time>
      </trkpt>
      <trkpt lat="46.001615971326828" lon="7.29653388261795">
        <ele>2558.21</ele>
        <time>2016-07-06T13:36:34Z</time>
      </trkpt>
      <trkpt lat="46.001608930528164" lon="7.296557435765863">
        <ele>2557.73</ele>
        <time>2016-07-06T13:36:36Z</time>
      </trkpt>
      <trkpt lat="46.001592082902789" lon="7.296662963926792">
        <ele>2557.73</ele>
        <time>2016-07-06T13:36:45Z</time>
      </trkpt>
      <trkpt lat="46.001520585268736" lon="7.296756925061345">
        <ele>2559.1700000000001</ele>
        <time>2016-07-06T13:36:58Z</time>
      </trkpt>
      <trkpt lat="46.00151689723134" lon="7.296820124611259">
        <ele>2560.1300000000001</ele>
        <time>2016-07-06T13:37:09Z</time>
      </trkpt>
      <trkpt lat="46.001483118161559" lon="7.296875026077032">
        <ele>2562.0500000000002</ele>
        <time>2016-07-06T13:37:20Z</time>
      </trkpt>
      <trkpt lat="46.001427546143532" lon="7.296909224241972">
        <ele>2563.4899999999998</ele>
        <time>2016-07-06T13:37:30Z</time>
      </trkpt>
      <trkpt lat="46.001407681033015" lon="7.296967310830951">
        <ele>2564.4499999999998</ele>
        <time>2016-07-06T13:37:38Z</time>
      </trkpt>
      <trkpt lat="46.001381278038025" lon="7.297025565057993">
        <ele>2566.3800000000001</ele>
        <time>2016-07-06T13:37:48Z</time>
      </trkpt>
      <trkpt lat="46.001376751810312" lon="7.297084489837289">
        <ele>2566.8600000000001</ele>
        <time>2016-07-06T13:37:57Z</time>
      </trkpt>
      <trkpt lat="46.00135562941432" lon="7.29706546291709">
        <ele>2567.3400000000001</ele>
        <time>2016-07-06T13:38:07Z</time>
      </trkpt>
      <trkpt lat="46.001345654949546" lon="7.297139642760158">
        <ele>2567.3400000000001</ele>
        <time>2016-07-06T13:38:18Z</time>
      </trkpt>
      <trkpt lat="46.001316569745541" lon="7.29722329415381">
        <ele>2567.3400000000001</ele>
        <time>2016-07-06T13:38:25Z</time>
      </trkpt>
      <trkpt lat="46.001247083768249" lon="7.297275429591537">
        <ele>2568.3000000000002</ele>
        <time>2016-07-06T13:38:37Z</time>
      </trkpt>
      <trkpt lat="46.00123199634254" lon="7.29728439822793">
        <ele>2568.3000000000002</ele>
        <time>2016-07-06T13:38:40Z</time>
      </trkpt>
      <trkpt lat="46.001180866733193" lon="7.297302838414908">
        <ele>2569.2600000000002</ele>
        <time>2016-07-06T13:38:47Z</time>
      </trkpt>
      <trkpt lat="46.001115152612329" lon="7.297328235581517">
        <ele>2570.6999999999998</ele>
        <time>2016-07-06T13:39:00Z</time>
      </trkpt>
      <trkpt lat="46.001047175377607" lon="7.297335946932435">
        <ele>2571.6599999999999</ele>
        <time>2016-07-06T13:39:11Z</time>
      </trkpt>
      <trkpt lat="46.001002416014671" lon="7.297343574464321">
        <ele>2573.1100000000001</ele>
        <time>2016-07-06T13:39:23Z</time>
      </trkpt>
      <trkpt lat="46.000947430729866" lon="7.297341730445623">
        <ele>2574.5500000000002</ele>
        <time>2016-07-06T13:39:32Z</time>
      </trkpt>
      <trkpt lat="46.000893032178283" lon="7.297391686588526">
        <ele>2575.9899999999998</ele>
        <time>2016-07-06T13:39:43Z</time>
      </trkpt>
      <trkpt lat="46.000846344977617" lon="7.297405684366822">
        <ele>2576.9499999999998</ele>
        <time>2016-07-06T13:39:52Z</time>
      </trkpt>
      <trkpt lat="46.000795969739556" lon="7.297424292191863">
        <ele>2577.9099999999999</ele>
        <time>2016-07-06T13:40:02Z</time>
      </trkpt>
      <trkpt lat="46.000740900635719" lon="7.297465531155467">
        <ele>2579.3499999999999</ele>
        <time>2016-07-06T13:40:14Z</time>
      </trkpt>
      <trkpt lat="46.000719359144568" lon="7.297482043504715">
        <ele>2580.3200000000002</ele>
        <time>2016-07-06T13:40:25Z</time>
      </trkpt>
      <trkpt lat="46.000694632530212" lon="7.297518588602543">
        <ele>2580.8000000000002</ele>
        <time>2016-07-06T13:40:38Z</time>
      </trkpt>
      <trkpt lat="46.000623470172286" lon="7.297589834779501">
        <ele>2582.7199999999998</ele>
        <time>2016-07-06T13:40:55Z</time>
      </trkpt>
      <trkpt lat="46.000588349997997" lon="7.297641718760133">
        <ele>2584.1599999999999</ele>
        <time>2016-07-06T13:41:07Z</time>
      </trkpt>
      <trkpt lat="46.00054350681603" lon="7.297684885561466">
        <ele>2585.1199999999999</ele>
        <time>2016-07-06T13:41:20Z</time>
      </trkpt>
      <trkpt lat="46.000481313094497" lon="7.297663930803537">
        <ele>2587.04</ele>
        <time>2016-07-06T13:41:33Z</time>
      </trkpt>
      <trkpt lat="46.000438900664449" lon="7.297655800357461">
        <ele>2587.04</ele>
        <time>2016-07-06T13:41:43Z</time>
      </trkpt>
      <trkpt lat="46.000385088846087" lon="7.297699637711048">
        <ele>2588.4899999999998</ele>
        <time>2016-07-06T13:41:57Z</time>
      </trkpt>
      <trkpt lat="46.000289870426059" lon="7.297680443152785">
        <ele>2588.9699999999998</ele>
        <time>2016-07-06T13:42:08Z</time>
      </trkpt>
      <trkpt lat="46.000241171568632" lon="7.297660494223237">
        <ele>2588.4899999999998</ele>
        <time>2016-07-06T13:42:13Z</time>
      </trkpt>
      <trkpt lat="46.000147461891174" lon="7.297660997137427">
        <ele>2589.4499999999998</ele>
        <time>2016-07-06T13:42:25Z</time>
      </trkpt>
      <trkpt lat="46.000087112188339" lon="7.297657895833254">
        <ele>2590.8899999999999</ele>
        <time>2016-07-06T13:42:35Z</time>
      </trkpt>
      <trkpt lat="46.000039670616388" lon="7.29768019169569">
        <ele>2592.3299999999999</ele>
        <time>2016-07-06T13:42:47Z</time>
      </trkpt>
      <trkpt lat="45.999993570148945" lon="7.297757975757122">
        <ele>2593.77</ele>
        <time>2016-07-06T13:42:58Z</time>
      </trkpt>
      <trkpt lat="45.999966664239764" lon="7.297760071232915">
        <ele>2594.7399999999998</ele>
        <time>2016-07-06T13:43:11Z</time>
      </trkpt>
      <trkpt lat="45.999904805794358" lon="7.29776811785996">
        <ele>2595.2199999999998</ele>
        <time>2016-07-06T13:43:21Z</time>
      </trkpt>
      <trkpt lat="45.999872367829084" lon="7.297790581360459">
        <ele>2595.6999999999998</ele>
        <time>2016-07-06T13:43:26Z</time>
      </trkpt>
      <trkpt lat="45.999833475798368" lon="7.297825030982494">
        <ele>2595.6999999999998</ele>
        <time>2016-07-06T13:43:31Z</time>
      </trkpt>
      <trkpt lat="45.999767510220408" lon="7.29782385751605">
        <ele>2595.2199999999998</ele>
        <time>2016-07-06T13:43:38Z</time>
      </trkpt>
      <trkpt lat="45.99974756129086" lon="7.297828886657953">
        <ele>2595.2199999999998</ele>
        <time>2016-07-06T13:43:40Z</time>
      </trkpt>
      <trkpt lat="45.999670028686523" lon="7.297768285498023">
        <ele>2594.7399999999998</ele>
        <time>2016-07-06T13:43:51Z</time>
      </trkpt>
      <trkpt lat="45.999642116948962" lon="7.297702739015222">
        <ele>2597.1399999999999</ele>
        <time>2016-07-06T13:44:01Z</time>
      </trkpt>
      <trkpt lat="45.999610181897879" lon="7.297659907490015">
        <ele>2599.0599999999999</ele>
        <time>2016-07-06T13:44:13Z</time>
      </trkpt>
      <trkpt lat="45.999582605436444" lon="7.297684466466308">
        <ele>2600.5</ele>
        <time>2016-07-06T13:44:22Z</time>
      </trkpt>
      <trkpt lat="45.999551424756646" lon="7.297661919146776">
        <ele>2602.9099999999999</ele>
        <time>2016-07-06T13:44:35Z</time>
      </trkpt>
      <trkpt lat="45.999537091702223" lon="7.297656554728746">
        <ele>2602.9099999999999</ele>
        <time>2016-07-06T13:44:49Z</time>
      </trkpt>
      <trkpt lat="45.999556872993708" lon="7.297684298828244">
        <ele>2602.9099999999999</ele>
        <time>2016-07-06T13:45:05Z</time>
      </trkpt>
      <trkpt lat="45.999526279047132" lon="7.297750264406204">
        <ele>2604.3499999999999</ele>
        <time>2016-07-06T13:45:16Z</time>
      </trkpt>
      <trkpt lat="45.999481519684196" lon="7.297828802838922">
        <ele>2606.75</ele>
        <time>2016-07-06T13:45:30Z</time>
      </trkpt>
      <trkpt lat="45.999439777806401" lon="7.297889655455947">
        <ele>2608.1900000000001</ele>
        <time>2016-07-06T13:45:41Z</time>
      </trkpt>
      <trkpt lat="45.999404741451144" lon="7.297973725944758">
        <ele>2609.6399999999999</ele>
        <time>2016-07-06T13:45:54Z</time>
      </trkpt>
      <trkpt lat="45.999371632933617" lon="7.298058215528727">
        <ele>2611.5599999999999</ele>
        <time>2016-07-06T13:46:07Z</time>
      </trkpt>
      <trkpt lat="45.999332321807742" lon="7.298158714547753">
        <ele>2613</ele>
        <time>2016-07-06T13:46:21Z</time>
      </trkpt>
      <trkpt lat="45.999327125027776" lon="7.298219734802842">
        <ele>2614.9200000000001</ele>
        <time>2016-07-06T13:46:34Z</time>
      </trkpt>
      <trkpt lat="45.999290328472853" lon="7.298281844705343">
        <ele>2616.3699999999999</ele>
        <time>2016-07-06T13:46:46Z</time>
      </trkpt>
      <trkpt lat="45.999267110601068" lon="7.298355773091316">
        <ele>2618.29</ele>
        <time>2016-07-06T13:46:58Z</time>
      </trkpt>
      <trkpt lat="45.999220758676529" lon="7.298421990126371">
        <ele>2619.73</ele>
        <time>2016-07-06T13:47:11Z</time>
      </trkpt>
      <trkpt lat="45.999161247164011" lon="7.298503797501326">
        <ele>2621.1700000000001</ele>
        <time>2016-07-06T13:47:25Z</time>
      </trkpt>
      <trkpt lat="45.999095533043146" lon="7.298584515228868">
        <ele>2622.1300000000001</ele>
        <time>2016-07-06T13:47:37Z</time>
      </trkpt>
      <trkpt lat="45.999059323221445" lon="7.298635393381119">
        <ele>2622.1300000000001</ele>
        <time>2016-07-06T13:47:43Z</time>
      </trkpt>
      <trkpt lat="45.998983299359679" lon="7.298725917935371">
        <ele>2622.1300000000001</ele>
        <time>2016-07-06T13:47:54Z</time>
      </trkpt>
      <trkpt lat="45.998920183628798" lon="7.298716614022851">
        <ele>2623.0900000000001</ele>
        <time>2016-07-06T13:48:04Z</time>
      </trkpt>
      <trkpt lat="45.998881962150335" lon="7.298779226839542">
        <ele>2624.54</ele>
        <time>2016-07-06T13:48:15Z</time>
      </trkpt>
      <trkpt lat="45.998858492821455" lon="7.298833290114999">
        <ele>2625.98</ele>
        <time>2016-07-06T13:48:26Z</time>
      </trkpt>
      <trkpt lat="45.998838040977716" lon="7.298888526856899">
        <ele>2626.46</ele>
        <time>2016-07-06T13:48:32Z</time>
      </trkpt>
      <trkpt lat="45.998825468122959" lon="7.298927418887615">
        <ele>2626.46</ele>
        <time>2016-07-06T13:48:35Z</time>
      </trkpt>
      <trkpt lat="45.998748522251844" lon="7.299008890986443">
        <ele>2627.9000000000001</ele>
        <time>2016-07-06T13:48:47Z</time>
      </trkpt>
      <trkpt lat="45.9987439122051" lon="7.299071587622166">
        <ele>2628.3800000000001</ele>
        <time>2016-07-06T13:48:53Z</time>
      </trkpt>
      <trkpt lat="45.998680209740996" lon="7.299187425523996">
        <ele>2628.8600000000001</ele>
        <time>2016-07-06T13:49:05Z</time>
      </trkpt>
      <trkpt lat="45.998673336580396" lon="7.299204189330339">
        <ele>2628.8600000000001</ele>
        <time>2016-07-06T13:49:07Z</time>
      </trkpt>
      <trkpt lat="45.998614076524973" lon="7.299297228455544">
        <ele>2629.3400000000001</ele>
        <time>2016-07-06T13:49:16Z</time>
      </trkpt>
      <trkpt lat="45.998589349910617" lon="7.299337880685926">
        <ele>2629.8200000000002</ele>
        <time>2016-07-06T13:49:21Z</time>
      </trkpt>
      <trkpt lat="45.99852941930294" lon="7.299424549564719">
        <ele>2629.3400000000001</ele>
        <time>2016-07-06T13:49:31Z</time>
      </trkpt>
      <trkpt lat="45.998455574735999" lon="7.299455394968391">
        <ele>2631.75</ele>
        <time>2016-07-06T13:49:43Z</time>
      </trkpt>
      <trkpt lat="45.998439732939005" lon="7.299490096047521">
        <ele>2632.71</ele>
        <time>2016-07-06T13:49:47Z</time>
      </trkpt>
      <trkpt lat="45.998398745432496" lon="7.299576597288251">
        <ele>2633.1900000000001</ele>
        <time>2016-07-06T13:49:57Z</time>
      </trkpt>
      <trkpt lat="45.998344849795103" lon="7.299653291702271">
        <ele>2633.1900000000001</ele>
        <time>2016-07-06T13:50:06Z</time>
      </trkpt>
      <trkpt lat="45.998299587517977" lon="7.299723448231816">
        <ele>2633.6700000000001</ele>
        <time>2016-07-06T13:50:14Z</time>
      </trkpt>
      <trkpt lat="45.998288858681917" lon="7.29979352094233">
        <ele>2634.1500000000001</ele>
        <time>2016-07-06T13:50:25Z</time>
      </trkpt>
      <trkpt lat="45.998291624709964" lon="7.299804165959358">
        <ele>2634.6300000000001</ele>
        <time>2016-07-06T13:50:27Z</time>
      </trkpt>
      <trkpt lat="45.998309142887592" lon="7.299813805148006">
        <ele>2634.6300000000001</ele>
        <time>2016-07-06T13:50:29Z</time>
      </trkpt>
      <trkpt lat="45.998330349102616" lon="7.299855463206768">
        <ele>2635.1100000000001</ele>
        <time>2016-07-06T13:50:36Z</time>
      </trkpt>
      <trkpt lat="45.99839941598475" lon="7.299866192042828">
        <ele>2633.1900000000001</ele>
        <time>2016-07-06T13:50:46Z</time>
      </trkpt>
      <trkpt lat="45.998407546430826" lon="7.299878345802426">
        <ele>2632.71</ele>
        <time>2016-07-06T13:50:47Z</time>
      </trkpt>
      <trkpt lat="45.998398493975401" lon="7.29999141767621">
        <ele>2633.1900000000001</ele>
        <time>2016-07-06T13:50:58Z</time>
      </trkpt>
      <trkpt lat="45.998372258618474" lon="7.300031734630466">
        <ele>2632.71</ele>
        <time>2016-07-06T13:51:02Z</time>
      </trkpt>
      <trkpt lat="45.99835448898375" lon="7.300056545063853">
        <ele>2633.1900000000001</ele>
        <time>2016-07-06T13:51:05Z</time>
      </trkpt>
      <trkpt lat="45.998305538669229" lon="7.300161989405751">
        <ele>2634.1500000000001</ele>
        <time>2016-07-06T13:51:16Z</time>
      </trkpt>
      <trkpt lat="45.998335294425488" lon="7.300164420157671">
        <ele>2635.5900000000001</ele>
        <time>2016-07-06T13:51:25Z</time>
      </trkpt>
      <trkpt lat="45.998368822038174" lon="7.300099125131965">
        <ele>2636.5500000000002</ele>
        <time>2016-07-06T13:51:33Z</time>
      </trkpt>
      <trkpt lat="45.998404109850526" lon="7.30000508017838">
        <ele>2637.0300000000002</ele>
        <time>2016-07-06T13:51:43Z</time>
      </trkpt>
      <trkpt lat="45.998403774574399" lon="7.300000051036477">
        <ele>2637.0300000000002</ele>
        <time>2016-07-06T13:51:44Z</time>
      </trkpt>
      <trkpt lat="45.998450629413128" lon="7.300009354948998">
        <ele>2637.0300000000002</ele>
        <time>2016-07-06T13:51:53Z</time>
      </trkpt>
      <trkpt lat="45.998467896133661" lon="7.299995273351669">
        <ele>2637.5100000000002</ele>
        <time>2016-07-06T13:52:04Z</time>
      </trkpt>
      <trkpt lat="45.998505027964711" lon="7.299955794587731">
        <ele>2637.9899999999998</ele>
        <time>2016-07-06T13:52:12Z</time>
      </trkpt>
      <trkpt lat="45.998545344918966" lon="7.299905503168702">
        <ele>2639.4400000000001</ele>
        <time>2016-07-06T13:52:22Z</time>
      </trkpt>
      <trkpt lat="45.998587841168046" lon="7.299915812909603">
        <ele>2640.4000000000001</ele>
        <time>2016-07-06T13:52:28Z</time>
      </trkpt>
      <trkpt lat="45.99860368296504" lon="7.299911454319954">
        <ele>2641.8400000000001</ele>
        <time>2016-07-06T13:52:33Z</time>
      </trkpt>
      <trkpt lat="45.998631846159697" lon="7.299832245334983">
        <ele>2641.8400000000001</ele>
        <time>2016-07-06T13:52:43Z</time>
      </trkpt>
      <trkpt lat="45.998648777604103" lon="7.299738535657525">
        <ele>2641.8400000000001</ele>
        <time>2016-07-06T13:52:54Z</time>
      </trkpt>
      <trkpt lat="45.998635618016124" lon="7.299825120717287">
        <ele>2641.8400000000001</ele>
        <time>2016-07-06T13:53:06Z</time>
      </trkpt>
      <trkpt lat="45.998630421236157" lon="7.299876837059856">
        <ele>2641.3600000000001</ele>
        <time>2016-07-06T13:53:19Z</time>
      </trkpt>
      <trkpt lat="45.998652381822467" lon="7.299786480143666">
        <ele>2641.8400000000001</ele>
        <time>2016-07-06T13:53:29Z</time>
      </trkpt>
      <trkpt lat="45.998642658814788" lon="7.299743145704269">
        <ele>2641.3600000000001</ele>
        <time>2016-07-06T13:53:41Z</time>
      </trkpt>
      <trkpt lat="45.998665038496256" lon="7.299740882590413">
        <ele>2640.8800000000001</ele>
        <time>2016-07-06T13:53:48Z</time>
      </trkpt>
      <trkpt lat="45.998658835887909" lon="7.299721436575055">
        <ele>2640.8800000000001</ele>
        <time>2016-07-06T13:54:01Z</time>
      </trkpt>
      <trkpt lat="45.998667636886239" lon="7.299700314179063">
        <ele>2641.3600000000001</ele>
        <time>2016-07-06T13:54:21Z</time>
      </trkpt>
      <trkpt lat="45.998664200305939" lon="7.299699140712619">
        <ele>2640.8800000000001</ele>
        <time>2016-07-06T13:54:38Z</time>
      </trkpt>
      <trkpt lat="45.998647771775723" lon="7.299695452675223">
        <ele>2640.8800000000001</ele>
        <time>2016-07-06T13:55:01Z</time>
      </trkpt>
      <trkpt lat="45.998648777604103" lon="7.299700900912285">
        <ele>2641.3600000000001</ele>
        <time>2016-07-06T13:55:19Z</time>
      </trkpt>
    </trkseg>
  </trk>

  <trk>
    <name>pagnossiere-chanrion2016-07-07</name>
    <extensions>
      <gpxx:TrackExtension>
        <gpxx:DisplayColor>Yellow</gpxx:DisplayColor>
      </gpxx:TrackExtension>
    </extensions>
    <trkseg>
      <trkpt lat="45.998687501996756" lon="7.299915309995413">
        <ele>2580.3200000000002</ele>
        <time>2016-07-07T05:57:18Z</time>
      </trkpt>
      <trkpt lat="45.998678533360362" lon="7.299922937527299">
        <ele>2580.3200000000002</ele>
        <time>2016-07-07T05:57:46Z</time>
      </trkpt>
      <trkpt lat="45.998665960505605" lon="7.299955626949668">
        <ele>2579.8400000000001</ele>
        <time>2016-07-07T05:58:07Z</time>
      </trkpt>
      <trkpt lat="45.998674090951681" lon="7.299960488453507">
        <ele>2581.2800000000002</ele>
        <time>2016-07-07T05:58:18Z</time>
      </trkpt>
      <trkpt lat="45.998656405135989" lon="7.299923775717616">
        <ele>2580.8000000000002</ele>
        <time>2016-07-07T05:58:29Z</time>
      </trkpt>
      <trkpt lat="45.998693704605103" lon="7.299917656928301">
        <ele>2580.8000000000002</ele>
        <time>2016-07-07T05:58:36Z</time>
      </trkpt>
      <trkpt lat="45.99867794662714" lon="7.299927715212107">
        <ele>2581.7600000000002</ele>
        <time>2016-07-07T05:58:58Z</time>
      </trkpt>
      <trkpt lat="45.998674090951681" lon="7.299961829558015">
        <ele>2582.2399999999998</ele>
        <time>2016-07-07T05:59:18Z</time>
      </trkpt>
      <trkpt lat="45.998675096780062" lon="7.300009103491902">
        <ele>2583.1999999999998</ele>
        <time>2016-07-07T05:59:44Z</time>
      </trkpt>
      <trkpt lat="45.998681634664536" lon="7.300011618062854">
        <ele>2584.1599999999999</ele>
        <time>2016-07-07T06:00:12Z</time>
      </trkpt>
      <trkpt lat="45.998678114265203" lon="7.300036596134305">
        <ele>2585.5999999999999</ele>
        <time>2016-07-07T06:00:35Z</time>
      </trkpt>
      <trkpt lat="45.998699320480227" lon="7.300070961937308">
        <ele>2586.5599999999999</ele>
        <time>2016-07-07T06:00:57Z</time>
      </trkpt>
      <trkpt lat="45.998689597472548" lon="7.300031818449497">
        <ele>2587.04</ele>
        <time>2016-07-07T06:01:17Z</time>
      </trkpt>
      <trkpt lat="45.998683646321297" lon="7.299995273351669">
        <ele>2587.5300000000002</ele>
        <time>2016-07-07T06:01:30Z</time>
      </trkpt>
      <trkpt lat="45.998688004910946" lon="7.299984293058515">
        <ele>2588.0100000000002</ele>
        <time>2016-07-07T06:01:37Z</time>
      </trkpt>
      <trkpt lat="45.998699739575386" lon="7.29998555034399">
        <ele>2588.9699999999998</ele>
        <time>2016-07-07T06:01:48Z</time>
      </trkpt>
      <trkpt lat="45.998642574995756" lon="7.299893014132977">
        <ele>2588.4899999999998</ele>
        <time>2016-07-07T06:01:58Z</time>
      </trkpt>
      <trkpt lat="45.998636623844504" lon="7.2998814471066">
        <ele>2588.9699999999998</ele>
        <time>2016-07-07T06:02:06Z</time>
      </trkpt>
      <trkpt lat="45.998628074303269" lon="7.29991271160543">
        <ele>2589.4499999999998</ele>
        <time>2016-07-07T06:02:20Z</time>
      </trkpt>
      <trkpt lat="45.998607371002436" lon="7.29992394335568">
        <ele>2589.9299999999998</ele>
        <time>2016-07-07T06:02:31Z</time>
      </trkpt>
      <trkpt lat="45.998624721542001" lon="7.299957303330302">
        <ele>2590.4099999999999</ele>
        <time>2016-07-07T06:02:43Z</time>
      </trkpt>
      <trkpt lat="45.998636037111282" lon="7.299960572272539">
        <ele>2590.8899999999999</ele>
        <time>2016-07-07T06:03:02Z</time>
      </trkpt>
      <trkpt lat="45.998630672693253" lon="7.299946071580052">
        <ele>2591.8499999999999</ele>
        <time>2016-07-07T06:03:14Z</time>
      </trkpt>
      <trkpt lat="45.998619440943003" lon="7.299993429332972">
        <ele>2592.3299999999999</ele>
        <time>2016-07-07T06:03:27Z</time>
      </trkpt>
      <trkpt lat="45.998580800369382" lon="7.299988232553005">
        <ele>2592.3299999999999</ele>
        <time>2016-07-07T06:03:38Z</time>
      </trkpt>
      <trkpt lat="45.998598486185074" lon="7.300006337463856">
        <ele>2592.3299999999999</ele>
        <time>2016-07-07T06:03:52Z</time>
      </trkpt>
      <trkpt lat="45.998600078746676" lon="7.299945820122957">
        <ele>2592.8099999999999</ele>
        <time>2016-07-07T06:04:01Z</time>
      </trkpt>
      <trkpt lat="45.998591529205441" lon="7.299962835386396">
        <ele>2593.77</ele>
        <time>2016-07-07T06:04:12Z</time>
      </trkpt>
      <trkpt lat="45.998607957735658" lon="7.299965266138315">
        <ele>2594.25</ele>
        <time>2016-07-07T06:04:28Z</time>
      </trkpt>
      <trkpt lat="45.998623631894588" lon="7.299981527030468">
        <ele>2594.7399999999998</ele>
        <time>2016-07-07T06:04:45Z</time>
      </trkpt>
      <trkpt lat="45.99859245121479" lon="7.299998877570033">
        <ele>2595.2199999999998</ele>
        <time>2016-07-07T06:05:01Z</time>
      </trkpt>
      <trkpt lat="45.998587841168046" lon="7.300068279728293">
        <ele>2595.2199999999998</ele>
        <time>2016-07-07T06:05:13Z</time>
      </trkpt>
      <trkpt lat="45.998542243614793" lon="7.300145477056503">
        <ele>2594.25</ele>
        <time>2016-07-07T06:05:23Z</time>
      </trkpt>
      <trkpt lat="45.998498238623142" lon="7.300232816487551">
        <ele>2593.29</ele>
        <time>2016-07-07T06:05:34Z</time>
      </trkpt>
      <trkpt lat="45.99848784506321" lon="7.300248071551323">
        <ele>2596.6599999999999</ele>
        <time>2016-07-07T06:05:37Z</time>
      </trkpt>
      <trkpt lat="45.998484240844846" lon="7.300253268331289">
        <ele>2596.1799999999998</ele>
        <time>2016-07-07T06:05:38Z</time>
      </trkpt>
      <trkpt lat="45.998481474816799" lon="7.300257124006748">
        <ele>2593.29</ele>
        <time>2016-07-07T06:05:39Z</time>
      </trkpt>
      <trkpt lat="45.998449875041842" lon="7.300284281373024">
        <ele>2596.1799999999998</ele>
        <time>2016-07-07T06:05:44Z</time>
      </trkpt>
      <trkpt lat="45.998441157862544" lon="7.300297692418098">
        <ele>2593.29</ele>
        <time>2016-07-07T06:05:47Z</time>
      </trkpt>
      <trkpt lat="45.998380975797772" lon="7.300348151475191">
        <ele>2594.25</ele>
        <time>2016-07-07T06:05:55Z</time>
      </trkpt>
      <trkpt lat="45.998291876167059" lon="7.300472371280193">
        <ele>2593.77</ele>
        <time>2016-07-07T06:06:07Z</time>
      </trkpt>
      <trkpt lat="45.998262539505959" lon="7.30050053447485">
        <ele>2593.77</ele>
        <time>2016-07-07T06:06:11Z</time>
      </trkpt>
      <trkpt lat="45.998188862577081" lon="7.300566667690873">
        <ele>2594.7399999999998</ele>
        <time>2016-07-07T06:06:21Z</time>
      </trkpt>
      <trkpt lat="45.998143097385764" lon="7.300609247758985">
        <ele>2595.6999999999998</ele>
        <time>2016-07-07T06:06:27Z</time>
      </trkpt>
      <trkpt lat="45.998126836493611" lon="7.300635147839785">
        <ele>2595.6999999999998</ele>
        <time>2016-07-07T06:06:30Z</time>
      </trkpt>
      <trkpt lat="45.998052908107638" lon="7.300701616331935">
        <ele>2596.6599999999999</ele>
        <time>2016-07-07T06:06:40Z</time>
      </trkpt>
      <trkpt lat="45.997994570061564" lon="7.300778981298208">
        <ele>2596.6599999999999</ele>
        <time>2016-07-07T06:06:48Z</time>
      </trkpt>
      <trkpt lat="45.997943272814155" lon="7.300856597721577">
        <ele>2598.0999999999999</ele>
        <time>2016-07-07T06:06:58Z</time>
      </trkpt>
      <trkpt lat="45.997894490137696" lon="7.300881911069155">
        <ele>2599.54</ele>
        <time>2016-07-07T06:07:05Z</time>
      </trkpt>
      <trkpt lat="45.997823076322675" lon="7.300925832241774">
        <ele>2600.5</ele>
        <time>2016-07-07T06:07:16Z</time>
      </trkpt>
      <trkpt lat="45.997780160978436" lon="7.300990875810385">
        <ele>2601.46</ele>
        <time>2016-07-07T06:07:25Z</time>
      </trkpt>
      <trkpt lat="45.997707741335034" lon="7.301054410636425">
        <ele>2602.4299999999998</ele>
        <time>2016-07-07T06:07:37Z</time>
      </trkpt>
      <trkpt lat="45.997660718858242" lon="7.301091961562634">
        <ele>2602.9099999999999</ele>
        <time>2016-07-07T06:07:44Z</time>
      </trkpt>
      <trkpt lat="45.997566003352404" lon="7.301190784201026">
        <ele>2603.8699999999999</ele>
        <time>2016-07-07T06:07:57Z</time>
      </trkpt>
      <trkpt lat="45.997496517375112" lon="7.301281560212374">
        <ele>2605.79</ele>
        <time>2016-07-07T06:08:08Z</time>
      </trkpt>
      <trkpt lat="45.997482938691974" lon="7.301301090046763">
        <ele>2605.79</ele>
        <time>2016-07-07T06:08:10Z</time>
      </trkpt>
      <trkpt lat="45.997411105781794" lon="7.301381640136242">
        <ele>2607.23</ele>
        <time>2016-07-07T06:08:21Z</time>
      </trkpt>
      <trkpt lat="45.997396437451243" lon="7.301439642906189">
        <ele>2608.6700000000001</ele>
        <time>2016-07-07T06:08:30Z</time>
      </trkpt>
      <trkpt lat="45.997398952022195" lon="7.30146361514926">
        <ele>2609.6399999999999</ele>
        <time>2016-07-07T06:08:40Z</time>
      </trkpt>
      <trkpt lat="45.997372129932046" lon="7.301503429189324">
        <ele>2609.6399999999999</ele>
        <time>2016-07-07T06:08:58Z</time>
      </trkpt>
      <trkpt lat="45.997358467429876" lon="7.301479540765286">
        <ele>2610.1199999999999</ele>
        <time>2016-07-07T06:09:08Z</time>
      </trkpt>
      <trkpt lat="45.997353438287973" lon="7.301483815535903">
        <ele>2610.5999999999999</ele>
        <time>2016-07-07T06:09:17Z</time>
      </trkpt>
      <trkpt lat="45.997262829914689" lon="7.301521366462112">
        <ele>2612.52</ele>
        <time>2016-07-07T06:09:30Z</time>
      </trkpt>
      <trkpt lat="45.997256962582469" lon="7.301522959023714">
        <ele>2612.52</ele>
        <time>2016-07-07T06:09:31Z</time>
      </trkpt>
      <trkpt lat="45.997198289260268" lon="7.301556235179305">
        <ele>2612.04</ele>
        <time>2016-07-07T06:09:40Z</time>
      </trkpt>
      <trkpt lat="45.997145986184478" lon="7.301628822460771">
        <ele>2613</ele>
        <time>2016-07-07T06:09:51Z</time>
      </trkpt>
      <trkpt lat="45.997079350054264" lon="7.301700487732887">
        <ele>2613.96</ele>
        <time>2016-07-07T06:10:01Z</time>
      </trkpt>
      <trkpt lat="45.997026795521379" lon="7.301760502159596">
        <ele>2615.4000000000001</ele>
        <time>2016-07-07T06:10:10Z</time>
      </trkpt>
      <trkpt lat="45.996991423889995" lon="7.301867036148906">
        <ele>2617.3299999999999</ele>
        <time>2016-07-07T06:10:21Z</time>
      </trkpt>
      <trkpt lat="45.996933337301016" lon="7.301927721127868">
        <ele>2618.77</ele>
        <time>2016-07-07T06:10:31Z</time>
      </trkpt>
      <trkpt lat="45.996878016740084" lon="7.302005421370268">
        <ele>2620.21</ele>
        <time>2016-07-07T06:10:40Z</time>
      </trkpt>
      <trkpt lat="45.996819091960788" lon="7.302058646455407">
        <ele>2621.6500000000001</ele>
        <time>2016-07-07T06:10:51Z</time>
      </trkpt>
      <trkpt lat="45.996798723936081" lon="7.302079014480114">
        <ele>2622.1300000000001</ele>
        <time>2016-07-07T06:10:54Z</time>
      </trkpt>
      <trkpt lat="45.996744995936751" lon="7.302159061655402">
        <ele>2621.6500000000001</ele>
        <time>2016-07-07T06:11:02Z</time>
      </trkpt>
      <trkpt lat="45.996711635962129" lon="7.30221756733954">
        <ele>2621.1700000000001</ele>
        <time>2016-07-07T06:11:07Z</time>
      </trkpt>
      <trkpt lat="45.996695877984166" lon="7.302253022789955">
        <ele>2621.6500000000001</ele>
        <time>2016-07-07T06:11:10Z</time>
      </trkpt>
      <trkpt lat="45.996662182733417" lon="7.302340529859066">
        <ele>2622.6100000000001</ele>
        <time>2016-07-07T06:11:18Z</time>
      </trkpt>
      <trkpt lat="45.996564449742436" lon="7.302420074120164">
        <ele>2623.0900000000001</ele>
        <time>2016-07-07T06:11:29Z</time>
      </trkpt>
      <trkpt lat="45.996545841917396" lon="7.302439184859395">
        <ele>2623.0900000000001</ele>
        <time>2016-07-07T06:11:32Z</time>
      </trkpt>
      <trkpt lat="45.996515918523073" lon="7.302463240921497">
        <ele>2623.0900000000001</ele>
        <time>2016-07-07T06:11:35Z</time>
      </trkpt>
      <trkpt lat="45.996415670961142" lon="7.30250246822834">
        <ele>2624.54</ele>
        <time>2016-07-07T06:11:44Z</time>
      </trkpt>
      <trkpt lat="45.996380131691694" lon="7.302524596452713">
        <ele>2623.5799999999999</ele>
        <time>2016-07-07T06:11:47Z</time>
      </trkpt>
      <trkpt lat="45.996276531368494" lon="7.302622580900788">
        <ele>2624.0599999999999</ele>
        <time>2016-07-07T06:11:59Z</time>
      </trkpt>
      <trkpt lat="45.996262282133102" lon="7.30263632722199">
        <ele>2624.54</ele>
        <time>2016-07-07T06:12:01Z</time>
      </trkpt>
      <trkpt lat="45.99619572982192" lon="7.302717380225658">
        <ele>2625.02</ele>
        <time>2016-07-07T06:12:10Z</time>
      </trkpt>
      <trkpt lat="45.996169410645962" lon="7.302753422409296">
        <ele>2625.02</ele>
        <time>2016-07-07T06:12:14Z</time>
      </trkpt>
      <trkpt lat="45.996093554422259" lon="7.302802540361881">
        <ele>2625.02</ele>
        <time>2016-07-07T06:12:22Z</time>
      </trkpt>
      <trkpt lat="45.996013758704066" lon="7.302886694669724">
        <ele>2625.5</ele>
        <time>2016-07-07T06:12:32Z</time>
      </trkpt>
      <trkpt lat="45.995916360989213" lon="7.303005801513791">
        <ele>2625.5</ele>
        <time>2016-07-07T06:12:43Z</time>
      </trkpt>
      <trkpt lat="45.995902111753821" lon="7.303023152053356">
        <ele>2625.5</ele>
        <time>2016-07-07T06:12:45Z</time>
      </trkpt>
      <trkpt lat="45.995826339349151" lon="7.303094398230314">
        <ele>2625.98</ele>
        <time>2016-07-07T06:12:55Z</time>
      </trkpt>
      <trkpt lat="45.995785184204578" lon="7.303125075995922">
        <ele>2625.98</ele>
        <time>2016-07-07T06:13:00Z</time>
      </trkpt>
      <trkpt lat="45.995753332972527" lon="7.303173020482063">
        <ele>2625.98</ele>
        <time>2016-07-07T06:13:05Z</time>
      </trkpt>
      <trkpt lat="45.995739502832294" lon="7.303183497861028">
        <ele>2626.46</ele>
        <time>2016-07-07T06:13:07Z</time>
      </trkpt>
      <trkpt lat="45.995710166171193" lon="7.303212750703096">
        <ele>2626.9400000000001</ele>
        <time>2016-07-07T06:13:11Z</time>
      </trkpt>
      <trkpt lat="45.995631124824286" lon="7.303264131769538">
        <ele>2627.9000000000001</ele>
        <time>2016-07-07T06:13:21Z</time>
      </trkpt>
      <trkpt lat="45.995608074590564" lon="7.303295228630304">
        <ele>2628.3800000000001</ele>
        <time>2016-07-07T06:13:25Z</time>
      </trkpt>
      <trkpt lat="45.995599441230297" lon="7.30334585532546">
        <ele>2629.3400000000001</ele>
        <time>2016-07-07T06:13:29Z</time>
      </trkpt>
      <trkpt lat="45.995586784556508" lon="7.303367229178548">
        <ele>2629.8200000000002</ele>
        <time>2016-07-07T06:13:35Z</time>
      </trkpt>
      <trkpt lat="45.995547473430634" lon="7.303392710164189">
        <ele>2630.3000000000002</ele>
        <time>2016-07-07T06:13:39Z</time>
      </trkpt>
      <trkpt lat="45.995491398498416" lon="7.303440487012267">
        <ele>2632.71</ele>
        <time>2016-07-07T06:13:45Z</time>
      </trkpt>
      <trkpt lat="45.995440604165196" lon="7.303473260253668">
        <ele>2631.75</ele>
        <time>2016-07-07T06:13:51Z</time>
      </trkpt>
      <trkpt lat="45.995386121794581" lon="7.303539561107755">
        <ele>2633.1900000000001</ele>
        <time>2016-07-07T06:14:00Z</time>
      </trkpt>
      <trkpt lat="45.995336165651679" lon="7.303607789799571">
        <ele>2633.6700000000001</ele>
        <time>2016-07-07T06:14:06Z</time>
      </trkpt>
      <trkpt lat="45.995297441259027" lon="7.303660092875361">
        <ele>2634.1500000000001</ele>
        <time>2016-07-07T06:14:11Z</time>
      </trkpt>
      <trkpt lat="45.995278581976891" lon="7.303674258291721">
        <ele>2634.1500000000001</ele>
        <time>2016-07-07T06:14:13Z</time>
      </trkpt>
      <trkpt lat="45.995186632499099" lon="7.303771572187543">
        <ele>2635.1100000000001</ele>
        <time>2016-07-07T06:14:24Z</time>
      </trkpt>
      <trkpt lat="45.995176238939166" lon="7.303784228861332">
        <ele>2634.6300000000001</ele>
        <time>2016-07-07T06:14:25Z</time>
      </trkpt>
      <trkpt lat="45.995089905336499" lon="7.303884392604232">
        <ele>2635.1100000000001</ele>
        <time>2016-07-07T06:14:36Z</time>
      </trkpt>
      <trkpt lat="45.995000973343849" lon="7.303978940472007">
        <ele>2636.0700000000002</ele>
        <time>2016-07-07T06:14:47Z</time>
      </trkpt>
      <trkpt lat="45.994994938373566" lon="7.304030237719417">
        <ele>2637.0300000000002</ele>
        <time>2016-07-07T06:14:52Z</time>
      </trkpt>
      <trkpt lat="45.994963087141514" lon="7.304123947396874">
        <ele>2637.5100000000002</ele>
        <time>2016-07-07T06:15:00Z</time>
      </trkpt>
      <trkpt lat="45.994946993887424" lon="7.304148254916072">
        <ele>2637.9899999999998</ele>
        <time>2016-07-07T06:15:02Z</time>
      </trkpt>
      <trkpt lat="45.994899971410632" lon="7.304230313748121">
        <ele>2637.9899999999998</ele>
        <time>2016-07-07T06:15:09Z</time>
      </trkpt>
      <trkpt lat="45.994831491261721" lon="7.304342379793525">
        <ele>2638.48</ele>
        <time>2016-07-07T06:15:19Z</time>
      </trkpt>
      <trkpt lat="45.994808189570904" lon="7.304387474432588">
        <ele>2639.4400000000001</ele>
        <time>2016-07-07T06:15:27Z</time>
      </trkpt>
      <trkpt lat="45.994810787960887" lon="7.304369201883674">
        <ele>2639.9200000000001</ele>
        <time>2016-07-07T06:15:32Z</time>
      </trkpt>
      <trkpt lat="45.994798047468066" lon="7.304425947368145">
        <ele>2639.4400000000001</ele>
        <time>2016-07-07T06:15:36Z</time>
      </trkpt>
      <trkpt lat="45.994753120467067" lon="7.304516807198525">
        <ele>2641.3600000000001</ele>
        <time>2016-07-07T06:15:46Z</time>
      </trkpt>
      <trkpt lat="45.994748929515481" lon="7.304520411416888">
        <ele>2640.8800000000001</ele>
        <time>2016-07-07T06:15:56Z</time>
      </trkpt>
      <trkpt lat="45.994756640866399" lon="7.304514376446605">
        <ele>2641.3600000000001</ele>
        <time>2016-07-07T06:16:07Z</time>
      </trkpt>
      <trkpt lat="45.994758736342192" lon="7.30450825765729">
        <ele>2641.8400000000001</ele>
        <time>2016-07-07T06:16:18Z</time>
      </trkpt>
      <trkpt lat="45.994782205671072" lon="7.304482944309712">
        <ele>2641.8400000000001</ele>
        <time>2016-07-07T06:16:33Z</time>
      </trkpt>
      <trkpt lat="45.994808608666062" lon="7.304481016471982">
        <ele>2642.3200000000002</ele>
        <time>2016-07-07T06:16:45Z</time>
      </trkpt>
      <trkpt lat="45.994778349995613" lon="7.304481184110045">
        <ele>2642.8000000000002</ele>
        <time>2016-07-07T06:16:55Z</time>
      </trkpt>
      <trkpt lat="45.994772398844361" lon="7.304444387555122">
        <ele>2643.2800000000002</ele>
        <time>2016-07-07T06:17:13Z</time>
      </trkpt>
      <trkpt lat="45.994770219549537" lon="7.304489985108376">
        <ele>2643.2800000000002</ele>
        <time>2016-07-07T06:17:29Z</time>
      </trkpt>
      <trkpt lat="45.994716994464397" lon="7.304570367559791">
        <ele>2643.2800000000002</ele>
        <time>2016-07-07T06:17:41Z</time>
      </trkpt>
      <trkpt lat="45.994659410789609" lon="7.304651755839586">
        <ele>2641.3600000000001</ele>
        <time>2016-07-07T06:17:51Z</time>
      </trkpt>
      <trkpt lat="45.994602078571916" lon="7.304826183244586">
        <ele>2641.3600000000001</ele>
        <time>2016-07-07T06:18:03Z</time>
      </trkpt>
      <trkpt lat="45.994589086622" lon="7.304844791069627">
        <ele>2641.3600000000001</ele>
        <time>2016-07-07T06:18:05Z</time>
      </trkpt>
      <trkpt lat="45.994595205411315" lon="7.304994072765112">
        <ele>2640.4000000000001</ele>
        <time>2016-07-07T06:18:17Z</time>
      </trkpt>
      <trkpt lat="45.994594786316156" lon="7.305046375840902">
        <ele>2639.4400000000001</ele>
        <time>2016-07-07T06:18:22Z</time>
      </trkpt>
      <trkpt lat="45.994591768831015" lon="7.305156514048576">
        <ele>2639.4400000000001</ele>
        <time>2016-07-07T06:18:32Z</time>
      </trkpt>
      <trkpt lat="45.994568299502134" lon="7.30522021651268">
        <ele>2640.4000000000001</ele>
        <time>2016-07-07T06:18:43Z</time>
      </trkpt>
      <trkpt lat="45.994567712768912" lon="7.305254079401493">
        <ele>2641.3600000000001</ele>
        <time>2016-07-07T06:18:54Z</time>
      </trkpt>
      <trkpt lat="45.994574837386608" lon="7.305285343900323">
        <ele>2642.8000000000002</ele>
        <time>2016-07-07T06:19:08Z</time>
      </trkpt>
      <trkpt lat="45.994558911770582" lon="7.305337060242891">
        <ele>2644.7199999999998</ele>
        <time>2016-07-07T06:19:17Z</time>
      </trkpt>
      <trkpt lat="45.994545500725508" lon="7.305413754656911">
        <ele>2647.1300000000001</ele>
        <time>2016-07-07T06:19:29Z</time>
      </trkpt>
      <trkpt lat="45.994524629786611" lon="7.305480474606156">
        <ele>2649.0500000000002</ele>
        <time>2016-07-07T06:19:40Z</time>
      </trkpt>
      <trkpt lat="45.994535190984607" lon="7.305538980290294">
        <ele>2650.9699999999998</ele>
        <time>2016-07-07T06:19:51Z</time>
      </trkpt>
      <trkpt lat="45.994558660313487" lon="7.305478630587459">
        <ele>2652.9000000000001</ele>
        <time>2016-07-07T06:20:01Z</time>
      </trkpt>
      <trkpt lat="45.994566371664405" lon="7.305478546768427">
        <ele>2652.9000000000001</ele>
        <time>2016-07-07T06:20:02Z</time>
      </trkpt>
      <trkpt lat="45.994618758559227" lon="7.305436301976442">
        <ele>2654.8200000000002</ele>
        <time>2016-07-07T06:20:13Z</time>
      </trkpt>
      <trkpt lat="45.994642982259393" lon="7.305484246462584">
        <ele>2655.7800000000002</ele>
        <time>2016-07-07T06:20:25Z</time>
      </trkpt>
      <trkpt lat="45.994642563164234" lon="7.305522803217173">
        <ele>2657.6999999999998</ele>
        <time>2016-07-07T06:20:35Z</time>
      </trkpt>
      <trkpt lat="45.994688915088773" lon="7.305529676377773">
        <ele>2659.6199999999999</ele>
        <time>2016-07-07T06:20:45Z</time>
      </trkpt>
      <trkpt lat="45.994741972535849" lon="7.305498328059912">
        <ele>2661.0700000000002</ele>
        <time>2016-07-07T06:20:56Z</time>
      </trkpt>
      <trkpt lat="45.994805758818984" lon="7.305499166250229">
        <ele>2662.9899999999998</ele>
        <time>2016-07-07T06:21:08Z</time>
      </trkpt>
      <trkpt lat="45.994858145713806" lon="7.305488353595138">
        <ele>2663.4699999999998</ele>
        <time>2016-07-07T06:21:18Z</time>
      </trkpt>
      <trkpt lat="45.994893265888095" lon="7.305479804053903">
        <ele>2665.3899999999999</ele>
        <time>2016-07-07T06:21:28Z</time>
      </trkpt>
      <trkpt lat="45.994895612820983" lon="7.305541830137372">
        <ele>2666.3499999999999</ele>
        <time>2016-07-07T06:21:38Z</time>
      </trkpt>
      <trkpt lat="45.99490768276155" lon="7.305548451840878">
        <ele>2667.8000000000002</ele>
        <time>2016-07-07T06:21:41Z</time>
      </trkpt>
      <trkpt lat="45.994965434074402" lon="7.305525904521346">
        <ele>2669.7199999999998</ele>
        <time>2016-07-07T06:21:52Z</time>
      </trkpt>
      <trkpt lat="45.994986556470394" lon="7.305580303072929">
        <ele>2671.1599999999999</ele>
        <time>2016-07-07T06:22:03Z</time>
      </trkpt>
      <trkpt lat="45.995008768513799" lon="7.305609891191125">
        <ele>2673.0799999999999</ele>
        <time>2016-07-07T06:22:13Z</time>
      </trkpt>
      <trkpt lat="45.994980605319142" lon="7.305664792656899">
        <ele>2674.52</ele>
        <time>2016-07-07T06:22:23Z</time>
      </trkpt>
      <trkpt lat="45.995002733543515" lon="7.305692452937365">
        <ele>2676.4499999999998</ele>
        <time>2016-07-07T06:22:36Z</time>
      </trkpt>
      <trkpt lat="45.995002901181579" lon="7.305737296119332">
        <ele>2678.8499999999999</ele>
        <time>2016-07-07T06:22:47Z</time>
      </trkpt>
      <trkpt lat="45.995057970285416" lon="7.305720029398799">
        <ele>2680.29</ele>
        <time>2016-07-07T06:22:59Z</time>
      </trkpt>
      <trkpt lat="45.995085630565882" lon="7.305654231458902">
        <ele>2679.8099999999999</ele>
        <time>2016-07-07T06:23:09Z</time>
      </trkpt>
      <trkpt lat="45.995139526203275" lon="7.3056595120579">
        <ele>2680.29</ele>
        <time>2016-07-07T06:23:18Z</time>
      </trkpt>
      <trkpt lat="45.995190152898431" lon="7.305639563128352">
        <ele>2681.25</ele>
        <time>2016-07-07T06:23:26Z</time>
      </trkpt>
      <trkpt lat="45.99522233940661" lon="7.305637551471591">
        <ele>2681.25</ele>
        <time>2016-07-07T06:23:35Z</time>
      </trkpt>
      <trkpt lat="45.995238516479731" lon="7.305634785443544">
        <ele>2681.73</ele>
        <time>2016-07-07T06:23:46Z</time>
      </trkpt>
      <trkpt lat="45.99526634439826" lon="7.305625900626183">
        <ele>2682.2199999999998</ele>
        <time>2016-07-07T06:24:00Z</time>
      </trkpt>
      <trkpt lat="45.995310936123133" lon="7.305633192881942">
        <ele>2682.6999999999998</ele>
        <time>2016-07-07T06:24:09Z</time>
      </trkpt>
      <trkpt lat="45.995354857295752" lon="7.305658590048552">
        <ele>2682.6999999999998</ele>
        <time>2016-07-07T06:24:21Z</time>
      </trkpt>
      <trkpt lat="45.995377404615283" lon="7.305657416582108">
        <ele>2682.6999999999998</ele>
        <time>2016-07-07T06:24:33Z</time>
      </trkpt>
      <trkpt lat="45.995404059067369" lon="7.305656494572759">
        <ele>2682.6999999999998</ele>
        <time>2016-07-07T06:24:46Z</time>
      </trkpt>
      <trkpt lat="45.995414704084396" lon="7.305634869262576">
        <ele>2682.6999999999998</ele>
        <time>2016-07-07T06:24:57Z</time>
      </trkpt>
      <trkpt lat="45.995430294424295" lon="7.305642496794462">
        <ele>2683.1799999999998</ele>
        <time>2016-07-07T06:25:09Z</time>
      </trkpt>
      <trkpt lat="45.995449153706431" lon="7.305671917274594">
        <ele>2683.6599999999999</ele>
        <time>2016-07-07T06:25:27Z</time>
      </trkpt>
      <trkpt lat="45.995460469275713" lon="7.305666385218501">
        <ele>2683.6599999999999</ele>
        <time>2016-07-07T06:25:39Z</time>
      </trkpt>
      <trkpt lat="45.995473377406597" lon="7.305667977780104">
        <ele>2684.1399999999999</ele>
        <time>2016-07-07T06:25:49Z</time>
      </trkpt>
      <trkpt lat="45.995502043515444" lon="7.305677784606814">
        <ele>2684.6199999999999</ele>
        <time>2016-07-07T06:26:02Z</time>
      </trkpt>
      <trkpt lat="45.995524590834975" lon="7.305703014135361">
        <ele>2685.5799999999999</ele>
        <time>2016-07-07T06:26:12Z</time>
      </trkpt>
      <trkpt lat="45.995540516451001" lon="7.305676359683275">
        <ele>2685.5799999999999</ele>
        <time>2016-07-07T06:26:23Z</time>
      </trkpt>
      <trkpt lat="45.995554095134139" lon="7.305666552856565">
        <ele>2685.0999999999999</ele>
        <time>2016-07-07T06:26:33Z</time>
      </trkpt>
      <trkpt lat="45.995575804263353" lon="7.305651884526014">
        <ele>2684.6199999999999</ele>
        <time>2016-07-07T06:26:43Z</time>
      </trkpt>
      <trkpt lat="45.995580414310098" lon="7.305641993880272">
        <ele>2685.0999999999999</ele>
        <time>2016-07-07T06:26:48Z</time>
      </trkpt>
      <trkpt lat="45.995632214471698" lon="7.305674515664578">
        <ele>2685.5799999999999</ele>
        <time>2016-07-07T06:26:57Z</time>
      </trkpt>
      <trkpt lat="45.99566213786602" lon="7.305686082690954">
        <ele>2686.54</ele>
        <time>2016-07-07T06:27:06Z</time>
      </trkpt>
      <trkpt lat="45.995703795924783" lon="7.305665379390121">
        <ele>2687.98</ele>
        <time>2016-07-07T06:27:15Z</time>
      </trkpt>
      <trkpt lat="45.995746878907084" lon="7.305651968345046">
        <ele>2689.9099999999999</ele>
        <time>2016-07-07T06:27:27Z</time>
      </trkpt>
      <trkpt lat="45.995819382369518" lon="7.305660517886281">
        <ele>2691.3499999999999</ele>
        <time>2016-07-07T06:27:37Z</time>
      </trkpt>
      <trkpt lat="45.995862130075693" lon="7.305640401318669">
        <ele>2693.27</ele>
        <time>2016-07-07T06:27:48Z</time>
      </trkpt>
      <trkpt lat="45.995898256078362" lon="7.305605784058571">
        <ele>2695.1900000000001</ele>
        <time>2016-07-07T06:27:59Z</time>
      </trkpt>
      <trkpt lat="45.995937818661332" lon="7.30563067831099">
        <ele>2696.6399999999999</ele>
        <time>2016-07-07T06:28:09Z</time>
      </trkpt>
      <trkpt lat="45.995979057624936" lon="7.305632689967752">
        <ele>2698.5599999999999</ele>
        <time>2016-07-07T06:28:19Z</time>
      </trkpt>
      <trkpt lat="45.996031444519758" lon="7.305648280307651">
        <ele>2700.48</ele>
        <time>2016-07-07T06:28:30Z</time>
      </trkpt>
      <trkpt lat="45.996066648513079" lon="7.305639898404479">
        <ele>2701.9200000000001</ele>
        <time>2016-07-07T06:28:39Z</time>
      </trkpt>
      <trkpt lat="45.996099757030606" lon="7.305640568956733">
        <ele>2703.3600000000001</ele>
        <time>2016-07-07T06:28:47Z</time>
      </trkpt>
      <trkpt lat="45.996100092306733" lon="7.3056595120579">
        <ele>2703.8499999999999</ele>
        <time>2016-07-07T06:28:56Z</time>
      </trkpt>
      <trkpt lat="45.996069833636284" lon="7.305705696344376">
        <ele>2705.29</ele>
        <time>2016-07-07T06:29:09Z</time>
      </trkpt>
      <trkpt lat="45.99608332850039" lon="7.305729417130351">
        <ele>2706.73</ele>
        <time>2016-07-07T06:29:19Z</time>
      </trkpt>
      <trkpt lat="45.996073437854648" lon="7.305774260312319">
        <ele>2708.1700000000001</ele>
        <time>2016-07-07T06:29:28Z</time>
      </trkpt>
      <trkpt lat="45.996038988232613" lon="7.305789347738028">
        <ele>2708.6500000000001</ele>
        <time>2016-07-07T06:29:39Z</time>
      </trkpt>
      <trkpt lat="45.996023984625936" lon="7.305834693834186">
        <ele>2710.0900000000001</ele>
        <time>2016-07-07T06:29:48Z</time>
      </trkpt>
      <trkpt lat="45.996006885543466" lon="7.305888086557388">
        <ele>2711.54</ele>
        <time>2016-07-07T06:29:59Z</time>
      </trkpt>
      <trkpt lat="45.995994228869677" lon="7.305935276672244">
        <ele>2713.46</ele>
        <time>2016-07-07T06:30:09Z</time>
      </trkpt>
      <trkpt lat="45.995980901643634" lon="7.305969391018152">
        <ele>2714.9000000000001</ele>
        <time>2016-07-07T06:30:19Z</time>
      </trkpt>
      <trkpt lat="45.995958102867007" lon="7.306008953601122">
        <ele>2716.3400000000001</ele>
        <time>2016-07-07T06:30:28Z</time>
      </trkpt>
      <trkpt lat="45.99594502709806" lon="7.306033512577415">
        <ele>2718.27</ele>
        <time>2016-07-07T06:30:39Z</time>
      </trkpt>
      <trkpt lat="45.995931448414922" lon="7.306022699922323">
        <ele>2718.75</ele>
        <time>2016-07-07T06:30:52Z</time>
      </trkpt>
      <trkpt lat="45.995925832539797" lon="7.306019263342023">
        <ele>2718.75</ele>
        <time>2016-07-07T06:31:19Z</time>
      </trkpt>
      <trkpt lat="45.995947038754821" lon="7.306075589731336">
        <ele>2720.1900000000001</ele>
        <time>2016-07-07T06:31:35Z</time>
      </trkpt>
      <trkpt lat="45.995987188071012" lon="7.306077014654875">
        <ele>2721.6300000000001</ele>
        <time>2016-07-07T06:31:45Z</time>
      </trkpt>
      <trkpt lat="45.996017949655652" lon="7.306073242798448">
        <ele>2724.0300000000002</ele>
        <time>2016-07-07T06:31:56Z</time>
      </trkpt>
      <trkpt lat="45.996055752038956" lon="7.306078942492604">
        <ele>2724.9899999999998</ele>
        <time>2016-07-07T06:32:06Z</time>
      </trkpt>
      <trkpt lat="45.996029432862997" lon="7.306134011596441">
        <ele>2726.9200000000001</ele>
        <time>2016-07-07T06:32:18Z</time>
      </trkpt>
      <trkpt lat="45.996012836694717" lon="7.30616862885654">
        <ele>2728.8400000000001</ele>
        <time>2016-07-07T06:32:30Z</time>
      </trkpt>
      <trkpt lat="45.995989451184869" lon="7.306204251945019">
        <ele>2730.2800000000002</ele>
        <time>2016-07-07T06:32:39Z</time>
      </trkpt>
      <trkpt lat="45.99597092717886" lon="7.306255800649524">
        <ele>2731.7199999999998</ele>
        <time>2016-07-07T06:32:52Z</time>
      </trkpt>
      <trkpt lat="45.995967155322433" lon="7.306274995207787">
        <ele>2732.1999999999998</ele>
        <time>2016-07-07T06:33:05Z</time>
      </trkpt>
      <trkpt lat="45.995979141443968" lon="7.306266529485583">
        <ele>2733.6500000000001</ele>
        <time>2016-07-07T06:33:17Z</time>
      </trkpt>
      <trkpt lat="45.995976710692048" lon="7.306262338533998">
        <ele>2734.1300000000001</ele>
        <time>2016-07-07T06:33:29Z</time>
      </trkpt>
      <trkpt lat="45.995976375415921" lon="7.306275246664882">
        <ele>2734.1300000000001</ele>
        <time>2016-07-07T06:33:43Z</time>
      </trkpt>
      <trkpt lat="45.995960365980864" lon="7.306276336312294">
        <ele>2734.6100000000001</ele>
        <time>2016-07-07T06:34:02Z</time>
      </trkpt>
      <trkpt lat="45.996018536388874" lon="7.306273654103279">
        <ele>2736.0500000000002</ele>
        <time>2016-07-07T06:34:15Z</time>
      </trkpt>
      <trkpt lat="45.996033037081361" lon="7.306286143139005">
        <ele>2738.4499999999998</ele>
        <time>2016-07-07T06:34:28Z</time>
      </trkpt>
      <trkpt lat="45.996060697361827" lon="7.30629276484251">
        <ele>2739.8899999999999</ele>
        <time>2016-07-07T06:34:39Z</time>
      </trkpt>
      <trkpt lat="45.996101349592209" lon="7.306261584162712">
        <ele>2741.8200000000002</ele>
        <time>2016-07-07T06:34:52Z</time>
      </trkpt>
      <trkpt lat="45.996120376512408" lon="7.306321263313294">
        <ele>2743.2600000000002</ele>
        <time>2016-07-07T06:35:03Z</time>
      </trkpt>
      <trkpt lat="45.996106043457985" lon="7.306383708491921">
        <ele>2745.1799999999998</ele>
        <time>2016-07-07T06:35:14Z</time>
      </trkpt>
      <trkpt lat="45.996077628806233" lon="7.306443387642503">
        <ele>2746.1399999999999</ele>
        <time>2016-07-07T06:35:24Z</time>
      </trkpt>
      <trkpt lat="45.996041251346469" lon="7.306502060964704">
        <ele>2747.5900000000001</ele>
        <time>2016-07-07T06:35:37Z</time>
      </trkpt>
      <trkpt lat="45.996032450348139" lon="7.306494852527976">
        <ele>2747.5900000000001</ele>
        <time>2016-07-07T06:35:48Z</time>
      </trkpt>
      <trkpt lat="45.996016524732113" lon="7.3065453954041">
        <ele>2749.0300000000002</ele>
        <time>2016-07-07T06:36:00Z</time>
      </trkpt>
      <trkpt lat="45.99596799351275" lon="7.306614546105266">
        <ele>2750.4699999999998</ele>
        <time>2016-07-07T06:36:12Z</time>
      </trkpt>
      <trkpt lat="45.995931029319763" lon="7.3066680226475">
        <ele>2752.3899999999999</ele>
        <time>2016-07-07T06:36:24Z</time>
      </trkpt>
      <trkpt lat="45.995916025713086" lon="7.306723678484559">
        <ele>2753.3499999999999</ele>
        <time>2016-07-07T06:36:33Z</time>
      </trkpt>
      <trkpt lat="45.995886269956827" lon="7.306754607707262">
        <ele>2755.2800000000002</ele>
        <time>2016-07-07T06:36:43Z</time>
      </trkpt>
      <trkpt lat="45.995931532233953" lon="7.306776233017445">
        <ele>2756.7199999999998</ele>
        <time>2016-07-07T06:36:54Z</time>
      </trkpt>
      <trkpt lat="45.99591619335115" lon="7.306823926046491">
        <ele>2759.1199999999999</ele>
        <time>2016-07-07T06:37:05Z</time>
      </trkpt>
      <trkpt lat="45.995950642973185" lon="7.306791571900249">
        <ele>2761.04</ele>
        <time>2016-07-07T06:37:17Z</time>
      </trkpt>
      <trkpt lat="45.995990792289376" lon="7.306788805872202">
        <ele>2762.4899999999998</ele>
        <time>2016-07-07T06:37:27Z</time>
      </trkpt>
      <trkpt lat="45.996026750653982" lon="7.306790733709931">
        <ele>2763.9299999999998</ele>
        <time>2016-07-07T06:37:37Z</time>
      </trkpt>
      <trkpt lat="45.996026415377855" lon="7.306880922988057">
        <ele>2766.3299999999999</ele>
        <time>2016-07-07T06:37:51Z</time>
      </trkpt>
      <trkpt lat="45.996033791452646" lon="7.30691964738071">
        <ele>2767.77</ele>
        <time>2016-07-07T06:37:59Z</time>
      </trkpt>
      <trkpt lat="45.996027421206236" lon="7.306965496391058">
        <ele>2769.6999999999998</ele>
        <time>2016-07-07T06:38:11Z</time>
      </trkpt>
      <trkpt lat="45.995993642136455" lon="7.306986534968019">
        <ele>2770.1799999999998</ele>
        <time>2016-07-07T06:38:23Z</time>
      </trkpt>
      <trkpt lat="45.996010657399893" lon="7.306984104216099">
        <ele>2771.6199999999999</ele>
        <time>2016-07-07T06:38:37Z</time>
      </trkpt>
      <trkpt lat="45.996043346822262" lon="7.307022828608751">
        <ele>2774.02</ele>
        <time>2016-07-07T06:38:48Z</time>
      </trkpt>
      <trkpt lat="45.996046448126435" lon="7.307078987360001">
        <ele>2775.9400000000001</ele>
        <time>2016-07-07T06:38:59Z</time>
      </trkpt>
      <trkpt lat="45.996025409549475" lon="7.307130033150315">
        <ele>2777.8699999999999</ele>
        <time>2016-07-07T06:39:09Z</time>
      </trkpt>
      <trkpt lat="45.996005544438958" lon="7.307190047577024">
        <ele>2779.3099999999999</ele>
        <time>2016-07-07T06:39:19Z</time>
      </trkpt>
      <trkpt lat="45.996040999889374" lon="7.307162722572684">
        <ele>2781.71</ele>
        <time>2016-07-07T06:39:31Z</time>
      </trkpt>
      <trkpt lat="45.996073940768838" lon="7.307152664288878">
        <ele>2783.1500000000001</ele>
        <time>2016-07-07T06:39:41Z</time>
      </trkpt>
      <trkpt lat="45.996082993224263" lon="7.307213181629777">
        <ele>2785.5599999999999</ele>
        <time>2016-07-07T06:39:51Z</time>
      </trkpt>
      <trkpt lat="45.996075365692377" lon="7.307245535776019">
        <ele>2786.52</ele>
        <time>2016-07-07T06:39:56Z</time>
      </trkpt>
      <trkpt lat="45.996053656563163" lon="7.307286774739623">
        <ele>2787.48</ele>
        <time>2016-07-07T06:40:04Z</time>
      </trkpt>
      <trkpt lat="45.996080143377185" lon="7.307262048125267">
        <ele>2787.96</ele>
        <time>2016-07-07T06:40:16Z</time>
      </trkpt>
      <trkpt lat="45.996069498360157" lon="7.307276967912912">
        <ele>2787</ele>
        <time>2016-07-07T06:40:19Z</time>
      </trkpt>
      <trkpt lat="45.996063966304064" lon="7.307255594059825">
        <ele>2787</ele>
        <time>2016-07-07T06:40:31Z</time>
      </trkpt>
      <trkpt lat="45.996063631027937" lon="7.30724411085248">
        <ele>2787.96</ele>
        <time>2016-07-07T06:40:48Z</time>
      </trkpt>
      <trkpt lat="45.9960862621665" lon="7.307267412543297">
        <ele>2788.4400000000001</ele>
        <time>2016-07-07T06:40:57Z</time>
      </trkpt>
      <trkpt lat="45.996091961860657" lon="7.307298928499222">
        <ele>2790.3600000000001</ele>
        <time>2016-07-07T06:41:06Z</time>
      </trkpt>
      <trkpt lat="45.996088944375515" lon="7.307363888248801">
        <ele>2793.25</ele>
        <time>2016-07-07T06:41:18Z</time>
      </trkpt>
      <trkpt lat="45.996099337935448" lon="7.307406971231103">
        <ele>2795.1700000000001</ele>
        <time>2016-07-07T06:41:28Z</time>
      </trkpt>
      <trkpt lat="45.996081065386534" lon="7.307466566562653">
        <ele>2797.0900000000001</ele>
        <time>2016-07-07T06:41:38Z</time>
      </trkpt>
      <trkpt lat="45.996052483096719" lon="7.307506045326591">
        <ele>2798.54</ele>
        <time>2016-07-07T06:41:49Z</time>
      </trkpt>
      <trkpt lat="45.996067067608237" lon="7.307501938194037">
        <ele>2799.5</ele>
        <time>2016-07-07T06:42:00Z</time>
      </trkpt>
      <trkpt lat="45.996086429804564" lon="7.307545356452465">
        <ele>2801.4200000000001</ele>
        <time>2016-07-07T06:42:12Z</time>
      </trkpt>
      <trkpt lat="45.996065977960825" lon="7.30759933590889">
        <ele>2802.8600000000001</ele>
        <time>2016-07-07T06:42:22Z</time>
      </trkpt>
      <trkpt lat="45.996052818372846" lon="7.307609226554632">
        <ele>2804.3000000000002</ele>
        <time>2016-07-07T06:42:32Z</time>
      </trkpt>
      <trkpt lat="45.996053824201226" lon="7.307608220726252">
        <ele>2805.2600000000002</ele>
        <time>2016-07-07T06:42:46Z</time>
      </trkpt>
      <trkpt lat="45.996048878878355" lon="7.307666391134262">
        <ele>2806.71</ele>
        <time>2016-07-07T06:42:57Z</time>
      </trkpt>
      <trkpt lat="45.996060697361827" lon="7.307686256244779">
        <ele>2808.6300000000001</ele>
        <time>2016-07-07T06:43:06Z</time>
      </trkpt>
      <trkpt lat="45.996051980182528" lon="7.307751970365644">
        <ele>2810.5500000000002</ele>
        <time>2016-07-07T06:43:18Z</time>
      </trkpt>
      <trkpt lat="45.996021972969174" lon="7.307773176580668">
        <ele>2811.9899999999998</ele>
        <time>2016-07-07T06:43:29Z</time>
      </trkpt>
      <trkpt lat="45.996001018211246" lon="7.307813493534923">
        <ele>2814.4000000000001</ele>
        <time>2016-07-07T06:43:40Z</time>
      </trkpt>
      <trkpt lat="45.995985344052315" lon="7.307815253734589">
        <ele>2815.8400000000001</ele>
        <time>2016-07-07T06:43:51Z</time>
      </trkpt>
      <trkpt lat="45.996009986847639" lon="7.307860851287842">
        <ele>2816.8000000000002</ele>
        <time>2016-07-07T06:44:02Z</time>
      </trkpt>
      <trkpt lat="45.996013842523098" lon="7.307885326445103">
        <ele>2817.7600000000002</ele>
        <time>2016-07-07T06:44:17Z</time>
      </trkpt>
      <trkpt lat="45.996014596894383" lon="7.307888176292181">
        <ele>2819.1999999999998</ele>
        <time>2016-07-07T06:44:30Z</time>
      </trkpt>
      <trkpt lat="45.996043933555484" lon="7.307918937876821">
        <ele>2820.6500000000001</ele>
        <time>2016-07-07T06:44:39Z</time>
      </trkpt>
      <trkpt lat="45.996059523895383" lon="7.307934444397688">
        <ele>2820.6500000000001</ele>
        <time>2016-07-07T06:44:50Z</time>
      </trkpt>
      <trkpt lat="45.996017111465335" lon="7.307955315336585">
        <ele>2821.6100000000001</ele>
        <time>2016-07-07T06:45:05Z</time>
      </trkpt>
      <trkpt lat="45.996016524732113" lon="7.307981383055449">
        <ele>2822.0900000000001</ele>
        <time>2016-07-07T06:45:16Z</time>
      </trkpt>
      <trkpt lat="45.996057093143463" lon="7.30799219571054">
        <ele>2824.4899999999998</ele>
        <time>2016-07-07T06:45:27Z</time>
      </trkpt>
      <trkpt lat="45.996064133942127" lon="7.308012563735247">
        <ele>2825.9299999999998</ele>
        <time>2016-07-07T06:45:37Z</time>
      </trkpt>
      <trkpt lat="45.996098080649972" lon="7.308040643110871">
        <ele>2827.3699999999999</ele>
        <time>2016-07-07T06:45:49Z</time>
      </trkpt>
      <trkpt lat="45.996127249673009" lon="7.308107614517212">
        <ele>2828.8200000000002</ele>
        <time>2016-07-07T06:46:04Z</time>
      </trkpt>
      <trkpt lat="45.99615809507668" lon="7.308153128251433">
        <ele>2830.2600000000002</ele>
        <time>2016-07-07T06:46:14Z</time>
      </trkpt>
      <trkpt lat="45.996189611032605" lon="7.308207107707858">
        <ele>2831.2199999999998</ele>
        <time>2016-07-07T06:46:25Z</time>
      </trkpt>
      <trkpt lat="45.996203441172838" lon="7.308238875120878">
        <ele>2831.2199999999998</ele>
        <time>2016-07-07T06:46:34Z</time>
      </trkpt>
      <trkpt lat="45.996230766177177" lon="7.308272402733564">
        <ele>2832.1799999999998</ele>
        <time>2016-07-07T06:46:43Z</time>
      </trkpt>
      <trkpt lat="45.996260941028595" lon="7.308328226208687">
        <ele>2833.6199999999999</ele>
        <time>2016-07-07T06:46:53Z</time>
      </trkpt>
      <trkpt lat="45.996234370395541" lon="7.308272402733564">
        <ele>2834.0999999999999</ele>
        <time>2016-07-07T06:47:04Z</time>
      </trkpt>
      <trkpt lat="45.996254319325089" lon="7.308295117691159">
        <ele>2834.0999999999999</ele>
        <time>2016-07-07T06:47:13Z</time>
      </trkpt>
      <trkpt lat="45.996252475306392" lon="7.308283885940909">
        <ele>2834.5799999999999</ele>
        <time>2016-07-07T06:47:27Z</time>
      </trkpt>
      <trkpt lat="45.996220037341118" lon="7.308300985023379">
        <ele>2834.5799999999999</ele>
        <time>2016-07-07T06:47:40Z</time>
      </trkpt>
      <trkpt lat="45.996206374838948" lon="7.30833032168448">
        <ele>2834.5799999999999</ele>
        <time>2016-07-07T06:47:57Z</time>
      </trkpt>
      <trkpt lat="45.996234621852636" lon="7.308312971144915">
        <ele>2835.0599999999999</ele>
        <time>2016-07-07T06:48:14Z</time>
      </trkpt>
      <trkpt lat="45.996227161958814" lon="7.308307019993663">
        <ele>2835.0599999999999</ele>
        <time>2016-07-07T06:48:27Z</time>
      </trkpt>
      <trkpt lat="45.996223893016577" lon="7.30831858702004">
        <ele>2835.0599999999999</ele>
        <time>2016-07-07T06:48:36Z</time>
      </trkpt>
      <trkpt lat="45.996227413415909" lon="7.308312216773629">
        <ele>2835.0599999999999</ele>
        <time>2016-07-07T06:48:50Z</time>
      </trkpt>
      <trkpt lat="45.996231939643621" lon="7.308301152661443">
        <ele>2834.5799999999999</ele>
        <time>2016-07-07T06:49:07Z</time>
      </trkpt>
      <trkpt lat="45.996242081746459" lon="7.30829318985343">
        <ele>2835.0599999999999</ele>
        <time>2016-07-07T06:49:21Z</time>
      </trkpt>
      <trkpt lat="45.996202016249299" lon="7.308311462402344">
        <ele>2833.6199999999999</ele>
        <time>2016-07-07T06:49:30Z</time>
      </trkpt>
      <trkpt lat="45.996208135038614" lon="7.308309031650424">
        <ele>2833.1399999999999</ele>
        <time>2016-07-07T06:49:38Z</time>
      </trkpt>
      <trkpt lat="45.996232023462653" lon="7.308301404118538">
        <ele>2834.5799999999999</ele>
        <time>2016-07-07T06:49:50Z</time>
      </trkpt>
      <trkpt lat="45.996251301839948" lon="7.308293441310525">
        <ele>2835.0599999999999</ele>
        <time>2016-07-07T06:50:01Z</time>
      </trkpt>
      <trkpt lat="45.996231436729431" lon="7.308287909254432">
        <ele>2835.0599999999999</ele>
        <time>2016-07-07T06:50:16Z</time>
      </trkpt>
      <trkpt lat="45.99621869623661" lon="7.308311210945249">
        <ele>2835.5500000000002</ele>
        <time>2016-07-07T06:50:33Z</time>
      </trkpt>
      <trkpt lat="45.996223725378513" lon="7.308301907032728">
        <ele>2835.5500000000002</ele>
        <time>2016-07-07T06:50:48Z</time>
      </trkpt>
      <trkpt lat="45.996226407587528" lon="7.308311043307185">
        <ele>2834.5799999999999</ele>
        <time>2016-07-07T06:50:51Z</time>
      </trkpt>
      <trkpt lat="45.996218109503388" lon="7.308305678889155">
        <ele>2834.5799999999999</ele>
        <time>2016-07-07T06:51:07Z</time>
      </trkpt>
      <trkpt lat="45.99622355774045" lon="7.308286819607019">
        <ele>2834.5799999999999</ele>
        <time>2016-07-07T06:51:20Z</time>
      </trkpt>
      <trkpt lat="45.99620352499187" lon="7.308283718302846">
        <ele>2834.5799999999999</ele>
        <time>2016-07-07T06:51:42Z</time>
      </trkpt>
      <trkpt lat="45.996202854439616" lon="7.308275001123548">
        <ele>2836.0300000000002</ele>
        <time>2016-07-07T06:51:56Z</time>
      </trkpt>
      <trkpt lat="45.996251804754138" lon="7.308314815163612">
        <ele>2835.5500000000002</ele>
        <time>2016-07-07T06:52:05Z</time>
      </trkpt>
      <trkpt lat="45.996260941028595" lon="7.308300230652094">
        <ele>2836.0300000000002</ele>
        <time>2016-07-07T06:52:25Z</time>
      </trkpt>
      <trkpt lat="45.996270244941115" lon="7.30829662643373">
        <ele>2836.0300000000002</ele>
        <time>2016-07-07T06:52:36Z</time>
      </trkpt>
      <trkpt lat="45.996293714269996" lon="7.308324286714196">
        <ele>2836.9899999999998</ele>
        <time>2016-07-07T06:52:46Z</time>
      </trkpt>
      <trkpt lat="45.9963124897331" lon="7.308346834033728">
        <ele>2837.9499999999998</ele>
        <time>2016-07-07T06:52:58Z</time>
      </trkpt>
      <trkpt lat="45.996331181377172" lon="7.308456636965275">
        <ele>2837.4699999999998</ele>
        <time>2016-07-07T06:53:08Z</time>
      </trkpt>
      <trkpt lat="45.996326990425587" lon="7.308502905070782">
        <ele>2838.9099999999999</ele>
        <time>2016-07-07T06:53:19Z</time>
      </trkpt>
      <trkpt lat="45.996353812515736" lon="7.308586724102497">
        <ele>2839.8699999999999</ele>
        <time>2016-07-07T06:53:29Z</time>
      </trkpt>
      <trkpt lat="45.996359344571829" lon="7.308585466817021">
        <ele>2839.3899999999999</ele>
        <time>2016-07-07T06:53:30Z</time>
      </trkpt>
      <trkpt lat="45.996389519423246" lon="7.308666771277785">
        <ele>2839.3899999999999</ele>
        <time>2016-07-07T06:53:40Z</time>
      </trkpt>
      <trkpt lat="45.996406450867653" lon="7.308813286945224">
        <ele>2838.9099999999999</ele>
        <time>2016-07-07T06:53:50Z</time>
      </trkpt>
      <trkpt lat="45.996434446424246" lon="7.30891227722168">
        <ele>2840.8299999999999</ele>
        <time>2016-07-07T06:54:01Z</time>
      </trkpt>
      <trkpt lat="45.996474344283342" lon="7.309013782069087">
        <ele>2842.7600000000002</ele>
        <time>2016-07-07T06:54:13Z</time>
      </trkpt>
      <trkpt lat="45.996489012613893" lon="7.309108916670084">
        <ele>2844.1999999999998</ele>
        <time>2016-07-07T06:54:25Z</time>
      </trkpt>
      <trkpt lat="45.996503932401538" lon="7.309165243059397">
        <ele>2846.1199999999999</ele>
        <time>2016-07-07T06:54:34Z</time>
      </trkpt>
      <trkpt lat="45.996551038697362" lon="7.309166416525841">
        <ele>2847.0799999999999</ele>
        <time>2016-07-07T06:54:43Z</time>
      </trkpt>
      <trkpt lat="45.996603593230247" lon="7.309211930260062">
        <ele>2848.04</ele>
        <time>2016-07-07T06:54:53Z</time>
      </trkpt>
      <trkpt lat="45.996663440018892" lon="7.309250989928842">
        <ele>2848.52</ele>
        <time>2016-07-07T06:55:03Z</time>
      </trkpt>
      <trkpt lat="45.996726807206869" lon="7.309310752898455">
        <ele>2849.9699999999998</ele>
        <time>2016-07-07T06:55:16Z</time>
      </trkpt>
      <trkpt lat="45.996777769178152" lon="7.309349058195949">
        <ele>2851.4099999999999</ele>
        <time>2016-07-07T06:55:24Z</time>
      </trkpt>
      <trkpt lat="45.996797885745764" lon="7.309355847537518">
        <ele>2851.4099999999999</ele>
        <time>2016-07-07T06:55:27Z</time>
      </trkpt>
      <trkpt lat="45.996874580159783" lon="7.309404797852039">
        <ele>2852.8499999999999</ele>
        <time>2016-07-07T06:55:39Z</time>
      </trkpt>
      <trkpt lat="45.996906012296677" lon="7.309438996016979">
        <ele>2853.3299999999999</ele>
        <time>2016-07-07T06:55:50Z</time>
      </trkpt>
      <trkpt lat="45.996940294280648" lon="7.309435391798616">
        <ele>2854.29</ele>
        <time>2016-07-07T06:56:03Z</time>
      </trkpt>
      <trkpt lat="45.996995698660612" lon="7.309446204453707">
        <ele>2855.73</ele>
        <time>2016-07-07T06:56:15Z</time>
      </trkpt>
      <trkpt lat="45.997054874897003" lon="7.309485180303454">
        <ele>2857.1799999999998</ele>
        <time>2016-07-07T06:56:26Z</time>
      </trkpt>
      <trkpt lat="45.997113464400172" lon="7.309519629925489">
        <ele>2858.6199999999999</ele>
        <time>2016-07-07T06:56:37Z</time>
      </trkpt>
      <trkpt lat="45.99714363925159" lon="7.309531699866056">
        <ele>2860.0599999999999</ele>
        <time>2016-07-07T06:56:50Z</time>
      </trkpt>
      <trkpt lat="45.997169790789485" lon="7.309563048183918">
        <ele>2861.02</ele>
        <time>2016-07-07T06:57:04Z</time>
      </trkpt>
      <trkpt lat="45.997193595394492" lon="7.309579979628325">
        <ele>2861.5</ele>
        <time>2016-07-07T06:57:13Z</time>
      </trkpt>
      <trkpt lat="45.997190158814192" lon="7.309594145044684">
        <ele>2861.5</ele>
        <time>2016-07-07T06:57:28Z</time>
      </trkpt>
      <trkpt lat="45.997169287875295" lon="7.309602359309793">
        <ele>2861.02</ele>
        <time>2016-07-07T06:57:37Z</time>
      </trkpt>
      <trkpt lat="45.997166186571121" lon="7.309602778404951">
        <ele>2860.54</ele>
        <time>2016-07-07T06:57:49Z</time>
      </trkpt>
      <trkpt lat="45.997164761647582" lon="7.30961836874485">
        <ele>2861.02</ele>
        <time>2016-07-07T06:58:14Z</time>
      </trkpt>
      <trkpt lat="45.997168952599168" lon="7.309610573574901">
        <ele>2861.02</ele>
        <time>2016-07-07T06:58:39Z</time>
      </trkpt>
      <trkpt lat="45.997161911800504" lon="7.309620967134833">
        <ele>2861.5</ele>
        <time>2016-07-07T06:59:05Z</time>
      </trkpt>
      <trkpt lat="45.997159648686647" lon="7.309613926336169">
        <ele>2861.5</ele>
        <time>2016-07-07T06:59:36Z</time>
      </trkpt>
      <trkpt lat="45.99717297591269" lon="7.309598419815302">
        <ele>2861.98</ele>
        <time>2016-07-07T07:00:02Z</time>
      </trkpt>
      <trkpt lat="45.997177418321371" lon="7.309609316289425">
        <ele>2861.98</ele>
        <time>2016-07-07T07:00:32Z</time>
      </trkpt>
      <trkpt lat="45.997173143550754" lon="7.309614764526486">
        <ele>2862.46</ele>
        <time>2016-07-07T07:01:00Z</time>
      </trkpt>
      <trkpt lat="45.997167443856597" lon="7.309607053175569">
        <ele>2862.46</ele>
        <time>2016-07-07T07:01:34Z</time>
      </trkpt>
      <trkpt lat="45.997166270390153" lon="7.309603951871395">
        <ele>2862.9400000000001</ele>
        <time>2016-07-07T07:02:08Z</time>
      </trkpt>
      <trkpt lat="45.997179010882974" lon="7.309604706242681">
        <ele>2862.9400000000001</ele>
        <time>2016-07-07T07:02:30Z</time>
      </trkpt>
      <trkpt lat="45.997174233198166" lon="7.309604706242681">
        <ele>2863.4200000000001</ele>
        <time>2016-07-07T07:03:03Z</time>
      </trkpt>
      <trkpt lat="45.997165935114026" lon="7.309600599110127">
        <ele>2863.4200000000001</ele>
        <time>2016-07-07T07:03:37Z</time>
      </trkpt>
      <trkpt lat="45.997174652293324" lon="7.309594815596938">
        <ele>2863.9000000000001</ele>
        <time>2016-07-07T07:04:10Z</time>
      </trkpt>
      <trkpt lat="45.997185213491321" lon="7.309608310461044">
        <ele>2864.3899999999999</ele>
        <time>2016-07-07T07:04:38Z</time>
      </trkpt>
      <trkpt lat="45.997158056125045" lon="7.309614848345518">
        <ele>2864.3899999999999</ele>
        <time>2016-07-07T07:05:08Z</time>
      </trkpt>
      <trkpt lat="45.997165013104677" lon="7.309618033468723">
        <ele>2864.8699999999999</ele>
        <time>2016-07-07T07:05:37Z</time>
      </trkpt>
      <trkpt lat="45.997164258733392" lon="7.309621889144182">
        <ele>2864.8699999999999</ele>
        <time>2016-07-07T07:06:00Z</time>
      </trkpt>
      <trkpt lat="45.997168282046914" lon="7.309610992670059">
        <ele>2865.3499999999999</ele>
        <time>2016-07-07T07:06:29Z</time>
      </trkpt>
      <trkpt lat="45.997164845466614" lon="7.309604035690427">
        <ele>2865.3499999999999</ele>
        <time>2016-07-07T07:06:52Z</time>
      </trkpt>
      <trkpt lat="45.997155122458935" lon="7.309603784233332">
        <ele>2865.3499999999999</ele>
        <time>2016-07-07T07:07:17Z</time>
      </trkpt>
      <trkpt lat="45.997158726677299" lon="7.309612249955535">
        <ele>2865.8299999999999</ele>
        <time>2016-07-07T07:07:39Z</time>
      </trkpt>
      <trkpt lat="45.997164007276297" lon="7.309615267440677">
        <ele>2865.8299999999999</ele>
        <time>2016-07-07T07:08:07Z</time>
      </trkpt>
      <trkpt lat="45.997152775526047" lon="7.309620883315802">
        <ele>2866.3099999999999</ele>
        <time>2016-07-07T07:08:33Z</time>
      </trkpt>
      <trkpt lat="45.997158726677299" lon="7.309609232470393">
        <ele>2866.3099999999999</ele>
        <time>2016-07-07T07:09:01Z</time>
      </trkpt>
      <trkpt lat="45.997166689485312" lon="7.309611579403281">
        <ele>2866.79</ele>
        <time>2016-07-07T07:09:37Z</time>
      </trkpt>
      <trkpt lat="45.997167443856597" lon="7.30961149558425">
        <ele>2867.27</ele>
        <time>2016-07-07T07:10:05Z</time>
      </trkpt>
      <trkpt lat="45.997152188792825" lon="7.309602526947856">
        <ele>2868.23</ele>
        <time>2016-07-07T07:10:27Z</time>
      </trkpt>
      <trkpt lat="45.997169706970453" lon="7.309596072882414">
        <ele>2868.23</ele>
        <time>2016-07-07T07:10:35Z</time>
      </trkpt>
      <trkpt lat="45.997186051681638" lon="7.309618620201945">
        <ele>2868.23</ele>
        <time>2016-07-07T07:10:50Z</time>
      </trkpt>
      <trkpt lat="45.997193679213524" lon="7.309624403715134">
        <ele>2868.71</ele>
        <time>2016-07-07T07:11:07Z</time>
      </trkpt>
      <trkpt lat="45.997182531282306" lon="7.309628091752529">
        <ele>2869.1900000000001</ele>
        <time>2016-07-07T07:11:19Z</time>
      </trkpt>
      <trkpt lat="45.997197702527046" lon="7.309638485312462">
        <ele>2869.1900000000001</ele>
        <time>2016-07-07T07:11:36Z</time>
      </trkpt>
      <trkpt lat="45.997228883206844" lon="7.309681819751859">
        <ele>2870.6300000000001</ele>
        <time>2016-07-07T07:11:45Z</time>
      </trkpt>
      <trkpt lat="45.997252101078629" lon="7.309712413698435">
        <ele>2870.6300000000001</ele>
        <time>2016-07-07T07:11:55Z</time>
      </trkpt>
      <trkpt lat="45.997288394719362" lon="7.309798412024975">
        <ele>2872.0799999999999</ele>
        <time>2016-07-07T07:12:07Z</time>
      </trkpt>
      <trkpt lat="45.997326783835888" lon="7.309841495007277">
        <ele>2873.04</ele>
        <time>2016-07-07T07:12:19Z</time>
      </trkpt>
      <trkpt lat="45.997354611754417" lon="7.309878878295422">
        <ele>2873.52</ele>
        <time>2016-07-07T07:12:28Z</time>
      </trkpt>
      <trkpt lat="45.99738260731101" lon="7.309894300997257">
        <ele>2874</ele>
        <time>2016-07-07T07:12:38Z</time>
      </trkpt>
      <trkpt lat="45.997404316440225" lon="7.309897150844336">
        <ele>2874.48</ele>
        <time>2016-07-07T07:12:47Z</time>
      </trkpt>
      <trkpt lat="45.997442118823528" lon="7.309927996248007">
        <ele>2874</ele>
        <time>2016-07-07T07:12:56Z</time>
      </trkpt>
      <trkpt lat="45.997464247047901" lon="7.309952219948173">
        <ele>2874</ele>
        <time>2016-07-07T07:13:05Z</time>
      </trkpt>
      <trkpt lat="45.997518394142389" lon="7.309985244646668">
        <ele>2873.52</ele>
        <time>2016-07-07T07:13:18Z</time>
      </trkpt>
      <trkpt lat="45.997550496831536" lon="7.310016509145498">
        <ele>2873.52</ele>
        <time>2016-07-07T07:13:27Z</time>
      </trkpt>
      <trkpt lat="45.997587377205491" lon="7.310044085606933">
        <ele>2872.5599999999999</ele>
        <time>2016-07-07T07:13:37Z</time>
      </trkpt>
      <trkpt lat="45.997614869847894" lon="7.310064537450671">
        <ele>2872.5599999999999</ele>
        <time>2016-07-07T07:13:48Z</time>
      </trkpt>
      <trkpt lat="45.997667592018843" lon="7.310092952102423">
        <ele>2872.0799999999999</ele>
        <time>2016-07-07T07:14:00Z</time>
      </trkpt>
      <trkpt lat="45.997710004448891" lon="7.310117594897747">
        <ele>2872.0799999999999</ele>
        <time>2016-07-07T07:14:10Z</time>
      </trkpt>
      <trkpt lat="45.997745878994465" lon="7.31015095487237">
        <ele>2871.5999999999999</ele>
        <time>2016-07-07T07:14:21Z</time>
      </trkpt>
      <trkpt lat="45.997790973633528" lon="7.310154726728797">
        <ele>2871.1100000000001</ele>
        <time>2016-07-07T07:14:35Z</time>
      </trkpt>
      <trkpt lat="45.9978355653584" lon="7.310175597667694">
        <ele>2870.6300000000001</ele>
        <time>2016-07-07T07:14:48Z</time>
      </trkpt>
      <trkpt lat="45.997852580621839" lon="7.310186326503754">
        <ele>2870.6300000000001</ele>
        <time>2016-07-07T07:14:59Z</time>
      </trkpt>
      <trkpt lat="45.997870769351721" lon="7.310203844681382">
        <ele>2870.1500000000001</ele>
        <time>2016-07-07T07:15:08Z</time>
      </trkpt>
      <trkpt lat="45.997888958081603" lon="7.310225889086723">
        <ele>2870.6300000000001</ele>
        <time>2016-07-07T07:15:18Z</time>
      </trkpt>
      <trkpt lat="45.997899686917663" lon="7.310226643458009">
        <ele>2870.6300000000001</ele>
        <time>2016-07-07T07:15:30Z</time>
      </trkpt>
      <trkpt lat="45.997933801263571" lon="7.310228906571865">
        <ele>2871.1100000000001</ele>
        <time>2016-07-07T07:15:40Z</time>
      </trkpt>
      <trkpt lat="45.997943943366408" lon="7.310209460556507">
        <ele>2871.1100000000001</ele>
        <time>2016-07-07T07:15:51Z</time>
      </trkpt>
      <trkpt lat="45.997968418523669" lon="7.310226392000914">
        <ele>2871.5999999999999</ele>
        <time>2016-07-07T07:16:02Z</time>
      </trkpt>
      <trkpt lat="45.997972106561065" lon="7.310231756418943">
        <ele>2870.6300000000001</ele>
        <time>2016-07-07T07:16:19Z</time>
      </trkpt>
      <trkpt lat="45.998015692457557" lon="7.310256147757173">
        <ele>2871.5999999999999</ele>
        <time>2016-07-07T07:16:29Z</time>
      </trkpt>
      <trkpt lat="45.99804419092834" lon="7.310250531882048">
        <ele>2871.5999999999999</ele>
        <time>2016-07-07T07:16:38Z</time>
      </trkpt>
      <trkpt lat="45.99807495251298" lon="7.310276683419943">
        <ele>2871.5999999999999</ele>
        <time>2016-07-07T07:16:49Z</time>
      </trkpt>
      <trkpt lat="45.99809892475605" lon="7.310296716168523">
        <ele>2872.0799999999999</ele>
        <time>2016-07-07T07:16:59Z</time>
      </trkpt>
      <trkpt lat="45.998119292780757" lon="7.31030928902328">
        <ele>2871.5999999999999</ele>
        <time>2016-07-07T07:17:10Z</time>
      </trkpt>
      <trkpt lat="45.998154077678919" lon="7.310324041172862">
        <ele>2871.1100000000001</ele>
        <time>2016-07-07T07:17:20Z</time>
      </trkpt>
      <trkpt lat="45.998182073235512" lon="7.310321191325784">
        <ele>2871.1100000000001</ele>
        <time>2016-07-07T07:17:32Z</time>
      </trkpt>
      <trkpt lat="45.998197244480252" lon="7.310352539643645">
        <ele>2871.1100000000001</ele>
        <time>2016-07-07T07:17:41Z</time>
      </trkpt>
      <trkpt lat="45.99820445291698" lon="7.310362178832293">
        <ele>2870.6300000000001</ele>
        <time>2016-07-07T07:17:50Z</time>
      </trkpt>
      <trkpt lat="45.998237896710634" lon="7.310395371168852">
        <ele>2871.5999999999999</ele>
        <time>2016-07-07T07:18:01Z</time>
      </trkpt>
      <trkpt lat="45.998242674395442" lon="7.310421941801906">
        <ele>2872.5599999999999</ele>
        <time>2016-07-07T07:18:08Z</time>
      </trkpt>
      <trkpt lat="45.998274777084589" lon="7.310428312048316">
        <ele>2872.5599999999999</ele>
        <time>2016-07-07T07:18:19Z</time>
      </trkpt>
      <trkpt lat="45.9982914570719" lon="7.310447506606579">
        <ele>2871.5999999999999</ele>
        <time>2016-07-07T07:18:29Z</time>
      </trkpt>
      <trkpt lat="45.998316183686256" lon="7.310440381988883">
        <ele>2871.1100000000001</ele>
        <time>2016-07-07T07:18:40Z</time>
      </trkpt>
      <trkpt lat="45.998342335224152" lon="7.3104636836797">
        <ele>2870.1500000000001</ele>
        <time>2016-07-07T07:18:51Z</time>
      </trkpt>
      <trkpt lat="45.998416850343347" lon="7.310502324253321">
        <ele>2868.71</ele>
        <time>2016-07-07T07:19:06Z</time>
      </trkpt>
      <trkpt lat="45.998482313007116" lon="7.310535768046975">
        <ele>2867.27</ele>
        <time>2016-07-07T07:19:17Z</time>
      </trkpt>
      <trkpt lat="45.998490191996098" lon="7.310559069737792">
        <ele>2866.3099999999999</ele>
        <time>2016-07-07T07:19:26Z</time>
      </trkpt>
      <trkpt lat="45.998538974672556" lon="7.31055311858654">
        <ele>2865.8299999999999</ele>
        <time>2016-07-07T07:19:38Z</time>
      </trkpt>
      <trkpt lat="45.998574933037162" lon="7.310551693663001">
        <ele>2864.8699999999999</ele>
        <time>2016-07-07T07:19:49Z</time>
      </trkpt>
      <trkpt lat="45.998622458428144" lon="7.310567870736122">
        <ele>2864.3899999999999</ele>
        <time>2016-07-07T07:19:59Z</time>
      </trkpt>
      <trkpt lat="45.998718095943332" lon="7.310565104708076">
        <ele>2861.98</ele>
        <time>2016-07-07T07:20:10Z</time>
      </trkpt>
      <trkpt lat="45.998734189197421" lon="7.310565104708076">
        <ele>2861.02</ele>
        <time>2016-07-07T07:20:12Z</time>
      </trkpt>
      <trkpt lat="45.998830245807767" lon="7.31055211275816">
        <ele>2859.0999999999999</ele>
        <time>2016-07-07T07:20:24Z</time>
      </trkpt>
      <trkpt lat="45.998890260234475" lon="7.310547418892384">
        <ele>2858.1399999999999</ele>
        <time>2016-07-07T07:20:35Z</time>
      </trkpt>
      <trkpt lat="45.998846255242825" lon="7.310592764988542">
        <ele>2858.6199999999999</ele>
        <time>2016-07-07T07:20:49Z</time>
      </trkpt>
      <trkpt lat="45.998910125344992" lon="7.310533588752151">
        <ele>2858.1399999999999</ele>
        <time>2016-07-07T07:21:02Z</time>
      </trkpt>
      <trkpt lat="45.998934600502253" lon="7.310524871572852">
        <ele>2858.1399999999999</ele>
        <time>2016-07-07T07:21:12Z</time>
      </trkpt>
      <trkpt lat="45.99890953861177" lon="7.310504000633955">
        <ele>2857.6599999999999</ele>
        <time>2016-07-07T07:21:29Z</time>
      </trkpt>
      <trkpt lat="45.998934013769031" lon="7.310523865744472">
        <ele>2857.6599999999999</ele>
        <time>2016-07-07T07:21:51Z</time>
      </trkpt>
      <trkpt lat="45.999004757031798" lon="7.310532834380865">
        <ele>2857.6599999999999</ele>
        <time>2016-07-07T07:22:03Z</time>
      </trkpt>
      <trkpt lat="45.999122355133295" lon="7.310603326186538">
        <ele>2857.1799999999998</ele>
        <time>2016-07-07T07:22:16Z</time>
      </trkpt>
      <trkpt lat="45.999156218022108" lon="7.310647666454315">
        <ele>2856.6900000000001</ele>
        <time>2016-07-07T07:22:25Z</time>
      </trkpt>
      <trkpt lat="45.999152529984713" lon="7.310666525736451">
        <ele>2856.21</ele>
        <time>2016-07-07T07:22:32Z</time>
      </trkpt>
      <trkpt lat="45.999128222465515" lon="7.310688653960824">
        <ele>2855.73</ele>
        <time>2016-07-07T07:22:41Z</time>
      </trkpt>
      <trkpt lat="45.9991221036762" lon="7.310691839084029">
        <ele>2855.73</ele>
        <time>2016-07-07T07:22:58Z</time>
      </trkpt>
      <trkpt lat="45.999136688187718" lon="7.310673734173179">
        <ele>2856.21</ele>
        <time>2016-07-07T07:23:09Z</time>
      </trkpt>
      <trkpt lat="45.99914163351059" lon="7.310674237087369">
        <ele>2856.6900000000001</ele>
        <time>2016-07-07T07:23:21Z</time>
      </trkpt>
      <trkpt lat="45.999146411195397" lon="7.310672728344798">
        <ele>2856.6900000000001</ele>
        <time>2016-07-07T07:23:34Z</time>
      </trkpt>
      <trkpt lat="45.999161917716265" lon="7.310665771365166">
        <ele>2856.6900000000001</ele>
        <time>2016-07-07T07:23:53Z</time>
      </trkpt>
      <trkpt lat="45.999146914109588" lon="7.310664681717753">
        <ele>2856.6900000000001</ele>
        <time>2016-07-07T07:24:11Z</time>
      </trkpt>
      <trkpt lat="45.999149093404412" lon="7.310674320906401">
        <ele>2857.1799999999998</ele>
        <time>2016-07-07T07:24:28Z</time>
      </trkpt>
      <trkpt lat="45.999145908281207" lon="7.310675578191876">
        <ele>2856.6900000000001</ele>
        <time>2016-07-07T07:24:48Z</time>
      </trkpt>
      <trkpt lat="45.999154290184379" lon="7.310677757486701">
        <ele>2857.1799999999998</ele>
        <time>2016-07-07T07:24:57Z</time>
      </trkpt>
      <trkpt lat="45.999139789491892" lon="7.310700137168169">
        <ele>2857.1799999999998</ele>
        <time>2016-07-07T07:25:10Z</time>
      </trkpt>
      <trkpt lat="45.999148422852159" lon="7.310680691152811">
        <ele>2857.1799999999998</ele>
        <time>2016-07-07T07:25:27Z</time>
      </trkpt>
      <trkpt lat="45.999182537198067" lon="7.310695108026266">
        <ele>2857.1799999999998</ele>
        <time>2016-07-07T07:25:43Z</time>
      </trkpt>
      <trkpt lat="45.999156469479203" lon="7.310690162703395">
        <ele>2857.1799999999998</ele>
        <time>2016-07-07T07:25:58Z</time>
      </trkpt>
      <trkpt lat="45.999158900231123" lon="7.310702316462994">
        <ele>2857.6599999999999</ele>
        <time>2016-07-07T07:26:09Z</time>
      </trkpt>
      <trkpt lat="45.999165270477533" lon="7.310696616768837">
        <ele>2857.1799999999998</ele>
        <time>2016-07-07T07:26:23Z</time>
      </trkpt>
      <trkpt lat="45.999172562733293" lon="7.310694772750139">
        <ele>2857.1799999999998</ele>
        <time>2016-07-07T07:26:39Z</time>
      </trkpt>
      <trkpt lat="45.999191254377365" lon="7.310703238472343">
        <ele>2857.1799999999998</ele>
        <time>2016-07-07T07:26:56Z</time>
      </trkpt>
      <trkpt lat="45.999187482520938" lon="7.31069921515882">
        <ele>2857.1799999999998</ele>
        <time>2016-07-07T07:27:15Z</time>
      </trkpt>
      <trkpt lat="45.999155547469854" lon="7.310667783021927">
        <ele>2857.1799999999998</ele>
        <time>2016-07-07T07:27:25Z</time>
      </trkpt>
      <trkpt lat="45.999168455600739" lon="7.310670213773847">
        <ele>2857.6599999999999</ele>
        <time>2016-07-07T07:27:38Z</time>
      </trkpt>
      <trkpt lat="45.999154876917601" lon="7.310663005337119">
        <ele>2857.1799999999998</ele>
        <time>2016-07-07T07:27:48Z</time>
      </trkpt>
      <trkpt lat="45.999184716492891" lon="7.310704831033945">
        <ele>2857.1799999999998</ele>
        <time>2016-07-07T07:27:52Z</time>
      </trkpt>
      <trkpt lat="45.999261075630784" lon="7.310805581510067">
        <ele>2856.21</ele>
        <time>2016-07-07T07:28:02Z</time>
      </trkpt>
      <trkpt lat="45.999261494725943" lon="7.310834415256977">
        <ele>2856.21</ele>
        <time>2016-07-07T07:28:12Z</time>
      </trkpt>
      <trkpt lat="45.999308181926608" lon="7.31088487431407">
        <ele>2855.73</ele>
        <time>2016-07-07T07:28:22Z</time>
      </trkpt>
      <trkpt lat="45.999379931017756" lon="7.310988223180175">
        <ele>2855.73</ele>
        <time>2016-07-07T07:28:34Z</time>
      </trkpt>
      <trkpt lat="45.999437011778355" lon="7.311054524034262">
        <ele>2855.25</ele>
        <time>2016-07-07T07:28:43Z</time>
      </trkpt>
      <trkpt lat="45.999453524127603" lon="7.311084028333426">
        <ele>2855.25</ele>
        <time>2016-07-07T07:28:46Z</time>
      </trkpt>
      <trkpt lat="45.99946903064847" lon="7.31109450571239">
        <ele>2854.77</ele>
        <time>2016-07-07T07:28:49Z</time>
      </trkpt>
      <trkpt lat="45.999538265168667" lon="7.311154184862971">
        <ele>2853.3299999999999</ele>
        <time>2016-07-07T07:29:00Z</time>
      </trkpt>
      <trkpt lat="45.999538516625762" lon="7.311166925355792">
        <ele>2852.8499999999999</ele>
        <time>2016-07-07T07:29:10Z</time>
      </trkpt>
      <trkpt lat="45.999518986791372" lon="7.311177821829915">
        <ele>2852.8499999999999</ele>
        <time>2016-07-07T07:29:26Z</time>
      </trkpt>
      <trkpt lat="45.999514544382691" lon="7.311188047751784">
        <ele>2853.3299999999999</ele>
        <time>2016-07-07T07:29:44Z</time>
      </trkpt>
      <trkpt lat="45.999538768082857" lon="7.311164159327745">
        <ele>2853.3299999999999</ele>
        <time>2016-07-07T07:30:04Z</time>
      </trkpt>
      <trkpt lat="45.999587802216411" lon="7.311233812943101">
        <ele>2852.3699999999999</ele>
        <time>2016-07-07T07:30:12Z</time>
      </trkpt>
      <trkpt lat="45.999602889642119" lon="7.31126407161355">
        <ele>2850.9299999999998</ele>
        <time>2016-07-07T07:30:15Z</time>
      </trkpt>
      <trkpt lat="45.999669944867492" lon="7.311369348317385">
        <ele>2848.04</ele>
        <time>2016-07-07T07:30:28Z</time>
      </trkpt>
      <trkpt lat="45.999710094183683" lon="7.311422992497683">
        <ele>2846.5999999999999</ele>
        <time>2016-07-07T07:30:36Z</time>
      </trkpt>
      <trkpt lat="45.999753847718239" lon="7.311459286138415">
        <ele>2845.1599999999999</ele>
        <time>2016-07-07T07:30:46Z</time>
      </trkpt>
      <trkpt lat="45.999804809689522" lon="7.311495579779148">
        <ele>2843.7199999999998</ele>
        <time>2016-07-07T07:30:57Z</time>
      </trkpt>
      <trkpt lat="45.999819897115231" lon="7.311517791822553">
        <ele>2843.2399999999998</ele>
        <time>2016-07-07T07:31:01Z</time>
      </trkpt>
      <trkpt lat="45.999883851036429" lon="7.31155819259584">
        <ele>2841.79</ele>
        <time>2016-07-07T07:31:12Z</time>
      </trkpt>
      <trkpt lat="45.999957947060466" lon="7.311602029949427">
        <ele>2840.8299999999999</ele>
        <time>2016-07-07T07:31:23Z</time>
      </trkpt>
      <trkpt lat="46.000029779970646" lon="7.31163346208632">
        <ele>2839.3899999999999</ele>
        <time>2016-07-07T07:31:34Z</time>
      </trkpt>
      <trkpt lat="46.000108988955617" lon="7.311682412400842">
        <ele>2837.9499999999998</ele>
        <time>2016-07-07T07:31:46Z</time>
      </trkpt>
      <trkpt lat="46.000163638964295" lon="7.311718706041575">
        <ele>2836.9899999999998</ele>
        <time>2016-07-07T07:31:57Z</time>
      </trkpt>
      <trkpt lat="46.000177972018719" lon="7.31173605658114">
        <ele>2836.9899999999998</ele>
        <time>2016-07-07T07:32:00Z</time>
      </trkpt>
      <trkpt lat="46.000256342813373" lon="7.311795484274626">
        <ele>2836.9899999999998</ele>
        <time>2016-07-07T07:32:12Z</time>
      </trkpt>
      <trkpt lat="46.000318368896842" lon="7.311817025765777">
        <ele>2835.0599999999999</ele>
        <time>2016-07-07T07:32:20Z</time>
      </trkpt>
      <trkpt lat="46.00039254873991" lon="7.311858264729381">
        <ele>2833.6199999999999</ele>
        <time>2016-07-07T07:32:31Z</time>
      </trkpt>
      <trkpt lat="46.000405624508858" lon="7.311895228922367">
        <ele>2833.1399999999999</ele>
        <time>2016-07-07T07:32:34Z</time>
      </trkpt>
      <trkpt lat="46.00044971331954" lon="7.311984160915017">
        <ele>2833.1399999999999</ele>
        <time>2016-07-07T07:32:42Z</time>
      </trkpt>
      <trkpt lat="46.000460861250758" lon="7.311998661607504">
        <ele>2833.1399999999999</ele>
        <time>2016-07-07T07:32:45Z</time>
      </trkpt>
      <trkpt lat="46.000488270074129" lon="7.312025148421526">
        <ele>2832.6599999999999</ele>
        <time>2016-07-07T07:32:48Z</time>
      </trkpt>
      <trkpt lat="46.000553481280804" lon="7.312085833400488">
        <ele>2832.1799999999998</ele>
        <time>2016-07-07T07:32:57Z</time>
      </trkpt>
      <trkpt lat="46.000570831820369" lon="7.312099747359753">
        <ele>2832.1799999999998</ele>
        <time>2016-07-07T07:32:59Z</time>
      </trkpt>
      <trkpt lat="46.000627661123872" lon="7.312187002971768">
        <ele>2832.1799999999998</ele>
        <time>2016-07-07T07:33:08Z</time>
      </trkpt>
      <trkpt lat="46.000697817653418" lon="7.312274677678943">
        <ele>2832.1799999999998</ele>
        <time>2016-07-07T07:33:18Z</time>
      </trkpt>
      <trkpt lat="46.000759089365602" lon="7.312329495325685">
        <ele>2831.6999999999998</ele>
        <time>2016-07-07T07:33:27Z</time>
      </trkpt>
      <trkpt lat="46.000743834301829" lon="7.312340475618839">
        <ele>2831.2199999999998</ele>
        <time>2016-07-07T07:33:36Z</time>
      </trkpt>
      <trkpt lat="46.000720867887139" lon="7.312336452305317">
        <ele>2831.6999999999998</ele>
        <time>2016-07-07T07:33:47Z</time>
      </trkpt>
      <trkpt lat="46.000712234526873" lon="7.312344163656235">
        <ele>2831.6999999999998</ele>
        <time>2016-07-07T07:34:04Z</time>
      </trkpt>
      <trkpt lat="46.000714330002666" lon="7.312357239425182">
        <ele>2831.6999999999998</ele>
        <time>2016-07-07T07:34:26Z</time>
      </trkpt>
      <trkpt lat="46.000749869272113" lon="7.312375428155065">
        <ele>2831.6999999999998</ele>
        <time>2016-07-07T07:34:39Z</time>
      </trkpt>
      <trkpt lat="46.000787252560258" lon="7.312444830313325">
        <ele>2831.6999999999998</ele>
        <time>2016-07-07T07:34:49Z</time>
      </trkpt>
      <trkpt lat="46.000813068822026" lon="7.312481459230185">
        <ele>2831.6999999999998</ele>
        <time>2016-07-07T07:34:58Z</time>
      </trkpt>
      <trkpt lat="46.000808626413345" lon="7.312491936609149">
        <ele>2831.6999999999998</ele>
        <time>2016-07-07T07:35:09Z</time>
      </trkpt>
      <trkpt lat="46.00081080570817" lon="7.312511131167412">
        <ele>2831.6999999999998</ele>
        <time>2016-07-07T07:35:23Z</time>
      </trkpt>
      <trkpt lat="46.0008196067065" lon="7.312468634918332">
        <ele>2831.6999999999998</ele>
        <time>2016-07-07T07:35:38Z</time>
      </trkpt>
      <trkpt lat="46.000808458775282" lon="7.312440639361739">
        <ele>2831.2199999999998</ele>
        <time>2016-07-07T07:35:51Z</time>
      </trkpt>
      <trkpt lat="46.000804351642728" lon="7.312427563592792">
        <ele>2831.2199999999998</ele>
        <time>2016-07-07T07:36:04Z</time>
      </trkpt>
      <trkpt lat="46.000865455716848" lon="7.312396382912993">
        <ele>2830.2600000000002</ele>
        <time>2016-07-07T07:36:13Z</time>
      </trkpt>
      <trkpt lat="46.000913567841053" lon="7.312389258295298">
        <ele>2829.3000000000002</ele>
        <time>2016-07-07T07:36:25Z</time>
      </trkpt>
      <trkpt lat="46.00100384093821" lon="7.312394957989454">
        <ele>2826.4099999999999</ele>
        <time>2016-07-07T07:36:38Z</time>
      </trkpt>
      <trkpt lat="46.001110626384616" lon="7.312412559986115">
        <ele>2823.5300000000002</ele>
        <time>2016-07-07T07:36:51Z</time>
      </trkpt>
      <trkpt lat="46.00118413567543" lon="7.31241574510932">
        <ele>2820.1599999999999</ele>
        <time>2016-07-07T07:37:01Z</time>
      </trkpt>
      <trkpt lat="46.001267535611987" lon="7.312417170032859">
        <ele>2817.2800000000002</ele>
        <time>2016-07-07T07:37:12Z</time>
      </trkpt>
      <trkpt lat="46.001355210319161" lon="7.312430832535029">
        <ele>2814.4000000000001</ele>
        <time>2016-07-07T07:37:23Z</time>
      </trkpt>
      <trkpt lat="46.001449255272746" lon="7.312447093427181">
        <ele>2811.5100000000002</ele>
        <time>2016-07-07T07:37:35Z</time>
      </trkpt>
      <trkpt lat="46.001517567783594" lon="7.312457403168082">
        <ele>2810.0700000000002</ele>
        <time>2016-07-07T07:37:44Z</time>
      </trkpt>
      <trkpt lat="46.001537768170238" lon="7.312474921345711">
        <ele>2810.0700000000002</ele>
        <time>2016-07-07T07:37:55Z</time>
      </trkpt>
      <trkpt lat="46.001560483127832" lon="7.312476513907313">
        <ele>2809.5900000000001</ele>
        <time>2016-07-07T07:38:07Z</time>
      </trkpt>
      <trkpt lat="46.001603566110134" lon="7.312466204166412">
        <ele>2808.6300000000001</ele>
        <time>2016-07-07T07:38:23Z</time>
      </trkpt>
      <trkpt lat="46.001684451475739" lon="7.31247098185122">
        <ele>2805.75</ele>
        <time>2016-07-07T07:38:35Z</time>
      </trkpt>
      <trkpt lat="46.001715632155538" lon="7.312475759536028">
        <ele>2804.3000000000002</ele>
        <time>2016-07-07T07:38:46Z</time>
      </trkpt>
      <trkpt lat="46.001767851412296" lon="7.312476597726345">
        <ele>2802.3800000000001</ele>
        <time>2016-07-07T07:38:58Z</time>
      </trkpt>
      <trkpt lat="46.001807246357203" lon="7.312476262450218">
        <ele>2800.9400000000001</ele>
        <time>2016-07-07T07:39:10Z</time>
      </trkpt>
      <trkpt lat="46.001846808940172" lon="7.312477268278599">
        <ele>2799.5</ele>
        <time>2016-07-07T07:39:21Z</time>
      </trkpt>
      <trkpt lat="46.001876145601273" lon="7.312489170581102">
        <ele>2798.0500000000002</ele>
        <time>2016-07-07T07:39:31Z</time>
      </trkpt>
      <trkpt lat="46.001896262168884" lon="7.31248808093369">
        <ele>2796.6100000000001</ele>
        <time>2016-07-07T07:39:41Z</time>
      </trkpt>
      <trkpt lat="46.001930627971888" lon="7.31247978284955">
        <ele>2795.1700000000001</ele>
        <time>2016-07-07T07:39:54Z</time>
      </trkpt>
      <trkpt lat="46.001969939097762" lon="7.312492104247212">
        <ele>2793.25</ele>
        <time>2016-07-07T07:40:05Z</time>
      </trkpt>
      <trkpt lat="46.002011764794588" lon="7.312485314905644">
        <ele>2793.25</ele>
        <time>2016-07-07T07:40:15Z</time>
      </trkpt>
      <trkpt lat="46.002049650996923" lon="7.312489086762071">
        <ele>2790.3600000000001</ele>
        <time>2016-07-07T07:40:27Z</time>
      </trkpt>
      <trkpt lat="46.002076305449009" lon="7.312486823648214">
        <ele>2788.9200000000001</ele>
        <time>2016-07-07T07:40:39Z</time>
      </trkpt>
      <trkpt lat="46.002114610746503" lon="7.312493193894625">
        <ele>2787.48</ele>
        <time>2016-07-07T07:40:49Z</time>
      </trkpt>
      <trkpt lat="46.00217504426837" lon="7.312513813376427">
        <ele>2786.04</ele>
        <time>2016-07-07T07:41:04Z</time>
      </trkpt>
      <trkpt lat="46.002224162220955" lon="7.31252177618444">
        <ele>2785.0799999999999</ele>
        <time>2016-07-07T07:41:16Z</time>
      </trkpt>
      <trkpt lat="46.002280572429299" lon="7.312545496970415">
        <ele>2783.6300000000001</ele>
        <time>2016-07-07T07:41:28Z</time>
      </trkpt>
      <trkpt lat="46.00232801400125" lon="7.3125877417624">
        <ele>2782.1900000000001</ele>
        <time>2016-07-07T07:41:38Z</time>
      </trkpt>
      <trkpt lat="46.002362547442317" lon="7.312632836401463">
        <ele>2780.75</ele>
        <time>2016-07-07T07:41:49Z</time>
      </trkpt>
      <trkpt lat="46.002389956265688" lon="7.312660915777087">
        <ele>2779.79</ele>
        <time>2016-07-07T07:42:00Z</time>
      </trkpt>
      <trkpt lat="46.002403870224953" lon="7.312696035951376">
        <ele>2777.8699999999999</ele>
        <time>2016-07-07T07:42:10Z</time>
      </trkpt>
      <trkpt lat="46.002383669838309" lon="7.312752697616816">
        <ele>2776.4200000000001</ele>
        <time>2016-07-07T07:42:19Z</time>
      </trkpt>
      <trkpt lat="46.002384508028626" lon="7.312768455594778">
        <ele>2776.4200000000001</ele>
        <time>2016-07-07T07:42:20Z</time>
      </trkpt>
      <trkpt lat="46.002381825819612" lon="7.312838276848197">
        <ele>2774.02</ele>
        <time>2016-07-07T07:42:24Z</time>
      </trkpt>
      <trkpt lat="46.00239347666502" lon="7.312926119193435">
        <ele>2771.1399999999999</ele>
        <time>2016-07-07T07:42:28Z</time>
      </trkpt>
      <trkpt lat="46.002387693151832" lon="7.312971213832498">
        <ele>2770.1799999999998</ele>
        <time>2016-07-07T07:42:30Z</time>
      </trkpt>
      <trkpt lat="46.002388698980212" lon="7.312994934618473">
        <ele>2769.21</ele>
        <time>2016-07-07T07:42:31Z</time>
      </trkpt>
      <trkpt lat="46.002390878275037" lon="7.313029300421476">
        <ele>2767.77</ele>
        <time>2016-07-07T07:42:34Z</time>
      </trkpt>
      <trkpt lat="46.002379478886724" lon="7.312991749495268">
        <ele>2767.29</ele>
        <time>2016-07-07T07:42:47Z</time>
      </trkpt>
      <trkpt lat="46.00233874283731" lon="7.312972974032164">
        <ele>2767.29</ele>
        <time>2016-07-07T07:43:04Z</time>
      </trkpt>
      <trkpt lat="46.002372689545155" lon="7.313014548271895">
        <ele>2767.29</ele>
        <time>2016-07-07T07:43:18Z</time>
      </trkpt>
      <trkpt lat="46.002395404502749" lon="7.313065258786082">
        <ele>2766.3299999999999</ele>
        <time>2016-07-07T07:43:31Z</time>
      </trkpt>
      <trkpt lat="46.002442175522447" lon="7.313153184950352">
        <ele>2763.9299999999998</ele>
        <time>2016-07-07T07:43:41Z</time>
      </trkpt>
      <trkpt lat="46.002496993169188" lon="7.313225520774722">
        <ele>2761.52</ele>
        <time>2016-07-07T07:43:52Z</time>
      </trkpt>
      <trkpt lat="46.002539740875363" lon="7.313283523544669">
        <ele>2759.1199999999999</ele>
        <time>2016-07-07T07:44:03Z</time>
      </trkpt>
      <trkpt lat="46.00260553881526" lon="7.313352171331644">
        <ele>2756.2399999999998</ele>
        <time>2016-07-07T07:44:15Z</time>
      </trkpt>
      <trkpt lat="46.002667397260666" lon="7.313408832997084">
        <ele>2753.8299999999999</ele>
        <time>2016-07-07T07:44:26Z</time>
      </trkpt>
      <trkpt lat="46.002735542133451" lon="7.313460381701589">
        <ele>2752.3899999999999</ele>
        <time>2016-07-07T07:44:36Z</time>
      </trkpt>
      <trkpt lat="46.002763034775853" lon="7.313518216833472">
        <ele>2750.9499999999998</ele>
        <time>2016-07-07T07:44:46Z</time>
      </trkpt>
      <trkpt lat="46.002747360616922" lon="7.313535818830133">
        <ele>2751.4299999999998</ele>
        <time>2016-07-07T07:44:58Z</time>
      </trkpt>
      <trkpt lat="46.002784073352814" lon="7.313516959547997">
        <ele>2751.4299999999998</ele>
        <time>2016-07-07T07:45:13Z</time>
      </trkpt>
      <trkpt lat="46.002837046980858" lon="7.313570268452168">
        <ele>2749.0300000000002</ele>
        <time>2016-07-07T07:45:24Z</time>
      </trkpt>
      <trkpt lat="46.002904186025262" lon="7.313630618155003">
        <ele>2747.5900000000001</ele>
        <time>2016-07-07T07:45:35Z</time>
      </trkpt>
      <trkpt lat="46.002973504364491" lon="7.31368619017303">
        <ele>2746.1399999999999</ele>
        <time>2016-07-07T07:45:46Z</time>
      </trkpt>
      <trkpt lat="46.003061346709728" lon="7.313752574846149">
        <ele>2744.6999999999998</ele>
        <time>2016-07-07T07:45:57Z</time>
      </trkpt>
      <trkpt lat="46.003105351701379" lon="7.313813008368015">
        <ele>2744.2199999999998</ele>
        <time>2016-07-07T07:46:05Z</time>
      </trkpt>
      <trkpt lat="46.003135442733765" lon="7.313834968954325">
        <ele>2744.2199999999998</ele>
        <time>2016-07-07T07:46:09Z</time>
      </trkpt>
      <trkpt lat="46.003200653940439" lon="7.313908394426107">
        <ele>2743.7399999999998</ele>
        <time>2016-07-07T07:46:20Z</time>
      </trkpt>
      <trkpt lat="46.003254633396864" lon="7.313969498500228">
        <ele>2743.2600000000002</ele>
        <time>2016-07-07T07:46:30Z</time>
      </trkpt>
      <trkpt lat="46.003335937857628" lon="7.31402188539505">
        <ele>2742.3000000000002</ele>
        <time>2016-07-07T07:46:40Z</time>
      </trkpt>
      <trkpt lat="46.003378098830581" lon="7.314054658636451">
        <ele>2741.8200000000002</ele>
        <time>2016-07-07T07:46:46Z</time>
      </trkpt>
      <trkpt lat="46.003455212339759" lon="7.314100340008736">
        <ele>2741.3400000000001</ele>
        <time>2016-07-07T07:46:56Z</time>
      </trkpt>
      <trkpt lat="46.003532912582159" lon="7.314166137948632">
        <ele>2740.8600000000001</ele>
        <time>2016-07-07T07:47:07Z</time>
      </trkpt>
      <trkpt lat="46.003578845411539" lon="7.3142144177109">
        <ele>2740.3800000000001</ele>
        <time>2016-07-07T07:47:15Z</time>
      </trkpt>
      <trkpt lat="46.00359695032239" lon="7.314214501529932">
        <ele>2739.8899999999999</ele>
        <time>2016-07-07T07:47:17Z</time>
      </trkpt>
      <trkpt lat="46.003692504018545" lon="7.314296057447791">
        <ele>2738.4499999999998</ele>
        <time>2016-07-07T07:47:28Z</time>
      </trkpt>
      <trkpt lat="46.003756206482649" lon="7.314353222027421">
        <ele>2738.4499999999998</ele>
        <time>2016-07-07T07:47:38Z</time>
      </trkpt>
      <trkpt lat="46.003770874813199" lon="7.314361771568656">
        <ele>2738.4499999999998</ele>
        <time>2016-07-07T07:47:40Z</time>
      </trkpt>
      <trkpt lat="46.003848491236567" lon="7.314392952248454">
        <ele>2738.9299999999998</ele>
        <time>2016-07-07T07:47:51Z</time>
      </trkpt>
      <trkpt lat="46.00391311571002" lon="7.314418517053127">
        <ele>2738.4499999999998</ele>
        <time>2016-07-07T07:48:01Z</time>
      </trkpt>
      <trkpt lat="46.003959635272622" lon="7.314429916441441">
        <ele>2737.9699999999998</ele>
        <time>2016-07-07T07:48:12Z</time>
      </trkpt>
      <trkpt lat="46.003958377987146" lon="7.314447853714228">
        <ele>2737.9699999999998</ele>
        <time>2016-07-07T07:48:27Z</time>
      </trkpt>
      <trkpt lat="46.003969693556428" lon="7.31442941352725">
        <ele>2737.9699999999998</ele>
        <time>2016-07-07T07:48:41Z</time>
      </trkpt>
      <trkpt lat="46.00397564470768" lon="7.314417511224747">
        <ele>2737.9699999999998</ele>
        <time>2016-07-07T07:48:54Z</time>
      </trkpt>
      <trkpt lat="46.003948152065277" lon="7.314392952248454">
        <ele>2737.9699999999998</ele>
        <time>2016-07-07T07:49:05Z</time>
      </trkpt>
      <trkpt lat="46.003913450986147" lon="7.314391862601042">
        <ele>2737.9699999999998</ele>
        <time>2016-07-07T07:49:25Z</time>
      </trkpt>
      <trkpt lat="46.003927364945412" lon="7.314389264211059">
        <ele>2737.9699999999998</ele>
        <time>2016-07-07T07:49:40Z</time>
      </trkpt>
      <trkpt lat="46.00396147929132" lon="7.314444081857801">
        <ele>2737.9699999999998</ele>
        <time>2016-07-07T07:49:51Z</time>
      </trkpt>
      <trkpt lat="46.004000119864941" lon="7.31446361169219">
        <ele>2737.0100000000002</ele>
        <time>2016-07-07T07:50:02Z</time>
      </trkpt>
      <trkpt lat="46.004026019945741" lon="7.314466796815395">
        <ele>2737.0100000000002</ele>
        <time>2016-07-07T07:50:11Z</time>
      </trkpt>
      <trkpt lat="46.004103636369109" lon="7.314481046050787">
        <ele>2737.0100000000002</ele>
        <time>2016-07-07T07:50:21Z</time>
      </trkpt>
      <trkpt lat="46.004158454015851" lon="7.314500575885177">
        <ele>2735.0900000000001</ele>
        <time>2016-07-07T07:50:30Z</time>
      </trkpt>
      <trkpt lat="46.004226682707667" lon="7.314544916152954">
        <ele>2733.6500000000001</ele>
        <time>2016-07-07T07:50:41Z</time>
      </trkpt>
      <trkpt lat="46.004257192835212" lon="7.314582047984004">
        <ele>2732.6799999999998</ele>
        <time>2016-07-07T07:50:49Z</time>
      </trkpt>
      <trkpt lat="46.004321230575442" lon="7.314651031047106">
        <ele>2730.7600000000002</ele>
        <time>2016-07-07T07:50:59Z</time>
      </trkpt>
      <trkpt lat="46.004379820078611" lon="7.314683385193348">
        <ele>2728.8400000000001</ele>
        <time>2016-07-07T07:51:08Z</time>
      </trkpt>
      <trkpt lat="46.004474451765418" lon="7.314756810665131">
        <ele>2726.9200000000001</ele>
        <time>2016-07-07T07:51:20Z</time>
      </trkpt>
      <trkpt lat="46.004493478685617" lon="7.314770054072142">
        <ele>2726.9200000000001</ele>
        <time>2016-07-07T07:51:22Z</time>
      </trkpt>
      <trkpt lat="46.004573358222842" lon="7.314806682989001">
        <ele>2725.96</ele>
        <time>2016-07-07T07:51:32Z</time>
      </trkpt>
      <trkpt lat="46.004638317972422" lon="7.314808443188667">
        <ele>2725.96</ele>
        <time>2016-07-07T07:51:44Z</time>
      </trkpt>
      <trkpt lat="46.004679137840867" lon="7.314815148711205">
        <ele>2725.96</ele>
        <time>2016-07-07T07:51:53Z</time>
      </trkpt>
      <trkpt lat="46.004700511693954" lon="7.314815651625395">
        <ele>2725.96</ele>
        <time>2016-07-07T07:51:56Z</time>
      </trkpt>
      <trkpt lat="46.004788773134351" lon="7.314819842576981">
        <ele>2725.96</ele>
        <time>2016-07-07T07:52:07Z</time>
      </trkpt>
      <trkpt lat="46.004857840016484" lon="7.314835852012038">
        <ele>2724.9899999999998</ele>
        <time>2016-07-07T07:52:18Z</time>
      </trkpt>
      <trkpt lat="46.004920788109303" lon="7.314866110682488">
        <ele>2724.0300000000002</ele>
        <time>2016-07-07T07:52:28Z</time>
      </trkpt>
      <trkpt lat="46.00492212921381" lon="7.314878264442086">
        <ele>2724.0300000000002</ele>
        <time>2016-07-07T07:52:39Z</time>
      </trkpt>
      <trkpt lat="46.004927828907967" lon="7.314875833690167">
        <ele>2724.0300000000002</ele>
        <time>2016-07-07T07:52:50Z</time>
      </trkpt>
      <trkpt lat="46.004941994324327" lon="7.314907852560282">
        <ele>2724.0300000000002</ele>
        <time>2016-07-07T07:52:58Z</time>
      </trkpt>
      <trkpt lat="46.004960602149367" lon="7.31493609957397">
        <ele>2722.5900000000001</ele>
        <time>2016-07-07T07:53:01Z</time>
      </trkpt>
      <trkpt lat="46.005038637667894" lon="7.315025366842747">
        <ele>2719.23</ele>
        <time>2016-07-07T07:53:12Z</time>
      </trkpt>
      <trkpt lat="46.005055401474237" lon="7.31505872681737">
        <ele>2718.27</ele>
        <time>2016-07-07T07:53:15Z</time>
      </trkpt>
      <trkpt lat="46.005112314596772" lon="7.315048668533564">
        <ele>2716.3400000000001</ele>
        <time>2016-07-07T07:53:25Z</time>
      </trkpt>
      <trkpt lat="46.005204431712627" lon="7.315035928040743">
        <ele>2714.4200000000001</ele>
        <time>2016-07-07T07:53:36Z</time>
      </trkpt>
      <trkpt lat="46.005294788628817" lon="7.315064342692494">
        <ele>2712.02</ele>
        <time>2016-07-07T07:53:48Z</time>
      </trkpt>
      <trkpt lat="46.005362933501601" lon="7.315096193924546">
        <ele>2710.0900000000001</ele>
        <time>2016-07-07T07:53:59Z</time>
      </trkpt>
      <trkpt lat="46.005389671772718" lon="7.315129553899169">
        <ele>2707.6900000000001</ele>
        <time>2016-07-07T07:54:06Z</time>
      </trkpt>
      <trkpt lat="46.005458319559693" lon="7.315132487565279">
        <ele>2705.77</ele>
        <time>2016-07-07T07:54:16Z</time>
      </trkpt>
      <trkpt lat="46.005473658442497" lon="7.315099546685815">
        <ele>2705.29</ele>
        <time>2016-07-07T07:54:27Z</time>
      </trkpt>
      <trkpt lat="46.005464773625135" lon="7.315106587484479">
        <ele>2704.8099999999999</ele>
        <time>2016-07-07T07:54:37Z</time>
      </trkpt>
      <trkpt lat="46.005485560745001" lon="7.315111197531223">
        <ele>2705.29</ele>
        <time>2016-07-07T07:54:50Z</time>
      </trkpt>
      <trkpt lat="46.005482291802764" lon="7.315141288563609">
        <ele>2705.29</ele>
        <time>2016-07-07T07:55:05Z</time>
      </trkpt>
      <trkpt lat="46.005505174398422" lon="7.315119998529553">
        <ele>2705.29</ele>
        <time>2016-07-07T07:55:18Z</time>
      </trkpt>
      <trkpt lat="46.00549872033298" lon="7.315099043771625">
        <ele>2705.29</ele>
        <time>2016-07-07T07:55:33Z</time>
      </trkpt>
      <trkpt lat="46.005515651777387" lon="7.315111197531223">
        <ele>2705.29</ele>
        <time>2016-07-07T07:55:44Z</time>
      </trkpt>
      <trkpt lat="46.005498385056853" lon="7.315132739022374">
        <ele>2704.8099999999999</ele>
        <time>2016-07-07T07:55:56Z</time>
      </trkpt>
      <trkpt lat="46.005463348701596" lon="7.31513449922204">
        <ele>2704.8099999999999</ele>
        <time>2016-07-07T07:56:09Z</time>
      </trkpt>
      <trkpt lat="46.00547332316637" lon="7.315137097612023">
        <ele>2704.8099999999999</ele>
        <time>2016-07-07T07:56:19Z</time>
      </trkpt>
      <trkpt lat="46.005570720881224" lon="7.315158974379301">
        <ele>2701.9200000000001</ele>
        <time>2016-07-07T07:56:30Z</time>
      </trkpt>
      <trkpt lat="46.005630400031805" lon="7.315166937187314">
        <ele>2699.52</ele>
        <time>2016-07-07T07:56:38Z</time>
      </trkpt>
      <trkpt lat="46.005735341459513" lon="7.315186886116862">
        <ele>2697.1199999999999</ele>
        <time>2016-07-07T07:56:49Z</time>
      </trkpt>
      <trkpt lat="46.005800887942314" lon="7.315205410122871">
        <ele>2694.23</ele>
        <time>2016-07-07T07:56:58Z</time>
      </trkpt>
      <trkpt lat="46.005833745002747" lon="7.315165512263775">
        <ele>2692.79</ele>
        <time>2016-07-07T07:57:10Z</time>
      </trkpt>
      <trkpt lat="46.005900297313929" lon="7.315139947459102">
        <ele>2691.3499999999999</ele>
        <time>2016-07-07T07:57:19Z</time>
      </trkpt>
      <trkpt lat="46.005944134667516" lon="7.315094266086817">
        <ele>2689.4299999999998</ele>
        <time>2016-07-07T07:57:30Z</time>
      </trkpt>
      <trkpt lat="46.005982691422105" lon="7.315033916383982">
        <ele>2689.9099999999999</ele>
        <time>2016-07-07T07:57:40Z</time>
      </trkpt>
      <trkpt lat="46.00602594204247" lon="7.315057134255767">
        <ele>2689.9099999999999</ele>
        <time>2016-07-07T07:57:52Z</time>
      </trkpt>
      <trkpt lat="46.006073886528611" lon="7.315063253045082">
        <ele>2687.98</ele>
        <time>2016-07-07T07:58:04Z</time>
      </trkpt>
      <trkpt lat="46.006106408312917" lon="7.315082028508186">
        <ele>2686.54</ele>
        <time>2016-07-07T07:58:15Z</time>
      </trkpt>
      <trkpt lat="46.006161477416754" lon="7.315086890012026">
        <ele>2684.6199999999999</ele>
        <time>2016-07-07T07:58:25Z</time>
      </trkpt>
      <trkpt lat="46.006179079413414" lon="7.315074568614364">
        <ele>2683.1799999999998</ele>
        <time>2016-07-07T07:58:31Z</time>
      </trkpt>
      <trkpt lat="46.006220653653145" lon="7.31510273180902">
        <ele>2680.77</ele>
        <time>2016-07-07T07:58:42Z</time>
      </trkpt>
      <trkpt lat="46.006226018071175" lon="7.315095104277134">
        <ele>2680.29</ele>
        <time>2016-07-07T07:58:43Z</time>
      </trkpt>
      <trkpt lat="46.006313357502222" lon="7.315103737637401">
        <ele>2678.8499999999999</ele>
        <time>2016-07-07T07:58:52Z</time>
      </trkpt>
      <trkpt lat="46.006381921470165" lon="7.315148077905178">
        <ele>2677.4099999999999</ele>
        <time>2016-07-07T07:59:02Z</time>
      </trkpt>
      <trkpt lat="46.006425255909562" lon="7.315095523372293">
        <ele>2676.9299999999998</ele>
        <time>2016-07-07T07:59:11Z</time>
      </trkpt>
      <trkpt lat="46.006366247311234" lon="7.315169116482139">
        <ele>2676.9299999999998</ele>
        <time>2016-07-07T07:59:26Z</time>
      </trkpt>
      <trkpt lat="46.006345124915242" lon="7.315183281898499">
        <ele>2677.4099999999999</ele>
        <time>2016-07-07T07:59:35Z</time>
      </trkpt>
      <trkpt lat="46.006351495161653" lon="7.315164506435394">
        <ele>2676.9299999999998</ele>
        <time>2016-07-07T07:59:45Z</time>
      </trkpt>
      <trkpt lat="46.00634504109621" lon="7.315156627446413">
        <ele>2676.4499999999998</ele>
        <time>2016-07-07T07:59:55Z</time>
      </trkpt>
      <trkpt lat="46.0063645709306" lon="7.315137935802341">
        <ele>2675.9699999999998</ele>
        <time>2016-07-07T08:00:13Z</time>
      </trkpt>
      <trkpt lat="46.006373455747962" lon="7.315167188644409">
        <ele>2676.4499999999998</ele>
        <time>2016-07-07T08:00:31Z</time>
      </trkpt>
      <trkpt lat="46.006357613950968" lon="7.315195268020034">
        <ele>2676.4499999999998</ele>
        <time>2016-07-07T08:00:51Z</time>
      </trkpt>
      <trkpt lat="46.006368258967996" lon="7.315194010734558">
        <ele>2675.9699999999998</ele>
        <time>2016-07-07T08:01:15Z</time>
      </trkpt>
      <trkpt lat="46.006358033046126" lon="7.315140198916197">
        <ele>2675.9699999999998</ele>
        <time>2016-07-07T08:01:28Z</time>
      </trkpt>
      <trkpt lat="46.006371527910233" lon="7.315143467858434">
        <ele>2675.9699999999998</ele>
        <time>2016-07-07T08:01:44Z</time>
      </trkpt>
      <trkpt lat="46.006355853751302" lon="7.315160566940904">
        <ele>2676.9299999999998</ele>
        <time>2016-07-07T08:01:58Z</time>
      </trkpt>
      <trkpt lat="46.006341269239783" lon="7.315197950229049">
        <ele>2676.9299999999998</ele>
        <time>2016-07-07T08:02:08Z</time>
      </trkpt>
      <trkpt lat="46.006343867629766" lon="7.315175151452422">
        <ele>2676.9299999999998</ele>
        <time>2016-07-07T08:02:24Z</time>
      </trkpt>
      <trkpt lat="46.006334060803056" lon="7.315209014341235">
        <ele>2676.4499999999998</ele>
        <time>2016-07-07T08:02:34Z</time>
      </trkpt>
      <trkpt lat="46.006346549838781" lon="7.315201889723539">
        <ele>2676.4499999999998</ele>
        <time>2016-07-07T08:02:52Z</time>
      </trkpt>
      <trkpt lat="46.006343951448798" lon="7.315171211957932">
        <ele>2676.4499999999998</ele>
        <time>2016-07-07T08:03:07Z</time>
      </trkpt>
      <trkpt lat="46.006330708041787" lon="7.315139696002007">
        <ele>2676.9299999999998</ele>
        <time>2016-07-07T08:03:22Z</time>
      </trkpt>
      <trkpt lat="46.006366414949298" lon="7.315140031278133">
        <ele>2676.9299999999998</ele>
        <time>2016-07-07T08:03:35Z</time>
      </trkpt>
      <trkpt lat="46.006397427991033" lon="7.31518286280334">
        <ele>2675.4899999999998</ele>
        <time>2016-07-07T08:03:44Z</time>
      </trkpt>
      <trkpt lat="46.00645836442709" lon="7.315157717093825">
        <ele>2673.5599999999999</ele>
        <time>2016-07-07T08:03:55Z</time>
      </trkpt>
      <trkpt lat="46.006448473781347" lon="7.315139696002007">
        <ele>2672.1199999999999</ele>
        <time>2016-07-07T08:04:08Z</time>
      </trkpt>
      <trkpt lat="46.006476888433099" lon="7.315121004357934">
        <ele>2671.6399999999999</ele>
        <time>2016-07-07T08:04:18Z</time>
      </trkpt>
      <trkpt lat="46.006510248407722" lon="7.315143886953592">
        <ele>2671.6399999999999</ele>
        <time>2016-07-07T08:04:31Z</time>
      </trkpt>
      <trkpt lat="46.006499938666821" lon="7.315104911103845">
        <ele>2671.1599999999999</ele>
        <time>2016-07-07T08:04:46Z</time>
      </trkpt>
      <trkpt lat="46.006477558985353" lon="7.315079597756267">
        <ele>2670.6799999999998</ele>
        <time>2016-07-07T08:04:56Z</time>
      </trkpt>
      <trkpt lat="46.006504129618406" lon="7.315078424289823">
        <ele>2670.1999999999998</ele>
        <time>2016-07-07T08:05:09Z</time>
      </trkpt>
      <trkpt lat="46.006545620039105" lon="7.315075574442744">
        <ele>2670.1999999999998</ele>
        <time>2016-07-07T08:05:23Z</time>
      </trkpt>
      <trkpt lat="46.006615441292524" lon="7.315057218074799">
        <ele>2669.7199999999998</ele>
        <time>2016-07-07T08:05:41Z</time>
      </trkpt>
      <trkpt lat="46.00661133415997" lon="7.315072221681476">
        <ele>2669.7199999999998</ele>
        <time>2016-07-07T08:05:55Z</time>
      </trkpt>
      <trkpt lat="46.006584512069821" lon="7.3150934278965">
        <ele>2669.2399999999998</ele>
        <time>2016-07-07T08:06:10Z</time>
      </trkpt>
      <trkpt lat="46.006577974185348" lon="7.315109772607684">
        <ele>2668.7600000000002</ele>
        <time>2016-07-07T08:06:27Z</time>
      </trkpt>
      <trkpt lat="46.006579315289855" lon="7.315071802586317">
        <ele>2668.2800000000002</ele>
        <time>2016-07-07T08:06:35Z</time>
      </trkpt>
      <trkpt lat="46.006599012762308" lon="7.315099630504847">
        <ele>2667.8000000000002</ele>
        <time>2016-07-07T08:06:47Z</time>
      </trkpt>
      <trkpt lat="46.006585853174329" lon="7.315101055428386">
        <ele>2667.8000000000002</ele>
        <time>2016-07-07T08:06:58Z</time>
      </trkpt>
      <trkpt lat="46.006605802103877" lon="7.315106252208352">
        <ele>2667.3099999999999</ele>
        <time>2016-07-07T08:07:09Z</time>
      </trkpt>
      <trkpt lat="46.0065907984972" lon="7.315106084570289">
        <ele>2666.8299999999999</ele>
        <time>2016-07-07T08:07:21Z</time>
      </trkpt>
      <trkpt lat="46.006616866216063" lon="7.315096696838737">
        <ele>2666.3499999999999</ele>
        <time>2016-07-07T08:07:31Z</time>
      </trkpt>
      <trkpt lat="46.0065614618361" lon="7.315136594697833">
        <ele>2666.3499999999999</ele>
        <time>2016-07-07T08:07:47Z</time>
      </trkpt>
      <trkpt lat="46.006572861224413" lon="7.315134415403009">
        <ele>2665.3899999999999</ele>
        <time>2016-07-07T08:07:57Z</time>
      </trkpt>
      <trkpt lat="46.006569843739271" lon="7.31515746563673">
        <ele>2664.9099999999999</ele>
        <time>2016-07-07T08:08:11Z</time>
      </trkpt>
      <trkpt lat="46.006559617817402" lon="7.315149586647749">
        <ele>2664.9099999999999</ele>
        <time>2016-07-07T08:08:22Z</time>
      </trkpt>
      <trkpt lat="46.006547044962645" lon="7.315151179209352">
        <ele>2664.4299999999998</ele>
        <time>2016-07-07T08:08:38Z</time>
      </trkpt>
      <trkpt lat="46.006560539826751" lon="7.315176827833056">
        <ele>2663.9499999999998</ele>
        <time>2016-07-07T08:08:49Z</time>
      </trkpt>
      <trkpt lat="46.006586523726583" lon="7.315120585262775">
        <ele>2662.9899999999998</ele>
        <time>2016-07-07T08:08:57Z</time>
      </trkpt>
      <trkpt lat="46.006596749648452" lon="7.31511689722538">
        <ele>2662.0300000000002</ele>
        <time>2016-07-07T08:09:10Z</time>
      </trkpt>
      <trkpt lat="46.00660840049386" lon="7.315127039328218">
        <ele>2661.0700000000002</ele>
        <time>2016-07-07T08:09:21Z</time>
      </trkpt>
      <trkpt lat="46.006617369130254" lon="7.315158303827047">
        <ele>2660.1100000000001</ele>
        <time>2016-07-07T08:09:31Z</time>
      </trkpt>
      <trkpt lat="46.006618039682508" lon="7.315142126753926">
        <ele>2660.1100000000001</ele>
        <time>2016-07-07T08:09:45Z</time>
      </trkpt>
      <trkpt lat="46.00664016790688" lon="7.315141372382641">
        <ele>2659.6199999999999</ele>
        <time>2016-07-07T08:09:49Z</time>
      </trkpt>
      <trkpt lat="46.006655003875494" lon="7.315184874460101">
        <ele>2658.1799999999998</ele>
        <time>2016-07-07T08:09:58Z</time>
      </trkpt>
      <trkpt lat="46.006646538153291" lon="7.315183030441403">
        <ele>2658.1799999999998</ele>
        <time>2016-07-07T08:10:12Z</time>
      </trkpt>
      <trkpt lat="46.006652908399701" lon="7.315178588032723">
        <ele>2657.6999999999998</ele>
        <time>2016-07-07T08:10:28Z</time>
      </trkpt>
      <trkpt lat="46.006661793217063" lon="7.315171044319868">
        <ele>2657.6999999999998</ele>
        <time>2016-07-07T08:10:39Z</time>
      </trkpt>
      <trkpt lat="46.006636647507548" lon="7.315152687951922">
        <ele>2658.1799999999998</ele>
        <time>2016-07-07T08:10:54Z</time>
      </trkpt>
      <trkpt lat="46.006629774346948" lon="7.315170038491488">
        <ele>2657.6999999999998</ele>
        <time>2016-07-07T08:11:13Z</time>
      </trkpt>
      <trkpt lat="46.006649052724242" lon="7.315203314647079">
        <ele>2657.2199999999998</ele>
        <time>2016-07-07T08:11:23Z</time>
      </trkpt>
      <trkpt lat="46.006665648892522" lon="7.315210187807679">
        <ele>2656.7399999999998</ele>
        <time>2016-07-07T08:11:32Z</time>
      </trkpt>
      <trkpt lat="46.006656847894192" lon="7.315198285505176">
        <ele>2656.2600000000002</ele>
        <time>2016-07-07T08:11:49Z</time>
      </trkpt>
      <trkpt lat="46.006666989997029" lon="7.315211025997996">
        <ele>2655.3000000000002</ele>
        <time>2016-07-07T08:11:59Z</time>
      </trkpt>
      <trkpt lat="46.006679814308882" lon="7.315212450921536">
        <ele>2654.8200000000002</ele>
        <time>2016-07-07T08:12:09Z</time>
      </trkpt>
      <trkpt lat="46.006655674427748" lon="7.315207337960601">
        <ele>2653.8600000000001</ele>
        <time>2016-07-07T08:12:19Z</time>
      </trkpt>
      <trkpt lat="46.00665383040905" lon="7.315209014341235">
        <ele>2654.3400000000001</ele>
        <time>2016-07-07T08:12:30Z</time>
      </trkpt>
      <trkpt lat="46.006690543144941" lon="7.315229214727879">
        <ele>2652.9000000000001</ele>
        <time>2016-07-07T08:12:40Z</time>
      </trkpt>
      <trkpt lat="46.006689704954624" lon="7.315243799239397">
        <ele>2652.9000000000001</ele>
        <time>2016-07-07T08:12:50Z</time>
      </trkpt>
      <trkpt lat="46.006661709398031" lon="7.315251007676125">
        <ele>2652.9000000000001</ele>
        <time>2016-07-07T08:13:02Z</time>
      </trkpt>
      <trkpt lat="46.006640419363976" lon="7.315242374315858">
        <ele>2652.9000000000001</ele>
        <time>2016-07-07T08:13:21Z</time>
      </trkpt>
      <trkpt lat="46.00665626116097" lon="7.315254360437393">
        <ele>2652.4200000000001</ele>
        <time>2016-07-07T08:13:40Z</time>
      </trkpt>
      <trkpt lat="46.006699511781335" lon="7.315229969099164">
        <ele>2652.4200000000001</ele>
        <time>2016-07-07T08:13:56Z</time>
      </trkpt>
      <trkpt lat="46.006724154576659" lon="7.315223263576627">
        <ele>2652.4200000000001</ele>
        <time>2016-07-07T08:14:10Z</time>
      </trkpt>
      <trkpt lat="46.006706468760967" lon="7.315251342952251">
        <ele>2651.9299999999998</ele>
        <time>2016-07-07T08:14:20Z</time>
      </trkpt>
      <trkpt lat="46.006725244224072" lon="7.31525762937963">
        <ele>2651.4499999999998</ele>
        <time>2016-07-07T08:14:32Z</time>
      </trkpt>
      <trkpt lat="46.006710408255458" lon="7.315260479226708">
        <ele>2650.4899999999998</ele>
        <time>2016-07-07T08:14:41Z</time>
      </trkpt>
      <trkpt lat="46.006747791543603" lon="7.31529233045876">
        <ele>2649.0500000000002</ele>
        <time>2016-07-07T08:14:51Z</time>
      </trkpt>
      <trkpt lat="46.00676036439836" lon="7.315296269953251">
        <ele>2647.6100000000001</ele>
        <time>2016-07-07T08:15:00Z</time>
      </trkpt>
      <trkpt lat="46.006768830120564" lon="7.315331222489476">
        <ele>2646.1700000000001</ele>
        <time>2016-07-07T08:15:16Z</time>
      </trkpt>
      <trkpt lat="46.006837813183665" lon="7.315375730395317">
        <ele>2644.2399999999998</ele>
        <time>2016-07-07T08:15:28Z</time>
      </trkpt>
      <trkpt lat="46.006843093782663" lon="7.315357960760593">
        <ele>2643.2800000000002</ele>
        <time>2016-07-07T08:15:37Z</time>
      </trkpt>
      <trkpt lat="46.006889529526234" lon="7.315405402332544">
        <ele>2641.8400000000001</ele>
        <time>2016-07-07T08:15:51Z</time>
      </trkpt>
      <trkpt lat="46.006909226998687" lon="7.315435409545898">
        <ele>2640.4000000000001</ele>
        <time>2016-07-07T08:16:00Z</time>
      </trkpt>
      <trkpt lat="46.006937306374311" lon="7.315444797277451">
        <ele>2639.9200000000001</ele>
        <time>2016-07-07T08:16:09Z</time>
      </trkpt>
      <trkpt lat="46.00696605630219" lon="7.315491065382958">
        <ele>2638.48</ele>
        <time>2016-07-07T08:16:22Z</time>
      </trkpt>
      <trkpt lat="46.006965972483158" lon="7.315513025969267">
        <ele>2637.5100000000002</ele>
        <time>2016-07-07T08:16:34Z</time>
      </trkpt>
      <trkpt lat="46.006985167041421" lon="7.315541943535209">
        <ele>2636.0700000000002</ele>
        <time>2016-07-07T08:16:42Z</time>
      </trkpt>
      <trkpt lat="46.007023053243756" lon="7.31561285443604">
        <ele>2633.6700000000001</ele>
        <time>2016-07-07T08:16:55Z</time>
      </trkpt>
      <trkpt lat="46.007060436531901" lon="7.31563632376492">
        <ele>2632.23</ele>
        <time>2016-07-07T08:17:08Z</time>
      </trkpt>
      <trkpt lat="46.007074937224388" lon="7.315661888569593">
        <ele>2631.27</ele>
        <time>2016-07-07T08:17:17Z</time>
      </trkpt>
      <trkpt lat="46.007118187844753" lon="7.315702121704817">
        <ele>2629.8200000000002</ele>
        <time>2016-07-07T08:17:28Z</time>
      </trkpt>
      <trkpt lat="46.007153475657105" lon="7.315723830834031">
        <ele>2627.4200000000001</ele>
        <time>2016-07-07T08:17:36Z</time>
      </trkpt>
      <trkpt lat="46.007137047126889" lon="7.315791053697467">
        <ele>2625.5</ele>
        <time>2016-07-07T08:17:45Z</time>
      </trkpt>
      <trkpt lat="46.007123049348593" lon="7.315812343731523">
        <ele>2623.5799999999999</ele>
        <time>2016-07-07T08:17:58Z</time>
      </trkpt>
      <trkpt lat="46.00713218562305" lon="7.31581561267376">
        <ele>2623.5799999999999</ele>
        <time>2016-07-07T08:18:00Z</time>
      </trkpt>
      <trkpt lat="46.007200581952929" lon="7.315841261297464">
        <ele>2621.1700000000001</ele>
        <time>2016-07-07T08:18:12Z</time>
      </trkpt>
      <trkpt lat="46.007218519225717" lon="7.315897084772587">
        <ele>2618.29</ele>
        <time>2016-07-07T08:18:22Z</time>
      </trkpt>
      <trkpt lat="46.007214412093163" lon="7.315906807780266">
        <ele>2618.29</ele>
        <time>2016-07-07T08:18:24Z</time>
      </trkpt>
      <trkpt lat="46.00721332244575" lon="7.315973360091448">
        <ele>2616.3699999999999</ele>
        <time>2016-07-07T08:18:34Z</time>
      </trkpt>
      <trkpt lat="46.007219944149256" lon="7.316024405881763">
        <ele>2614.4400000000001</ele>
        <time>2016-07-07T08:18:44Z</time>
      </trkpt>
      <trkpt lat="46.007260009646416" lon="7.316026752814651">
        <ele>2612.04</ele>
        <time>2016-07-07T08:18:54Z</time>
      </trkpt>
      <trkpt lat="46.007304936647415" lon="7.316045025363565">
        <ele>2609.6399999999999</ele>
        <time>2016-07-07T08:19:06Z</time>
      </trkpt>
      <trkpt lat="46.007298566401005" lon="7.316088527441025">
        <ele>2609.1599999999999</ele>
        <time>2016-07-07T08:19:15Z</time>
      </trkpt>
      <trkpt lat="46.007277192547917" lon="7.316165724769235">
        <ele>2607.23</ele>
        <time>2016-07-07T08:19:25Z</time>
      </trkpt>
      <trkpt lat="46.007259590551257" lon="7.316241580992937">
        <ele>2605.79</ele>
        <time>2016-07-07T08:19:35Z</time>
      </trkpt>
      <trkpt lat="46.007257914170623" lon="7.316257506608963">
        <ele>2605.3099999999999</ele>
        <time>2016-07-07T08:19:37Z</time>
      </trkpt>
      <trkpt lat="46.007242407649755" lon="7.316341158002615">
        <ele>2604.3499999999999</ele>
        <time>2016-07-07T08:19:48Z</time>
      </trkpt>
      <trkpt lat="46.007234696298838" lon="7.316427659243345">
        <ele>2602.4299999999998</ele>
        <time>2016-07-07T08:19:59Z</time>
      </trkpt>
      <trkpt lat="46.0072279907763" lon="7.316420869901776">
        <ele>2601.46</ele>
        <time>2016-07-07T08:20:10Z</time>
      </trkpt>
      <trkpt lat="46.007244754582644" lon="7.316448865458369">
        <ele>2600.98</ele>
        <time>2016-07-07T08:20:20Z</time>
      </trkpt>
      <trkpt lat="46.00729345344007" lon="7.316503934562206">
        <ele>2598.5799999999999</ele>
        <time>2016-07-07T08:20:30Z</time>
      </trkpt>
      <trkpt lat="46.007324550300837" lon="7.316533606499434">
        <ele>2596.6599999999999</ele>
        <time>2016-07-07T08:20:41Z</time>
      </trkpt>
      <trkpt lat="46.007351875305176" lon="7.316551459953189">
        <ele>2594.7399999999998</ele>
        <time>2016-07-07T08:20:53Z</time>
      </trkpt>
      <trkpt lat="46.007396215572953" lon="7.316560093313456">
        <ele>2592.3299999999999</ele>
        <time>2016-07-07T08:21:05Z</time>
      </trkpt>
      <trkpt lat="46.00745614618063" lon="7.316540312021971">
        <ele>2589.9299999999998</ele>
        <time>2016-07-07T08:21:16Z</time>
      </trkpt>
      <trkpt lat="46.007481459528208" lon="7.316583143547177">
        <ele>2588.4899999999998</ele>
        <time>2016-07-07T08:21:23Z</time>
      </trkpt>
      <trkpt lat="46.007453799247742" lon="7.316680541262031">
        <ele>2586.5599999999999</ele>
        <time>2016-07-07T08:21:34Z</time>
      </trkpt>
      <trkpt lat="46.007471736520529" lon="7.316728150472045">
        <ele>2584.6399999999999</ele>
        <time>2016-07-07T08:21:43Z</time>
      </trkpt>
      <trkpt lat="46.007466958835721" lon="7.316762013360858">
        <ele>2583.1999999999998</ele>
        <time>2016-07-07T08:21:53Z</time>
      </trkpt>
      <trkpt lat="46.007463186979294" lon="7.316766791045666">
        <ele>2582.2399999999998</ele>
        <time>2016-07-07T08:22:08Z</time>
      </trkpt>
      <trkpt lat="46.00747131742537" lon="7.31677140109241">
        <ele>2582.2399999999998</ele>
        <time>2016-07-07T08:22:25Z</time>
      </trkpt>
      <trkpt lat="46.007521776482463" lon="7.316789338365197">
        <ele>2580.8000000000002</ele>
        <time>2016-07-07T08:22:34Z</time>
      </trkpt>
      <trkpt lat="46.007554214447737" lon="7.316833510994911">
        <ele>2579.8400000000001</ele>
        <time>2016-07-07T08:22:44Z</time>
      </trkpt>
      <trkpt lat="46.007569972425699" lon="7.316877180710435">
        <ele>2579.3499999999999</ele>
        <time>2016-07-07T08:22:54Z</time>
      </trkpt>
      <trkpt lat="46.007584137842059" lon="7.31693116016686">
        <ele>2577.9099999999999</ele>
        <time>2016-07-07T08:23:04Z</time>
      </trkpt>
      <trkpt lat="46.007604254409671" lon="7.317001651972532">
        <ele>2575.5100000000002</ele>
        <time>2016-07-07T08:23:14Z</time>
      </trkpt>
      <trkpt lat="46.00759788416326" lon="7.317071557044983">
        <ele>2573.5900000000001</ele>
        <time>2016-07-07T08:23:24Z</time>
      </trkpt>
      <trkpt lat="46.007619593292475" lon="7.317127045243979">
        <ele>2571.6599999999999</ele>
        <time>2016-07-07T08:23:35Z</time>
      </trkpt>
      <trkpt lat="46.007614312693477" lon="7.31720139272511">
        <ele>2570.6999999999998</ele>
        <time>2016-07-07T08:23:44Z</time>
      </trkpt>
      <trkpt lat="46.007589166983962" lon="7.317251600325108">
        <ele>2568.7800000000002</ele>
        <time>2016-07-07T08:23:54Z</time>
      </trkpt>
      <trkpt lat="46.0075768455863" lon="7.317287977784872">
        <ele>2567.3400000000001</ele>
        <time>2016-07-07T08:24:04Z</time>
      </trkpt>
      <trkpt lat="46.007570140063763" lon="7.31728982180357">
        <ele>2566.8600000000001</ele>
        <time>2016-07-07T08:24:15Z</time>
      </trkpt>
      <trkpt lat="46.007574331015348" lon="7.317285714671016">
        <ele>2566.8600000000001</ele>
        <time>2016-07-07T08:24:23Z</time>
      </trkpt>
      <trkpt lat="46.007573073729873" lon="7.317278673872352">
        <ele>2566.3800000000001</ele>
        <time>2016-07-07T08:24:36Z</time>
      </trkpt>
      <trkpt lat="46.007570056244731" lon="7.317269034683704">
        <ele>2566.3800000000001</ele>
        <time>2016-07-07T08:24:48Z</time>
      </trkpt>
      <trkpt lat="46.007572235539556" lon="7.317276410758495">
        <ele>2566.8600000000001</ele>
        <time>2016-07-07T08:25:02Z</time>
      </trkpt>
      <trkpt lat="46.007580952718854" lon="7.317283535376191">
        <ele>2566.3800000000001</ele>
        <time>2016-07-07T08:25:22Z</time>
      </trkpt>
      <trkpt lat="46.007572570815682" lon="7.317283200100064">
        <ele>2567.3400000000001</ele>
        <time>2016-07-07T08:25:36Z</time>
      </trkpt>
      <trkpt lat="46.007552705705166" lon="7.317308429628611">
        <ele>2566.3800000000001</ele>
        <time>2016-07-07T08:25:48Z</time>
      </trkpt>
      <trkpt lat="46.00751431658864" lon="7.317339107394218">
        <ele>2565.9000000000001</ele>
        <time>2016-07-07T08:25:58Z</time>
      </trkpt>
      <trkpt lat="46.007495876401663" lon="7.317384285852313">
        <ele>2564.9299999999998</ele>
        <time>2016-07-07T08:26:08Z</time>
      </trkpt>
      <trkpt lat="46.007489589974284" lon="7.317381771281362">
        <ele>2564.4499999999998</ele>
        <time>2016-07-07T08:26:09Z</time>
      </trkpt>
      <trkpt lat="46.007452793419361" lon="7.317371042445302">
        <ele>2563.0100000000002</ele>
        <time>2016-07-07T08:26:19Z</time>
      </trkpt>
      <trkpt lat="46.007460253313184" lon="7.317394092679024">
        <ele>2562.5300000000002</ele>
        <time>2016-07-07T08:26:21Z</time>
      </trkpt>
      <trkpt lat="46.007512472569942" lon="7.317435415461659">
        <ele>2561.0900000000001</ele>
        <time>2016-07-07T08:26:28Z</time>
      </trkpt>
      <trkpt lat="46.007509371265769" lon="7.31749115511775">
        <ele>2558.6900000000001</ele>
        <time>2016-07-07T08:26:38Z</time>
      </trkpt>
      <trkpt lat="46.007465114817023" lon="7.317514372989535">
        <ele>2556.7600000000002</ele>
        <time>2016-07-07T08:26:49Z</time>
      </trkpt>
      <trkpt lat="46.007498558610678" lon="7.317570112645626">
        <ele>2554.3600000000001</ele>
        <time>2016-07-07T08:26:59Z</time>
      </trkpt>
      <trkpt lat="46.007484225556254" lon="7.317645465955138">
        <ele>2552.4400000000001</ele>
        <time>2016-07-07T08:27:09Z</time>
      </trkpt>
      <trkpt lat="46.007465869188309" lon="7.317688800394535">
        <ele>2551.96</ele>
        <time>2016-07-07T08:27:17Z</time>
      </trkpt>
      <trkpt lat="46.00748598575592" lon="7.317744959145784">
        <ele>2550.0300000000002</ele>
        <time>2016-07-07T08:27:27Z</time>
      </trkpt>
      <trkpt lat="46.00745664909482" lon="7.317761220037937">
        <ele>2549.5500000000002</ele>
        <time>2016-07-07T08:27:31Z</time>
      </trkpt>
      <trkpt lat="46.007416499778628" lon="7.317761052399874">
        <ele>2549.5500000000002</ele>
        <time>2016-07-07T08:27:36Z</time>
      </trkpt>
      <trkpt lat="46.007358832284808" lon="7.317789886146784">
        <ele>2548.5900000000001</ele>
        <time>2016-07-07T08:27:45Z</time>
      </trkpt>
      <trkpt lat="46.00731834769249" lon="7.317741019651294">
        <ele>2547.6300000000001</ele>
        <time>2016-07-07T08:27:55Z</time>
      </trkpt>
      <trkpt lat="46.007304517552257" lon="7.317754598334432">
        <ele>2546.1900000000001</ele>
        <time>2016-07-07T08:28:05Z</time>
      </trkpt>
      <trkpt lat="46.007302841171622" lon="7.317758202552795">
        <ele>2545.71</ele>
        <time>2016-07-07T08:28:13Z</time>
      </trkpt>
      <trkpt lat="46.007278868928552" lon="7.317782510071993">
        <ele>2544.27</ele>
        <time>2016-07-07T08:28:16Z</time>
      </trkpt>
      <trkpt lat="46.007275264710188" lon="7.31778921559453">
        <ele>2544.27</ele>
        <time>2016-07-07T08:28:23Z</time>
      </trkpt>
      <trkpt lat="46.007310887798667" lon="7.31774965301156">
        <ele>2545.23</ele>
        <time>2016-07-07T08:28:36Z</time>
      </trkpt>
      <trkpt lat="46.007302589714527" lon="7.317750994116068">
        <ele>2544.27</ele>
        <time>2016-07-07T08:28:47Z</time>
      </trkpt>
      <trkpt lat="46.007251963019371" lon="7.317787455394864">
        <ele>2543.79</ele>
        <time>2016-07-07T08:29:00Z</time>
      </trkpt>
      <trkpt lat="46.007189601659775" lon="7.317850738763809">
        <ele>2542.3400000000001</ele>
        <time>2016-07-07T08:29:08Z</time>
      </trkpt>
      <trkpt lat="46.00717811845243" lon="7.317872615531087">
        <ele>2541.8600000000001</ele>
        <time>2016-07-07T08:29:10Z</time>
      </trkpt>
      <trkpt lat="46.007132353261113" lon="7.317968253046274">
        <ele>2541.3800000000001</ele>
        <time>2016-07-07T08:29:20Z</time>
      </trkpt>
      <trkpt lat="46.007127910852432" lon="7.318015107885003">
        <ele>2542.3400000000001</ele>
        <time>2016-07-07T08:29:30Z</time>
      </trkpt>
      <trkpt lat="46.00712338462472" lon="7.318097921088338">
        <ele>2543.3099999999999</ele>
        <time>2016-07-07T08:29:38Z</time>
      </trkpt>
      <trkpt lat="46.007108297199011" lon="7.318166485056281">
        <ele>2544.27</ele>
        <time>2016-07-07T08:29:45Z</time>
      </trkpt>
      <trkpt lat="46.007097316905856" lon="7.318213423714042">
        <ele>2544.27</ele>
        <time>2016-07-07T08:29:51Z</time>
      </trkpt>
      <trkpt lat="46.007097316905856" lon="7.318235551938415">
        <ele>2544.27</ele>
        <time>2016-07-07T08:29:53Z</time>
      </trkpt>
      <trkpt lat="46.007096730172634" lon="7.318259943276644">
        <ele>2544.27</ele>
        <time>2016-07-07T08:29:56Z</time>
      </trkpt>
      <trkpt lat="46.007108548656106" lon="7.318290872499347">
        <ele>2544.27</ele>
        <time>2016-07-07T08:30:06Z</time>
      </trkpt>
      <trkpt lat="46.007136544212699" lon="7.318293722346425">
        <ele>2545.23</ele>
        <time>2016-07-07T08:30:16Z</time>
      </trkpt>
      <trkpt lat="46.007134616374969" lon="7.318296236917377">
        <ele>2545.23</ele>
        <time>2016-07-07T08:30:27Z</time>
      </trkpt>
      <trkpt lat="46.007156409323215" lon="7.318286010995507">
        <ele>2544.27</ele>
        <time>2016-07-07T08:30:36Z</time>
      </trkpt>
      <trkpt lat="46.007143165916204" lon="7.318266313523054">
        <ele>2544.27</ele>
        <time>2016-07-07T08:31:00Z</time>
      </trkpt>
      <trkpt lat="46.00711802020669" lon="7.31828760355711">
        <ele>2544.27</ele>
        <time>2016-07-07T08:31:14Z</time>
      </trkpt>
      <trkpt lat="46.007129922509193" lon="7.318289028480649">
        <ele>2544.27</ele>
        <time>2016-07-07T08:31:40Z</time>
      </trkpt>
      <trkpt lat="46.007146434858441" lon="7.318285256624222">
        <ele>2544.27</ele>
        <time>2016-07-07T08:31:52Z</time>
      </trkpt>
      <trkpt lat="46.007127240300179" lon="7.318279556930065">
        <ele>2544.27</ele>
        <time>2016-07-07T08:32:30Z</time>
      </trkpt>
      <trkpt lat="46.007136628031731" lon="7.318290704861283">
        <ele>2544.27</ele>
        <time>2016-07-07T08:33:05Z</time>
      </trkpt>
      <trkpt lat="46.007148697972298" lon="7.318294560536742">
        <ele>2544.27</ele>
        <time>2016-07-07T08:33:47Z</time>
      </trkpt>
      <trkpt lat="46.007121792063117" lon="7.318297242745757">
        <ele>2544.27</ele>
        <time>2016-07-07T08:34:18Z</time>
      </trkpt>
      <trkpt lat="46.007145512849092" lon="7.318313922733069">
        <ele>2544.27</ele>
        <time>2016-07-07T08:34:43Z</time>
      </trkpt>
      <trkpt lat="46.007131682708859" lon="7.318306798115373">
        <ele>2544.27</ele>
        <time>2016-07-07T08:35:14Z</time>
      </trkpt>
      <trkpt lat="46.007148362696171" lon="7.318307384848595">
        <ele>2544.75</ele>
        <time>2016-07-07T08:35:50Z</time>
      </trkpt>
      <trkpt lat="46.007159175351262" lon="7.31829883530736">
        <ele>2544.27</ele>
        <time>2016-07-07T08:36:22Z</time>
      </trkpt>
      <trkpt lat="46.007154816761613" lon="7.318300176411867">
        <ele>2544.27</ele>
        <time>2016-07-07T08:36:53Z</time>
      </trkpt>
      <trkpt lat="46.007142746821046" lon="7.318314174190164">
        <ele>2541.3800000000001</ele>
        <time>2016-07-07T08:37:00Z</time>
      </trkpt>
      <trkpt lat="46.007139226421714" lon="7.318310402333736">
        <ele>2545.23</ele>
        <time>2016-07-07T08:37:05Z</time>
      </trkpt>
      <trkpt lat="46.007140735164285" lon="7.318308390676975">
        <ele>2544.75</ele>
        <time>2016-07-07T08:37:06Z</time>
      </trkpt>
      <trkpt lat="46.007154732942581" lon="7.318298248574138">
        <ele>2545.23</ele>
        <time>2016-07-07T08:37:18Z</time>
      </trkpt>
      <trkpt lat="46.007155571132898" lon="7.318296320736408">
        <ele>2545.23</ele>
        <time>2016-07-07T08:37:26Z</time>
      </trkpt>
      <trkpt lat="46.00711558945477" lon="7.318326998502016">
        <ele>2544.75</ele>
        <time>2016-07-07T08:37:38Z</time>
      </trkpt>
      <trkpt lat="46.007098825648427" lon="7.318305373191834">
        <ele>2544.75</ele>
        <time>2016-07-07T08:37:56Z</time>
      </trkpt>
      <trkpt lat="46.007076194509864" lon="7.318308558315039">
        <ele>2543.79</ele>
        <time>2016-07-07T08:38:10Z</time>
      </trkpt>
      <trkpt lat="46.00702959112823" lon="7.318302523344755">
        <ele>2542.8200000000002</ele>
        <time>2016-07-07T08:38:21Z</time>
      </trkpt>
      <trkpt lat="46.006983490660787" lon="7.318287771195173">
        <ele>2540.9000000000001</ele>
        <time>2016-07-07T08:38:31Z</time>
      </trkpt>
      <trkpt lat="46.006982401013374" lon="7.318339487537742">
        <ele>2539.9400000000001</ele>
        <time>2016-07-07T08:38:39Z</time>
      </trkpt>
      <trkpt lat="46.00696949288249" lon="7.318405034020543">
        <ele>2538.02</ele>
        <time>2016-07-07T08:38:46Z</time>
      </trkpt>
      <trkpt lat="46.006988100707531" lon="7.31845666654408">
        <ele>2537.54</ele>
        <time>2016-07-07T08:38:55Z</time>
      </trkpt>
      <trkpt lat="46.007014755159616" lon="7.318528750911355">
        <ele>2535.1300000000001</ele>
        <time>2016-07-07T08:39:06Z</time>
      </trkpt>
      <trkpt lat="46.006995895877481" lon="7.318581724539399">
        <ele>2532.73</ele>
        <time>2016-07-07T08:39:16Z</time>
      </trkpt>
      <trkpt lat="46.006978377699852" lon="7.318671997636557">
        <ele>2532.25</ele>
        <time>2016-07-07T08:39:27Z</time>
      </trkpt>
      <trkpt lat="46.006988100707531" lon="7.318745506927371">
        <ele>2532.73</ele>
        <time>2016-07-07T08:39:36Z</time>
      </trkpt>
      <trkpt lat="46.006974019110203" lon="7.31878649443388">
        <ele>2532.73</ele>
        <time>2016-07-07T08:39:40Z</time>
      </trkpt>
      <trkpt lat="46.006933283060789" lon="7.31889353133738">
        <ele>2533.21</ele>
        <time>2016-07-07T08:39:51Z</time>
      </trkpt>
      <trkpt lat="46.00688693113625" lon="7.318973075598478">
        <ele>2531.29</ele>
        <time>2016-07-07T08:40:03Z</time>
      </trkpt>
      <trkpt lat="46.006839238107204" lon="7.319007106125355">
        <ele>2530.3299999999999</ele>
        <time>2016-07-07T08:40:12Z</time>
      </trkpt>
      <trkpt lat="46.006774697452784" lon="7.319013895466924">
        <ele>2529.3699999999999</ele>
        <time>2016-07-07T08:40:23Z</time>
      </trkpt>
      <trkpt lat="46.00675692781806" lon="7.319045411422849">
        <ele>2528.4000000000001</ele>
        <time>2016-07-07T08:40:31Z</time>
      </trkpt>
      <trkpt lat="46.006748043000698" lon="7.319101318717003">
        <ele>2527.9200000000001</ele>
        <time>2016-07-07T08:40:37Z</time>
      </trkpt>
      <trkpt lat="46.006760532036424" lon="7.319235429167748">
        <ele>2527.9200000000001</ele>
        <time>2016-07-07T08:40:48Z</time>
      </trkpt>
      <trkpt lat="46.006745528429747" lon="7.319331485778093">
        <ele>2527.9200000000001</ele>
        <time>2016-07-07T08:40:58Z</time>
      </trkpt>
      <trkpt lat="46.006776709109545" lon="7.319363756105304">
        <ele>2526.48</ele>
        <time>2016-07-07T08:41:07Z</time>
      </trkpt>
      <trkpt lat="46.006793640553951" lon="7.319375742226839">
        <ele>2525.52</ele>
        <time>2016-07-07T08:41:13Z</time>
      </trkpt>
      <trkpt lat="46.006810152903199" lon="7.319402312859893">
        <ele>2525.04</ele>
        <time>2016-07-07T08:41:16Z</time>
      </trkpt>
      <trkpt lat="46.006812751293182" lon="7.319496609270573">
        <ele>2523.5999999999999</ele>
        <time>2016-07-07T08:41:25Z</time>
      </trkpt>
      <trkpt lat="46.006828090175986" lon="7.319551594555378">
        <ele>2521.6799999999998</ele>
        <time>2016-07-07T08:41:36Z</time>
      </trkpt>
      <trkpt lat="46.0068170260638" lon="7.319636922329664">
        <ele>2520.23</ele>
        <time>2016-07-07T08:41:46Z</time>
      </trkpt>
      <trkpt lat="46.006792383268476" lon="7.319723255932331">
        <ele>2520.23</ele>
        <time>2016-07-07T08:41:56Z</time>
      </trkpt>
      <trkpt lat="46.006781319156289" lon="7.319791903719306">
        <ele>2518.3099999999999</ele>
        <time>2016-07-07T08:42:06Z</time>
      </trkpt>
      <trkpt lat="46.006768411025405" lon="7.319838674739003">
        <ele>2517.8299999999999</ele>
        <time>2016-07-07T08:42:16Z</time>
      </trkpt>
      <trkpt lat="46.006739409640431" lon="7.319893157109618">
        <ele>2515.4299999999998</ele>
        <time>2016-07-07T08:42:28Z</time>
      </trkpt>
      <trkpt lat="46.006726669147611" lon="7.31993573717773">
        <ele>2514.9499999999998</ele>
        <time>2016-07-07T08:42:38Z</time>
      </trkpt>
      <trkpt lat="46.006709318608046" lon="7.320008324459195">
        <ele>2514.4699999999998</ele>
        <time>2016-07-07T08:42:55Z</time>
      </trkpt>
      <trkpt lat="46.006679311394691" lon="7.320076888427138">
        <ele>2513.02</ele>
        <time>2016-07-07T08:43:04Z</time>
      </trkpt>
      <trkpt lat="46.006676210090518" lon="7.320095915347338">
        <ele>2512.0599999999999</ele>
        <time>2016-07-07T08:43:11Z</time>
      </trkpt>
      <trkpt lat="46.006669253110886" lon="7.320138411596417">
        <ele>2510.1399999999999</ele>
        <time>2016-07-07T08:43:21Z</time>
      </trkpt>
      <trkpt lat="46.006661122664809" lon="7.320159114897251">
        <ele>2509.1799999999998</ele>
        <time>2016-07-07T08:43:30Z</time>
      </trkpt>
      <trkpt lat="46.006657853722572" lon="7.320230696350336">
        <ele>2507.2600000000002</ele>
        <time>2016-07-07T08:43:39Z</time>
      </trkpt>
      <trkpt lat="46.006663804873824" lon="7.320296494290233">
        <ele>2505.3299999999999</ele>
        <time>2016-07-07T08:43:48Z</time>
      </trkpt>
      <trkpt lat="46.006640838459134" lon="7.320382660254836">
        <ele>2503.4099999999999</ele>
        <time>2016-07-07T08:44:00Z</time>
      </trkpt>
      <trkpt lat="46.006621392443776" lon="7.320422390475869">
        <ele>2502.4499999999998</ele>
        <time>2016-07-07T08:44:10Z</time>
      </trkpt>
      <trkpt lat="46.006615106016397" lon="7.320430688560009">
        <ele>2502.4499999999998</ele>
        <time>2016-07-07T08:44:11Z</time>
      </trkpt>
      <trkpt lat="46.00657562725246" lon="7.320520710200071">
        <ele>2502.4499999999998</ele>
        <time>2016-07-07T08:44:21Z</time>
      </trkpt>
      <trkpt lat="46.006574872881174" lon="7.320532025769353">
        <ele>2502.4499999999998</ele>
        <time>2016-07-07T08:44:22Z</time>
      </trkpt>
      <trkpt lat="46.006561210379004" lon="7.320644091814756">
        <ele>2501.9699999999998</ele>
        <time>2016-07-07T08:44:32Z</time>
      </trkpt>
      <trkpt lat="46.006552912294865" lon="7.320666639134288">
        <ele>2501.9699999999998</ele>
        <time>2016-07-07T08:44:35Z</time>
      </trkpt>
      <trkpt lat="46.006520725786686" lon="7.320769652724266">
        <ele>2501.4899999999998</ele>
        <time>2016-07-07T08:44:46Z</time>
      </trkpt>
      <trkpt lat="46.006477475166321" lon="7.320832349359989">
        <ele>2501.0100000000002</ele>
        <time>2016-07-07T08:44:55Z</time>
      </trkpt>
      <trkpt lat="46.006445540115237" lon="7.320851543918252">
        <ele>2500.0500000000002</ele>
        <time>2016-07-07T08:45:00Z</time>
      </trkpt>
      <trkpt lat="46.00636649876833" lon="7.320818267762661">
        <ele>2498.5999999999999</ele>
        <time>2016-07-07T08:45:12Z</time>
      </trkpt>
      <trkpt lat="46.006353674456477" lon="7.320836959406734">
        <ele>2498.5999999999999</ele>
        <time>2016-07-07T08:45:15Z</time>
      </trkpt>
      <trkpt lat="46.006321236491203" lon="7.320870067924261">
        <ele>2498.1199999999999</ele>
        <time>2016-07-07T08:45:23Z</time>
      </trkpt>
      <trkpt lat="46.006292067468166" lon="7.32092178426683">
        <ele>2498.1199999999999</ele>
        <time>2016-07-07T08:45:33Z</time>
      </trkpt>
      <trkpt lat="46.006259880959988" lon="7.320970231667161">
        <ele>2498.1199999999999</ele>
        <time>2016-07-07T08:45:40Z</time>
      </trkpt>
      <trkpt lat="46.006240854039788" lon="7.321057235822082">
        <ele>2497.1599999999999</ele>
        <time>2016-07-07T08:45:50Z</time>
      </trkpt>
      <trkpt lat="46.006240518763661" lon="7.321066539734602">
        <ele>2497.1599999999999</ele>
        <time>2016-07-07T08:45:51Z</time>
      </trkpt>
      <trkpt lat="46.006216881796718" lon="7.321157231926918">
        <ele>2496.1999999999998</ele>
        <time>2016-07-07T08:46:01Z</time>
      </trkpt>
      <trkpt lat="46.006202297285199" lon="7.321173157542944">
        <ele>2496.1999999999998</ele>
        <time>2016-07-07T08:46:09Z</time>
      </trkpt>
      <trkpt lat="46.006192490458488" lon="7.321208026260138">
        <ele>2495.7199999999998</ele>
        <time>2016-07-07T08:46:18Z</time>
      </trkpt>
      <trkpt lat="46.006210260093212" lon="7.321238704025745">
        <ele>2492.3600000000001</ele>
        <time>2016-07-07T08:46:26Z</time>
      </trkpt>
      <trkpt lat="46.006191400811076" lon="7.321324618533254">
        <ele>2490.9099999999999</ele>
        <time>2016-07-07T08:46:36Z</time>
      </trkpt>
      <trkpt lat="46.006211936473846" lon="7.321342220529914">
        <ele>2488.5100000000002</ele>
        <time>2016-07-07T08:46:46Z</time>
      </trkpt>
      <trkpt lat="46.006223000586033" lon="7.32140701264143">
        <ele>2486.5900000000001</ele>
        <time>2016-07-07T08:46:54Z</time>
      </trkpt>
      <trkpt lat="46.006197687238455" lon="7.321416484192014">
        <ele>2486.1100000000001</ele>
        <time>2016-07-07T08:46:57Z</time>
      </trkpt>
      <trkpt lat="46.00611780770123" lon="7.321398798376322">
        <ele>2484.6599999999999</ele>
        <time>2016-07-07T08:47:07Z</time>
      </trkpt>
      <trkpt lat="46.006103055551648" lon="7.32145638205111">
        <ele>2483.6999999999998</ele>
        <time>2016-07-07T08:47:16Z</time>
      </trkpt>
      <trkpt lat="46.006135493516922" lon="7.321478174999356">
        <ele>2480.8200000000002</ele>
        <time>2016-07-07T08:47:26Z</time>
      </trkpt>
      <trkpt lat="46.006107246503234" lon="7.321512121707201">
        <ele>2480.3400000000001</ele>
        <time>2016-07-07T08:47:30Z</time>
      </trkpt>
      <trkpt lat="46.006051674485207" lon="7.32157121412456">
        <ele>2478.4200000000001</ele>
        <time>2016-07-07T08:47:40Z</time>
      </trkpt>
      <trkpt lat="46.006015380844474" lon="7.32160834595561">
        <ele>2476.9699999999998</ele>
        <time>2016-07-07T08:47:51Z</time>
      </trkpt>
      <trkpt lat="46.005972633138299" lon="7.321683028712869">
        <ele>2476.4899999999998</ele>
        <time>2016-07-07T08:48:01Z</time>
      </trkpt>
      <trkpt lat="46.00593751296401" lon="7.32175444252789">
        <ele>2476.0100000000002</ele>
        <time>2016-07-07T08:48:12Z</time>
      </trkpt>
      <trkpt lat="46.005913624539971" lon="7.321820743381977">
        <ele>2476.0100000000002</ele>
        <time>2016-07-07T08:48:21Z</time>
      </trkpt>
      <trkpt lat="46.005879761651158" lon="7.321881931275129">
        <ele>2475.0500000000002</ele>
        <time>2016-07-07T08:48:29Z</time>
      </trkpt>
      <trkpt lat="46.005862830206752" lon="7.321934569627047">
        <ele>2474.0900000000001</ele>
        <time>2016-07-07T08:48:40Z</time>
      </trkpt>
      <trkpt lat="46.005844976752996" lon="7.322000619024038">
        <ele>2474.0900000000001</ele>
        <time>2016-07-07T08:48:51Z</time>
      </trkpt>
      <trkpt lat="46.005836259573698" lon="7.322041941806674">
        <ele>2473.6100000000001</ele>
        <time>2016-07-07T08:48:59Z</time>
      </trkpt>
      <trkpt lat="46.005820669233799" lon="7.322063399478793">
        <ele>2473.6100000000001</ele>
        <time>2016-07-07T08:49:13Z</time>
      </trkpt>
      <trkpt lat="46.005762415006757" lon="7.322143781930208">
        <ele>2473.1300000000001</ele>
        <time>2016-07-07T08:49:24Z</time>
      </trkpt>
      <trkpt lat="46.005751099437475" lon="7.32221226207912">
        <ele>2472.6500000000001</ele>
        <time>2016-07-07T08:49:34Z</time>
      </trkpt>
      <trkpt lat="46.005755458027124" lon="7.322201365604997">
        <ele>2472.1700000000001</ele>
        <time>2016-07-07T08:49:46Z</time>
      </trkpt>
      <trkpt lat="46.005776161327958" lon="7.322212932631373">
        <ele>2472.6500000000001</ele>
        <time>2016-07-07T08:49:58Z</time>
      </trkpt>
      <trkpt lat="46.005783034488559" lon="7.322204802185297">
        <ele>2472.1700000000001</ele>
        <time>2016-07-07T08:50:13Z</time>
      </trkpt>
      <trkpt lat="46.005764007568359" lon="7.322206562384963">
        <ele>2472.1700000000001</ele>
        <time>2016-07-07T08:50:30Z</time>
      </trkpt>
      <trkpt lat="46.005794601514935" lon="7.322181416675448">
        <ele>2472.1700000000001</ele>
        <time>2016-07-07T08:50:50Z</time>
      </trkpt>
      <trkpt lat="46.005806755274534" lon="7.322172448039055">
        <ele>2472.1700000000001</ele>
        <time>2016-07-07T08:51:08Z</time>
      </trkpt>
      <trkpt lat="46.005793595686555" lon="7.322214189916849">
        <ele>2472.1700000000001</ele>
        <time>2016-07-07T08:51:23Z</time>
      </trkpt>
      <trkpt lat="46.005759229883552" lon="7.322264648973942">
        <ele>2471.6900000000001</ele>
        <time>2016-07-07T08:51:32Z</time>
      </trkpt>
      <trkpt lat="46.005747076123953" lon="7.322377385571599">
        <ele>2471.21</ele>
        <time>2016-07-07T08:51:43Z</time>
      </trkpt>
      <trkpt lat="46.005720337852836" lon="7.322493307292461">
        <ele>2469.7600000000002</ele>
        <time>2016-07-07T08:51:54Z</time>
      </trkpt>
      <trkpt lat="46.005665101110935" lon="7.322540413588285">
        <ele>2468.8000000000002</ele>
        <time>2016-07-07T08:52:03Z</time>
      </trkpt>
      <trkpt lat="46.005628975108266" lon="7.322551226243377">
        <ele>2467.8400000000001</ele>
        <time>2016-07-07T08:52:07Z</time>
      </trkpt>
      <trkpt lat="46.005554795265198" lon="7.322612581774592">
        <ele>2466.8800000000001</ele>
        <time>2016-07-07T08:52:22Z</time>
      </trkpt>
      <trkpt lat="46.005535516887903" lon="7.322642086073756">
        <ele>2464.96</ele>
        <time>2016-07-07T08:52:32Z</time>
      </trkpt>
      <trkpt lat="46.005510706454515" lon="7.322690365836024">
        <ele>2463.04</ele>
        <time>2016-07-07T08:52:42Z</time>
      </trkpt>
      <trkpt lat="46.005596285685897" lon="7.322723977267742">
        <ele>2459.6700000000001</ele>
        <time>2016-07-07T08:52:55Z</time>
      </trkpt>
      <trkpt lat="46.005629980936646" lon="7.322729760780931">
        <ele>2458.71</ele>
        <time>2016-07-07T08:53:00Z</time>
      </trkpt>
      <trkpt lat="46.005712542682886" lon="7.322724144905806">
        <ele>2455.8200000000002</ele>
        <time>2016-07-07T08:53:11Z</time>
      </trkpt>
      <trkpt lat="46.00571664981544" lon="7.322782902047038">
        <ele>2453.9000000000001</ele>
        <time>2016-07-07T08:53:19Z</time>
      </trkpt>
      <trkpt lat="46.00566191598773" lon="7.322878623381257">
        <ele>2452.46</ele>
        <time>2016-07-07T08:53:27Z</time>
      </trkpt>
      <trkpt lat="46.005617575719953" lon="7.322971243411303">
        <ele>2451.02</ele>
        <time>2016-07-07T08:53:36Z</time>
      </trkpt>
      <trkpt lat="46.005557728931308" lon="7.323017846792936">
        <ele>2448.6199999999999</ele>
        <time>2016-07-07T08:53:46Z</time>
      </trkpt>
      <trkpt lat="46.005517076700926" lon="7.323065539821982">
        <ele>2447.6500000000001</ele>
        <time>2016-07-07T08:53:57Z</time>
      </trkpt>
      <trkpt lat="46.005497546866536" lon="7.323137624189258">
        <ele>2445.25</ele>
        <time>2016-07-07T08:54:07Z</time>
      </trkpt>
      <trkpt lat="46.005518836900592" lon="7.32315631583333">
        <ele>2444.77</ele>
        <time>2016-07-07T08:54:10Z</time>
      </trkpt>
      <trkpt lat="46.005627634003758" lon="7.323145503178239">
        <ele>2442.8499999999999</ele>
        <time>2016-07-07T08:54:22Z</time>
      </trkpt>
      <trkpt lat="46.005606008693576" lon="7.323215324431658">
        <ele>2441.8899999999999</ele>
        <time>2016-07-07T08:54:32Z</time>
      </trkpt>
      <trkpt lat="46.005527805536985" lon="7.323303669691086">
        <ele>2439.48</ele>
        <time>2016-07-07T08:54:44Z</time>
      </trkpt>
      <trkpt lat="46.00545572116971" lon="7.32329998165369">
        <ele>2437.0799999999999</ele>
        <time>2016-07-07T08:54:55Z</time>
      </trkpt>
      <trkpt lat="46.005441388115287" lon="7.323282212018967">
        <ele>2437.0799999999999</ele>
        <time>2016-07-07T08:54:57Z</time>
      </trkpt>
      <trkpt lat="46.005406184121966" lon="7.32323301024735">
        <ele>2436.5999999999999</ele>
        <time>2016-07-07T08:55:02Z</time>
      </trkpt>
      <trkpt lat="46.005349773913622" lon="7.323222784325481">
        <ele>2437.0799999999999</ele>
        <time>2016-07-07T08:55:08Z</time>
      </trkpt>
      <trkpt lat="46.005276767536998" lon="7.323259329423308">
        <ele>2436.5999999999999</ele>
        <time>2016-07-07T08:55:18Z</time>
      </trkpt>
      <trkpt lat="46.005258746445179" lon="7.323263436555862">
        <ele>2436.5999999999999</ele>
        <time>2016-07-07T08:55:21Z</time>
      </trkpt>
      <trkpt lat="46.005232930183411" lon="7.323304507881403">
        <ele>2436.5999999999999</ele>
        <time>2016-07-07T08:55:26Z</time>
      </trkpt>
      <trkpt lat="46.005197307094932" lon="7.323359493166208">
        <ele>2436.1199999999999</ele>
        <time>2016-07-07T08:55:31Z</time>
      </trkpt>
      <trkpt lat="46.005179788917303" lon="7.323395116254687">
        <ele>2436.1199999999999</ele>
        <time>2016-07-07T08:55:35Z</time>
      </trkpt>
      <trkpt lat="46.005138298496604" lon="7.323487233370543">
        <ele>2433.71</ele>
        <time>2016-07-07T08:55:45Z</time>
      </trkpt>
      <trkpt lat="46.005126060917974" lon="7.323515228927136">
        <ele>2432.75</ele>
        <time>2016-07-07T08:55:48Z</time>
      </trkpt>
      <trkpt lat="46.00509119220078" lon="7.323615727946162">
        <ele>2430.3499999999999</ele>
        <time>2016-07-07T08:55:59Z</time>
      </trkpt>
      <trkpt lat="46.005046349018812" lon="7.323700468987227">
        <ele>2427.4699999999998</ele>
        <time>2016-07-07T08:56:09Z</time>
      </trkpt>
      <trkpt lat="46.005016844719648" lon="7.323775822296739">
        <ele>2425.54</ele>
        <time>2016-07-07T08:56:17Z</time>
      </trkpt>
      <trkpt lat="46.004953812807798" lon="7.323861233890057">
        <ele>2423.6199999999999</ele>
        <time>2016-07-07T08:56:28Z</time>
      </trkpt>
      <trkpt lat="46.004913076758385" lon="7.323927450925112">
        <ele>2421.2199999999998</ele>
        <time>2016-07-07T08:56:37Z</time>
      </trkpt>
      <trkpt lat="46.004869407042861" lon="7.323975479230285">
        <ele>2419.7800000000002</ele>
        <time>2016-07-07T08:56:44Z</time>
      </trkpt>
      <trkpt lat="46.004834873601794" lon="7.324049072340131">
        <ele>2417.8499999999999</ele>
        <time>2016-07-07T08:56:53Z</time>
      </trkpt>
      <trkpt lat="46.004821378737688" lon="7.324074888601899">
        <ele>2416.8899999999999</ele>
        <time>2016-07-07T08:56:56Z</time>
      </trkpt>
      <trkpt lat="46.004748456180096" lon="7.32416239567101">
        <ele>2414.4899999999998</ele>
        <time>2016-07-07T08:57:07Z</time>
      </trkpt>
      <trkpt lat="46.004688106477261" lon="7.324207909405232">
        <ele>2412.0900000000001</ele>
        <time>2016-07-07T08:57:15Z</time>
      </trkpt>
      <trkpt lat="46.004639156162739" lon="7.324262643232942">
        <ele>2411.5999999999999</ele>
        <time>2016-07-07T08:57:23Z</time>
      </trkpt>
      <trkpt lat="46.004592385143042" lon="7.324317544698715">
        <ele>2410.6399999999999</ele>
        <time>2016-07-07T08:57:34Z</time>
      </trkpt>
      <trkpt lat="46.004545111209154" lon="7.324352748692036">
        <ele>2410.1599999999999</ele>
        <time>2016-07-07T08:57:45Z</time>
      </trkpt>
      <trkpt lat="46.004490042105317" lon="7.324425838887692">
        <ele>2408.2399999999998</ele>
        <time>2016-07-07T08:57:53Z</time>
      </trkpt>
      <trkpt lat="46.004464225843549" lon="7.324460539966822">
        <ele>2407.2800000000002</ele>
        <time>2016-07-07T08:57:57Z</time>
      </trkpt>
      <trkpt lat="46.004400188103318" lon="7.324535893276334">
        <ele>2404.8800000000001</ele>
        <time>2016-07-07T08:58:07Z</time>
      </trkpt>
      <trkpt lat="46.004311004653573" lon="7.324589872732759">
        <ele>2402.4699999999998</ele>
        <time>2016-07-07T08:58:17Z</time>
      </trkpt>
      <trkpt lat="46.004299437627196" lon="7.324597500264645">
        <ele>2402.4699999999998</ele>
        <time>2016-07-07T08:58:18Z</time>
      </trkpt>
      <trkpt lat="46.004235651344061" lon="7.324638990685344">
        <ele>2401.0300000000002</ele>
        <time>2016-07-07T08:58:27Z</time>
      </trkpt>
      <trkpt lat="46.004276052117348" lon="7.324666399508715">
        <ele>2398.1500000000001</ele>
        <time>2016-07-07T08:58:36Z</time>
      </trkpt>
      <trkpt lat="46.004303880035877" lon="7.324703950434923">
        <ele>2395.2600000000002</ele>
        <time>2016-07-07T08:58:46Z</time>
      </trkpt>
      <trkpt lat="46.004238333553076" lon="7.324775364249945">
        <ele>2392.8600000000001</ele>
        <time>2016-07-07T08:58:57Z</time>
      </trkpt>
      <trkpt lat="46.004254762083292" lon="7.324787937104702">
        <ele>2390.9400000000001</ele>
        <time>2016-07-07T08:59:06Z</time>
      </trkpt>
      <trkpt lat="46.004245709627867" lon="7.324814843013883">
        <ele>2389.9699999999998</ele>
        <time>2016-07-07T08:59:09Z</time>
      </trkpt>
      <trkpt lat="46.004166081547737" lon="7.3248156812042">
        <ele>2388.5300000000002</ele>
        <time>2016-07-07T08:59:20Z</time>
      </trkpt>
      <trkpt lat="46.00413104519248" lon="7.324829008430243">
        <ele>2386.1300000000001</ele>
        <time>2016-07-07T08:59:29Z</time>
      </trkpt>
      <trkpt lat="46.00411050952971" lon="7.324882820248604">
        <ele>2383.73</ele>
        <time>2016-07-07T08:59:37Z</time>
      </trkpt>
      <trkpt lat="46.004046304151416" lon="7.3249486181885">
        <ele>2380.8400000000001</ele>
        <time>2016-07-07T08:59:46Z</time>
      </trkpt>
      <trkpt lat="46.003950079903007" lon="7.324944762513042">
        <ele>2380.3600000000001</ele>
        <time>2016-07-07T08:59:57Z</time>
      </trkpt>
      <trkpt lat="46.003899956122041" lon="7.324991868808866">
        <ele>2379.8800000000001</ele>
        <time>2016-07-07T09:00:06Z</time>
      </trkpt>
      <trkpt lat="46.003897609189153" lon="7.325003687292337">
        <ele>2379.8800000000001</ele>
        <time>2016-07-07T09:00:07Z</time>
      </trkpt>
      <trkpt lat="46.003886293619871" lon="7.325023720040917">
        <ele>2379.4000000000001</ele>
        <time>2016-07-07T09:00:09Z</time>
      </trkpt>
      <trkpt lat="46.003842875361443" lon="7.325082058086991">
        <ele>2378.4400000000001</ele>
        <time>2016-07-07T09:00:16Z</time>
      </trkpt>
      <trkpt lat="46.00383591838181" lon="7.325109047815204">
        <ele>2377.96</ele>
        <time>2016-07-07T09:00:18Z</time>
      </trkpt>
      <trkpt lat="46.003785710781813" lon="7.325162356719375">
        <ele>2377</ele>
        <time>2016-07-07T09:00:25Z</time>
      </trkpt>
      <trkpt lat="46.003728294745088" lon="7.325205439701676">
        <ele>2375.5500000000002</ele>
        <time>2016-07-07T09:00:34Z</time>
      </trkpt>
      <trkpt lat="46.003657132387161" lon="7.325253803282976">
        <ele>2374.1100000000001</ele>
        <time>2016-07-07T09:00:43Z</time>
      </trkpt>
      <trkpt lat="46.003568200394511" lon="7.325335023924708">
        <ele>2371.23</ele>
        <time>2016-07-07T09:00:56Z</time>
      </trkpt>
      <trkpt lat="46.003567865118384" lon="7.325385399162769">
        <ele>2368.8299999999999</ele>
        <time>2016-07-07T09:01:06Z</time>
      </trkpt>
      <trkpt lat="46.003556214272976" lon="7.325443318113685">
        <ele>2365.9400000000001</ele>
        <time>2016-07-07T09:01:15Z</time>
      </trkpt>
      <trkpt lat="46.003496954217553" lon="7.325468547642231">
        <ele>2364.02</ele>
        <time>2016-07-07T09:01:23Z</time>
      </trkpt>
      <trkpt lat="46.003377679735422" lon="7.3253786098212">
        <ele>2362.5799999999999</ele>
        <time>2016-07-07T09:01:34Z</time>
      </trkpt>
      <trkpt lat="46.003303248435259" lon="7.325283726677299">
        <ele>2362.5799999999999</ele>
        <time>2016-07-07T09:01:45Z</time>
      </trkpt>
      <trkpt lat="46.003263685852289" lon="7.325312979519367">
        <ele>2360.6500000000001</ele>
        <time>2016-07-07T09:01:52Z</time>
      </trkpt>
      <trkpt lat="46.003168718889356" lon="7.32536687515676">
        <ele>2358.25</ele>
        <time>2016-07-07T09:02:02Z</time>
      </trkpt>
      <trkpt lat="46.003103256225586" lon="7.325402665883303">
        <ele>2356.8099999999999</ele>
        <time>2016-07-07T09:02:10Z</time>
      </trkpt>
      <trkpt lat="46.003026142716408" lon="7.325443234294653">
        <ele>2353.4400000000001</ele>
        <time>2016-07-07T09:02:21Z</time>
      </trkpt>
      <trkpt lat="46.003012647852302" lon="7.325468463823199">
        <ele>2352.48</ele>
        <time>2016-07-07T09:02:24Z</time>
      </trkpt>
      <trkpt lat="46.002962524071336" lon="7.325469721108675">
        <ele>2350.0799999999999</ele>
        <time>2016-07-07T09:02:30Z</time>
      </trkpt>
      <trkpt lat="46.002888176590204" lon="7.325477851554751">
        <ele>2347.1999999999998</ele>
        <time>2016-07-07T09:02:40Z</time>
      </trkpt>
      <trkpt lat="46.002832353115082" lon="7.325475001707673">
        <ele>2345.27</ele>
        <time>2016-07-07T09:02:48Z</time>
      </trkpt>
      <trkpt lat="46.002817181870341" lon="7.325501404702663">
        <ele>2343.3499999999999</ele>
        <time>2016-07-07T09:02:57Z</time>
      </trkpt>
      <trkpt lat="46.002772841602564" lon="7.325501488521695">
        <ele>2341.4299999999998</ele>
        <time>2016-07-07T09:03:04Z</time>
      </trkpt>
      <trkpt lat="46.002734955400229" lon="7.325485479086638">
        <ele>2338.54</ele>
        <time>2016-07-07T09:03:14Z</time>
      </trkpt>
      <trkpt lat="46.002711486071348" lon="7.325531914830208">
        <ele>2336.6199999999999</ele>
        <time>2016-07-07T09:03:22Z</time>
      </trkpt>
      <trkpt lat="46.002682484686375" lon="7.32556477189064">
        <ele>2334.2199999999998</ele>
        <time>2016-07-07T09:03:32Z</time>
      </trkpt>
      <trkpt lat="46.002644095569849" lon="7.325610034167767">
        <ele>2332.3000000000002</ele>
        <time>2016-07-07T09:03:40Z</time>
      </trkpt>
      <trkpt lat="46.002578297629952" lon="7.32567859813571">
        <ele>2330.8499999999999</ele>
        <time>2016-07-07T09:03:51Z</time>
      </trkpt>
      <trkpt lat="46.002551391720772" lon="7.325779600068927">
        <ele>2328.4499999999998</ele>
        <time>2016-07-07T09:04:01Z</time>
      </trkpt>
      <trkpt lat="46.002520546317101" lon="7.325848583132029">
        <ele>2326.0500000000002</ele>
        <time>2016-07-07T09:04:11Z</time>
      </trkpt>
      <trkpt lat="46.002521384507418" lon="7.325939862057567">
        <ele>2324.1199999999999</ele>
        <time>2016-07-07T09:04:21Z</time>
      </trkpt>
      <trkpt lat="46.002493808045983" lon="7.325980681926012">
        <ele>2323.1599999999999</ele>
        <time>2016-07-07T09:04:27Z</time>
      </trkpt>
      <trkpt lat="46.002444606274366" lon="7.326055951416493">
        <ele>2322.1999999999998</ele>
        <time>2016-07-07T09:04:36Z</time>
      </trkpt>
      <trkpt lat="46.002391967922449" lon="7.326094508171082">
        <ele>2321.2399999999998</ele>
        <time>2016-07-07T09:04:43Z</time>
      </trkpt>
      <trkpt lat="46.002375371754169" lon="7.326126610860229">
        <ele>2320.7600000000002</ele>
        <time>2016-07-07T09:04:47Z</time>
      </trkpt>
      <trkpt lat="46.002366570755839" lon="7.326259380206466">
        <ele>2318.3600000000001</ele>
        <time>2016-07-07T09:04:58Z</time>
      </trkpt>
      <trkpt lat="46.002373863011599" lon="7.326315371319652">
        <ele>2317.4000000000001</ele>
        <time>2016-07-07T09:05:04Z</time>
      </trkpt>
      <trkpt lat="46.002374449744821" lon="7.326339008286595">
        <ele>2317.4000000000001</ele>
        <time>2016-07-07T09:05:06Z</time>
      </trkpt>
      <trkpt lat="46.002354836091399" lon="7.326494408771396">
        <ele>2314.9899999999998</ele>
        <time>2016-07-07T09:05:17Z</time>
      </trkpt>
      <trkpt lat="46.002331953495741" lon="7.326594069600105">
        <ele>2314.0300000000002</ele>
        <time>2016-07-07T09:05:29Z</time>
      </trkpt>
      <trkpt lat="46.002303874120116" lon="7.326628603041172">
        <ele>2314.0300000000002</ele>
        <time>2016-07-07T09:05:39Z</time>
      </trkpt>
      <trkpt lat="46.002276130020618" lon="7.326638912782073">
        <ele>2313.5500000000002</ele>
        <time>2016-07-07T09:05:54Z</time>
      </trkpt>
      <trkpt lat="46.002285182476044" lon="7.326634051278234">
        <ele>2313.5500000000002</ele>
        <time>2016-07-07T09:06:13Z</time>
      </trkpt>
      <trkpt lat="46.002297000959516" lon="7.326632542535663">
        <ele>2314.0300000000002</ele>
        <time>2016-07-07T09:06:25Z</time>
      </trkpt>
      <trkpt lat="46.002299431711435" lon="7.3266167845577">
        <ele>2314.0300000000002</ele>
        <time>2016-07-07T09:06:37Z</time>
      </trkpt>
      <trkpt lat="46.002287697046995" lon="7.326581412926316">
        <ele>2313.5500000000002</ele>
        <time>2016-07-07T09:06:55Z</time>
      </trkpt>
      <trkpt lat="46.002285098657012" lon="7.326598763465881">
        <ele>2313.5500000000002</ele>
        <time>2016-07-07T09:07:08Z</time>
      </trkpt>
      <trkpt lat="46.002288283780217" lon="7.32659281231463">
        <ele>2313.5500000000002</ele>
        <time>2016-07-07T09:07:32Z</time>
      </trkpt>
      <trkpt lat="46.002292977645993" lon="7.326609157025814">
        <ele>2314.0300000000002</ele>
        <time>2016-07-07T09:07:53Z</time>
      </trkpt>
      <trkpt lat="46.00228794850409" lon="7.326624076813459">
        <ele>2313.5500000000002</ele>
        <time>2016-07-07T09:08:05Z</time>
      </trkpt>
      <trkpt lat="46.002282835543156" lon="7.326646037399769">
        <ele>2313.5500000000002</ele>
        <time>2016-07-07T09:08:07Z</time>
      </trkpt>
      <trkpt lat="46.002250062301755" lon="7.326673865318298">
        <ele>2313.0700000000002</ele>
        <time>2016-07-07T09:08:11Z</time>
      </trkpt>
      <trkpt lat="46.002184096723795" lon="7.326683504506946">
        <ele>2312.5900000000001</ele>
        <time>2016-07-07T09:08:17Z</time>
      </trkpt>
      <trkpt lat="46.002159537747502" lon="7.326706890016794">
        <ele>2312.1100000000001</ele>
        <time>2016-07-07T09:08:20Z</time>
      </trkpt>
      <trkpt lat="46.002102205529809" lon="7.326813256368041">
        <ele>2310.1900000000001</ele>
        <time>2016-07-07T09:08:31Z</time>
      </trkpt>
      <trkpt lat="46.002095080912113" lon="7.326829517260194">
        <ele>2309.6999999999998</ele>
        <time>2016-07-07T09:08:33Z</time>
      </trkpt>
      <trkpt lat="46.0020836815238" lon="7.32698424719274">
        <ele>2306.8200000000002</ele>
        <time>2016-07-07T09:08:46Z</time>
      </trkpt>
      <trkpt lat="46.002093236893415" lon="7.327029425650835">
        <ele>2306.3400000000001</ele>
        <time>2016-07-07T09:08:51Z</time>
      </trkpt>
      <trkpt lat="46.002180743962526" lon="7.327031185850501">
        <ele>2303.46</ele>
        <time>2016-07-07T09:09:02Z</time>
      </trkpt>
      <trkpt lat="46.0021613817662" lon="7.327057924121618">
        <ele>2302.4899999999998</ele>
        <time>2016-07-07T09:09:04Z</time>
      </trkpt>
      <trkpt lat="46.002132128924131" lon="7.327097235247493">
        <ele>2301.5300000000002</ele>
        <time>2016-07-07T09:09:08Z</time>
      </trkpt>
      <trkpt lat="46.002067420631647" lon="7.327211312949657">
        <ele>2298.1700000000001</ele>
        <time>2016-07-07T09:09:19Z</time>
      </trkpt>
      <trkpt lat="46.002008328214288" lon="7.327264454215765">
        <ele>2295.77</ele>
        <time>2016-07-07T09:09:30Z</time>
      </trkpt>
      <trkpt lat="46.002065828070045" lon="7.32732966542244">
        <ele>2293.3600000000001</ele>
        <time>2016-07-07T09:09:39Z</time>
      </trkpt>
      <trkpt lat="46.002090219408274" lon="7.327327653765678">
        <ele>2292.4000000000001</ele>
        <time>2016-07-07T09:09:42Z</time>
      </trkpt>
      <trkpt lat="46.00200304761529" lon="7.327424716204405">
        <ele>2289.04</ele>
        <time>2016-07-07T09:09:54Z</time>
      </trkpt>
      <trkpt lat="46.002021403983235" lon="7.327457740902901">
        <ele>2287.5900000000001</ele>
        <time>2016-07-07T09:10:00Z</time>
      </trkpt>
      <trkpt lat="46.002106731757522" lon="7.327477941289544">
        <ele>2284.23</ele>
        <time>2016-07-07T09:10:10Z</time>
      </trkpt>
      <trkpt lat="46.002086866647005" lon="7.327546924352646">
        <ele>2282.3099999999999</ele>
        <time>2016-07-07T09:10:19Z</time>
      </trkpt>
      <trkpt lat="46.00208125077188" lon="7.327586906030774">
        <ele>2280.8699999999999</ele>
        <time>2016-07-07T09:10:30Z</time>
      </trkpt>
      <trkpt lat="46.002152161672711" lon="7.327563771978021">
        <ele>2277.5</ele>
        <time>2016-07-07T09:10:38Z</time>
      </trkpt>
      <trkpt lat="46.002144366502762" lon="7.327625462785363">
        <ele>2275.5799999999999</ele>
        <time>2016-07-07T09:10:43Z</time>
      </trkpt>
      <trkpt lat="46.002072868868709" lon="7.327749934047461">
        <ele>2273.1700000000001</ele>
        <time>2016-07-07T09:10:54Z</time>
      </trkpt>
      <trkpt lat="46.002013692632318" lon="7.327877255156636">
        <ele>2269.8099999999999</ele>
        <time>2016-07-07T09:11:05Z</time>
      </trkpt>
      <trkpt lat="46.001947559416294" lon="7.327959733083844">
        <ele>2266.9299999999998</ele>
        <time>2016-07-07T09:11:15Z</time>
      </trkpt>
      <trkpt lat="46.00186382420361" lon="7.328030141070485">
        <ele>2264.52</ele>
        <time>2016-07-07T09:11:26Z</time>
      </trkpt>
      <trkpt lat="46.001828368753195" lon="7.328078169375658">
        <ele>2263.0799999999999</ele>
        <time>2016-07-07T09:11:34Z</time>
      </trkpt>
      <trkpt lat="46.001769695430994" lon="7.328175734728575">
        <ele>2260.6799999999998</ele>
        <time>2016-07-07T09:11:43Z</time>
      </trkpt>
      <trkpt lat="46.001669196411967" lon="7.328160731121898">
        <ele>2257.3099999999999</ele>
        <time>2016-07-07T09:11:53Z</time>
      </trkpt>
      <trkpt lat="46.001600464805961" lon="7.328139441087842">
        <ele>2255.8699999999999</ele>
        <time>2016-07-07T09:12:04Z</time>
      </trkpt>
      <trkpt lat="46.001590238884091" lon="7.328093843534589">
        <ele>2255.8699999999999</ele>
        <time>2016-07-07T09:12:17Z</time>
      </trkpt>
      <trkpt lat="46.001537097617984" lon="7.328010024502873">
        <ele>2254.4299999999998</ele>
        <time>2016-07-07T09:12:27Z</time>
      </trkpt>
      <trkpt lat="46.001526117324829" lon="7.327987896278501">
        <ele>2253.9499999999998</ele>
        <time>2016-07-07T09:12:29Z</time>
      </trkpt>
      <trkpt lat="46.00144699215889" lon="7.327904663980007">
        <ele>2252.5100000000002</ele>
        <time>2016-07-07T09:12:41Z</time>
      </trkpt>
      <trkpt lat="46.001414218917489" lon="7.327857976779342">
        <ele>2251.0599999999999</ele>
        <time>2016-07-07T09:12:50Z</time>
      </trkpt>
      <trkpt lat="46.001380942761898" lon="7.32784959487617">
        <ele>2250.5799999999999</ele>
        <time>2016-07-07T09:13:01Z</time>
      </trkpt>
      <trkpt lat="46.001356719061732" lon="7.327880607917905">
        <ele>2249.6199999999999</ele>
        <time>2016-07-07T09:13:06Z</time>
      </trkpt>
      <trkpt lat="46.001318916678429" lon="7.327926708385348">
        <ele>2250.0999999999999</ele>
        <time>2016-07-07T09:13:14Z</time>
      </trkpt>
      <trkpt lat="46.00130089558661" lon="7.327946238219738">
        <ele>2249.6199999999999</ele>
        <time>2016-07-07T09:13:18Z</time>
      </trkpt>
      <trkpt lat="46.001259237527847" lon="7.328022932633758">
        <ele>2248.6599999999999</ele>
        <time>2016-07-07T09:13:24Z</time>
      </trkpt>
      <trkpt lat="46.001167371869087" lon="7.32809241861105">
        <ele>2249.6199999999999</ele>
        <time>2016-07-07T09:13:35Z</time>
      </trkpt>
      <trkpt lat="46.00113183259964" lon="7.32817011885345">
        <ele>2248.6599999999999</ele>
        <time>2016-07-07T09:13:40Z</time>
      </trkpt>
      <trkpt lat="46.001107608899474" lon="7.328227451071143">
        <ele>2247.6999999999998</ele>
        <time>2016-07-07T09:13:44Z</time>
      </trkpt>
      <trkpt lat="46.001069052144885" lon="7.328269863501191">
        <ele>2249.1399999999999</ele>
        <time>2016-07-07T09:13:50Z</time>
      </trkpt>
      <trkpt lat="46.000986825674772" lon="7.328266091644764">
        <ele>2249.6199999999999</ele>
        <time>2016-07-07T09:13:58Z</time>
      </trkpt>
      <trkpt lat="46.000943407416344" lon="7.328262571245432">
        <ele>2250.5799999999999</ele>
        <time>2016-07-07T09:14:08Z</time>
      </trkpt>
      <trkpt lat="46.000926727429032" lon="7.328231055289507">
        <ele>2250.5799999999999</ele>
        <time>2016-07-07T09:14:16Z</time>
      </trkpt>
      <trkpt lat="46.000858163461089" lon="7.328165005892515">
        <ele>2249.1399999999999</ele>
        <time>2016-07-07T09:14:26Z</time>
      </trkpt>
      <trkpt lat="46.000796891748905" lon="7.328179506585002">
        <ele>2249.1399999999999</ele>
        <time>2016-07-07T09:14:36Z</time>
      </trkpt>
      <trkpt lat="46.000764621421695" lon="7.328205658122897">
        <ele>2249.6199999999999</ele>
        <time>2016-07-07T09:14:41Z</time>
      </trkpt>
      <trkpt lat="46.000748779624701" lon="7.328217476606369">
        <ele>2249.6199999999999</ele>
        <time>2016-07-07T09:14:43Z</time>
      </trkpt>
      <trkpt lat="46.000687507912517" lon="7.328236671164632">
        <ele>2251.54</ele>
        <time>2016-07-07T09:14:53Z</time>
      </trkpt>
      <trkpt lat="46.000676611438394" lon="7.328259134665132">
        <ele>2251.54</ele>
        <time>2016-07-07T09:14:56Z</time>
      </trkpt>
      <trkpt lat="46.000615758821368" lon="7.328332308679819">
        <ele>2251.54</ele>
        <time>2016-07-07T09:15:06Z</time>
      </trkpt>
      <trkpt lat="46.000607712194324" lon="7.328348234295845">
        <ele>2251.54</ele>
        <time>2016-07-07T09:15:08Z</time>
      </trkpt>
      <trkpt lat="46.00059824064374" lon="7.328374888747931">
        <ele>2250.5799999999999</ele>
        <time>2016-07-07T09:15:10Z</time>
      </trkpt>
      <trkpt lat="46.000520708039403" lon="7.328469268977642">
        <ele>2251.0599999999999</ele>
        <time>2016-07-07T09:15:21Z</time>
      </trkpt>
      <trkpt lat="46.000519786030054" lon="7.328490978106856">
        <ele>2251.0599999999999</ele>
        <time>2016-07-07T09:15:23Z</time>
      </trkpt>
      <trkpt lat="46.000504782423377" lon="7.328539593145251">
        <ele>2250.5799999999999</ele>
        <time>2016-07-07T09:15:27Z</time>
      </trkpt>
      <trkpt lat="46.000503608956933" lon="7.328724078834057">
        <ele>2246.7399999999998</ele>
        <time>2016-07-07T09:15:39Z</time>
      </trkpt>
      <trkpt lat="46.000497406348586" lon="7.328740088269115">
        <ele>2246.7399999999998</ele>
        <time>2016-07-07T09:15:40Z</time>
      </trkpt>
      <trkpt lat="46.000391459092498" lon="7.328776298090816">
        <ele>2243.8499999999999</ele>
        <time>2016-07-07T09:15:52Z</time>
      </trkpt>
      <trkpt lat="46.000312250107527" lon="7.328779734671116">
        <ele>2240.4899999999998</ele>
        <time>2016-07-07T09:16:02Z</time>
      </trkpt>
      <trkpt lat="46.000303449109197" lon="7.328779650852084">
        <ele>2240.4899999999998</ele>
        <time>2016-07-07T09:16:03Z</time>
      </trkpt>
      <trkpt lat="46.000193981453776" lon="7.328777303919196">
        <ele>2237.1300000000001</ele>
        <time>2016-07-07T09:16:15Z</time>
      </trkpt>
      <trkpt lat="46.000170595943928" lon="7.328782333061099">
        <ele>2236.6399999999999</ele>
        <time>2016-07-07T09:16:17Z</time>
      </trkpt>
      <trkpt lat="46.000089710578322" lon="7.328775795176625">
        <ele>2238.5700000000002</ele>
        <time>2016-07-07T09:16:27Z</time>
      </trkpt>
      <trkpt lat="45.999989882111549" lon="7.328801359981298">
        <ele>2239.0500000000002</ele>
        <time>2016-07-07T09:16:37Z</time>
      </trkpt>
      <trkpt lat="45.999932214617729" lon="7.32883220538497">
        <ele>2239.0500000000002</ele>
        <time>2016-07-07T09:16:47Z</time>
      </trkpt>
      <trkpt lat="45.999941686168313" lon="7.328843101859093">
        <ele>2238.5700000000002</ele>
        <time>2016-07-07T09:17:06Z</time>
      </trkpt>
      <trkpt lat="45.999936489388347" lon="7.328875120729208">
        <ele>2238.5700000000002</ele>
        <time>2016-07-07T09:17:18Z</time>
      </trkpt>
      <trkpt lat="45.999917462468147" lon="7.328888112679124">
        <ele>2238.0900000000001</ele>
        <time>2016-07-07T09:17:30Z</time>
      </trkpt>
      <trkpt lat="45.99990732036531" lon="7.328882915899158">
        <ele>2238.0900000000001</ele>
        <time>2016-07-07T09:17:45Z</time>
      </trkpt>
      <trkpt lat="45.999885443598032" lon="7.32887813821435">
        <ele>2238.0900000000001</ele>
        <time>2016-07-07T09:17:59Z</time>
      </trkpt>
      <trkpt lat="45.999890975654125" lon="7.328889621421695">
        <ele>2237.6100000000001</ele>
        <time>2016-07-07T09:18:11Z</time>
      </trkpt>
      <trkpt lat="45.999895334243774" lon="7.328896494582295">
        <ele>2237.6100000000001</ele>
        <time>2016-07-07T09:18:24Z</time>
      </trkpt>
      <trkpt lat="45.999881336465478" lon="7.32890060171485">
        <ele>2237.6100000000001</ele>
        <time>2016-07-07T09:18:36Z</time>
      </trkpt>
      <trkpt lat="45.99988242611289" lon="7.328902278095484">
        <ele>2236.6399999999999</ele>
        <time>2016-07-07T09:18:49Z</time>
      </trkpt>
      <trkpt lat="45.999886197969317" lon="7.328877216205001">
        <ele>2236.6399999999999</ele>
        <time>2016-07-07T09:18:58Z</time>
      </trkpt>
      <trkpt lat="45.999847808852792" lon="7.328886017203331">
        <ele>2236.6399999999999</ele>
        <time>2016-07-07T09:19:09Z</time>
      </trkpt>
      <trkpt lat="45.999843701720238" lon="7.328914348036051">
        <ele>2237.1300000000001</ele>
        <time>2016-07-07T09:19:20Z</time>
      </trkpt>
      <trkpt lat="45.999829201027751" lon="7.328920885920525">
        <ele>2237.6100000000001</ele>
        <time>2016-07-07T09:19:28Z</time>
      </trkpt>
      <trkpt lat="45.999835738912225" lon="7.32895826920867">
        <ele>2237.6100000000001</ele>
        <time>2016-07-07T09:19:37Z</time>
      </trkpt>
      <trkpt lat="45.999834649264812" lon="7.329003531485796">
        <ele>2237.1300000000001</ele>
        <time>2016-07-07T09:19:47Z</time>
      </trkpt>
      <trkpt lat="45.999835152179003" lon="7.328988024964929">
        <ele>2237.1300000000001</ele>
        <time>2016-07-07T09:20:05Z</time>
      </trkpt>
      <trkpt lat="45.999856106936932" lon="7.32901694253087">
        <ele>2236.6399999999999</ele>
        <time>2016-07-07T09:20:09Z</time>
      </trkpt>
      <trkpt lat="45.999872200191021" lon="7.329146359115839">
        <ele>2234.7199999999998</ele>
        <time>2016-07-07T09:20:21Z</time>
      </trkpt>
      <trkpt lat="45.999879240989685" lon="7.3291932977736">
        <ele>2233.7600000000002</ele>
        <time>2016-07-07T09:20:25Z</time>
      </trkpt>
      <trkpt lat="45.999911511316895" lon="7.32929103076458">
        <ele>2232.8000000000002</ele>
        <time>2016-07-07T09:20:36Z</time>
      </trkpt>
      <trkpt lat="45.999913858249784" lon="7.329340986907482">
        <ele>2230.8800000000001</ele>
        <time>2016-07-07T09:20:39Z</time>
      </trkpt>
      <trkpt lat="45.999917378649116" lon="7.329394882544875">
        <ele>2231.3600000000001</ele>
        <time>2016-07-07T09:20:43Z</time>
      </trkpt>
      <trkpt lat="45.999943697825074" lon="7.329494459554553">
        <ele>2229.9200000000001</ele>
        <time>2016-07-07T09:20:51Z</time>
      </trkpt>
      <trkpt lat="45.999957276508212" lon="7.329534608870745">
        <ele>2228.4699999999998</ele>
        <time>2016-07-07T09:20:55Z</time>
      </trkpt>
      <trkpt lat="45.999935064464808" lon="7.32955195941031">
        <ele>2227.9899999999998</ele>
        <time>2016-07-07T09:20:57Z</time>
      </trkpt>
      <trkpt lat="45.999845461919904" lon="7.329634688794613">
        <ele>2224.6300000000001</ele>
        <time>2016-07-07T09:21:08Z</time>
      </trkpt>
      <trkpt lat="45.999841941520572" lon="7.329640723764896">
        <ele>2224.6300000000001</ele>
        <time>2016-07-07T09:21:09Z</time>
      </trkpt>
      <trkpt lat="45.999826518818736" lon="7.329691434279084">
        <ele>2222.71</ele>
        <time>2016-07-07T09:21:14Z</time>
      </trkpt>
      <trkpt lat="45.999759547412395" lon="7.329793777316809">
        <ele>2219.3400000000001</ele>
        <time>2016-07-07T09:21:24Z</time>
      </trkpt>
      <trkpt lat="45.999754434451461" lon="7.329837866127491">
        <ele>2216.9400000000001</ele>
        <time>2016-07-07T09:21:31Z</time>
      </trkpt>
      <trkpt lat="45.999747728928924" lon="7.329878266900778">
        <ele>2215.98</ele>
        <time>2016-07-07T09:21:35Z</time>
      </trkpt>
      <trkpt lat="45.99974806420505" lon="7.329924115911126">
        <ele>2213.5700000000002</ele>
        <time>2016-07-07T09:21:44Z</time>
      </trkpt>
      <trkpt lat="45.999711100012064" lon="7.330026794224978">
        <ele>2210.21</ele>
        <time>2016-07-07T09:21:54Z</time>
      </trkpt>
      <trkpt lat="45.999649744480848" lon="7.330161407589912">
        <ele>2206.8400000000001</ele>
        <time>2016-07-07T09:22:06Z</time>
      </trkpt>
      <trkpt lat="45.999644296243787" lon="7.330168532207608">
        <ele>2206.3600000000001</ele>
        <time>2016-07-07T09:22:07Z</time>
      </trkpt>
      <trkpt lat="45.999587718397379" lon="7.330293254926801">
        <ele>2202.52</ele>
        <time>2016-07-07T09:22:19Z</time>
      </trkpt>
      <trkpt lat="45.99958092905581" lon="7.330301720649004">
        <ele>2202.52</ele>
        <time>2016-07-07T09:22:20Z</time>
      </trkpt>
      <trkpt lat="45.999560644850135" lon="7.330352682620287">
        <ele>2201.0799999999999</ele>
        <time>2016-07-07T09:22:24Z</time>
      </trkpt>
      <trkpt lat="45.999522591009736" lon="7.330416552722454">
        <ele>2200.1100000000001</ele>
        <time>2016-07-07T09:22:30Z</time>
      </trkpt>
      <trkpt lat="45.999500043690205" lon="7.330466425046325">
        <ele>2198.6700000000001</ele>
        <time>2016-07-07T09:22:34Z</time>
      </trkpt>
      <trkpt lat="45.999446650967002" lon="7.330571115016937">
        <ele>2196.75</ele>
        <time>2016-07-07T09:22:44Z</time>
      </trkpt>
      <trkpt lat="45.99940893240273" lon="7.330642025917769">
        <ele>2196.27</ele>
        <time>2016-07-07T09:22:49Z</time>
      </trkpt>
      <trkpt lat="45.999372974038124" lon="7.330686030909419">
        <ele>2196.27</ele>
        <time>2016-07-07T09:22:54Z</time>
      </trkpt>
      <trkpt lat="45.999339278787374" lon="7.330744452774525">
        <ele>2196.27</ele>
        <time>2016-07-07T09:22:59Z</time>
      </trkpt>
      <trkpt lat="45.999306254088879" lon="7.330902703106403">
        <ele>2194.8299999999999</ele>
        <time>2016-07-07T09:23:11Z</time>
      </trkpt>
      <trkpt lat="45.999296363443136" lon="7.330970093607903">
        <ele>2194.3499999999999</ele>
        <time>2016-07-07T09:23:16Z</time>
      </trkpt>
      <trkpt lat="45.9992706310004" lon="7.331036059185863">
        <ele>2194.3499999999999</ele>
        <time>2016-07-07T09:23:21Z</time>
      </trkpt>
      <trkpt lat="45.999267529696226" lon="7.33113412745297">
        <ele>2193.3899999999999</ele>
        <time>2016-07-07T09:23:27Z</time>
      </trkpt>
      <trkpt lat="45.999225955456495" lon="7.3312983289361">
        <ele>2190.98</ele>
        <time>2016-07-07T09:23:38Z</time>
      </trkpt>
      <trkpt lat="45.999222183600068" lon="7.331325067207217">
        <ele>2190.98</ele>
        <time>2016-07-07T09:23:40Z</time>
      </trkpt>
      <trkpt lat="45.999229224398732" lon="7.331363959237933">
        <ele>2190.02</ele>
        <time>2016-07-07T09:23:43Z</time>
      </trkpt>
      <trkpt lat="45.999214556068182" lon="7.331437384709716">
        <ele>2189.0599999999999</ele>
        <time>2016-07-07T09:23:48Z</time>
      </trkpt>
      <trkpt lat="45.999212879687548" lon="7.33155875466764">
        <ele>2187.1399999999999</ele>
        <time>2016-07-07T09:23:56Z</time>
      </trkpt>
      <trkpt lat="45.999181196093559" lon="7.331725303083658">
        <ele>2186.1799999999998</ele>
        <time>2016-07-07T09:24:07Z</time>
      </trkpt>
      <trkpt lat="45.999162504449487" lon="7.331773163750768">
        <ele>2185.21</ele>
        <time>2016-07-07T09:24:10Z</time>
      </trkpt>
      <trkpt lat="45.999128390103579" lon="7.331903669983149">
        <ele>2184.25</ele>
        <time>2016-07-07T09:24:20Z</time>
      </trkpt>
      <trkpt lat="45.999106932431459" lon="7.332054879516363">
        <ele>2182.8099999999999</ele>
        <time>2016-07-07T09:24:31Z</time>
      </trkpt>
      <trkpt lat="45.999085307121277" lon="7.332218997180462">
        <ele>2181.3699999999999</ele>
        <time>2016-07-07T09:24:43Z</time>
      </trkpt>
      <trkpt lat="45.99907323718071" lon="7.33227800577879">
        <ele>2180.8899999999999</ele>
        <time>2016-07-07T09:24:54Z</time>
      </trkpt>
      <trkpt lat="45.99906787276268" lon="7.332334751263261">
        <ele>2179.4499999999998</ele>
        <time>2016-07-07T09:24:59Z</time>
      </trkpt>
      <trkpt lat="45.999065525829792" lon="7.332461401820183">
        <ele>2179.4499999999998</ele>
        <time>2016-07-07T09:25:11Z</time>
      </trkpt>
      <trkpt lat="45.999079942703247" lon="7.332513621076942">
        <ele>2176.0799999999999</ele>
        <time>2016-07-07T09:25:19Z</time>
      </trkpt>
      <trkpt lat="45.999087737873197" lon="7.332553938031197">
        <ele>2175.1199999999999</ele>
        <time>2016-07-07T09:25:22Z</time>
      </trkpt>
      <trkpt lat="45.999085223302245" lon="7.332619735971093">
        <ele>2174.1599999999999</ele>
        <time>2016-07-07T09:25:26Z</time>
      </trkpt>
      <trkpt lat="45.999111542478204" lon="7.332713529467583">
        <ele>2172.7199999999998</ele>
        <time>2016-07-07T09:25:38Z</time>
      </trkpt>
      <trkpt lat="45.99911917001009" lon="7.332705147564411">
        <ele>2172.7199999999998</ele>
        <time>2016-07-07T09:25:39Z</time>
      </trkpt>
      <trkpt lat="45.999186309054494" lon="7.3326401039958">
        <ele>2170.79</ele>
        <time>2016-07-07T09:25:47Z</time>
      </trkpt>
      <trkpt lat="45.999213298782706" lon="7.3326850309968">
        <ele>2169.8299999999999</ele>
        <time>2016-07-07T09:25:52Z</time>
      </trkpt>
      <trkpt lat="45.999180693179369" lon="7.332812184467912">
        <ele>2167.4299999999998</ele>
        <time>2016-07-07T09:26:04Z</time>
      </trkpt>
      <trkpt lat="45.99915579892695" lon="7.332826014608145">
        <ele>2166.9499999999998</ele>
        <time>2016-07-07T09:26:07Z</time>
      </trkpt>
      <trkpt lat="45.999076338484883" lon="7.332885107025504">
        <ele>2165.0300000000002</ele>
        <time>2016-07-07T09:26:18Z</time>
      </trkpt>
      <trkpt lat="45.999111291021109" lon="7.332858368754387">
        <ele>2164.0599999999999</ele>
        <time>2016-07-07T09:26:26Z</time>
      </trkpt>
      <trkpt lat="45.999148841947317" lon="7.332861721515656">
        <ele>2162.6199999999999</ele>
        <time>2016-07-07T09:26:30Z</time>
      </trkpt>
      <trkpt lat="45.99926283583045" lon="7.332905223593116">
        <ele>2160.6999999999998</ele>
        <time>2016-07-07T09:26:42Z</time>
      </trkpt>
      <trkpt lat="45.999351600185037" lon="7.332906648516655">
        <ele>2159.2600000000002</ele>
        <time>2016-07-07T09:26:51Z</time>
      </trkpt>
      <trkpt lat="45.999471545219421" lon="7.332939254119992">
        <ele>2155.8899999999999</ele>
        <time>2016-07-07T09:27:03Z</time>
      </trkpt>
      <trkpt lat="45.999479256570339" lon="7.332931710407138">
        <ele>2154.9299999999998</ele>
        <time>2016-07-07T09:27:05Z</time>
      </trkpt>
      <trkpt lat="45.999531308189034" lon="7.33288686722517">
        <ele>2154.4499999999998</ele>
        <time>2016-07-07T09:27:11Z</time>
      </trkpt>
      <trkpt lat="45.999559387564659" lon="7.332898685708642">
        <ele>2153.4899999999998</ele>
        <time>2016-07-07T09:27:22Z</time>
      </trkpt>
      <trkpt lat="45.999595513567328" lon="7.332861134782434">
        <ele>2153.4899999999998</ele>
        <time>2016-07-07T09:27:31Z</time>
      </trkpt>
      <trkpt lat="45.999623676761985" lon="7.332832468673587">
        <ele>2152.5300000000002</ele>
        <time>2016-07-07T09:27:35Z</time>
      </trkpt>
      <trkpt lat="45.999673968181014" lon="7.332792989909649">
        <ele>2151.0900000000001</ele>
        <time>2016-07-07T09:27:45Z</time>
      </trkpt>
      <trkpt lat="45.999711016193032" lon="7.332760887220502">
        <ele>2150.1300000000001</ele>
        <time>2016-07-07T09:27:52Z</time>
      </trkpt>
      <trkpt lat="45.999748986214399" lon="7.332761306315661">
        <ele>2148.1999999999998</ele>
        <time>2016-07-07T09:28:01Z</time>
      </trkpt>
      <trkpt lat="45.999763738363981" lon="7.332818051800132">
        <ele>2147.2399999999998</ele>
        <time>2016-07-07T09:28:05Z</time>
      </trkpt>
      <trkpt lat="45.999810677021742" lon="7.33290740288794">
        <ele>2144.8400000000001</ele>
        <time>2016-07-07T09:28:17Z</time>
      </trkpt>
      <trkpt lat="45.999828446656466" lon="7.332836408168078">
        <ele>2142.4400000000001</ele>
        <time>2016-07-07T09:28:26Z</time>
      </trkpt>
      <trkpt lat="45.999852251261473" lon="7.332893908023834">
        <ele>2141.4699999999998</ele>
        <time>2016-07-07T09:28:31Z</time>
      </trkpt>
      <trkpt lat="45.999865159392357" lon="7.332987952977419">
        <ele>2139.5500000000002</ele>
        <time>2016-07-07T09:28:38Z</time>
      </trkpt>
      <trkpt lat="45.999873457476497" lon="7.333033885806799">
        <ele>2140.0300000000002</ele>
        <time>2016-07-07T09:28:41Z</time>
      </trkpt>
      <trkpt lat="45.999890975654125" lon="7.333064563572407">
        <ele>2138.1100000000001</ele>
        <time>2016-07-07T09:28:44Z</time>
      </trkpt>
      <trkpt lat="45.99989902228117" lon="7.333088451996446">
        <ele>2137.6300000000001</ele>
        <time>2016-07-07T09:28:46Z</time>
      </trkpt>
      <trkpt lat="45.999858034774661" lon="7.333180401474237">
        <ele>2136.1900000000001</ele>
        <time>2016-07-07T09:28:56Z</time>
      </trkpt>
      <trkpt lat="45.999875720590353" lon="7.333182832226157">
        <ele>2135.71</ele>
        <time>2016-07-07T09:28:59Z</time>
      </trkpt>
      <trkpt lat="45.99991905502975" lon="7.333227088674903">
        <ele>2134.2600000000002</ele>
        <time>2016-07-07T09:29:05Z</time>
      </trkpt>
      <trkpt lat="45.999943614006042" lon="7.333243601024151">
        <ele>2133.3000000000002</ele>
        <time>2016-07-07T09:29:09Z</time>
      </trkpt>
      <trkpt lat="45.999861219897866" lon="7.333242343738675">
        <ele>2131.8600000000001</ele>
        <time>2016-07-07T09:29:17Z</time>
      </trkpt>
      <trkpt lat="45.999825093895197" lon="7.333260532468557">
        <ele>2131.3800000000001</ele>
        <time>2016-07-07T09:29:20Z</time>
      </trkpt>
      <trkpt lat="45.99970112554729" lon="7.33329389244318">
        <ele>2128.5</ele>
        <time>2016-07-07T09:29:31Z</time>
      </trkpt>
      <trkpt lat="45.999683439731598" lon="7.333313087001443">
        <ele>2127.5300000000002</ele>
        <time>2016-07-07T09:29:33Z</time>
      </trkpt>
      <trkpt lat="45.99967572838068" lon="7.333323815837503">
        <ele>2127.5300000000002</ele>
        <time>2016-07-07T09:29:34Z</time>
      </trkpt>
      <trkpt lat="45.999633315950632" lon="7.333405371755362">
        <ele>2126.5700000000002</ele>
        <time>2016-07-07T09:29:41Z</time>
      </trkpt>
      <trkpt lat="45.999608589336276" lon="7.333432277664542">
        <ele>2125.6100000000001</ele>
        <time>2016-07-07T09:29:44Z</time>
      </trkpt>
      <trkpt lat="45.999526362866163" lon="7.333511402830482">
        <ele>2122.73</ele>
        <time>2016-07-07T09:29:56Z</time>
      </trkpt>
      <trkpt lat="45.999563494697213" lon="7.333533866330981">
        <ele>2120.8099999999999</ele>
        <time>2016-07-07T09:30:03Z</time>
      </trkpt>
      <trkpt lat="45.999518232420087" lon="7.333570830523968">
        <ele>2117.9200000000001</ele>
        <time>2016-07-07T09:30:14Z</time>
      </trkpt>
      <trkpt lat="45.999552430585027" lon="7.333614835515618">
        <ele>2116</ele>
        <time>2016-07-07T09:30:22Z</time>
      </trkpt>
      <trkpt lat="45.999519238248467" lon="7.33366328291595">
        <ele>2115.04</ele>
        <time>2016-07-07T09:30:28Z</time>
      </trkpt>
      <trkpt lat="45.99948906339705" lon="7.333856066688895">
        <ele>2114.0799999999999</ele>
        <time>2016-07-07T09:30:41Z</time>
      </trkpt>
      <trkpt lat="45.999476909637451" lon="7.33393887989223">
        <ele>2113.5999999999999</ele>
        <time>2016-07-07T09:30:47Z</time>
      </trkpt>
      <trkpt lat="45.999419912695885" lon="7.334003169089556">
        <ele>2115.04</ele>
        <time>2016-07-07T09:30:56Z</time>
      </trkpt>
      <trkpt lat="45.999422846361995" lon="7.334057148545981">
        <ele>2115.04</ele>
        <time>2016-07-07T09:31:01Z</time>
      </trkpt>
      <trkpt lat="45.999473389238119" lon="7.334169466048479">
        <ele>2115.52</ele>
        <time>2016-07-07T09:31:10Z</time>
      </trkpt>
      <trkpt lat="45.999481687322259" lon="7.334197545424104">
        <ele>2115.52</ele>
        <time>2016-07-07T09:31:12Z</time>
      </trkpt>
      <trkpt lat="45.999543126672506" lon="7.334348671138287">
        <ele>2116</ele>
        <time>2016-07-07T09:31:24Z</time>
      </trkpt>
      <trkpt lat="45.999549916014075" lon="7.334378091618419">
        <ele>2116</ele>
        <time>2016-07-07T09:31:26Z</time>
      </trkpt>
      <trkpt lat="45.999478083103895" lon="7.334523182362318">
        <ele>2114.5599999999999</ele>
        <time>2016-07-07T09:31:38Z</time>
      </trkpt>
      <trkpt lat="45.999458972364664" lon="7.334602978080511">
        <ele>2113.5999999999999</ele>
        <time>2016-07-07T09:31:45Z</time>
      </trkpt>
      <trkpt lat="45.999433323740959" lon="7.33472066000104">
        <ele>2112.1500000000001</ele>
        <time>2016-07-07T09:31:55Z</time>
      </trkpt>
      <trkpt lat="45.999480178579688" lon="7.334904307499528">
        <ele>2110.71</ele>
        <time>2016-07-07T09:32:09Z</time>
      </trkpt>
      <trkpt lat="45.999485794454813" lon="7.334913443773985">
        <ele>2110.23</ele>
        <time>2016-07-07T09:32:10Z</time>
      </trkpt>
      <trkpt lat="45.999555783346295" lon="7.334979744628072">
        <ele>2108.79</ele>
        <time>2016-07-07T09:32:23Z</time>
      </trkpt>
      <trkpt lat="45.999567015096545" lon="7.335030874237418">
        <ele>2108.3099999999999</ele>
        <time>2016-07-07T09:32:38Z</time>
      </trkpt>
      <trkpt lat="45.999600291252136" lon="7.335048643872142">
        <ele>2106.8699999999999</ele>
        <time>2016-07-07T09:32:47Z</time>
      </trkpt>
      <trkpt lat="45.999671705067158" lon="7.33510765247047">
        <ele>2103.98</ele>
        <time>2016-07-07T09:33:00Z</time>
      </trkpt>
      <trkpt lat="45.999716045334935" lon="7.33515115454793">
        <ele>2103.02</ele>
        <time>2016-07-07T09:33:13Z</time>
      </trkpt>
      <trkpt lat="45.99974705837667" lon="7.335229776799679">
        <ele>2102.54</ele>
        <time>2016-07-07T09:33:25Z</time>
      </trkpt>
      <trkpt lat="45.999725768342614" lon="7.335360702127218">
        <ele>2101.0999999999999</ele>
        <time>2016-07-07T09:33:37Z</time>
      </trkpt>
      <trkpt lat="45.99973582662642" lon="7.335420716553927">
        <ele>2100.1399999999999</ele>
        <time>2016-07-07T09:33:42Z</time>
      </trkpt>
      <trkpt lat="45.999775556847453" lon="7.335491459816694">
        <ele>2098.6999999999998</ele>
        <time>2016-07-07T09:33:49Z</time>
      </trkpt>
      <trkpt lat="45.999776562675834" lon="7.33561584725976">
        <ele>2095.8099999999999</ele>
        <time>2016-07-07T09:34:00Z</time>
      </trkpt>
      <trkpt lat="45.999803636223078" lon="7.335691871121526">
        <ele>2093.8899999999999</ele>
        <time>2016-07-07T09:34:09Z</time>
      </trkpt>
      <trkpt lat="45.999848060309887" lon="7.335703438147903">
        <ele>2091.9699999999998</ele>
        <time>2016-07-07T09:34:16Z</time>
      </trkpt>
      <trkpt lat="45.999935818836093" lon="7.335779378190637">
        <ele>2088.1199999999999</ele>
        <time>2016-07-07T09:34:27Z</time>
      </trkpt>
      <trkpt lat="45.999976303428411" lon="7.335835872218013">
        <ele>2087.1599999999999</ele>
        <time>2016-07-07T09:34:32Z</time>
      </trkpt>
      <trkpt lat="46.000053081661463" lon="7.335956487804651">
        <ele>2083.79</ele>
        <time>2016-07-07T09:34:45Z</time>
      </trkpt>
      <trkpt lat="46.000126423314214" lon="7.336065201088786">
        <ele>2080.9099999999999</ele>
        <time>2016-07-07T09:34:56Z</time>
      </trkpt>
      <trkpt lat="46.000225162133574" lon="7.336136028170586">
        <ele>2078.9899999999998</ele>
        <time>2016-07-07T09:35:07Z</time>
      </trkpt>
      <trkpt lat="46.000312920659781" lon="7.336176764219999">
        <ele>2076.0999999999999</ele>
        <time>2016-07-07T09:35:16Z</time>
      </trkpt>
      <trkpt lat="46.000348292291164" lon="7.3361802008003">
        <ele>2075.1399999999999</ele>
        <time>2016-07-07T09:35:20Z</time>
      </trkpt>
      <trkpt lat="46.000367905944586" lon="7.336180033162236">
        <ele>2074.6599999999999</ele>
        <time>2016-07-07T09:35:22Z</time>
      </trkpt>
      <trkpt lat="46.000393386930227" lon="7.336193695664406">
        <ele>2073.6999999999998</ele>
        <time>2016-07-07T09:35:25Z</time>
      </trkpt>
      <trkpt lat="46.000448539853096" lon="7.336199143901467">
        <ele>2072.7399999999998</ele>
        <time>2016-07-07T09:35:32Z</time>
      </trkpt>
      <trkpt lat="46.000476786866784" lon="7.336223786696792">
        <ele>2072.7399999999998</ele>
        <time>2016-07-07T09:35:42Z</time>
      </trkpt>
      <trkpt lat="46.000504195690155" lon="7.336213644593954">
        <ele>2072.2600000000002</ele>
        <time>2016-07-07T09:35:53Z</time>
      </trkpt>
      <trkpt lat="46.000498998910189" lon="7.336210627108812">
        <ele>2071.7800000000002</ele>
        <time>2016-07-07T09:36:07Z</time>
      </trkpt>
      <trkpt lat="46.000521462410688" lon="7.33619486913085">
        <ele>2071.3000000000002</ele>
        <time>2016-07-07T09:36:26Z</time>
      </trkpt>
      <trkpt lat="46.000515595078468" lon="7.336187660694122">
        <ele>2071.3000000000002</ele>
        <time>2016-07-07T09:36:35Z</time>
      </trkpt>
      <trkpt lat="46.000509057193995" lon="7.336185649037361">
        <ele>2070.8200000000002</ele>
        <time>2016-07-07T09:36:49Z</time>
      </trkpt>
      <trkpt lat="46.000496065244079" lon="7.336180619895458">
        <ele>2070.8200000000002</ele>
        <time>2016-07-07T09:37:03Z</time>
      </trkpt>
      <trkpt lat="46.000503106042743" lon="7.336186487227678">
        <ele>2071.3000000000002</ele>
        <time>2016-07-07T09:37:21Z</time>
      </trkpt>
      <trkpt lat="46.000492377206683" lon="7.336190845817328">
        <ele>2070.8200000000002</ele>
        <time>2016-07-07T09:37:34Z</time>
      </trkpt>
      <trkpt lat="46.000491874292493" lon="7.336180284619331">
        <ele>2070.8200000000002</ele>
        <time>2016-07-07T09:37:49Z</time>
      </trkpt>
      <trkpt lat="46.000494388863444" lon="7.336190929636359">
        <ele>2070.8200000000002</ele>
        <time>2016-07-07T09:38:07Z</time>
      </trkpt>
      <trkpt lat="46.000511655583978" lon="7.336196880787611">
        <ele>2070.3400000000001</ele>
        <time>2016-07-07T09:38:29Z</time>
      </trkpt>
      <trkpt lat="46.000517858192325" lon="7.336205514147878">
        <ele>2070.3400000000001</ele>
        <time>2016-07-07T09:38:46Z</time>
      </trkpt>
      <trkpt lat="46.00050151348114" lon="7.33620367012918">
        <ele>2070.3400000000001</ele>
        <time>2016-07-07T09:39:04Z</time>
      </trkpt>
      <trkpt lat="46.000500172376633" lon="7.336202748119831">
        <ele>2069.8600000000001</ele>
        <time>2016-07-07T09:39:33Z</time>
      </trkpt>
      <trkpt lat="46.000516600906849" lon="7.336191264912486">
        <ele>2069.8600000000001</ele>
        <time>2016-07-07T09:39:55Z</time>
      </trkpt>
      <trkpt lat="46.000516433268785" lon="7.336200149729848">
        <ele>2069.8600000000001</ele>
        <time>2016-07-07T09:40:18Z</time>
      </trkpt>
      <trkpt lat="46.000509727746248" lon="7.336201993748546">
        <ele>2069.3800000000001</ele>
        <time>2016-07-07T09:40:37Z</time>
      </trkpt>
      <trkpt lat="46.000503022223711" lon="7.336200987920165">
        <ele>2069.3800000000001</ele>
        <time>2016-07-07T09:40:51Z</time>
      </trkpt>
      <trkpt lat="46.000510146841407" lon="7.336195791140199">
        <ele>2069.3800000000001</ele>
        <time>2016-07-07T09:41:08Z</time>
      </trkpt>
      <trkpt lat="46.000518947839737" lon="7.336199479177594">
        <ele>2069.3800000000001</ele>
        <time>2016-07-07T09:41:21Z</time>
      </trkpt>
      <trkpt lat="46.000484665855765" lon="7.336190259084106">
        <ele>2068.8899999999999</ele>
        <time>2016-07-07T09:41:32Z</time>
      </trkpt>
      <trkpt lat="46.000489024445415" lon="7.336193108931184">
        <ele>2068.8899999999999</ele>
        <time>2016-07-07T09:41:50Z</time>
      </trkpt>
      <trkpt lat="46.000498915091157" lon="7.33620710670948">
        <ele>2068.8899999999999</ele>
        <time>2016-07-07T09:42:09Z</time>
      </trkpt>
      <trkpt lat="46.00052104331553" lon="7.336201071739197">
        <ele>2068.8899999999999</ele>
        <time>2016-07-07T09:42:25Z</time>
      </trkpt>
      <trkpt lat="46.000493550673127" lon="7.336200820282102">
        <ele>2068.4099999999999</ele>
        <time>2016-07-07T09:42:46Z</time>
      </trkpt>
      <trkpt lat="46.000505201518536" lon="7.336209956556559">
        <ele>2068.4099999999999</ele>
        <time>2016-07-07T09:43:04Z</time>
      </trkpt>
      <trkpt lat="46.00050981156528" lon="7.336199898272753">
        <ele>2068.4099999999999</ele>
        <time>2016-07-07T09:43:23Z</time>
      </trkpt>
      <trkpt lat="46.000506207346916" lon="7.336205178871751">
        <ele>2067.9299999999998</ele>
        <time>2016-07-07T09:43:40Z</time>
      </trkpt>
      <trkpt lat="46.000508638098836" lon="7.336195288226008">
        <ele>2067.9299999999998</ele>
        <time>2016-07-07T09:43:59Z</time>
      </trkpt>
      <trkpt lat="46.000505788251758" lon="7.33619486913085">
        <ele>2067.9299999999998</ele>
        <time>2016-07-07T09:44:27Z</time>
      </trkpt>
      <trkpt lat="46.00049908272922" lon="7.336191851645708">
        <ele>2067.9299999999998</ele>
        <time>2016-07-07T09:44:50Z</time>
      </trkpt>
      <trkpt lat="46.000500842928886" lon="7.336212890222669">
        <ele>2067.4499999999998</ele>
        <time>2016-07-07T09:45:13Z</time>
      </trkpt>
      <trkpt lat="46.000495897606015" lon="7.336210710927844">
        <ele>2067.4499999999998</ele>
        <time>2016-07-07T09:45:29Z</time>
      </trkpt>
      <trkpt lat="46.000509057193995" lon="7.336189672350884">
        <ele>2067.4499999999998</ele>
        <time>2016-07-07T09:45:55Z</time>
      </trkpt>
      <trkpt lat="46.000512326136231" lon="7.336181877180934">
        <ele>2067.4499999999998</ele>
        <time>2016-07-07T09:46:11Z</time>
      </trkpt>
      <trkpt lat="46.000513164326549" lon="7.336177602410317">
        <ele>2066.9699999999998</ele>
        <time>2016-07-07T09:46:32Z</time>
      </trkpt>
      <trkpt lat="46.000498915091157" lon="7.336203502491117">
        <ele>2066.9699999999998</ele>
        <time>2016-07-07T09:46:47Z</time>
      </trkpt>
      <trkpt lat="46.000508889555931" lon="7.336256308481097">
        <ele>2066.4899999999998</ele>
        <time>2016-07-07T09:47:11Z</time>
      </trkpt>
      <trkpt lat="46.000496065244079" lon="7.336276844143868">
        <ele>2066.4899999999998</ele>
        <time>2016-07-07T09:47:40Z</time>
      </trkpt>
      <trkpt lat="46.000486006960273" lon="7.336254632100463">
        <ele>2066.4899999999998</ele>
        <time>2016-07-07T09:48:09Z</time>
      </trkpt>
      <trkpt lat="46.000503022223711" lon="7.336233090609312">
        <ele>2066.4899999999998</ele>
        <time>2016-07-07T09:48:39Z</time>
      </trkpt>
      <trkpt lat="46.000486593693495" lon="7.336248848587275">
        <ele>2066.4899999999998</ele>
        <time>2016-07-07T09:49:11Z</time>
      </trkpt>
      <trkpt lat="46.000494221225381" lon="7.336245998740196">
        <ele>2066.4899999999998</ele>
        <time>2016-07-07T09:49:42Z</time>
      </trkpt>
      <trkpt lat="46.000509224832058" lon="7.336205011233687">
        <ele>2066.4899999999998</ele>
        <time>2016-07-07T09:50:05Z</time>
      </trkpt>
      <trkpt lat="46.000507967546582" lon="7.336197718977928">
        <ele>2066.4899999999998</ele>
        <time>2016-07-07T09:50:19Z</time>
      </trkpt>
      <trkpt lat="46.000511655583978" lon="7.336198640987277">
        <ele>2066.4899999999998</ele>
        <time>2016-07-07T09:50:51Z</time>
      </trkpt>
      <trkpt lat="46.000512326136231" lon="7.336204005405307">
        <ele>2066.4899999999998</ele>
        <time>2016-07-07T09:51:27Z</time>
      </trkpt>
      <trkpt lat="46.00048927590251" lon="7.336207861080766">
        <ele>2066.4899999999998</ele>
        <time>2016-07-07T09:51:57Z</time>
      </trkpt>
      <trkpt lat="46.000516265630722" lon="7.336202412843704">
        <ele>2066.0100000000002</ele>
        <time>2016-07-07T09:52:21Z</time>
      </trkpt>
      <trkpt lat="46.000496568158269" lon="7.336206017062068">
        <ele>2066.0100000000002</ele>
        <time>2016-07-07T09:52:49Z</time>
      </trkpt>
      <trkpt lat="46.000516097992659" lon="7.33621146529913">
        <ele>2066.0100000000002</ele>
        <time>2016-07-07T09:53:20Z</time>
      </trkpt>
      <trkpt lat="46.000495059415698" lon="7.336215069517493">
        <ele>2065.5300000000002</ele>
        <time>2016-07-07T09:53:51Z</time>
      </trkpt>
      <trkpt lat="46.00052640773356" lon="7.336209788918495">
        <ele>2065.5300000000002</ele>
        <time>2016-07-07T09:54:18Z</time>
      </trkpt>
      <trkpt lat="46.00051274523139" lon="7.336209705099464">
        <ele>2065.5300000000002</ele>
        <time>2016-07-07T09:54:51Z</time>
      </trkpt>
      <trkpt lat="46.000513164326549" lon="7.336219511926174">
        <ele>2065.5300000000002</ele>
        <time>2016-07-07T09:55:26Z</time>
      </trkpt>
      <trkpt lat="46.000505033880472" lon="7.336222110316157">
        <ele>2065.5300000000002</ele>
        <time>2016-07-07T09:55:55Z</time>
      </trkpt>
      <trkpt lat="46.000498412176967" lon="7.336221523582935">
        <ele>2065.5300000000002</ele>
        <time>2016-07-07T09:56:20Z</time>
      </trkpt>
      <trkpt lat="46.00051861256361" lon="7.336207944899797">
        <ele>2065.5300000000002</ele>
        <time>2016-07-07T09:56:50Z</time>
      </trkpt>
      <trkpt lat="46.00050981156528" lon="7.336199143901467">
        <ele>2065.5300000000002</ele>
        <time>2016-07-07T09:57:16Z</time>
      </trkpt>
      <trkpt lat="46.00052640773356" lon="7.336173830553889">
        <ele>2065.5300000000002</ele>
        <time>2016-07-07T09:57:28Z</time>
      </trkpt>
      <trkpt lat="46.000518947839737" lon="7.336182380095124">
        <ele>2065.5300000000002</ele>
        <time>2016-07-07T09:57:52Z</time>
      </trkpt>
      <trkpt lat="46.000507883727551" lon="7.336178692057729">
        <ele>2065.5300000000002</ele>
        <time>2016-07-07T09:58:16Z</time>
      </trkpt>
      <trkpt lat="46.000515595078468" lon="7.336173327639699">
        <ele>2065.5300000000002</ele>
        <time>2016-07-07T09:58:44Z</time>
      </trkpt>
      <trkpt lat="46.000545853748918" lon="7.33618606813252">
        <ele>2065.5300000000002</ele>
        <time>2016-07-07T09:59:03Z</time>
      </trkpt>
      <trkpt lat="46.000532610341907" lon="7.33619193546474">
        <ele>2065.5300000000002</ele>
        <time>2016-07-07T09:59:23Z</time>
      </trkpt>
      <trkpt lat="46.000524563714862" lon="7.336189337074757">
        <ele>2065.0500000000002</ele>
        <time>2016-07-07T09:59:48Z</time>
      </trkpt>
      <trkpt lat="46.000507045537233" lon="7.336188834160566">
        <ele>2065.0500000000002</ele>
        <time>2016-07-07T10:00:09Z</time>
      </trkpt>
      <trkpt lat="46.000497071072459" lon="7.336195455864072">
        <ele>2065.0500000000002</ele>
        <time>2016-07-07T10:00:27Z</time>
      </trkpt>
      <trkpt lat="46.000510063022375" lon="7.336228145286441">
        <ele>2065.5300000000002</ele>
        <time>2016-07-07T10:00:41Z</time>
      </trkpt>
      <trkpt lat="46.000507045537233" lon="7.336218170821667">
        <ele>2066.0100000000002</ele>
        <time>2016-07-07T10:00:58Z</time>
      </trkpt>
      <trkpt lat="46.000560773536563" lon="7.336234766989946">
        <ele>2065.5300000000002</ele>
        <time>2016-07-07T10:01:21Z</time>
      </trkpt>
      <trkpt lat="46.000515762716532" lon="7.336198808625341">
        <ele>2065.0500000000002</ele>
        <time>2016-07-07T10:01:39Z</time>
      </trkpt>
      <trkpt lat="46.000498663634062" lon="7.336179278790951">
        <ele>2064.5700000000002</ele>
        <time>2016-07-07T10:02:08Z</time>
      </trkpt>
      <trkpt lat="46.000508219003677" lon="7.336185816675425">
        <ele>2064.5700000000002</ele>
        <time>2016-07-07T10:02:29Z</time>
      </trkpt>
      <trkpt lat="46.000535795465112" lon="7.336177350953221">
        <ele>2065.0500000000002</ele>
        <time>2016-07-07T10:02:54Z</time>
      </trkpt>
      <trkpt lat="46.000524144619703" lon="7.336178189143539">
        <ele>2065.0500000000002</ele>
        <time>2016-07-07T10:03:11Z</time>
      </trkpt>
      <trkpt lat="46.000525401905179" lon="7.336183553561568">
        <ele>2065.0500000000002</ele>
        <time>2016-07-07T10:03:45Z</time>
      </trkpt>
      <trkpt lat="46.000530850142241" lon="7.336177518591285">
        <ele>2064.5700000000002</ele>
        <time>2016-07-07T10:04:12Z</time>
      </trkpt>
      <trkpt lat="46.000531269237399" lon="7.336182128638029">
        <ele>2065.5300000000002</ele>
        <time>2016-07-07T10:04:29Z</time>
      </trkpt>
      <trkpt lat="46.000532191246748" lon="7.336197718977928">
        <ele>2065.5300000000002</ele>
        <time>2016-07-07T10:04:39Z</time>
      </trkpt>
      <trkpt lat="46.000521462410688" lon="7.336236862465739">
        <ele>2065.5300000000002</ele>
        <time>2016-07-07T10:04:54Z</time>
      </trkpt>
      <trkpt lat="46.000510063022375" lon="7.336247339844704">
        <ele>2065.0500000000002</ele>
        <time>2016-07-07T10:05:08Z</time>
      </trkpt>
      <trkpt lat="46.000515846535563" lon="7.336263181641698">
        <ele>2066.0100000000002</ele>
        <time>2016-07-07T10:05:18Z</time>
      </trkpt>
      <trkpt lat="46.000532610341907" lon="7.336254632100463">
        <ele>2066.0100000000002</ele>
        <time>2016-07-07T10:05:29Z</time>
      </trkpt>
      <trkpt lat="46.000528084114194" lon="7.336300648748875">
        <ele>2066.0100000000002</ele>
        <time>2016-07-07T10:05:39Z</time>
      </trkpt>
      <trkpt lat="46.000540489330888" lon="7.336374074220657">
        <ele>2066.0100000000002</ele>
        <time>2016-07-07T10:05:47Z</time>
      </trkpt>
      <trkpt lat="46.000532610341907" lon="7.336543891578913">
        <ele>2066.0100000000002</ele>
        <time>2016-07-07T10:05:59Z</time>
      </trkpt>
      <trkpt lat="46.000525821000338" lon="7.336711026728153">
        <ele>2065.5300000000002</ele>
        <time>2016-07-07T10:06:10Z</time>
      </trkpt>
      <trkpt lat="46.000532442703843" lon="7.336865589022636">
        <ele>2065.5300000000002</ele>
        <time>2016-07-07T10:06:20Z</time>
      </trkpt>
      <trkpt lat="46.000518025830388" lon="7.336922502145171">
        <ele>2064.5700000000002</ele>
        <time>2016-07-07T10:06:24Z</time>
      </trkpt>
      <trkpt lat="46.000511320307851" lon="7.337066838517785">
        <ele>2065.5300000000002</ele>
        <time>2016-07-07T10:06:36Z</time>
      </trkpt>
      <trkpt lat="46.000515511259437" lon="7.337223580107093">
        <ele>2065.0500000000002</ele>
        <time>2016-07-07T10:06:47Z</time>
      </trkpt>
      <trkpt lat="46.0005640424788" lon="7.33728451654315">
        <ele>2064.5700000000002</ele>
        <time>2016-07-07T10:06:56Z</time>
      </trkpt>
      <trkpt lat="46.000551972538233" lon="7.337238835170865">
        <ele>2063.1300000000001</ele>
        <time>2016-07-07T10:07:04Z</time>
      </trkpt>
      <trkpt lat="46.000593714416027" lon="7.337217209860683">
        <ele>2060.7199999999998</ele>
        <time>2016-07-07T10:07:12Z</time>
      </trkpt>
      <trkpt lat="46.000637132674456" lon="7.337178653106093">
        <ele>2059.2800000000002</ele>
        <time>2016-07-07T10:07:21Z</time>
      </trkpt>
      <trkpt lat="46.000664122402668" lon="7.337223663926125">
        <ele>2056.4000000000001</ele>
        <time>2016-07-07T10:07:31Z</time>
      </trkpt>
      <trkpt lat="46.000684071332216" lon="7.337171696126461">
        <ele>2053.9899999999998</ele>
        <time>2016-07-07T10:07:40Z</time>
      </trkpt>
      <trkpt lat="46.000714665278792" lon="7.337267333641648">
        <ele>2051.5900000000001</ele>
        <time>2016-07-07T10:07:51Z</time>
      </trkpt>
      <trkpt lat="46.000727573409677" lon="7.337317876517773">
        <ele>2049.1900000000001</ele>
        <time>2016-07-07T10:08:00Z</time>
      </trkpt>
      <trkpt lat="46.000738888978958" lon="7.337177479639649">
        <ele>2045.8199999999999</ele>
        <time>2016-07-07T10:08:12Z</time>
      </trkpt>
      <trkpt lat="46.00078733637929" lon="7.337223747745156">
        <ele>2043.9000000000001</ele>
        <time>2016-07-07T10:08:21Z</time>
      </trkpt>
      <trkpt lat="46.000815583392978" lon="7.337299017235637">
        <ele>2041.98</ele>
        <time>2016-07-07T10:08:30Z</time>
      </trkpt>
      <trkpt lat="46.000830167904496" lon="7.337285438552499">
        <ele>2041.5</ele>
        <time>2016-07-07T10:08:33Z</time>
      </trkpt>
      <trkpt lat="46.000841651111841" lon="7.337162056937814">
        <ele>2038.1300000000001</ele>
        <time>2016-07-07T10:08:46Z</time>
      </trkpt>
      <trkpt lat="46.000833855941892" lon="7.33710958622396">
        <ele>2037.1700000000001</ele>
        <time>2016-07-07T10:08:51Z</time>
      </trkpt>
      <trkpt lat="46.000832011923194" lon="7.33697815798223">
        <ele>2034.77</ele>
        <time>2016-07-07T10:09:01Z</time>
      </trkpt>
      <trkpt lat="46.000881884247065" lon="7.337050996720791">
        <ele>2032.8399999999999</ele>
        <time>2016-07-07T10:09:10Z</time>
      </trkpt>
      <trkpt lat="46.000939635559916" lon="7.337141269817948">
        <ele>2029.48</ele>
        <time>2016-07-07T10:09:22Z</time>
      </trkpt>
      <trkpt lat="46.000949274748564" lon="7.337072873488069">
        <ele>2027.5599999999999</ele>
        <time>2016-07-07T10:09:31Z</time>
      </trkpt>
      <trkpt lat="46.000929744914174" lon="7.336957370862365">
        <ele>2025.6400000000001</ele>
        <time>2016-07-07T10:09:41Z</time>
      </trkpt>
      <trkpt lat="46.000940138474107" lon="7.336802976205945">
        <ele>2023.23</ele>
        <time>2016-07-07T10:09:53Z</time>
      </trkpt>
      <trkpt lat="46.000961512327194" lon="7.336750170215964">
        <ele>2021.79</ele>
        <time>2016-07-07T10:10:04Z</time>
      </trkpt>
      <trkpt lat="46.000984981656075" lon="7.33684622682631">
        <ele>2019.8699999999999</ele>
        <time>2016-07-07T10:10:16Z</time>
      </trkpt>
      <trkpt lat="46.001004260033369" lon="7.336769867688417">
        <ele>2017.9400000000001</ele>
        <time>2016-07-07T10:10:26Z</time>
      </trkpt>
      <trkpt lat="46.001041559502482" lon="7.336647575721145">
        <ele>2015.0599999999999</ele>
        <time>2016-07-07T10:10:38Z</time>
      </trkpt>
      <trkpt lat="46.001061927527189" lon="7.336549926549196">
        <ele>2013.1400000000001</ele>
        <time>2016-07-07T10:10:49Z</time>
      </trkpt>
      <trkpt lat="46.001097047701478" lon="7.336577251553536">
        <ele>2011.7</ele>
        <time>2016-07-07T10:10:56Z</time>
      </trkpt>
      <trkpt lat="46.001130994409323" lon="7.33668546192348">
        <ele>2009.29</ele>
        <time>2016-07-07T10:11:07Z</time>
      </trkpt>
      <trkpt lat="46.001140801236033" lon="7.336641540750861">
        <ele>2007.8499999999999</ele>
        <time>2016-07-07T10:11:17Z</time>
      </trkpt>
      <trkpt lat="46.001166366040707" lon="7.336535258218646">
        <ele>2005.9300000000001</ele>
        <time>2016-07-07T10:11:29Z</time>
      </trkpt>
      <trkpt lat="46.001219172030687" lon="7.336586136370897">
        <ele>2002.5599999999999</ele>
        <time>2016-07-07T10:11:42Z</time>
      </trkpt>
      <trkpt lat="46.001247670501471" lon="7.336553446948528">
        <ele>1999.2</ele>
        <time>2016-07-07T10:11:54Z</time>
      </trkpt>
      <trkpt lat="46.001252951100469" lon="7.336562415584922">
        <ele>1999.2</ele>
        <time>2016-07-07T10:11:55Z</time>
      </trkpt>
      <trkpt lat="46.001288238912821" lon="7.336643720045686">
        <ele>1997.28</ele>
        <time>2016-07-07T10:12:04Z</time>
      </trkpt>
      <trkpt lat="46.00128480233252" lon="7.336599798873067">
        <ele>1996.8</ele>
        <time>2016-07-07T10:12:07Z</time>
      </trkpt>
      <trkpt lat="46.001285975798965" lon="7.336428891867399">
        <ele>1994.3900000000001</ele>
        <time>2016-07-07T10:12:19Z</time>
      </trkpt>
      <trkpt lat="46.001304499804974" lon="7.336311209946871">
        <ele>1991.51</ele>
        <time>2016-07-07T10:12:31Z</time>
      </trkpt>
      <trkpt lat="46.001322353258729" lon="7.336275083944202">
        <ele>1989.5899999999999</ele>
        <time>2016-07-07T10:12:42Z</time>
      </trkpt>
      <trkpt lat="46.001330399885774" lon="7.336274329572916">
        <ele>1989.0999999999999</ele>
        <time>2016-07-07T10:12:43Z</time>
      </trkpt>
      <trkpt lat="46.001369459554553" lon="7.336314897984266">
        <ele>1988.1400000000001</ele>
        <time>2016-07-07T10:12:47Z</time>
      </trkpt>
      <trkpt lat="46.001418577507138" lon="7.336434507742524">
        <ele>1985.74</ele>
        <time>2016-07-07T10:12:58Z</time>
      </trkpt>
      <trkpt lat="46.001454619690776" lon="7.336413552984595">
        <ele>1983.8199999999999</ele>
        <time>2016-07-07T10:13:07Z</time>
      </trkpt>
      <trkpt lat="46.001443471759558" lon="7.336308863013983">
        <ele>1981.4100000000001</ele>
        <time>2016-07-07T10:13:18Z</time>
      </trkpt>
      <trkpt lat="46.001429473981261" lon="7.336200401186943">
        <ele>1978.53</ele>
        <time>2016-07-07T10:13:29Z</time>
      </trkpt>
      <trkpt lat="46.001437604427338" lon="7.336099818348885">
        <ele>1975.1700000000001</ele>
        <time>2016-07-07T10:13:41Z</time>
      </trkpt>
      <trkpt lat="46.001442046836019" lon="7.336102752014995">
        <ele>1975.1700000000001</ele>
        <time>2016-07-07T10:13:42Z</time>
      </trkpt>
      <trkpt lat="46.001471215859056" lon="7.336132004857063">
        <ele>1974.2</ele>
        <time>2016-07-07T10:13:46Z</time>
      </trkpt>
      <trkpt lat="46.001521088182926" lon="7.336158072575927">
        <ele>1972.28</ele>
        <time>2016-07-07T10:13:53Z</time>
      </trkpt>
      <trkpt lat="46.001538522541523" lon="7.336132591590285">
        <ele>1970.3599999999999</ele>
        <time>2016-07-07T10:14:02Z</time>
      </trkpt>
      <trkpt lat="46.001507760956883" lon="7.336034774780273">
        <ele>1967.48</ele>
        <time>2016-07-07T10:14:13Z</time>
      </trkpt>
      <trkpt lat="46.0015051625669" lon="7.336026895791292">
        <ele>1966.99</ele>
        <time>2016-07-07T10:14:14Z</time>
      </trkpt>
      <trkpt lat="46.001518154516816" lon="7.335917260497809">
        <ele>1964.5899999999999</ele>
        <time>2016-07-07T10:14:25Z</time>
      </trkpt>
      <trkpt lat="46.001546988263726" lon="7.335900161415339">
        <ele>1963.1500000000001</ele>
        <time>2016-07-07T10:14:33Z</time>
      </trkpt>
      <trkpt lat="46.001560483127832" lon="7.335964785888791">
        <ele>1961.71</ele>
        <time>2016-07-07T10:14:38Z</time>
      </trkpt>
      <trkpt lat="46.00161605514586" lon="7.33604634180665">
        <ele>1959.78</ele>
        <time>2016-07-07T10:14:49Z</time>
      </trkpt>
      <trkpt lat="46.001645643264055" lon="7.336070230230689">
        <ele>1958.3399999999999</ele>
        <time>2016-07-07T10:14:57Z</time>
      </trkpt>
      <trkpt lat="46.001637680456042" lon="7.336007952690125">
        <ele>1956.9000000000001</ele>
        <time>2016-07-07T10:15:03Z</time>
      </trkpt>
      <trkpt lat="46.001637764275074" lon="7.33588750474155">
        <ele>1954.02</ele>
        <time>2016-07-07T10:15:15Z</time>
      </trkpt>
      <trkpt lat="46.001674393191934" lon="7.335938550531864">
        <ele>1952.0899999999999</ele>
        <time>2016-07-07T10:15:24Z</time>
      </trkpt>
      <trkpt lat="46.001719236373901" lon="7.335996385663748">
        <ele>1949.21</ele>
        <time>2016-07-07T10:15:34Z</time>
      </trkpt>
      <trkpt lat="46.001731473952532" lon="7.336015328764916">
        <ele>1948.73</ele>
        <time>2016-07-07T10:15:36Z</time>
      </trkpt>
      <trkpt lat="46.001768689602613" lon="7.336131669580936">
        <ele>1946.8099999999999</ele>
        <time>2016-07-07T10:15:46Z</time>
      </trkpt>
      <trkpt lat="46.001797271892428" lon="7.336139967665076">
        <ele>1944.8800000000001</ele>
        <time>2016-07-07T10:15:55Z</time>
      </trkpt>
      <trkpt lat="46.001811437308788" lon="7.336061177775264">
        <ele>1942.48</ele>
        <time>2016-07-07T10:16:08Z</time>
      </trkpt>
      <trkpt lat="46.001846306025982" lon="7.336115324869752">
        <ele>1940.0799999999999</ele>
        <time>2016-07-07T10:16:18Z</time>
      </trkpt>
      <trkpt lat="46.001854604110122" lon="7.336173327639699">
        <ele>1939.1199999999999</ele>
        <time>2016-07-07T10:16:29Z</time>
      </trkpt>
      <trkpt lat="46.001871870830655" lon="7.336237197741866">
        <ele>1938.1600000000001</ele>
        <time>2016-07-07T10:16:38Z</time>
      </trkpt>
      <trkpt lat="46.001823926344514" lon="7.336299726739526">
        <ele>1937.1900000000001</ele>
        <time>2016-07-07T10:16:45Z</time>
      </trkpt>
      <trkpt lat="46.001795679330826" lon="7.336322357878089">
        <ele>1936.71</ele>
        <time>2016-07-07T10:16:48Z</time>
      </trkpt>
      <trkpt lat="46.001737676560879" lon="7.336399806663394">
        <ele>1935.75</ele>
        <time>2016-07-07T10:16:56Z</time>
      </trkpt>
      <trkpt lat="46.001708507537842" lon="7.336476501077414">
        <ele>1935.27</ele>
        <time>2016-07-07T10:17:05Z</time>
      </trkpt>
      <trkpt lat="46.001695347949862" lon="7.336483374238014">
        <ele>1935.27</ele>
        <time>2016-07-07T10:17:06Z</time>
      </trkpt>
      <trkpt lat="46.001690151169896" lon="7.336519500240684">
        <ele>1934.3099999999999</ele>
        <time>2016-07-07T10:17:15Z</time>
      </trkpt>
      <trkpt lat="46.001843707635999" lon="7.336500054225326">
        <ele>1932.8699999999999</ele>
        <time>2016-07-07T10:17:20Z</time>
      </trkpt>
      <trkpt lat="46.001926269382238" lon="7.336596446111798">
        <ele>1930.95</ele>
        <time>2016-07-07T10:17:31Z</time>
      </trkpt>
      <trkpt lat="46.001937249675393" lon="7.336574317887425">
        <ele>1930.95</ele>
        <time>2016-07-07T10:17:36Z</time>
      </trkpt>
      <trkpt lat="46.001953678205609" lon="7.336491923779249">
        <ele>1928.54</ele>
        <time>2016-07-07T10:17:45Z</time>
      </trkpt>
      <trkpt lat="46.001975806429982" lon="7.336512627080083">
        <ele>1926.6199999999999</ele>
        <time>2016-07-07T10:17:54Z</time>
      </trkpt>
      <trkpt lat="46.001971196383238" lon="7.336525451391935">
        <ele>1926.6199999999999</ele>
        <time>2016-07-07T10:17:55Z</time>
      </trkpt>
      <trkpt lat="46.002036072313786" lon="7.336538275703788">
        <ele>1926.1400000000001</ele>
        <time>2016-07-07T10:18:05Z</time>
      </trkpt>
      <trkpt lat="46.002022493630648" lon="7.336564511060715">
        <ele>1926.1400000000001</ele>
        <time>2016-07-07T10:18:08Z</time>
      </trkpt>
      <trkpt lat="46.002018554136157" lon="7.336594602093101">
        <ele>1925.1800000000001</ele>
        <time>2016-07-07T10:18:10Z</time>
      </trkpt>
      <trkpt lat="46.001924509182572" lon="7.336630476638675">
        <ele>1922.77</ele>
        <time>2016-07-07T10:18:20Z</time>
      </trkpt>
      <trkpt lat="46.001860722899437" lon="7.336495192721486">
        <ele>1919.8900000000001</ele>
        <time>2016-07-07T10:18:30Z</time>
      </trkpt>
      <trkpt lat="46.001881090924144" lon="7.336433669552207">
        <ele>1918.45</ele>
        <time>2016-07-07T10:18:37Z</time>
      </trkpt>
      <trkpt lat="46.001946050673723" lon="7.336482116952539">
        <ele>1917.01</ele>
        <time>2016-07-07T10:18:45Z</time>
      </trkpt>
      <trkpt lat="46.001951415091753" lon="7.336546992883086">
        <ele>1915.0799999999999</ele>
        <time>2016-07-07T10:18:51Z</time>
      </trkpt>
      <trkpt lat="46.001936327666044" lon="7.336576916277409">
        <ele>1913.1600000000001</ele>
        <time>2016-07-07T10:19:03Z</time>
      </trkpt>
      <trkpt lat="46.001942530274391" lon="7.336515812203288">
        <ele>1911.72</ele>
        <time>2016-07-07T10:19:12Z</time>
      </trkpt>
      <trkpt lat="46.001978321000934" lon="7.336466526612639">
        <ele>1910.28</ele>
        <time>2016-07-07T10:19:19Z</time>
      </trkpt>
      <trkpt lat="46.002006232738495" lon="7.336574569344521">
        <ele>1907.3900000000001</ele>
        <time>2016-07-07T10:19:31Z</time>
      </trkpt>
      <trkpt lat="46.002025930210948" lon="7.336449762806296">
        <ele>1905.95</ele>
        <time>2016-07-07T10:19:42Z</time>
      </trkpt>
      <trkpt lat="46.002049734815955" lon="7.336483960971236">
        <ele>1904.03</ele>
        <time>2016-07-07T10:19:51Z</time>
      </trkpt>
      <trkpt lat="46.002075467258692" lon="7.336593428626657">
        <ele>1902.1099999999999</ele>
        <time>2016-07-07T10:20:02Z</time>
      </trkpt>
      <trkpt lat="46.002107067033648" lon="7.336479015648365">
        <ele>1900.1800000000001</ele>
        <time>2016-07-07T10:20:11Z</time>
      </trkpt>
      <trkpt lat="46.00212768651545" lon="7.336357729509473">
        <ele>1896.8199999999999</ele>
        <time>2016-07-07T10:20:23Z</time>
      </trkpt>
      <trkpt lat="46.002147970721126" lon="7.336397962644696">
        <ele>1895.8599999999999</ele>
        <time>2016-07-07T10:20:26Z</time>
      </trkpt>
      <trkpt lat="46.002175631001592" lon="7.33645093627274">
        <ele>1894.4200000000001</ele>
        <time>2016-07-07T10:20:37Z</time>
      </trkpt>
      <trkpt lat="46.00218920968473" lon="7.336373655125499">
        <ele>1892.01</ele>
        <time>2016-07-07T10:20:49Z</time>
      </trkpt>
      <trkpt lat="46.002234304323792" lon="7.336515225470066">
        <ele>1889.6099999999999</ele>
        <time>2016-07-07T10:21:01Z</time>
      </trkpt>
      <trkpt lat="46.002234471961856" lon="7.336612287908793">
        <ele>1888.1700000000001</ele>
        <time>2016-07-07T10:21:12Z</time>
      </trkpt>
      <trkpt lat="46.002226341515779" lon="7.336675990372896">
        <ele>1887.6900000000001</ele>
        <time>2016-07-07T10:21:22Z</time>
      </trkpt>
      <trkpt lat="46.0022390820086" lon="7.33672259375453">
        <ele>1886.72</ele>
        <time>2016-07-07T10:21:26Z</time>
      </trkpt>
      <trkpt lat="46.002187868580222" lon="7.336875228211284">
        <ele>1885.28</ele>
        <time>2016-07-07T10:21:37Z</time>
      </trkpt>
      <trkpt lat="46.002171104773879" lon="7.336895847693086">
        <ele>1885.28</ele>
        <time>2016-07-07T10:21:39Z</time>
      </trkpt>
      <trkpt lat="46.002121064811945" lon="7.337076729163528">
        <ele>1886.24</ele>
        <time>2016-07-07T10:21:52Z</time>
      </trkpt>
      <trkpt lat="46.00210371427238" lon="7.337140263989568">
        <ele>1886.24</ele>
        <time>2016-07-07T10:21:57Z</time>
      </trkpt>
      <trkpt lat="46.002092147246003" lon="7.337266160175204">
        <ele>1886.72</ele>
        <time>2016-07-07T10:22:06Z</time>
      </trkpt>
      <trkpt lat="46.002084100618958" lon="7.337331455200911">
        <ele>1887.21</ele>
        <time>2016-07-07T10:22:12Z</time>
      </trkpt>
      <trkpt lat="46.002089967951179" lon="7.337384093552828">
        <ele>1887.6900000000001</ele>
        <time>2016-07-07T10:22:16Z</time>
      </trkpt>
      <trkpt lat="46.002054680138826" lon="7.337576961144805">
        <ele>1885.76</ele>
        <time>2016-07-07T10:22:28Z</time>
      </trkpt>
      <trkpt lat="46.002047471702099" lon="7.337756082415581">
        <ele>1883.8399999999999</ele>
        <time>2016-07-07T10:22:40Z</time>
      </trkpt>
      <trkpt lat="46.002043783664703" lon="7.337797237560153">
        <ele>1883.8399999999999</ele>
        <time>2016-07-07T10:22:43Z</time>
      </trkpt>
      <trkpt lat="46.002033222466707" lon="7.337924558669329">
        <ele>1884.3199999999999</ele>
        <time>2016-07-07T10:22:53Z</time>
      </trkpt>
      <trkpt lat="46.002055602148175" lon="7.337950374931097">
        <ele>1885.76</ele>
        <time>2016-07-07T10:22:58Z</time>
      </trkpt>
      <trkpt lat="46.002136068418622" lon="7.338046263903379">
        <ele>1885.76</ele>
        <time>2016-07-07T10:23:09Z</time>
      </trkpt>
      <trkpt lat="46.002158783376217" lon="7.338175009936094">
        <ele>1885.76</ele>
        <time>2016-07-07T10:23:18Z</time>
      </trkpt>
      <trkpt lat="46.002143360674381" lon="7.33833166770637">
        <ele>1886.24</ele>
        <time>2016-07-07T10:23:29Z</time>
      </trkpt>
      <trkpt lat="46.002146545797586" lon="7.338451109826565">
        <ele>1885.76</ele>
        <time>2016-07-07T10:23:40Z</time>
      </trkpt>
      <trkpt lat="46.00214084610343" lon="7.338601313531399">
        <ele>1885.76</ele>
        <time>2016-07-07T10:23:51Z</time>
      </trkpt>
      <trkpt lat="46.002095248550177" lon="7.338789654895663">
        <ele>1886.24</ele>
        <time>2016-07-07T10:24:04Z</time>
      </trkpt>
      <trkpt lat="46.002057194709778" lon="7.338981432840228">
        <ele>1886.24</ele>
        <time>2016-07-07T10:24:18Z</time>
      </trkpt>
      <trkpt lat="46.002016793936491" lon="7.339132139459252">
        <ele>1885.76</ele>
        <time>2016-07-07T10:24:30Z</time>
      </trkpt>
      <trkpt lat="46.001974046230316" lon="7.339255353435874">
        <ele>1885.28</ele>
        <time>2016-07-07T10:24:40Z</time>
      </trkpt>
      <trkpt lat="46.001948984339833" lon="7.339395750313997">
        <ele>1885.28</ele>
        <time>2016-07-07T10:24:53Z</time>
      </trkpt>
      <trkpt lat="46.001948146149516" lon="7.33941737562418">
        <ele>1885.28</ele>
        <time>2016-07-07T10:25:05Z</time>
      </trkpt>
      <trkpt lat="46.001904560253024" lon="7.339455597102642">
        <ele>1885.28</ele>
        <time>2016-07-07T10:25:20Z</time>
      </trkpt>
      <trkpt lat="46.001916546374559" lon="7.339444030076265">
        <ele>1884.8</ele>
        <time>2016-07-07T10:25:29Z</time>
      </trkpt>
      <trkpt lat="46.001924928277731" lon="7.339445035904646">
        <ele>1885.28</ele>
        <time>2016-07-07T10:25:40Z</time>
      </trkpt>
      <trkpt lat="46.001914450898767" lon="7.339421147480607">
        <ele>1885.28</ele>
        <time>2016-07-07T10:25:54Z</time>
      </trkpt>
      <trkpt lat="46.001917133107781" lon="7.339410921558738">
        <ele>1885.28</ele>
        <time>2016-07-07T10:26:05Z</time>
      </trkpt>
      <trkpt lat="46.001927275210619" lon="7.339435815811157">
        <ele>1884.8</ele>
        <time>2016-07-07T10:26:20Z</time>
      </trkpt>
      <trkpt lat="46.001929203048348" lon="7.339416788890958">
        <ele>1885.28</ele>
        <time>2016-07-07T10:26:37Z</time>
      </trkpt>
      <trkpt lat="46.00191118195653" lon="7.339448304846883">
        <ele>1884.8</ele>
        <time>2016-07-07T10:26:43Z</time>
      </trkpt>
      <trkpt lat="46.001847982406616" lon="7.339550983160734">
        <ele>1884.3199999999999</ele>
        <time>2016-07-07T10:26:51Z</time>
      </trkpt>
      <trkpt lat="46.00175335071981" lon="7.339713927358389">
        <ele>1883.8399999999999</ele>
        <time>2016-07-07T10:27:04Z</time>
      </trkpt>
      <trkpt lat="46.001690570265055" lon="7.339810905978084">
        <ele>1883.8399999999999</ele>
        <time>2016-07-07T10:27:12Z</time>
      </trkpt>
      <trkpt lat="46.00160825997591" lon="7.339951051399112">
        <ele>1883.3599999999999</ele>
        <time>2016-07-07T10:27:24Z</time>
      </trkpt>
      <trkpt lat="46.00156182423234" lon="7.340075271204114">
        <ele>1883.3599999999999</ele>
        <time>2016-07-07T10:27:34Z</time>
      </trkpt>
      <trkpt lat="46.001548916101456" lon="7.340120114386082">
        <ele>1883.3599999999999</ele>
        <time>2016-07-07T10:27:37Z</time>
      </trkpt>
      <trkpt lat="46.001529134809971" lon="7.340194629505277">
        <ele>1882.8800000000001</ele>
        <time>2016-07-07T10:27:42Z</time>
      </trkpt>
      <trkpt lat="46.00147976540029" lon="7.340381797403097">
        <ele>1881.9200000000001</ele>
        <time>2016-07-07T10:27:54Z</time>
      </trkpt>
      <trkpt lat="46.001462666317821" lon="7.340514482930303">
        <ele>1881.9200000000001</ele>
        <time>2016-07-07T10:28:03Z</time>
      </trkpt>
      <trkpt lat="46.001451518386602" lon="7.340611210092902">
        <ele>1881.4400000000001</ele>
        <time>2016-07-07T10:28:09Z</time>
      </trkpt>
      <trkpt lat="46.001447243615985" lon="7.340675080195069">
        <ele>1881.4400000000001</ele>
        <time>2016-07-07T10:28:13Z</time>
      </trkpt>
      <trkpt lat="46.001464007422328" lon="7.340826876461506">
        <ele>1881.9200000000001</ele>
        <time>2016-07-07T10:28:24Z</time>
      </trkpt>
      <trkpt lat="46.001436850056052" lon="7.340965261682868">
        <ele>1882.8800000000001</ele>
        <time>2016-07-07T10:28:35Z</time>
      </trkpt>
      <trkpt lat="46.001418912783265" lon="7.341076238080859">
        <ele>1883.8399999999999</ele>
        <time>2016-07-07T10:28:44Z</time>
      </trkpt>
      <trkpt lat="46.00140742957592" lon="7.341248821467161">
        <ele>1885.28</ele>
        <time>2016-07-07T10:28:56Z</time>
      </trkpt>
      <trkpt lat="46.001393599435687" lon="7.341374214738607">
        <ele>1885.76</ele>
        <time>2016-07-07T10:29:06Z</time>
      </trkpt>
      <trkpt lat="46.001395443454385" lon="7.341442778706551">
        <ele>1886.72</ele>
        <time>2016-07-07T10:29:11Z</time>
      </trkpt>
      <trkpt lat="46.001394605264068" lon="7.341612176969647">
        <ele>1887.6900000000001</ele>
        <time>2016-07-07T10:29:23Z</time>
      </trkpt>
      <trkpt lat="46.001385385170579" lon="7.341759111732245">
        <ele>1888.1700000000001</ele>
        <time>2016-07-07T10:29:34Z</time>
      </trkpt>
      <trkpt lat="46.001361077651381" lon="7.34190059825778">
        <ele>1889.6099999999999</ele>
        <time>2016-07-07T10:29:46Z</time>
      </trkpt>
      <trkpt lat="46.001343056559563" lon="7.342056669294834">
        <ele>1891.05</ele>
        <time>2016-07-07T10:29:58Z</time>
      </trkpt>
      <trkpt lat="46.001279270276427" lon="7.342195808887482">
        <ele>1891.53</ele>
        <time>2016-07-07T10:30:10Z</time>
      </trkpt>
      <trkpt lat="46.001199223101139" lon="7.342324471101165">
        <ele>1893.45</ele>
        <time>2016-07-07T10:30:24Z</time>
      </trkpt>
      <trkpt lat="46.001121187582612" lon="7.342435698956251">
        <ele>1894.4200000000001</ele>
        <time>2016-07-07T10:30:37Z</time>
      </trkpt>
      <trkpt lat="46.001090509817004" lon="7.34248012304306">
        <ele>1894.9000000000001</ele>
        <time>2016-07-07T10:30:42Z</time>
      </trkpt>
      <trkpt lat="46.00099210627377" lon="7.342601576820016">
        <ele>1895.8599999999999</ele>
        <time>2016-07-07T10:30:56Z</time>
      </trkpt>
      <trkpt lat="46.000896552577615" lon="7.342763179913163">
        <ele>1897.3</ele>
        <time>2016-07-07T10:31:13Z</time>
      </trkpt>
      <trkpt lat="46.000827150419354" lon="7.342882286757231">
        <ele>1898.74</ele>
        <time>2016-07-07T10:31:26Z</time>
      </trkpt>
      <trkpt lat="46.000749533995986" lon="7.34302737750113">
        <ele>1899.22</ele>
        <time>2016-07-07T10:31:40Z</time>
      </trkpt>
      <trkpt lat="46.000660015270114" lon="7.343179760500789">
        <ele>1900.6600000000001</ele>
        <time>2016-07-07T10:31:55Z</time>
      </trkpt>
      <trkpt lat="46.000573094934225" lon="7.34331370331347">
        <ele>1901.6300000000001</ele>
        <time>2016-07-07T10:32:08Z</time>
      </trkpt>
      <trkpt lat="46.000460358336568" lon="7.343395929783583">
        <ele>1903.55</ele>
        <time>2016-07-07T10:32:21Z</time>
      </trkpt>
      <trkpt lat="46.00036321207881" lon="7.34345736913383">
        <ele>1904.51</ele>
        <time>2016-07-07T10:32:33Z</time>
      </trkpt>
      <trkpt lat="46.00026891566813" lon="7.34352232888341">
        <ele>1905.47</ele>
        <time>2016-07-07T10:32:45Z</time>
      </trkpt>
      <trkpt lat="46.000190461054444" lon="7.343595335260034">
        <ele>1906.9100000000001</ele>
        <time>2016-07-07T10:32:57Z</time>
      </trkpt>
      <trkpt lat="46.000128937885165" lon="7.34370170161128">
        <ele>1908.8299999999999</ele>
        <time>2016-07-07T10:33:10Z</time>
      </trkpt>
      <trkpt lat="46.000084597617388" lon="7.343850396573544">
        <ele>1909.8</ele>
        <time>2016-07-07T10:33:25Z</time>
      </trkpt>
      <trkpt lat="46.000095494091511" lon="7.343926755711436">
        <ele>1909.3199999999999</ele>
        <time>2016-07-07T10:33:36Z</time>
      </trkpt>
      <trkpt lat="46.000081831589341" lon="7.343929940834642">
        <ele>1909.3199999999999</ele>
        <time>2016-07-07T10:33:54Z</time>
      </trkpt>
      <trkpt lat="46.000087782740593" lon="7.343968329951167">
        <ele>1909.3199999999999</ele>
        <time>2016-07-07T10:34:06Z</time>
      </trkpt>
      <trkpt lat="46.000058278441429" lon="7.343971682712436">
        <ele>1909.3199999999999</ele>
        <time>2016-07-07T10:34:17Z</time>
      </trkpt>
      <trkpt lat="46.000056518241763" lon="7.343958606943488">
        <ele>1909.3199999999999</ele>
        <time>2016-07-07T10:34:27Z</time>
      </trkpt>
      <trkpt lat="46.000047298148274" lon="7.343983501195908">
        <ele>1910.28</ele>
        <time>2016-07-07T10:34:41Z</time>
      </trkpt>
      <trkpt lat="46.000017626211047" lon="7.344011329114437">
        <ele>1910.28</ele>
        <time>2016-07-07T10:34:52Z</time>
      </trkpt>
      <trkpt lat="45.999968759715557" lon="7.344110067933798">
        <ele>1911.24</ele>
        <time>2016-07-07T10:35:03Z</time>
      </trkpt>
      <trkpt lat="45.999918133020401" lon="7.344148540869355">
        <ele>1911.72</ele>
        <time>2016-07-07T10:35:15Z</time>
      </trkpt>
      <trkpt lat="45.999883683398366" lon="7.344140242785215">
        <ele>1911.72</ele>
        <time>2016-07-07T10:35:26Z</time>
      </trkpt>
      <trkpt lat="45.999839259311557" lon="7.344202771782875">
        <ele>1912.2</ele>
        <time>2016-07-07T10:35:36Z</time>
      </trkpt>
      <trkpt lat="45.999840768054128" lon="7.344221882522106">
        <ele>1912.2</ele>
        <time>2016-07-07T10:35:50Z</time>
      </trkpt>
      <trkpt lat="45.999837834388018" lon="7.344271587207913">
        <ele>1912.2</ele>
        <time>2016-07-07T10:36:08Z</time>
      </trkpt>
      <trkpt lat="45.999811179935932" lon="7.344380635768175">
        <ele>1913.1600000000001</ele>
        <time>2016-07-07T10:36:19Z</time>
      </trkpt>
      <trkpt lat="45.999807491898537" lon="7.344432016834617">
        <ele>1913.1600000000001</ele>
        <time>2016-07-07T10:36:32Z</time>
      </trkpt>
      <trkpt lat="45.999779496341944" lon="7.344544837251306">
        <ele>1914.1199999999999</ele>
        <time>2016-07-07T10:36:43Z</time>
      </trkpt>
      <trkpt lat="45.999740185216069" lon="7.344613233581185">
        <ele>1917.49</ele>
        <time>2016-07-07T10:36:50Z</time>
      </trkpt>
      <trkpt lat="45.999730294570327" lon="7.344620106741786">
        <ele>1915.5599999999999</ele>
        <time>2016-07-07T10:36:51Z</time>
      </trkpt>
      <trkpt lat="45.999635495245457" lon="7.344702165573835">
        <ele>1917.01</ele>
        <time>2016-07-07T10:37:05Z</time>
      </trkpt>
      <trkpt lat="45.999543545767665" lon="7.344762180000544">
        <ele>1917.97</ele>
        <time>2016-07-07T10:37:16Z</time>
      </trkpt>
      <trkpt lat="45.99951840005815" lon="7.344769556075335">
        <ele>1918.45</ele>
        <time>2016-07-07T10:37:19Z</time>
      </trkpt>
      <trkpt lat="45.999412033706903" lon="7.344858404248953">
        <ele>1919.8900000000001</ele>
        <time>2016-07-07T10:37:32Z</time>
      </trkpt>
      <trkpt lat="45.999314468353987" lon="7.344932248815894">
        <ele>1920.8499999999999</ele>
        <time>2016-07-07T10:37:44Z</time>
      </trkpt>
      <trkpt lat="45.999242719262838" lon="7.345043644309044">
        <ele>1922.29</ele>
        <time>2016-07-07T10:37:57Z</time>
      </trkpt>
      <trkpt lat="45.999190080910921" lon="7.345145819708705">
        <ele>1923.25</ele>
        <time>2016-07-07T10:38:08Z</time>
      </trkpt>
      <trkpt lat="45.99914213642478" lon="7.345235254615545">
        <ele>1924.22</ele>
        <time>2016-07-07T10:38:17Z</time>
      </trkpt>
      <trkpt lat="45.999097628518939" lon="7.345314044505358">
        <ele>1925.1800000000001</ele>
        <time>2016-07-07T10:38:25Z</time>
      </trkpt>
      <trkpt lat="45.998995704576373" lon="7.345335585996509">
        <ele>1926.1400000000001</ele>
        <time>2016-07-07T10:38:36Z</time>
      </trkpt>
      <trkpt lat="45.998987322673202" lon="7.345191249623895">
        <ele>1927.5799999999999</ele>
        <time>2016-07-07T10:38:48Z</time>
      </trkpt>
      <trkpt lat="45.999057730659842" lon="7.345074992626905">
        <ele>1929.02</ele>
        <time>2016-07-07T10:39:00Z</time>
      </trkpt>
      <trkpt lat="45.999119840562344" lon="7.344976756721735">
        <ele>1929.98</ele>
        <time>2016-07-07T10:39:11Z</time>
      </trkpt>
      <trkpt lat="45.999178010970354" lon="7.344877095893025">
        <ele>1930.95</ele>
        <time>2016-07-07T10:39:22Z</time>
      </trkpt>
      <trkpt lat="45.999240120872855" lon="7.344776848331094">
        <ele>1931.9100000000001</ele>
        <time>2016-07-07T10:39:34Z</time>
      </trkpt>
      <trkpt lat="45.999293178319931" lon="7.34466134570539">
        <ele>1933.3499999999999</ele>
        <time>2016-07-07T10:39:46Z</time>
      </trkpt>
      <trkpt lat="45.999344391748309" lon="7.344520529732108">
        <ele>1934.79</ele>
        <time>2016-07-07T10:39:59Z</time>
      </trkpt>
      <trkpt lat="45.999391162768006" lon="7.344404608011246">
        <ele>1935.75</ele>
        <time>2016-07-07T10:40:10Z</time>
      </trkpt>
      <trkpt lat="45.999439861625433" lon="7.344270832836628">
        <ele>1937.1900000000001</ele>
        <time>2016-07-07T10:40:23Z</time>
      </trkpt>
      <trkpt lat="45.999466432258487" lon="7.344145607203245">
        <ele>1937.6700000000001</ele>
        <time>2016-07-07T10:40:34Z</time>
      </trkpt>
      <trkpt lat="45.999469449743629" lon="7.344105038791895">
        <ele>1938.1600000000001</ele>
        <time>2016-07-07T10:40:37Z</time>
      </trkpt>
      <trkpt lat="45.999475568532944" lon="7.343978807330132">
        <ele>1939.1199999999999</ele>
        <time>2016-07-07T10:40:45Z</time>
      </trkpt>
      <trkpt lat="45.999479088932276" lon="7.343945698812604">
        <ele>1939.1199999999999</ele>
        <time>2016-07-07T10:40:47Z</time>
      </trkpt>
      <trkpt lat="45.999477999284863" lon="7.343790717422962">
        <ele>1940.5599999999999</ele>
        <time>2016-07-07T10:40:57Z</time>
      </trkpt>
      <trkpt lat="45.999469282105565" lon="7.343671442940831">
        <ele>1940.5599999999999</ele>
        <time>2016-07-07T10:41:07Z</time>
      </trkpt>
      <trkpt lat="45.999455200508237" lon="7.34360690228641">
        <ele>1941.04</ele>
        <time>2016-07-07T10:41:13Z</time>
      </trkpt>
      <trkpt lat="45.999405579641461" lon="7.343499697744846">
        <ele>1942.48</ele>
        <time>2016-07-07T10:41:25Z</time>
      </trkpt>
      <trkpt lat="45.999325783923268" lon="7.34351696446538">
        <ele>1943.9200000000001</ele>
        <time>2016-07-07T10:41:34Z</time>
      </trkpt>
      <trkpt lat="45.999256214126945" lon="7.343521406874061">
        <ele>1942.96</ele>
        <time>2016-07-07T10:41:42Z</time>
      </trkpt>
      <trkpt lat="45.999247496947646" lon="7.343521993607283">
        <ele>1944.4000000000001</ele>
        <time>2016-07-07T10:41:43Z</time>
      </trkpt>
      <trkpt lat="45.999230146408081" lon="7.343523083254695">
        <ele>1944.8800000000001</ele>
        <time>2016-07-07T10:41:45Z</time>
      </trkpt>
      <trkpt lat="45.9976059012115" lon="7.345643788576126">
        <ele>1986.22</ele>
        <time>2016-07-07T10:49:52Z</time>
      </trkpt>
      <trkpt lat="45.997566254809499" lon="7.345665246248245">
        <ele>1985.74</ele>
        <time>2016-07-07T10:50:10Z</time>
      </trkpt>
      <trkpt lat="45.997583437711" lon="7.345663318410516">
        <ele>1985.74</ele>
        <time>2016-07-07T10:50:24Z</time>
      </trkpt>
      <trkpt lat="45.997574049979448" lon="7.345654852688313">
        <ele>1986.22</ele>
        <time>2016-07-07T10:50:40Z</time>
      </trkpt>
      <trkpt lat="45.997587209567428" lon="7.345677567645907">
        <ele>1986.22</ele>
        <time>2016-07-07T10:50:59Z</time>
      </trkpt>
      <trkpt lat="45.997609421610832" lon="7.345657031983137">
        <ele>1986.22</ele>
        <time>2016-07-07T10:51:11Z</time>
      </trkpt>
      <trkpt lat="45.997592322528362" lon="7.345656361430883">
        <ele>1985.26</ele>
        <time>2016-07-07T10:51:30Z</time>
      </trkpt>
      <trkpt lat="45.997613109648228" lon="7.345668179914355">
        <ele>1986.7</ele>
        <time>2016-07-07T10:51:41Z</time>
      </trkpt>
      <trkpt lat="45.997602380812168" lon="7.345696510747075">
        <ele>1987.1800000000001</ele>
        <time>2016-07-07T10:51:53Z</time>
      </trkpt>
      <trkpt lat="45.997596345841885" lon="7.345706233754754">
        <ele>1987.1800000000001</ele>
        <time>2016-07-07T10:52:04Z</time>
      </trkpt>
      <trkpt lat="45.997626688331366" lon="7.345713274553418">
        <ele>1986.7</ele>
        <time>2016-07-07T10:52:09Z</time>
      </trkpt>
      <trkpt lat="45.997650492936373" lon="7.345736995339394">
        <ele>1986.7</ele>
        <time>2016-07-07T10:52:14Z</time>
      </trkpt>
      <trkpt lat="45.997681841254234" lon="7.345752082765102">
        <ele>1988.1400000000001</ele>
        <time>2016-07-07T10:52:23Z</time>
      </trkpt>
      <trkpt lat="45.997670022770762" lon="7.345805140212178">
        <ele>1987.1800000000001</ele>
        <time>2016-07-07T10:52:31Z</time>
      </trkpt>
      <trkpt lat="45.997657114639878" lon="7.345848055556417">
        <ele>1987.1800000000001</ele>
        <time>2016-07-07T10:52:34Z</time>
      </trkpt>
      <trkpt lat="45.997570110484958" lon="7.345941597595811">
        <ele>1987.1800000000001</ele>
        <time>2016-07-07T10:52:43Z</time>
      </trkpt>
      <trkpt lat="45.997553262859583" lon="7.346099261194468">
        <ele>1987.1800000000001</ele>
        <time>2016-07-07T10:52:55Z</time>
      </trkpt>
      <trkpt lat="45.997540522366762" lon="7.346303109079599">
        <ele>1987.1800000000001</ele>
        <time>2016-07-07T10:53:09Z</time>
      </trkpt>
      <trkpt lat="45.997535325586796" lon="7.346513411030173">
        <ele>1987.1800000000001</ele>
        <time>2016-07-07T10:53:22Z</time>
      </trkpt>
      <trkpt lat="45.997524093836546" lon="7.34676050953567">
        <ele>1987.1800000000001</ele>
        <time>2016-07-07T10:53:38Z</time>
      </trkpt>
      <trkpt lat="45.997524429112673" lon="7.346900403499603">
        <ele>1987.1800000000001</ele>
        <time>2016-07-07T10:53:48Z</time>
      </trkpt>
      <trkpt lat="45.997549826279283" lon="7.347072651609778">
        <ele>1987.1800000000001</ele>
        <time>2016-07-07T10:54:01Z</time>
      </trkpt>
      <trkpt lat="45.997561560943723" lon="7.347237020730972">
        <ele>1987.1800000000001</ele>
        <time>2016-07-07T10:54:12Z</time>
      </trkpt>
      <trkpt lat="45.997583772987127" lon="7.34741723164916">
        <ele>1987.1800000000001</ele>
        <time>2016-07-07T10:54:25Z</time>
      </trkpt>
      <trkpt lat="45.997597351670265" lon="7.347556706517935">
        <ele>1987.1800000000001</ele>
        <time>2016-07-07T10:54:35Z</time>
      </trkpt>
      <trkpt lat="45.997611600905657" lon="7.347704311832786">
        <ele>1987.1800000000001</ele>
        <time>2016-07-07T10:54:47Z</time>
      </trkpt>
      <trkpt lat="45.997623922303319" lon="7.347720824182034">
        <ele>1987.1800000000001</ele>
        <time>2016-07-07T10:55:04Z</time>
      </trkpt>
      <trkpt lat="45.997597686946392" lon="7.347742030397058">
        <ele>1987.6600000000001</ele>
        <time>2016-07-07T10:55:27Z</time>
      </trkpt>
      <trkpt lat="45.997644457966089" lon="7.347703725099564">
        <ele>1987.6600000000001</ele>
        <time>2016-07-07T10:55:42Z</time>
      </trkpt>
      <trkpt lat="45.997700951993465" lon="7.347678830847144">
        <ele>1987.6600000000001</ele>
        <time>2016-07-07T10:55:52Z</time>
      </trkpt>
      <trkpt lat="45.997667424380779" lon="7.34773825854063">
        <ele>1987.6600000000001</ele>
        <time>2016-07-07T10:56:00Z</time>
      </trkpt>
      <trkpt lat="45.99766650237143" lon="7.347836745902896">
        <ele>1987.6600000000001</ele>
        <time>2016-07-07T10:56:08Z</time>
      </trkpt>
      <trkpt lat="45.997684355825186" lon="7.347948979586363">
        <ele>1987.6600000000001</ele>
        <time>2016-07-07T10:56:19Z</time>
      </trkpt>
      <trkpt lat="45.997713608667254" lon="7.347999354824424">
        <ele>1987.6600000000001</ele>
        <time>2016-07-07T10:56:28Z</time>
      </trkpt>
      <trkpt lat="45.997704053297639" lon="7.348055010661483">
        <ele>1987.6600000000001</ele>
        <time>2016-07-07T10:56:38Z</time>
      </trkpt>
      <trkpt lat="45.997756356373429" lon="7.348199263215065">
        <ele>1987.6600000000001</ele>
        <time>2016-07-07T10:56:51Z</time>
      </trkpt>
      <trkpt lat="45.997802959755063" lon="7.348332200199366">
        <ele>1987.6600000000001</ele>
        <time>2016-07-07T10:57:02Z</time>
      </trkpt>
      <trkpt lat="45.997851239517331" lon="7.348452564328909">
        <ele>1987.6600000000001</ele>
        <time>2016-07-07T10:57:12Z</time>
      </trkpt>
      <trkpt lat="45.997905470430851" lon="7.348551722243428">
        <ele>1987.6600000000001</ele>
        <time>2016-07-07T10:57:22Z</time>
      </trkpt>
      <trkpt lat="45.997915277257562" lon="7.34856840223074">
        <ele>1988.1400000000001</ele>
        <time>2016-07-07T10:57:24Z</time>
      </trkpt>
      <trkpt lat="45.998009908944368" lon="7.348589524626732">
        <ele>1988.1400000000001</ele>
        <time>2016-07-07T10:57:36Z</time>
      </trkpt>
      <trkpt lat="45.997971436008811" lon="7.348620956763625">
        <ele>1988.1400000000001</ele>
        <time>2016-07-07T10:57:47Z</time>
      </trkpt>
      <trkpt lat="45.997991552576423" lon="7.348765628412366">
        <ele>1987.6600000000001</ele>
        <time>2016-07-07T10:57:59Z</time>
      </trkpt>
      <trkpt lat="45.99800705909729" lon="7.348801754415035">
        <ele>1987.6600000000001</ele>
        <time>2016-07-07T10:58:02Z</time>
      </trkpt>
      <trkpt lat="45.998007981106639" lon="7.348826648667455">
        <ele>1988.1400000000001</ele>
        <time>2016-07-07T10:58:04Z</time>
      </trkpt>
      <trkpt lat="45.998039245605469" lon="7.348878784105182">
        <ele>1988.1400000000001</ele>
        <time>2016-07-07T10:58:09Z</time>
      </trkpt>
      <trkpt lat="45.99813069216907" lon="7.348849531263113">
        <ele>1988.1400000000001</ele>
        <time>2016-07-07T10:58:17Z</time>
      </trkpt>
      <trkpt lat="45.998176457360387" lon="7.348885992541909">
        <ele>1988.6199999999999</ele>
        <time>2016-07-07T10:58:26Z</time>
      </trkpt>
      <trkpt lat="45.998207470402122" lon="7.348972074687481">
        <ele>1988.6199999999999</ele>
        <time>2016-07-07T10:58:32Z</time>
      </trkpt>
      <trkpt lat="45.998211409896612" lon="7.349072406068444">
        <ele>1988.1400000000001</ele>
        <time>2016-07-07T10:58:39Z</time>
      </trkpt>
      <trkpt lat="45.99822691641748" lon="7.349164774641395">
        <ele>1988.1400000000001</ele>
        <time>2016-07-07T10:58:45Z</time>
      </trkpt>
      <trkpt lat="45.998211577534676" lon="7.349243145436049">
        <ele>1988.6199999999999</ele>
        <time>2016-07-07T10:58:57Z</time>
      </trkpt>
      <trkpt lat="45.998300341889262" lon="7.349316403269768">
        <ele>1988.1400000000001</ele>
        <time>2016-07-07T10:59:07Z</time>
      </trkpt>
      <trkpt lat="45.998307969421148" lon="7.349328473210335">
        <ele>1988.1400000000001</ele>
        <time>2016-07-07T10:59:08Z</time>
      </trkpt>
      <trkpt lat="45.998369911685586" lon="7.349398629739881">
        <ele>1988.1400000000001</ele>
        <time>2016-07-07T10:59:15Z</time>
      </trkpt>
      <trkpt lat="45.998441157862544" lon="7.349497871473432">
        <ele>1988.1400000000001</ele>
        <time>2016-07-07T10:59:27Z</time>
      </trkpt>
      <trkpt lat="45.998428585007787" lon="7.349505331367254">
        <ele>1988.6199999999999</ele>
        <time>2016-07-07T10:59:41Z</time>
      </trkpt>
      <trkpt lat="45.998529586941004" lon="7.349580433219671">
        <ele>1988.1400000000001</ele>
        <time>2016-07-07T10:59:52Z</time>
      </trkpt>
      <trkpt lat="45.998633103445172" lon="7.349681770429015">
        <ele>1988.1400000000001</ele>
        <time>2016-07-07T11:00:04Z</time>
      </trkpt>
      <trkpt lat="45.998661601915956" lon="7.349706999957562">
        <ele>1988.6199999999999</ele>
        <time>2016-07-07T11:00:07Z</time>
      </trkpt>
      <trkpt lat="45.998762603849173" lon="7.349788974970579">
        <ele>1988.6199999999999</ele>
        <time>2016-07-07T11:00:18Z</time>
      </trkpt>
      <trkpt lat="45.998868383467197" lon="7.349862232804298">
        <ele>1988.6199999999999</ele>
        <time>2016-07-07T11:00:29Z</time>
      </trkpt>
      <trkpt lat="45.998892020434141" lon="7.349878493696451">
        <ele>1988.6199999999999</ele>
        <time>2016-07-07T11:00:32Z</time>
      </trkpt>
      <trkpt lat="45.99890174344182" lon="7.3498794157058">
        <ele>1988.6199999999999</ele>
        <time>2016-07-07T11:00:33Z</time>
      </trkpt>
      <trkpt lat="45.999010540544987" lon="7.349949823692441">
        <ele>1988.6199999999999</ele>
        <time>2016-07-07T11:00:44Z</time>
      </trkpt>
      <trkpt lat="45.999137107282877" lon="7.350017800927162">
        <ele>1988.6199999999999</ele>
        <time>2016-07-07T11:00:56Z</time>
      </trkpt>
      <trkpt lat="45.999284712597728" lon="7.350082928314805">
        <ele>1988.6199999999999</ele>
        <time>2016-07-07T11:01:09Z</time>
      </trkpt>
      <trkpt lat="45.999411195516586" lon="7.350135566666722">
        <ele>1988.6199999999999</ele>
        <time>2016-07-07T11:01:21Z</time>
      </trkpt>
      <trkpt lat="45.999519992619753" lon="7.350171692669392">
        <ele>1988.1400000000001</ele>
        <time>2016-07-07T11:01:32Z</time>
      </trkpt>
      <trkpt lat="45.999622670933604" lon="7.350216535851359">
        <ele>1988.1400000000001</ele>
        <time>2016-07-07T11:01:44Z</time>
      </trkpt>
      <trkpt lat="45.999615043401718" lon="7.350296499207616">
        <ele>1988.1400000000001</ele>
        <time>2016-07-07T11:01:53Z</time>
      </trkpt>
      <trkpt lat="45.999595429748297" lon="7.350341510027647">
        <ele>1988.1400000000001</ele>
        <time>2016-07-07T11:02:08Z</time>
      </trkpt>
      <trkpt lat="45.999594759196043" lon="7.350320052355528">
        <ele>1988.6199999999999</ele>
        <time>2016-07-07T11:02:21Z</time>
      </trkpt>
      <trkpt lat="45.999592831358314" lon="7.350388783961535">
        <ele>1988.6199999999999</ele>
        <time>2016-07-07T11:02:42Z</time>
      </trkpt>
      <trkpt lat="45.998738128691912" lon="7.351182550191879">
        <ele>1988.1400000000001</ele>
        <time>2016-07-07T11:05:05Z</time>
      </trkpt>
      <trkpt lat="45.998741062358022" lon="7.351163355633616">
        <ele>1987.6600000000001</ele>
        <time>2016-07-07T11:05:28Z</time>
      </trkpt>
      <trkpt lat="45.998809710144997" lon="7.351247929036617">
        <ele>1988.6199999999999</ele>
        <time>2016-07-07T11:05:42Z</time>
      </trkpt>
      <trkpt lat="45.998804261907935" lon="7.351262848824263">
        <ele>1988.6199999999999</ele>
        <time>2016-07-07T11:05:43Z</time>
      </trkpt>
      <trkpt lat="45.996038485318422" lon="7.354302043095231">
        <ele>1997.28</ele>
        <time>2016-07-07T11:10:39Z</time>
      </trkpt>
      <trkpt lat="45.996204949915409" lon="7.354355435818434">
        <ele>1996.8</ele>
        <time>2016-07-07T11:10:55Z</time>
      </trkpt>
      <trkpt lat="45.99617812782526" lon="7.354159969836474">
        <ele>1998.24</ele>
        <time>2016-07-07T11:11:13Z</time>
      </trkpt>
      <trkpt lat="45.996205871924758" lon="7.354183606803417">
        <ele>1998.24</ele>
        <time>2016-07-07T11:11:25Z</time>
      </trkpt>
      <trkpt lat="45.994251631200314" lon="7.355157332494855">
        <ele>2020.8299999999999</ele>
        <time>2016-07-07T11:19:16Z</time>
      </trkpt>
      <trkpt lat="45.994276106357574" lon="7.355163283646107">
        <ele>2021.3099999999999</ele>
        <time>2016-07-07T11:19:19Z</time>
      </trkpt>
      <trkpt lat="45.994323380291462" lon="7.355093127116561">
        <ele>2021.79</ele>
        <time>2016-07-07T11:19:28Z</time>
      </trkpt>
      <trkpt lat="45.994329582899809" lon="7.355082985013723">
        <ele>2022.27</ele>
        <time>2016-07-07T11:19:29Z</time>
      </trkpt>
      <trkpt lat="45.994345424696803" lon="7.35502758063376">
        <ele>2022.75</ele>
        <time>2016-07-07T11:19:36Z</time>
      </trkpt>
      <trkpt lat="45.994374928995967" lon="7.354969158768654">
        <ele>2023.23</ele>
        <time>2016-07-07T11:19:43Z</time>
      </trkpt>
      <trkpt lat="45.994405187666416" lon="7.354906545951963">
        <ele>2023.71</ele>
        <time>2016-07-07T11:19:51Z</time>
      </trkpt>
      <trkpt lat="45.994242997840047" lon="7.354826834052801">
        <ele>2024.6700000000001</ele>
        <time>2016-07-07T11:20:01Z</time>
      </trkpt>
      <trkpt lat="45.993761457502842" lon="7.354749804362655">
        <ele>2026.1199999999999</ele>
        <time>2016-07-07T11:20:15Z</time>
      </trkpt>
      <trkpt lat="45.992727717384696" lon="7.354568084701896">
        <ele>2028.04</ele>
        <time>2016-07-07T11:20:28Z</time>
      </trkpt>
      <trkpt lat="45.992640629410744" lon="7.354565067216754">
        <ele>2029</ele>
        <time>2016-07-07T11:20:38Z</time>
      </trkpt>
      <trkpt lat="45.992521019652486" lon="7.354558696970344">
        <ele>2030.4400000000001</ele>
        <time>2016-07-07T11:20:52Z</time>
      </trkpt>
      <trkpt lat="45.992475003004074" lon="7.354533718898892">
        <ele>2030.9200000000001</ele>
        <time>2016-07-07T11:20:57Z</time>
      </trkpt>
      <trkpt lat="45.99239319562912" lon="7.354491055011749">
        <ele>2031.4000000000001</ele>
        <time>2016-07-07T11:21:07Z</time>
      </trkpt>
      <trkpt lat="45.992291187867522" lon="7.354481499642134">
        <ele>2032.3599999999999</ele>
        <time>2016-07-07T11:21:19Z</time>
      </trkpt>
      <trkpt lat="45.992281381040812" lon="7.354479990899563">
        <ele>2032.3599999999999</ele>
        <time>2016-07-07T11:21:20Z</time>
      </trkpt>
      <trkpt lat="45.992172667756677" lon="7.354422826319933">
        <ele>2033.3299999999999</ele>
        <time>2016-07-07T11:21:33Z</time>
      </trkpt>
      <trkpt lat="45.992057835683227" lon="7.354406984522939">
        <ele>2033.8099999999999</ele>
        <time>2016-07-07T11:21:44Z</time>
      </trkpt>
      <trkpt lat="45.991947446018457" lon="7.354379491880536">
        <ele>2034.29</ele>
        <time>2016-07-07T11:21:55Z</time>
      </trkpt>
      <trkpt lat="45.991828422993422" lon="7.354346634820104">
        <ele>2034.77</ele>
        <time>2016-07-07T11:22:06Z</time>
      </trkpt>
      <trkpt lat="45.991730857640505" lon="7.35432936809957">
        <ele>2035.73</ele>
        <time>2016-07-07T11:22:16Z</time>
      </trkpt>
      <trkpt lat="45.991624826565385" lon="7.354336911812425">
        <ele>2036.21</ele>
        <time>2016-07-07T11:22:27Z</time>
      </trkpt>
      <trkpt lat="45.991484764963388" lon="7.354355687275529">
        <ele>2037.1700000000001</ele>
        <time>2016-07-07T11:22:40Z</time>
      </trkpt>
      <trkpt lat="45.991375213488936" lon="7.354351580142975">
        <ele>2038.1300000000001</ele>
        <time>2016-07-07T11:22:51Z</time>
      </trkpt>
      <trkpt lat="45.991266500204802" lon="7.354352753609419">
        <ele>2039.0899999999999</ele>
        <time>2016-07-07T11:23:02Z</time>
      </trkpt>
      <trkpt lat="45.99111688323319" lon="7.354400781914592">
        <ele>2039.5699999999999</ele>
        <time>2016-07-07T11:23:17Z</time>
      </trkpt>
      <trkpt lat="45.991009091958404" lon="7.354445960372686">
        <ele>2040.05</ele>
        <time>2016-07-07T11:23:29Z</time>
      </trkpt>
      <trkpt lat="45.990885710343719" lon="7.354549393057823">
        <ele>2041.02</ele>
        <time>2016-07-07T11:23:43Z</time>
      </trkpt>
      <trkpt lat="45.990776913240552" lon="7.354609239846468">
        <ele>2041.02</ele>
        <time>2016-07-07T11:23:55Z</time>
      </trkpt>
      <trkpt lat="45.990671301260591" lon="7.354649556800723">
        <ele>2041.5</ele>
        <time>2016-07-07T11:24:05Z</time>
      </trkpt>
      <trkpt lat="45.99056770093739" lon="7.35466699115932">
        <ele>2041.98</ele>
        <time>2016-07-07T11:24:16Z</time>
      </trkpt>
      <trkpt lat="45.990456389263272" lon="7.354689706116915">
        <ele>2042.46</ele>
        <time>2016-07-07T11:24:27Z</time>
      </trkpt>
      <trkpt lat="45.990390339866281" lon="7.354661794379354">
        <ele>2043.4200000000001</ele>
        <time>2016-07-07T11:24:34Z</time>
      </trkpt>
      <trkpt lat="45.99038053303957" lon="7.354665901511908">
        <ele>2043.9000000000001</ele>
        <time>2016-07-07T11:24:35Z</time>
      </trkpt>
      <trkpt lat="45.990371815860271" lon="7.354660872370005">
        <ele>2043.9000000000001</ele>
        <time>2016-07-07T11:24:36Z</time>
      </trkpt>
      <trkpt lat="45.990248434245586" lon="7.354698842391372">
        <ele>2043.9000000000001</ele>
        <time>2016-07-07T11:24:47Z</time>
      </trkpt>
      <trkpt lat="45.990111893042922" lon="7.354731280356646">
        <ele>2044.3800000000001</ele>
        <time>2016-07-07T11:24:59Z</time>
      </trkpt>
      <trkpt lat="45.989983398467302" lon="7.354777045547962">
        <ele>2044.3800000000001</ele>
        <time>2016-07-07T11:25:11Z</time>
      </trkpt>
      <trkpt lat="45.989890107885003" lon="7.354835718870163">
        <ele>2044.8599999999999</ele>
        <time>2016-07-07T11:25:20Z</time>
      </trkpt>
      <trkpt lat="45.989774772897363" lon="7.354967230930924">
        <ele>2045.3399999999999</ele>
        <time>2016-07-07T11:25:34Z</time>
      </trkpt>
      <trkpt lat="45.989638483151793" lon="7.355025736615062">
        <ele>2045.8199999999999</ele>
        <time>2016-07-07T11:25:46Z</time>
      </trkpt>
      <trkpt lat="45.989506551995873" lon="7.355072172358632">
        <ele>2046.3</ele>
        <time>2016-07-07T11:25:58Z</time>
      </trkpt>
      <trkpt lat="45.989374285563827" lon="7.355123553425074">
        <ele>2046.3</ele>
        <time>2016-07-07T11:26:11Z</time>
      </trkpt>
      <trkpt lat="45.989279402419925" lon="7.35517418012023">
        <ele>2047.75</ele>
        <time>2016-07-07T11:26:24Z</time>
      </trkpt>
      <trkpt lat="45.989278312772512" lon="7.355177700519562">
        <ele>2047.75</ele>
        <time>2016-07-07T11:26:25Z</time>
      </trkpt>
      <trkpt lat="45.989215783774853" lon="7.355273673310876">
        <ele>2047.75</ele>
        <time>2016-07-07T11:26:36Z</time>
      </trkpt>
      <trkpt lat="45.989127270877361" lon="7.355328155681491">
        <ele>2047.75</ele>
        <time>2016-07-07T11:26:47Z</time>
      </trkpt>
      <trkpt lat="45.989132551476359" lon="7.355342824012041">
        <ele>2048.23</ele>
        <time>2016-07-07T11:26:59Z</time>
      </trkpt>
      <trkpt lat="45.98911645822227" lon="7.355338800698519">
        <ele>2048.23</ele>
        <time>2016-07-07T11:27:15Z</time>
      </trkpt>
      <trkpt lat="45.989117044955492" lon="7.355358079075813">
        <ele>2048.23</ele>
        <time>2016-07-07T11:27:38Z</time>
      </trkpt>
      <trkpt lat="45.989080835133791" lon="7.355377525091171">
        <ele>2048.23</ele>
        <time>2016-07-07T11:27:42Z</time>
      </trkpt>
      <trkpt lat="45.988987628370523" lon="7.3554693069309">
        <ele>2047.75</ele>
        <time>2016-07-07T11:27:55Z</time>
      </trkpt>
      <trkpt lat="45.988908838480711" lon="7.35555287450552">
        <ele>2047.75</ele>
        <time>2016-07-07T11:28:05Z</time>
      </trkpt>
      <trkpt lat="45.988811021670699" lon="7.355638705193996">
        <ele>2048.23</ele>
        <time>2016-07-07T11:28:16Z</time>
      </trkpt>
      <trkpt lat="45.98880322650075" lon="7.355667287483811">
        <ele>2049.1900000000001</ele>
        <time>2016-07-07T11:28:20Z</time>
      </trkpt>
      <trkpt lat="45.98881890065968" lon="7.355641638860107">
        <ele>2048.71</ele>
        <time>2016-07-07T11:28:31Z</time>
      </trkpt>
      <trkpt lat="45.988792246207595" lon="7.355633256956935">
        <ele>2048.23</ele>
        <time>2016-07-07T11:28:32Z</time>
      </trkpt>
      <trkpt lat="45.988691998645663" lon="7.355659073218703">
        <ele>2048.71</ele>
        <time>2016-07-07T11:28:40Z</time>
      </trkpt>
      <trkpt lat="45.988590829074383" lon="7.355713220313191">
        <ele>2049.6700000000001</ele>
        <time>2016-07-07T11:28:51Z</time>
      </trkpt>
      <trkpt lat="45.988506255671382" lon="7.35577717423439">
        <ele>2050.6300000000001</ele>
        <time>2016-07-07T11:29:00Z</time>
      </trkpt>
      <trkpt lat="45.988408857956529" lon="7.355874571949244">
        <ele>2051.1100000000001</ele>
        <time>2016-07-07T11:29:13Z</time>
      </trkpt>
      <trkpt lat="45.988310957327485" lon="7.355963755398989">
        <ele>2052.0700000000002</ele>
        <time>2016-07-07T11:29:24Z</time>
      </trkpt>
      <trkpt lat="45.98816997371614" lon="7.356045562773943">
        <ele>2052.5500000000002</ele>
        <time>2016-07-07T11:29:39Z</time>
      </trkpt>
      <trkpt lat="45.988052794709802" lon="7.356201969087124">
        <ele>2053.5100000000002</ele>
        <time>2016-07-07T11:29:50Z</time>
      </trkpt>
      <trkpt lat="45.987933184951544" lon="7.356254607439041">
        <ele>2053.9899999999998</ele>
        <time>2016-07-07T11:30:02Z</time>
      </trkpt>
      <trkpt lat="45.987861435860395" lon="7.356332140043378">
        <ele>2054.4699999999998</ele>
        <time>2016-07-07T11:30:12Z</time>
      </trkpt>
      <trkpt lat="45.987813407555223" lon="7.356383437290788">
        <ele>2054.96</ele>
        <time>2016-07-07T11:30:18Z</time>
      </trkpt>
      <trkpt lat="45.987671166658401" lon="7.356391483917832">
        <ele>2055.4400000000001</ele>
        <time>2016-07-07T11:30:32Z</time>
      </trkpt>
      <trkpt lat="45.987560860812664" lon="7.356388717889786">
        <ele>2055.4400000000001</ele>
        <time>2016-07-07T11:30:42Z</time>
      </trkpt>
      <trkpt lat="45.98743949085474" lon="7.356378072872758">
        <ele>2056.4000000000001</ele>
        <time>2016-07-07T11:30:55Z</time>
      </trkpt>
      <trkpt lat="45.987390456721187" lon="7.356359045952559">
        <ele>2056.8800000000001</ele>
        <time>2016-07-07T11:31:00Z</time>
      </trkpt>
      <trkpt lat="45.987365059554577" lon="7.356356028467417">
        <ele>2057.3600000000001</ele>
        <time>2016-07-07T11:31:03Z</time>
      </trkpt>
      <trkpt lat="45.987231703475118" lon="7.356338007375598">
        <ele>2058.3200000000002</ele>
        <time>2016-07-07T11:31:15Z</time>
      </trkpt>
      <trkpt lat="45.987115195021033" lon="7.356334486976266">
        <ele>2057.8400000000001</ele>
        <time>2016-07-07T11:31:27Z</time>
      </trkpt>
      <trkpt lat="45.986996674910188" lon="7.35634739510715">
        <ele>2059.2800000000002</ele>
        <time>2016-07-07T11:31:40Z</time>
      </trkpt>
      <trkpt lat="45.986909503117204" lon="7.356365835294128">
        <ele>2059.2800000000002</ele>
        <time>2016-07-07T11:31:50Z</time>
      </trkpt>
      <trkpt lat="45.986892068758607" lon="7.356358291581273">
        <ele>2059.7600000000002</ele>
        <time>2016-07-07T11:32:02Z</time>
      </trkpt>
      <trkpt lat="45.986895253881812" lon="7.35636692494154">
        <ele>2058.8000000000002</ele>
        <time>2016-07-07T11:32:13Z</time>
      </trkpt>
      <trkpt lat="45.986890811473131" lon="7.356386203318834">
        <ele>2060.2399999999998</ele>
        <time>2016-07-07T11:32:28Z</time>
      </trkpt>
      <trkpt lat="45.986854434013367" lon="7.356385365128517">
        <ele>2060.2399999999998</ele>
        <time>2016-07-07T11:32:38Z</time>
      </trkpt>
      <trkpt lat="45.986919477581978" lon="7.356403050944209">
        <ele>2059.7600000000002</ele>
        <time>2016-07-07T11:32:56Z</time>
      </trkpt>
      <trkpt lat="45.986963398754597" lon="7.35639089718461">
        <ele>2061.1999999999998</ele>
        <time>2016-07-07T11:33:07Z</time>
      </trkpt>
      <trkpt lat="45.98694697022438" lon="7.356397686526179">
        <ele>2061.6799999999998</ele>
        <time>2016-07-07T11:33:18Z</time>
      </trkpt>
      <trkpt lat="45.98699240013957" lon="7.356407828629017">
        <ele>2063.1300000000001</ele>
        <time>2016-07-07T11:33:24Z</time>
      </trkpt>
      <trkpt lat="45.986943114548922" lon="7.356488462537527">
        <ele>2064.5700000000002</ele>
        <time>2016-07-07T11:33:33Z</time>
      </trkpt>
      <trkpt lat="45.98691226914525" lon="7.356603713706136">
        <ele>2066.4899999999998</ele>
        <time>2016-07-07T11:33:46Z</time>
      </trkpt>
      <trkpt lat="45.986854517832398" lon="7.356722485274077">
        <ele>2068.4099999999999</ele>
        <time>2016-07-07T11:34:00Z</time>
      </trkpt>
      <trkpt lat="45.986911682412028" lon="7.356681330129504">
        <ele>2069.8600000000001</ele>
        <time>2016-07-07T11:34:09Z</time>
      </trkpt>
      <trkpt lat="45.986976642161608" lon="7.356626596301794">
        <ele>2072.2600000000002</ele>
        <time>2016-07-07T11:34:21Z</time>
      </trkpt>
      <trkpt lat="45.98696012981236" lon="7.356713516637683">
        <ele>2073.6999999999998</ele>
        <time>2016-07-07T11:34:30Z</time>
      </trkpt>
      <trkpt lat="45.986922159790993" lon="7.356769843026996">
        <ele>2075.1399999999999</ele>
        <time>2016-07-07T11:34:44Z</time>
      </trkpt>
      <trkpt lat="45.987000446766615" lon="7.356708571314812">
        <ele>2077.5500000000002</ele>
        <time>2016-07-07T11:34:57Z</time>
      </trkpt>
      <trkpt lat="45.986985443159938" lon="7.35678568482399">
        <ele>2078.9899999999998</ele>
        <time>2016-07-07T11:35:06Z</time>
      </trkpt>
      <trkpt lat="45.98696893081069" lon="7.356807980686426">
        <ele>2079.4699999999998</ele>
        <time>2016-07-07T11:35:16Z</time>
      </trkpt>
      <trkpt lat="45.986917885020375" lon="7.356845112517476">
        <ele>2080.4299999999998</ele>
        <time>2016-07-07T11:35:28Z</time>
      </trkpt>
      <trkpt lat="45.986899361014366" lon="7.356910156086087">
        <ele>2082.3499999999999</ele>
        <time>2016-07-07T11:35:39Z</time>
      </trkpt>
      <trkpt lat="45.986850410699844" lon="7.356971595436335">
        <ele>2083.79</ele>
        <time>2016-07-07T11:35:51Z</time>
      </trkpt>
      <trkpt lat="45.986893912777305" lon="7.356985257938504">
        <ele>2085.2399999999998</ele>
        <time>2016-07-07T11:36:04Z</time>
      </trkpt>
      <trkpt lat="45.986902378499508" lon="7.357011325657368">
        <ele>2088.1199999999999</ele>
        <time>2016-07-07T11:36:21Z</time>
      </trkpt>
      <trkpt lat="45.986910508945584" lon="7.357068490236998">
        <ele>2091</ele>
        <time>2016-07-07T11:36:41Z</time>
      </trkpt>
      <trkpt lat="45.986879914999008" lon="7.357415417209268">
        <ele>2096.29</ele>
        <time>2016-07-07T11:37:14Z</time>
      </trkpt>
      <trkpt lat="45.986897768452764" lon="7.357382560148835">
        <ele>2098.6999999999998</ele>
        <time>2016-07-07T11:37:29Z</time>
      </trkpt>
      <trkpt lat="45.986818643286824" lon="7.357449112460017">
        <ele>2100.6199999999999</ele>
        <time>2016-07-07T11:37:40Z</time>
      </trkpt>
      <trkpt lat="45.986740775406361" lon="7.357456320896745">
        <ele>2102.0599999999999</ele>
        <time>2016-07-07T11:37:52Z</time>
      </trkpt>
      <trkpt lat="45.986738344654441" lon="7.35743461176753">
        <ele>2103.02</ele>
        <time>2016-07-07T11:38:01Z</time>
      </trkpt>
      <trkpt lat="45.98675100132823" lon="7.357409466058016">
        <ele>2104.9400000000001</ele>
        <time>2016-07-07T11:38:12Z</time>
      </trkpt>
      <trkpt lat="45.986808082088828" lon="7.35732464119792">
        <ele>2106.3899999999999</ele>
        <time>2016-07-07T11:38:25Z</time>
      </trkpt>
      <trkpt lat="45.986908581107855" lon="7.35736227594316">
        <ele>2106.3899999999999</ele>
        <time>2016-07-07T11:38:35Z</time>
      </trkpt>
      <trkpt lat="45.986878322437406" lon="7.357523879036307">
        <ele>2108.3099999999999</ele>
        <time>2016-07-07T11:38:48Z</time>
      </trkpt>
      <trkpt lat="45.986913107335567" lon="7.357583474367857">
        <ele>2109.75</ele>
        <time>2016-07-07T11:38:59Z</time>
      </trkpt>
      <trkpt lat="45.986964236944914" lon="7.357500661164522">
        <ele>2111.1900000000001</ele>
        <time>2016-07-07T11:39:10Z</time>
      </trkpt>
      <trkpt lat="45.986995752900839" lon="7.357398318126798">
        <ele>2113.1199999999999</ele>
        <time>2016-07-07T11:39:22Z</time>
      </trkpt>
      <trkpt lat="45.987010672688484" lon="7.357364371418953">
        <ele>2113.5999999999999</ele>
        <time>2016-07-07T11:39:25Z</time>
      </trkpt>
      <trkpt lat="45.987023077905178" lon="7.35723034478724">
        <ele>2116</ele>
        <time>2016-07-07T11:39:40Z</time>
      </trkpt>
      <trkpt lat="45.987104969099164" lon="7.357160607352853">
        <ele>2118.4000000000001</ele>
        <time>2016-07-07T11:39:54Z</time>
      </trkpt>
      <trkpt lat="45.987149393185973" lon="7.357293460518122">
        <ele>2120.3200000000002</ele>
        <time>2016-07-07T11:40:05Z</time>
      </trkpt>
      <trkpt lat="45.987149896100163" lon="7.357371747493744">
        <ele>2121.29</ele>
        <time>2016-07-07T11:40:15Z</time>
      </trkpt>
      <trkpt lat="45.98713556304574" lon="7.357472246512771">
        <ele>2123.21</ele>
        <time>2016-07-07T11:40:26Z</time>
      </trkpt>
      <trkpt lat="45.987130701541901" lon="7.35740426927805">
        <ele>2125.1300000000001</ele>
        <time>2016-07-07T11:40:38Z</time>
      </trkpt>
      <trkpt lat="45.987127516418695" lon="7.357322294265032">
        <ele>2127.0500000000002</ele>
        <time>2016-07-07T11:40:48Z</time>
      </trkpt>
      <trkpt lat="45.987173700705171" lon="7.357385577633977">
        <ele>2128.98</ele>
        <time>2016-07-07T11:41:00Z</time>
      </trkpt>
      <trkpt lat="45.98721225745976" lon="7.35735347494483">
        <ele>2129.9400000000001</ele>
        <time>2016-07-07T11:41:16Z</time>
      </trkpt>
      <trkpt lat="45.987227680161595" lon="7.357337633147836">
        <ele>2132.3400000000001</ele>
        <time>2016-07-07T11:41:28Z</time>
      </trkpt>
      <trkpt lat="45.987270176410675" lon="7.357243420556188">
        <ele>2133.7800000000002</ele>
        <time>2016-07-07T11:41:39Z</time>
      </trkpt>
      <trkpt lat="45.987285934388638" lon="7.357242833822966">
        <ele>2133.7800000000002</ele>
        <time>2016-07-07T11:41:41Z</time>
      </trkpt>
      <trkpt lat="45.987375034019351" lon="7.357234284281731">
        <ele>2135.23</ele>
        <time>2016-07-07T11:41:52Z</time>
      </trkpt>
      <trkpt lat="45.987404873594642" lon="7.357302764430642">
        <ele>2136.1900000000001</ele>
        <time>2016-07-07T11:42:02Z</time>
      </trkpt>
      <trkpt lat="45.987463211640716" lon="7.357218526303768">
        <ele>2138.5900000000001</ele>
        <time>2016-07-07T11:42:14Z</time>
      </trkpt>
      <trkpt lat="45.987492799758911" lon="7.357293544337153">
        <ele>2139.0700000000002</ele>
        <time>2016-07-07T11:42:25Z</time>
      </trkpt>
      <trkpt lat="45.987487267702818" lon="7.357393121346831">
        <ele>2140.5100000000002</ele>
        <time>2016-07-07T11:42:35Z</time>
      </trkpt>
      <trkpt lat="45.987470168620348" lon="7.35749471001327">
        <ele>2142.4400000000001</ele>
        <time>2016-07-07T11:42:47Z</time>
      </trkpt>
      <trkpt lat="45.987454578280449" lon="7.357544749975205">
        <ele>2142.9200000000001</ele>
        <time>2016-07-07T11:42:52Z</time>
      </trkpt>
      <trkpt lat="45.987461535260081" lon="7.357563190162182">
        <ele>2144.3600000000001</ele>
        <time>2016-07-07T11:43:02Z</time>
      </trkpt>
      <trkpt lat="45.987522974610329" lon="7.357480376958847">
        <ele>2146.2800000000002</ele>
        <time>2016-07-07T11:43:15Z</time>
      </trkpt>
      <trkpt lat="45.987577456980944" lon="7.357411980628967">
        <ele>2147.7199999999998</ele>
        <time>2016-07-07T11:43:26Z</time>
      </trkpt>
      <trkpt lat="45.987626658752561" lon="7.357338471338153">
        <ele>2149.6500000000001</ele>
        <time>2016-07-07T11:43:39Z</time>
      </trkpt>
      <trkpt lat="45.987650379538536" lon="7.357384320348501">
        <ele>2150.6100000000001</ele>
        <time>2016-07-07T11:43:48Z</time>
      </trkpt>
      <trkpt lat="45.987696899101138" lon="7.357331598177552">
        <ele>2152.0500000000002</ele>
        <time>2016-07-07T11:43:59Z</time>
      </trkpt>
      <trkpt lat="45.987742999568582" lon="7.357261944562197">
        <ele>2153.9699999999998</ele>
        <time>2016-07-07T11:44:12Z</time>
      </trkpt>
      <trkpt lat="45.987810138612986" lon="7.35719908028841">
        <ele>2155.8899999999999</ele>
        <time>2016-07-07T11:44:23Z</time>
      </trkpt>
      <trkpt lat="45.987865962088108" lon="7.357161697000265">
        <ele>2157.3400000000001</ele>
        <time>2016-07-07T11:44:35Z</time>
      </trkpt>
      <trkpt lat="45.987915750592947" lon="7.35716630704701">
        <ele>2159.2600000000002</ele>
        <time>2016-07-07T11:44:46Z</time>
      </trkpt>
      <trkpt lat="45.987870320677757" lon="7.357276696711779">
        <ele>2161.1799999999998</ele>
        <time>2016-07-07T11:44:57Z</time>
      </trkpt>
      <trkpt lat="45.987809216603637" lon="7.357367137447">
        <ele>2162.6199999999999</ele>
        <time>2016-07-07T11:45:09Z</time>
      </trkpt>
      <trkpt lat="45.987816089764237" lon="7.357376357540488">
        <ele>2162.6199999999999</ele>
        <time>2016-07-07T11:45:24Z</time>
      </trkpt>
      <trkpt lat="45.98782061599195" lon="7.357456404715776">
        <ele>2163.5799999999999</ele>
        <time>2016-07-07T11:45:33Z</time>
      </trkpt>
      <trkpt lat="45.98783427849412" lon="7.357487501576543">
        <ele>2163.5799999999999</ele>
        <time>2016-07-07T11:45:36Z</time>
      </trkpt>
      <trkpt lat="45.987867806106806" lon="7.357542486861348">
        <ele>2164.0599999999999</ele>
        <time>2016-07-07T11:45:41Z</time>
      </trkpt>
      <trkpt lat="45.987821621820331" lon="7.357658492401242">
        <ele>2165.0300000000002</ele>
        <time>2016-07-07T11:45:51Z</time>
      </trkpt>
      <trkpt lat="45.987849030643702" lon="7.357758991420269">
        <ele>2166.4699999999998</ele>
        <time>2016-07-07T11:46:01Z</time>
      </trkpt>
      <trkpt lat="45.987895969301462" lon="7.357814563438296">
        <ele>2168.3899999999999</ele>
        <time>2016-07-07T11:46:10Z</time>
      </trkpt>
      <trkpt lat="45.987911894917488" lon="7.357815904542804">
        <ele>2168.8699999999999</ele>
        <time>2016-07-07T11:46:12Z</time>
      </trkpt>
      <trkpt lat="45.987997809424996" lon="7.357849515974522">
        <ele>2169.8299999999999</ele>
        <time>2016-07-07T11:46:24Z</time>
      </trkpt>
      <trkpt lat="45.988069055601954" lon="7.357932077720761">
        <ele>2171.27</ele>
        <time>2016-07-07T11:46:35Z</time>
      </trkpt>
      <trkpt lat="45.988040724769235" lon="7.35807959921658">
        <ele>2171.7600000000002</ele>
        <time>2016-07-07T11:46:46Z</time>
      </trkpt>
      <trkpt lat="45.988027397543192" lon="7.358195269480348">
        <ele>2172.7199999999998</ele>
        <time>2016-07-07T11:46:57Z</time>
      </trkpt>
      <trkpt lat="45.988062350079417" lon="7.358205746859312">
        <ele>2174.6399999999999</ele>
        <time>2016-07-07T11:47:06Z</time>
      </trkpt>
      <trkpt lat="45.988108618184924" lon="7.358171381056309">
        <ele>2175.5999999999999</ele>
        <time>2016-07-07T11:47:17Z</time>
      </trkpt>
      <trkpt lat="45.988162597641349" lon="7.358108935877681">
        <ele>2177.52</ele>
        <time>2016-07-07T11:47:29Z</time>
      </trkpt>
      <trkpt lat="45.988218002021313" lon="7.35805512405932">
        <ele>2178.9699999999998</ele>
        <time>2016-07-07T11:47:40Z</time>
      </trkpt>
      <trkpt lat="45.988280782476068" lon="7.358109271153808">
        <ele>2180.4099999999999</ele>
        <time>2016-07-07T11:47:51Z</time>
      </trkpt>
      <trkpt lat="45.988323614001274" lon="7.358115473762155">
        <ele>2180.8899999999999</ele>
        <time>2016-07-07T11:48:03Z</time>
      </trkpt>
      <trkpt lat="45.988360494375229" lon="7.358057051897049">
        <ele>2181.8499999999999</ele>
        <time>2016-07-07T11:48:15Z</time>
      </trkpt>
      <trkpt lat="45.988346328958869" lon="7.35802436247468">
        <ele>2182.3299999999999</ele>
        <time>2016-07-07T11:48:27Z</time>
      </trkpt>
      <trkpt lat="45.988369211554527" lon="7.358064344152808">
        <ele>2182.3299999999999</ele>
        <time>2016-07-07T11:48:41Z</time>
      </trkpt>
      <trkpt lat="45.98838496953249" lon="7.358069457113743">
        <ele>2181.3699999999999</ele>
        <time>2016-07-07T11:48:56Z</time>
      </trkpt>
      <trkpt lat="45.988380191847682" lon="7.35804389230907">
        <ele>2181.3699999999999</ele>
        <time>2016-07-07T11:49:20Z</time>
      </trkpt>
      <trkpt lat="45.988366696983576" lon="7.358010867610574">
        <ele>2181.3699999999999</ele>
        <time>2016-07-07T11:49:45Z</time>
      </trkpt>
      <trkpt lat="45.988341467455029" lon="7.358022686094046">
        <ele>2181.3699999999999</ele>
        <time>2016-07-07T11:49:54Z</time>
      </trkpt>
      <trkpt lat="45.988335181027651" lon="7.358030481263995">
        <ele>2181.8499999999999</ele>
        <time>2016-07-07T11:50:05Z</time>
      </trkpt>
      <trkpt lat="45.988355465233326" lon="7.358044814318419">
        <ele>2181.8499999999999</ele>
        <time>2016-07-07T11:50:24Z</time>
      </trkpt>
      <trkpt lat="45.988354124128819" lon="7.35802972689271">
        <ele>2182.3299999999999</ele>
        <time>2016-07-07T11:50:44Z</time>
      </trkpt>
      <trkpt lat="45.988373318687081" lon="7.35800919122994">
        <ele>2181.8499999999999</ele>
        <time>2016-07-07T11:50:58Z</time>
      </trkpt>
      <trkpt lat="45.988395782187581" lon="7.358031738549471">
        <ele>2182.3299999999999</ele>
        <time>2016-07-07T11:51:23Z</time>
      </trkpt>
      <trkpt lat="45.988398380577564" lon="7.358020422980189">
        <ele>2182.3299999999999</ele>
        <time>2016-07-07T11:51:48Z</time>
      </trkpt>
      <trkpt lat="45.988396955654025" lon="7.358008353039622">
        <ele>2182.3299999999999</ele>
        <time>2016-07-07T11:52:14Z</time>
      </trkpt>
      <trkpt lat="45.988384466618299" lon="7.358023440465331">
        <ele>2182.8099999999999</ele>
        <time>2016-07-07T11:52:47Z</time>
      </trkpt>
      <trkpt lat="45.988382119685411" lon="7.358030062168837">
        <ele>2182.8099999999999</ele>
        <time>2016-07-07T11:53:13Z</time>
      </trkpt>
      <trkpt lat="45.988391926512122" lon="7.358027212321758">
        <ele>2183.29</ele>
        <time>2016-07-07T11:53:44Z</time>
      </trkpt>
      <trkpt lat="45.988384801894426" lon="7.358016734942794">
        <ele>2183.77</ele>
        <time>2016-07-07T11:54:12Z</time>
      </trkpt>
      <trkpt lat="45.988386729732156" lon="7.358034420758486">
        <ele>2183.77</ele>
        <time>2016-07-07T11:54:44Z</time>
      </trkpt>
      <trkpt lat="45.988376755267382" lon="7.358013382181525">
        <ele>2184.25</ele>
        <time>2016-07-07T11:55:16Z</time>
      </trkpt>
      <trkpt lat="45.988401984795928" lon="7.358028721064329">
        <ele>2184.25</ele>
        <time>2016-07-07T11:55:43Z</time>
      </trkpt>
      <trkpt lat="45.988410199061036" lon="7.358047999441624">
        <ele>2184.73</ele>
        <time>2016-07-07T11:56:10Z</time>
      </trkpt>
      <trkpt lat="45.988386813551188" lon="7.358026877045631">
        <ele>2184.73</ele>
        <time>2016-07-07T11:56:38Z</time>
      </trkpt>
      <trkpt lat="45.988396117463708" lon="7.358045317232609">
        <ele>2185.21</ele>
        <time>2016-07-07T11:57:05Z</time>
      </trkpt>
      <trkpt lat="45.988395111635327" lon="7.358018830418587">
        <ele>2185.21</ele>
        <time>2016-07-07T11:57:32Z</time>
      </trkpt>
      <trkpt lat="45.988409277051687" lon="7.358050514012575">
        <ele>2185.6900000000001</ele>
        <time>2016-07-07T11:58:04Z</time>
      </trkpt>
      <trkpt lat="45.988418916240335" lon="7.358075324445963">
        <ele>2185.6900000000001</ele>
        <time>2016-07-07T11:58:29Z</time>
      </trkpt>
      <trkpt lat="45.988425705581903" lon="7.35806786455214">
        <ele>2185.6900000000001</ele>
        <time>2016-07-07T11:58:52Z</time>
      </trkpt>
      <trkpt lat="45.988427298143506" lon="7.358081694692373">
        <ele>2185.6900000000001</ele>
        <time>2016-07-07T11:59:18Z</time>
      </trkpt>
      <trkpt lat="45.988422269001603" lon="7.358057135716081">
        <ele>2185.6900000000001</ele>
        <time>2016-07-07T11:59:39Z</time>
      </trkpt>
      <trkpt lat="45.988391926512122" lon="7.358026960864663">
        <ele>2186.1799999999998</ele>
        <time>2016-07-07T12:00:04Z</time>
      </trkpt>
      <trkpt lat="45.988400895148516" lon="7.358029223978519">
        <ele>2186.1799999999998</ele>
        <time>2016-07-07T12:00:32Z</time>
      </trkpt>
      <trkpt lat="45.988412126898766" lon="7.358021596446633">
        <ele>2186.1799999999998</ele>
        <time>2016-07-07T12:01:00Z</time>
      </trkpt>
      <trkpt lat="45.98839720711112" lon="7.358019417151809">
        <ele>2186.6599999999999</ele>
        <time>2016-07-07T12:01:23Z</time>
      </trkpt>
      <trkpt lat="45.988398715853691" lon="7.358025452122092">
        <ele>2186.6599999999999</ele>
        <time>2016-07-07T12:01:50Z</time>
      </trkpt>
      <trkpt lat="45.988393519073725" lon="7.358035175129771">
        <ele>2186.6599999999999</ele>
        <time>2016-07-07T12:02:12Z</time>
      </trkpt>
      <trkpt lat="45.988393435254693" lon="7.358026290312409">
        <ele>2187.1399999999999</ele>
        <time>2016-07-07T12:02:41Z</time>
      </trkpt>
      <trkpt lat="45.98840500228107" lon="7.358025619760156">
        <ele>2187.1399999999999</ele>
        <time>2016-07-07T12:03:02Z</time>
      </trkpt>
      <trkpt lat="45.988414725288749" lon="7.358044981956482">
        <ele>2187.6199999999999</ele>
        <time>2016-07-07T12:03:26Z</time>
      </trkpt>
      <trkpt lat="45.988409947603941" lon="7.358054872602224">
        <ele>2187.6199999999999</ele>
        <time>2016-07-07T12:03:55Z</time>
      </trkpt>
      <trkpt lat="45.988402822986245" lon="7.358027966693044">
        <ele>2187.6199999999999</ele>
        <time>2016-07-07T12:04:22Z</time>
      </trkpt>
      <trkpt lat="45.988395363092422" lon="7.35804975964129">
        <ele>2188.0999999999999</ele>
        <time>2016-07-07T12:04:49Z</time>
      </trkpt>
      <trkpt lat="45.988394524902105" lon="7.358050178736448">
        <ele>2188.0999999999999</ele>
        <time>2016-07-07T12:05:11Z</time>
      </trkpt>
      <trkpt lat="45.988412210717797" lon="7.358048418536782">
        <ele>2188.0999999999999</ele>
        <time>2016-07-07T12:05:37Z</time>
      </trkpt>
      <trkpt lat="45.988404415547848" lon="7.358049927279353">
        <ele>2188.0999999999999</ele>
        <time>2016-07-07T12:06:01Z</time>
      </trkpt>
      <trkpt lat="45.988398045301437" lon="7.358047161251307">
        <ele>2188.5799999999999</ele>
        <time>2016-07-07T12:06:27Z</time>
      </trkpt>
      <trkpt lat="45.98839913494885" lon="7.358032073825598">
        <ele>2188.5799999999999</ele>
        <time>2016-07-07T12:06:53Z</time>
      </trkpt>
      <trkpt lat="45.988401565700769" lon="7.358044730499387">
        <ele>2189.0599999999999</ele>
        <time>2016-07-07T12:07:23Z</time>
      </trkpt>
      <trkpt lat="45.988412713631988" lon="7.3580561298877">
        <ele>2188.5799999999999</ele>
        <time>2016-07-07T12:07:48Z</time>
      </trkpt>
      <trkpt lat="45.988410115242004" lon="7.358062583953142">
        <ele>2189.0599999999999</ele>
        <time>2016-07-07T12:08:16Z</time>
      </trkpt>
      <trkpt lat="45.988397123292089" lon="7.358052441850305">
        <ele>2189.0599999999999</ele>
        <time>2016-07-07T12:08:42Z</time>
      </trkpt>
      <trkpt lat="45.988399302586913" lon="7.35803802497685">
        <ele>2189.0599999999999</ele>
        <time>2016-07-07T12:09:05Z</time>
      </trkpt>
      <trkpt lat="45.988399218767881" lon="7.358050849288702">
        <ele>2189.54</ele>
        <time>2016-07-07T12:09:34Z</time>
      </trkpt>
      <trkpt lat="45.988398632034659" lon="7.358046490699053">
        <ele>2189.54</ele>
        <time>2016-07-07T12:09:56Z</time>
      </trkpt>
      <trkpt lat="45.98841137252748" lon="7.358053447678685">
        <ele>2189.0599999999999</ele>
        <time>2016-07-07T12:10:22Z</time>
      </trkpt>
      <trkpt lat="45.988416150212288" lon="7.358061578124762">
        <ele>2189.54</ele>
        <time>2016-07-07T12:10:41Z</time>
      </trkpt>
      <trkpt lat="45.988392513245344" lon="7.358025033026934">
        <ele>2189.54</ele>
        <time>2016-07-07T12:11:09Z</time>
      </trkpt>
      <trkpt lat="45.988406846299767" lon="7.358048167079687">
        <ele>2190.02</ele>
        <time>2016-07-07T12:11:27Z</time>
      </trkpt>
      <trkpt lat="45.988412210717797" lon="7.35806199721992">
        <ele>2190.02</ele>
        <time>2016-07-07T12:11:43Z</time>
      </trkpt>
      <trkpt lat="45.988371977582574" lon="7.358033750206232">
        <ele>2190.02</ele>
        <time>2016-07-07T12:12:07Z</time>
      </trkpt>
      <trkpt lat="45.988380191847682" lon="7.358034253120422">
        <ele>2190.02</ele>
        <time>2016-07-07T12:12:39Z</time>
      </trkpt>
      <trkpt lat="45.988390250131488" lon="7.35805026255548">
        <ele>2190.02</ele>
        <time>2016-07-07T12:12:58Z</time>
      </trkpt>
      <trkpt lat="45.988406427204609" lon="7.358053531497717">
        <ele>2190.02</ele>
        <time>2016-07-07T12:13:21Z</time>
      </trkpt>
      <trkpt lat="45.988401984795928" lon="7.358052525669336">
        <ele>2190.02</ele>
        <time>2016-07-07T12:13:49Z</time>
      </trkpt>
      <trkpt lat="45.988395614549518" lon="7.35805319622159">
        <ele>2190.5</ele>
        <time>2016-07-07T12:14:17Z</time>
      </trkpt>
      <trkpt lat="45.988409528508782" lon="7.358034672215581">
        <ele>2190.5</ele>
        <time>2016-07-07T12:14:46Z</time>
      </trkpt>
      <trkpt lat="45.988407516852021" lon="7.358047077432275">
        <ele>2190.5</ele>
        <time>2016-07-07T12:15:07Z</time>
      </trkpt>
      <trkpt lat="45.988426879048347" lon="7.358054788783193">
        <ele>2190.98</ele>
        <time>2016-07-07T12:15:37Z</time>
      </trkpt>
      <trkpt lat="45.988407852128148" lon="7.358061159029603">
        <ele>2190.98</ele>
        <time>2016-07-07T12:15:58Z</time>
      </trkpt>
      <trkpt lat="45.988405924290419" lon="7.358052944764495">
        <ele>2190.98</ele>
        <time>2016-07-07T12:16:25Z</time>
      </trkpt>
      <trkpt lat="45.98841623403132" lon="7.358065601438284">
        <ele>2191.46</ele>
        <time>2016-07-07T12:16:49Z</time>
      </trkpt>
      <trkpt lat="45.988411540165544" lon="7.358071049675345">
        <ele>2191.46</ele>
        <time>2016-07-07T12:17:19Z</time>
      </trkpt>
      <trkpt lat="45.988402403891087" lon="7.358041210100055">
        <ele>2191.46</ele>
        <time>2016-07-07T12:17:46Z</time>
      </trkpt>
      <trkpt lat="45.988382287323475" lon="7.358031990006566">
        <ele>2191.46</ele>
        <time>2016-07-07T12:18:08Z</time>
      </trkpt>
      <trkpt lat="45.988381365314126" lon="7.358040120452642">
        <ele>2191.46</ele>
        <time>2016-07-07T12:18:30Z</time>
      </trkpt>
      <trkpt lat="45.988397123292089" lon="7.358072474598885">
        <ele>2191.9400000000001</ele>
        <time>2016-07-07T12:18:49Z</time>
      </trkpt>
      <trkpt lat="45.988389328122139" lon="7.358062248677015">
        <ele>2191.9400000000001</ele>
        <time>2016-07-07T12:19:11Z</time>
      </trkpt>
      <trkpt lat="45.98838597536087" lon="7.358058812096715">
        <ele>2191.9400000000001</ele>
        <time>2016-07-07T12:19:33Z</time>
      </trkpt>
      <trkpt lat="45.988426711410284" lon="7.35807909630239">
        <ele>2191.9400000000001</ele>
        <time>2016-07-07T12:20:01Z</time>
      </trkpt>
      <trkpt lat="45.988434003666043" lon="7.358090244233608">
        <ele>2191.9400000000001</ele>
        <time>2016-07-07T12:20:19Z</time>
      </trkpt>
      <trkpt lat="45.988431489095092" lon="7.358096027746797">
        <ele>2191.9400000000001</ele>
        <time>2016-07-07T12:20:45Z</time>
      </trkpt>
      <trkpt lat="45.988421095535159" lon="7.358066942542791">
        <ele>2191.9400000000001</ele>
        <time>2016-07-07T12:21:13Z</time>
      </trkpt>
      <trkpt lat="45.988399889320135" lon="7.358041042461991">
        <ele>2192.4200000000001</ele>
        <time>2016-07-07T12:21:38Z</time>
      </trkpt>
      <trkpt lat="45.988409444689751" lon="7.358039198443294">
        <ele>2192.9000000000001</ele>
        <time>2016-07-07T12:22:02Z</time>
      </trkpt>
      <trkpt lat="45.988422269001603" lon="7.35803609713912">
        <ele>2192.9000000000001</ele>
        <time>2016-07-07T12:22:29Z</time>
      </trkpt>
      <trkpt lat="45.988391255959868" lon="7.358042383566499">
        <ele>2193.3899999999999</ele>
        <time>2016-07-07T12:22:39Z</time>
      </trkpt>
      <trkpt lat="45.98838597536087" lon="7.358059734106064">
        <ele>2193.3899999999999</ele>
        <time>2016-07-07T12:22:57Z</time>
      </trkpt>
      <trkpt lat="45.988389914855361" lon="7.358058812096715">
        <ele>2190.5</ele>
        <time>2016-07-07T12:23:07Z</time>
      </trkpt>
      <trkpt lat="45.988389831036329" lon="7.358057470992208">
        <ele>2194.3499999999999</ele>
        <time>2016-07-07T12:23:08Z</time>
      </trkpt>
      <trkpt lat="45.98838304169476" lon="7.358041796833277">
        <ele>2193.3899999999999</ele>
        <time>2016-07-07T12:23:38Z</time>
      </trkpt>
      <trkpt lat="45.988386897370219" lon="7.358038779348135">
        <ele>2193.8699999999999</ele>
        <time>2016-07-07T12:24:04Z</time>
      </trkpt>
      <trkpt lat="45.98837180994451" lon="7.358049675822258">
        <ele>2196.75</ele>
        <time>2016-07-07T12:24:27Z</time>
      </trkpt>
      <trkpt lat="45.988369798287749" lon="7.358052106574178">
        <ele>2193.8699999999999</ele>
        <time>2016-07-07T12:24:28Z</time>
      </trkpt>
      <trkpt lat="45.988364098593593" lon="7.358053447678685">
        <ele>2193.8699999999999</ele>
        <time>2016-07-07T12:24:43Z</time>
      </trkpt>
      <trkpt lat="45.988368960097432" lon="7.358050933107734">
        <ele>2193.8699999999999</ele>
        <time>2016-07-07T12:25:04Z</time>
      </trkpt>
      <trkpt lat="45.988370971754193" lon="7.358046323060989">
        <ele>2193.8699999999999</ele>
        <time>2016-07-07T12:25:16Z</time>
      </trkpt>
      <trkpt lat="45.988377509638667" lon="7.35804732888937">
        <ele>2194.8299999999999</ele>
        <time>2016-07-07T12:25:24Z</time>
      </trkpt>
      <trkpt lat="45.988375497981906" lon="7.358038192614913">
        <ele>2194.3499999999999</ele>
        <time>2016-07-07T12:25:37Z</time>
      </trkpt>
      <trkpt lat="45.988355632871389" lon="7.358040371909738">
        <ele>2194.3499999999999</ele>
        <time>2016-07-07T12:25:55Z</time>
      </trkpt>
      <trkpt lat="45.988367116078734" lon="7.358062164857984">
        <ele>2194.3499999999999</ele>
        <time>2016-07-07T12:26:08Z</time>
      </trkpt>
      <trkpt lat="45.988357560709119" lon="7.358095105737448">
        <ele>2194.8299999999999</ele>
        <time>2016-07-07T12:26:24Z</time>
      </trkpt>
      <trkpt lat="45.988362757489085" lon="7.358087142929435">
        <ele>2194.8299999999999</ele>
        <time>2016-07-07T12:26:36Z</time>
      </trkpt>
      <trkpt lat="45.988366780802608" lon="7.358108935877681">
        <ele>2194.3499999999999</ele>
        <time>2016-07-07T12:26:47Z</time>
      </trkpt>
      <trkpt lat="45.988336186856031" lon="7.358122346922755">
        <ele>2193.3899999999999</ele>
        <time>2016-07-07T12:26:58Z</time>
      </trkpt>
      <trkpt lat="45.988323697820306" lon="7.358131902292371">
        <ele>2193.8699999999999</ele>
        <time>2016-07-07T12:27:15Z</time>
      </trkpt>
      <trkpt lat="45.988323446363211" lon="7.358138859272003">
        <ele>2193.3899999999999</ele>
        <time>2016-07-07T12:27:37Z</time>
      </trkpt>
      <trkpt lat="45.98831657320261" lon="7.358180852606893">
        <ele>2193.3899999999999</ele>
        <time>2016-07-07T12:27:49Z</time>
      </trkpt>
      <trkpt lat="45.988274328410625" lon="7.35824572853744">
        <ele>2192.9000000000001</ele>
        <time>2016-07-07T12:28:00Z</time>
      </trkpt>
      <trkpt lat="45.988247087225318" lon="7.358299875631928">
        <ele>2193.3899999999999</ele>
        <time>2016-07-07T12:28:10Z</time>
      </trkpt>
      <trkpt lat="45.98819587379694" lon="7.358300630003214">
        <ele>2194.8299999999999</ele>
        <time>2016-07-07T12:28:17Z</time>
      </trkpt>
      <trkpt lat="45.988075844943523" lon="7.358374558389187">
        <ele>2193.3899999999999</ele>
        <time>2016-07-07T12:28:31Z</time>
      </trkpt>
      <trkpt lat="45.988019686192274" lon="7.358399452641606">
        <ele>2194.8299999999999</ele>
        <time>2016-07-07T12:28:42Z</time>
      </trkpt>
      <trkpt lat="45.987979453057051" lon="7.358436416834593">
        <ele>2195.79</ele>
        <time>2016-07-07T12:28:53Z</time>
      </trkpt>
      <trkpt lat="45.987962018698454" lon="7.358441697433591">
        <ele>2196.27</ele>
        <time>2016-07-07T12:29:04Z</time>
      </trkpt>
      <trkpt lat="45.987858334556222" lon="7.358499029651284">
        <ele>2196.27</ele>
        <time>2016-07-07T12:29:16Z</time>
      </trkpt>
      <trkpt lat="45.987832099199295" lon="7.358524342998862">
        <ele>2196.27</ele>
        <time>2016-07-07T12:29:20Z</time>
      </trkpt>
      <trkpt lat="45.987711064517498" lon="7.358632050454617">
        <ele>2194.8299999999999</ele>
        <time>2016-07-07T12:29:34Z</time>
      </trkpt>
      <trkpt lat="45.987644763663411" lon="7.358752330765128">
        <ele>2194.3499999999999</ele>
        <time>2016-07-07T12:29:45Z</time>
      </trkpt>
      <trkpt lat="45.987653564661741" lon="7.358734393492341">
        <ele>2194.3499999999999</ele>
        <time>2016-07-07T12:29:50Z</time>
      </trkpt>
      <trkpt lat="45.987572930753231" lon="7.358926674351096">
        <ele>2193.3899999999999</ele>
        <time>2016-07-07T12:30:03Z</time>
      </trkpt>
      <trkpt lat="45.987548539415002" lon="7.358982246369124">
        <ele>2193.8699999999999</ele>
        <time>2016-07-07T12:30:10Z</time>
      </trkpt>
      <trkpt lat="45.987517107278109" lon="7.3591716773808">
        <ele>2194.3499999999999</ele>
        <time>2016-07-07T12:30:23Z</time>
      </trkpt>
      <trkpt lat="45.987496236339211" lon="7.359315846115351">
        <ele>2195.3099999999999</ele>
        <time>2016-07-07T12:30:34Z</time>
      </trkpt>
      <trkpt lat="45.987480143085122" lon="7.359431097283959">
        <ele>2196.27</ele>
        <time>2016-07-07T12:30:44Z</time>
      </trkpt>
      <trkpt lat="45.987455500289798" lon="7.359571577981114">
        <ele>2197.23</ele>
        <time>2016-07-07T12:30:56Z</time>
      </trkpt>
      <trkpt lat="45.987404119223356" lon="7.359714908525348">
        <ele>2198.1900000000001</ele>
        <time>2016-07-07T12:31:08Z</time>
      </trkpt>
      <trkpt lat="45.987383667379618" lon="7.359832338988781">
        <ele>2198.6700000000001</ele>
        <time>2016-07-07T12:31:18Z</time>
      </trkpt>
      <trkpt lat="45.98736472427845" lon="7.359924288466573">
        <ele>2198.6700000000001</ele>
        <time>2016-07-07T12:31:26Z</time>
      </trkpt>
      <trkpt lat="45.987349972128868" lon="7.360078096389771">
        <ele>2199.6300000000001</ele>
        <time>2016-07-07T12:31:38Z</time>
      </trkpt>
      <trkpt lat="45.987382577732205" lon="7.360160574316979">
        <ele>2199.1500000000001</ele>
        <time>2016-07-07T12:31:49Z</time>
      </trkpt>
      <trkpt lat="45.987359276041389" lon="7.360254786908627">
        <ele>2199.1500000000001</ele>
        <time>2016-07-07T12:31:58Z</time>
      </trkpt>
      <trkpt lat="45.987314600497484" lon="7.360288230702281">
        <ele>2200.5900000000001</ele>
        <time>2016-07-07T12:32:07Z</time>
      </trkpt>
      <trkpt lat="45.987300015985966" lon="7.360356459394097">
        <ele>2201.5599999999999</ele>
        <time>2016-07-07T12:32:14Z</time>
      </trkpt>
      <trkpt lat="45.987255088984966" lon="7.360467100515962">
        <ele>2201.5599999999999</ele>
        <time>2016-07-07T12:32:25Z</time>
      </trkpt>
      <trkpt lat="45.987208401784301" lon="7.360576651990414">
        <ele>2202.52</ele>
        <time>2016-07-07T12:32:36Z</time>
      </trkpt>
      <trkpt lat="45.987176718190312" lon="7.360623674467206">
        <ele>2203.48</ele>
        <time>2016-07-07T12:32:42Z</time>
      </trkpt>
      <trkpt lat="45.987099520862103" lon="7.360722329467535">
        <ele>2204.4400000000001</ele>
        <time>2016-07-07T12:32:55Z</time>
      </trkpt>
      <trkpt lat="45.987089546397328" lon="7.360822912305594">
        <ele>2205.8800000000001</ele>
        <time>2016-07-07T12:33:07Z</time>
      </trkpt>
      <trkpt lat="45.987139837816358" lon="7.360799694433808">
        <ele>2208.29</ele>
        <time>2016-07-07T12:33:15Z</time>
      </trkpt>
      <trkpt lat="45.987167749553919" lon="7.360772453248501">
        <ele>2206.8400000000001</ele>
        <time>2016-07-07T12:33:20Z</time>
      </trkpt>
      <trkpt lat="45.987239750102162" lon="7.360723419114947">
        <ele>2208.77</ele>
        <time>2016-07-07T12:33:32Z</time>
      </trkpt>
      <trkpt lat="45.987300015985966" lon="7.360699865967035">
        <ele>2209.25</ele>
        <time>2016-07-07T12:33:39Z</time>
      </trkpt>
      <trkpt lat="45.987383080646396" lon="7.360633984208107">
        <ele>2210.21</ele>
        <time>2016-07-07T12:33:51Z</time>
      </trkpt>
      <trkpt lat="45.987393474206328" lon="7.360607413575053">
        <ele>2210.21</ele>
        <time>2016-07-07T12:33:54Z</time>
      </trkpt>
      <trkpt lat="45.987453823909163" lon="7.360524600371718">
        <ele>2211.1700000000001</ele>
        <time>2016-07-07T12:34:04Z</time>
      </trkpt>
      <trkpt lat="45.987489363178611" lon="7.360573885962367">
        <ele>2212.1300000000001</ele>
        <time>2016-07-07T12:34:10Z</time>
      </trkpt>
      <trkpt lat="45.987465139478445" lon="7.360720988363028">
        <ele>2212.6100000000001</ele>
        <time>2016-07-07T12:34:22Z</time>
      </trkpt>
      <trkpt lat="45.987439826130867" lon="7.360811848193407">
        <ele>2213.5700000000002</ele>
        <time>2016-07-07T12:34:30Z</time>
      </trkpt>
      <trkpt lat="45.987372016534209" lon="7.360913017764688">
        <ele>2214.5300000000002</ele>
        <time>2016-07-07T12:34:42Z</time>
      </trkpt>
      <trkpt lat="45.987331112846732" lon="7.360944282263517">
        <ele>2215.0100000000002</ele>
        <time>2016-07-07T12:34:48Z</time>
      </trkpt>
      <trkpt lat="45.987238744273782" lon="7.36104654148221">
        <ele>2216.46</ele>
        <time>2016-07-07T12:35:01Z</time>
      </trkpt>
      <trkpt lat="45.987173533067107" lon="7.361153159290552">
        <ele>2217.4200000000001</ele>
        <time>2016-07-07T12:35:14Z</time>
      </trkpt>
      <trkpt lat="45.987105891108513" lon="7.361240163445473">
        <ele>2217.9000000000001</ele>
        <time>2016-07-07T12:35:25Z</time>
      </trkpt>
      <trkpt lat="45.987082086503506" lon="7.3612473718822">
        <ele>2218.3800000000001</ele>
        <time>2016-07-07T12:35:28Z</time>
      </trkpt>
      <trkpt lat="45.986967757344246" lon="7.361253574490547">
        <ele>2219.8200000000002</ele>
        <time>2016-07-07T12:35:42Z</time>
      </trkpt>
      <trkpt lat="45.986893996596336" lon="7.361285593360663">
        <ele>2220.7800000000002</ele>
        <time>2016-07-07T12:35:52Z</time>
      </trkpt>
      <trkpt lat="45.986823001876473" lon="7.361339824274182">
        <ele>2222.2199999999998</ele>
        <time>2016-07-07T12:36:04Z</time>
      </trkpt>
      <trkpt lat="45.986758712679148" lon="7.361397910863161">
        <ele>2223.1900000000001</ele>
        <time>2016-07-07T12:36:14Z</time>
      </trkpt>
      <trkpt lat="45.986701380461454" lon="7.361437976360321">
        <ele>2224.1500000000001</ele>
        <time>2016-07-07T12:36:23Z</time>
      </trkpt>
      <trkpt lat="45.986606916412711" lon="7.361484160646796">
        <ele>2225.1100000000001</ele>
        <time>2016-07-07T12:36:36Z</time>
      </trkpt>
      <trkpt lat="45.986519744619727" lon="7.36153126694262">
        <ele>2226.5500000000002</ele>
        <time>2016-07-07T12:36:47Z</time>
      </trkpt>
      <trkpt lat="45.986430142074823" lon="7.361580384895206">
        <ele>2227.5100000000002</ele>
        <time>2016-07-07T12:36:59Z</time>
      </trkpt>
      <trkpt lat="45.986353363841772" lon="7.361618522554636">
        <ele>2228.4699999999998</ele>
        <time>2016-07-07T12:37:09Z</time>
      </trkpt>
      <trkpt lat="45.986256636679173" lon="7.361686835065484">
        <ele>2229.4299999999998</ele>
        <time>2016-07-07T12:37:21Z</time>
      </trkpt>
      <trkpt lat="45.986178936436772" lon="7.361742407083511">
        <ele>2230.4000000000001</ele>
        <time>2016-07-07T12:37:32Z</time>
      </trkpt>
      <trkpt lat="45.986143313348293" lon="7.361785406246781">
        <ele>2230.8800000000001</ele>
        <time>2016-07-07T12:37:38Z</time>
      </trkpt>
      <trkpt lat="45.986051028594375" lon="7.361890850588679">
        <ele>2232.3200000000002</ele>
        <time>2016-07-07T12:37:51Z</time>
      </trkpt>
      <trkpt lat="45.98598045296967" lon="7.361904932186008">
        <ele>2233.2800000000002</ele>
        <time>2016-07-07T12:38:00Z</time>
      </trkpt>
      <trkpt lat="45.985908284783363" lon="7.361936699599028">
        <ele>2234.2399999999998</ele>
        <time>2016-07-07T12:38:10Z</time>
      </trkpt>
      <trkpt lat="45.985843492671847" lon="7.362017584964633">
        <ele>2235.1999999999998</ele>
        <time>2016-07-07T12:38:21Z</time>
      </trkpt>
      <trkpt lat="45.985763110220432" lon="7.36204038374126">
        <ele>2235.6799999999998</ele>
        <time>2016-07-07T12:38:30Z</time>
      </trkpt>
      <trkpt lat="45.985685661435127" lon="7.362023955211043">
        <ele>2236.6399999999999</ele>
        <time>2016-07-07T12:38:41Z</time>
      </trkpt>
      <trkpt lat="45.985605698078871" lon="7.362009286880493">
        <ele>2238.0900000000001</ele>
        <time>2016-07-07T12:38:52Z</time>
      </trkpt>
      <trkpt lat="45.98551626317203" lon="7.361998474225402">
        <ele>2239.0500000000002</ele>
        <time>2016-07-07T12:39:03Z</time>
      </trkpt>
      <trkpt lat="45.985446022823453" lon="7.361987074837089">
        <ele>2240.4899999999998</ele>
        <time>2016-07-07T12:39:13Z</time>
      </trkpt>
      <trkpt lat="45.98534426651895" lon="7.361962180584669">
        <ele>2241.4499999999998</ele>
        <time>2016-07-07T12:39:25Z</time>
      </trkpt>
      <trkpt lat="45.985278971493244" lon="7.361968215554953">
        <ele>2242.8899999999999</ele>
        <time>2016-07-07T12:39:35Z</time>
      </trkpt>
      <trkpt lat="45.985201019793749" lon="7.362000234425068">
        <ele>2244.3299999999999</ele>
        <time>2016-07-07T12:39:47Z</time>
      </trkpt>
      <trkpt lat="45.985189033672214" lon="7.362010460346937">
        <ele>2244.3299999999999</ele>
        <time>2016-07-07T12:39:50Z</time>
      </trkpt>
      <trkpt lat="45.985164977610111" lon="7.362011633813381">
        <ele>2244.3299999999999</ele>
        <time>2016-07-07T12:39:53Z</time>
      </trkpt>
      <trkpt lat="45.985144106671214" lon="7.361973663792014">
        <ele>2244.8200000000002</ele>
        <time>2016-07-07T12:39:59Z</time>
      </trkpt>
      <trkpt lat="45.985057353973389" lon="7.361975843086839">
        <ele>2245.7800000000002</ele>
        <time>2016-07-07T12:40:11Z</time>
      </trkpt>
      <trkpt lat="45.984946964308619" lon="7.361939046531916">
        <ele>2245.7800000000002</ele>
        <time>2016-07-07T12:40:25Z</time>
      </trkpt>
      <trkpt lat="45.984933050349355" lon="7.361935861408711">
        <ele>2247.2199999999998</ele>
        <time>2016-07-07T12:40:27Z</time>
      </trkpt>
      <trkpt lat="45.984935397282243" lon="7.361958241090179">
        <ele>2247.6999999999998</ele>
        <time>2016-07-07T12:40:36Z</time>
      </trkpt>
      <trkpt lat="45.984913185238838" lon="7.361953547224402">
        <ele>2247.6999999999998</ele>
        <time>2016-07-07T12:40:54Z</time>
      </trkpt>
      <trkpt lat="45.984929781407118" lon="7.3619553912431">
        <ele>2247.2199999999998</ele>
        <time>2016-07-07T12:41:18Z</time>
      </trkpt>
      <trkpt lat="45.98490203730762" lon="7.361970646306872">
        <ele>2247.6999999999998</ele>
        <time>2016-07-07T12:41:40Z</time>
      </trkpt>
      <trkpt lat="45.984828528016806" lon="7.361973244696856">
        <ele>2248.6599999999999</ele>
        <time>2016-07-07T12:41:51Z</time>
      </trkpt>
      <trkpt lat="45.984747726470232" lon="7.36199151724577">
        <ele>2249.6199999999999</ele>
        <time>2016-07-07T12:42:02Z</time>
      </trkpt>
      <trkpt lat="45.984704308211803" lon="7.362005766481161">
        <ele>2250.5799999999999</ele>
        <time>2016-07-07T12:42:14Z</time>
      </trkpt>
      <trkpt lat="45.984698943793774" lon="7.361973831430078">
        <ele>2250.5799999999999</ele>
        <time>2016-07-07T12:42:40Z</time>
      </trkpt>
      <trkpt lat="45.984654352068901" lon="7.361994031816721">
        <ele>2251.54</ele>
        <time>2016-07-07T12:43:00Z</time>
      </trkpt>
      <trkpt lat="45.984568605199456" lon="7.362008951604366">
        <ele>2252.9899999999998</ele>
        <time>2016-07-07T12:43:11Z</time>
      </trkpt>
      <trkpt lat="45.984484702348709" lon="7.362028313800693">
        <ele>2253.9499999999998</ele>
        <time>2016-07-07T12:43:23Z</time>
      </trkpt>
      <trkpt lat="45.984408091753721" lon="7.362088831141591">
        <ele>2254.9099999999999</ele>
        <time>2016-07-07T12:43:35Z</time>
      </trkpt>
      <trkpt lat="45.984444972127676" lon="7.362159406766295">
        <ele>2255.3899999999999</ele>
        <time>2016-07-07T12:43:46Z</time>
      </trkpt>
      <trkpt lat="45.984504148364067" lon="7.362172733992338">
        <ele>2256.3499999999999</ele>
        <time>2016-07-07T12:43:55Z</time>
      </trkpt>
      <trkpt lat="45.98453993909061" lon="7.362178349867463">
        <ele>2256.8299999999999</ele>
        <time>2016-07-07T12:44:00Z</time>
      </trkpt>
      <trkpt lat="45.984619650989771" lon="7.362212128937244">
        <ele>2258.27</ele>
        <time>2016-07-07T12:44:11Z</time>
      </trkpt>
      <trkpt lat="45.984683772549033" lon="7.362266862764955">
        <ele>2259.7199999999998</ele>
        <time>2016-07-07T12:44:22Z</time>
      </trkpt>
      <trkpt lat="45.984651753678918" lon="7.3623301461339">
        <ele>2260.1999999999998</ele>
        <time>2016-07-07T12:44:30Z</time>
      </trkpt>
      <trkpt lat="45.984556367620826" lon="7.362369708716869">
        <ele>2261.1599999999999</ele>
        <time>2016-07-07T12:44:42Z</time>
      </trkpt>
      <trkpt lat="45.984481181949377" lon="7.362398374825716">
        <ele>2262.5999999999999</ele>
        <time>2016-07-07T12:44:52Z</time>
      </trkpt>
      <trkpt lat="45.984407085925341" lon="7.362403068691492">
        <ele>2263.0799999999999</ele>
        <time>2016-07-07T12:45:02Z</time>
      </trkpt>
      <trkpt lat="45.984317231923342" lon="7.362396279349923">
        <ele>2264.04</ele>
        <time>2016-07-07T12:45:14Z</time>
      </trkpt>
      <trkpt lat="45.984230730682611" lon="7.36241907812655">
        <ele>2265.48</ele>
        <time>2016-07-07T12:45:26Z</time>
      </trkpt>
      <trkpt lat="45.984161579981446" lon="7.362442966550589">
        <ele>2266.9299999999998</ele>
        <time>2016-07-07T12:45:36Z</time>
      </trkpt>
      <trkpt lat="45.984086897224188" lon="7.362484624609351">
        <ele>2267.8899999999999</ele>
        <time>2016-07-07T12:45:47Z</time>
      </trkpt>
      <trkpt lat="45.984003748744726" lon="7.362515972927213">
        <ele>2268.8499999999999</ele>
        <time>2016-07-07T12:45:58Z</time>
      </trkpt>
      <trkpt lat="45.983943650498986" lon="7.362542962655425">
        <ele>2269.8099999999999</ele>
        <time>2016-07-07T12:46:08Z</time>
      </trkpt>
      <trkpt lat="45.983858490362763" lon="7.362555786967278">
        <ele>2271.25</ele>
        <time>2016-07-07T12:46:19Z</time>
      </trkpt>
      <trkpt lat="45.983770396560431" lon="7.362553607672453">
        <ele>2272.21</ele>
        <time>2016-07-07T12:46:30Z</time>
      </trkpt>
      <trkpt lat="45.983684565871954" lon="7.362594427540898">
        <ele>2273.1700000000001</ele>
        <time>2016-07-07T12:46:41Z</time>
      </trkpt>
      <trkpt lat="45.983603680506349" lon="7.362591996788979">
        <ele>2274.1399999999999</ele>
        <time>2016-07-07T12:46:51Z</time>
      </trkpt>
      <trkpt lat="45.983523465692997" lon="7.362575065344572">
        <ele>2275.0999999999999</ele>
        <time>2016-07-07T12:47:00Z</time>
      </trkpt>
      <trkpt lat="45.983510306105018" lon="7.362576993182302">
        <ele>2275.0999999999999</ele>
        <time>2016-07-07T12:47:02Z</time>
      </trkpt>
      <trkpt lat="45.983479544520378" lon="7.362574394792318">
        <ele>2276.0599999999999</ele>
        <time>2016-07-07T12:47:06Z</time>
      </trkpt>
      <trkpt lat="45.983397820964456" lon="7.362542878836393">
        <ele>2277.02</ele>
        <time>2016-07-07T12:47:17Z</time>
      </trkpt>
      <trkpt lat="45.983323222026229" lon="7.362510357052088">
        <ele>2278.46</ele>
        <time>2016-07-07T12:47:27Z</time>
      </trkpt>
      <trkpt lat="45.98330813460052" lon="7.362508429214358">
        <ele>2278.46</ele>
        <time>2016-07-07T12:47:29Z</time>
      </trkpt>
      <trkpt lat="45.983230182901025" lon="7.362468028441072">
        <ele>2279.4200000000001</ele>
        <time>2016-07-07T12:47:40Z</time>
      </trkpt>
      <trkpt lat="45.983154661953449" lon="7.362427292391658">
        <ele>2281.3499999999999</ele>
        <time>2016-07-07T12:47:51Z</time>
      </trkpt>
      <trkpt lat="45.983064975589514" lon="7.36244447529316">
        <ele>2282.79</ele>
        <time>2016-07-07T12:48:03Z</time>
      </trkpt>
      <trkpt lat="45.982998004183173" lon="7.362410444766283">
        <ele>2283.75</ele>
        <time>2016-07-07T12:48:13Z</time>
      </trkpt>
      <trkpt lat="45.982988867908716" lon="7.362400973215699">
        <ele>2283.27</ele>
        <time>2016-07-07T12:48:14Z</time>
      </trkpt>
      <trkpt lat="45.982919717207551" lon="7.362365769222379">
        <ele>2284.23</ele>
        <time>2016-07-07T12:48:23Z</time>
      </trkpt>
      <trkpt lat="45.98284344188869" lon="7.362363338470459">
        <ele>2285.1900000000001</ele>
        <time>2016-07-07T12:48:33Z</time>
      </trkpt>
      <trkpt lat="45.982796587049961" lon="7.362355459481478">
        <ele>2285.6700000000001</ele>
        <time>2016-07-07T12:48:39Z</time>
      </trkpt>
      <trkpt lat="45.982781583443284" lon="7.362357974052429">
        <ele>2286.1500000000001</ele>
        <time>2016-07-07T12:48:41Z</time>
      </trkpt>
      <trkpt lat="45.982698518782854" lon="7.362358309328556">
        <ele>2287.1100000000001</ele>
        <time>2016-07-07T12:48:53Z</time>
      </trkpt>
      <trkpt lat="45.982591481879354" lon="7.362343557178974">
        <ele>2288.5599999999999</ele>
        <time>2016-07-07T12:49:05Z</time>
      </trkpt>
      <trkpt lat="45.982510931789875" lon="7.362336348742247">
        <ele>2290</ele>
        <time>2016-07-07T12:49:17Z</time>
      </trkpt>
      <trkpt lat="45.98246231675148" lon="7.362345065921545">
        <ele>2290.48</ele>
        <time>2016-07-07T12:49:27Z</time>
      </trkpt>
      <trkpt lat="45.982385454699397" lon="7.36238781362772">
        <ele>2290.96</ele>
        <time>2016-07-07T12:49:38Z</time>
      </trkpt>
      <trkpt lat="45.982307670637965" lon="7.362448750063777">
        <ele>2292.4000000000001</ele>
        <time>2016-07-07T12:49:51Z</time>
      </trkpt>
      <trkpt lat="45.982273975387216" lon="7.362481439486146">
        <ele>2292.8800000000001</ele>
        <time>2016-07-07T12:50:00Z</time>
      </trkpt>
      <trkpt lat="45.982188731431961" lon="7.362507674843073">
        <ele>2293.8400000000001</ele>
        <time>2016-07-07T12:50:11Z</time>
      </trkpt>
      <trkpt lat="45.982142630964518" lon="7.36250264570117">
        <ele>2294.3200000000002</ele>
        <time>2016-07-07T12:50:16Z</time>
      </trkpt>
      <trkpt lat="45.982087478041649" lon="7.362473560497165">
        <ele>2295.2800000000002</ele>
        <time>2016-07-07T12:50:23Z</time>
      </trkpt>
      <trkpt lat="45.981991589069366" lon="7.362436261028051">
        <ele>2296.25</ele>
        <time>2016-07-07T12:50:34Z</time>
      </trkpt>
      <trkpt lat="45.981913302093744" lon="7.362407678738236">
        <ele>2297.6900000000001</ele>
        <time>2016-07-07T12:50:44Z</time>
      </trkpt>
      <trkpt lat="45.981863932684064" lon="7.362406421452761">
        <ele>2298.1700000000001</ele>
        <time>2016-07-07T12:50:51Z</time>
      </trkpt>
      <trkpt lat="45.981820179149508" lon="7.362393513321877">
        <ele>2298.6500000000001</ele>
        <time>2016-07-07T12:50:57Z</time>
      </trkpt>
      <trkpt lat="45.981788076460361" lon="7.362395022064447">
        <ele>2299.1300000000001</ele>
        <time>2016-07-07T12:51:02Z</time>
      </trkpt>
      <trkpt lat="45.981751447543502" lon="7.362387226894498">
        <ele>2300.0900000000001</ele>
        <time>2016-07-07T12:51:07Z</time>
      </trkpt>
      <trkpt lat="45.981643823906779" lon="7.362366355955601">
        <ele>2301.0500000000002</ele>
        <time>2016-07-07T12:51:20Z</time>
      </trkpt>
      <trkpt lat="45.981557657942176" lon="7.362340707331896">
        <ele>2302.98</ele>
        <time>2016-07-07T12:51:30Z</time>
      </trkpt>
      <trkpt lat="45.981528405100107" lon="7.362334588542581">
        <ele>2302.98</ele>
        <time>2016-07-07T12:51:34Z</time>
      </trkpt>
      <trkpt lat="45.981444837525487" lon="7.362357890233398">
        <ele>2303.9400000000001</ele>
        <time>2016-07-07T12:51:45Z</time>
      </trkpt>
      <trkpt lat="45.981388175860047" lon="7.362384460866451">
        <ele>2305.3800000000001</ele>
        <time>2016-07-07T12:51:52Z</time>
      </trkpt>
      <trkpt lat="45.981273762881756" lon="7.362441457808018">
        <ele>2305.8600000000001</ele>
        <time>2016-07-07T12:52:05Z</time>
      </trkpt>
      <trkpt lat="45.981198409572244" lon="7.362494263797998">
        <ele>2307.3000000000002</ele>
        <time>2016-07-07T12:52:16Z</time>
      </trkpt>
      <trkpt lat="45.981121798977256" lon="7.362525779753923">
        <ele>2308.7399999999998</ele>
        <time>2016-07-07T12:52:26Z</time>
      </trkpt>
      <trkpt lat="45.981038985773921" lon="7.362562324851751">
        <ele>2309.6999999999998</ele>
        <time>2016-07-07T12:52:37Z</time>
      </trkpt>
      <trkpt lat="45.980946617200971" lon="7.362604150548577">
        <ele>2310.6700000000001</ele>
        <time>2016-07-07T12:52:48Z</time>
      </trkpt>
      <trkpt lat="45.9808742813766" lon="7.362642707303166">
        <ele>2311.6300000000001</ele>
        <time>2016-07-07T12:52:56Z</time>
      </trkpt>
      <trkpt lat="45.980785097926855" lon="7.362661231309176">
        <ele>2312.5900000000001</ele>
        <time>2016-07-07T12:53:05Z</time>
      </trkpt>
      <trkpt lat="45.980717288330197" lon="7.362676067277789">
        <ele>2313.0700000000002</ele>
        <time>2016-07-07T12:53:13Z</time>
      </trkpt>
      <trkpt lat="45.980679150670767" lon="7.362681180238724">
        <ele>2314.0300000000002</ele>
        <time>2016-07-07T12:53:17Z</time>
      </trkpt>
      <trkpt lat="45.980624752119184" lon="7.362692076712847">
        <ele>2314.5100000000002</ele>
        <time>2016-07-07T12:53:23Z</time>
      </trkpt>
      <trkpt lat="45.980603797361255" lon="7.362690903246403">
        <ele>2315.4699999999998</ele>
        <time>2016-07-07T12:53:25Z</time>
      </trkpt>
      <trkpt lat="45.980565575882792" lon="7.362694256007671">
        <ele>2314.9899999999998</ele>
        <time>2016-07-07T12:53:29Z</time>
      </trkpt>
      <trkpt lat="45.980517631396651" lon="7.362704062834382">
        <ele>2315.4699999999998</ele>
        <time>2016-07-07T12:53:34Z</time>
      </trkpt>
      <trkpt lat="45.980430711060762" lon="7.362752258777618">
        <ele>2315.4699999999998</ele>
        <time>2016-07-07T12:53:44Z</time>
      </trkpt>
      <trkpt lat="45.980345886200666" lon="7.362794419750571">
        <ele>2315.4699999999998</ele>
        <time>2016-07-07T12:53:53Z</time>
      </trkpt>
      <trkpt lat="45.98026541993022" lon="7.362845046445727">
        <ele>2314.9899999999998</ele>
        <time>2016-07-07T12:54:02Z</time>
      </trkpt>
      <trkpt lat="45.980157209560275" lon="7.362845884636045">
        <ele>2315.4699999999998</ele>
        <time>2016-07-07T12:54:12Z</time>
      </trkpt>
      <trkpt lat="45.98008319735527" lon="7.362859211862087">
        <ele>2315.4699999999998</ele>
        <time>2016-07-07T12:54:21Z</time>
      </trkpt>
      <trkpt lat="45.979994852095842" lon="7.362892655655742">
        <ele>2316.4299999999998</ele>
        <time>2016-07-07T12:54:31Z</time>
      </trkpt>
      <trkpt lat="45.979938944801688" lon="7.362916208803654">
        <ele>2316.4299999999998</ele>
        <time>2016-07-07T12:54:37Z</time>
      </trkpt>
      <trkpt lat="45.979851353913546" lon="7.362961303442717">
        <ele>2316.9099999999999</ele>
        <time>2016-07-07T12:54:47Z</time>
      </trkpt>
      <trkpt lat="45.979771474376321" lon="7.362987622618675">
        <ele>2317.8800000000001</ele>
        <time>2016-07-07T12:54:56Z</time>
      </trkpt>
      <trkpt lat="45.979710621759295" lon="7.363037159666419">
        <ele>2318.3600000000001</ele>
        <time>2016-07-07T12:55:05Z</time>
      </trkpt>
      <trkpt lat="45.979677177965641" lon="7.363054677844048">
        <ele>2319.3200000000002</ele>
        <time>2016-07-07T12:55:09Z</time>
      </trkpt>
      <trkpt lat="45.979603417217731" lon="7.363120391964912">
        <ele>2320.2800000000002</ele>
        <time>2016-07-07T12:55:20Z</time>
      </trkpt>
      <trkpt lat="45.979542061686516" lon="7.363126007840037">
        <ele>2321.7199999999998</ele>
        <time>2016-07-07T12:55:29Z</time>
      </trkpt>
      <trkpt lat="45.97943963482976" lon="7.363142604008317">
        <ele>2323.6399999999999</ele>
        <time>2016-07-07T12:55:42Z</time>
      </trkpt>
      <trkpt lat="45.979389175772667" lon="7.363158697262406">
        <ele>2325.0900000000001</ele>
        <time>2016-07-07T12:55:50Z</time>
      </trkpt>
      <trkpt lat="45.979307033121586" lon="7.363182920962572">
        <ele>2324.6100000000001</ele>
        <time>2016-07-07T12:55:59Z</time>
      </trkpt>
      <trkpt lat="45.97920510917902" lon="7.363172946497798">
        <ele>2325.0900000000001</ele>
        <time>2016-07-07T12:56:10Z</time>
      </trkpt>
      <trkpt lat="45.979165127500892" lon="7.363149225711823">
        <ele>2325.5700000000002</ele>
        <time>2016-07-07T12:56:15Z</time>
      </trkpt>
      <trkpt lat="45.97913134843111" lon="7.363079153001308">
        <ele>2326.0500000000002</ele>
        <time>2016-07-07T12:56:21Z</time>
      </trkpt>
      <trkpt lat="45.979111650958657" lon="7.36305526457727">
        <ele>2326.5300000000002</ele>
        <time>2016-07-07T12:56:24Z</time>
      </trkpt>
      <trkpt lat="45.979023389518261" lon="7.363012349233031">
        <ele>2327.4899999999998</ele>
        <time>2016-07-07T12:56:35Z</time>
      </trkpt>
      <trkpt lat="45.979015845805407" lon="7.363016875460744">
        <ele>2327.4899999999998</ele>
        <time>2016-07-07T12:56:36Z</time>
      </trkpt>
      <trkpt lat="45.978993969038129" lon="7.363039255142212">
        <ele>2327.4899999999998</ele>
        <time>2016-07-07T12:56:40Z</time>
      </trkpt>
      <trkpt lat="45.978972092270851" lon="7.363006481900811">
        <ele>2327.9699999999998</ele>
        <time>2016-07-07T12:56:43Z</time>
      </trkpt>
      <trkpt lat="45.978931942954659" lon="7.362918891012669">
        <ele>2328.4499999999998</ele>
        <time>2016-07-07T12:56:52Z</time>
      </trkpt>
      <trkpt lat="45.978859774768353" lon="7.362870192155242">
        <ele>2329.4099999999999</ele>
        <time>2016-07-07T12:57:03Z</time>
      </trkpt>
      <trkpt lat="45.978795234113932" lon="7.362835491076112">
        <ele>2329.8899999999999</ele>
        <time>2016-07-07T12:57:12Z</time>
      </trkpt>
      <trkpt lat="45.97870965488255" lon="7.362798023968935">
        <ele>2331.3299999999999</ele>
        <time>2016-07-07T12:57:22Z</time>
      </trkpt>
      <trkpt lat="45.978626171126962" lon="7.362756952643395">
        <ele>2332.3000000000002</ele>
        <time>2016-07-07T12:57:32Z</time>
      </trkpt>
      <trkpt lat="45.978556266054511" lon="7.362659722566605">
        <ele>2333.2600000000002</ele>
        <time>2016-07-07T12:57:44Z</time>
      </trkpt>
      <trkpt lat="45.978443194180727" lon="7.362607838585973">
        <ele>2333.7399999999998</ele>
        <time>2016-07-07T12:57:58Z</time>
      </trkpt>
      <trkpt lat="45.978422239422798" lon="7.362612448632717">
        <ele>2335.1799999999998</ele>
        <time>2016-07-07T12:58:01Z</time>
      </trkpt>
      <trkpt lat="45.978349735960364" lon="7.362589566037059">
        <ele>2336.1399999999999</ele>
        <time>2016-07-07T12:58:10Z</time>
      </trkpt>
      <trkpt lat="45.978324254974723" lon="7.362574227154255">
        <ele>2336.6199999999999</ele>
        <time>2016-07-07T12:58:13Z</time>
      </trkpt>
      <trkpt lat="45.978263486176729" lon="7.36257934011519">
        <ele>2337.0999999999999</ele>
        <time>2016-07-07T12:58:20Z</time>
      </trkpt>
      <trkpt lat="45.978202214464545" lon="7.362615885213018">
        <ele>2338.0599999999999</ele>
        <time>2016-07-07T12:58:28Z</time>
      </trkpt>
      <trkpt lat="45.978143373504281" lon="7.362564587965608">
        <ele>2338.54</ele>
        <time>2016-07-07T12:58:36Z</time>
      </trkpt>
      <trkpt lat="45.978088891133666" lon="7.362526198849082">
        <ele>2339.5100000000002</ele>
        <time>2016-07-07T12:58:44Z</time>
      </trkpt>
      <trkpt lat="45.978027703240514" lon="7.362493090331554">
        <ele>2340.4699999999998</ele>
        <time>2016-07-07T12:58:51Z</time>
      </trkpt>
      <trkpt lat="45.978002557530999" lon="7.362482277676463">
        <ele>2340.4699999999998</ele>
        <time>2016-07-07T12:58:54Z</time>
      </trkpt>
      <trkpt lat="45.977975819259882" lon="7.362495604902506">
        <ele>2340.9499999999998</ele>
        <time>2016-07-07T12:58:57Z</time>
      </trkpt>
      <trkpt lat="45.977894933894277" lon="7.362503064796329">
        <ele>2341.4299999999998</ele>
        <time>2016-07-07T12:59:07Z</time>
      </trkpt>
      <trkpt lat="45.977853946387768" lon="7.362505495548248">
        <ele>2342.3899999999999</ele>
        <time>2016-07-07T12:59:12Z</time>
      </trkpt>
      <trkpt lat="45.977721428498626" lon="7.362551428377628">
        <ele>2344.3099999999999</ele>
        <time>2016-07-07T12:59:26Z</time>
      </trkpt>
      <trkpt lat="45.977666275575757" lon="7.362600462511182">
        <ele>2344.3099999999999</ele>
        <time>2016-07-07T12:59:35Z</time>
      </trkpt>
      <trkpt lat="45.977561082690954" lon="7.362646562978625">
        <ele>2345.75</ele>
        <time>2016-07-07T12:59:47Z</time>
      </trkpt>
      <trkpt lat="45.977497212588787" lon="7.362701967358589">
        <ele>2347.6799999999998</ele>
        <time>2016-07-07T12:59:57Z</time>
      </trkpt>
      <trkpt lat="45.977488830685616" lon="7.362703224644065">
        <ele>2347.1999999999998</ele>
        <time>2016-07-07T12:59:58Z</time>
      </trkpt>
      <trkpt lat="45.977465445175767" lon="7.362723425030708">
        <ele>2347.6799999999998</ele>
        <time>2016-07-07T13:00:01Z</time>
      </trkpt>
      <trkpt lat="45.977440970018506" lon="7.362756282091141">
        <ele>2347.6799999999998</ele>
        <time>2016-07-07T13:00:05Z</time>
      </trkpt>
      <trkpt lat="45.977377854287624" lon="7.362779416143894">
        <ele>2348.1599999999999</ele>
        <time>2016-07-07T13:00:12Z</time>
      </trkpt>
      <trkpt lat="45.977285904809833" lon="7.362780841067433">
        <ele>2349.5999999999999</ele>
        <time>2016-07-07T13:00:23Z</time>
      </trkpt>
      <trkpt lat="45.977193200960755" lon="7.362771956250072">
        <ele>2351.04</ele>
        <time>2016-07-07T13:00:34Z</time>
      </trkpt>
      <trkpt lat="45.977126732468605" lon="7.362822163850069">
        <ele>2352.48</ele>
        <time>2016-07-07T13:00:45Z</time>
      </trkpt>
      <trkpt lat="45.977051630616188" lon="7.36286130733788">
        <ele>2353.9299999999998</ele>
        <time>2016-07-07T13:00:55Z</time>
      </trkpt>
      <trkpt lat="45.977046685293317" lon="7.362868767231703">
        <ele>2353.9299999999998</ele>
        <time>2016-07-07T13:00:56Z</time>
      </trkpt>
      <trkpt lat="45.976969068869948" lon="7.362935738638043">
        <ele>2355.3699999999999</ele>
        <time>2016-07-07T13:01:08Z</time>
      </trkpt>
      <trkpt lat="45.976885752752423" lon="7.362988293170929">
        <ele>2356.3299999999999</ele>
        <time>2016-07-07T13:01:19Z</time>
      </trkpt>
      <trkpt lat="45.976831773295999" lon="7.363014277070761">
        <ele>2357.77</ele>
        <time>2016-07-07T13:01:28Z</time>
      </trkpt>
      <trkpt lat="45.976773602887988" lon="7.363069010898471">
        <ele>2358.73</ele>
        <time>2016-07-07T13:01:38Z</time>
      </trkpt>
      <trkpt lat="45.976754324510694" lon="7.363046631217003">
        <ele>2359.21</ele>
        <time>2016-07-07T13:01:46Z</time>
      </trkpt>
      <trkpt lat="45.97674778662622" lon="7.363058030605316">
        <ele>2359.21</ele>
        <time>2016-07-07T13:02:06Z</time>
      </trkpt>
      <trkpt lat="45.976744685322046" lon="7.363047050312161">
        <ele>2359.21</ele>
        <time>2016-07-07T13:02:19Z</time>
      </trkpt>
      <trkpt lat="45.976753234863281" lon="7.363047134131193">
        <ele>2359.21</ele>
        <time>2016-07-07T13:02:36Z</time>
      </trkpt>
      <trkpt lat="45.976740494370461" lon="7.363044954836369">
        <ele>2359.21</ele>
        <time>2016-07-07T13:02:53Z</time>
      </trkpt>
      <trkpt lat="45.976752312853932" lon="7.363054258748889">
        <ele>2359.21</ele>
        <time>2016-07-07T13:03:07Z</time>
      </trkpt>
      <trkpt lat="45.976713253185153" lon="7.363047050312161">
        <ele>2359.6900000000001</ele>
        <time>2016-07-07T13:03:19Z</time>
      </trkpt>
      <trkpt lat="45.976649969816208" lon="7.363079991191626">
        <ele>2361.1399999999999</ele>
        <time>2016-07-07T13:03:30Z</time>
      </trkpt>
      <trkpt lat="45.976642090827227" lon="7.363096000626683">
        <ele>2361.6199999999999</ele>
        <time>2016-07-07T13:03:32Z</time>
      </trkpt>
      <trkpt lat="45.976567240431905" lon="7.363148555159569">
        <ele>2363.54</ele>
        <time>2016-07-07T13:03:43Z</time>
      </trkpt>
      <trkpt lat="45.976526085287333" lon="7.363225081935525">
        <ele>2364.98</ele>
        <time>2016-07-07T13:03:53Z</time>
      </trkpt>
      <trkpt lat="45.976468501612544" lon="7.363278809934855">
        <ele>2366.4200000000001</ele>
        <time>2016-07-07T13:04:04Z</time>
      </trkpt>
      <trkpt lat="45.976405302062631" lon="7.363336812704802">
        <ele>2367.8600000000001</ele>
        <time>2016-07-07T13:04:16Z</time>
      </trkpt>
      <trkpt lat="45.976329362019897" lon="7.363406969234347">
        <ele>2369.3099999999999</ele>
        <time>2016-07-07T13:04:26Z</time>
      </trkpt>
      <trkpt lat="45.976277310401201" lon="7.363479556515813">
        <ele>2370.27</ele>
        <time>2016-07-07T13:04:36Z</time>
      </trkpt>
      <trkpt lat="45.976231209933758" lon="7.363557340577245">
        <ele>2371.23</ele>
        <time>2016-07-07T13:04:47Z</time>
      </trkpt>
      <trkpt lat="45.976146720349789" lon="7.363625150173903">
        <ele>2373.1500000000001</ele>
        <time>2016-07-07T13:04:59Z</time>
      </trkpt>
      <trkpt lat="45.976090226322412" lon="7.36371492035687">
        <ele>2374.1100000000001</ele>
        <time>2016-07-07T13:05:10Z</time>
      </trkpt>
      <trkpt lat="45.976029289886355" lon="7.3637979850173">
        <ele>2375.0700000000002</ele>
        <time>2016-07-07T13:05:20Z</time>
      </trkpt>
      <trkpt lat="45.975984781980515" lon="7.363905273377895">
        <ele>2376.52</ele>
        <time>2016-07-07T13:05:32Z</time>
      </trkpt>
      <trkpt lat="45.97593910060823" lon="7.363997306674719">
        <ele>2377.96</ele>
        <time>2016-07-07T13:05:43Z</time>
      </trkpt>
      <trkpt lat="45.975914541631937" lon="7.36403301358223">
        <ele>2378.4400000000001</ele>
        <time>2016-07-07T13:05:48Z</time>
      </trkpt>
      <trkpt lat="45.975849414244294" lon="7.364085568115115">
        <ele>2379.8800000000001</ele>
        <time>2016-07-07T13:05:58Z</time>
      </trkpt>
      <trkpt lat="45.975823681801558" lon="7.364158574491739">
        <ele>2381.3200000000002</ele>
        <time>2016-07-07T13:06:07Z</time>
      </trkpt>
      <trkpt lat="45.97577934153378" lon="7.364208698272705">
        <ele>2382.7600000000002</ele>
        <time>2016-07-07T13:06:18Z</time>
      </trkpt>
      <trkpt lat="45.975734498351812" lon="7.364256978034973">
        <ele>2383.73</ele>
        <time>2016-07-07T13:06:25Z</time>
      </trkpt>
      <trkpt lat="45.975685212761164" lon="7.36429737880826">
        <ele>2383.73</ele>
        <time>2016-07-07T13:06:31Z</time>
      </trkpt>
      <trkpt lat="45.975613798946142" lon="7.364406930282712">
        <ele>2384.21</ele>
        <time>2016-07-07T13:06:42Z</time>
      </trkpt>
      <trkpt lat="45.975545067340136" lon="7.364475997164846">
        <ele>2384.21</ele>
        <time>2016-07-07T13:06:52Z</time>
      </trkpt>
      <trkpt lat="45.975512629374862" lon="7.364518325775862">
        <ele>2385.6500000000001</ele>
        <time>2016-07-07T13:06:58Z</time>
      </trkpt>
      <trkpt lat="45.97546904347837" lon="7.364604994654656">
        <ele>2387.5700000000002</ele>
        <time>2016-07-07T13:07:08Z</time>
      </trkpt>
      <trkpt lat="45.975417494773865" lon="7.364666098728776">
        <ele>2388.5300000000002</ele>
        <time>2016-07-07T13:07:18Z</time>
      </trkpt>
      <trkpt lat="45.975372651591897" lon="7.364763580262661">
        <ele>2390.9400000000001</ele>
        <time>2016-07-07T13:07:31Z</time>
      </trkpt>
      <trkpt lat="45.97532831132412" lon="7.364820241928101">
        <ele>2392.3800000000001</ele>
        <time>2016-07-07T13:07:40Z</time>
      </trkpt>
      <trkpt lat="45.975258154794574" lon="7.364909844473004">
        <ele>2393.3400000000001</ele>
        <time>2016-07-07T13:07:51Z</time>
      </trkpt>
      <trkpt lat="45.975226806476712" lon="7.364955106750131">
        <ele>2393.8200000000002</ele>
        <time>2016-07-07T13:08:00Z</time>
      </trkpt>
      <trkpt lat="45.975186824798584" lon="7.36501662991941">
        <ele>2396.2199999999998</ele>
        <time>2016-07-07T13:08:13Z</time>
      </trkpt>
      <trkpt lat="45.975123625248671" lon="7.365046050399542">
        <ele>2398.1500000000001</ele>
        <time>2016-07-07T13:08:24Z</time>
      </trkpt>
      <trkpt lat="45.97508498467505" lon="7.365074465051293">
        <ele>2399.1100000000001</ele>
        <time>2016-07-07T13:08:33Z</time>
      </trkpt>
      <trkpt lat="45.975029245018959" lon="7.365067088976502">
        <ele>2401.0300000000002</ele>
        <time>2016-07-07T13:08:44Z</time>
      </trkpt>
      <trkpt lat="45.974995046854019" lon="7.365080332383514">
        <ele>2402.4699999999998</ele>
        <time>2016-07-07T13:08:54Z</time>
      </trkpt>
      <trkpt lat="45.974952718243003" lon="7.365107489749789">
        <ele>2403.9099999999999</ele>
        <time>2016-07-07T13:09:03Z</time>
      </trkpt>
      <trkpt lat="45.974905444309115" lon="7.365104639902711">
        <ele>2404.8800000000001</ele>
        <time>2016-07-07T13:09:13Z</time>
      </trkpt>
      <trkpt lat="45.974864456802607" lon="7.365170940756798">
        <ele>2407.2800000000002</ele>
        <time>2016-07-07T13:09:25Z</time>
      </trkpt>
      <trkpt lat="45.974784241989255" lon="7.365237912163138">
        <ele>2408.2399999999998</ele>
        <time>2016-07-07T13:09:37Z</time>
      </trkpt>
      <trkpt lat="45.974765466526151" lon="7.365248557180166">
        <ele>2408.7199999999998</ele>
        <time>2016-07-07T13:09:48Z</time>
      </trkpt>
      <trkpt lat="45.974707128480077" lon="7.365278648212552">
        <ele>2410.1599999999999</ele>
        <time>2016-07-07T13:10:00Z</time>
      </trkpt>
      <trkpt lat="45.974682653322816" lon="7.365289879962802">
        <ele>2409.6799999999998</ele>
        <time>2016-07-07T13:10:21Z</time>
      </trkpt>
      <trkpt lat="45.974695226177573" lon="7.365297675132752">
        <ele>2409.6799999999998</ele>
        <time>2016-07-07T13:10:29Z</time>
      </trkpt>
      <trkpt lat="45.974698411300778" lon="7.365283006802201">
        <ele>2408.7199999999998</ele>
        <time>2016-07-07T13:10:36Z</time>
      </trkpt>
      <trkpt lat="45.974705116823316" lon="7.36526045948267">
        <ele>2408.7199999999998</ele>
        <time>2016-07-07T13:10:56Z</time>
      </trkpt>
      <trkpt lat="45.974694555625319" lon="7.365275043994188">
        <ele>2408.7199999999998</ele>
        <time>2016-07-07T13:11:25Z</time>
      </trkpt>
      <trkpt lat="45.97470679320395" lon="7.365275295451284">
        <ele>2409.6799999999998</ele>
        <time>2016-07-07T13:11:44Z</time>
      </trkpt>
      <trkpt lat="45.974706457927823" lon="7.365273535251617">
        <ele>2409.1999999999998</ele>
        <time>2016-07-07T13:12:03Z</time>
      </trkpt>
      <trkpt lat="45.974700758233666" lon="7.365275211632252">
        <ele>2409.1999999999998</ele>
        <time>2016-07-07T13:12:25Z</time>
      </trkpt>
      <trkpt lat="45.974684162065387" lon="7.365305637940764">
        <ele>2409.6799999999998</ele>
        <time>2016-07-07T13:12:53Z</time>
      </trkpt>
      <trkpt lat="45.974689861759543" lon="7.365305470302701">
        <ele>2409.6799999999998</ele>
        <time>2016-07-07T13:13:25Z</time>
      </trkpt>
      <trkpt lat="45.97470335662365" lon="7.365273786708713">
        <ele>2409.6799999999998</ele>
        <time>2016-07-07T13:13:54Z</time>
      </trkpt>
      <trkpt lat="45.974704530090094" lon="7.365300189703703">
        <ele>2410.6399999999999</ele>
        <time>2016-07-07T13:14:16Z</time>
      </trkpt>
      <trkpt lat="45.97470436245203" lon="7.365284264087677">
        <ele>2411.1199999999999</ele>
        <time>2016-07-07T13:14:35Z</time>
      </trkpt>
      <trkpt lat="45.974693549796939" lon="7.365285437554121">
        <ele>2410.6399999999999</ele>
        <time>2016-07-07T13:15:01Z</time>
      </trkpt>
      <trkpt lat="45.974695309996605" lon="7.365296250209212">
        <ele>2410.6399999999999</ele>
        <time>2016-07-07T13:15:35Z</time>
      </trkpt>
      <trkpt lat="45.974707212299109" lon="7.365297172218561">
        <ele>2410.6399999999999</ele>
        <time>2016-07-07T13:16:05Z</time>
      </trkpt>
      <trkpt lat="45.974705452099442" lon="7.365282503888011">
        <ele>2410.6399999999999</ele>
        <time>2016-07-07T13:16:39Z</time>
      </trkpt>
      <trkpt lat="45.974712241441011" lon="7.365271188318729">
        <ele>2411.1199999999999</ele>
        <time>2016-07-07T13:17:04Z</time>
      </trkpt>
      <trkpt lat="45.974697908386588" lon="7.365295328199863">
        <ele>2411.1199999999999</ele>
        <time>2016-07-07T13:17:29Z</time>
      </trkpt>
      <trkpt lat="45.974701009690762" lon="7.36527563072741">
        <ele>2411.1199999999999</ele>
        <time>2016-07-07T13:17:53Z</time>
      </trkpt>
      <trkpt lat="45.974689023569226" lon="7.365284096449614">
        <ele>2411.5999999999999</ele>
        <time>2016-07-07T13:18:22Z</time>
      </trkpt>
      <trkpt lat="45.974693214520812" lon="7.365272613242269">
        <ele>2412.0900000000001</ele>
        <time>2016-07-07T13:18:47Z</time>
      </trkpt>
      <trkpt lat="45.974703524261713" lon="7.365282420068979">
        <ele>2411.1199999999999</ele>
        <time>2016-07-07T13:19:00Z</time>
      </trkpt>
      <trkpt lat="45.974710648879409" lon="7.365289712324739">
        <ele>2411.5999999999999</ele>
        <time>2016-07-07T13:19:09Z</time>
      </trkpt>
      <trkpt lat="45.97470193170011" lon="7.365295412018895">
        <ele>2411.5999999999999</ele>
        <time>2016-07-07T13:19:19Z</time>
      </trkpt>
      <trkpt lat="45.974681563675404" lon="7.365293316543102">
        <ele>2412.0900000000001</ele>
        <time>2016-07-07T13:19:32Z</time>
      </trkpt>
      <trkpt lat="45.974708050489426" lon="7.365259286016226">
        <ele>2411.5999999999999</ele>
        <time>2016-07-07T13:19:42Z</time>
      </trkpt>
      <trkpt lat="45.97466672770679" lon="7.365287365391851">
        <ele>2412.5700000000002</ele>
        <time>2016-07-07T13:19:54Z</time>
      </trkpt>
      <trkpt lat="45.974621046334505" lon="7.365342937409878">
        <ele>2412.5700000000002</ele>
        <time>2016-07-07T13:20:02Z</time>
      </trkpt>
      <trkpt lat="45.974538736045361" lon="7.365383757278323">
        <ele>2414.0100000000002</ele>
        <time>2016-07-07T13:20:13Z</time>
      </trkpt>
      <trkpt lat="45.974467657506466" lon="7.365386607125402">
        <ele>2414.9699999999998</ele>
        <time>2016-07-07T13:20:25Z</time>
      </trkpt>
      <trkpt lat="45.974462544545531" lon="7.365392139181495">
        <ele>2415.4499999999998</ele>
        <time>2016-07-07T13:20:26Z</time>
      </trkpt>
      <trkpt lat="45.974420048296452" lon="7.365419631823897">
        <ele>2416.8899999999999</ele>
        <time>2016-07-07T13:20:33Z</time>
      </trkpt>
      <trkpt lat="45.974353328347206" lon="7.365449303761125">
        <ele>2418.3299999999999</ele>
        <time>2016-07-07T13:20:44Z</time>
      </trkpt>
      <trkpt lat="45.97426607273519" lon="7.365438910201192">
        <ele>2419.3000000000002</ele>
        <time>2016-07-07T13:20:54Z</time>
      </trkpt>
      <trkpt lat="45.974194742739201" lon="7.365466067567468">
        <ele>2421.2199999999998</ele>
        <time>2016-07-07T13:21:06Z</time>
      </trkpt>
      <trkpt lat="45.974131710827351" lon="7.3654730245471">
        <ele>2422.6599999999999</ele>
        <time>2016-07-07T13:21:18Z</time>
      </trkpt>
      <trkpt lat="45.974079240113497" lon="7.365460284054279">
        <ele>2425.0599999999999</ele>
        <time>2016-07-07T13:21:30Z</time>
      </trkpt>
      <trkpt lat="45.974021404981613" lon="7.36546128988266">
        <ele>2426.5</ele>
        <time>2016-07-07T13:21:42Z</time>
      </trkpt>
      <trkpt lat="45.973957870155573" lon="7.365446453914046">
        <ele>2428.4299999999998</ele>
        <time>2016-07-07T13:21:54Z</time>
      </trkpt>
      <trkpt lat="45.973904225975275" lon="7.365389121696353">
        <ele>2430.3499999999999</ele>
        <time>2016-07-07T13:22:06Z</time>
      </trkpt>
      <trkpt lat="45.973835159093142" lon="7.365396665409207">
        <ele>2431.79</ele>
        <time>2016-07-07T13:22:17Z</time>
      </trkpt>
      <trkpt lat="45.973735749721527" lon="7.365394318476319">
        <ele>2432.75</ele>
        <time>2016-07-07T13:22:29Z</time>
      </trkpt>
      <trkpt lat="45.973694929853082" lon="7.365400437265635">
        <ele>2433.23</ele>
        <time>2016-07-07T13:22:35Z</time>
      </trkpt>
      <trkpt lat="45.973631897941232" lon="7.36543295904994">
        <ele>2434.1999999999998</ele>
        <time>2016-07-07T13:22:46Z</time>
      </trkpt>
      <trkpt lat="45.9736024774611" lon="7.365442765876651">
        <ele>2435.6399999999999</ele>
        <time>2016-07-07T13:22:55Z</time>
      </trkpt>
      <trkpt lat="45.973542546853423" lon="7.365438910201192">
        <ele>2436.5999999999999</ele>
        <time>2016-07-07T13:23:04Z</time>
      </trkpt>
      <trkpt lat="45.973484208807349" lon="7.365437401458621">
        <ele>2438.04</ele>
        <time>2016-07-07T13:23:14Z</time>
      </trkpt>
      <trkpt lat="45.973474401980639" lon="7.365437233820558">
        <ele>2438.52</ele>
        <time>2016-07-07T13:23:15Z</time>
      </trkpt>
      <trkpt lat="45.973407262936234" lon="7.365467408671975">
        <ele>2439.96</ele>
        <time>2016-07-07T13:23:26Z</time>
      </trkpt>
      <trkpt lat="45.97336309030652" lon="7.36548718996346">
        <ele>2441.4099999999999</ele>
        <time>2016-07-07T13:23:36Z</time>
      </trkpt>
      <trkpt lat="45.973304333165288" lon="7.365512335672975">
        <ele>2442.8499999999999</ele>
        <time>2016-07-07T13:23:46Z</time>
      </trkpt>
      <trkpt lat="45.973242055624723" lon="7.36552239395678">
        <ele>2444.29</ele>
        <time>2016-07-07T13:23:59Z</time>
      </trkpt>
      <trkpt lat="45.973215904086828" lon="7.365593807771802">
        <ele>2445.25</ele>
        <time>2016-07-07T13:24:09Z</time>
      </trkpt>
      <trkpt lat="45.973177179694176" lon="7.365632448345423">
        <ele>2445.73</ele>
        <time>2016-07-07T13:24:15Z</time>
      </trkpt>
      <trkpt lat="45.973068382591009" lon="7.365635549649596">
        <ele>2447.1700000000001</ele>
        <time>2016-07-07T13:24:27Z</time>
      </trkpt>
      <trkpt lat="45.973002584651113" lon="7.365594897419214">
        <ele>2448.6199999999999</ele>
        <time>2016-07-07T13:24:38Z</time>
      </trkpt>
      <trkpt lat="45.972944246605039" lon="7.365580480545759">
        <ele>2450.0599999999999</ele>
        <time>2016-07-07T13:24:48Z</time>
      </trkpt>
      <trkpt lat="45.972848273813725" lon="7.3655956517905">
        <ele>2450.54</ele>
        <time>2016-07-07T13:24:59Z</time>
      </trkpt>
      <trkpt lat="45.972756240516901" lon="7.365603446960449">
        <ele>2451.98</ele>
        <time>2016-07-07T13:25:11Z</time>
      </trkpt>
      <trkpt lat="45.972673511132598" lon="7.365613924339414">
        <ele>2452.9400000000001</ele>
        <time>2016-07-07T13:25:22Z</time>
      </trkpt>
      <trkpt lat="45.972602600231767" lon="7.36563135869801">
        <ele>2453.9000000000001</ele>
        <time>2016-07-07T13:25:32Z</time>
      </trkpt>
      <trkpt lat="45.972576783969998" lon="7.365632029250264">
        <ele>2454.3800000000001</ele>
        <time>2016-07-07T13:25:35Z</time>
      </trkpt>
      <trkpt lat="45.972518613561988" lon="7.365609565749764">
        <ele>2454.8600000000001</ele>
        <time>2016-07-07T13:25:42Z</time>
      </trkpt>
      <trkpt lat="45.97242146730423" lon="7.365613169968128">
        <ele>2456.3099999999999</ele>
        <time>2016-07-07T13:25:54Z</time>
      </trkpt>
      <trkpt lat="45.972339827567339" lon="7.365639992058277">
        <ele>2457.27</ele>
        <time>2016-07-07T13:26:05Z</time>
      </trkpt>
      <trkpt lat="45.972264390438795" lon="7.365613924339414">
        <ele>2457.75</ele>
        <time>2016-07-07T13:26:13Z</time>
      </trkpt>
      <trkpt lat="45.972155928611755" lon="7.36564208753407">
        <ele>2458.71</ele>
        <time>2016-07-07T13:26:25Z</time>
      </trkpt>
      <trkpt lat="45.972061213105917" lon="7.365684835240245">
        <ele>2459.6700000000001</ele>
        <time>2016-07-07T13:26:35Z</time>
      </trkpt>
      <trkpt lat="45.972051657736301" lon="7.365687433630228">
        <ele>2459.1900000000001</ele>
        <time>2016-07-07T13:26:36Z</time>
      </trkpt>
      <trkpt lat="45.971955433487892" lon="7.365737138316035">
        <ele>2460.1500000000001</ele>
        <time>2016-07-07T13:26:47Z</time>
      </trkpt>
      <trkpt lat="45.971890473738313" lon="7.365809725597501">
        <ele>2459.1900000000001</ele>
        <time>2016-07-07T13:26:58Z</time>
      </trkpt>
      <trkpt lat="45.971807325258851" lon="7.365838894620538">
        <ele>2460.1500000000001</ele>
        <time>2016-07-07T13:27:10Z</time>
      </trkpt>
      <trkpt lat="45.971716213971376" lon="7.365871500223875">
        <ele>2461.5900000000001</ele>
        <time>2016-07-07T13:27:22Z</time>
      </trkpt>
      <trkpt lat="45.971665671095252" lon="7.365875858813524">
        <ele>2462.5500000000002</ele>
        <time>2016-07-07T13:27:28Z</time>
      </trkpt>
      <trkpt lat="45.971593586727977" lon="7.365936543792486">
        <ele>2463.52</ele>
        <time>2016-07-07T13:27:39Z</time>
      </trkpt>
      <trkpt lat="45.971523597836494" lon="7.365973675623536">
        <ele>2464.48</ele>
        <time>2016-07-07T13:27:50Z</time>
      </trkpt>
      <trkpt lat="45.971486298367381" lon="7.365978034213185">
        <ele>2464.96</ele>
        <time>2016-07-07T13:27:55Z</time>
      </trkpt>
      <trkpt lat="45.971474060788751" lon="7.365988427773118">
        <ele>2464.48</ele>
        <time>2016-07-07T13:27:57Z</time>
      </trkpt>
      <trkpt lat="45.971452854573727" lon="7.365994295105338">
        <ele>2464.48</ele>
        <time>2016-07-07T13:28:00Z</time>
      </trkpt>
      <trkpt lat="45.971402395516634" lon="7.365982141345739">
        <ele>2464.96</ele>
        <time>2016-07-07T13:28:07Z</time>
      </trkpt>
      <trkpt lat="45.97133232280612" lon="7.366017596796155">
        <ele>2465.9200000000001</ele>
        <time>2016-07-07T13:28:19Z</time>
      </trkpt>
      <trkpt lat="45.971312625333667" lon="7.366020111367106">
        <ele>2466.4000000000001</ele>
        <time>2016-07-07T13:28:23Z</time>
      </trkpt>
      <trkpt lat="45.971196871250868" lon="7.365974178537726">
        <ele>2467.3600000000001</ele>
        <time>2016-07-07T13:28:36Z</time>
      </trkpt>
      <trkpt lat="45.971181029453874" lon="7.365971328690648">
        <ele>2467.3600000000001</ele>
        <time>2016-07-07T13:28:38Z</time>
      </trkpt>
      <trkpt lat="45.971165103837848" lon="7.365973256528378">
        <ele>2467.8400000000001</ele>
        <time>2016-07-07T13:28:40Z</time>
      </trkpt>
      <trkpt lat="45.971148759126663" lon="7.365977950394154">
        <ele>2467.3600000000001</ele>
        <time>2016-07-07T13:28:42Z</time>
      </trkpt>
      <trkpt lat="45.971048511564732" lon="7.365973675623536">
        <ele>2467.8400000000001</ele>
        <time>2016-07-07T13:28:54Z</time>
      </trkpt>
      <trkpt lat="45.971034932881594" lon="7.365971496328712">
        <ele>2467.8400000000001</ele>
        <time>2016-07-07T13:28:56Z</time>
      </trkpt>
      <trkpt lat="45.97094533033669" lon="7.365931933745742">
        <ele>2468.3200000000002</ele>
        <time>2016-07-07T13:29:06Z</time>
      </trkpt>
      <trkpt lat="45.970854386687279" lon="7.365927323698998">
        <ele>2468.8000000000002</ele>
        <time>2016-07-07T13:29:17Z</time>
      </trkpt>
      <trkpt lat="45.970798227936029" lon="7.365915589034557">
        <ele>2469.2800000000002</ele>
        <time>2016-07-07T13:29:25Z</time>
      </trkpt>
      <trkpt lat="45.970712229609489" lon="7.365897484123707">
        <ele>2469.2800000000002</ele>
        <time>2016-07-07T13:29:35Z</time>
      </trkpt>
      <trkpt lat="45.970630254596472" lon="7.365870997309685">
        <ele>2470.2399999999998</ele>
        <time>2016-07-07T13:29:45Z</time>
      </trkpt>
      <trkpt lat="45.970575520768762" lon="7.3658805526793">
        <ele>2470.73</ele>
        <time>2016-07-07T13:29:52Z</time>
      </trkpt>
      <trkpt lat="45.970497652888298" lon="7.365907123312354">
        <ele>2472.1700000000001</ele>
        <time>2016-07-07T13:30:04Z</time>
      </trkpt>
      <trkpt lat="45.970420204102993" lon="7.36591181717813">
        <ele>2473.6100000000001</ele>
        <time>2016-07-07T13:30:15Z</time>
      </trkpt>
      <trkpt lat="45.970366727560759" lon="7.365921624004841">
        <ele>2473.6100000000001</ele>
        <time>2016-07-07T13:30:21Z</time>
      </trkpt>
      <trkpt lat="45.970319202169776" lon="7.365917013958097">
        <ele>2474.0900000000001</ele>
        <time>2016-07-07T13:30:26Z</time>
      </trkpt>
      <trkpt lat="45.970201687887311" lon="7.365892874076963">
        <ele>2474.5700000000002</ele>
        <time>2016-07-07T13:30:40Z</time>
      </trkpt>
      <trkpt lat="45.970121221616864" lon="7.365870494395495">
        <ele>2475.0500000000002</ele>
        <time>2016-07-07T13:30:50Z</time>
      </trkpt>
      <trkpt lat="45.970063386484981" lon="7.365866303443909">
        <ele>2475.5300000000002</ele>
        <time>2016-07-07T13:30:59Z</time>
      </trkpt>
      <trkpt lat="45.970010664314032" lon="7.365851886570454">
        <ele>2476.0100000000002</ele>
        <time>2016-07-07T13:31:06Z</time>
      </trkpt>
      <trkpt lat="45.969990212470293" lon="7.365863285958767">
        <ele>2476.4899999999998</ele>
        <time>2016-07-07T13:31:08Z</time>
      </trkpt>
      <trkpt lat="45.969950649887323" lon="7.365849623456597">
        <ele>2476.9699999999998</ele>
        <time>2016-07-07T13:31:14Z</time>
      </trkpt>
      <trkpt lat="45.969920642673969" lon="7.365827159956098">
        <ele>2476.9699999999998</ele>
        <time>2016-07-07T13:31:17Z</time>
      </trkpt>
      <trkpt lat="45.969889378175139" lon="7.365826405584812">
        <ele>2477.4499999999998</ele>
        <time>2016-07-07T13:31:22Z</time>
      </trkpt>
      <trkpt lat="45.969808241352439" lon="7.365779215469956">
        <ele>2477.4499999999998</ele>
        <time>2016-07-07T13:31:32Z</time>
      </trkpt>
      <trkpt lat="45.969783179461956" lon="7.36578768119216">
        <ele>2477.4499999999998</ele>
        <time>2016-07-07T13:31:36Z</time>
      </trkpt>
      <trkpt lat="45.969719896093011" lon="7.365847192704678">
        <ele>2479.3800000000001</ele>
        <time>2016-07-07T13:31:49Z</time>
      </trkpt>
      <trkpt lat="45.9697359893471" lon="7.365892035886645">
        <ele>2479.8600000000001</ele>
        <time>2016-07-07T13:31:58Z</time>
      </trkpt>
      <trkpt lat="45.969744622707367" lon="7.365908799692988">
        <ele>2479.8600000000001</ele>
        <time>2016-07-07T13:32:10Z</time>
      </trkpt>
      <trkpt lat="45.969698186963797" lon="7.365931682288647">
        <ele>2479.3800000000001</ele>
        <time>2016-07-07T13:32:20Z</time>
      </trkpt>
      <trkpt lat="45.969676813110709" lon="7.365923384204507">
        <ele>2479.3800000000001</ele>
        <time>2016-07-07T13:32:33Z</time>
      </trkpt>
      <trkpt lat="45.969618391245604" lon="7.365944422781467">
        <ele>2478.9000000000001</ele>
        <time>2016-07-07T13:32:46Z</time>
      </trkpt>
      <trkpt lat="45.969557287171483" lon="7.365960264578462">
        <ele>2478.9000000000001</ele>
        <time>2016-07-07T13:32:57Z</time>
      </trkpt>
      <trkpt lat="45.969578577205539" lon="7.366003850474954">
        <ele>2478.9000000000001</ele>
        <time>2016-07-07T13:33:09Z</time>
      </trkpt>
      <trkpt lat="45.969588384032249" lon="7.366084065288305">
        <ele>2480.3400000000001</ele>
        <time>2016-07-07T13:33:18Z</time>
      </trkpt>
      <trkpt lat="45.969552341848612" lon="7.366118766367436">
        <ele>2481.3000000000002</ele>
        <time>2016-07-07T13:33:28Z</time>
      </trkpt>
      <trkpt lat="45.969519400969148" lon="7.366124633699656">
        <ele>2481.3000000000002</ele>
        <time>2016-07-07T13:33:35Z</time>
      </trkpt>
      <trkpt lat="45.969486879184842" lon="7.366096470504999">
        <ele>2480.8200000000002</ele>
        <time>2016-07-07T13:33:46Z</time>
      </trkpt>
      <trkpt lat="45.969513114541769" lon="7.366089262068272">
        <ele>2480.3400000000001</ele>
        <time>2016-07-07T13:33:56Z</time>
      </trkpt>
      <trkpt lat="45.969527531415224" lon="7.366146259009838">
        <ele>2480.8200000000002</ele>
        <time>2016-07-07T13:34:08Z</time>
      </trkpt>
      <trkpt lat="45.969535494223237" lon="7.36617517657578">
        <ele>2480.8200000000002</ele>
        <time>2016-07-07T13:34:15Z</time>
      </trkpt>
      <trkpt lat="45.96950682811439" lon="7.366138631477952">
        <ele>2481.3000000000002</ele>
        <time>2016-07-07T13:34:30Z</time>
      </trkpt>
      <trkpt lat="45.969496602192521" lon="7.366115497425199">
        <ele>2480.8200000000002</ele>
        <time>2016-07-07T13:34:33Z</time>
      </trkpt>
      <trkpt lat="45.969483694061637" lon="7.366098733618856">
        <ele>2480.8200000000002</ele>
        <time>2016-07-07T13:34:46Z</time>
      </trkpt>
      <trkpt lat="45.969465421512723" lon="7.366074761375785">
        <ele>2480.8200000000002</ele>
        <time>2016-07-07T13:34:57Z</time>
      </trkpt>
      <trkpt lat="45.96942275762558" lon="7.366036539897323">
        <ele>2480.3400000000001</ele>
        <time>2016-07-07T13:35:06Z</time>
      </trkpt>
      <trkpt lat="45.969417728483677" lon="7.366014076396823">
        <ele>2480.3400000000001</ele>
        <time>2016-07-07T13:35:18Z</time>
      </trkpt>
      <trkpt lat="45.969383362680674" lon="7.36594257876277">
        <ele>2479.8600000000001</ele>
        <time>2016-07-07T13:35:30Z</time>
      </trkpt>
      <trkpt lat="45.969378584995866" lon="7.365947272628546">
        <ele>2479.3800000000001</ele>
        <time>2016-07-07T13:35:43Z</time>
      </trkpt>
      <trkpt lat="45.969376154243946" lon="7.365946685895324">
        <ele>2479.3800000000001</ele>
        <time>2016-07-07T13:36:04Z</time>
      </trkpt>
      <trkpt lat="45.969381686300039" lon="7.36592598259449">
        <ele>2479.3800000000001</ele>
        <time>2016-07-07T13:36:18Z</time>
      </trkpt>
      <trkpt lat="45.969385290518403" lon="7.365924306213856">
        <ele>2479.3800000000001</ele>
        <time>2016-07-07T13:36:35Z</time>
      </trkpt>
      <trkpt lat="45.969363749027252" lon="7.365903099998832">
        <ele>2479.3800000000001</ele>
        <time>2016-07-07T13:36:47Z</time>
      </trkpt>
      <trkpt lat="45.969283366575837" lon="7.365862196311355">
        <ele>2479.3800000000001</ele>
        <time>2016-07-07T13:37:01Z</time>
      </trkpt>
      <trkpt lat="45.969215054064989" lon="7.365795811638236">
        <ele>2479.8600000000001</ele>
        <time>2016-07-07T13:37:14Z</time>
      </trkpt>
      <trkpt lat="45.969149926677346" lon="7.365721799433231">
        <ele>2480.3400000000001</ele>
        <time>2016-07-07T13:37:24Z</time>
      </trkpt>
      <trkpt lat="45.969136264175177" lon="7.365704448893666">
        <ele>2480.3400000000001</ele>
        <time>2016-07-07T13:37:26Z</time>
      </trkpt>
      <trkpt lat="45.969076249748468" lon="7.365687265992165">
        <ele>2482.2600000000002</ele>
        <time>2016-07-07T13:37:39Z</time>
      </trkpt>
      <trkpt lat="45.969004835933447" lon="7.36571735702455">
        <ele>2484.1799999999998</ele>
        <time>2016-07-07T13:37:51Z</time>
      </trkpt>
      <trkpt lat="45.96893216483295" lon="7.365732779726386">
        <ele>2484.6599999999999</ele>
        <time>2016-07-07T13:38:03Z</time>
      </trkpt>
      <trkpt lat="45.968858823180199" lon="7.365741245448589">
        <ele>2485.6300000000001</ele>
        <time>2016-07-07T13:38:14Z</time>
      </trkpt>
      <trkpt lat="45.968812555074692" lon="7.36574225127697">
        <ele>2487.5500000000002</ele>
        <time>2016-07-07T13:38:24Z</time>
      </trkpt>
      <trkpt lat="45.968810375779867" lon="7.365748202428222">
        <ele>2488.0300000000002</ele>
        <time>2016-07-07T13:38:25Z</time>
      </trkpt>
      <trkpt lat="45.968767376616597" lon="7.365773264318705">
        <ele>2489.4699999999998</ele>
        <time>2016-07-07T13:38:35Z</time>
      </trkpt>
      <trkpt lat="45.96875874325633" lon="7.365771839395165">
        <ele>2489.4699999999998</ele>
        <time>2016-07-07T13:38:36Z</time>
      </trkpt>
      <trkpt lat="45.968681294471025" lon="7.365781143307686">
        <ele>2491.8699999999999</ele>
        <time>2016-07-07T13:38:47Z</time>
      </trkpt>
      <trkpt lat="45.968674253672361" lon="7.365782232955098">
        <ele>2491.8699999999999</ele>
        <time>2016-07-07T13:38:48Z</time>
      </trkpt>
      <trkpt lat="45.96865220926702" lon="7.365771755576134">
        <ele>2492.3600000000001</ele>
        <time>2016-07-07T13:38:51Z</time>
      </trkpt>
      <trkpt lat="45.968596888706088" lon="7.365833781659603">
        <ele>2494.7600000000002</ele>
        <time>2016-07-07T13:39:05Z</time>
      </trkpt>
      <trkpt lat="45.968556068837643" lon="7.365837385877967">
        <ele>2496.1999999999998</ele>
        <time>2016-07-07T13:39:14Z</time>
      </trkpt>
      <trkpt lat="45.968487756326795" lon="7.365843588486314">
        <ele>2497.6399999999999</ele>
        <time>2016-07-07T13:39:25Z</time>
      </trkpt>
      <trkpt lat="45.968426568433642" lon="7.36583654768765">
        <ele>2499.5700000000002</ele>
        <time>2016-07-07T13:39:37Z</time>
      </trkpt>
      <trkpt lat="45.968331433832645" lon="7.365849455818534">
        <ele>2501.0100000000002</ele>
        <time>2016-07-07T13:39:49Z</time>
      </trkpt>
      <trkpt lat="45.968254320323467" lon="7.365885498002172">
        <ele>2501.9699999999998</ele>
        <time>2016-07-07T13:40:01Z</time>
      </trkpt>
      <trkpt lat="45.968184834346175" lon="7.365913996472955">
        <ele>2502.9299999999998</ele>
        <time>2016-07-07T13:40:14Z</time>
      </trkpt>
      <trkpt lat="45.968094393610954" lon="7.365944758057594">
        <ele>2504.3699999999999</ele>
        <time>2016-07-07T13:40:28Z</time>
      </trkpt>
      <trkpt lat="45.968028763309121" lon="7.365978956222534">
        <ele>2506.29</ele>
        <time>2016-07-07T13:40:42Z</time>
      </trkpt>
      <trkpt lat="45.96795835532248" lon="7.366000413894653">
        <ele>2509.1799999999998</ele>
        <time>2016-07-07T13:40:55Z</time>
      </trkpt>
      <trkpt lat="45.96795835532248" lon="7.366013741120696">
        <ele>2509.6599999999999</ele>
        <time>2016-07-07T13:41:08Z</time>
      </trkpt>
      <trkpt lat="45.967882331460714" lon="7.366078281775117">
        <ele>2510.6199999999999</ele>
        <time>2016-07-07T13:41:18Z</time>
      </trkpt>
      <trkpt lat="45.967873279005289" lon="7.366079119965434">
        <ele>2510.6199999999999</ele>
        <time>2016-07-07T13:41:19Z</time>
      </trkpt>
      <trkpt lat="45.967824328690767" lon="7.366076018661261">
        <ele>2510.6199999999999</ele>
        <time>2016-07-07T13:41:24Z</time>
      </trkpt>
      <trkpt lat="45.967738498002291" lon="7.366136871278286">
        <ele>2511.0999999999999</ele>
        <time>2016-07-07T13:41:36Z</time>
      </trkpt>
      <trkpt lat="45.967638418078423" lon="7.366186324506998">
        <ele>2512.0599999999999</ele>
        <time>2016-07-07T13:41:49Z</time>
      </trkpt>
      <trkpt lat="45.967586282640696" lon="7.366275424137712">
        <ele>2513.02</ele>
        <time>2016-07-07T13:42:01Z</time>
      </trkpt>
      <trkpt lat="45.967524088919163" lon="7.366368463262916">
        <ele>2513.98</ele>
        <time>2016-07-07T13:42:13Z</time>
      </trkpt>
      <trkpt lat="45.967485951259732" lon="7.366409534588456">
        <ele>2514.9499999999998</ele>
        <time>2016-07-07T13:42:19Z</time>
      </trkpt>
      <trkpt lat="45.967417638748884" lon="7.366454880684614">
        <ele>2516.3899999999999</ele>
        <time>2016-07-07T13:42:30Z</time>
      </trkpt>
      <trkpt lat="45.967351254075766" lon="7.366529563441873">
        <ele>2518.3099999999999</ele>
        <time>2016-07-07T13:42:42Z</time>
      </trkpt>
      <trkpt lat="45.967268608510494" lon="7.366590080782771">
        <ele>2518.3099999999999</ele>
        <time>2016-07-07T13:42:52Z</time>
      </trkpt>
      <trkpt lat="45.967162661254406" lon="7.366627715528011">
        <ele>2518.79</ele>
        <time>2016-07-07T13:43:04Z</time>
      </trkpt>
      <trkpt lat="45.967117650434375" lon="7.366638276726008">
        <ele>2519.75</ele>
        <time>2016-07-07T13:43:09Z</time>
      </trkpt>
      <trkpt lat="45.967049170285463" lon="7.366693094372749">
        <ele>2520.23</ele>
        <time>2016-07-07T13:43:19Z</time>
      </trkpt>
      <trkpt lat="45.967028718441725" lon="7.366707343608141">
        <ele>2520.23</ele>
        <time>2016-07-07T13:43:21Z</time>
      </trkpt>
      <trkpt lat="45.966916736215353" lon="7.366738440468907">
        <ele>2519.27</ele>
        <time>2016-07-07T13:43:30Z</time>
      </trkpt>
      <trkpt lat="45.966801987960935" lon="7.366785798221827">
        <ele>2518.3099999999999</ele>
        <time>2016-07-07T13:43:41Z</time>
      </trkpt>
      <trkpt lat="45.96678170375526" lon="7.366764172911644">
        <ele>2517.8299999999999</ele>
        <time>2016-07-07T13:43:43Z</time>
      </trkpt>
      <trkpt lat="45.966729149222374" lon="7.366703655570746">
        <ele>2519.27</ele>
        <time>2016-07-07T13:43:51Z</time>
      </trkpt>
      <trkpt lat="45.966696375980973" lon="7.366706002503634">
        <ele>2519.75</ele>
        <time>2016-07-07T13:43:55Z</time>
      </trkpt>
      <trkpt lat="45.966675421223044" lon="7.366688651964068">
        <ele>2519.75</ele>
        <time>2016-07-07T13:43:58Z</time>
      </trkpt>
      <trkpt lat="45.966613981872797" lon="7.366651436313987">
        <ele>2519.27</ele>
        <time>2016-07-07T13:44:04Z</time>
      </trkpt>
      <trkpt lat="45.966592272743583" lon="7.366540376096964">
        <ele>2519.27</ele>
        <time>2016-07-07T13:44:13Z</time>
      </trkpt>
      <trkpt lat="45.966584058478475" lon="7.366538196802139">
        <ele>2519.27</ele>
        <time>2016-07-07T13:44:14Z</time>
      </trkpt>
      <trkpt lat="45.96653594635427" lon="7.366510536521673">
        <ele>2518.79</ele>
        <time>2016-07-07T13:44:19Z</time>
      </trkpt>
      <trkpt lat="45.966504011303186" lon="7.366457311436534">
        <ele>2518.3099999999999</ele>
        <time>2016-07-07T13:44:24Z</time>
      </trkpt>
      <trkpt lat="45.966484397649765" lon="7.366448426619172">
        <ele>2517.8299999999999</ele>
        <time>2016-07-07T13:44:26Z</time>
      </trkpt>
      <trkpt lat="45.966457324102521" lon="7.36640433780849">
        <ele>2517.3499999999999</ele>
        <time>2016-07-07T13:44:30Z</time>
      </trkpt>
      <trkpt lat="45.966405859217048" lon="7.366313058882952">
        <ele>2516.8699999999999</ele>
        <time>2016-07-07T13:44:39Z</time>
      </trkpt>
      <trkpt lat="45.966360261663795" lon="7.366266958415508">
        <ele>2516.3899999999999</ele>
        <time>2016-07-07T13:44:45Z</time>
      </trkpt>
      <trkpt lat="45.966316759586334" lon="7.366253044456244">
        <ele>2516.3899999999999</ele>
        <time>2016-07-07T13:44:49Z</time>
      </trkpt>
      <trkpt lat="45.966280130669475" lon="7.366235191002488">
        <ele>2516.3899999999999</ele>
        <time>2016-07-07T13:44:53Z</time>
      </trkpt>
      <trkpt lat="45.966219613328576" lon="7.366264779120684">
        <ele>2515.9099999999999</ele>
        <time>2016-07-07T13:45:00Z</time>
      </trkpt>
      <trkpt lat="45.966096231713891" lon="7.366220103576779">
        <ele>2514.9499999999998</ele>
        <time>2016-07-07T13:45:12Z</time>
      </trkpt>
      <trkpt lat="45.966030769050121" lon="7.366211218759418">
        <ele>2514.9499999999998</ele>
        <time>2016-07-07T13:45:20Z</time>
      </trkpt>
      <trkpt lat="45.96596329472959" lon="7.366201747208834">
        <ele>2513.98</ele>
        <time>2016-07-07T13:45:26Z</time>
      </trkpt>
      <trkpt lat="45.965944016352296" lon="7.366183055564761">
        <ele>2513.5</ele>
        <time>2016-07-07T13:45:28Z</time>
      </trkpt>
      <trkpt lat="45.965928006917238" lon="7.366180624812841">
        <ele>2513.02</ele>
        <time>2016-07-07T13:45:30Z</time>
      </trkpt>
      <trkpt lat="45.965875871479511" lon="7.366159167140722">
        <ele>2511.5799999999999</ele>
        <time>2016-07-07T13:45:36Z</time>
      </trkpt>
      <trkpt lat="45.96577369607985" lon="7.366070570424199">
        <ele>2509.6599999999999</ele>
        <time>2016-07-07T13:45:48Z</time>
      </trkpt>
      <trkpt lat="45.965705215930939" lon="7.366013992577791">
        <ele>2508.2199999999998</ele>
        <time>2016-07-07T13:45:56Z</time>
      </trkpt>
      <trkpt lat="45.965649643912911" lon="7.366020027548075">
        <ele>2508.6999999999998</ele>
        <time>2016-07-07T13:46:03Z</time>
      </trkpt>
      <trkpt lat="45.965571105480194" lon="7.366002341732383">
        <ele>2508.6999999999998</ele>
        <time>2016-07-07T13:46:11Z</time>
      </trkpt>
      <trkpt lat="45.965528022497892" lon="7.366054728627205">
        <ele>2509.6599999999999</ele>
        <time>2016-07-07T13:46:18Z</time>
      </trkpt>
      <trkpt lat="45.965420147404075" lon="7.366086412221193">
        <ele>2509.6599999999999</ele>
        <time>2016-07-07T13:46:30Z</time>
      </trkpt>
      <trkpt lat="45.965365832671523" lon="7.366077695041895">
        <ele>2510.6199999999999</ele>
        <time>2016-07-07T13:46:36Z</time>
      </trkpt>
      <trkpt lat="45.965254018083215" lon="7.366053722798824">
        <ele>2511.0999999999999</ele>
        <time>2016-07-07T13:46:47Z</time>
      </trkpt>
      <trkpt lat="45.965165253728628" lon="7.366097224876285">
        <ele>2511.5799999999999</ele>
        <time>2016-07-07T13:46:58Z</time>
      </trkpt>
      <trkpt lat="45.96509694121778" lon="7.366159418597817">
        <ele>2512.54</ele>
        <time>2016-07-07T13:47:10Z</time>
      </trkpt>
      <trkpt lat="45.965014630928636" lon="7.366194622591138">
        <ele>2513.02</ele>
        <time>2016-07-07T13:47:21Z</time>
      </trkpt>
      <trkpt lat="45.964954867959023" lon="7.366275759413838">
        <ele>2514.4699999999998</ele>
        <time>2016-07-07T13:47:32Z</time>
      </trkpt>
      <trkpt lat="45.964881861582398" lon="7.366351950913668">
        <ele>2514.9499999999998</ele>
        <time>2016-07-07T13:47:43Z</time>
      </trkpt>
      <trkpt lat="45.964808436110616" lon="7.366404421627522">
        <ele>2514.9499999999998</ele>
        <time>2016-07-07T13:47:54Z</time>
      </trkpt>
      <trkpt lat="45.964773651212454" lon="7.366432752460241">
        <ele>2514.9499999999998</ele>
        <time>2016-07-07T13:47:59Z</time>
      </trkpt>
      <trkpt lat="45.964729730039835" lon="7.366440044716001">
        <ele>2515.9099999999999</ele>
        <time>2016-07-07T13:48:05Z</time>
      </trkpt>
      <trkpt lat="45.964642306789756" lon="7.366512715816498">
        <ele>2517.3499999999999</ele>
        <time>2016-07-07T13:48:18Z</time>
      </trkpt>
      <trkpt lat="45.964576592668891" lon="7.366555463522673">
        <ele>2517.8299999999999</ele>
        <time>2016-07-07T13:48:28Z</time>
      </trkpt>
      <trkpt lat="45.964538957923651" lon="7.366635175421834">
        <ele>2519.75</ele>
        <time>2016-07-07T13:48:40Z</time>
      </trkpt>
      <trkpt lat="45.964463017880917" lon="7.366677671670914">
        <ele>2521.1900000000001</ele>
        <time>2016-07-07T13:48:51Z</time>
      </trkpt>
      <trkpt lat="45.964401913806796" lon="7.366718826815486">
        <ele>2522.6399999999999</ele>
        <time>2016-07-07T13:49:02Z</time>
      </trkpt>
      <trkpt lat="45.964338211342692" lon="7.366763586178422">
        <ele>2523.5999999999999</ele>
        <time>2016-07-07T13:49:12Z</time>
      </trkpt>
      <trkpt lat="45.964276269078255" lon="7.366813374683261">
        <ele>2524.0799999999999</ele>
        <time>2016-07-07T13:49:21Z</time>
      </trkpt>
      <trkpt lat="45.964191276580095" lon="7.366885459050536">
        <ele>2525.04</ele>
        <time>2016-07-07T13:49:33Z</time>
      </trkpt>
      <trkpt lat="45.964187756180763" lon="7.366892835125327">
        <ele>2525.04</ele>
        <time>2016-07-07T13:49:34Z</time>
      </trkpt>
      <trkpt lat="45.964145008474588" lon="7.36692133359611">
        <ele>2525.52</ele>
        <time>2016-07-07T13:49:41Z</time>
      </trkpt>
      <trkpt lat="45.96406253054738" lon="7.366946060210466">
        <ele>2525.04</ele>
        <time>2016-07-07T13:49:51Z</time>
      </trkpt>
      <trkpt lat="45.963979382067919" lon="7.367012612521648">
        <ele>2525.52</ele>
        <time>2016-07-07T13:50:03Z</time>
      </trkpt>
      <trkpt lat="45.963943842798471" lon="7.367016635835171">
        <ele>2526</ele>
        <time>2016-07-07T13:50:16Z</time>
      </trkpt>
      <trkpt lat="45.963920708745718" lon="7.367039686068893">
        <ele>2526</ele>
        <time>2016-07-07T13:50:26Z</time>
      </trkpt>
      <trkpt lat="45.963902436196804" lon="7.367083942517638">
        <ele>2526.48</ele>
        <time>2016-07-07T13:50:30Z</time>
      </trkpt>
      <trkpt lat="45.963883744552732" lon="7.367099700495601">
        <ele>2526.48</ele>
        <time>2016-07-07T13:50:32Z</time>
      </trkpt>
      <trkpt lat="45.963791124522686" lon="7.367093833163381">
        <ele>2527.4400000000001</ele>
        <time>2016-07-07T13:50:42Z</time>
      </trkpt>
      <trkpt lat="45.963693056255579" lon="7.367152003571391">
        <ele>2526.96</ele>
        <time>2016-07-07T13:50:53Z</time>
      </trkpt>
      <trkpt lat="45.963675705716014" lon="7.367173125967383">
        <ele>2526.48</ele>
        <time>2016-07-07T13:50:55Z</time>
      </trkpt>
      <trkpt lat="45.963561795651913" lon="7.367207324132323">
        <ele>2526.48</ele>
        <time>2016-07-07T13:51:07Z</time>
      </trkpt>
      <trkpt lat="45.963518293574452" lon="7.367224507033825">
        <ele>2526</ele>
        <time>2016-07-07T13:51:12Z</time>
      </trkpt>
      <trkpt lat="45.963502703234553" lon="7.367241187021136">
        <ele>2525.52</ele>
        <time>2016-07-07T13:51:14Z</time>
      </trkpt>
      <trkpt lat="45.963412765413523" lon="7.367275720462203">
        <ele>2526.48</ele>
        <time>2016-07-07T13:51:25Z</time>
      </trkpt>
      <trkpt lat="45.963405221700668" lon="7.367276474833489">
        <ele>2526.48</ele>
        <time>2016-07-07T13:51:26Z</time>
      </trkpt>
      <trkpt lat="45.963312182575464" lon="7.367328694090247">
        <ele>2527.9200000000001</ele>
        <time>2016-07-07T13:51:38Z</time>
      </trkpt>
      <trkpt lat="45.963253425434232" lon="7.367404466494918">
        <ele>2527.4400000000001</ele>
        <time>2016-07-07T13:51:48Z</time>
      </trkpt>
      <trkpt lat="45.963235823437572" lon="7.367425002157688">
        <ele>2526</ele>
        <time>2016-07-07T13:51:51Z</time>
      </trkpt>
      <trkpt lat="45.963168349117041" lon="7.367480825632811">
        <ele>2526</ele>
        <time>2016-07-07T13:52:03Z</time>
      </trkpt>
      <trkpt lat="45.963140772655606" lon="7.367497002705932">
        <ele>2527.9200000000001</ele>
        <time>2016-07-07T13:52:07Z</time>
      </trkpt>
      <trkpt lat="45.963062234222889" lon="7.367567075416446">
        <ele>2526.48</ele>
        <time>2016-07-07T13:52:18Z</time>
      </trkpt>
      <trkpt lat="45.962997525930405" lon="7.367613175883889">
        <ele>2526</ele>
        <time>2016-07-07T13:52:28Z</time>
      </trkpt>
      <trkpt lat="45.962991490960121" lon="7.367612337693572">
        <ele>2526</ele>
        <time>2016-07-07T13:52:29Z</time>
      </trkpt>
      <trkpt lat="45.962933655828238" lon="7.367653409019113">
        <ele>2525.04</ele>
        <time>2016-07-07T13:52:38Z</time>
      </trkpt>
      <trkpt lat="45.962868612259626" lon="7.367729432880878">
        <ele>2526</ele>
        <time>2016-07-07T13:52:50Z</time>
      </trkpt>
      <trkpt lat="45.962890908122063" lon="7.367782238870859">
        <ele>2526</ele>
        <time>2016-07-07T13:53:05Z</time>
      </trkpt>
      <trkpt lat="45.962869115173817" lon="7.367853317409754">
        <ele>2527.4400000000001</ele>
        <time>2016-07-07T13:53:14Z</time>
      </trkpt>
      <trkpt lat="45.962799713015556" lon="7.367960941046476">
        <ele>2528.4000000000001</ele>
        <time>2016-07-07T13:53:27Z</time>
      </trkpt>
      <trkpt lat="45.962755791842937" lon="7.368041574954987">
        <ele>2528.4000000000001</ele>
        <time>2016-07-07T13:53:37Z</time>
      </trkpt>
      <trkpt lat="45.962717738002539" lon="7.368119359016419">
        <ele>2529.3699999999999</ele>
        <time>2016-07-07T13:53:48Z</time>
      </trkpt>
      <trkpt lat="45.962678510695696" lon="7.36819420941174">
        <ele>2530.3299999999999</ele>
        <time>2016-07-07T13:54:00Z</time>
      </trkpt>
      <trkpt lat="45.962638109922409" lon="7.368247350677848">
        <ele>2530.8099999999999</ele>
        <time>2016-07-07T13:54:11Z</time>
      </trkpt>
      <trkpt lat="45.962612628936768" lon="7.368301581591368">
        <ele>2530.8099999999999</ele>
        <time>2016-07-07T13:54:23Z</time>
      </trkpt>
      <trkpt lat="45.962565019726753" lon="7.368375342339277">
        <ele>2531.29</ele>
        <time>2016-07-07T13:54:34Z</time>
      </trkpt>
      <trkpt lat="45.962497042492032" lon="7.368472823873162">
        <ele>2531.77</ele>
        <time>2016-07-07T13:54:47Z</time>
      </trkpt>
      <trkpt lat="45.962430154904723" lon="7.368550188839436">
        <ele>2531.77</ele>
        <time>2016-07-07T13:54:59Z</time>
      </trkpt>
      <trkpt lat="45.962385563179851" lon="7.368593188002706">
        <ele>2531.29</ele>
        <time>2016-07-07T13:55:07Z</time>
      </trkpt>
      <trkpt lat="45.962313646450639" lon="7.368666026741266">
        <ele>2532.25</ele>
        <time>2016-07-07T13:55:18Z</time>
      </trkpt>
      <trkpt lat="45.962293278425932" lon="7.368698799982667">
        <ele>2532.73</ele>
        <time>2016-07-07T13:55:22Z</time>
      </trkpt>
      <trkpt lat="45.962240304797888" lon="7.368795527145267">
        <ele>2533.6900000000001</ele>
        <time>2016-07-07T13:55:33Z</time>
      </trkpt>
      <trkpt lat="45.962159000337124" lon="7.368883369490504">
        <ele>2533.21</ele>
        <time>2016-07-07T13:55:43Z</time>
      </trkpt>
      <trkpt lat="45.962102841585875" lon="7.368978168815374">
        <ele>2533.6900000000001</ele>
        <time>2016-07-07T13:55:52Z</time>
      </trkpt>
      <trkpt lat="45.962043916806579" lon="7.369048995897174">
        <ele>2534.1700000000001</ele>
        <time>2016-07-07T13:56:01Z</time>
      </trkpt>
      <trkpt lat="45.962021118029952" lon="7.369097862392664">
        <ele>2533.6900000000001</ele>
        <time>2016-07-07T13:56:06Z</time>
      </trkpt>
      <trkpt lat="45.961908800527453" lon="7.369231386110187">
        <ele>2533.21</ele>
        <time>2016-07-07T13:56:21Z</time>
      </trkpt>
      <trkpt lat="45.961893126368523" lon="7.369249491021037">
        <ele>2532.25</ele>
        <time>2016-07-07T13:56:23Z</time>
      </trkpt>
      <trkpt lat="45.961887259036303" lon="7.369254939258099">
        <ele>2532.25</ele>
        <time>2016-07-07T13:56:24Z</time>
      </trkpt>
      <trkpt lat="45.961819114163518" lon="7.369351498782635">
        <ele>2532.73</ele>
        <time>2016-07-07T13:56:36Z</time>
      </trkpt>
      <trkpt lat="45.961748706176877" lon="7.369467252865434">
        <ele>2533.21</ele>
        <time>2016-07-07T13:56:47Z</time>
      </trkpt>
      <trkpt lat="45.961697744205594" lon="7.369530787691474">
        <ele>2533.6900000000001</ele>
        <time>2016-07-07T13:56:55Z</time>
      </trkpt>
      <trkpt lat="45.961631191894412" lon="7.3696244135499">
        <ele>2533.6900000000001</ele>
        <time>2016-07-07T13:57:04Z</time>
      </trkpt>
      <trkpt lat="45.961612248793244" lon="7.369663473218679">
        <ele>2533.6900000000001</ele>
        <time>2016-07-07T13:57:08Z</time>
      </trkpt>
      <trkpt lat="45.961529854685068" lon="7.36975240521133">
        <ele>2533.6900000000001</ele>
        <time>2016-07-07T13:57:20Z</time>
      </trkpt>
      <trkpt lat="45.961518790572882" lon="7.36978517845273">
        <ele>2533.6900000000001</ele>
        <time>2016-07-07T13:57:24Z</time>
      </trkpt>
      <trkpt lat="45.961501188576221" lon="7.369808731600642">
        <ele>2533.21</ele>
        <time>2016-07-07T13:57:26Z</time>
      </trkpt>
      <trkpt lat="45.961438994854689" lon="7.369866063818336">
        <ele>2533.21</ele>
        <time>2016-07-07T13:57:34Z</time>
      </trkpt>
      <trkpt lat="45.961369341239333" lon="7.369932029396296">
        <ele>2533.21</ele>
        <time>2016-07-07T13:57:43Z</time>
      </trkpt>
      <trkpt lat="45.961321983486414" lon="7.370030684396625">
        <ele>2533.6900000000001</ele>
        <time>2016-07-07T13:57:52Z</time>
      </trkpt>
      <trkpt lat="45.961287533864379" lon="7.370122047141194">
        <ele>2534.1700000000001</ele>
        <time>2016-07-07T13:58:02Z</time>
      </trkpt>
      <trkpt lat="45.961241433396935" lon="7.370234532281756">
        <ele>2534.1700000000001</ele>
        <time>2016-07-07T13:58:13Z</time>
      </trkpt>
      <trkpt lat="45.961197093129158" lon="7.370327487587929">
        <ele>2534.6500000000001</ele>
        <time>2016-07-07T13:58:23Z</time>
      </trkpt>
      <trkpt lat="45.96114638261497" lon="7.370426980778575">
        <ele>2534.6500000000001</ele>
        <time>2016-07-07T13:58:33Z</time>
      </trkpt>
      <trkpt lat="45.961101036518812" lon="7.370514990761876">
        <ele>2534.6500000000001</ele>
        <time>2016-07-07T13:58:42Z</time>
      </trkpt>
      <trkpt lat="45.961047727614641" lon="7.370598558336496">
        <ele>2535.6100000000001</ele>
        <time>2016-07-07T13:58:53Z</time>
      </trkpt>
      <trkpt lat="45.960996681824327" lon="7.37070425413549">
        <ele>2536.0999999999999</ele>
        <time>2016-07-07T13:59:04Z</time>
      </trkpt>
      <trkpt lat="45.960964160040021" lon="7.370753707364202">
        <ele>2536.0999999999999</ele>
        <time>2016-07-07T13:59:14Z</time>
      </trkpt>
      <trkpt lat="45.960973296314478" lon="7.370746582746506">
        <ele>2536.0999999999999</ele>
        <time>2016-07-07T13:59:35Z</time>
      </trkpt>
      <trkpt lat="45.960954185575247" lon="7.37075999379158">
        <ele>2536.5799999999999</ele>
        <time>2016-07-07T13:59:48Z</time>
      </trkpt>
      <trkpt lat="45.960940020158887" lon="7.370776170864701">
        <ele>2536.0999999999999</ele>
        <time>2016-07-07T13:59:50Z</time>
      </trkpt>
      <trkpt lat="45.960870869457722" lon="7.370911035686731">
        <ele>2535.6100000000001</ele>
        <time>2016-07-07T14:00:02Z</time>
      </trkpt>
      <trkpt lat="45.960772298276424" lon="7.371087390929461">
        <ele>2534.6500000000001</ele>
        <time>2016-07-07T14:00:16Z</time>
      </trkpt>
      <trkpt lat="45.96073592081666" lon="7.371142208576202">
        <ele>2534.6500000000001</ele>
        <time>2016-07-07T14:00:21Z</time>
      </trkpt>
      <trkpt lat="45.960709182545543" lon="7.371172802522779">
        <ele>2534.6500000000001</ele>
        <time>2016-07-07T14:00:24Z</time>
      </trkpt>
      <trkpt lat="45.960667189210653" lon="7.371218567714095">
        <ele>2534.6500000000001</ele>
        <time>2016-07-07T14:00:29Z</time>
      </trkpt>
      <trkpt lat="45.960644809529185" lon="7.371247317641974">
        <ele>2534.1700000000001</ele>
        <time>2016-07-07T14:00:32Z</time>
      </trkpt>
      <trkpt lat="45.960611449554563" lon="7.371308086439967">
        <ele>2533.6900000000001</ele>
        <time>2016-07-07T14:00:37Z</time>
      </trkpt>
      <trkpt lat="45.960526205599308" lon="7.371415123343468">
        <ele>2533.21</ele>
        <time>2016-07-07T14:00:48Z</time>
      </trkpt>
      <trkpt lat="45.96050089225173" lon="7.371472790837288">
        <ele>2533.21</ele>
        <time>2016-07-07T14:00:53Z</time>
      </trkpt>
      <trkpt lat="45.960428388789296" lon="7.371576558798552">
        <ele>2532.73</ele>
        <time>2016-07-07T14:01:02Z</time>
      </trkpt>
      <trkpt lat="45.960333673283458" lon="7.371654929593206">
        <ele>2531.77</ele>
        <time>2016-07-07T14:01:14Z</time>
      </trkpt>
      <trkpt lat="45.960268964990973" lon="7.371732629835606">
        <ele>2531.77</ele>
        <time>2016-07-07T14:01:24Z</time>
      </trkpt>
      <trkpt lat="45.96018522977829" lon="7.371807480230928">
        <ele>2529.3699999999999</ele>
        <time>2016-07-07T14:01:35Z</time>
      </trkpt>
      <trkpt lat="45.960155893117189" lon="7.371822819113731">
        <ele>2528.4000000000001</ele>
        <time>2016-07-07T14:01:39Z</time>
      </trkpt>
      <trkpt lat="45.960119934752584" lon="7.371845869347453">
        <ele>2527.9200000000001</ele>
        <time>2016-07-07T14:01:43Z</time>
      </trkpt>
      <trkpt lat="45.960109792649746" lon="7.371868919581175">
        <ele>2527.4400000000001</ele>
        <time>2016-07-07T14:01:45Z</time>
      </trkpt>
      <trkpt lat="45.960041061043739" lon="7.371941423043609">
        <ele>2526</ele>
        <time>2016-07-07T14:01:56Z</time>
      </trkpt>
      <trkpt lat="45.959931341931224" lon="7.371994480490685">
        <ele>2524.5599999999999</ele>
        <time>2016-07-07T14:02:06Z</time>
      </trkpt>
      <trkpt lat="45.959884990006685" lon="7.372033121064305">
        <ele>2524.5599999999999</ele>
        <time>2016-07-07T14:02:12Z</time>
      </trkpt>
      <trkpt lat="45.959804356098175" lon="7.372118281200528">
        <ele>2525.04</ele>
        <time>2016-07-07T14:02:24Z</time>
      </trkpt>
      <trkpt lat="45.959790190681815" lon="7.372148120775819">
        <ele>2525.04</ele>
        <time>2016-07-07T14:02:27Z</time>
      </trkpt>
      <trkpt lat="45.959711987525225" lon="7.372224731370807">
        <ele>2524.5599999999999</ele>
        <time>2016-07-07T14:02:37Z</time>
      </trkpt>
      <trkpt lat="45.959680723026395" lon="7.3722527269274">
        <ele>2524.0799999999999</ele>
        <time>2016-07-07T14:02:42Z</time>
      </trkpt>
      <trkpt lat="45.959655325859785" lon="7.372340150177479">
        <ele>2525.04</ele>
        <time>2016-07-07T14:02:52Z</time>
      </trkpt>
      <trkpt lat="45.959626827389002" lon="7.372400080785155">
        <ele>2525.52</ele>
        <time>2016-07-07T14:03:05Z</time>
      </trkpt>
      <trkpt lat="45.959601430222392" lon="7.372422544285655">
        <ele>2525.52</ele>
        <time>2016-07-07T14:03:14Z</time>
      </trkpt>
      <trkpt lat="45.959600172936916" lon="7.372397314757109">
        <ele>2525.04</ele>
        <time>2016-07-07T14:03:29Z</time>
      </trkpt>
      <trkpt lat="45.959589695557952" lon="7.372394381090999">
        <ele>2524.5599999999999</ele>
        <time>2016-07-07T14:03:49Z</time>
      </trkpt>
      <trkpt lat="45.959583409130573" lon="7.372388010844588">
        <ele>2524.5599999999999</ele>
        <time>2016-07-07T14:04:12Z</time>
      </trkpt>
      <trkpt lat="45.959578044712543" lon="7.372378036379814">
        <ele>2524.5599999999999</ele>
        <time>2016-07-07T14:04:39Z</time>
      </trkpt>
      <trkpt lat="45.959565723314881" lon="7.372367223724723">
        <ele>2524.5599999999999</ele>
        <time>2016-07-07T14:05:16Z</time>
      </trkpt>
      <trkpt lat="45.959562957286835" lon="7.372355405241251">
        <ele>2525.04</ele>
        <time>2016-07-07T14:05:48Z</time>
      </trkpt>
      <trkpt lat="45.959556503221393" lon="7.372357835993171">
        <ele>2525.04</ele>
        <time>2016-07-07T14:06:24Z</time>
      </trkpt>
      <trkpt lat="45.959569830447435" lon="7.37237049266696">
        <ele>2525.04</ele>
        <time>2016-07-07T14:06:59Z</time>
      </trkpt>
      <trkpt lat="45.959573350846767" lon="7.372375018894672">
        <ele>2525.04</ele>
        <time>2016-07-07T14:07:31Z</time>
      </trkpt>
      <trkpt lat="45.95957737416029" lon="7.372390776872635">
        <ele>2525.52</ele>
        <time>2016-07-07T14:08:01Z</time>
      </trkpt>
      <trkpt lat="45.959574272856116" lon="7.372381975874305">
        <ele>2525.52</ele>
        <time>2016-07-07T14:08:26Z</time>
      </trkpt>
      <trkpt lat="45.959563460201025" lon="7.37236462533474">
        <ele>2525.52</ele>
        <time>2016-07-07T14:08:52Z</time>
      </trkpt>
      <trkpt lat="45.959563795477152" lon="7.372361021116376">
        <ele>2525.52</ele>
        <time>2016-07-07T14:09:22Z</time>
      </trkpt>
      <trkpt lat="45.959576535969973" lon="7.372376779094338">
        <ele>2526</ele>
        <time>2016-07-07T14:09:50Z</time>
      </trkpt>
      <trkpt lat="45.959572177380323" lon="7.372377282008529">
        <ele>2526</ele>
        <time>2016-07-07T14:10:10Z</time>
      </trkpt>
      <trkpt lat="45.959573937579989" lon="7.372383736073971">
        <ele>2526</ele>
        <time>2016-07-07T14:10:41Z</time>
      </trkpt>
      <trkpt lat="45.959584414958954" lon="7.372378120198846">
        <ele>2526.48</ele>
        <time>2016-07-07T14:11:08Z</time>
      </trkpt>
      <trkpt lat="45.959579553455114" lon="7.372386334463954">
        <ele>2526.48</ele>
        <time>2016-07-07T14:11:32Z</time>
      </trkpt>
      <trkpt lat="45.959575697779655" lon="7.372379545122385">
        <ele>2526.48</ele>
        <time>2016-07-07T14:11:59Z</time>
      </trkpt>
      <trkpt lat="45.959585169330239" lon="7.372387507930398">
        <ele>2526.96</ele>
        <time>2016-07-07T14:12:21Z</time>
      </trkpt>
      <trkpt lat="45.959579972550273" lon="7.372368648648262">
        <ele>2526.96</ele>
        <time>2016-07-07T14:12:56Z</time>
      </trkpt>
      <trkpt lat="45.959575278684497" lon="7.372378371655941">
        <ele>2526.96</ele>
        <time>2016-07-07T14:13:25Z</time>
      </trkpt>
      <trkpt lat="45.959573015570641" lon="7.372368229553103">
        <ele>2527.4400000000001</ele>
        <time>2016-07-07T14:13:49Z</time>
      </trkpt>
      <trkpt lat="45.959576535969973" lon="7.372375773265958">
        <ele>2526.96</ele>
        <time>2016-07-07T14:14:07Z</time>
      </trkpt>
      <trkpt lat="45.959573686122894" lon="7.372382478788495">
        <ele>2526.96</ele>
        <time>2016-07-07T14:14:38Z</time>
      </trkpt>
      <trkpt lat="45.959578463807702" lon="7.372384825721383">
        <ele>2527.4400000000001</ele>
        <time>2016-07-07T14:15:08Z</time>
      </trkpt>
      <trkpt lat="45.95958667807281" lon="7.372392620891333">
        <ele>2527.9200000000001</ele>
        <time>2016-07-07T14:15:31Z</time>
      </trkpt>
      <trkpt lat="45.959570165723562" lon="7.372439811006188">
        <ele>2527.9200000000001</ele>
        <time>2016-07-07T14:15:51Z</time>
      </trkpt>
      <trkpt lat="45.959563376381993" lon="7.372415000572801">
        <ele>2527.9200000000001</ele>
        <time>2016-07-07T14:16:07Z</time>
      </trkpt>
      <trkpt lat="45.959592377766967" lon="7.372401924803853">
        <ele>2528.8899999999999</ele>
        <time>2016-07-07T14:16:28Z</time>
      </trkpt>
      <trkpt lat="45.959567064419389" lon="7.372381305322051">
        <ele>2527.4400000000001</ele>
        <time>2016-07-07T14:16:50Z</time>
      </trkpt>
      <trkpt lat="45.959593467414379" lon="7.372378455474973">
        <ele>2527.9200000000001</ele>
        <time>2016-07-07T14:16:57Z</time>
      </trkpt>
      <trkpt lat="45.959598580375314" lon="7.372390106320381">
        <ele>2527.9200000000001</ele>
        <time>2016-07-07T14:17:07Z</time>
      </trkpt>
      <trkpt lat="45.959605202078819" lon="7.372419191524386">
        <ele>2528.4000000000001</ele>
        <time>2016-07-07T14:17:19Z</time>
      </trkpt>
      <trkpt lat="45.959590952843428" lon="7.372414162382484">
        <ele>2528.4000000000001</ele>
        <time>2016-07-07T14:17:37Z</time>
      </trkpt>
      <trkpt lat="45.959599586203694" lon="7.372424136847258">
        <ele>2528.4000000000001</ele>
        <time>2016-07-07T14:17:47Z</time>
      </trkpt>
      <trkpt lat="45.959628336131573" lon="7.372406618669629">
        <ele>2528.4000000000001</ele>
        <time>2016-07-07T14:18:01Z</time>
      </trkpt>
      <trkpt lat="45.959597742184997" lon="7.372495299205184">
        <ele>2528.8899999999999</ele>
        <time>2016-07-07T14:18:12Z</time>
      </trkpt>
      <trkpt lat="45.959541499614716" lon="7.372546009719372">
        <ele>2529.3699999999999</ele>
        <time>2016-07-07T14:18:21Z</time>
      </trkpt>
      <trkpt lat="45.959487939253449" lon="7.372601414099336">
        <ele>2529.3699999999999</ele>
        <time>2016-07-07T14:18:31Z</time>
      </trkpt>
      <trkpt lat="45.959437983110547" lon="7.372642820701003">
        <ele>2529.8499999999999</ele>
        <time>2016-07-07T14:18:39Z</time>
      </trkpt>
      <trkpt lat="45.959387021139264" lon="7.372698308899999">
        <ele>2529.3699999999999</ele>
        <time>2016-07-07T14:18:48Z</time>
      </trkpt>
      <trkpt lat="45.959360953420401" lon="7.372770896181464">
        <ele>2529.3699999999999</ele>
        <time>2016-07-07T14:18:57Z</time>
      </trkpt>
      <trkpt lat="45.95934921875596" lon="7.37286938354373">
        <ele>2530.3299999999999</ele>
        <time>2016-07-07T14:19:08Z</time>
      </trkpt>
      <trkpt lat="45.959320301190019" lon="7.372933086007834">
        <ele>2530.8099999999999</ele>
        <time>2016-07-07T14:19:15Z</time>
      </trkpt>
      <trkpt lat="45.959275793284178" lon="7.373027047142386">
        <ele>2532.25</ele>
        <time>2016-07-07T14:19:27Z</time>
      </trkpt>
      <trkpt lat="45.959248971194029" lon="7.373049007728696">
        <ele>2532.25</ele>
        <time>2016-07-07T14:19:39Z</time>
      </trkpt>
      <trkpt lat="45.959203038364649" lon="7.373118074610829">
        <ele>2532.73</ele>
        <time>2016-07-07T14:19:49Z</time>
      </trkpt>
      <trkpt lat="45.959191890433431" lon="7.37321681343019">
        <ele>2534.6500000000001</ele>
        <time>2016-07-07T14:20:00Z</time>
      </trkpt>
      <trkpt lat="45.959145873785019" lon="7.373328963294625">
        <ele>2535.6100000000001</ele>
        <time>2016-07-07T14:20:12Z</time>
      </trkpt>
      <trkpt lat="45.95909072086215" lon="7.373431976884604">
        <ele>2537.0599999999999</ele>
        <time>2016-07-07T14:20:24Z</time>
      </trkpt>
      <trkpt lat="45.959059875458479" lon="7.373527949675918">
        <ele>2538.02</ele>
        <time>2016-07-07T14:20:35Z</time>
      </trkpt>
      <trkpt lat="45.959005393087864" lon="7.373618306592107">
        <ele>2538.98</ele>
        <time>2016-07-07T14:20:46Z</time>
      </trkpt>
      <trkpt lat="45.958962142467499" lon="7.373688127845526">
        <ele>2540.4200000000001</ele>
        <time>2016-07-07T14:20:57Z</time>
      </trkpt>
      <trkpt lat="45.958939678966999" lon="7.373736910521984">
        <ele>2540.9000000000001</ele>
        <time>2016-07-07T14:21:03Z</time>
      </trkpt>
      <trkpt lat="45.958875641226768" lon="7.373835984617472">
        <ele>2542.3400000000001</ele>
        <time>2016-07-07T14:21:15Z</time>
      </trkpt>
      <trkpt lat="45.958828534930944" lon="7.373903542757034">
        <ele>2543.3099999999999</ele>
        <time>2016-07-07T14:21:27Z</time>
      </trkpt>
      <trkpt lat="45.958789056167006" lon="7.373995324596763">
        <ele>2544.75</ele>
        <time>2016-07-07T14:21:38Z</time>
      </trkpt>
      <trkpt lat="45.958744045346975" lon="7.374026086181402">
        <ele>2545.71</ele>
        <time>2016-07-07T14:21:45Z</time>
      </trkpt>
      <trkpt lat="45.958680175244808" lon="7.374137565493584">
        <ele>2546.1900000000001</ele>
        <time>2016-07-07T14:21:58Z</time>
      </trkpt>
      <trkpt lat="45.958660310134292" lon="7.374236052855849">
        <ele>2547.1500000000001</ele>
        <time>2016-07-07T14:22:09Z</time>
      </trkpt>
      <trkpt lat="45.958607504144311" lon="7.374279052019119">
        <ele>2548.5900000000001</ele>
        <time>2016-07-07T14:22:18Z</time>
      </trkpt>
      <trkpt lat="45.958548495545983" lon="7.374331438913941">
        <ele>2550.0300000000002</ele>
        <time>2016-07-07T14:22:30Z</time>
      </trkpt>
      <trkpt lat="45.95850189216435" lon="7.374376449733973">
        <ele>2551.96</ele>
        <time>2016-07-07T14:22:43Z</time>
      </trkpt>
      <trkpt lat="45.958478758111596" lon="7.374452808871865">
        <ele>2553.8800000000001</ele>
        <time>2016-07-07T14:22:56Z</time>
      </trkpt>
      <trkpt lat="45.958483535796404" lon="7.374541908502579">
        <ele>2555.8000000000002</ele>
        <time>2016-07-07T14:23:09Z</time>
      </trkpt>
      <trkpt lat="45.958489822223783" lon="7.374565629288554">
        <ele>2555.8000000000002</ele>
        <time>2016-07-07T14:23:11Z</time>
      </trkpt>
      <trkpt lat="45.958442045375705" lon="7.374681970104575">
        <ele>2557.73</ele>
        <time>2016-07-07T14:23:25Z</time>
      </trkpt>
      <trkpt lat="45.958380186930299" lon="7.374702841043472">
        <ele>2559.1700000000001</ele>
        <time>2016-07-07T14:23:37Z</time>
      </trkpt>
      <trkpt lat="45.958348168060184" lon="7.374762939289212">
        <ele>2561.0900000000001</ele>
        <time>2016-07-07T14:23:50Z</time>
      </trkpt>
      <trkpt lat="45.958291003480554" lon="7.374847596511245">
        <ele>2562.0500000000002</ele>
        <time>2016-07-07T14:24:01Z</time>
      </trkpt>
      <trkpt lat="45.958268204703927" lon="7.374950274825096">
        <ele>2563.9699999999998</ele>
        <time>2016-07-07T14:24:14Z</time>
      </trkpt>
      <trkpt lat="45.958207855001092" lon="7.374996291473508">
        <ele>2564.9299999999998</ele>
        <time>2016-07-07T14:24:24Z</time>
      </trkpt>
      <trkpt lat="45.958177512511611" lon="7.375074997544289">
        <ele>2566.3800000000001</ele>
        <time>2016-07-07T14:24:36Z</time>
      </trkpt>
      <trkpt lat="45.958130406215787" lon="7.375171473249793">
        <ele>2567.8200000000002</ele>
        <time>2016-07-07T14:24:49Z</time>
      </trkpt>
      <trkpt lat="45.958083216100931" lon="7.375266524031758">
        <ele>2569.2600000000002</ele>
        <time>2016-07-07T14:25:01Z</time>
      </trkpt>
      <trkpt lat="45.958055052906275" lon="7.37533257342875">
        <ele>2571.1799999999998</ele>
        <time>2016-07-07T14:25:13Z</time>
      </trkpt>
      <trkpt lat="45.958051448687911" lon="7.375435587018728">
        <ele>2573.1100000000001</ele>
        <time>2016-07-07T14:25:26Z</time>
      </trkpt>
      <trkpt lat="45.958010712638497" lon="7.375525273382664">
        <ele>2574.0700000000002</ele>
        <time>2016-07-07T14:25:38Z</time>
      </trkpt>
      <trkpt lat="45.958008198067546" lon="7.375533739104867">
        <ele>2574.0700000000002</ele>
        <time>2016-07-07T14:25:39Z</time>
      </trkpt>
      <trkpt lat="45.957936281338334" lon="7.375583695247769">
        <ele>2575.0300000000002</ele>
        <time>2016-07-07T14:25:50Z</time>
      </trkpt>
      <trkpt lat="45.957891689613461" lon="7.375667933374643">
        <ele>2576.4699999999998</ele>
        <time>2016-07-07T14:26:01Z</time>
      </trkpt>
      <trkpt lat="45.957835949957371" lon="7.375712860375643">
        <ele>2576.9499999999998</ele>
        <time>2016-07-07T14:26:10Z</time>
      </trkpt>
      <trkpt lat="45.957798399031162" lon="7.375708501785994">
        <ele>2577.4299999999998</ele>
        <time>2016-07-07T14:26:14Z</time>
      </trkpt>
      <trkpt lat="45.957731679081917" lon="7.375768767669797">
        <ele>2578.3899999999999</ele>
        <time>2016-07-07T14:26:25Z</time>
      </trkpt>
      <trkpt lat="45.957671664655209" lon="7.375794583931565">
        <ele>2579.8400000000001</ele>
        <time>2016-07-07T14:26:34Z</time>
      </trkpt>
      <trkpt lat="45.957613745704293" lon="7.375816041603684">
        <ele>2580.8000000000002</ele>
        <time>2016-07-07T14:26:44Z</time>
      </trkpt>
      <trkpt lat="45.957587761804461" lon="7.375826183706522">
        <ele>2581.2800000000002</ele>
        <time>2016-07-07T14:26:53Z</time>
      </trkpt>
      <trkpt lat="45.957566807046533" lon="7.375869518145919">
        <ele>2581.7600000000002</ele>
        <time>2016-07-07T14:27:00Z</time>
      </trkpt>
      <trkpt lat="45.957516515627503" lon="7.375903716310859">
        <ele>2583.6799999999998</ele>
        <time>2016-07-07T14:27:10Z</time>
      </trkpt>
      <trkpt lat="45.957466894760728" lon="7.375926515087485">
        <ele>2585.5999999999999</ele>
        <time>2016-07-07T14:27:21Z</time>
      </trkpt>
      <trkpt lat="45.957423141226172" lon="7.375972699373961">
        <ele>2586.5599999999999</ele>
        <time>2016-07-07T14:27:30Z</time>
      </trkpt>
      <trkpt lat="45.957404114305973" lon="7.376035312190652">
        <ele>2587.5300000000002</ele>
        <time>2016-07-07T14:27:39Z</time>
      </trkpt>
      <trkpt lat="45.957348709926009" lon="7.376129776239395">
        <ele>2588.9699999999998</ele>
        <time>2016-07-07T14:27:51Z</time>
      </trkpt>
      <trkpt lat="45.957340747117996" lon="7.37615006044507">
        <ele>2590.4099999999999</ele>
        <time>2016-07-07T14:27:54Z</time>
      </trkpt>
      <trkpt lat="45.957281738519669" lon="7.376211583614349">
        <ele>2590.4099999999999</ele>
        <time>2016-07-07T14:28:05Z</time>
      </trkpt>
      <trkpt lat="45.95723195001483" lon="7.376244189217687">
        <ele>2592.3299999999999</ele>
        <time>2016-07-07T14:28:16Z</time>
      </trkpt>
      <trkpt lat="45.957201272249222" lon="7.376247961074114">
        <ele>2592.3299999999999</ele>
        <time>2016-07-07T14:28:21Z</time>
      </trkpt>
      <trkpt lat="45.957159698009491" lon="7.376272855326533">
        <ele>2592.3299999999999</ele>
        <time>2016-07-07T14:28:28Z</time>
      </trkpt>
      <trkpt lat="45.957073615863919" lon="7.376319207251072">
        <ele>2592.8099999999999</ele>
        <time>2016-07-07T14:28:38Z</time>
      </trkpt>
      <trkpt lat="45.957002285867929" lon="7.376400511711836">
        <ele>2591.8499999999999</ele>
        <time>2016-07-07T14:28:49Z</time>
      </trkpt>
      <trkpt lat="45.956995580345392" lon="7.376404451206327">
        <ele>2591.8499999999999</ele>
        <time>2016-07-07T14:28:50Z</time>
      </trkpt>
      <trkpt lat="45.956934811547399" lon="7.376457927748561">
        <ele>2591.3699999999999</ele>
        <time>2016-07-07T14:28:57Z</time>
      </trkpt>
      <trkpt lat="45.95687672495842" lon="7.37649891525507">
        <ele>2591.8499999999999</ele>
        <time>2016-07-07T14:29:08Z</time>
      </trkpt>
      <trkpt lat="45.956816542893648" lon="7.376492293551564">
        <ele>2592.8099999999999</ele>
        <time>2016-07-07T14:29:16Z</time>
      </trkpt>
      <trkpt lat="45.956716546788812" lon="7.376500172540546">
        <ele>2592.3299999999999</ele>
        <time>2016-07-07T14:29:27Z</time>
      </trkpt>
      <trkpt lat="45.956671200692654" lon="7.376533783972263">
        <ele>2592.3299999999999</ele>
        <time>2016-07-07T14:29:33Z</time>
      </trkpt>
      <trkpt lat="45.956622250378132" lon="7.376569826155901">
        <ele>2591.3699999999999</ele>
        <time>2016-07-07T14:29:39Z</time>
      </trkpt>
      <trkpt lat="45.956548992544413" lon="7.37658835016191">
        <ele>2591.8499999999999</ele>
        <time>2016-07-07T14:29:48Z</time>
      </trkpt>
      <trkpt lat="45.956524517387152" lon="7.376581225544214">
        <ele>2592.3299999999999</ele>
        <time>2016-07-07T14:29:57Z</time>
      </trkpt>
      <trkpt lat="45.95650976523757" lon="7.376590110361576">
        <ele>2592.3299999999999</ele>
        <time>2016-07-07T14:30:03Z</time>
      </trkpt>
      <trkpt lat="45.956469783559442" lon="7.376607963815332">
        <ele>2592.3299999999999</ele>
        <time>2016-07-07T14:30:08Z</time>
      </trkpt>
      <trkpt lat="45.956404823809862" lon="7.376689352095127">
        <ele>2591.8499999999999</ele>
        <time>2016-07-07T14:30:18Z</time>
      </trkpt>
      <trkpt lat="45.956344222649932" lon="7.376757161691785">
        <ele>2590.8899999999999</ele>
        <time>2016-07-07T14:30:27Z</time>
      </trkpt>
      <trkpt lat="45.956289069727063" lon="7.376866294071078">
        <ele>2590.4099999999999</ele>
        <time>2016-07-07T14:30:38Z</time>
      </trkpt>
      <trkpt lat="45.956229055300355" lon="7.376963524147868">
        <ele>2589.9299999999998</ele>
        <time>2016-07-07T14:30:48Z</time>
      </trkpt>
      <trkpt lat="45.95622394233942" lon="7.376973414793611">
        <ele>2589.9299999999998</ele>
        <time>2016-07-07T14:30:49Z</time>
      </trkpt>
      <trkpt lat="45.956195360049605" lon="7.37702026963234">
        <ele>2589.4499999999998</ele>
        <time>2016-07-07T14:31:01Z</time>
      </trkpt>
      <trkpt lat="45.956156132742763" lon="7.377092018723488">
        <ele>2588.4899999999998</ele>
        <time>2016-07-07T14:31:10Z</time>
      </trkpt>
      <trkpt lat="45.95612813718617" lon="7.377174748107791">
        <ele>2588.0100000000002</ele>
        <time>2016-07-07T14:31:19Z</time>
      </trkpt>
      <trkpt lat="45.956063931807876" lon="7.37733936868608">
        <ele>2586.5599999999999</ele>
        <time>2016-07-07T14:31:32Z</time>
      </trkpt>
      <trkpt lat="45.955996792763472" lon="7.37747373059392">
        <ele>2586.0799999999999</ele>
        <time>2016-07-07T14:31:45Z</time>
      </trkpt>
      <trkpt lat="45.955970557406545" lon="7.377503821626306">
        <ele>2585.1199999999999</ele>
        <time>2016-07-07T14:31:49Z</time>
      </trkpt>
      <trkpt lat="45.95595178194344" lon="7.377515891566873">
        <ele>2585.5999999999999</ele>
        <time>2016-07-07T14:31:51Z</time>
      </trkpt>
      <trkpt lat="45.955890761688352" lon="7.377577163279057">
        <ele>2585.1199999999999</ele>
        <time>2016-07-07T14:32:03Z</time>
      </trkpt>
      <trkpt lat="45.955886654555798" lon="7.377584539353848">
        <ele>2585.1199999999999</ele>
        <time>2016-07-07T14:32:04Z</time>
      </trkpt>
      <trkpt lat="45.955831417813897" lon="7.377659054473043">
        <ele>2583.6799999999998</ele>
        <time>2016-07-07T14:32:12Z</time>
      </trkpt>
      <trkpt lat="45.955799734219909" lon="7.377664251253009">
        <ele>2583.1999999999998</ele>
        <time>2016-07-07T14:32:23Z</time>
      </trkpt>
      <trkpt lat="45.955801159143448" lon="7.37766626290977">
        <ele>2583.1999999999998</ele>
        <time>2016-07-07T14:32:24Z</time>
      </trkpt>
      <trkpt lat="45.955782551318407" lon="7.377714458853006">
        <ele>2582.7199999999998</ele>
        <time>2016-07-07T14:32:27Z</time>
      </trkpt>
      <trkpt lat="45.955730248242617" lon="7.377798613160849">
        <ele>2582.2399999999998</ele>
        <time>2016-07-07T14:32:35Z</time>
      </trkpt>
      <trkpt lat="45.955702168866992" lon="7.37783532589674">
        <ele>2582.2399999999998</ele>
        <time>2016-07-07T14:32:38Z</time>
      </trkpt>
      <trkpt lat="45.955682303756475" lon="7.377863824367523">
        <ele>2582.2399999999998</ele>
        <time>2016-07-07T14:32:41Z</time>
      </trkpt>
      <trkpt lat="45.955599071457982" lon="7.377984439954162">
        <ele>2580.8000000000002</ele>
        <time>2016-07-07T14:32:51Z</time>
      </trkpt>
      <trkpt lat="45.955527992919087" lon="7.378099607303739">
        <ele>2580.3200000000002</ele>
        <time>2016-07-07T14:33:01Z</time>
      </trkpt>
      <trkpt lat="45.955474264919758" lon="7.378174709156156">
        <ele>2580.8000000000002</ele>
        <time>2016-07-07T14:33:09Z</time>
      </trkpt>
      <trkpt lat="45.955446772277355" lon="7.378233298659325">
        <ele>2580.8000000000002</ele>
        <time>2016-07-07T14:33:20Z</time>
      </trkpt>
      <trkpt lat="45.955411400645971" lon="7.378349555656314">
        <ele>2580.8000000000002</ele>
        <time>2016-07-07T14:33:33Z</time>
      </trkpt>
      <trkpt lat="45.955382231622934" lon="7.378414012491703">
        <ele>2580.8000000000002</ele>
        <time>2016-07-07T14:33:39Z</time>
      </trkpt>
      <trkpt lat="45.955320205539465" lon="7.378454329445958">
        <ele>2580.8000000000002</ele>
        <time>2016-07-07T14:33:47Z</time>
      </trkpt>
      <trkpt lat="45.955233117565513" lon="7.37851107493043">
        <ele>2580.8000000000002</ele>
        <time>2016-07-07T14:33:57Z</time>
      </trkpt>
      <trkpt lat="45.955215431749821" lon="7.378517361357808">
        <ele>2580.8000000000002</ele>
        <time>2016-07-07T14:33:59Z</time>
      </trkpt>
      <trkpt lat="45.955198081210256" lon="7.378520462661982">
        <ele>2580.8000000000002</ele>
        <time>2016-07-07T14:34:01Z</time>
      </trkpt>
      <trkpt lat="45.955167235806584" lon="7.378523731604219">
        <ele>2580.3200000000002</ele>
        <time>2016-07-07T14:34:04Z</time>
      </trkpt>
      <trkpt lat="45.95513136126101" lon="7.378505039960146">
        <ele>2580.8000000000002</ele>
        <time>2016-07-07T14:34:09Z</time>
      </trkpt>
      <trkpt lat="45.955060198903084" lon="7.378520797938108">
        <ele>2581.2800000000002</ele>
        <time>2016-07-07T14:34:17Z</time>
      </trkpt>
      <trkpt lat="45.955021474510431" lon="7.378445360809565">
        <ele>2582.2399999999998</ele>
        <time>2016-07-07T14:34:25Z</time>
      </trkpt>
      <trkpt lat="45.954975374042988" lon="7.378355506807566">
        <ele>2583.1999999999998</ele>
        <time>2016-07-07T14:34:35Z</time>
      </trkpt>
      <trkpt lat="45.954960202798247" lon="7.378341592848301">
        <ele>2583.6799999999998</ele>
        <time>2016-07-07T14:34:37Z</time>
      </trkpt>
      <trkpt lat="45.954883676022291" lon="7.378320973366499">
        <ele>2583.6799999999998</ele>
        <time>2016-07-07T14:34:47Z</time>
      </trkpt>
      <trkpt lat="45.954880574718118" lon="7.378321560099721">
        <ele>2583.1999999999998</ele>
        <time>2016-07-07T14:34:48Z</time>
      </trkpt>
      <trkpt lat="45.954857273027301" lon="7.378310412168503">
        <ele>2583.1999999999998</ele>
        <time>2016-07-07T14:34:51Z</time>
      </trkpt>
      <trkpt lat="45.954762222245336" lon="7.378254253417254">
        <ele>2581.7600000000002</ele>
        <time>2016-07-07T14:35:03Z</time>
      </trkpt>
      <trkpt lat="45.954660717397928" lon="7.3782311193645">
        <ele>2580.8000000000002</ele>
        <time>2016-07-07T14:35:15Z</time>
      </trkpt>
      <trkpt lat="45.954616963863373" lon="7.378258025273681">
        <ele>2580.3200000000002</ele>
        <time>2016-07-07T14:35:20Z</time>
      </trkpt>
      <trkpt lat="45.954589387401938" lon="7.378300102427602">
        <ele>2579.8400000000001</ele>
        <time>2016-07-07T14:35:24Z</time>
      </trkpt>
      <trkpt lat="45.954511351883411" lon="7.378369504585862">
        <ele>2579.3499999999999</ele>
        <time>2016-07-07T14:35:35Z</time>
      </trkpt>
      <trkpt lat="45.954474890604615" lon="7.378402194008231">
        <ele>2579.3499999999999</ele>
        <time>2016-07-07T14:35:40Z</time>
      </trkpt>
      <trkpt lat="45.954432310536504" lon="7.378434548154473">
        <ele>2578.8699999999999</ele>
        <time>2016-07-07T14:35:49Z</time>
      </trkpt>
      <trkpt lat="45.95442283898592" lon="7.37845198251307">
        <ele>2578.8699999999999</ele>
        <time>2016-07-07T14:35:53Z</time>
      </trkpt>
      <trkpt lat="45.954365339130163" lon="7.378456005826592">
        <ele>2578.8699999999999</ele>
        <time>2016-07-07T14:36:02Z</time>
      </trkpt>
      <trkpt lat="45.95430264249444" lon="7.378451144322753">
        <ele>2578.8699999999999</ele>
        <time>2016-07-07T14:36:11Z</time>
      </trkpt>
      <trkpt lat="45.954284621402621" lon="7.378476038575172">
        <ele>2579.3499999999999</ele>
        <time>2016-07-07T14:36:15Z</time>
      </trkpt>
      <trkpt lat="45.95422200858593" lon="7.378461202606559">
        <ele>2579.3499999999999</ele>
        <time>2016-07-07T14:36:26Z</time>
      </trkpt>
      <trkpt lat="45.954219996929169" lon="7.378463968634605">
        <ele>2579.8400000000001</ele>
        <time>2016-07-07T14:36:40Z</time>
      </trkpt>
      <trkpt lat="45.954219996929169" lon="7.378470171242952">
        <ele>2579.3499999999999</ele>
        <time>2016-07-07T14:36:57Z</time>
      </trkpt>
      <trkpt lat="45.954171298071742" lon="7.378476373851299">
        <ele>2579.8400000000001</ele>
        <time>2016-07-07T14:37:07Z</time>
      </trkpt>
      <trkpt lat="45.95413114875555" lon="7.37850621342659">
        <ele>2579.8400000000001</ele>
        <time>2016-07-07T14:37:16Z</time>
      </trkpt>
      <trkpt lat="45.954089909791946" lon="7.378593804314733">
        <ele>2580.3200000000002</ele>
        <time>2016-07-07T14:37:25Z</time>
      </trkpt>
      <trkpt lat="45.954034673050046" lon="7.378688268363476">
        <ele>2581.2800000000002</ele>
        <time>2016-07-07T14:37:35Z</time>
      </trkpt>
      <trkpt lat="45.953968372195959" lon="7.378802429884672">
        <ele>2581.2800000000002</ele>
        <time>2016-07-07T14:37:46Z</time>
      </trkpt>
      <trkpt lat="45.953893605619669" lon="7.378863198682666">
        <ele>2580.8000000000002</ele>
        <time>2016-07-07T14:37:56Z</time>
      </trkpt>
      <trkpt lat="45.953825796023011" lon="7.378961183130741">
        <ele>2580.8000000000002</ele>
        <time>2016-07-07T14:38:06Z</time>
      </trkpt>
      <trkpt lat="45.953743737190962" lon="7.379012983292341">
        <ele>2581.2800000000002</ele>
        <time>2016-07-07T14:38:17Z</time>
      </trkpt>
      <trkpt lat="45.953729907050729" lon="7.3790099658072">
        <ele>2581.7600000000002</ele>
        <time>2016-07-07T14:38:19Z</time>
      </trkpt>
      <trkpt lat="45.953653547912836" lon="7.379029663279653">
        <ele>2581.7600000000002</ele>
        <time>2016-07-07T14:38:29Z</time>
      </trkpt>
      <trkpt lat="45.953615996986628" lon="7.379026059061289">
        <ele>2581.7600000000002</ele>
        <time>2016-07-07T14:38:33Z</time>
      </trkpt>
      <trkpt lat="45.953578948974609" lon="7.379019856452942">
        <ele>2581.7600000000002</ele>
        <time>2016-07-07T14:38:37Z</time>
      </trkpt>
      <trkpt lat="45.953538799658418" lon="7.379049109295011">
        <ele>2581.7600000000002</ele>
        <time>2016-07-07T14:38:42Z</time>
      </trkpt>
      <trkpt lat="45.953510971739888" lon="7.379059083759785">
        <ele>2581.2800000000002</ele>
        <time>2016-07-07T14:38:46Z</time>
      </trkpt>
      <trkpt lat="45.953422039747238" lon="7.379096886143088">
        <ele>2581.2800000000002</ele>
        <time>2016-07-07T14:38:57Z</time>
      </trkpt>
      <trkpt lat="45.953354146331549" lon="7.379137706011534">
        <ele>2580.8000000000002</ele>
        <time>2016-07-07T14:39:06Z</time>
      </trkpt>
      <trkpt lat="45.953348278999329" lon="7.379148686304689">
        <ele>2580.8000000000002</ele>
        <time>2016-07-07T14:39:08Z</time>
      </trkpt>
      <trkpt lat="45.953341824933887" lon="7.379171065986157">
        <ele>2580.8000000000002</ele>
        <time>2016-07-07T14:39:19Z</time>
      </trkpt>
      <trkpt lat="45.953294886276126" lon="7.3791947029531">
        <ele>2581.2800000000002</ele>
        <time>2016-07-07T14:39:35Z</time>
      </trkpt>
      <trkpt lat="45.953228082507849" lon="7.379216747358441">
        <ele>2581.7600000000002</ele>
        <time>2016-07-07T14:39:47Z</time>
      </trkpt>
      <trkpt lat="45.953158512711525" lon="7.379255723208189">
        <ele>2582.7199999999998</ele>
        <time>2016-07-07T14:39:58Z</time>
      </trkpt>
      <trkpt lat="45.953104617074132" lon="7.379249688237906">
        <ele>2584.1599999999999</ele>
        <time>2016-07-07T14:40:08Z</time>
      </trkpt>
      <trkpt lat="45.953067988157272" lon="7.379247760400176">
        <ele>2586.0799999999999</ele>
        <time>2016-07-07T14:40:21Z</time>
      </trkpt>
      <trkpt lat="45.953007973730564" lon="7.379196882247925">
        <ele>2587.5300000000002</ele>
        <time>2016-07-07T14:40:33Z</time>
      </trkpt>
      <trkpt lat="45.952965142205358" lon="7.379133766517043">
        <ele>2588.9699999999998</ele>
        <time>2016-07-07T14:40:45Z</time>
      </trkpt>
      <trkpt lat="45.952923400327563" lon="7.379075763747096">
        <ele>2590.8899999999999</ele>
        <time>2016-07-07T14:40:58Z</time>
      </trkpt>
      <trkpt lat="45.952876880764961" lon="7.37907157279551">
        <ele>2592.3299999999999</ele>
        <time>2016-07-07T14:41:08Z</time>
      </trkpt>
      <trkpt lat="45.952823739498854" lon="7.379084816202521">
        <ele>2594.25</ele>
        <time>2016-07-07T14:41:20Z</time>
      </trkpt>
      <trkpt lat="45.952773280441761" lon="7.379086073487997">
        <ele>2595.6999999999998</ele>
        <time>2016-07-07T14:41:31Z</time>
      </trkpt>
      <trkpt lat="45.952723324298859" lon="7.379081379622221">
        <ele>2597.1399999999999</ele>
        <time>2016-07-07T14:41:43Z</time>
      </trkpt>
      <trkpt lat="45.952649982646108" lon="7.37904567271471">
        <ele>2598.5799999999999</ele>
        <time>2016-07-07T14:41:57Z</time>
      </trkpt>
      <trkpt lat="45.952604385092854" lon="7.379028405994177">
        <ele>2599.54</ele>
        <time>2016-07-07T14:42:05Z</time>
      </trkpt>
      <trkpt lat="45.952541185542941" lon="7.379028825089335">
        <ele>2600.5</ele>
        <time>2016-07-07T14:42:15Z</time>
      </trkpt>
      <trkpt lat="45.952464323490858" lon="7.379030920565128">
        <ele>2601.46</ele>
        <time>2016-07-07T14:42:28Z</time>
      </trkpt>
      <trkpt lat="45.952410595491529" lon="7.378976689651609">
        <ele>2602.9099999999999</ele>
        <time>2016-07-07T14:42:37Z</time>
      </trkpt>
      <trkpt lat="45.952355107292533" lon="7.378986580297351">
        <ele>2603.8699999999999</ele>
        <time>2016-07-07T14:42:50Z</time>
      </trkpt>
      <trkpt lat="45.952319232746959" lon="7.379014492034912">
        <ele>2604.8299999999999</ele>
        <time>2016-07-07T14:43:00Z</time>
      </trkpt>
      <trkpt lat="45.952291991561651" lon="7.379070315510035">
        <ele>2606.75</ele>
        <time>2016-07-07T14:43:14Z</time>
      </trkpt>
      <trkpt lat="45.95227631740272" lon="7.37907643429935">
        <ele>2606.75</ele>
        <time>2016-07-07T14:43:33Z</time>
      </trkpt>
      <trkpt lat="45.952248238027096" lon="7.379128569737077">
        <ele>2608.1900000000001</ele>
        <time>2016-07-07T14:43:42Z</time>
      </trkpt>
      <trkpt lat="45.952195599675179" lon="7.379103172570467">
        <ele>2609.6399999999999</ele>
        <time>2016-07-07T14:43:52Z</time>
      </trkpt>
      <trkpt lat="45.952191660180688" lon="7.379093449562788">
        <ele>2609.6399999999999</ele>
        <time>2016-07-07T14:43:53Z</time>
      </trkpt>
      <trkpt lat="45.95217171125114" lon="7.379095461219549">
        <ele>2610.5999999999999</ele>
        <time>2016-07-07T14:44:04Z</time>
      </trkpt>
      <trkpt lat="45.952143799513578" lon="7.379093198105693">
        <ele>2610.5999999999999</ele>
        <time>2016-07-07T14:44:18Z</time>
      </trkpt>
      <trkpt lat="45.952084958553314" lon="7.379026561975479">
        <ele>2611.0799999999999</ele>
        <time>2016-07-07T14:44:26Z</time>
      </trkpt>
      <trkpt lat="45.952067775651813" lon="7.379014827311039">
        <ele>2611.5599999999999</ele>
        <time>2016-07-07T14:44:28Z</time>
      </trkpt>
      <trkpt lat="45.951992338523269" lon="7.379005691036582">
        <ele>2611.0799999999999</ele>
        <time>2016-07-07T14:44:39Z</time>
      </trkpt>
      <trkpt lat="45.951931402087212" lon="7.379023628309369">
        <ele>2612.52</ele>
        <time>2016-07-07T14:44:50Z</time>
      </trkpt>
      <trkpt lat="45.951886223629117" lon="7.37907106988132">
        <ele>2613</ele>
        <time>2016-07-07T14:45:01Z</time>
      </trkpt>
      <trkpt lat="45.951854288578033" lon="7.379132509231567">
        <ele>2614.4400000000001</ele>
        <time>2016-07-07T14:45:12Z</time>
      </trkpt>
      <trkpt lat="45.951808607205749" lon="7.379205012694001">
        <ele>2616.3699999999999</ele>
        <time>2016-07-07T14:45:23Z</time>
      </trkpt>
      <trkpt lat="45.951794190332294" lon="7.379290508106351">
        <ele>2617.8099999999999</ele>
        <time>2016-07-07T14:45:36Z</time>
      </trkpt>
      <trkpt lat="45.951834926381707" lon="7.379359658807516">
        <ele>2619.73</ele>
        <time>2016-07-07T14:45:48Z</time>
      </trkpt>
      <trkpt lat="45.951839033514261" lon="7.379398802295327">
        <ele>2619.73</ele>
        <time>2016-07-07T14:45:52Z</time>
      </trkpt>
      <trkpt lat="45.95183459110558" lon="7.379523022100329">
        <ele>2620.21</ele>
        <time>2016-07-07T14:46:04Z</time>
      </trkpt>
      <trkpt lat="45.951823694631457" lon="7.379591753706336">
        <ele>2622.1300000000001</ele>
        <time>2016-07-07T14:46:14Z</time>
      </trkpt>
      <trkpt lat="45.951844397932291" lon="7.379675824195147">
        <ele>2623.5799999999999</ele>
        <time>2016-07-07T14:46:26Z</time>
      </trkpt>
      <trkpt lat="45.951815228909254" lon="7.379798535257578">
        <ele>2626.46</ele>
        <time>2016-07-07T14:46:42Z</time>
      </trkpt>
      <trkpt lat="45.951778599992394" lon="7.379881264641881">
        <ele>2628.3800000000001</ele>
        <time>2016-07-07T14:46:56Z</time>
      </trkpt>
      <trkpt lat="45.951756639406085" lon="7.379961144179106">
        <ele>2628.8600000000001</ele>
        <time>2016-07-07T14:47:07Z</time>
      </trkpt>
      <trkpt lat="45.951735181733966" lon="7.380026858299971">
        <ele>2629.3400000000001</ele>
        <time>2016-07-07T14:47:17Z</time>
      </trkpt>
      <trkpt lat="45.951730906963348" lon="7.380016632378101">
        <ele>2629.8200000000002</ele>
        <time>2016-07-07T14:47:31Z</time>
      </trkpt>
      <trkpt lat="45.951717579737306" lon="7.380066085606813">
        <ele>2630.3000000000002</ele>
        <time>2016-07-07T14:47:42Z</time>
      </trkpt>
      <trkpt lat="45.951635017991066" lon="7.380098355934024">
        <ele>2632.23</ele>
        <time>2016-07-07T14:47:52Z</time>
      </trkpt>
      <trkpt lat="45.951573411002755" lon="7.380118556320667">
        <ele>2634.1500000000001</ele>
        <time>2016-07-07T14:48:05Z</time>
      </trkpt>
      <trkpt lat="45.951551198959351" lon="7.38012358546257">
        <ele>2634.1500000000001</ele>
        <time>2016-07-07T14:48:08Z</time>
      </trkpt>
      <trkpt lat="45.951502081006765" lon="7.380129117518663">
        <ele>2634.1500000000001</ele>
        <time>2016-07-07T14:48:18Z</time>
      </trkpt>
      <trkpt lat="45.951505852863193" lon="7.3801030497998">
        <ele>2634.1500000000001</ele>
        <time>2016-07-07T14:48:33Z</time>
      </trkpt>
      <trkpt lat="45.951497638598084" lon="7.380084861069918">
        <ele>2634.1500000000001</ele>
        <time>2016-07-07T14:48:35Z</time>
      </trkpt>
      <trkpt lat="45.951465452089906" lon="7.38004538230598">
        <ele>2634.1500000000001</ele>
        <time>2016-07-07T14:48:40Z</time>
      </trkpt>
      <trkpt lat="45.951414993032813" lon="7.379992073401809">
        <ele>2635.1100000000001</ele>
        <time>2016-07-07T14:48:51Z</time>
      </trkpt>
      <trkpt lat="45.951428739354014" lon="7.379984445869923">
        <ele>2635.1100000000001</ele>
        <time>2016-07-07T14:49:12Z</time>
      </trkpt>
      <trkpt lat="45.951476851478219" lon="7.380023254081607">
        <ele>2634.6300000000001</ele>
        <time>2016-07-07T14:49:23Z</time>
      </trkpt>
      <trkpt lat="45.951537536457181" lon="7.380036832764745">
        <ele>2634.6300000000001</ele>
        <time>2016-07-07T14:49:34Z</time>
      </trkpt>
      <trkpt lat="45.951547594740987" lon="7.380044041201472">
        <ele>2635.1100000000001</ele>
        <time>2016-07-07T14:49:47Z</time>
      </trkpt>
      <trkpt lat="45.95153845846653" lon="7.3800253495574">
        <ele>2635.1100000000001</ele>
        <time>2016-07-07T14:50:00Z</time>
      </trkpt>
      <trkpt lat="45.951524125412107" lon="7.380049070343375">
        <ele>2634.6300000000001</ele>
        <time>2016-07-07T14:50:08Z</time>
      </trkpt>
      <trkpt lat="45.951501075178385" lon="7.380065331235528">
        <ele>2634.6300000000001</ele>
        <time>2016-07-07T14:50:36Z</time>
      </trkpt>
      <trkpt lat="45.95152135938406" lon="7.380030043423176">
        <ele>2635.1100000000001</ele>
        <time>2016-07-07T14:50:53Z</time>
      </trkpt>
      <trkpt lat="45.951530076563358" lon="7.380032222718">
        <ele>2635.1100000000001</ele>
        <time>2016-07-07T14:51:11Z</time>
      </trkpt>
      <trkpt lat="45.951535608619452" lon="7.380039347335696">
        <ele>2634.6300000000001</ele>
        <time>2016-07-07T14:51:29Z</time>
      </trkpt>
      <trkpt lat="45.951547091826797" lon="7.380022332072258">
        <ele>2635.5900000000001</ele>
        <time>2016-07-07T14:51:41Z</time>
      </trkpt>
      <trkpt lat="45.951551618054509" lon="7.380047477781773">
        <ele>2635.1100000000001</ele>
        <time>2016-07-07T14:51:54Z</time>
      </trkpt>
      <trkpt lat="45.951476935297251" lon="7.380073629319668">
        <ele>2633.6700000000001</ele>
        <time>2016-07-07T14:52:06Z</time>
      </trkpt>
      <trkpt lat="45.951514402404428" lon="7.38016557879746">
        <ele>2631.27</ele>
        <time>2016-07-07T14:52:16Z</time>
      </trkpt>
      <trkpt lat="45.951464530080557" lon="7.38025258295238">
        <ele>2628.8600000000001</ele>
        <time>2016-07-07T14:52:28Z</time>
      </trkpt>
      <trkpt lat="45.951415495947003" lon="7.38016851246357">
        <ele>2625.98</ele>
        <time>2016-07-07T14:52:42Z</time>
      </trkpt>
      <trkpt lat="45.95138942822814" lon="7.380247134715319">
        <ele>2623.0900000000001</ele>
        <time>2016-07-07T14:52:54Z</time>
      </trkpt>
      <trkpt lat="45.951339472085238" lon="7.380259959027171">
        <ele>2620.21</ele>
        <time>2016-07-07T14:53:05Z</time>
      </trkpt>
      <trkpt lat="45.951284151524305" lon="7.380302706733346">
        <ele>2617.3299999999999</ele>
        <time>2016-07-07T14:53:17Z</time>
      </trkpt>
      <trkpt lat="45.951262777671218" lon="7.380328858271241">
        <ele>2613.96</ele>
        <time>2016-07-07T14:53:27Z</time>
      </trkpt>
      <trkpt lat="45.951224388554692" lon="7.380387699231505">
        <ele>2612.52</ele>
        <time>2016-07-07T14:53:39Z</time>
      </trkpt>
      <trkpt lat="45.95119396224618" lon="7.380423909053206">
        <ele>2611.0799999999999</ele>
        <time>2016-07-07T14:53:50Z</time>
      </trkpt>
      <trkpt lat="45.951183820143342" lon="7.380442768335342">
        <ele>2611.0799999999999</ele>
        <time>2016-07-07T14:53:54Z</time>
      </trkpt>
      <trkpt lat="45.951157752424479" lon="7.380477050319314">
        <ele>2609.6399999999999</ele>
        <time>2016-07-07T14:53:58Z</time>
      </trkpt>
      <trkpt lat="45.951157920062542" lon="7.380430195480585">
        <ele>2609.1599999999999</ele>
        <time>2016-07-07T14:54:07Z</time>
      </trkpt>
      <trkpt lat="45.951153561472893" lon="7.380426255986095">
        <ele>2607.71</ele>
        <time>2016-07-07T14:54:17Z</time>
      </trkpt>
      <trkpt lat="45.951124224811792" lon="7.380495155230165">
        <ele>2606.27</ele>
        <time>2016-07-07T14:54:26Z</time>
      </trkpt>
      <trkpt lat="45.951093044131994" lon="7.380465734750032">
        <ele>2603.8699999999999</ele>
        <time>2016-07-07T14:54:35Z</time>
      </trkpt>
      <trkpt lat="45.9510547388345" lon="7.380555421113968">
        <ele>2600.5</ele>
        <time>2016-07-07T14:54:47Z</time>
      </trkpt>
      <trkpt lat="45.951028922572732" lon="7.380528599023819">
        <ele>2598.0999999999999</ele>
        <time>2016-07-07T14:54:56Z</time>
      </trkpt>
      <trkpt lat="45.951010398566723" lon="7.380638737231493">
        <ele>2595.2199999999998</ele>
        <time>2016-07-07T14:55:06Z</time>
      </trkpt>
      <trkpt lat="45.950967147946358" lon="7.380689615383744">
        <ele>2592.8099999999999</ele>
        <time>2016-07-07T14:55:17Z</time>
      </trkpt>
      <trkpt lat="45.950938649475574" lon="7.380780894309282">
        <ele>2590.8899999999999</ele>
        <time>2016-07-07T14:55:27Z</time>
      </trkpt>
      <trkpt lat="45.950888358056545" lon="7.380884159356356">
        <ele>2587.5300000000002</ele>
        <time>2016-07-07T14:55:38Z</time>
      </trkpt>
      <trkpt lat="45.95086757093668" lon="7.380980215966702">
        <ele>2585.5999999999999</ele>
        <time>2016-07-07T14:55:50Z</time>
      </trkpt>
      <trkpt lat="45.95082557760179" lon="7.381060011684895">
        <ele>2584.1599999999999</ele>
        <time>2016-07-07T14:55:59Z</time>
      </trkpt>
      <trkpt lat="45.950770424678922" lon="7.381161348894239">
        <ele>2581.7600000000002</ele>
        <time>2016-07-07T14:56:09Z</time>
      </trkpt>
      <trkpt lat="45.950757348909974" lon="7.381257573142648">
        <ele>2582.7199999999998</ele>
        <time>2016-07-07T14:56:20Z</time>
      </trkpt>
      <trkpt lat="45.950767491012812" lon="7.381314989179373">
        <ele>2584.1599999999999</ele>
        <time>2016-07-07T14:56:30Z</time>
      </trkpt>
      <trkpt lat="45.950773945078254" lon="7.381362346932292">
        <ele>2584.6399999999999</ele>
        <time>2016-07-07T14:56:34Z</time>
      </trkpt>
      <trkpt lat="45.950791798532009" lon="7.381445579230785">
        <ele>2583.6799999999998</ele>
        <time>2016-07-07T14:56:41Z</time>
      </trkpt>
      <trkpt lat="45.950774028897285" lon="7.381595196202397">
        <ele>2584.6399999999999</ele>
        <time>2016-07-07T14:56:53Z</time>
      </trkpt>
      <trkpt lat="45.950731700286269" lon="7.381741879507899">
        <ele>2583.1999999999998</ele>
        <time>2016-07-07T14:57:06Z</time>
      </trkpt>
      <trkpt lat="45.950699681416154" lon="7.381819412112236">
        <ele>2586.0799999999999</ele>
        <time>2016-07-07T14:57:17Z</time>
      </trkpt>
      <trkpt lat="45.950697334483266" lon="7.381869871169329">
        <ele>2587.5300000000002</ele>
        <time>2016-07-07T14:57:27Z</time>
      </trkpt>
      <trkpt lat="45.950671769678593" lon="7.381948158144951">
        <ele>2585.1199999999999</ele>
        <time>2016-07-07T14:57:39Z</time>
      </trkpt>
      <trkpt lat="45.950654000043869" lon="7.381979422643781">
        <ele>2584.1599999999999</ele>
        <time>2016-07-07T14:57:42Z</time>
      </trkpt>
      <trkpt lat="45.950639834627509" lon="7.382098194211721">
        <ele>2583.1999999999998</ele>
        <time>2016-07-07T14:57:53Z</time>
      </trkpt>
      <trkpt lat="45.950608737766743" lon="7.382166171446443">
        <ele>2582.2399999999998</ele>
        <time>2016-07-07T14:57:59Z</time>
      </trkpt>
      <trkpt lat="45.950565151870251" lon="7.382319224998355">
        <ele>2580.3200000000002</ele>
        <time>2016-07-07T14:58:12Z</time>
      </trkpt>
      <trkpt lat="45.950488960370421" lon="7.382441600784659">
        <ele>2577.4299999999998</ele>
        <time>2016-07-07T14:58:24Z</time>
      </trkpt>
      <trkpt lat="45.950453085824847" lon="7.382568335160613">
        <ele>2577.9099999999999</ele>
        <time>2016-07-07T14:58:34Z</time>
      </trkpt>
      <trkpt lat="45.950404135510325" lon="7.382695488631725">
        <ele>2577.9099999999999</ele>
        <time>2016-07-07T14:58:45Z</time>
      </trkpt>
      <trkpt lat="45.950394328683615" lon="7.382709318771958">
        <ele>2577.9099999999999</ele>
        <time>2016-07-07T14:58:46Z</time>
      </trkpt>
      <trkpt lat="45.950335320085287" lon="7.382765645161271">
        <ele>2576.4699999999998</ele>
        <time>2016-07-07T14:58:57Z</time>
      </trkpt>
      <trkpt lat="45.950258374214172" lon="7.382828677073121">
        <ele>2573.5900000000001</ele>
        <time>2016-07-07T14:59:09Z</time>
      </trkpt>
      <trkpt lat="45.950220488011837" lon="7.382863210514188">
        <ele>2572.6300000000001</ele>
        <time>2016-07-07T14:59:13Z</time>
      </trkpt>
      <trkpt lat="45.950128957629204" lon="7.382945436984301">
        <ele>2571.1799999999998</ele>
        <time>2016-07-07T14:59:25Z</time>
      </trkpt>
      <trkpt lat="45.950046982616186" lon="7.383020538836718">
        <ele>2570.2199999999998</ele>
        <time>2016-07-07T14:59:36Z</time>
      </trkpt>
      <trkpt lat="45.950038935989141" lon="7.383037386462092">
        <ele>2569.7399999999998</ele>
        <time>2016-07-07T14:59:40Z</time>
      </trkpt>
      <trkpt lat="45.949990656226873" lon="7.383087007328868">
        <ele>2569.7399999999998</ele>
        <time>2016-07-07T14:59:49Z</time>
      </trkpt>
      <trkpt lat="45.949965007603168" lon="7.383088013157249">
        <ele>2569.2600000000002</ele>
        <time>2016-07-07T14:59:54Z</time>
      </trkpt>
      <trkpt lat="45.949904071167111" lon="7.38310812972486">
        <ele>2568.7800000000002</ele>
        <time>2016-07-07T15:00:03Z</time>
      </trkpt>
      <trkpt lat="45.949862580746412" lon="7.383109806105495">
        <ele>2567.8200000000002</ele>
        <time>2016-07-07T15:00:09Z</time>
      </trkpt>
      <trkpt lat="45.949819330126047" lon="7.383138136938214">
        <ele>2567.3400000000001</ele>
        <time>2016-07-07T15:00:16Z</time>
      </trkpt>
      <trkpt lat="45.94980432651937" lon="7.383131934329867">
        <ele>2567.3400000000001</ele>
        <time>2016-07-07T15:00:17Z</time>
      </trkpt>
      <trkpt lat="45.949820838868618" lon="7.383040320128202">
        <ele>2567.8200000000002</ele>
        <time>2016-07-07T15:00:28Z</time>
      </trkpt>
      <trkpt lat="45.94981069676578" lon="7.383017688989639">
        <ele>2566.3800000000001</ele>
        <time>2016-07-07T15:00:39Z</time>
      </trkpt>
      <trkpt lat="45.949761075899005" lon="7.382986927405">
        <ele>2564.9299999999998</ele>
        <time>2016-07-07T15:00:48Z</time>
      </trkpt>
      <trkpt lat="45.949704330414534" lon="7.383017102256417">
        <ele>2562.5300000000002</ele>
        <time>2016-07-07T15:00:58Z</time>
      </trkpt>
      <trkpt lat="45.949638029560447" lon="7.383044427260757">
        <ele>2562.0500000000002</ele>
        <time>2016-07-07T15:01:09Z</time>
      </trkpt>
      <trkpt lat="45.949609614908695" lon="7.383059514686465">
        <ele>2562.0500000000002</ele>
        <time>2016-07-07T15:01:16Z</time>
      </trkpt>
      <trkpt lat="45.94956292770803" lon="7.383056664839387">
        <ele>2563.0100000000002</ele>
        <time>2016-07-07T15:01:24Z</time>
      </trkpt>
      <trkpt lat="45.949513055384159" lon="7.383051048964262">
        <ele>2564.4499999999998</ele>
        <time>2016-07-07T15:01:35Z</time>
      </trkpt>
      <trkpt lat="45.949470391497016" lon="7.383046103641391">
        <ele>2565.9000000000001</ele>
        <time>2016-07-07T15:01:45Z</time>
      </trkpt>
      <trkpt lat="45.949445916339755" lon="7.383091198280454">
        <ele>2566.8600000000001</ele>
        <time>2016-07-07T15:01:52Z</time>
      </trkpt>
      <trkpt lat="45.949352122843266" lon="7.383102513849735">
        <ele>2568.3000000000002</ele>
        <time>2016-07-07T15:02:05Z</time>
      </trkpt>
      <trkpt lat="45.94928783364594" lon="7.383091449737549">
        <ele>2567.3400000000001</ele>
        <time>2016-07-07T15:02:16Z</time>
      </trkpt>
      <trkpt lat="45.94925656914711" lon="7.383111733943224">
        <ele>2568.7800000000002</ele>
        <time>2016-07-07T15:02:24Z</time>
      </trkpt>
      <trkpt lat="45.949190268293023" lon="7.383123133331537">
        <ele>2568.3000000000002</ele>
        <time>2016-07-07T15:02:37Z</time>
      </trkpt>
      <trkpt lat="45.949146011844277" lon="7.383133778348565">
        <ele>2568.3000000000002</ele>
        <time>2016-07-07T15:02:47Z</time>
      </trkpt>
      <trkpt lat="45.949086081236601" lon="7.38314718939364">
        <ele>2569.7399999999998</ele>
        <time>2016-07-07T15:02:57Z</time>
      </trkpt>
      <trkpt lat="45.94901081174612" lon="7.383115505799651">
        <ele>2568.3000000000002</ele>
        <time>2016-07-07T15:03:08Z</time>
      </trkpt>
      <trkpt lat="45.948926908895373" lon="7.383125983178616">
        <ele>2566.8600000000001</ele>
        <time>2016-07-07T15:03:18Z</time>
      </trkpt>
      <trkpt lat="45.948840575292706" lon="7.383135622367263">
        <ele>2564.4499999999998</ele>
        <time>2016-07-07T15:03:27Z</time>
      </trkpt>
      <trkpt lat="45.948829846456647" lon="7.383126737549901">
        <ele>2563.9699999999998</ele>
        <time>2016-07-07T15:03:28Z</time>
      </trkpt>
      <trkpt lat="45.948740327730775" lon="7.383086420595646">
        <ele>2562.0500000000002</ele>
        <time>2016-07-07T15:03:38Z</time>
      </trkpt>
      <trkpt lat="45.948726329952478" lon="7.383085582405329">
        <ele>2562.0500000000002</ele>
        <time>2016-07-07T15:03:39Z</time>
      </trkpt>
      <trkpt lat="45.948716774582863" lon="7.383090108633041">
        <ele>2561.5700000000002</ele>
        <time>2016-07-07T15:03:40Z</time>
      </trkpt>
      <trkpt lat="45.948604205623269" lon="7.383024478331208">
        <ele>2561.0900000000001</ele>
        <time>2016-07-07T15:03:52Z</time>
      </trkpt>
      <trkpt lat="45.948546286672354" lon="7.382982987910509">
        <ele>2559.6500000000001</ele>
        <time>2016-07-07T15:04:00Z</time>
      </trkpt>
      <trkpt lat="45.94850504770875" lon="7.382950549945235">
        <ele>2559.1700000000001</ele>
        <time>2016-07-07T15:04:04Z</time>
      </trkpt>
      <trkpt lat="45.948471268638968" lon="7.382949711754918">
        <ele>2558.6900000000001</ele>
        <time>2016-07-07T15:04:16Z</time>
      </trkpt>
      <trkpt lat="45.948435897007585" lon="7.382963374257088">
        <ele>2557.73</ele>
        <time>2016-07-07T15:04:24Z</time>
      </trkpt>
      <trkpt lat="45.948417708277702" lon="7.382872514426708">
        <ele>2555.3200000000002</ele>
        <time>2016-07-07T15:04:34Z</time>
      </trkpt>
      <trkpt lat="45.948381666094065" lon="7.382776876911521">
        <ele>2552.9200000000001</ele>
        <time>2016-07-07T15:04:46Z</time>
      </trkpt>
      <trkpt lat="45.948334895074368" lon="7.382834041491151">
        <ele>2551.48</ele>
        <time>2016-07-07T15:04:54Z</time>
      </trkpt>
      <trkpt lat="45.948277814313769" lon="7.382840579375625">
        <ele>2550.0300000000002</ele>
        <time>2016-07-07T15:05:04Z</time>
      </trkpt>
      <trkpt lat="45.948284352198243" lon="7.382724490016699">
        <ele>2548.1100000000001</ele>
        <time>2016-07-07T15:05:14Z</time>
      </trkpt>
      <trkpt lat="45.948253674432635" lon="7.382734380662441">
        <ele>2546.6700000000001</ele>
        <time>2016-07-07T15:05:24Z</time>
      </trkpt>
      <trkpt lat="45.948231630027294" lon="7.382735637947917">
        <ele>2546.1900000000001</ele>
        <time>2016-07-07T15:05:27Z</time>
      </trkpt>
      <trkpt lat="45.948122665286064" lon="7.382671851664782">
        <ele>2544.75</ele>
        <time>2016-07-07T15:05:38Z</time>
      </trkpt>
      <trkpt lat="45.948068182915449" lon="7.382621308788657">
        <ele>2542.3400000000001</ele>
        <time>2016-07-07T15:05:45Z</time>
      </trkpt>
      <trkpt lat="45.948102297261357" lon="7.382509410381317">
        <ele>2542.3400000000001</ele>
        <time>2016-07-07T15:05:57Z</time>
      </trkpt>
      <trkpt lat="45.948115289211273" lon="7.382510416209698">
        <ele>2541.8600000000001</ele>
        <time>2016-07-07T15:06:18Z</time>
      </trkpt>
      <trkpt lat="45.948126101866364" lon="7.382445624098182">
        <ele>2540.9000000000001</ele>
        <time>2016-07-07T15:06:22Z</time>
      </trkpt>
      <trkpt lat="45.948122916743159" lon="7.38238544203341">
        <ele>2539.9400000000001</ele>
        <time>2016-07-07T15:06:26Z</time>
      </trkpt>
      <trkpt lat="45.948076480999589" lon="7.382224593311548">
        <ele>2538.98</ele>
        <time>2016-07-07T15:06:40Z</time>
      </trkpt>
      <trkpt lat="45.948051167652011" lon="7.38224470987916">
        <ele>2537.54</ele>
        <time>2016-07-07T15:06:49Z</time>
      </trkpt>
      <trkpt lat="45.948030548170209" lon="7.382262898609042">
        <ele>2537.54</ele>
        <time>2016-07-07T15:06:59Z</time>
      </trkpt>
      <trkpt lat="45.948014790192246" lon="7.382249068468809">
        <ele>2537.54</ele>
        <time>2016-07-07T15:07:16Z</time>
      </trkpt>
      <trkpt lat="45.9479895606637" lon="7.382260719314218">
        <ele>2536.5799999999999</ele>
        <time>2016-07-07T15:07:23Z</time>
      </trkpt>
      <trkpt lat="45.947938682511449" lon="7.382249319925904">
        <ele>2537.0599999999999</ele>
        <time>2016-07-07T15:07:33Z</time>
      </trkpt>
      <trkpt lat="45.947903813794255" lon="7.382285529747605">
        <ele>2537.0599999999999</ele>
        <time>2016-07-07T15:07:44Z</time>
      </trkpt>
      <trkpt lat="45.947824856266379" lon="7.382320649921894">
        <ele>2538.02</ele>
        <time>2016-07-07T15:07:56Z</time>
      </trkpt>
      <trkpt lat="45.94780532643199" lon="7.382270945236087">
        <ele>2537.54</ele>
        <time>2016-07-07T15:08:07Z</time>
      </trkpt>
      <trkpt lat="45.947791328653693" lon="7.382248817011714">
        <ele>2537.0599999999999</ele>
        <time>2016-07-07T15:08:09Z</time>
      </trkpt>
      <trkpt lat="45.947709521278739" lon="7.382139014080167">
        <ele>2537.54</ele>
        <time>2016-07-07T15:08:21Z</time>
      </trkpt>
      <trkpt lat="45.947692506015301" lon="7.382119903340936">
        <ele>2538.02</ele>
        <time>2016-07-07T15:08:24Z</time>
      </trkpt>
      <trkpt lat="45.947626791894436" lon="7.382062319666147">
        <ele>2538.5</ele>
        <time>2016-07-07T15:08:35Z</time>
      </trkpt>
      <trkpt lat="45.947606759145856" lon="7.382050501182675">
        <ele>2538.5</ele>
        <time>2016-07-07T15:08:39Z</time>
      </trkpt>
      <trkpt lat="45.947579853236675" lon="7.38194715231657">
        <ele>2538.5</ele>
        <time>2016-07-07T15:08:49Z</time>
      </trkpt>
      <trkpt lat="45.947522772476077" lon="7.381921336054802">
        <ele>2538.5</ele>
        <time>2016-07-07T15:08:59Z</time>
      </trkpt>
      <trkpt lat="45.947494944557548" lon="7.38189484924078">
        <ele>2538.5</ele>
        <time>2016-07-07T15:09:04Z</time>
      </trkpt>
      <trkpt lat="45.947448341175914" lon="7.381816394627094">
        <ele>2538.98</ele>
        <time>2016-07-07T15:09:14Z</time>
      </trkpt>
      <trkpt lat="45.947417076677084" lon="7.381745232269168">
        <ele>2539.46</ele>
        <time>2016-07-07T15:09:21Z</time>
      </trkpt>
      <trkpt lat="45.947368713095784" lon="7.381645487621427">
        <ele>2538.98</ele>
        <time>2016-07-07T15:09:32Z</time>
      </trkpt>
      <trkpt lat="45.947325881570578" lon="7.381569882854819">
        <ele>2539.46</ele>
        <time>2016-07-07T15:09:43Z</time>
      </trkpt>
      <trkpt lat="45.947267962619662" lon="7.381445579230785">
        <ele>2540.9000000000001</ele>
        <time>2016-07-07T15:09:55Z</time>
      </trkpt>
      <trkpt lat="45.947234267368913" lon="7.381389923393726">
        <ele>2540.9000000000001</ele>
        <time>2016-07-07T15:10:06Z</time>
      </trkpt>
      <trkpt lat="45.947192441672087" lon="7.381325382739306">
        <ele>2541.3800000000001</ele>
        <time>2016-07-07T15:10:16Z</time>
      </trkpt>
      <trkpt lat="45.947122536599636" lon="7.381265200674534">
        <ele>2541.3800000000001</ele>
        <time>2016-07-07T15:10:28Z</time>
      </trkpt>
      <trkpt lat="45.947064450010657" lon="7.381214490160346">
        <ele>2541.8600000000001</ele>
        <time>2016-07-07T15:10:41Z</time>
      </trkpt>
      <trkpt lat="45.947046764194965" lon="7.381185404956341">
        <ele>2542.3400000000001</ele>
        <time>2016-07-07T15:10:45Z</time>
      </trkpt>
      <trkpt lat="45.947042908519506" lon="7.381134023889899">
        <ele>2541.8600000000001</ele>
        <time>2016-07-07T15:10:49Z</time>
      </trkpt>
      <trkpt lat="45.946980211883783" lon="7.381038973107934">
        <ele>2542.3400000000001</ele>
        <time>2016-07-07T15:11:01Z</time>
      </trkpt>
      <trkpt lat="45.946938637644053" lon="7.380988178774715">
        <ele>2542.8200000000002</ele>
        <time>2016-07-07T15:11:10Z</time>
      </trkpt>
      <trkpt lat="45.946889687329531" lon="7.380963703617454">
        <ele>2544.27</ele>
        <time>2016-07-07T15:11:20Z</time>
      </trkpt>
      <trkpt lat="45.946869403123856" lon="7.380953058600426">
        <ele>2544.27</ele>
        <time>2016-07-07T15:11:25Z</time>
      </trkpt>
      <trkpt lat="45.946811735630035" lon="7.380880387499929">
        <ele>2543.79</ele>
        <time>2016-07-07T15:11:35Z</time>
      </trkpt>
      <trkpt lat="45.946773430332541" lon="7.380872927606106">
        <ele>2543.3099999999999</ele>
        <time>2016-07-07T15:11:45Z</time>
      </trkpt>
      <trkpt lat="45.946760773658752" lon="7.380889188498259">
        <ele>2542.8200000000002</ele>
        <time>2016-07-07T15:11:57Z</time>
      </trkpt>
      <trkpt lat="45.946698496118188" lon="7.380902348086238">
        <ele>2542.8200000000002</ele>
        <time>2016-07-07T15:12:07Z</time>
      </trkpt>
      <trkpt lat="45.946634206920862" lon="7.380920452997088">
        <ele>2544.27</ele>
        <time>2016-07-07T15:12:19Z</time>
      </trkpt>
      <trkpt lat="45.946582742035389" lon="7.380915004760027">
        <ele>2545.23</ele>
        <time>2016-07-07T15:12:30Z</time>
      </trkpt>
      <trkpt lat="45.946520464494824" lon="7.380877621471882">
        <ele>2544.27</ele>
        <time>2016-07-07T15:12:43Z</time>
      </trkpt>
      <trkpt lat="45.946498168632388" lon="7.380842249840498">
        <ele>2543.79</ele>
        <time>2016-07-07T15:12:51Z</time>
      </trkpt>
      <trkpt lat="45.946479896083474" lon="7.3808110691607">
        <ele>2543.79</ele>
        <time>2016-07-07T15:12:59Z</time>
      </trkpt>
      <trkpt lat="45.946417367085814" lon="7.380759017542005">
        <ele>2545.23</ele>
        <time>2016-07-07T15:13:09Z</time>
      </trkpt>
      <trkpt lat="45.946347210556269" lon="7.380701936781406">
        <ele>2546.6700000000001</ele>
        <time>2016-07-07T15:13:20Z</time>
      </trkpt>
      <trkpt lat="45.946341175585985" lon="7.38069724291563">
        <ele>2546.6700000000001</ele>
        <time>2016-07-07T15:13:21Z</time>
      </trkpt>
      <trkpt lat="45.946295997127891" lon="7.380667654797435">
        <ele>2547.6300000000001</ele>
        <time>2016-07-07T15:13:31Z</time>
      </trkpt>
      <trkpt lat="45.946229360997677" lon="7.380594396963716">
        <ele>2549.5500000000002</ele>
        <time>2016-07-07T15:13:46Z</time>
      </trkpt>
      <trkpt lat="45.946173369884491" lon="7.380500854924321">
        <ele>2551</ele>
        <time>2016-07-07T15:14:01Z</time>
      </trkpt>
      <trkpt lat="45.946129867807031" lon="7.38044654019177">
        <ele>2552.9200000000001</ele>
        <time>2016-07-07T15:14:12Z</time>
      </trkpt>
      <trkpt lat="45.946097262203693" lon="7.380391051992774">
        <ele>2552.9200000000001</ele>
        <time>2016-07-07T15:14:24Z</time>
      </trkpt>
      <trkpt lat="45.946110086515546" lon="7.380404630675912">
        <ele>2553.8800000000001</ele>
        <time>2016-07-07T15:14:37Z</time>
      </trkpt>
      <trkpt lat="45.946060968562961" lon="7.380384597927332">
        <ele>2552.9200000000001</ele>
        <time>2016-07-07T15:14:50Z</time>
      </trkpt>
      <trkpt lat="45.946028614416718" lon="7.380324834957719">
        <ele>2552.9200000000001</ele>
        <time>2016-07-07T15:15:00Z</time>
      </trkpt>
      <trkpt lat="45.945963989943266" lon="7.380254594609141">
        <ele>2551.48</ele>
        <time>2016-07-07T15:15:15Z</time>
      </trkpt>
      <trkpt lat="45.945918392390013" lon="7.380255935713649">
        <ele>2551.48</ele>
        <time>2016-07-07T15:15:23Z</time>
      </trkpt>
      <trkpt lat="45.945840943604708" lon="7.38034738227725">
        <ele>2548.1100000000001</ele>
        <time>2016-07-07T15:15:34Z</time>
      </trkpt>
      <trkpt lat="45.945737930014729" lon="7.380406558513641">
        <ele>2547.6300000000001</ele>
        <time>2016-07-07T15:15:47Z</time>
      </trkpt>
      <trkpt lat="45.945692332461476" lon="7.380449641495943">
        <ele>2548.5900000000001</ele>
        <time>2016-07-07T15:15:57Z</time>
      </trkpt>
      <trkpt lat="45.945634581148624" lon="7.380521139129996">
        <ele>2549.0700000000002</ele>
        <time>2016-07-07T15:16:08Z</time>
      </trkpt>
      <trkpt lat="45.945563670247793" lon="7.380559779703617">
        <ele>2550.5100000000002</ele>
        <time>2016-07-07T15:16:18Z</time>
      </trkpt>
      <trkpt lat="45.945539278909564" lon="7.38056824542582">
        <ele>2550.5100000000002</ele>
        <time>2016-07-07T15:16:21Z</time>
      </trkpt>
      <trkpt lat="45.945461159572005" lon="7.380593055859208">
        <ele>2551</ele>
        <time>2016-07-07T15:16:32Z</time>
      </trkpt>
      <trkpt lat="45.945386728271842" lon="7.380614010617137">
        <ele>2551.96</ele>
        <time>2016-07-07T15:16:42Z</time>
      </trkpt>
      <trkpt lat="45.945376167073846" lon="7.380625074729323">
        <ele>2552.4400000000001</ele>
        <time>2016-07-07T15:16:44Z</time>
      </trkpt>
      <trkpt lat="45.945303663611412" lon="7.380702774971724">
        <ele>2553.4000000000001</ele>
        <time>2016-07-07T15:16:56Z</time>
      </trkpt>
      <trkpt lat="45.945241888985038" lon="7.380737056955695">
        <ele>2554.3600000000001</ele>
        <time>2016-07-07T15:17:06Z</time>
      </trkpt>
      <trkpt lat="45.945193357765675" lon="7.380766225978732">
        <ele>2555.8000000000002</ele>
        <time>2016-07-07T15:17:16Z</time>
      </trkpt>
      <trkpt lat="45.945144323632121" lon="7.380770584568381">
        <ele>2556.2800000000002</ele>
        <time>2016-07-07T15:17:27Z</time>
      </trkpt>
      <trkpt lat="45.945123871788383" lon="7.380779469385743">
        <ele>2556.2800000000002</ele>
        <time>2016-07-07T15:17:36Z</time>
      </trkpt>
      <trkpt lat="45.945100821554661" lon="7.380793550983071">
        <ele>2554.8400000000001</ele>
        <time>2016-07-07T15:17:48Z</time>
      </trkpt>
      <trkpt lat="45.945096714422107" lon="7.380794389173389">
        <ele>2554.8400000000001</ele>
        <time>2016-07-07T15:17:49Z</time>
      </trkpt>
      <trkpt lat="45.945019265636802" lon="7.380728255957365">
        <ele>2554.3600000000001</ele>
        <time>2016-07-07T15:17:58Z</time>
      </trkpt>
      <trkpt lat="45.944949192926288" lon="7.380686346441507">
        <ele>2554.3600000000001</ele>
        <time>2016-07-07T15:18:06Z</time>
      </trkpt>
      <trkpt lat="45.944848861545324" lon="7.380680730566382">
        <ele>2555.3200000000002</ele>
        <time>2016-07-07T15:18:17Z</time>
      </trkpt>
      <trkpt lat="45.944767808541656" lon="7.380637899041176">
        <ele>2553.8800000000001</ele>
        <time>2016-07-07T15:18:26Z</time>
      </trkpt>
      <trkpt lat="45.944738974794745" lon="7.380617614835501">
        <ele>2554.3600000000001</ele>
        <time>2016-07-07T15:18:30Z</time>
      </trkpt>
      <trkpt lat="45.944700501859188" lon="7.380570340901613">
        <ele>2554.3600000000001</ele>
        <time>2016-07-07T15:18:35Z</time>
      </trkpt>
      <trkpt lat="45.944605031982064" lon="7.380539579316974">
        <ele>2555.3200000000002</ele>
        <time>2016-07-07T15:18:46Z</time>
      </trkpt>
      <trkpt lat="45.944516099989414" lon="7.380510997027159">
        <ele>2556.2800000000002</ele>
        <time>2016-07-07T15:18:58Z</time>
      </trkpt>
      <trkpt lat="45.944437980651855" lon="7.380514685064554">
        <ele>2556.7600000000002</ele>
        <time>2016-07-07T15:19:08Z</time>
      </trkpt>
      <trkpt lat="45.944365728646517" lon="7.380486354231834">
        <ele>2556.7600000000002</ele>
        <time>2016-07-07T15:19:18Z</time>
      </trkpt>
      <trkpt lat="45.94433949328959" lon="7.380471602082253">
        <ele>2556.7600000000002</ele>
        <time>2016-07-07T15:19:28Z</time>
      </trkpt>
      <trkpt lat="45.944320047274232" lon="7.380502698943019">
        <ele>2555.8000000000002</ele>
        <time>2016-07-07T15:19:41Z</time>
      </trkpt>
      <trkpt lat="45.944303032010794" lon="7.380524910986424">
        <ele>2555.3200000000002</ele>
        <time>2016-07-07T15:19:44Z</time>
      </trkpt>
      <trkpt lat="45.944226672872901" lon="7.380542680621147">
        <ele>2553.8800000000001</ele>
        <time>2016-07-07T15:19:53Z</time>
      </trkpt>
      <trkpt lat="45.944216363132" lon="7.380543434992433">
        <ele>2553.8800000000001</ele>
        <time>2016-07-07T15:19:54Z</time>
      </trkpt>
      <trkpt lat="45.944177135825157" lon="7.380547290667892">
        <ele>2553.4000000000001</ele>
        <time>2016-07-07T15:19:58Z</time>
      </trkpt>
      <trkpt lat="45.944094406440854" lon="7.380577716976404">
        <ele>2550.5100000000002</ele>
        <time>2016-07-07T15:20:09Z</time>
      </trkpt>
      <trkpt lat="45.944063812494278" lon="7.380598168820143">
        <ele>2548.1100000000001</ele>
        <time>2016-07-07T15:20:15Z</time>
      </trkpt>
      <trkpt lat="45.943983513861895" lon="7.380684670060873">
        <ele>2547.1500000000001</ele>
        <time>2016-07-07T15:20:25Z</time>
      </trkpt>
      <trkpt lat="45.943911261856556" lon="7.380694141611457">
        <ele>2545.71</ele>
        <time>2016-07-07T15:20:36Z</time>
      </trkpt>
      <trkpt lat="45.943871112540364" lon="7.380697159096599">
        <ele>2544.27</ele>
        <time>2016-07-07T15:20:41Z</time>
      </trkpt>
      <trkpt lat="45.943753849714994" lon="7.380707385018468">
        <ele>2543.3099999999999</ele>
        <time>2016-07-07T15:20:53Z</time>
      </trkpt>
      <trkpt lat="45.9436637442559" lon="7.380700595676899">
        <ele>2541.8600000000001</ele>
        <time>2016-07-07T15:21:05Z</time>
      </trkpt>
      <trkpt lat="45.943572968244553" lon="7.380747115239501">
        <ele>2539.9400000000001</ele>
        <time>2016-07-07T15:21:18Z</time>
      </trkpt>
      <trkpt lat="45.943483365699649" lon="7.380728591233492">
        <ele>2538.5</ele>
        <time>2016-07-07T15:21:29Z</time>
      </trkpt>
      <trkpt lat="45.94346190802753" lon="7.380700511857867">
        <ele>2537.0599999999999</ele>
        <time>2016-07-07T15:21:33Z</time>
      </trkpt>
      <trkpt lat="45.943449418991804" lon="7.380623985081911">
        <ele>2535.6100000000001</ele>
        <time>2016-07-07T15:21:44Z</time>
      </trkpt>
      <trkpt lat="45.943425865843892" lon="7.380562964826822">
        <ele>2534.1700000000001</ele>
        <time>2016-07-07T15:21:53Z</time>
      </trkpt>
      <trkpt lat="45.943409521132708" lon="7.380535136908293">
        <ele>2533.21</ele>
        <time>2016-07-07T15:22:06Z</time>
      </trkpt>
      <trkpt lat="45.943374903872609" lon="7.380538322031498">
        <ele>2534.1700000000001</ele>
        <time>2016-07-07T15:22:18Z</time>
      </trkpt>
      <trkpt lat="45.943364761769772" lon="7.380525330081582">
        <ele>2532.73</ele>
        <time>2016-07-07T15:22:21Z</time>
      </trkpt>
      <trkpt lat="45.943324025720358" lon="7.380509488284588">
        <ele>2530.3299999999999</ele>
        <time>2016-07-07T15:22:31Z</time>
      </trkpt>
      <trkpt lat="45.943246325477958" lon="7.380600515753031">
        <ele>2526.48</ele>
        <time>2016-07-07T15:22:41Z</time>
      </trkpt>
      <trkpt lat="45.943193519487977" lon="7.380709229037166">
        <ele>2525.04</ele>
        <time>2016-07-07T15:22:52Z</time>
      </trkpt>
      <trkpt lat="45.943151107057929" lon="7.380743259564042">
        <ele>2523.5999999999999</ele>
        <time>2016-07-07T15:23:03Z</time>
      </trkpt>
      <trkpt lat="45.943094780668616" lon="7.380828084424138">
        <ele>2520.71</ele>
        <time>2016-07-07T15:23:13Z</time>
      </trkpt>
      <trkpt lat="45.943076927214861" lon="7.380843004211783">
        <ele>2519.75</ele>
        <time>2016-07-07T15:23:15Z</time>
      </trkpt>
      <trkpt lat="45.943012638017535" lon="7.380904192104936">
        <ele>2517.3499999999999</ele>
        <time>2016-07-07T15:23:25Z</time>
      </trkpt>
      <trkpt lat="45.942958826199174" lon="7.380940653383732">
        <ele>2516.3899999999999</ele>
        <time>2016-07-07T15:23:34Z</time>
      </trkpt>
      <trkpt lat="45.942893112078309" lon="7.380969235673547">
        <ele>2515.4299999999998</ele>
        <time>2016-07-07T15:23:42Z</time>
      </trkpt>
      <trkpt lat="45.942862937226892" lon="7.380972085520625">
        <ele>2514.9499999999998</ele>
        <time>2016-07-07T15:23:46Z</time>
      </trkpt>
      <trkpt lat="45.942784314975142" lon="7.380953729152679">
        <ele>2513.98</ele>
        <time>2016-07-07T15:23:55Z</time>
      </trkpt>
      <trkpt lat="45.942741986364126" lon="7.380952974781394">
        <ele>2513.5</ele>
        <time>2016-07-07T15:23:59Z</time>
      </trkpt>
      <trkpt lat="45.942666800692677" lon="7.380888853222132">
        <ele>2513.02</ele>
        <time>2016-07-07T15:24:08Z</time>
      </trkpt>
      <trkpt lat="45.942567810416222" lon="7.380861109122634">
        <ele>2512.54</ele>
        <time>2016-07-07T15:24:18Z</time>
      </trkpt>
      <trkpt lat="45.942546185106039" lon="7.380849290639162">
        <ele>2512.54</ele>
        <time>2016-07-07T15:24:21Z</time>
      </trkpt>
      <trkpt lat="45.94251005910337" lon="7.380842501297593">
        <ele>2512.0599999999999</ele>
        <time>2016-07-07T15:24:25Z</time>
      </trkpt>
      <trkpt lat="45.942446021363139" lon="7.380756670609117">
        <ele>2509.1799999999998</ele>
        <time>2016-07-07T15:24:37Z</time>
      </trkpt>
      <trkpt lat="45.942418025806546" lon="7.380726831033826">
        <ele>2509.1799999999998</ele>
        <time>2016-07-07T15:24:42Z</time>
      </trkpt>
      <trkpt lat="45.942335966974497" lon="7.380715431645513">
        <ele>2507.7399999999998</ele>
        <time>2016-07-07T15:24:51Z</time>
      </trkpt>
      <trkpt lat="45.942235635593534" lon="7.380706714466214">
        <ele>2505.8099999999999</ele>
        <time>2016-07-07T15:25:03Z</time>
      </trkpt>
      <trkpt lat="45.942133795469999" lon="7.380748791620135">
        <ele>2503.8899999999999</ele>
        <time>2016-07-07T15:25:15Z</time>
      </trkpt>
      <trkpt lat="45.942067997530103" lon="7.380749797448516">
        <ele>2501.9699999999998</ele>
        <time>2016-07-07T15:25:24Z</time>
      </trkpt>
      <trkpt lat="45.942031871527433" lon="7.380716186016798">
        <ele>2500.5300000000002</ele>
        <time>2016-07-07T15:25:31Z</time>
      </trkpt>
      <trkpt lat="45.941990045830607" lon="7.38070554099977">
        <ele>2500.0500000000002</ele>
        <time>2016-07-07T15:25:35Z</time>
      </trkpt>
      <trkpt lat="45.941920224577188" lon="7.380711575970054">
        <ele>2498.5999999999999</ele>
        <time>2016-07-07T15:25:43Z</time>
      </trkpt>
      <trkpt lat="45.94180011190474" lon="7.380686597898603">
        <ele>2496.6799999999998</ele>
        <time>2016-07-07T15:25:54Z</time>
      </trkpt>
      <trkpt lat="45.941721322014928" lon="7.380686765536666">
        <ele>2496.1999999999998</ele>
        <time>2016-07-07T15:26:03Z</time>
      </trkpt>
      <trkpt lat="45.941604059189558" lon="7.380675030872226">
        <ele>2495.2399999999998</ele>
        <time>2016-07-07T15:26:14Z</time>
      </trkpt>
      <trkpt lat="45.941516635939479" lon="7.380662458017469">
        <ele>2494.2800000000002</ele>
        <time>2016-07-07T15:26:24Z</time>
      </trkpt>
      <trkpt lat="45.941482437774539" lon="7.380679557099938">
        <ele>2493.3200000000002</ele>
        <time>2016-07-07T15:26:28Z</time>
      </trkpt>
      <trkpt lat="45.941416388377547" lon="7.380691962316632">
        <ele>2493.3200000000002</ele>
        <time>2016-07-07T15:26:39Z</time>
      </trkpt>
      <trkpt lat="45.941417226567864" lon="7.380703696981072">
        <ele>2492.8400000000001</ele>
        <time>2016-07-07T15:26:42Z</time>
      </trkpt>
      <trkpt lat="45.941395265981555" lon="7.380684670060873">
        <ele>2492.3600000000001</ele>
        <time>2016-07-07T15:26:45Z</time>
      </trkpt>
      <trkpt lat="45.941282613202929" lon="7.380685005337">
        <ele>2492.3600000000001</ele>
        <time>2016-07-07T15:26:56Z</time>
      </trkpt>
      <trkpt lat="45.941235506907105" lon="7.380699003115296">
        <ele>2491.8699999999999</ele>
        <time>2016-07-07T15:27:00Z</time>
      </trkpt>
      <trkpt lat="45.941166440024972" lon="7.380755664780736">
        <ele>2491.8699999999999</ele>
        <time>2016-07-07T15:27:09Z</time>
      </trkpt>
      <trkpt lat="45.941124027594924" lon="7.380741164088249">
        <ele>2491.8699999999999</ele>
        <time>2016-07-07T15:27:13Z</time>
      </trkpt>
      <trkpt lat="45.941017996519804" lon="7.380726579576731">
        <ele>2491.3899999999999</ele>
        <time>2016-07-07T15:27:23Z</time>
      </trkpt>
      <trkpt lat="45.940949432551861" lon="7.380731776356697">
        <ele>2489.4699999999998</ele>
        <time>2016-07-07T15:27:33Z</time>
      </trkpt>
      <trkpt lat="45.940937027335167" lon="7.380725741386414">
        <ele>2489.4699999999998</ele>
        <time>2016-07-07T15:27:34Z</time>
      </trkpt>
      <trkpt lat="45.940899141132832" lon="7.38069917075336">
        <ele>2492.3600000000001</ele>
        <time>2016-07-07T15:27:39Z</time>
      </trkpt>
      <trkpt lat="45.940819932147861" lon="7.380690285935998">
        <ele>2494.2800000000002</ele>
        <time>2016-07-07T15:27:51Z</time>
      </trkpt>
      <trkpt lat="45.940777435898781" lon="7.380701769143343">
        <ele>2493.3200000000002</ele>
        <time>2016-07-07T15:27:56Z</time>
      </trkpt>
      <trkpt lat="45.940672913566232" lon="7.380717191845179">
        <ele>2492.3600000000001</ele>
        <time>2016-07-07T15:28:07Z</time>
      </trkpt>
      <trkpt lat="45.940634775906801" lon="7.380737559869885">
        <ele>2491.8699999999999</ele>
        <time>2016-07-07T15:28:12Z</time>
      </trkpt>
      <trkpt lat="45.940622203052044" lon="7.380755748599768">
        <ele>2492.3600000000001</ele>
        <time>2016-07-07T15:28:14Z</time>
      </trkpt>
      <trkpt lat="45.940573671832681" lon="7.380779134109616">
        <ele>2491.8699999999999</ele>
        <time>2016-07-07T15:28:20Z</time>
      </trkpt>
      <trkpt lat="45.940518770366907" lon="7.380799921229482">
        <ele>2489.4699999999998</ele>
        <time>2016-07-07T15:28:29Z</time>
      </trkpt>
      <trkpt lat="45.940438555553555" lon="7.380897905677557">
        <ele>2486.5900000000001</ele>
        <time>2016-07-07T15:28:39Z</time>
      </trkpt>
      <trkpt lat="45.940297655761242" lon="7.380920117720962">
        <ele>2484.6599999999999</ele>
        <time>2016-07-07T15:28:52Z</time>
      </trkpt>
      <trkpt lat="45.94029170460999" lon="7.38092053681612">
        <ele>2484.6599999999999</ele>
        <time>2016-07-07T15:28:53Z</time>
      </trkpt>
      <trkpt lat="45.940162120386958" lon="7.38091223873198">
        <ele>2483.6999999999998</ele>
        <time>2016-07-07T15:29:05Z</time>
      </trkpt>
      <trkpt lat="45.940088862553239" lon="7.380922213196755">
        <ele>2484.1799999999998</ele>
        <time>2016-07-07T15:29:13Z</time>
      </trkpt>
      <trkpt lat="45.940044773742557" lon="7.380900839343667">
        <ele>2483.2199999999998</ele>
        <time>2016-07-07T15:29:17Z</time>
      </trkpt>
      <trkpt lat="45.939953494817019" lon="7.380899917334318">
        <ele>2483.6999999999998</ele>
        <time>2016-07-07T15:29:27Z</time>
      </trkpt>
      <trkpt lat="45.939921559765935" lon="7.380920704454184">
        <ele>2483.6999999999998</ele>
        <time>2016-07-07T15:29:31Z</time>
      </trkpt>
      <trkpt lat="45.939820138737559" lon="7.38100066781044">
        <ele>2484.6599999999999</ele>
        <time>2016-07-07T15:29:43Z</time>
      </trkpt>
      <trkpt lat="45.939767165109515" lon="7.381017850711942">
        <ele>2485.1500000000001</ele>
        <time>2016-07-07T15:29:49Z</time>
      </trkpt>
      <trkpt lat="45.93970388174057" lon="7.381057245656848">
        <ele>2485.6300000000001</ele>
        <time>2016-07-07T15:29:59Z</time>
      </trkpt>
      <trkpt lat="45.939693907275796" lon="7.381059592589736">
        <ele>2485.6300000000001</ele>
        <time>2016-07-07T15:30:01Z</time>
      </trkpt>
      <trkpt lat="45.939663732424378" lon="7.381076775491238">
        <ele>2485.1500000000001</ele>
        <time>2016-07-07T15:30:05Z</time>
      </trkpt>
      <trkpt lat="45.939579578116536" lon="7.381077529862523">
        <ele>2483.2199999999998</ele>
        <time>2016-07-07T15:30:16Z</time>
      </trkpt>
      <trkpt lat="45.939503470435739" lon="7.381100915372372">
        <ele>2481.7800000000002</ele>
        <time>2016-07-07T15:30:26Z</time>
      </trkpt>
      <trkpt lat="45.939443539828062" lon="7.381075099110603">
        <ele>2481.3000000000002</ele>
        <time>2016-07-07T15:30:32Z</time>
      </trkpt>
      <trkpt lat="45.939376149326563" lon="7.381071578711271">
        <ele>2480.8200000000002</ele>
        <time>2016-07-07T15:30:39Z</time>
      </trkpt>
      <trkpt lat="45.939346477389336" lon="7.381074763834477">
        <ele>2480.8200000000002</ele>
        <time>2016-07-07T15:30:42Z</time>
      </trkpt>
      <trkpt lat="45.939294509589672" lon="7.381030758842826">
        <ele>2480.3400000000001</ele>
        <time>2016-07-07T15:30:49Z</time>
      </trkpt>
      <trkpt lat="45.939256371930242" lon="7.380824228748679">
        <ele>2477.9400000000001</ele>
        <time>2016-07-07T15:31:03Z</time>
      </trkpt>
      <trkpt lat="45.939225191250443" lon="7.380747366696596">
        <ele>2476.9699999999998</ele>
        <time>2016-07-07T15:31:14Z</time>
      </trkpt>
    </trkseg>
  </trk>

  <trk>
    <name>san-bernardo-bourg-san-pierre2016-07-04</name>
    <extensions>
      <gpxx:TrackExtension>
        <gpxx:DisplayColor>Yellow</gpxx:DisplayColor>
      </gpxx:TrackExtension>
    </extensions>
    <trkseg>
      <trkpt lat="45.868914686143398" lon="7.170852273702622" />
      <trkpt lat="45.868927258998156" lon="7.171036591753364" />
      <trkpt lat="45.868964977562428" lon="7.171248570084572" />
      <trkpt lat="45.869015268981457" lon="7.171396007761359" />
      <trkpt lat="45.869071930646896" lon="7.171635646373034" />
      <trkpt lat="45.869166227057576" lon="7.171746203675866" />
      <trkpt lat="45.869235377758741" lon="7.171875284984708" />
      <trkpt lat="45.869298242032528" lon="7.172004282474518" />
      <trkpt lat="45.869361106306314" lon="7.172124059870839" />
      <trkpt lat="45.869380049407482" lon="7.172179380431771" />
      <trkpt lat="45.869398908689618" lon="7.172382138669491" />
      <trkpt lat="45.869392622262239" lon="7.172603337094188" />
      <trkpt lat="45.869398908689618" lon="7.172852195799351" />
      <trkpt lat="45.86943662725389" lon="7.172944396734238" />
      <trkpt lat="45.869512064382434" lon="7.173045733943582" />
      <trkpt lat="45.869562355801463" lon="7.173193171620369" />
      <trkpt lat="45.869663022458553" lon="7.173276152461767" />
      <trkpt lat="45.869776178151369" lon="7.173331473022699" />
      <trkpt lat="45.869851615279913" lon="7.173395929858089" />
      <trkpt lat="45.869927052408457" lon="7.173442030325532" />
      <trkpt lat="45.870002573356032" lon="7.173534231260419" />
      <trkpt lat="45.870084296911955" lon="7.173607908189297" />
      <trkpt lat="45.870159734040499" lon="7.173690889030695" />
      <trkpt lat="45.870191166177392" lon="7.173746209591627" />
      <trkpt lat="45.870216311886907" lon="7.173930527642369" />
      <trkpt lat="45.870316978543997" lon="7.174041084945202" />
      <trkpt lat="45.870423847809434" lon="7.174188606441021" />
      <trkpt lat="45.870492998510599" lon="7.174280723556876" />
      <trkpt lat="45.870555946603417" lon="7.17445582151413" />
      <trkpt lat="45.870675388723612" lon="7.174649359658361" />
      <trkpt lat="45.870769685134292" lon="7.174806101247668" />
      <trkpt lat="45.870851492509246" lon="7.174962759017944" />
      <trkpt lat="45.870983507484198" lon="7.175082536414266" />
      <trkpt lat="45.871085347607732" lon="7.175175156444311" />
      <trkpt lat="45.871211076155305" lon="7.175267357379198" />
      <trkpt lat="45.871343174949288" lon="7.175377914682031" />
      <trkpt lat="45.871456330642104" lon="7.175470115616918" />
      <trkpt lat="45.871663866564631" lon="7.175506995990872" />
      <trkpt lat="45.871783308684826" lon="7.175341118127108" />
      <trkpt lat="45.871896464377642" lon="7.175239697098732" />
      <trkpt lat="45.872015990316868" lon="7.175083039328456" />
      <trkpt lat="45.871990844607353" lon="7.174861840903759" />
      <trkpt lat="45.871990844607353" lon="7.174612982198596" />
      <trkpt lat="45.872129146009684" lon="7.174576101824641" />
      <trkpt lat="45.872311536222696" lon="7.174548441544175" />
      <trkpt lat="45.872418405488133" lon="7.174640642479062" />
      <trkpt lat="45.872556790709496" lon="7.174797300249338" />
      <trkpt lat="45.872732810676098" lon="7.174824960529804" />
      <trkpt lat="45.87287169881165" lon="7.174769639968872" />
      <trkpt lat="45.873022573068738" lon="7.174668302759528" />
      <trkpt lat="45.873129526153207" lon="7.174640642479062" />
      <trkpt lat="45.873286686837673" lon="7.17458532191813" />
      <trkpt lat="45.873399926349521" lon="7.17451156117022" />
      <trkpt lat="45.873469077050686" lon="7.174373343586922" />
      <trkpt lat="45.873477375134826" lon="7.174342330545187">
        <ele>2532.73</ele>
        <time>2016-07-04T07:14:50Z</time>
      </trkpt>
      <trkpt lat="45.873488187789917" lon="7.17434199526906">
        <ele>2542.8200000000002</ele>
        <time>2016-07-04T07:14:51Z</time>
      </trkpt>
      <trkpt lat="45.873507633805275" lon="7.174333529546857">
        <ele>2542.3400000000001</ele>
        <time>2016-07-04T07:14:53Z</time>
      </trkpt>
      <trkpt lat="45.873591704294086" lon="7.174365883693099">
        <ele>2542.8200000000002</ele>
        <time>2016-07-04T07:15:05Z</time>
      </trkpt>
      <trkpt lat="45.873638726770878" lon="7.174397064372897">
        <ele>2543.79</ele>
        <time>2016-07-04T07:15:14Z</time>
      </trkpt>
      <trkpt lat="45.873647695407271" lon="7.174381474032998">
        <ele>2544.27</ele>
        <time>2016-07-04T07:15:23Z</time>
      </trkpt>
      <trkpt lat="45.873684408143163" lon="7.174431849271059">
        <ele>2545.23</ele>
        <time>2016-07-04T07:15:33Z</time>
      </trkpt>
      <trkpt lat="45.873701758682728" lon="7.174485744908452">
        <ele>2546.6700000000001</ele>
        <time>2016-07-04T07:15:43Z</time>
      </trkpt>
      <trkpt lat="45.873733190819621" lon="7.174530839547515">
        <ele>2547.6300000000001</ele>
        <time>2016-07-04T07:15:52Z</time>
      </trkpt>
      <trkpt lat="45.873763198032975" lon="7.174521367996931">
        <ele>2548.5900000000001</ele>
        <time>2016-07-04T07:16:03Z</time>
      </trkpt>
      <trkpt lat="45.873781638219953" lon="7.174503766000271">
        <ele>2549.0700000000002</ele>
        <time>2016-07-04T07:16:13Z</time>
      </trkpt>
      <trkpt lat="45.873801168054342" lon="7.174457916989923">
        <ele>2549.5500000000002</ele>
        <time>2016-07-04T07:16:21Z</time>
      </trkpt>
      <trkpt lat="45.873815165832639" lon="7.174451965838671">
        <ele>2550.5100000000002</ele>
        <time>2016-07-04T07:16:30Z</time>
      </trkpt>
      <trkpt lat="45.873827068135142" lon="7.174422964453697">
        <ele>2552.4400000000001</ele>
        <time>2016-07-04T07:16:40Z</time>
      </trkpt>
      <trkpt lat="45.873879035934806" lon="7.174469148740172">
        <ele>2554.3600000000001</ele>
        <time>2016-07-04T07:16:51Z</time>
      </trkpt>
      <trkpt lat="45.873902002349496" lon="7.174529582262039">
        <ele>2554.8400000000001</ele>
        <time>2016-07-04T07:17:01Z</time>
      </trkpt>
      <trkpt lat="45.873895213007927" lon="7.174502508714795">
        <ele>2555.3200000000002</ele>
        <time>2016-07-04T07:17:22Z</time>
      </trkpt>
      <trkpt lat="45.873899236321449" lon="7.174496557563543">
        <ele>2554.8400000000001</ele>
        <time>2016-07-04T07:17:34Z</time>
      </trkpt>
      <trkpt lat="45.873934775590897" lon="7.174495970830321">
        <ele>2555.3200000000002</ele>
        <time>2016-07-04T07:17:48Z</time>
      </trkpt>
      <trkpt lat="45.873959083110094" lon="7.174490690231323">
        <ele>2556.2800000000002</ele>
        <time>2016-07-04T07:17:53Z</time>
      </trkpt>
      <trkpt lat="45.874007614329457" lon="7.174547268077731">
        <ele>2557.2399999999998</ele>
        <time>2016-07-04T07:18:04Z</time>
      </trkpt>
      <trkpt lat="45.874036364257336" lon="7.174541233107448">
        <ele>2557.2399999999998</ele>
        <time>2016-07-04T07:18:20Z</time>
      </trkpt>
      <trkpt lat="45.874098306521773" lon="7.17455456033349">
        <ele>2559.1700000000001</ele>
        <time>2016-07-04T07:18:31Z</time>
      </trkpt>
      <trkpt lat="45.874114148318768" lon="7.174551459029317">
        <ele>2559.1700000000001</ele>
        <time>2016-07-04T07:18:34Z</time>
      </trkpt>
      <trkpt lat="45.874191261827946" lon="7.174605019390583">
        <ele>2560.1300000000001</ele>
        <time>2016-07-04T07:18:45Z</time>
      </trkpt>
      <trkpt lat="45.874257311224937" lon="7.174622369930148">
        <ele>2561.0900000000001</ele>
        <time>2016-07-04T07:18:54Z</time>
      </trkpt>
      <trkpt lat="45.874336520209908" lon="7.174686407670379">
        <ele>2562.0500000000002</ele>
        <time>2016-07-04T07:19:06Z</time>
      </trkpt>
      <trkpt lat="45.874362420290709" lon="7.174692526459694">
        <ele>2561.5700000000002</ele>
        <time>2016-07-04T07:19:10Z</time>
      </trkpt>
      <trkpt lat="45.874450346454978" lon="7.174687078222632">
        <ele>2561.5700000000002</ele>
        <time>2016-07-04T07:19:21Z</time>
      </trkpt>
      <trkpt lat="45.874518156051636" lon="7.174660339951515">
        <ele>2563.0100000000002</ele>
        <time>2016-07-04T07:19:32Z</time>
      </trkpt>
      <trkpt lat="45.874567776918411" lon="7.174656903371215">
        <ele>2564.4499999999998</ele>
        <time>2016-07-04T07:19:40Z</time>
      </trkpt>
      <trkpt lat="45.874572806060314" lon="7.174614993855357">
        <ele>2565.9000000000001</ele>
        <time>2016-07-04T07:19:50Z</time>
      </trkpt>
      <trkpt lat="45.874532489106059" lon="7.174541736021638">
        <ele>2567.3400000000001</ele>
        <time>2016-07-04T07:20:01Z</time>
      </trkpt>
      <trkpt lat="45.874506421387196" lon="7.174441069364548">
        <ele>2568.7800000000002</ele>
        <time>2016-07-04T07:20:16Z</time>
      </trkpt>
      <trkpt lat="45.87450223043561" lon="7.174416426569223">
        <ele>2568.7800000000002</ele>
        <time>2016-07-04T07:20:19Z</time>
      </trkpt>
      <trkpt lat="45.874526454135776" lon="7.174417767673731">
        <ele>2571.1799999999998</ele>
        <time>2016-07-04T07:20:23Z</time>
      </trkpt>
      <trkpt lat="45.874580685049295" lon="7.174444422125816">
        <ele>2571.6599999999999</ele>
        <time>2016-07-04T07:20:34Z</time>
      </trkpt>
      <trkpt lat="45.874655870720744" lon="7.174488427117467">
        <ele>2573.5900000000001</ele>
        <time>2016-07-04T07:20:47Z</time>
      </trkpt>
      <trkpt lat="45.874721333384514" lon="7.174501167610288">
        <ele>2573.5900000000001</ele>
        <time>2016-07-04T07:20:57Z</time>
      </trkpt>
      <trkpt lat="45.874763913452625" lon="7.174500077962875">
        <ele>2575.0300000000002</ele>
        <time>2016-07-04T07:21:07Z</time>
      </trkpt>
      <trkpt lat="45.874808169901371" lon="7.174484319984913">
        <ele>2576.4699999999998</ele>
        <time>2016-07-04T07:21:15Z</time>
      </trkpt>
      <trkpt lat="45.874899700284004" lon="7.174492282792926">
        <ele>2577.9099999999999</ele>
        <time>2016-07-04T07:21:30Z</time>
      </trkpt>
      <trkpt lat="45.874963570386171" lon="7.17449001967907">
        <ele>2578.8699999999999</ele>
        <time>2016-07-04T07:21:39Z</time>
      </trkpt>
      <trkpt lat="45.874993409961462" lon="7.174492031335831">
        <ele>2579.8400000000001</ele>
        <time>2016-07-04T07:21:45Z</time>
      </trkpt>
      <trkpt lat="45.875111594796181" lon="7.174492534250021">
        <ele>2578.3899999999999</ele>
        <time>2016-07-04T07:21:59Z</time>
      </trkpt>
      <trkpt lat="45.875130956992507" lon="7.174488678574562">
        <ele>2578.3899999999999</ele>
        <time>2016-07-04T07:22:01Z</time>
      </trkpt>
      <trkpt lat="45.875192312523723" lon="7.174470406025648">
        <ele>2578.3899999999999</ele>
        <time>2016-07-04T07:22:08Z</time>
      </trkpt>
      <trkpt lat="45.875225504860282" lon="7.174461940303445">
        <ele>2578.3899999999999</ele>
        <time>2016-07-04T07:22:11Z</time>
      </trkpt>
      <trkpt lat="45.875261127948761" lon="7.174444841220975">
        <ele>2578.3899999999999</ele>
        <time>2016-07-04T07:22:16Z</time>
      </trkpt>
      <trkpt lat="45.875300019979477" lon="7.174419024959207">
        <ele>2577.9099999999999</ele>
        <time>2016-07-04T07:22:21Z</time>
      </trkpt>
      <trkpt lat="45.875392975285649" lon="7.174365380778909">
        <ele>2577.4299999999998</ele>
        <time>2016-07-04T07:22:33Z</time>
      </trkpt>
      <trkpt lat="45.875479895621538" lon="7.174360100179911">
        <ele>2578.3899999999999</ele>
        <time>2016-07-04T07:22:43Z</time>
      </trkpt>
      <trkpt lat="45.875563463196158" lon="7.174383485689759">
        <ele>2578.8699999999999</ele>
        <time>2016-07-04T07:22:54Z</time>
      </trkpt>
      <trkpt lat="45.875654239207506" lon="7.174385832622647">
        <ele>2578.8699999999999</ele>
        <time>2016-07-04T07:23:06Z</time>
      </trkpt>
      <trkpt lat="45.87575264275074" lon="7.174399495124817">
        <ele>2579.8400000000001</ele>
        <time>2016-07-04T07:23:18Z</time>
      </trkpt>
      <trkpt lat="45.875794384628534" lon="7.174383401870728">
        <ele>2581.2800000000002</ele>
        <time>2016-07-04T07:23:29Z</time>
      </trkpt>
      <trkpt lat="45.875807292759418" lon="7.174371918663383">
        <ele>2582.2399999999998</ele>
        <time>2016-07-04T07:23:40Z</time>
      </trkpt>
      <trkpt lat="45.875849034637213" lon="7.17438499443233">
        <ele>2582.7199999999998</ele>
        <time>2016-07-04T07:23:48Z</time>
      </trkpt>
      <trkpt lat="45.875927153974771" lon="7.174457497894764">
        <ele>2581.7600000000002</ele>
        <time>2016-07-04T07:23:58Z</time>
      </trkpt>
      <trkpt lat="45.875988258048892" lon="7.174534779042006">
        <ele>2581.7600000000002</ele>
        <time>2016-07-04T07:24:08Z</time>
      </trkpt>
      <trkpt lat="45.876011559739709" lon="7.174553973600268">
        <ele>2582.2399999999998</ele>
        <time>2016-07-04T07:24:12Z</time>
      </trkpt>
      <trkpt lat="45.876029580831528" lon="7.174564367160201">
        <ele>2582.7199999999998</ele>
        <time>2016-07-04T07:24:15Z</time>
      </trkpt>
      <trkpt lat="45.876076854765415" lon="7.174628153443337">
        <ele>2583.1999999999998</ele>
        <time>2016-07-04T07:24:25Z</time>
      </trkpt>
      <trkpt lat="45.876096300780773" lon="7.174698393791914">
        <ele>2583.1999999999998</ele>
        <time>2016-07-04T07:24:35Z</time>
      </trkpt>
      <trkpt lat="45.876109041273594" lon="7.174742314964533">
        <ele>2583.1999999999998</ele>
        <time>2016-07-04T07:24:45Z</time>
      </trkpt>
      <trkpt lat="45.876084063202143" lon="7.17468892224133">
        <ele>2582.2399999999998</ele>
        <time>2016-07-04T07:24:54Z</time>
      </trkpt>
      <trkpt lat="45.876056654378772" lon="7.174675092101097">
        <ele>2583.1999999999998</ele>
        <time>2016-07-04T07:25:11Z</time>
      </trkpt>
      <trkpt lat="45.876050284132361" lon="7.174688838422298">
        <ele>2583.1999999999998</ele>
        <time>2016-07-04T07:25:26Z</time>
      </trkpt>
      <trkpt lat="45.876035364344716" lon="7.174701327458024">
        <ele>2582.7199999999998</ele>
        <time>2016-07-04T07:25:44Z</time>
      </trkpt>
      <trkpt lat="45.876052044332027" lon="7.174727562814951">
        <ele>2582.2399999999998</ele>
        <time>2016-07-04T07:25:52Z</time>
      </trkpt>
      <trkpt lat="45.876075848937035" lon="7.174758492037654">
        <ele>2580.8000000000002</ele>
        <time>2016-07-04T07:26:01Z</time>
      </trkpt>
      <trkpt lat="45.876144580543041" lon="7.174849268049002">
        <ele>2580.8000000000002</ele>
        <time>2016-07-04T07:26:12Z</time>
      </trkpt>
      <trkpt lat="45.876157069578767" lon="7.174853626638651">
        <ele>2580.8000000000002</ele>
        <time>2016-07-04T07:26:14Z</time>
      </trkpt>
      <trkpt lat="45.876230578869581" lon="7.17487265355885">
        <ele>2581.7600000000002</ele>
        <time>2016-07-04T07:26:25Z</time>
      </trkpt>
      <trkpt lat="45.87626569904387" lon="7.174857314676046">
        <ele>2582.7199999999998</ele>
        <time>2016-07-04T07:26:36Z</time>
      </trkpt>
      <trkpt lat="45.876233093440533" lon="7.174822865054011">
        <ele>2584.1599999999999</ele>
        <time>2016-07-04T07:26:45Z</time>
      </trkpt>
      <trkpt lat="45.876249438151717" lon="7.174823032692075">
        <ele>2583.1999999999998</ele>
        <time>2016-07-04T07:26:58Z</time>
      </trkpt>
      <trkpt lat="45.87623493745923" lon="7.174847759306431">
        <ele>2582.7199999999998</ele>
        <time>2016-07-04T07:27:15Z</time>
      </trkpt>
      <trkpt lat="45.876209456473589" lon="7.174876593053341">
        <ele>2581.7600000000002</ele>
        <time>2016-07-04T07:27:25Z</time>
      </trkpt>
      <trkpt lat="45.876203421503305" lon="7.17489754781127">
        <ele>2581.7600000000002</ele>
        <time>2016-07-04T07:27:42Z</time>
      </trkpt>
      <trkpt lat="45.876245331019163" lon="7.174876173958182">
        <ele>2582.7199999999998</ele>
        <time>2016-07-04T07:27:56Z</time>
      </trkpt>
      <trkpt lat="45.876265279948711" lon="7.174865361303091">
        <ele>2582.7199999999998</ele>
        <time>2016-07-04T07:28:03Z</time>
      </trkpt>
      <trkpt lat="45.87629989720881" lon="7.174800653010607">
        <ele>2580.8000000000002</ele>
        <time>2016-07-04T07:28:13Z</time>
      </trkpt>
      <trkpt lat="45.876362845301628" lon="7.174640223383904">
        <ele>2579.8400000000001</ele>
        <time>2016-07-04T07:28:25Z</time>
      </trkpt>
      <trkpt lat="45.876427134498954" lon="7.174564534798265">
        <ele>2579.8400000000001</ele>
        <time>2016-07-04T07:28:35Z</time>
      </trkpt>
      <trkpt lat="45.8764972910285" lon="7.174514159560204">
        <ele>2581.2800000000002</ele>
        <time>2016-07-04T07:28:45Z</time>
      </trkpt>
      <trkpt lat="45.876533668488264" lon="7.174453055486083">
        <ele>2582.7199999999998</ele>
        <time>2016-07-04T07:28:54Z</time>
      </trkpt>
      <trkpt lat="45.876574236899614" lon="7.174404105171561">
        <ele>2582.2399999999998</ele>
        <time>2016-07-04T07:29:05Z</time>
      </trkpt>
      <trkpt lat="45.876636765897274" lon="7.174342917278409">
        <ele>2581.7600000000002</ele>
        <time>2016-07-04T07:29:14Z</time>
      </trkpt>
      <trkpt lat="45.876666689291596" lon="7.174296732991934">
        <ele>2581.7600000000002</ele>
        <time>2016-07-04T07:29:19Z</time>
      </trkpt>
      <trkpt lat="45.876746317371726" lon="7.174186259508133">
        <ele>2582.2399999999998</ele>
        <time>2016-07-04T07:29:32Z</time>
      </trkpt>
      <trkpt lat="45.876810103654861" lon="7.174100345000625">
        <ele>2582.7199999999998</ele>
        <time>2016-07-04T07:29:42Z</time>
      </trkpt>
      <trkpt lat="45.876870872452855" lon="7.174001187086105">
        <ele>2582.7199999999998</ele>
        <time>2016-07-04T07:29:52Z</time>
      </trkpt>
      <trkpt lat="45.876874141395092" lon="7.173990542069078">
        <ele>2582.7199999999998</ele>
        <time>2016-07-04T07:29:53Z</time>
      </trkpt>
      <trkpt lat="45.876917224377394" lon="7.17387487180531">
        <ele>2583.1999999999998</ele>
        <time>2016-07-04T07:30:04Z</time>
      </trkpt>
      <trkpt lat="45.876936670392752" lon="7.173783509060741">
        <ele>2584.1599999999999</ele>
        <time>2016-07-04T07:30:13Z</time>
      </trkpt>
      <trkpt lat="45.876964498311281" lon="7.173672448843718">
        <ele>2585.5999999999999</ele>
        <time>2016-07-04T07:30:25Z</time>
      </trkpt>
      <trkpt lat="45.876974388957024" lon="7.173629282042384">
        <ele>2585.5999999999999</ele>
        <time>2016-07-04T07:30:31Z</time>
      </trkpt>
      <trkpt lat="45.877049239352345" lon="7.173554180189967">
        <ele>2586.0799999999999</ele>
        <time>2016-07-04T07:30:40Z</time>
      </trkpt>
      <trkpt lat="45.877071619033813" lon="7.17347907833755">
        <ele>2586.0799999999999</ele>
        <time>2016-07-04T07:30:47Z</time>
      </trkpt>
      <trkpt lat="45.877079581841826" lon="7.173460135236383">
        <ele>2586.5599999999999</ele>
        <time>2016-07-04T07:30:49Z</time>
      </trkpt>
      <trkpt lat="45.877108834683895" lon="7.173381596803665">
        <ele>2584.6399999999999</ele>
        <time>2016-07-04T07:31:01Z</time>
      </trkpt>
      <trkpt lat="45.877129537984729" lon="7.173347733914852">
        <ele>2584.6399999999999</ele>
        <time>2016-07-04T07:31:11Z</time>
      </trkpt>
      <trkpt lat="45.877142194658518" lon="7.173358462750912">
        <ele>2584.6399999999999</ele>
        <time>2016-07-04T07:31:24Z</time>
      </trkpt>
      <trkpt lat="45.877140937373042" lon="7.173384027555585">
        <ele>2584.1599999999999</ele>
        <time>2016-07-04T07:31:33Z</time>
      </trkpt>
      <trkpt lat="45.877132136374712" lon="7.173400036990643">
        <ele>2583.1999999999998</ele>
        <time>2016-07-04T07:31:43Z</time>
      </trkpt>
      <trkpt lat="45.877124173566699" lon="7.173411101102829">
        <ele>2583.6799999999998</ele>
        <time>2016-07-04T07:31:54Z</time>
      </trkpt>
      <trkpt lat="45.877111181616783" lon="7.173419315367937">
        <ele>2583.1999999999998</ele>
        <time>2016-07-04T07:32:11Z</time>
      </trkpt>
      <trkpt lat="45.877105565741658" lon="7.173414202407002">
        <ele>2583.1999999999998</ele>
        <time>2016-07-04T07:32:28Z</time>
      </trkpt>
      <trkpt lat="45.877099446952343" lon="7.173411436378956">
        <ele>2583.1999999999998</ele>
        <time>2016-07-04T07:32:47Z</time>
      </trkpt>
      <trkpt lat="45.877111265435815" lon="7.173411184921861">
        <ele>2582.7199999999998</ele>
        <time>2016-07-04T07:33:04Z</time>
      </trkpt>
      <trkpt lat="45.877092741429806" lon="7.173407832160592">
        <ele>2582.7199999999998</ele>
        <time>2016-07-04T07:33:18Z</time>
      </trkpt>
      <trkpt lat="45.87710615247488" lon="7.173448149114847">
        <ele>2582.7199999999998</ele>
        <time>2016-07-04T07:33:37Z</time>
      </trkpt>
      <trkpt lat="45.877101207152009" lon="7.173447227105498">
        <ele>2582.7199999999998</ele>
        <time>2016-07-04T07:33:59Z</time>
      </trkpt>
      <trkpt lat="45.877076648175716" lon="7.173379585146904">
        <ele>2583.1999999999998</ele>
        <time>2016-07-04T07:34:12Z</time>
      </trkpt>
      <trkpt lat="45.877077989280224" lon="7.173306914046407">
        <ele>2585.1199999999999</ele>
        <time>2016-07-04T07:34:21Z</time>
      </trkpt>
      <trkpt lat="45.877086371183395" lon="7.173221921548247">
        <ele>2586.5599999999999</ele>
        <time>2016-07-04T07:34:30Z</time>
      </trkpt>
      <trkpt lat="45.877112690359354" lon="7.173145394772291">
        <ele>2588.0100000000002</ele>
        <time>2016-07-04T07:34:37Z</time>
      </trkpt>
      <trkpt lat="45.877128532156348" lon="7.173115303739905">
        <ele>2588.4899999999998</ele>
        <time>2016-07-04T07:34:40Z</time>
      </trkpt>
      <trkpt lat="45.877148900181055" lon="7.173056211322546">
        <ele>2589.4499999999998</ele>
        <time>2016-07-04T07:34:51Z</time>
      </trkpt>
      <trkpt lat="45.877162227407098" lon="7.173024863004684">
        <ele>2590.8899999999999</ele>
        <time>2016-07-04T07:35:02Z</time>
      </trkpt>
      <trkpt lat="45.877175889909267" lon="7.172976331785321">
        <ele>2592.3299999999999</ele>
        <time>2016-07-04T07:35:15Z</time>
      </trkpt>
      <trkpt lat="45.877181673422456" lon="7.172958310693502">
        <ele>2592.3299999999999</ele>
        <time>2016-07-04T07:35:28Z</time>
      </trkpt>
      <trkpt lat="45.877190558239818" lon="7.172891674563289">
        <ele>2593.29</ele>
        <time>2016-07-04T07:35:37Z</time>
      </trkpt>
      <trkpt lat="45.877206986770034" lon="7.172833420336247">
        <ele>2594.25</ele>
        <time>2016-07-04T07:35:47Z</time>
      </trkpt>
      <trkpt lat="45.877231964841485" lon="7.172781368717551">
        <ele>2594.7399999999998</ele>
        <time>2016-07-04T07:35:53Z</time>
      </trkpt>
      <trkpt lat="45.877243196591735" lon="7.172737866640091">
        <ele>2594.7399999999998</ele>
        <time>2016-07-04T07:36:04Z</time>
      </trkpt>
      <trkpt lat="45.877259708940983" lon="7.172661842778325">
        <ele>2594.7399999999998</ele>
        <time>2016-07-04T07:36:14Z</time>
      </trkpt>
      <trkpt lat="45.877259122207761" lon="7.172670308500528">
        <ele>2594.7399999999998</ele>
        <time>2016-07-04T07:36:26Z</time>
      </trkpt>
      <trkpt lat="45.877259038388729" lon="7.172661339864135">
        <ele>2594.25</ele>
        <time>2016-07-04T07:36:44Z</time>
      </trkpt>
      <trkpt lat="45.877265492454171" lon="7.172635858878493">
        <ele>2594.25</ele>
        <time>2016-07-04T07:36:57Z</time>
      </trkpt>
      <trkpt lat="45.877276891842484" lon="7.172580286860466">
        <ele>2596.1799999999998</ele>
        <time>2016-07-04T07:37:07Z</time>
      </trkpt>
      <trkpt lat="45.877281418070197" lon="7.172560086473823">
        <ele>2596.1799999999998</ele>
        <time>2016-07-04T07:37:09Z</time>
      </trkpt>
      <trkpt lat="45.877307821065187" lon="7.172434609383345">
        <ele>2597.1399999999999</ele>
        <time>2016-07-04T07:37:21Z</time>
      </trkpt>
      <trkpt lat="45.877332547679543" lon="7.172309551388025">
        <ele>2597.1399999999999</ele>
        <time>2016-07-04T07:37:33Z</time>
      </trkpt>
      <trkpt lat="45.877348054200411" lon="7.172235790640116">
        <ele>2596.6599999999999</ele>
        <time>2016-07-04T07:37:43Z</time>
      </trkpt>
      <trkpt lat="45.877345791086555" lon="7.172217182815075">
        <ele>2597.1399999999999</ele>
        <time>2016-07-04T07:37:55Z</time>
      </trkpt>
      <trkpt lat="45.877354759722948" lon="7.172080809250474">
        <ele>2596.6599999999999</ele>
        <time>2016-07-04T07:38:06Z</time>
      </trkpt>
      <trkpt lat="45.877356687560678" lon="7.172003611922264">
        <ele>2596.1799999999998</ele>
        <time>2016-07-04T07:38:21Z</time>
      </trkpt>
      <trkpt lat="45.877351658418775" lon="7.171992380172014">
        <ele>2595.6999999999998</ele>
        <time>2016-07-04T07:38:38Z</time>
      </trkpt>
      <trkpt lat="45.877373032271862" lon="7.171857850626111">
        <ele>2595.2199999999998</ele>
        <time>2016-07-04T07:38:48Z</time>
      </trkpt>
      <trkpt lat="45.8773831743747" lon="7.171784173697233">
        <ele>2596.1799999999998</ele>
        <time>2016-07-04T07:38:55Z</time>
      </trkpt>
      <trkpt lat="45.877402704209089" lon="7.171671772375703">
        <ele>2596.6599999999999</ele>
        <time>2016-07-04T07:39:05Z</time>
      </trkpt>
      <trkpt lat="45.877411505207419" lon="7.171620642766357">
        <ele>2596.1799999999998</ele>
        <time>2016-07-04T07:39:09Z</time>
      </trkpt>
      <trkpt lat="45.877447463572025" lon="7.171490052714944">
        <ele>2596.6599999999999</ele>
        <time>2016-07-04T07:39:20Z</time>
      </trkpt>
      <trkpt lat="45.877477386966348" lon="7.171414364129305">
        <ele>2597.1399999999999</ele>
        <time>2016-07-04T07:39:29Z</time>
      </trkpt>
      <trkpt lat="45.877493564039469" lon="7.171365162357688">
        <ele>2596.6599999999999</ele>
        <time>2016-07-04T07:39:34Z</time>
      </trkpt>
      <trkpt lat="45.877526337280869" lon="7.171310428529978">
        <ele>2597.1399999999999</ele>
        <time>2016-07-04T07:39:42Z</time>
      </trkpt>
      <trkpt lat="45.87757520377636" lon="7.171233650296927">
        <ele>2598.0999999999999</ele>
        <time>2016-07-04T07:39:53Z</time>
      </trkpt>
      <trkpt lat="45.877573695033789" lon="7.171241110190749">
        <ele>2597.6199999999999</ele>
        <time>2016-07-04T07:40:05Z</time>
      </trkpt>
      <trkpt lat="45.877596912905574" lon="7.171173468232155">
        <ele>2599.54</ele>
        <time>2016-07-04T07:40:17Z</time>
      </trkpt>
      <trkpt lat="45.877644689753652" lon="7.171087469905615">
        <ele>2600.02</ele>
        <time>2016-07-04T07:40:27Z</time>
      </trkpt>
      <trkpt lat="45.877687186002731" lon="7.17103835195303">
        <ele>2601.9499999999998</ele>
        <time>2016-07-04T07:40:37Z</time>
      </trkpt>
      <trkpt lat="45.877748792991042" lon="7.171036591753364">
        <ele>2603.3899999999999</ele>
        <time>2016-07-04T07:40:46Z</time>
      </trkpt>
      <trkpt lat="45.877777962014079" lon="7.171030305325985">
        <ele>2603.8699999999999</ele>
        <time>2016-07-04T07:40:49Z</time>
      </trkpt>
      <trkpt lat="45.877820542082191" lon="7.170955874025822">
        <ele>2605.3099999999999</ele>
        <time>2016-07-04T07:41:01Z</time>
      </trkpt>
      <trkpt lat="45.877846609801054" lon="7.17090206220746">
        <ele>2606.75</ele>
        <time>2016-07-04T07:41:13Z</time>
      </trkpt>
      <trkpt lat="45.877878880128264" lon="7.170859649777412">
        <ele>2608.6700000000001</ele>
        <time>2016-07-04T07:41:22Z</time>
      </trkpt>
      <trkpt lat="45.877904947847128" lon="7.170842299237847">
        <ele>2609.1599999999999</ele>
        <time>2016-07-04T07:41:33Z</time>
      </trkpt>
      <trkpt lat="45.87795976549387" lon="7.170843472704291">
        <ele>2611.0799999999999</ele>
        <time>2016-07-04T07:41:44Z</time>
      </trkpt>
      <trkpt lat="45.877989856526256" lon="7.170822434127331">
        <ele>2611.5599999999999</ele>
        <time>2016-07-04T07:41:54Z</time>
      </trkpt>
      <trkpt lat="45.877993125468493" lon="7.17079603113234">
        <ele>2613.96</ele>
        <time>2016-07-04T07:42:05Z</time>
      </trkpt>
      <trkpt lat="45.877967141568661" lon="7.170753534883261">
        <ele>2615.4000000000001</ele>
        <time>2016-07-04T07:42:15Z</time>
      </trkpt>
      <trkpt lat="45.877911737188697" lon="7.170735765248537">
        <ele>2616.8499999999999</ele>
        <time>2016-07-04T07:42:27Z</time>
      </trkpt>
      <trkpt lat="45.877849794924259" lon="7.170677343383431">
        <ele>2618.29</ele>
        <time>2016-07-04T07:42:40Z</time>
      </trkpt>
      <trkpt lat="45.877896817401052" lon="7.170635769143701">
        <ele>2619.25</ele>
        <time>2016-07-04T07:42:50Z</time>
      </trkpt>
      <trkpt lat="45.877955658361316" lon="7.170576928183436">
        <ele>2620.21</ele>
        <time>2016-07-04T07:43:01Z</time>
      </trkpt>
      <trkpt lat="45.878012739121914" lon="7.170557985082269">
        <ele>2622.1300000000001</ele>
        <time>2016-07-04T07:43:11Z</time>
      </trkpt>
      <trkpt lat="45.87806680239737" lon="7.170532420277596">
        <ele>2623.0900000000001</ele>
        <time>2016-07-04T07:43:23Z</time>
      </trkpt>
      <trkpt lat="45.878095217049122" lon="7.170474166050553">
        <ele>2624.0599999999999</ele>
        <time>2016-07-04T07:43:33Z</time>
      </trkpt>
      <trkpt lat="45.878169229254127" lon="7.170447427779436">
        <ele>2625.02</ele>
        <time>2016-07-04T07:43:44Z</time>
      </trkpt>
      <trkpt lat="45.878239553421736" lon="7.170433849096298">
        <ele>2625.5</ele>
        <time>2016-07-04T07:43:56Z</time>
      </trkpt>
      <trkpt lat="45.878264615312219" lon="7.170447511598468">
        <ele>2626.46</ele>
        <time>2016-07-04T07:44:07Z</time>
      </trkpt>
      <trkpt lat="45.878284648060799" lon="7.170384144410491">
        <ele>2627.9000000000001</ele>
        <time>2016-07-04T07:44:17Z</time>
      </trkpt>
      <trkpt lat="45.878326222300529" lon="7.170286327600479">
        <ele>2629.3400000000001</ele>
        <time>2016-07-04T07:44:29Z</time>
      </trkpt>
      <trkpt lat="45.878385314717889" lon="7.170218098908663">
        <ele>2630.79</ele>
        <time>2016-07-04T07:44:39Z</time>
      </trkpt>
      <trkpt lat="45.878411550074816" lon="7.170155821368098">
        <ele>2632.71</ele>
        <time>2016-07-04T07:44:51Z</time>
      </trkpt>
      <trkpt lat="45.87846745736897" lon="7.170154312625527">
        <ele>2634.1500000000001</ele>
        <time>2016-07-04T07:45:01Z</time>
      </trkpt>
      <trkpt lat="45.878528980538249" lon="7.170132854953408">
        <ele>2635.5900000000001</ele>
        <time>2016-07-04T07:45:13Z</time>
      </trkpt>
      <trkpt lat="45.878581115975976" lon="7.170117180794478">
        <ele>2637.0300000000002</ele>
        <time>2016-07-04T07:45:23Z</time>
      </trkpt>
      <trkpt lat="45.878641800954938" lon="7.170141069218516">
        <ele>2638.48</ele>
        <time>2016-07-04T07:45:34Z</time>
      </trkpt>
      <trkpt lat="45.878732912242413" lon="7.170158922672272">
        <ele>2639.4400000000001</ele>
        <time>2016-07-04T07:45:47Z</time>
      </trkpt>
      <trkpt lat="45.87882075458765" lon="7.170188594609499">
        <ele>2639.9200000000001</ele>
        <time>2016-07-04T07:45:59Z</time>
      </trkpt>
      <trkpt lat="45.878913542255759" lon="7.170200916007161">
        <ele>2639.4400000000001</ele>
        <time>2016-07-04T07:46:11Z</time>
      </trkpt>
      <trkpt lat="45.878986297175288" lon="7.170126987621188">
        <ele>2641.3600000000001</ele>
        <time>2016-07-04T07:46:25Z</time>
      </trkpt>
      <trkpt lat="45.879036420956254" lon="7.1701021771878">
        <ele>2641.8400000000001</ele>
        <time>2016-07-04T07:46:34Z</time>
      </trkpt>
      <trkpt lat="45.879086125642061" lon="7.170070912688971">
        <ele>2643.7600000000002</ele>
        <time>2016-07-04T07:46:46Z</time>
      </trkpt>
      <trkpt lat="45.87909341789782" lon="7.170056076720357">
        <ele>2643.7600000000002</ele>
        <time>2016-07-04T07:46:49Z</time>
      </trkpt>
      <trkpt lat="45.879118982702494" lon="7.169983657076955">
        <ele>2645.21</ele>
        <time>2016-07-04T07:46:59Z</time>
      </trkpt>
      <trkpt lat="45.879126274958253" lon="7.169898161664605">
        <ele>2647.6100000000001</ele>
        <time>2016-07-04T07:47:12Z</time>
      </trkpt>
      <trkpt lat="45.879147481173277" lon="7.169805709272623">
        <ele>2650.0100000000002</ele>
        <time>2016-07-04T07:47:24Z</time>
      </trkpt>
      <trkpt lat="45.879187295213342" lon="7.169741839170456">
        <ele>2651.4499999999998</ele>
        <time>2016-07-04T07:47:37Z</time>
      </trkpt>
      <trkpt lat="45.879237670451403" lon="7.16968928463757">
        <ele>2652.9000000000001</ele>
        <time>2016-07-04T07:47:47Z</time>
      </trkpt>
      <trkpt lat="45.879286201670766" lon="7.169667491689324">
        <ele>2653.8600000000001</ele>
        <time>2016-07-04T07:47:57Z</time>
      </trkpt>
      <trkpt lat="45.879366248846054" lon="7.16964871622622">
        <ele>2654.8200000000002</ele>
        <time>2016-07-04T07:48:09Z</time>
      </trkpt>
      <trkpt lat="45.879470016807318" lon="7.169643770903349">
        <ele>2654.8200000000002</ele>
        <time>2016-07-04T07:48:21Z</time>
      </trkpt>
      <trkpt lat="45.879514776170254" lon="7.169602364301682">
        <ele>2656.2600000000002</ele>
        <time>2016-07-04T07:48:32Z</time>
      </trkpt>
      <trkpt lat="45.879549812525511" lon="7.169614769518375">
        <ele>2657.6999999999998</ele>
        <time>2016-07-04T07:48:38Z</time>
      </trkpt>
      <trkpt lat="45.879473956301808" lon="7.169640753418207">
        <ele>2722.5900000000001</ele>
        <time>2016-07-04T08:03:07Z</time>
      </trkpt>
      <trkpt lat="45.879620052874088" lon="7.169647458940744" />
      <trkpt lat="45.879708062857389" lon="7.169629018753767" />
      <trkpt lat="45.879789870232344" lon="7.169582918286324" />
      <trkpt lat="45.879840161651373" lon="7.169619798660278" />
      <trkpt lat="45.879915598779917" lon="7.169647458940744" />
      <trkpt lat="45.880022468045354" lon="7.169656679034233" />
      <trkpt lat="45.880123134702444" lon="7.169619798660278" />
      <trkpt lat="45.880242576822639" lon="7.16961057856679" />
      <trkpt lat="45.880292868241668" lon="7.169647458940744" />
      <trkpt lat="45.880355732515454" lon="7.169656679034233" />
      <trkpt lat="45.880418680608273" lon="7.169656679034233" />
      <trkpt lat="45.880481544882059" lon="7.169665899127722" />
      <trkpt lat="45.880544409155846" lon="7.169693559408188" />
      <trkpt lat="45.880600987002254" lon="7.169794896617532" />
      <trkpt lat="45.880651278421283" lon="7.169831776991487" />
      <trkpt lat="45.880726799368858" lon="7.169887097552419" />
      <trkpt lat="45.880795950070024" lon="7.169905537739396" />
      <trkpt lat="45.880852527916431" lon="7.169970078393817" />
      <trkpt lat="45.880883960053325" lon="7.170034535229206" />
      <trkpt lat="45.880940537899733" lon="7.170126736164093" />
      <trkpt lat="45.880978340283036" lon="7.170246513560414" />
      <trkpt lat="45.88105377741158" lon="7.170320274308324" />
      <trkpt lat="45.881122928112745" lon="7.170394035056233" />
      <trkpt lat="45.881173219531775" lon="7.170449271798134" />
      <trkpt lat="45.881261229515076" lon="7.170486152172089" />
      <trkpt lat="45.881349323317409" lon="7.1704769320786" />
      <trkpt lat="45.881449906155467" lon="7.170467711985111" />
      <trkpt lat="45.881506484001875" lon="7.170523032546043" />
      <trkpt lat="45.881544202566147" lon="7.170606013387442" />
      <trkpt lat="45.881562391296029" lon="7.170624369755387" />
      <trkpt lat="45.881637912243605" lon="7.170606013387442" />
      <trkpt lat="45.881675630807877" lon="7.170559912919998" />
      <trkpt lat="45.881694490090013" lon="7.170486152172089" />
      <trkpt lat="45.881700776517391" lon="7.170440051704645" />
      <trkpt lat="45.881688203662634" lon="7.170311054214835" />
      <trkpt lat="45.881675630807877" lon="7.170228073373437" />
      <trkpt lat="45.881669344380498" lon="7.170135956257582" />
      <trkpt lat="45.881644198670983" lon="7.170025315135717" />
      <trkpt lat="45.88161276653409" lon="7.169970078393817" />
      <trkpt lat="45.881593907251954" lon="7.16987787745893" />
      <trkpt lat="45.881562391296029" lon="7.169822556897998" />
      <trkpt lat="45.881537245586514" lon="7.169794896617532" />
      <trkpt lat="45.881524672731757" lon="7.169758100062609" />
      <trkpt lat="45.881524672731757" lon="7.169693559408188" />
      <trkpt lat="45.881537245586514" lon="7.169647458940744" />
      <trkpt lat="45.881581334397197" lon="7.169573698192835" />
      <trkpt lat="45.881309676915407" lon="7.169495495036244">
        <ele>2721.6300000000001</ele>
        <time>2016-07-04T08:03:14Z</time>
      </trkpt>
      <trkpt lat="45.881282268092036" lon="7.169546289369464">
        <ele>2718.27</ele>
        <time>2016-07-04T08:03:29Z</time>
      </trkpt>
      <trkpt lat="45.881287800148129" lon="7.16952508315444">
        <ele>2719.23</ele>
        <time>2016-07-04T08:03:42Z</time>
      </trkpt>
      <trkpt lat="45.881316047161818" lon="7.169516952708364">
        <ele>2718.75</ele>
        <time>2016-07-04T08:03:48Z</time>
      </trkpt>
      <trkpt lat="45.881375223398209" lon="7.169601023197174">
        <ele>2717.3000000000002</ele>
        <time>2016-07-04T08:04:00Z</time>
      </trkpt>
      <trkpt lat="45.881388634443283" lon="7.169663300737739">
        <ele>2717.3000000000002</ele>
        <time>2016-07-04T08:04:08Z</time>
      </trkpt>
      <trkpt lat="45.881387377157807" lon="7.169675789773464">
        <ele>2717.3000000000002</ele>
        <time>2016-07-04T08:04:21Z</time>
      </trkpt>
      <trkpt lat="45.881386874243617" lon="7.169680567458272">
        <ele>2716.8200000000002</ele>
        <time>2016-07-04T08:04:24Z</time>
      </trkpt>
      <trkpt lat="45.881396010518074" lon="7.169670090079308">
        <ele>2716.3400000000001</ele>
        <time>2016-07-04T08:04:34Z</time>
      </trkpt>
      <trkpt lat="45.881394501775503" lon="7.169661959633231">
        <ele>2716.3400000000001</ele>
        <time>2016-07-04T08:04:54Z</time>
      </trkpt>
      <trkpt lat="45.881419647485018" lon="7.16964335180819">
        <ele>2716.8200000000002</ele>
        <time>2016-07-04T08:05:15Z</time>
      </trkpt>
      <trkpt lat="45.881403302773833" lon="7.169653661549091">
        <ele>2716.8200000000002</ele>
        <time>2016-07-04T08:05:38Z</time>
      </trkpt>
      <trkpt lat="45.881384443491697" lon="7.169658690690994">
        <ele>2716.3400000000001</ele>
        <time>2016-07-04T08:06:03Z</time>
      </trkpt>
      <trkpt lat="45.881400620564818" lon="7.169649973511696">
        <ele>2716.3400000000001</ele>
        <time>2016-07-04T08:06:32Z</time>
      </trkpt>
      <trkpt lat="45.881396513432264" lon="7.169640669599176">
        <ele>2716.3400000000001</ele>
        <time>2016-07-04T08:07:02Z</time>
      </trkpt>
      <trkpt lat="45.881415959447622" lon="7.169664977118373">
        <ele>2716.3400000000001</ele>
        <time>2016-07-04T08:07:26Z</time>
      </trkpt>
      <trkpt lat="45.881405314430594" lon="7.169670928269625">
        <ele>2716.3400000000001</ele>
        <time>2016-07-04T08:07:50Z</time>
      </trkpt>
      <trkpt lat="45.88141143321991" lon="7.169669838622212">
        <ele>2716.3400000000001</ele>
        <time>2016-07-04T08:08:24Z</time>
      </trkpt>
      <trkpt lat="45.881407158449292" lon="7.169662294909358">
        <ele>2716.8200000000002</ele>
        <time>2016-07-04T08:08:54Z</time>
      </trkpt>
      <trkpt lat="45.881399195641279" lon="7.169649302959442">
        <ele>2716.3400000000001</ele>
        <time>2016-07-04T08:09:33Z</time>
      </trkpt>
      <trkpt lat="45.881399782374501" lon="7.16965458355844">
        <ele>2716.8200000000002</ele>
        <time>2016-07-04T08:10:04Z</time>
      </trkpt>
      <trkpt lat="45.881400117650628" lon="7.169641088694334">
        <ele>2716.8200000000002</ele>
        <time>2016-07-04T08:10:27Z</time>
      </trkpt>
      <trkpt lat="45.881405398249626" lon="7.169662546366453">
        <ele>2716.8200000000002</ele>
        <time>2016-07-04T08:10:48Z</time>
      </trkpt>
      <trkpt lat="45.88140070438385" lon="7.169653074815869">
        <ele>2717.3000000000002</ele>
        <time>2016-07-04T08:11:07Z</time>
      </trkpt>
      <trkpt lat="45.881396597251296" lon="7.169645363464952">
        <ele>2716.8200000000002</ele>
        <time>2016-07-04T08:11:28Z</time>
      </trkpt>
      <trkpt lat="45.881404643878341" lon="7.169653242453933">
        <ele>2716.8200000000002</ele>
        <time>2016-07-04T08:11:50Z</time>
      </trkpt>
      <trkpt lat="45.881411517038941" lon="7.169656259939075">
        <ele>2717.3000000000002</ele>
        <time>2016-07-04T08:12:14Z</time>
      </trkpt>
      <trkpt lat="45.881402548402548" lon="7.169656176120043">
        <ele>2716.8200000000002</ele>
        <time>2016-07-04T08:12:36Z</time>
      </trkpt>
      <trkpt lat="45.881402380764484" lon="7.169641591608524">
        <ele>2716.8200000000002</ele>
        <time>2016-07-04T08:13:04Z</time>
      </trkpt>
      <trkpt lat="45.881401374936104" lon="7.169642765074968">
        <ele>2717.3000000000002</ele>
        <time>2016-07-04T08:13:33Z</time>
      </trkpt>
      <trkpt lat="45.881402213126421" lon="7.169650811702013">
        <ele>2716.8200000000002</ele>
        <time>2016-07-04T08:14:03Z</time>
      </trkpt>
      <trkpt lat="45.881398944184184" lon="7.169645698741078">
        <ele>2716.8200000000002</ele>
        <time>2016-07-04T08:14:26Z</time>
      </trkpt>
      <trkpt lat="45.881410092115402" lon="7.169655421748757">
        <ele>2716.8200000000002</ele>
        <time>2016-07-04T08:14:52Z</time>
      </trkpt>
      <trkpt lat="45.88140606880188" lon="7.169660283252597">
        <ele>2716.8200000000002</ele>
        <time>2016-07-04T08:15:19Z</time>
      </trkpt>
      <trkpt lat="45.881406739354134" lon="7.169655757024884">
        <ele>2716.8200000000002</ele>
        <time>2016-07-04T08:15:55Z</time>
      </trkpt>
      <trkpt lat="45.881409840658307" lon="7.169660702347755">
        <ele>2716.8200000000002</ele>
        <time>2016-07-04T08:16:24Z</time>
      </trkpt>
      <trkpt lat="45.881401794031262" lon="7.169651230797172">
        <ele>2716.3400000000001</ele>
        <time>2016-07-04T08:17:03Z</time>
      </trkpt>
      <trkpt lat="45.881396848708391" lon="7.169645028188825">
        <ele>2716.8200000000002</ele>
        <time>2016-07-04T08:17:35Z</time>
      </trkpt>
      <trkpt lat="45.881403721868992" lon="7.169642513617873">
        <ele>2716.8200000000002</ele>
        <time>2016-07-04T08:18:07Z</time>
      </trkpt>
      <trkpt lat="45.881406320258975" lon="7.169642932713032">
        <ele>2716.8200000000002</ele>
        <time>2016-07-04T08:18:38Z</time>
      </trkpt>
      <trkpt lat="45.881410595029593" lon="7.169647542759776">
        <ele>2716.8200000000002</ele>
        <time>2016-07-04T08:19:15Z</time>
      </trkpt>
      <trkpt lat="45.88139433413744" lon="7.169649554416537">
        <ele>2716.3400000000001</ele>
        <time>2016-07-04T08:19:49Z</time>
      </trkpt>
      <trkpt lat="45.881399614736438" lon="7.169648548588157">
        <ele>2716.3400000000001</ele>
        <time>2016-07-04T08:20:23Z</time>
      </trkpt>
      <trkpt lat="45.881405984982848" lon="7.169645614922047">
        <ele>2716.8200000000002</ele>
        <time>2016-07-04T08:21:05Z</time>
      </trkpt>
      <trkpt lat="45.881396429613233" lon="7.169640501961112">
        <ele>2716.8200000000002</ele>
        <time>2016-07-04T08:21:33Z</time>
      </trkpt>
      <trkpt lat="45.88138117454946" lon="7.1696394123137">
        <ele>2716.8200000000002</ele>
        <time>2016-07-04T08:22:04Z</time>
      </trkpt>
      <trkpt lat="45.881408331915736" lon="7.169659109786153">
        <ele>2717.3000000000002</ele>
        <time>2016-07-04T08:22:32Z</time>
      </trkpt>
      <trkpt lat="45.881406655535102" lon="7.169673275202513">
        <ele>2716.3400000000001</ele>
        <time>2016-07-04T08:23:04Z</time>
      </trkpt>
      <trkpt lat="45.881391065195203" lon="7.169659193605185">
        <ele>2716.3400000000001</ele>
        <time>2016-07-04T08:23:35Z</time>
      </trkpt>
      <trkpt lat="45.881401961669326" lon="7.169653829187155">
        <ele>2716.8200000000002</ele>
        <time>2016-07-04T08:24:08Z</time>
      </trkpt>
      <trkpt lat="45.881395591422915" lon="7.169667910784483">
        <ele>2716.8200000000002</ele>
        <time>2016-07-04T08:24:39Z</time>
      </trkpt>
      <trkpt lat="45.881390897557139" lon="7.169653326272965">
        <ele>2716.8200000000002</ele>
        <time>2016-07-04T08:25:06Z</time>
      </trkpt>
      <trkpt lat="45.881390562281013" lon="7.169652739539743">
        <ele>2716.3400000000001</ele>
        <time>2016-07-04T08:25:39Z</time>
      </trkpt>
      <trkpt lat="45.881387796252966" lon="7.169649386778474">
        <ele>2716.3400000000001</ele>
        <time>2016-07-04T08:26:08Z</time>
      </trkpt>
      <trkpt lat="45.881390897557139" lon="7.169650727882981">
        <ele>2716.3400000000001</ele>
        <time>2016-07-04T08:26:46Z</time>
      </trkpt>
      <trkpt lat="45.881393579766154" lon="7.16965114697814">
        <ele>2716.3400000000001</ele>
        <time>2016-07-04T08:27:14Z</time>
      </trkpt>
      <trkpt lat="45.881401458755136" lon="7.169662797823548">
        <ele>2716.3400000000001</ele>
        <time>2016-07-04T08:27:36Z</time>
      </trkpt>
      <trkpt lat="45.881401626393199" lon="7.169664306566119">
        <ele>2716.3400000000001</ele>
        <time>2016-07-04T08:28:09Z</time>
      </trkpt>
      <trkpt lat="45.881395423784852" lon="7.169672604650259">
        <ele>2715.8600000000001</ele>
        <time>2016-07-04T08:28:46Z</time>
      </trkpt>
      <trkpt lat="45.881388382986188" lon="7.169673191383481">
        <ele>2715.8600000000001</ele>
        <time>2016-07-04T08:29:29Z</time>
      </trkpt>
      <trkpt lat="45.881400033831596" lon="7.16967361047864">
        <ele>2716.3400000000001</ele>
        <time>2016-07-04T08:30:01Z</time>
      </trkpt>
      <trkpt lat="45.881386203691363" lon="7.16967947781086">
        <ele>2715.8600000000001</ele>
        <time>2016-07-04T08:30:30Z</time>
      </trkpt>
      <trkpt lat="45.881369607523084" lon="7.169663552194834">
        <ele>2715.8600000000001</ele>
        <time>2016-07-04T08:30:53Z</time>
      </trkpt>
      <trkpt lat="45.881391232833266" lon="7.169667072594166">
        <ele>2715.8600000000001</ele>
        <time>2016-07-04T08:31:25Z</time>
      </trkpt>
      <trkpt lat="45.881407409906387" lon="7.169671850278974">
        <ele>2716.3400000000001</ele>
        <time>2016-07-04T08:31:50Z</time>
      </trkpt>
      <trkpt lat="45.881394585594535" lon="7.169648800045252">
        <ele>2716.3400000000001</ele>
        <time>2016-07-04T08:32:23Z</time>
      </trkpt>
      <trkpt lat="45.881393076851964" lon="7.169649051502347">
        <ele>2716.3400000000001</ele>
        <time>2016-07-04T08:32:44Z</time>
      </trkpt>
      <trkpt lat="45.88140657171607" lon="7.169647878035903">
        <ele>2716.8200000000002</ele>
        <time>2016-07-04T08:33:08Z</time>
      </trkpt>
      <trkpt lat="45.881405230611563" lon="7.169645531103015">
        <ele>2716.8200000000002</ele>
        <time>2016-07-04T08:33:32Z</time>
      </trkpt>
      <trkpt lat="45.881397603079677" lon="7.169654835015535">
        <ele>2716.3400000000001</ele>
        <time>2016-07-04T08:34:08Z</time>
      </trkpt>
      <trkpt lat="45.881393244490027" lon="7.169659864157438">
        <ele>2716.8200000000002</ele>
        <time>2016-07-04T08:34:39Z</time>
      </trkpt>
      <trkpt lat="45.881391065195203" lon="7.169660953804851">
        <ele>2716.8200000000002</ele>
        <time>2016-07-04T08:35:07Z</time>
      </trkpt>
      <trkpt lat="45.881398944184184" lon="7.169654835015535">
        <ele>2717.3000000000002</ele>
        <time>2016-07-04T08:35:41Z</time>
      </trkpt>
      <trkpt lat="45.881406404078007" lon="7.169658942148089">
        <ele>2716.8200000000002</ele>
        <time>2016-07-04T08:36:15Z</time>
      </trkpt>
      <trkpt lat="45.881395926699042" lon="7.169658020138741">
        <ele>2716.3400000000001</ele>
        <time>2016-07-04T08:36:39Z</time>
      </trkpt>
      <trkpt lat="45.881393495947123" lon="7.169664390385151">
        <ele>2716.3400000000001</ele>
        <time>2016-07-04T08:37:01Z</time>
      </trkpt>
      <trkpt lat="45.881398525089025" lon="7.169658271595836">
        <ele>2716.8200000000002</ele>
        <time>2016-07-04T08:37:30Z</time>
      </trkpt>
      <trkpt lat="45.881401794031262" lon="7.169655170291662">
        <ele>2717.7800000000002</ele>
        <time>2016-07-04T08:37:59Z</time>
      </trkpt>
      <trkpt lat="45.881401291117072" lon="7.169652655720711">
        <ele>2717.7800000000002</ele>
        <time>2016-07-04T08:38:07Z</time>
      </trkpt>
      <trkpt lat="45.881409673020244" lon="7.169652990996838">
        <ele>2717.7800000000002</ele>
        <time>2016-07-04T08:38:16Z</time>
      </trkpt>
      <trkpt lat="45.881394166499376" lon="7.169640166684985">
        <ele>2717.7800000000002</ele>
        <time>2016-07-04T08:38:34Z</time>
      </trkpt>
      <trkpt lat="45.881390394642949" lon="7.169653158634901">
        <ele>2718.27</ele>
        <time>2016-07-04T08:38:51Z</time>
      </trkpt>
      <trkpt lat="45.881398860365152" lon="7.169651985168457">
        <ele>2717.7800000000002</ele>
        <time>2016-07-04T08:39:11Z</time>
      </trkpt>
      <trkpt lat="45.881398022174835" lon="7.169648967683315">
        <ele>2717.3000000000002</ele>
        <time>2016-07-04T08:39:30Z</time>
      </trkpt>
      <trkpt lat="45.881396681070328" lon="7.16965944506228">
        <ele>2717.3000000000002</ele>
        <time>2016-07-04T08:39:50Z</time>
      </trkpt>
      <trkpt lat="45.881387209519744" lon="7.169665480032563">
        <ele>2717.3000000000002</ele>
        <time>2016-07-04T08:40:09Z</time>
      </trkpt>
      <trkpt lat="45.881390562281013" lon="7.169645363464952">
        <ele>2716.8200000000002</ele>
        <time>2016-07-04T08:40:22Z</time>
      </trkpt>
      <trkpt lat="45.88138704188168" lon="7.16966338455677">
        <ele>2717.3000000000002</ele>
        <time>2016-07-04T08:40:35Z</time>
      </trkpt>
      <trkpt lat="45.881385784596205" lon="7.169660031795502">
        <ele>2717.3000000000002</ele>
        <time>2016-07-04T08:40:51Z</time>
      </trkpt>
      <trkpt lat="45.881380252540112" lon="7.169661289080977">
        <ele>2717.3000000000002</ele>
        <time>2016-07-04T08:41:07Z</time>
      </trkpt>
      <trkpt lat="45.881364410743117" lon="7.169663803651929">
        <ele>2717.7800000000002</ele>
        <time>2016-07-04T08:41:20Z</time>
      </trkpt>
      <trkpt lat="45.881383689120412" lon="7.169646956026554">
        <ele>2717.7800000000002</ele>
        <time>2016-07-04T08:41:37Z</time>
      </trkpt>
      <trkpt lat="45.881404727697372" lon="7.169650811702013">
        <ele>2717.7800000000002</ele>
        <time>2016-07-04T08:41:57Z</time>
      </trkpt>
      <trkpt lat="45.881425095722079" lon="7.16965751722455">
        <ele>2717.3000000000002</ele>
        <time>2016-07-04T08:42:13Z</time>
      </trkpt>
      <trkpt lat="45.881432387977839" lon="7.169653661549091">
        <ele>2717.7800000000002</ele>
        <time>2016-07-04T08:42:27Z</time>
      </trkpt>
      <trkpt lat="45.881440518423915" lon="7.169636311009526">
        <ele>2717.7800000000002</ele>
        <time>2016-07-04T08:42:36Z</time>
      </trkpt>
      <trkpt lat="45.881469016894698" lon="7.169603873044252">
        <ele>2716.8200000000002</ele>
        <time>2016-07-04T08:42:50Z</time>
      </trkpt>
      <trkpt lat="45.881524588912725" lon="7.16955685056746">
        <ele>2718.27</ele>
        <time>2016-07-04T08:43:01Z</time>
      </trkpt>
      <trkpt lat="45.881594074890018" lon="7.16951628215611">
        <ele>2718.75</ele>
        <time>2016-07-04T08:43:11Z</time>
      </trkpt>
      <trkpt lat="45.881639085710049" lon="7.169443443417549">
        <ele>2717.3000000000002</ele>
        <time>2016-07-04T08:43:20Z</time>
      </trkpt>
      <trkpt lat="45.881653251126409" lon="7.169403461739421">
        <ele>2715.3800000000001</ele>
        <time>2016-07-04T08:43:28Z</time>
      </trkpt>
      <trkpt lat="45.881713600829244" lon="7.169388039037585">
        <ele>2714.9000000000001</ele>
        <time>2016-07-04T08:43:39Z</time>
      </trkpt>
      <trkpt lat="45.881783002987504" lon="7.169435312971473">
        <ele>2713.46</ele>
        <time>2016-07-04T08:43:49Z</time>
      </trkpt>
      <trkpt lat="45.881828097626567" lon="7.169400528073311">
        <ele>2711.0599999999999</ele>
        <time>2016-07-04T08:44:00Z</time>
      </trkpt>
      <trkpt lat="45.881789289414883" lon="7.169371778145433">
        <ele>2709.1300000000001</ele>
        <time>2016-07-04T08:44:11Z</time>
      </trkpt>
      <trkpt lat="45.881762048229575" lon="7.169323582202196">
        <ele>2709.1300000000001</ele>
        <time>2016-07-04T08:44:19Z</time>
      </trkpt>
      <trkpt lat="45.881712175905704" lon="7.169277314096689">
        <ele>2709.1300000000001</ele>
        <time>2016-07-04T08:44:33Z</time>
      </trkpt>
      <trkpt lat="45.8817158639431" lon="7.169204391539097">
        <ele>2706.25</ele>
        <time>2016-07-04T08:44:43Z</time>
      </trkpt>
      <trkpt lat="45.881772274151444" lon="7.169179748743773">
        <ele>2704.3299999999999</ele>
        <time>2016-07-04T08:44:53Z</time>
      </trkpt>
      <trkpt lat="45.881761712953448" lon="7.169168014079332">
        <ele>2703.3600000000001</ele>
        <time>2016-07-04T08:44:55Z</time>
      </trkpt>
      <trkpt lat="45.881728604435921" lon="7.169154016301036">
        <ele>2702.8800000000001</ele>
        <time>2016-07-04T08:45:04Z</time>
      </trkpt>
      <trkpt lat="45.881717540323734" lon="7.16913272626698">
        <ele>2701.4400000000001</ele>
        <time>2016-07-04T08:45:15Z</time>
      </trkpt>
      <trkpt lat="45.881737153977156" lon="7.169116381555796">
        <ele>2701.4400000000001</ele>
        <time>2016-07-04T08:45:24Z</time>
      </trkpt>
      <trkpt lat="45.881735058501363" lon="7.169123087078333">
        <ele>2700.96</ele>
        <time>2016-07-04T08:45:43Z</time>
      </trkpt>
      <trkpt lat="45.881734471768141" lon="7.16912099160254">
        <ele>2701.9200000000001</ele>
        <time>2016-07-04T08:45:57Z</time>
      </trkpt>
      <trkpt lat="45.881760790944099" lon="7.169099617749453">
        <ele>2700.96</ele>
        <time>2016-07-04T08:46:18Z</time>
      </trkpt>
      <trkpt lat="45.881801778450608" lon="7.169082770124078">
        <ele>2699.04</ele>
        <time>2016-07-04T08:46:30Z</time>
      </trkpt>
      <trkpt lat="45.881792055442929" lon="7.169054774567485">
        <ele>2696.6399999999999</ele>
        <time>2016-07-04T08:46:37Z</time>
      </trkpt>
      <trkpt lat="45.881767328828573" lon="7.16902619227767">
        <ele>2694.71</ele>
        <time>2016-07-04T08:46:49Z</time>
      </trkpt>
      <trkpt lat="45.881765149533749" lon="7.168982857838273">
        <ele>2693.27</ele>
        <time>2016-07-04T08:46:59Z</time>
      </trkpt>
      <trkpt lat="45.881751319393516" lon="7.168987132608891">
        <ele>2692.3099999999999</ele>
        <time>2016-07-04T08:47:09Z</time>
      </trkpt>
      <trkpt lat="45.881755091249943" lon="7.168958969414234">
        <ele>2690.8699999999999</ele>
        <time>2016-07-04T08:47:20Z</time>
      </trkpt>
      <trkpt lat="45.881787529215217" lon="7.1689607296139">
        <ele>2690.3899999999999</ele>
        <time>2016-07-04T08:47:29Z</time>
      </trkpt>
      <trkpt lat="45.881775626912713" lon="7.168934242799878">
        <ele>2688.9400000000001</ele>
        <time>2016-07-04T08:47:44Z</time>
      </trkpt>
      <trkpt lat="45.881777219474316" lon="7.168922424316406">
        <ele>2687.5</ele>
        <time>2016-07-04T08:47:56Z</time>
      </trkpt>
      <trkpt lat="45.881851399317384" lon="7.168955113738775">
        <ele>2685.5799999999999</ele>
        <time>2016-07-04T08:48:06Z</time>
      </trkpt>
      <trkpt lat="45.881845280528069" lon="7.168941199779511">
        <ele>2683.6599999999999</ele>
        <time>2016-07-04T08:48:18Z</time>
      </trkpt>
      <trkpt lat="45.881834216415882" lon="7.168894512578845">
        <ele>2682.6999999999998</ele>
        <time>2016-07-04T08:48:31Z</time>
      </trkpt>
      <trkpt lat="45.881848800927401" lon="7.168911024928093">
        <ele>2682.2199999999998</ele>
        <time>2016-07-04T08:48:41Z</time>
      </trkpt>
      <trkpt lat="45.881849387660623" lon="7.168916556984186">
        <ele>2682.2199999999998</ele>
        <time>2016-07-04T08:48:50Z</time>
      </trkpt>
      <trkpt lat="45.881853494793177" lon="7.168903145939112">
        <ele>2682.2199999999998</ele>
        <time>2016-07-04T08:49:05Z</time>
      </trkpt>
      <trkpt lat="45.881856679916382" lon="7.168909516185522">
        <ele>2682.2199999999998</ele>
        <time>2016-07-04T08:49:17Z</time>
      </trkpt>
      <trkpt lat="45.881873778998852" lon="7.168913036584854">
        <ele>2682.2199999999998</ele>
        <time>2016-07-04T08:49:34Z</time>
      </trkpt>
      <trkpt lat="45.881855674088001" lon="7.168896356597543">
        <ele>2682.2199999999998</ele>
        <time>2016-07-04T08:49:47Z</time>
      </trkpt>
      <trkpt lat="45.881888447329402" lon="7.168900882825255">
        <ele>2682.2199999999998</ele>
        <time>2016-07-04T08:50:08Z</time>
      </trkpt>
      <trkpt lat="45.881855171173811" lon="7.16887422837317">
        <ele>2682.6999999999998</ele>
        <time>2016-07-04T08:50:22Z</time>
      </trkpt>
      <trkpt lat="45.881832037121058" lon="7.168836928904057">
        <ele>2681.73</ele>
        <time>2016-07-04T08:50:33Z</time>
      </trkpt>
      <trkpt lat="45.88190445676446" lon="7.168832737952471">
        <ele>2679.8099999999999</ele>
        <time>2016-07-04T08:50:40Z</time>
      </trkpt>
      <trkpt lat="45.881973272189498" lon="7.168837012723088">
        <ele>2675.9699999999998</ele>
        <time>2016-07-04T08:50:50Z</time>
      </trkpt>
      <trkpt lat="45.882047032937407" lon="7.168881269171834">
        <ele>2673.0799999999999</ele>
        <time>2016-07-04T08:51:01Z</time>
      </trkpt>
      <trkpt lat="45.882107298821211" lon="7.168911695480347">
        <ele>2672.5999999999999</ele>
        <time>2016-07-04T08:51:13Z</time>
      </trkpt>
      <trkpt lat="45.882173599675298" lon="7.16890842653811">
        <ele>2670.1999999999998</ele>
        <time>2016-07-04T08:51:23Z</time>
      </trkpt>
      <trkpt lat="45.882214503362775" lon="7.168966764584184">
        <ele>2668.2800000000002</ele>
        <time>2016-07-04T08:51:33Z</time>
      </trkpt>
      <trkpt lat="45.882259933277965" lon="7.168980007991195">
        <ele>2666.3499999999999</ele>
        <time>2016-07-04T08:51:41Z</time>
      </trkpt>
      <trkpt lat="45.882328497245908" lon="7.169023007154465">
        <ele>2663.4699999999998</ele>
        <time>2016-07-04T08:51:51Z</time>
      </trkpt>
      <trkpt lat="45.882349787279963" lon="7.169027114287019">
        <ele>2660.5900000000001</ele>
        <time>2016-07-04T08:52:00Z</time>
      </trkpt>
      <trkpt lat="45.882342495024204" lon="7.168984198942781">
        <ele>2659.6199999999999</ele>
        <time>2016-07-04T08:52:04Z</time>
      </trkpt>
      <trkpt lat="45.882297568023205" lon="7.168835001066327">
        <ele>2657.6999999999998</ele>
        <time>2016-07-04T08:52:16Z</time>
      </trkpt>
      <trkpt lat="45.882273344323039" lon="7.168733663856983">
        <ele>2655.7800000000002</ele>
        <time>2016-07-04T08:52:27Z</time>
      </trkpt>
      <trkpt lat="45.882239481434226" lon="7.168634422123432">
        <ele>2655.3000000000002</ele>
        <time>2016-07-04T08:52:37Z</time>
      </trkpt>
      <trkpt lat="45.882217520847917" lon="7.168546495959163">
        <ele>2653.8600000000001</ele>
        <time>2016-07-04T08:52:47Z</time>
      </trkpt>
      <trkpt lat="45.882212743163109" lon="7.168536521494389">
        <ele>2653.3800000000001</ele>
        <time>2016-07-04T08:52:48Z</time>
      </trkpt>
      <trkpt lat="45.882205115631223" lon="7.16846426948905">
        <ele>2651.9299999999998</ele>
        <time>2016-07-04T08:52:57Z</time>
      </trkpt>
      <trkpt lat="45.882291030138731" lon="7.168513052165508">
        <ele>2649.0500000000002</ele>
        <time>2016-07-04T08:53:08Z</time>
      </trkpt>
      <trkpt lat="45.882352637127042" lon="7.16856099665165">
        <ele>2647.1300000000001</ele>
        <time>2016-07-04T08:53:18Z</time>
      </trkpt>
      <trkpt lat="45.882386835291982" lon="7.168588070198894">
        <ele>2646.1700000000001</ele>
        <time>2016-07-04T08:53:26Z</time>
      </trkpt>
      <trkpt lat="45.882399575784802" lon="7.168591003865004">
        <ele>2645.6900000000001</ele>
        <time>2016-07-04T08:53:37Z</time>
      </trkpt>
      <trkpt lat="45.882477024570107" lon="7.168644396588206">
        <ele>2644.2399999999998</ele>
        <time>2016-07-04T08:53:48Z</time>
      </trkpt>
      <trkpt lat="45.882526142522693" lon="7.168701644986868">
        <ele>2641.8400000000001</ele>
        <time>2016-07-04T08:53:58Z</time>
      </trkpt>
      <trkpt lat="45.88257635012269" lon="7.168765598908067">
        <ele>2639.4400000000001</ele>
        <time>2016-07-04T08:54:08Z</time>
      </trkpt>
      <trkpt lat="45.882608201354742" lon="7.168820751830936">
        <ele>2638.96</ele>
        <time>2016-07-04T08:54:17Z</time>
      </trkpt>
      <trkpt lat="45.88263644836843" lon="7.168886549770832">
        <ele>2637.0300000000002</ele>
        <time>2016-07-04T08:54:27Z</time>
      </trkpt>
      <trkpt lat="45.882644830271602" lon="7.168939607217908">
        <ele>2636.5500000000002</ele>
        <time>2016-07-04T08:54:37Z</time>
      </trkpt>
      <trkpt lat="45.882665030658245" lon="7.168989144265652">
        <ele>2635.5900000000001</ele>
        <time>2016-07-04T08:54:46Z</time>
      </trkpt>
      <trkpt lat="45.882687913253903" lon="7.169018732383847">
        <ele>2635.1100000000001</ele>
        <time>2016-07-04T08:54:54Z</time>
      </trkpt>
      <trkpt lat="45.882730577141047" lon="7.169037759304047">
        <ele>2633.1900000000001</ele>
        <time>2016-07-04T08:55:04Z</time>
      </trkpt>
      <trkpt lat="45.882760835811496" lon="7.169063910841942">
        <ele>2631.75</ele>
        <time>2016-07-04T08:55:15Z</time>
      </trkpt>
      <trkpt lat="45.882780281826854" lon="7.169080255553126">
        <ele>2629.8200000000002</ele>
        <time>2016-07-04T08:55:23Z</time>
      </trkpt>
      <trkpt lat="45.882818251848221" lon="7.169100288301706">
        <ele>2628.3800000000001</ele>
        <time>2016-07-04T08:55:34Z</time>
      </trkpt>
      <trkpt lat="45.882851611822844" lon="7.169112777337432">
        <ele>2627.4200000000001</ele>
        <time>2016-07-04T08:55:41Z</time>
      </trkpt>
      <trkpt lat="45.882889665663242" lon="7.169165834784508">
        <ele>2625.98</ele>
        <time>2016-07-04T08:55:49Z</time>
      </trkpt>
      <trkpt lat="45.882923696190119" lon="7.169233141466975">
        <ele>2625.5</ele>
        <time>2016-07-04T08:55:59Z</time>
      </trkpt>
      <trkpt lat="45.88293207809329" lon="7.16920891776681">
        <ele>2622.6100000000001</ele>
        <time>2016-07-04T08:56:09Z</time>
      </trkpt>
      <trkpt lat="45.882954625412822" lon="7.169101126492024">
        <ele>2620.21</ele>
        <time>2016-07-04T08:56:22Z</time>
      </trkpt>
      <trkpt lat="45.882959486916661" lon="7.168991239741445">
        <ele>2617.8099999999999</ele>
        <time>2016-07-04T08:56:33Z</time>
      </trkpt>
      <trkpt lat="45.882952529937029" lon="7.168987384065986">
        <ele>2618.29</ele>
        <time>2016-07-04T08:56:46Z</time>
      </trkpt>
      <trkpt lat="45.882962169125676" lon="7.168867187574506">
        <ele>2616.3699999999999</ele>
        <time>2016-07-04T08:56:58Z</time>
      </trkpt>
      <trkpt lat="45.883041210472584" lon="7.168737268075347">
        <ele>2613.48</ele>
        <time>2016-07-04T08:57:12Z</time>
      </trkpt>
      <trkpt lat="45.883079767227173" lon="7.168700639158487">
        <ele>2612.52</ele>
        <time>2016-07-04T08:57:22Z</time>
      </trkpt>
      <trkpt lat="45.883075827732682" lon="7.168694688007236">
        <ele>2612.04</ele>
        <time>2016-07-04T08:57:37Z</time>
      </trkpt>
      <trkpt lat="45.883077085018158" lon="7.168703237548471">
        <ele>2612.04</ele>
        <time>2016-07-04T08:57:54Z</time>
      </trkpt>
      <trkpt lat="45.883082952350378" lon="7.168699130415916">
        <ele>2612.04</ele>
        <time>2016-07-04T08:58:10Z</time>
      </trkpt>
      <trkpt lat="45.883082197979093" lon="7.168707847595215">
        <ele>2612.04</ele>
        <time>2016-07-04T08:58:23Z</time>
      </trkpt>
      <trkpt lat="45.883074905723333" lon="7.1687051653862">
        <ele>2612.04</ele>
        <time>2016-07-04T08:58:40Z</time>
      </trkpt>
      <trkpt lat="45.883055124431849" lon="7.168700722977519">
        <ele>2612.04</ele>
        <time>2016-07-04T08:58:56Z</time>
      </trkpt>
      <trkpt lat="45.883063338696957" lon="7.16871153563261">
        <ele>2611.5599999999999</ele>
        <time>2016-07-04T08:59:05Z</time>
      </trkpt>
      <trkpt lat="45.883086388930678" lon="7.168710697442293">
        <ele>2611.0799999999999</ele>
        <time>2016-07-04T08:59:20Z</time>
      </trkpt>
      <trkpt lat="45.883077587932348" lon="7.168704997748137">
        <ele>2612.04</ele>
        <time>2016-07-04T08:59:34Z</time>
      </trkpt>
      <trkpt lat="45.883067613467574" lon="7.168694017454982">
        <ele>2611.5599999999999</ele>
        <time>2016-07-04T08:59:45Z</time>
      </trkpt>
      <trkpt lat="45.883109020069242" lon="7.168658142909408">
        <ele>2611.5599999999999</ele>
        <time>2016-07-04T08:59:57Z</time>
      </trkpt>
      <trkpt lat="45.883125364780426" lon="7.168741710484028">
        <ele>2609.6399999999999</ele>
        <time>2016-07-04T09:00:08Z</time>
      </trkpt>
      <trkpt lat="45.883116396144032" lon="7.16878479346633">
        <ele>2609.1599999999999</ele>
        <time>2016-07-04T09:00:20Z</time>
      </trkpt>
      <trkpt lat="45.883113378658891" lon="7.168798623606563">
        <ele>2608.6700000000001</ele>
        <time>2016-07-04T09:00:29Z</time>
      </trkpt>
      <trkpt lat="45.883103488013148" lon="7.168817315250635">
        <ele>2608.1900000000001</ele>
        <time>2016-07-04T09:00:40Z</time>
      </trkpt>
      <trkpt lat="45.883114719763398" lon="7.168884873390198">
        <ele>2607.23</ele>
        <time>2016-07-04T09:00:51Z</time>
      </trkpt>
      <trkpt lat="45.883143302053213" lon="7.168934242799878">
        <ele>2605.79</ele>
        <time>2016-07-04T09:00:57Z</time>
      </trkpt>
      <trkpt lat="45.883206753060222" lon="7.169057205319405">
        <ele>2602.4299999999998</ele>
        <time>2016-07-04T09:01:09Z</time>
      </trkpt>
      <trkpt lat="45.88323793374002" lon="7.169129205867648">
        <ele>2600.98</ele>
        <time>2016-07-04T09:01:21Z</time>
      </trkpt>
      <trkpt lat="45.883271712809801" lon="7.169154603034258">
        <ele>2599.54</ele>
        <time>2016-07-04T09:01:31Z</time>
      </trkpt>
      <trkpt lat="45.883308341726661" lon="7.169202631339431">
        <ele>2597.6199999999999</ele>
        <time>2016-07-04T09:01:41Z</time>
      </trkpt>
      <trkpt lat="45.883332649245858" lon="7.169196512550116">
        <ele>2596.6599999999999</ele>
        <time>2016-07-04T09:02:00Z</time>
      </trkpt>
      <trkpt lat="45.883324602618814" lon="7.169082099571824">
        <ele>2594.7399999999998</ele>
        <time>2016-07-04T09:02:11Z</time>
      </trkpt>
      <trkpt lat="45.883329464122653" lon="7.169058127328754">
        <ele>2594.25</ele>
        <time>2016-07-04T09:02:13Z</time>
      </trkpt>
      <trkpt lat="45.883346227928996" lon="7.168911779299378">
        <ele>2592.3299999999999</ele>
        <time>2016-07-04T09:02:25Z</time>
      </trkpt>
      <trkpt lat="45.883382521569729" lon="7.168771466240287">
        <ele>2590.4099999999999</ele>
        <time>2016-07-04T09:02:36Z</time>
      </trkpt>
      <trkpt lat="45.883431555703282" lon="7.168788900598884">
        <ele>2588.9699999999998</ele>
        <time>2016-07-04T09:02:45Z</time>
      </trkpt>
      <trkpt lat="45.883460473269224" lon="7.168937511742115">
        <ele>2587.04</ele>
        <time>2016-07-04T09:02:57Z</time>
      </trkpt>
      <trkpt lat="45.883478745818138" lon="7.168977074325085">
        <ele>2586.5599999999999</ele>
        <time>2016-07-04T09:03:01Z</time>
      </trkpt>
      <trkpt lat="45.883531887084246" lon="7.16900666244328">
        <ele>2584.1599999999999</ele>
        <time>2016-07-04T09:03:13Z</time>
      </trkpt>
      <trkpt lat="45.883548315614462" lon="7.168975230306387">
        <ele>2582.2399999999998</ele>
        <time>2016-07-04T09:03:21Z</time>
      </trkpt>
      <trkpt lat="45.883546806871891" lon="7.168966010212898">
        <ele>2582.2399999999998</ele>
        <time>2016-07-04T09:03:22Z</time>
      </trkpt>
      <trkpt lat="45.88354135863483" lon="7.168940110132098">
        <ele>2582.2399999999998</ele>
        <time>2016-07-04T09:03:24Z</time>
      </trkpt>
      <trkpt lat="45.883556865155697" lon="7.168814465403557">
        <ele>2579.8400000000001</ele>
        <time>2016-07-04T09:03:36Z</time>
      </trkpt>
      <trkpt lat="45.883617801591754" lon="7.168901637196541">
        <ele>2577.4299999999998</ele>
        <time>2016-07-04T09:03:46Z</time>
      </trkpt>
      <trkpt lat="45.88365375995636" lon="7.168904487043619">
        <ele>2576.4699999999998</ele>
        <time>2016-07-04T09:03:52Z</time>
      </trkpt>
      <trkpt lat="45.883707320317626" lon="7.168948156759143">
        <ele>2575.0300000000002</ele>
        <time>2016-07-04T09:04:01Z</time>
      </trkpt>
      <trkpt lat="45.883763311430812" lon="7.169035580009222">
        <ele>2572.1399999999999</ele>
        <time>2016-07-04T09:04:12Z</time>
      </trkpt>
      <trkpt lat="45.883741853758693" lon="7.168980846181512">
        <ele>2571.1799999999998</ele>
        <time>2016-07-04T09:04:19Z</time>
      </trkpt>
      <trkpt lat="45.883705727756023" lon="7.168859895318747">
        <ele>2569.2600000000002</ele>
        <time>2016-07-04T09:04:30Z</time>
      </trkpt>
      <trkpt lat="45.883657447993755" lon="7.168804407119751">
        <ele>2567.3400000000001</ele>
        <time>2016-07-04T09:04:39Z</time>
      </trkpt>
      <trkpt lat="45.883626015856862" lon="7.168729472905397">
        <ele>2566.3800000000001</ele>
        <time>2016-07-04T09:04:46Z</time>
      </trkpt>
      <trkpt lat="45.883579161018133" lon="7.168589914217591">
        <ele>2563.9699999999998</ele>
        <time>2016-07-04T09:04:57Z</time>
      </trkpt>
      <trkpt lat="45.883543202653527" lon="7.16851263307035">
        <ele>2562.0500000000002</ele>
        <time>2016-07-04T09:05:08Z</time>
      </trkpt>
      <trkpt lat="45.883537670597434" lon="7.168422695249319">
        <ele>2560.6100000000001</ele>
        <time>2016-07-04T09:05:20Z</time>
      </trkpt>
      <trkpt lat="45.883517973124981" lon="7.168313227593899">
        <ele>2559.1700000000001</ele>
        <time>2016-07-04T09:05:29Z</time>
      </trkpt>
      <trkpt lat="45.883597601205111" lon="7.168301828205586">
        <ele>2557.2399999999998</ele>
        <time>2016-07-04T09:05:39Z</time>
      </trkpt>
      <trkpt lat="45.883609335869551" lon="7.168287495151162">
        <ele>2555.8000000000002</ele>
        <time>2016-07-04T09:05:43Z</time>
      </trkpt>
      <trkpt lat="45.883547142148018" lon="7.16822144575417">
        <ele>2553.8800000000001</ele>
        <time>2016-07-04T09:05:53Z</time>
      </trkpt>
      <trkpt lat="45.883480757474899" lon="7.168144332244992">
        <ele>2551.48</ele>
        <time>2016-07-04T09:06:05Z</time>
      </trkpt>
      <trkpt lat="45.883422922343016" lon="7.168090268969536">
        <ele>2549.5500000000002</ele>
        <time>2016-07-04T09:06:16Z</time>
      </trkpt>
      <trkpt lat="45.883358381688595" lon="7.167991194874048">
        <ele>2546.6700000000001</ele>
        <time>2016-07-04T09:06:31Z</time>
      </trkpt>
      <trkpt lat="45.883325021713972" lon="7.167887929826975">
        <ele>2545.71</ele>
        <time>2016-07-04T09:06:43Z</time>
      </trkpt>
      <trkpt lat="45.883305659517646" lon="7.167802266776562">
        <ele>2543.79</ele>
        <time>2016-07-04T09:06:54Z</time>
      </trkpt>
      <trkpt lat="45.883304234594107" lon="7.167741749435663">
        <ele>2543.3099999999999</ele>
        <time>2016-07-04T09:06:59Z</time>
      </trkpt>
      <trkpt lat="45.883374391123652" lon="7.167777121067047">
        <ele>2541.8600000000001</ele>
        <time>2016-07-04T09:07:09Z</time>
      </trkpt>
      <trkpt lat="45.883412947878242" lon="7.167794974520803">
        <ele>2540.9000000000001</ele>
        <time>2016-07-04T09:07:19Z</time>
      </trkpt>
      <trkpt lat="45.8834392670542" lon="7.167804446071386">
        <ele>2539.46</ele>
        <time>2016-07-04T09:07:29Z</time>
      </trkpt>
      <trkpt lat="45.883480757474899" lon="7.167854988947511">
        <ele>2538.02</ele>
        <time>2016-07-04T09:07:37Z</time>
      </trkpt>
      <trkpt lat="45.88353113271296" lon="7.167886337265372">
        <ele>2537.0599999999999</ele>
        <time>2016-07-04T09:07:46Z</time>
      </trkpt>
      <trkpt lat="45.883532473817468" lon="7.16789647936821">
        <ele>2537.0599999999999</ele>
        <time>2016-07-04T09:08:00Z</time>
      </trkpt>
      <trkpt lat="45.883519314229488" lon="7.167875608429313">
        <ele>2536.0999999999999</ele>
        <time>2016-07-04T09:08:04Z</time>
      </trkpt>
      <trkpt lat="45.883491570129991" lon="7.167801931500435">
        <ele>2534.6500000000001</ele>
        <time>2016-07-04T09:08:11Z</time>
      </trkpt>
      <trkpt lat="45.883427448570728" lon="7.167717777192593">
        <ele>2533.6900000000001</ele>
        <time>2016-07-04T09:08:22Z</time>
      </trkpt>
      <trkpt lat="45.883415462449193" lon="7.167705623432994">
        <ele>2533.21</ele>
        <time>2016-07-04T09:08:23Z</time>
      </trkpt>
      <trkpt lat="45.88347539305687" lon="7.167656421661377">
        <ele>2531.29</ele>
        <time>2016-07-04T09:08:32Z</time>
      </trkpt>
      <trkpt lat="45.883497521281242" lon="7.167658600956202">
        <ele>2530.8099999999999</ele>
        <time>2016-07-04T09:08:35Z</time>
      </trkpt>
      <trkpt lat="45.883566252887249" lon="7.167712412774563">
        <ele>2529.3699999999999</ele>
        <time>2016-07-04T09:08:47Z</time>
      </trkpt>
      <trkpt lat="45.88353700004518" lon="7.167743341997266">
        <ele>2529.3699999999999</ele>
        <time>2016-07-04T09:09:03Z</time>
      </trkpt>
      <trkpt lat="45.883562313392758" lon="7.167715430259705">
        <ele>2528.8899999999999</ele>
        <time>2016-07-04T09:09:12Z</time>
      </trkpt>
      <trkpt lat="45.883610090240836" lon="7.167757423594594">
        <ele>2526</ele>
        <time>2016-07-04T09:09:23Z</time>
      </trkpt>
      <trkpt lat="45.883617550134659" lon="7.167759099975228">
        <ele>2525.52</ele>
        <time>2016-07-04T09:09:24Z</time>
      </trkpt>
      <trkpt lat="45.883652837947011" lon="7.16775574721396">
        <ele>2523.1199999999999</ele>
        <time>2016-07-04T09:09:34Z</time>
      </trkpt>
      <trkpt lat="45.883646048605442" lon="7.167748874053359">
        <ele>2523.1199999999999</ele>
        <time>2016-07-04T09:09:35Z</time>
      </trkpt>
      <trkpt lat="45.883661722764373" lon="7.167677711695433">
        <ele>2521.6799999999998</ele>
        <time>2016-07-04T09:09:45Z</time>
      </trkpt>
      <trkpt lat="45.883745038881898" lon="7.167773516848683">
        <ele>2518.79</ele>
        <time>2016-07-04T09:09:57Z</time>
      </trkpt>
      <trkpt lat="45.883796755224466" lon="7.167844260111451">
        <ele>2517.8299999999999</ele>
        <time>2016-07-04T09:10:05Z</time>
      </trkpt>
      <trkpt lat="45.883813686668873" lon="7.167868567630649">
        <ele>2517.8299999999999</ele>
        <time>2016-07-04T09:10:07Z</time>
      </trkpt>
      <trkpt lat="45.883885771036148" lon="7.167925732210279">
        <ele>2515.9099999999999</ele>
        <time>2016-07-04T09:10:17Z</time>
      </trkpt>
      <trkpt lat="45.883890464901924" lon="7.167917350307107">
        <ele>2515.4299999999998</ele>
        <time>2016-07-04T09:10:19Z</time>
      </trkpt>
      <trkpt lat="45.883906977251172" lon="7.167940568178892">
        <ele>2514.9499999999998</ele>
        <time>2016-07-04T09:10:27Z</time>
      </trkpt>
      <trkpt lat="45.883980570361018" lon="7.167998487129808">
        <ele>2511.5799999999999</ele>
        <time>2016-07-04T09:10:41Z</time>
      </trkpt>
      <trkpt lat="45.883994568139315" lon="7.167990356683731">
        <ele>2510.6199999999999</ele>
        <time>2016-07-04T09:10:46Z</time>
      </trkpt>
      <trkpt lat="45.884004961699247" lon="7.167962612584233">
        <ele>2508.2199999999998</ele>
        <time>2016-07-04T09:10:56Z</time>
      </trkpt>
      <trkpt lat="45.883998591452837" lon="7.167950877919793">
        <ele>2508.2199999999998</ele>
        <time>2016-07-04T09:10:57Z</time>
      </trkpt>
      <trkpt lat="45.883943689987063" lon="7.167832273989916">
        <ele>2506.77</ele>
        <time>2016-07-04T09:11:09Z</time>
      </trkpt>
      <trkpt lat="45.883921813219786" lon="7.167766476050019">
        <ele>2504.8499999999999</ele>
        <time>2016-07-04T09:11:17Z</time>
      </trkpt>
      <trkpt lat="45.883894572034478" lon="7.16768248938024">
        <ele>2502.9299999999998</ele>
        <time>2016-07-04T09:11:28Z</time>
      </trkpt>
      <trkpt lat="45.883881244808435" lon="7.167622642591596">
        <ele>2501.4899999999998</ele>
        <time>2016-07-04T09:11:34Z</time>
      </trkpt>
      <trkpt lat="45.883865989744663" lon="7.167491801083088">
        <ele>2499.5700000000002</ele>
        <time>2016-07-04T09:11:46Z</time>
      </trkpt>
      <trkpt lat="45.883838245645165" lon="7.167425667867065">
        <ele>2498.5999999999999</ele>
        <time>2016-07-04T09:11:56Z</time>
      </trkpt>
      <trkpt lat="45.883817207068205" lon="7.167394487187266">
        <ele>2497.6399999999999</ele>
        <time>2016-07-04T09:12:06Z</time>
      </trkpt>
      <trkpt lat="45.883760042488575" lon="7.167392559349537">
        <ele>2496.6799999999998</ele>
        <time>2016-07-04T09:12:15Z</time>
      </trkpt>
      <trkpt lat="45.883751073852181" lon="7.167387362569571">
        <ele>2497.1599999999999</ele>
        <time>2016-07-04T09:12:17Z</time>
      </trkpt>
      <trkpt lat="45.883675971999764" lon="7.167340591549873">
        <ele>2496.6799999999998</ele>
        <time>2016-07-04T09:12:29Z</time>
      </trkpt>
      <trkpt lat="45.883659040555358" lon="7.167296838015318">
        <ele>2497.1599999999999</ele>
        <time>2016-07-04T09:12:40Z</time>
      </trkpt>
      <trkpt lat="45.883672451600432" lon="7.167239924892783">
        <ele>2497.1599999999999</ele>
        <time>2016-07-04T09:12:50Z</time>
      </trkpt>
      <trkpt lat="45.883685192093253" lon="7.167223328724504">
        <ele>2497.1599999999999</ele>
        <time>2016-07-04T09:13:07Z</time>
      </trkpt>
      <trkpt lat="45.883680498227477" lon="7.167195081710815">
        <ele>2497.6399999999999</ele>
        <time>2016-07-04T09:13:16Z</time>
      </trkpt>
      <trkpt lat="45.8836913947016" lon="7.167201535776258">
        <ele>2497.6399999999999</ele>
        <time>2016-07-04T09:13:29Z</time>
      </trkpt>
      <trkpt lat="45.883665662258863" lon="7.167187035083771">
        <ele>2497.1599999999999</ele>
        <time>2016-07-04T09:13:45Z</time>
      </trkpt>
      <trkpt lat="45.883672619238496" lon="7.167154597118497">
        <ele>2497.6399999999999</ele>
        <time>2016-07-04T09:14:03Z</time>
      </trkpt>
      <trkpt lat="45.883675049990416" lon="7.167141353711486">
        <ele>2497.1599999999999</ele>
        <time>2016-07-04T09:14:15Z</time>
      </trkpt>
      <trkpt lat="45.883677396923304" lon="7.16714202426374">
        <ele>2497.6399999999999</ele>
        <time>2016-07-04T09:14:27Z</time>
      </trkpt>
      <trkpt lat="45.883676977828145" lon="7.167131211608648">
        <ele>2497.6399999999999</ele>
        <time>2016-07-04T09:14:43Z</time>
      </trkpt>
      <trkpt lat="45.883678821846843" lon="7.167108077555895">
        <ele>2498.1199999999999</ele>
        <time>2016-07-04T09:14:57Z</time>
      </trkpt>
      <trkpt lat="45.883687119930983" lon="7.16709122993052">
        <ele>2497.6399999999999</ele>
        <time>2016-07-04T09:15:13Z</time>
      </trkpt>
      <trkpt lat="45.883680498227477" lon="7.167090140283108">
        <ele>2498.1199999999999</ele>
        <time>2016-07-04T09:15:28Z</time>
      </trkpt>
      <trkpt lat="45.883690640330315" lon="7.16710539534688">
        <ele>2497.6399999999999</ele>
        <time>2016-07-04T09:15:42Z</time>
      </trkpt>
      <trkpt lat="45.883688125759363" lon="7.167098689824343">
        <ele>2498.1199999999999</ele>
        <time>2016-07-04T09:15:58Z</time>
      </trkpt>
      <trkpt lat="45.883657112717628" lon="7.167084105312824">
        <ele>2497.1599999999999</ele>
        <time>2016-07-04T09:16:09Z</time>
      </trkpt>
      <trkpt lat="45.883647641167045" lon="7.167057869955897">
        <ele>2497.1599999999999</ele>
        <time>2016-07-04T09:16:21Z</time>
      </trkpt>
      <trkpt lat="45.883660968393087" lon="7.167061725631356">
        <ele>2497.6399999999999</ele>
        <time>2016-07-04T09:16:32Z</time>
      </trkpt>
      <trkpt lat="45.88367429561913" lon="7.167062060907483">
        <ele>2498.1199999999999</ele>
        <time>2016-07-04T09:16:43Z</time>
      </trkpt>
      <trkpt lat="45.883702710270882" lon="7.167013864964247">
        <ele>2498.1199999999999</ele>
        <time>2016-07-04T09:16:56Z</time>
      </trkpt>
      <trkpt lat="45.883702542632818" lon="7.166998526081443">
        <ele>2497.6399999999999</ele>
        <time>2016-07-04T09:17:09Z</time>
      </trkpt>
      <trkpt lat="45.883708242326975" lon="7.166975056752563">
        <ele>2497.6399999999999</ele>
        <time>2016-07-04T09:17:18Z</time>
      </trkpt>
      <trkpt lat="45.883704051375389" lon="7.166963070631027">
        <ele>2497.1599999999999</ele>
        <time>2016-07-04T09:17:29Z</time>
      </trkpt>
      <trkpt lat="45.883717378601432" lon="7.16695049777627">
        <ele>2496.6799999999998</ele>
        <time>2016-07-04T09:17:33Z</time>
      </trkpt>
      <trkpt lat="45.883732633665204" lon="7.166954185813665">
        <ele>2496.6799999999998</ele>
        <time>2016-07-04T09:17:41Z</time>
      </trkpt>
      <trkpt lat="45.883732633665204" lon="7.166993916034699">
        <ele>2497.1599999999999</ele>
        <time>2016-07-04T09:17:59Z</time>
      </trkpt>
      <trkpt lat="45.883754258975387" lon="7.166965417563915">
        <ele>2496.6799999999998</ele>
        <time>2016-07-04T09:18:19Z</time>
      </trkpt>
      <trkpt lat="45.883781416341662" lon="7.166903726756573">
        <ele>2496.1999999999998</ele>
        <time>2016-07-04T09:18:27Z</time>
      </trkpt>
      <trkpt lat="45.883813938125968" lon="7.166821332648397">
        <ele>2495.7199999999998</ele>
        <time>2016-07-04T09:18:36Z</time>
      </trkpt>
      <trkpt lat="45.883833300322294" lon="7.166776321828365">
        <ele>2494.7600000000002</ele>
        <time>2016-07-04T09:18:46Z</time>
      </trkpt>
      <trkpt lat="45.883841682225466" lon="7.166730053722858">
        <ele>2494.7600000000002</ele>
        <time>2016-07-04T09:18:55Z</time>
      </trkpt>
      <trkpt lat="45.883827013894916" lon="7.166696190834045">
        <ele>2494.7600000000002</ele>
        <time>2016-07-04T09:19:07Z</time>
      </trkpt>
      <trkpt lat="45.883825337514281" lon="7.166684372350574">
        <ele>2494.7600000000002</ele>
        <time>2016-07-04T09:19:24Z</time>
      </trkpt>
      <trkpt lat="45.883839502930641" lon="7.166682528331876">
        <ele>2494.7600000000002</ele>
        <time>2016-07-04T09:19:35Z</time>
      </trkpt>
      <trkpt lat="45.883877892047167" lon="7.166579347103834">
        <ele>2494.7600000000002</ele>
        <time>2016-07-04T09:19:46Z</time>
      </trkpt>
      <trkpt lat="45.883884849026799" lon="7.16654690913856">
        <ele>2494.7600000000002</ele>
        <time>2016-07-04T09:19:49Z</time>
      </trkpt>
      <trkpt lat="45.883894991129637" lon="7.16641103848815">
        <ele>2494.2800000000002</ele>
        <time>2016-07-04T09:20:02Z</time>
      </trkpt>
      <trkpt lat="45.883915862068534" lon="7.16639737598598">
        <ele>2493.8000000000002</ele>
        <time>2016-07-04T09:20:05Z</time>
      </trkpt>
      <trkpt lat="45.883949305862188" lon="7.166419504210353">
        <ele>2493.3200000000002</ele>
        <time>2016-07-04T09:20:09Z</time>
      </trkpt>
      <trkpt lat="45.883944444358349" lon="7.166548920795322">
        <ele>2491.3899999999999</ele>
        <time>2016-07-04T09:20:19Z</time>
      </trkpt>
      <trkpt lat="45.883954586461186" lon="7.166669704020023">
        <ele>2488.0300000000002</ele>
        <time>2016-07-04T09:20:31Z</time>
      </trkpt>
      <trkpt lat="45.883976379409432" lon="7.166690826416016">
        <ele>2486.5900000000001</ele>
        <time>2016-07-04T09:20:38Z</time>
      </trkpt>
      <trkpt lat="45.88399825617671" lon="7.166649084538221">
        <ele>2486.1100000000001</ele>
        <time>2016-07-04T09:20:41Z</time>
      </trkpt>
      <trkpt lat="45.88402071967721" lon="7.166500808671117">
        <ele>2486.1100000000001</ele>
        <time>2016-07-04T09:20:53Z</time>
      </trkpt>
      <trkpt lat="45.884017450734973" lon="7.166364183649421">
        <ele>2485.6300000000001</ele>
        <time>2016-07-04T09:21:05Z</time>
      </trkpt>
      <trkpt lat="45.884013595059514" lon="7.166342558339238">
        <ele>2485.1500000000001</ele>
        <time>2016-07-04T09:21:07Z</time>
      </trkpt>
      <trkpt lat="45.884025078266859" lon="7.166226720437408">
        <ele>2483.2199999999998</ele>
        <time>2016-07-04T09:21:18Z</time>
      </trkpt>
      <trkpt lat="45.884035807102919" lon="7.166156731545925">
        <ele>2482.7399999999998</ele>
        <time>2016-07-04T09:21:27Z</time>
      </trkpt>
      <trkpt lat="45.884028850123286" lon="7.16610124334693">
        <ele>2482.2600000000002</ele>
        <time>2016-07-04T09:21:39Z</time>
      </trkpt>
      <trkpt lat="45.88403488509357" lon="7.166044833138585">
        <ele>2481.7800000000002</ele>
        <time>2016-07-04T09:21:51Z</time>
      </trkpt>
      <trkpt lat="45.88405835442245" lon="7.166009126231074">
        <ele>2481.3000000000002</ele>
        <time>2016-07-04T09:22:01Z</time>
      </trkpt>
      <trkpt lat="45.884082997217774" lon="7.165951458737254">
        <ele>2480.3400000000001</ele>
        <time>2016-07-04T09:22:13Z</time>
      </trkpt>
      <trkpt lat="45.884110573679209" lon="7.165921200066805">
        <ele>2479.8600000000001</ele>
        <time>2016-07-04T09:22:27Z</time>
      </trkpt>
      <trkpt lat="45.884114010259509" lon="7.16590921394527">
        <ele>2479.3800000000001</ele>
        <time>2016-07-04T09:22:39Z</time>
      </trkpt>
      <trkpt lat="45.884117949754" lon="7.165927486494184">
        <ele>2478.4200000000001</ele>
        <time>2016-07-04T09:22:50Z</time>
      </trkpt>
      <trkpt lat="45.884144101291895" lon="7.1659214515239">
        <ele>2477.4499999999998</ele>
        <time>2016-07-04T09:22:55Z</time>
      </trkpt>
      <trkpt lat="45.884173773229122" lon="7.165873423218727">
        <ele>2476.0100000000002</ele>
        <time>2016-07-04T09:23:05Z</time>
      </trkpt>
      <trkpt lat="45.884211910888553" lon="7.16580955311656">
        <ele>2474.0900000000001</ele>
        <time>2016-07-04T09:23:15Z</time>
      </trkpt>
      <trkpt lat="45.884199673309922" lon="7.165792118757963">
        <ele>2473.1300000000001</ele>
        <time>2016-07-04T09:23:26Z</time>
      </trkpt>
      <trkpt lat="45.884199002757668" lon="7.165788346901536">
        <ele>2472.6500000000001</ele>
        <time>2016-07-04T09:23:37Z</time>
      </trkpt>
      <trkpt lat="45.884238732978702" lon="7.165800333023071">
        <ele>2473.1300000000001</ele>
        <time>2016-07-04T09:23:49Z</time>
      </trkpt>
      <trkpt lat="45.884289275854826" lon="7.165747191756964">
        <ele>2472.1700000000001</ele>
        <time>2016-07-04T09:23:59Z</time>
      </trkpt>
      <trkpt lat="45.884296987205744" lon="7.165730344131589">
        <ele>2471.6900000000001</ele>
        <time>2016-07-04T09:24:10Z</time>
      </trkpt>
      <trkpt lat="45.884322635829449" lon="7.165726907551289">
        <ele>2471.21</ele>
        <time>2016-07-04T09:24:29Z</time>
      </trkpt>
      <trkpt lat="45.8843510504812" lon="7.165742330253124">
        <ele>2470.73</ele>
        <time>2016-07-04T09:24:40Z</time>
      </trkpt>
      <trkpt lat="45.884330766275525" lon="7.165762111544609">
        <ele>2470.73</ele>
        <time>2016-07-04T09:24:59Z</time>
      </trkpt>
      <trkpt lat="45.884285336360335" lon="7.165744341909885">
        <ele>2471.21</ele>
        <time>2016-07-04T09:25:18Z</time>
      </trkpt>
      <trkpt lat="45.884273434057832" lon="7.165727494284511">
        <ele>2470.73</ele>
        <time>2016-07-04T09:25:39Z</time>
      </trkpt>
      <trkpt lat="45.884289024397731" lon="7.165754651650786">
        <ele>2470.73</ele>
        <time>2016-07-04T09:25:56Z</time>
      </trkpt>
      <trkpt lat="45.884337387979031" lon="7.165721207857132">
        <ele>2471.21</ele>
        <time>2016-07-04T09:26:06Z</time>
      </trkpt>
      <trkpt lat="45.884338980540633" lon="7.165725482627749">
        <ele>2471.21</ele>
        <time>2016-07-04T09:26:16Z</time>
      </trkpt>
      <trkpt lat="45.884356498718262" lon="7.165672760456801">
        <ele>2469.7600000000002</ele>
        <time>2016-07-04T09:26:24Z</time>
      </trkpt>
      <trkpt lat="45.88436714373529" lon="7.165648117661476">
        <ele>2469.2800000000002</ele>
        <time>2016-07-04T09:26:26Z</time>
      </trkpt>
      <trkpt lat="45.884360689669847" lon="7.165611740201712">
        <ele>2468.8000000000002</ele>
        <time>2016-07-04T09:26:29Z</time>
      </trkpt>
      <trkpt lat="45.884404275566339" lon="7.1654914598912">
        <ele>2466.8800000000001</ele>
        <time>2016-07-04T09:26:41Z</time>
      </trkpt>
      <trkpt lat="45.884404443204403" lon="7.165422979742289">
        <ele>2465.9200000000001</ele>
        <time>2016-07-04T09:26:51Z</time>
      </trkpt>
      <trkpt lat="45.884417183697224" lon="7.165333880111575">
        <ele>2465.4400000000001</ele>
        <time>2016-07-04T09:27:00Z</time>
      </trkpt>
      <trkpt lat="45.884422631934285" lon="7.165325917303562">
        <ele>2464.96</ele>
        <time>2016-07-04T09:27:01Z</time>
      </trkpt>
      <trkpt lat="45.884454818442464" lon="7.16523053124547">
        <ele>2463.52</ele>
        <time>2016-07-04T09:27:11Z</time>
      </trkpt>
      <trkpt lat="45.884482813999057" lon="7.165128523483872">
        <ele>2462.0700000000002</ele>
        <time>2016-07-04T09:27:22Z</time>
      </trkpt>
      <trkpt lat="45.884495303034782" lon="7.165095414966345">
        <ele>2460.6300000000001</ele>
        <time>2016-07-04T09:27:31Z</time>
      </trkpt>
      <trkpt lat="45.884530507028103" lon="7.165032383054495">
        <ele>2459.1900000000001</ele>
        <time>2016-07-04T09:27:41Z</time>
      </trkpt>
      <trkpt lat="45.884552467614412" lon="7.164964405819774">
        <ele>2458.23</ele>
        <time>2016-07-04T09:27:50Z</time>
      </trkpt>
      <trkpt lat="45.884565627202392" lon="7.164892153814435">
        <ele>2457.27</ele>
        <time>2016-07-04T09:27:59Z</time>
      </trkpt>
      <trkpt lat="45.884591359645128" lon="7.164821662008762">
        <ele>2456.79</ele>
        <time>2016-07-04T09:28:08Z</time>
      </trkpt>
      <trkpt lat="45.88460611179471" lon="7.164770783856511">
        <ele>2456.3099999999999</ele>
        <time>2016-07-04T09:28:15Z</time>
      </trkpt>
      <trkpt lat="45.884637124836445" lon="7.16471646912396">
        <ele>2455.3400000000001</ele>
        <time>2016-07-04T09:28:21Z</time>
      </trkpt>
      <trkpt lat="45.884693618863821" lon="7.164683528244495">
        <ele>2452.9400000000001</ele>
        <time>2016-07-04T09:28:32Z</time>
      </trkpt>
      <trkpt lat="45.884697809815407" lon="7.164626028388739">
        <ele>2451.5</ele>
        <time>2016-07-04T09:28:42Z</time>
      </trkpt>
      <trkpt lat="45.884730499237776" lon="7.164571210741997">
        <ele>2450.0599999999999</ele>
        <time>2016-07-04T09:28:51Z</time>
      </trkpt>
      <trkpt lat="45.884734271094203" lon="7.164554698392749">
        <ele>2449.5799999999999</ele>
        <time>2016-07-04T09:28:54Z</time>
      </trkpt>
      <trkpt lat="45.884698815643787" lon="7.164459563791752">
        <ele>2450.0599999999999</ele>
        <time>2016-07-04T09:29:04Z</time>
      </trkpt>
      <trkpt lat="45.884685404598713" lon="7.164370128884912">
        <ele>2450.0599999999999</ele>
        <time>2016-07-04T09:29:14Z</time>
      </trkpt>
      <trkpt lat="45.884706443175673" lon="7.164278263226152">
        <ele>2448.6199999999999</ele>
        <time>2016-07-04T09:29:26Z</time>
      </trkpt>
      <trkpt lat="45.884726643562317" lon="7.164235264062882">
        <ele>2447.1700000000001</ele>
        <time>2016-07-04T09:29:35Z</time>
      </trkpt>
      <trkpt lat="45.88474634103477" lon="7.164163766428828">
        <ele>2446.6900000000001</ele>
        <time>2016-07-04T09:29:46Z</time>
      </trkpt>
      <trkpt lat="45.884737288579345" lon="7.164140548557043">
        <ele>2446.6900000000001</ele>
        <time>2016-07-04T09:29:55Z</time>
      </trkpt>
      <trkpt lat="45.884774923324585" lon="7.16402554884553">
        <ele>2446.6900000000001</ele>
        <time>2016-07-04T09:30:05Z</time>
      </trkpt>
      <trkpt lat="45.884805517271161" lon="7.163941394537687">
        <ele>2446.21</ele>
        <time>2016-07-04T09:30:15Z</time>
      </trkpt>
      <trkpt lat="45.884825885295868" lon="7.163921697065234">
        <ele>2445.25</ele>
        <time>2016-07-04T09:30:25Z</time>
      </trkpt>
      <trkpt lat="45.884817922487855" lon="7.163881296291947">
        <ele>2445.25</ele>
        <time>2016-07-04T09:30:36Z</time>
      </trkpt>
      <trkpt lat="45.884836362674832" lon="7.163903675973415">
        <ele>2445.25</ele>
        <time>2016-07-04T09:30:47Z</time>
      </trkpt>
      <trkpt lat="45.884814905002713" lon="7.163923708721995">
        <ele>2445.25</ele>
        <time>2016-07-04T09:31:08Z</time>
      </trkpt>
      <trkpt lat="45.88481767103076" lon="7.163914404809475">
        <ele>2444.77</ele>
        <time>2016-07-04T09:31:19Z</time>
      </trkpt>
      <trkpt lat="45.884783556684852" lon="7.163889845833182">
        <ele>2445.25</ele>
        <time>2016-07-04T09:31:34Z</time>
      </trkpt>
      <trkpt lat="45.884819598868489" lon="7.163893785327673">
        <ele>2445.25</ele>
        <time>2016-07-04T09:31:52Z</time>
      </trkpt>
      <trkpt lat="45.88482990860939" lon="7.163899904116988">
        <ele>2444.77</ele>
        <time>2016-07-04T09:32:12Z</time>
      </trkpt>
      <trkpt lat="45.884857233613729" lon="7.163930330425501">
        <ele>2445.25</ele>
        <time>2016-07-04T09:32:31Z</time>
      </trkpt>
      <trkpt lat="45.884852204471827" lon="7.163890432566404">
        <ele>2445.25</ele>
        <time>2016-07-04T09:32:42Z</time>
      </trkpt>
      <trkpt lat="45.884846085682511" lon="7.163889929652214">
        <ele>2445.25</ele>
        <time>2016-07-04T09:33:00Z</time>
      </trkpt>
      <trkpt lat="45.884830579161644" lon="7.16389361768961">
        <ele>2445.25</ele>
        <time>2016-07-04T09:33:12Z</time>
      </trkpt>
      <trkpt lat="45.884822867810726" lon="7.163901999592781">
        <ele>2445.73</ele>
        <time>2016-07-04T09:33:26Z</time>
      </trkpt>
      <trkpt lat="45.884827980771661" lon="7.163933599367738">
        <ele>2445.25</ele>
        <time>2016-07-04T09:33:51Z</time>
      </trkpt>
      <trkpt lat="45.884839799255133" lon="7.163916500285268">
        <ele>2445.25</ele>
        <time>2016-07-04T09:34:09Z</time>
      </trkpt>
      <trkpt lat="45.884820939972997" lon="7.163923121988773">
        <ele>2445.25</ele>
        <time>2016-07-04T09:34:31Z</time>
      </trkpt>
      <trkpt lat="45.8848518691957" lon="7.163946339860559">
        <ele>2445.73</ele>
        <time>2016-07-04T09:34:54Z</time>
      </trkpt>
      <trkpt lat="45.884820772334933" lon="7.163936281576753">
        <ele>2445.73</ele>
        <time>2016-07-04T09:35:19Z</time>
      </trkpt>
      <trkpt lat="45.88484407402575" lon="7.163874506950378">
        <ele>2444.77</ele>
        <time>2016-07-04T09:35:33Z</time>
      </trkpt>
      <trkpt lat="45.884851114824414" lon="7.163868974894285">
        <ele>2445.25</ele>
        <time>2016-07-04T09:35:51Z</time>
      </trkpt>
      <trkpt lat="45.884867794811726" lon="7.16388531960547">
        <ele>2445.25</ele>
        <time>2016-07-04T09:36:11Z</time>
      </trkpt>
      <trkpt lat="45.884870979934931" lon="7.163857659325004">
        <ele>2445.73</ele>
        <time>2016-07-04T09:36:30Z</time>
      </trkpt>
      <trkpt lat="45.88486653752625" lon="7.163854474201798">
        <ele>2445.73</ele>
        <time>2016-07-04T09:36:46Z</time>
      </trkpt>
      <trkpt lat="45.884852707386017" lon="7.163855228573084">
        <ele>2445.73</ele>
        <time>2016-07-04T09:36:59Z</time>
      </trkpt>
      <trkpt lat="45.884865699335933" lon="7.163869561627507">
        <ele>2445.73</ele>
        <time>2016-07-04T09:37:12Z</time>
      </trkpt>
      <trkpt lat="45.884869555011392" lon="7.163896467536688">
        <ele>2445.25</ele>
        <time>2016-07-04T09:37:31Z</time>
      </trkpt>
      <trkpt lat="45.884870477020741" lon="7.163880961015821">
        <ele>2445.73</ele>
        <time>2016-07-04T09:37:43Z</time>
      </trkpt>
      <trkpt lat="45.884837787598372" lon="7.163860006257892">
        <ele>2445.25</ele>
        <time>2016-07-04T09:37:58Z</time>
      </trkpt>
      <trkpt lat="45.884838793426752" lon="7.163879284635186">
        <ele>2445.25</ele>
        <time>2016-07-04T09:38:09Z</time>
      </trkpt>
      <trkpt lat="45.884841978549957" lon="7.163864448666573">
        <ele>2445.25</ele>
        <time>2016-07-04T09:38:24Z</time>
      </trkpt>
      <trkpt lat="45.884876931086183" lon="7.163863526657224">
        <ele>2445.25</ele>
        <time>2016-07-04T09:38:41Z</time>
      </trkpt>
      <trkpt lat="45.884881876409054" lon="7.163831172510982">
        <ele>2445.25</ele>
        <time>2016-07-04T09:38:58Z</time>
      </trkpt>
      <trkpt lat="45.884862514212728" lon="7.163828909397125">
        <ele>2445.25</ele>
        <time>2016-07-04T09:39:13Z</time>
      </trkpt>
      <trkpt lat="45.884830914437771" lon="7.163849025964737">
        <ele>2445.25</ele>
        <time>2016-07-04T09:39:25Z</time>
      </trkpt>
      <trkpt lat="45.884843990206718" lon="7.163835363462567">
        <ele>2444.77</ele>
        <time>2016-07-04T09:39:40Z</time>
      </trkpt>
      <trkpt lat="45.884846923872828" lon="7.163829496130347">
        <ele>2444.77</ele>
        <time>2016-07-04T09:39:58Z</time>
      </trkpt>
      <trkpt lat="45.884820353239775" lon="7.163819689303637">
        <ele>2444.77</ele>
        <time>2016-07-04T09:40:21Z</time>
      </trkpt>
      <trkpt lat="45.884822281077504" lon="7.163819773122668">
        <ele>2445.25</ele>
        <time>2016-07-04T09:40:33Z</time>
      </trkpt>
      <trkpt lat="45.884822029620409" lon="7.163761267438531">
        <ele>2444.29</ele>
        <time>2016-07-04T09:40:42Z</time>
      </trkpt>
      <trkpt lat="45.884830662980676" lon="7.163650626316667">
        <ele>2442.8499999999999</ele>
        <time>2016-07-04T09:40:53Z</time>
      </trkpt>
      <trkpt lat="45.884837619960308" lon="7.163594802841544">
        <ele>2442.3699999999999</ele>
        <time>2016-07-04T09:41:01Z</time>
      </trkpt>
      <trkpt lat="45.884822783991694" lon="7.163545349612832">
        <ele>2441.8899999999999</ele>
        <time>2016-07-04T09:41:12Z</time>
      </trkpt>
      <trkpt lat="45.884823622182012" lon="7.163465721532702">
        <ele>2440.9200000000001</ele>
        <time>2016-07-04T09:41:23Z</time>
      </trkpt>
      <trkpt lat="45.884818509221077" lon="7.163450969383121">
        <ele>2440.4400000000001</ele>
        <time>2016-07-04T09:41:33Z</time>
      </trkpt>
      <trkpt lat="45.884822029620409" lon="7.163440072908998">
        <ele>2440.4400000000001</ele>
        <time>2016-07-04T09:41:34Z</time>
      </trkpt>
      <trkpt lat="45.884839044883847" lon="7.163371592760086">
        <ele>2440.4400000000001</ele>
        <time>2016-07-04T09:41:44Z</time>
      </trkpt>
      <trkpt lat="45.884839799255133" lon="7.163354242220521">
        <ele>2439.96</ele>
        <time>2016-07-04T09:41:53Z</time>
      </trkpt>
      <trkpt lat="45.884859161451459" lon="7.163282744586468">
        <ele>2439.96</ele>
        <time>2016-07-04T09:42:03Z</time>
      </trkpt>
      <trkpt lat="45.884859580546618" lon="7.163237063214183">
        <ele>2439</ele>
        <time>2016-07-04T09:42:11Z</time>
      </trkpt>
      <trkpt lat="45.884889336302876" lon="7.163156429305673">
        <ele>2438.52</ele>
        <time>2016-07-04T09:42:22Z</time>
      </trkpt>
      <trkpt lat="45.884896963834763" lon="7.163137067109346">
        <ele>2438.52</ele>
        <time>2016-07-04T09:42:31Z</time>
      </trkpt>
      <trkpt lat="45.884925713762641" lon="7.163070850074291">
        <ele>2438.52</ele>
        <time>2016-07-04T09:42:42Z</time>
      </trkpt>
      <trkpt lat="45.884960917755961" lon="7.163043105974793">
        <ele>2437.5599999999999</ele>
        <time>2016-07-04T09:42:51Z</time>
      </trkpt>
      <trkpt lat="45.884993355721235" lon="7.163004381582141">
        <ele>2436.1199999999999</ele>
        <time>2016-07-04T09:43:01Z</time>
      </trkpt>
      <trkpt lat="45.885029481723905" lon="7.162969764322043">
        <ele>2434.6799999999998</ele>
        <time>2016-07-04T09:43:12Z</time>
      </trkpt>
      <trkpt lat="45.88507273234427" lon="7.162918131798506">
        <ele>2434.1999999999998</ele>
        <time>2016-07-04T09:43:21Z</time>
      </trkpt>
      <trkpt lat="45.885137021541595" lon="7.162823835387826">
        <ele>2434.1999999999998</ele>
        <time>2016-07-04T09:43:32Z</time>
      </trkpt>
      <trkpt lat="45.885188821703196" lon="7.162758624181151">
        <ele>2433.71</ele>
        <time>2016-07-04T09:43:42Z</time>
      </trkpt>
      <trkpt lat="45.88519929908216" lon="7.162741525098681">
        <ele>2434.6799999999998</ele>
        <time>2016-07-04T09:43:44Z</time>
      </trkpt>
      <trkpt lat="45.88522519916296" lon="7.162702046334744">
        <ele>2433.23</ele>
        <time>2016-07-04T09:43:53Z</time>
      </trkpt>
      <trkpt lat="45.88525746949017" lon="7.162645300850272">
        <ele>2433.71</ele>
        <time>2016-07-04T09:44:03Z</time>
      </trkpt>
      <trkpt lat="45.885292924940586" lon="7.162577407434583">
        <ele>2433.23</ele>
        <time>2016-07-04T09:44:13Z</time>
      </trkpt>
      <trkpt lat="45.88532586582005" lon="7.162523930892348">
        <ele>2433.23</ele>
        <time>2016-07-04T09:44:25Z</time>
      </trkpt>
      <trkpt lat="45.885357549414039" lon="7.162483781576157">
        <ele>2432.75</ele>
        <time>2016-07-04T09:44:37Z</time>
      </trkpt>
      <trkpt lat="45.885405242443085" lon="7.162411445751786">
        <ele>2432.75</ele>
        <time>2016-07-04T09:44:48Z</time>
      </trkpt>
      <trkpt lat="45.885446229949594" lon="7.162363836541772">
        <ele>2432.27</ele>
        <time>2016-07-04T09:44:58Z</time>
      </trkpt>
      <trkpt lat="45.885484535247087" lon="7.162329303100705">
        <ele>2431.3099999999999</ele>
        <time>2016-07-04T09:45:07Z</time>
      </trkpt>
      <trkpt lat="45.885514039546251" lon="7.162301307544112">
        <ele>2430.8299999999999</ele>
        <time>2016-07-04T09:45:16Z</time>
      </trkpt>
      <trkpt lat="45.885536670684814" lon="7.16227532364428">
        <ele>2429.8699999999999</ele>
        <time>2016-07-04T09:45:21Z</time>
      </trkpt>
      <trkpt lat="45.885582771152258" lon="7.162215225398541">
        <ele>2429.8699999999999</ele>
        <time>2016-07-04T09:45:30Z</time>
      </trkpt>
      <trkpt lat="45.885623507201672" lon="7.162146577611566">
        <ele>2428.9099999999999</ele>
        <time>2016-07-04T09:45:40Z</time>
      </trkpt>
      <trkpt lat="45.88564689271152" lon="7.162105422466993">
        <ele>2428.4299999999998</ele>
        <time>2016-07-04T09:45:48Z</time>
      </trkpt>
      <trkpt lat="45.885678408667445" lon="7.162054628133774">
        <ele>2428.4299999999998</ele>
        <time>2016-07-04T09:45:57Z</time>
      </trkpt>
      <trkpt lat="45.885755186900496" lon="7.162019088864327">
        <ele>2427.4699999999998</ele>
        <time>2016-07-04T09:46:08Z</time>
      </trkpt>
      <trkpt lat="45.885783601552248" lon="7.161977933719754">
        <ele>2426.9899999999998</ele>
        <time>2016-07-04T09:46:17Z</time>
      </trkpt>
      <trkpt lat="45.885824421420693" lon="7.161931414157152">
        <ele>2426.5</ele>
        <time>2016-07-04T09:46:26Z</time>
      </trkpt>
      <trkpt lat="45.885874377563596" lon="7.16189662925899">
        <ele>2426.02</ele>
        <time>2016-07-04T09:46:35Z</time>
      </trkpt>
      <trkpt lat="45.885925088077784" lon="7.161822030320764">
        <ele>2425.0599999999999</ele>
        <time>2016-07-04T09:46:43Z</time>
      </trkpt>
      <trkpt lat="45.885979235172272" lon="7.161720609292388">
        <ele>2424.5799999999999</ele>
        <time>2016-07-04T09:46:54Z</time>
      </trkpt>
      <trkpt lat="45.886002453044057" lon="7.16169822961092">
        <ele>2424.0999999999999</ele>
        <time>2016-07-04T09:46:58Z</time>
      </trkpt>
      <trkpt lat="45.886090043932199" lon="7.161624552682042">
        <ele>2422.6599999999999</ele>
        <time>2016-07-04T09:47:10Z</time>
      </trkpt>
      <trkpt lat="45.886104293167591" lon="7.161599071696401">
        <ele>2422.6599999999999</ele>
        <time>2016-07-04T09:47:13Z</time>
      </trkpt>
      <trkpt lat="45.886145951226354" lon="7.161527154967189">
        <ele>2422.1799999999998</ele>
        <time>2016-07-04T09:47:20Z</time>
      </trkpt>
      <trkpt lat="45.886223902925849" lon="7.161367312073708">
        <ele>2421.6999999999998</ele>
        <time>2016-07-04T09:47:32Z</time>
      </trkpt>
      <trkpt lat="45.886266147717834" lon="7.161254910752177">
        <ele>2421.2199999999998</ele>
        <time>2016-07-04T09:47:42Z</time>
      </trkpt>
      <trkpt lat="45.8862972445786" lon="7.161133037880063">
        <ele>2423.1399999999999</ele>
        <time>2016-07-04T09:47:54Z</time>
      </trkpt>
      <trkpt lat="45.886298920959234" lon="7.161072436720133">
        <ele>2423.1399999999999</ele>
        <time>2016-07-04T09:48:04Z</time>
      </trkpt>
      <trkpt lat="45.886304369196296" lon="7.160978810861707">
        <ele>2423.6199999999999</ele>
        <time>2016-07-04T09:48:15Z</time>
      </trkpt>
      <trkpt lat="45.886314176023006" lon="7.160949306562543">
        <ele>2423.6199999999999</ele>
        <time>2016-07-04T09:48:18Z</time>
      </trkpt>
      <trkpt lat="45.886298585683107" lon="7.160877725109458">
        <ele>2425.0599999999999</ele>
        <time>2016-07-04T09:48:29Z</time>
      </trkpt>
      <trkpt lat="45.886262878775597" lon="7.160783763974905">
        <ele>2426.5</ele>
        <time>2016-07-04T09:48:42Z</time>
      </trkpt>
      <trkpt lat="45.886255670338869" lon="7.160685444250703">
        <ele>2427.9499999999998</ele>
        <time>2016-07-04T09:48:52Z</time>
      </trkpt>
      <trkpt lat="45.886255754157901" lon="7.160672368481755">
        <ele>2427.9499999999998</ele>
        <time>2016-07-04T09:48:53Z</time>
      </trkpt>
      <trkpt lat="45.886284587904811" lon="7.160600200295448">
        <ele>2428.4299999999998</ele>
        <time>2016-07-04T09:49:01Z</time>
      </trkpt>
      <trkpt lat="45.886290371417999" lon="7.16054362244904">
        <ele>2429.3899999999999</ele>
        <time>2016-07-04T09:49:12Z</time>
      </trkpt>
      <trkpt lat="45.886294227093458" lon="7.160532055422664">
        <ele>2429.3899999999999</ele>
        <time>2016-07-04T09:49:23Z</time>
      </trkpt>
      <trkpt lat="45.886265225708485" lon="7.160466341301799">
        <ele>2430.8299999999999</ele>
        <time>2016-07-04T09:49:33Z</time>
      </trkpt>
      <trkpt lat="45.886254161596298" lon="7.160375313833356">
        <ele>2432.27</ele>
        <time>2016-07-04T09:49:44Z</time>
      </trkpt>
      <trkpt lat="45.886238738894463" lon="7.160334074869752">
        <ele>2433.23</ele>
        <time>2016-07-04T09:49:53Z</time>
      </trkpt>
      <trkpt lat="45.886229099705815" lon="7.160239610821009">
        <ele>2434.1999999999998</ele>
        <time>2016-07-04T09:50:03Z</time>
      </trkpt>
      <trkpt lat="45.886263633146882" lon="7.160148415714502">
        <ele>2434.6799999999998</ele>
        <time>2016-07-04T09:50:11Z</time>
      </trkpt>
      <trkpt lat="45.886344434693456" lon="7.160083036869764">
        <ele>2434.1999999999998</ele>
        <time>2016-07-04T09:50:22Z</time>
      </trkpt>
      <trkpt lat="45.886355750262737" lon="7.159987566992641">
        <ele>2435.1599999999999</ele>
        <time>2016-07-04T09:50:31Z</time>
      </trkpt>
      <trkpt lat="45.886387266218662" lon="7.159963678568602">
        <ele>2435.6399999999999</ele>
        <time>2016-07-04T09:50:41Z</time>
      </trkpt>
      <trkpt lat="45.886379387229681" lon="7.160030398517847">
        <ele>2435.6399999999999</ele>
        <time>2016-07-04T09:50:58Z</time>
      </trkpt>
      <trkpt lat="45.88636371307075" lon="7.16001003049314">
        <ele>2435.6399999999999</ele>
        <time>2016-07-04T09:51:09Z</time>
      </trkpt>
      <trkpt lat="45.886352732777596" lon="7.15996166691184">
        <ele>2436.1199999999999</ele>
        <time>2016-07-04T09:51:12Z</time>
      </trkpt>
      <trkpt lat="45.886334041133523" lon="7.159834681078792">
        <ele>2437.5599999999999</ele>
        <time>2016-07-04T09:51:24Z</time>
      </trkpt>
      <trkpt lat="45.886324653401971" lon="7.159727141261101">
        <ele>2439</ele>
        <time>2016-07-04T09:51:33Z</time>
      </trkpt>
      <trkpt lat="45.88631191290915" lon="7.159621110185981">
        <ele>2439.96</ele>
        <time>2016-07-04T09:51:43Z</time>
      </trkpt>
      <trkpt lat="45.88631534948945" lon="7.159501500427723">
        <ele>2441.4099999999999</ele>
        <time>2016-07-04T09:51:54Z</time>
      </trkpt>
      <trkpt lat="45.886313086375594" lon="7.159485155716538">
        <ele>2441.4099999999999</ele>
        <time>2016-07-04T09:51:56Z</time>
      </trkpt>
      <trkpt lat="45.886310571804643" lon="7.159348698332906">
        <ele>2442.8499999999999</ele>
        <time>2016-07-04T09:52:08Z</time>
      </trkpt>
      <trkpt lat="45.886318366974592" lon="7.159259766340256">
        <ele>2444.29</ele>
        <time>2016-07-04T09:52:18Z</time>
      </trkpt>
      <trkpt lat="45.886267237365246" lon="7.15917837806046">
        <ele>2445.73</ele>
        <time>2016-07-04T09:52:28Z</time>
      </trkpt>
      <trkpt lat="45.886262459680438" lon="7.159062707796693">
        <ele>2447.1700000000001</ele>
        <time>2016-07-04T09:52:39Z</time>
      </trkpt>
      <trkpt lat="45.886253910139203" lon="7.158962460234761">
        <ele>2447.6500000000001</ele>
        <time>2016-07-04T09:52:49Z</time>
      </trkpt>
      <trkpt lat="45.886278636753559" lon="7.158889370039105">
        <ele>2448.6199999999999</ele>
        <time>2016-07-04T09:52:57Z</time>
      </trkpt>
      <trkpt lat="45.886274445801973" lon="7.158816615119577">
        <ele>2449.0999999999999</ele>
        <time>2016-07-04T09:53:05Z</time>
      </trkpt>
      <trkpt lat="45.886346278712153" lon="7.158744279295206">
        <ele>2449.0999999999999</ele>
        <time>2016-07-04T09:53:15Z</time>
      </trkpt>
      <trkpt lat="45.886340076103806" lon="7.158678062260151">
        <ele>2449.5799999999999</ele>
        <time>2016-07-04T09:53:23Z</time>
      </trkpt>
      <trkpt lat="45.886379135772586" lon="7.158617377281189">
        <ele>2450.54</ele>
        <time>2016-07-04T09:53:33Z</time>
      </trkpt>
      <trkpt lat="45.886428253725171" lon="7.158594075590372">
        <ele>2451.98</ele>
        <time>2016-07-04T09:53:44Z</time>
      </trkpt>
      <trkpt lat="45.886454740539193" lon="7.158554596826434">
        <ele>2452.9400000000001</ele>
        <time>2016-07-04T09:53:53Z</time>
      </trkpt>
      <trkpt lat="45.886465301737189" lon="7.158505730330944">
        <ele>2453.9000000000001</ele>
        <time>2016-07-04T09:53:59Z</time>
      </trkpt>
      <trkpt lat="45.886523136869073" lon="7.158521739766002">
        <ele>2454.8600000000001</ele>
        <time>2016-07-04T09:54:06Z</time>
      </trkpt>
      <trkpt lat="45.886586420238018" lon="7.158588208258152">
        <ele>2455.8200000000002</ele>
        <time>2016-07-04T09:54:16Z</time>
      </trkpt>
      <trkpt lat="45.886605279520154" lon="7.158634308725596">
        <ele>2455.8200000000002</ele>
        <time>2016-07-04T09:54:27Z</time>
      </trkpt>
      <trkpt lat="45.886656241491437" lon="7.158703627064824">
        <ele>2456.79</ele>
        <time>2016-07-04T09:54:36Z</time>
      </trkpt>
      <trkpt lat="45.886684991419315" lon="7.158776549622417">
        <ele>2457.75</ele>
        <time>2016-07-04T09:54:43Z</time>
      </trkpt>
      <trkpt lat="45.886741653084755" lon="7.158852489665151">
        <ele>2458.23</ele>
        <time>2016-07-04T09:54:52Z</time>
      </trkpt>
      <trkpt lat="45.886807953938842" lon="7.158875204622746">
        <ele>2458.71</ele>
        <time>2016-07-04T09:55:00Z</time>
      </trkpt>
      <trkpt lat="45.886890264227986" lon="7.158897081390023">
        <ele>2459.6700000000001</ele>
        <time>2016-07-04T09:55:11Z</time>
      </trkpt>
      <trkpt lat="45.88694809935987" lon="7.15885492041707">
        <ele>2461.5900000000001</ele>
        <time>2016-07-04T09:55:20Z</time>
      </trkpt>
      <trkpt lat="45.886967545375228" lon="7.158762887120247">
        <ele>2462.5500000000002</ele>
        <time>2016-07-04T09:55:31Z</time>
      </trkpt>
      <trkpt lat="45.887011969462037" lon="7.158693568781018">
        <ele>2464.48</ele>
        <time>2016-07-04T09:55:42Z</time>
      </trkpt>
      <trkpt lat="45.887049101293087" lon="7.158634476363659">
        <ele>2465.9200000000001</ele>
        <time>2016-07-04T09:55:52Z</time>
      </trkpt>
      <trkpt lat="45.887069888412952" lon="7.15857295319438">
        <ele>2467.3600000000001</ele>
        <time>2016-07-04T09:56:02Z</time>
      </trkpt>
      <trkpt lat="45.887087658047676" lon="7.158528529107571">
        <ele>2467.8400000000001</ele>
        <time>2016-07-04T09:56:13Z</time>
      </trkpt>
      <trkpt lat="45.887104086577892" lon="7.158527020365">
        <ele>2468.3200000000002</ele>
        <time>2016-07-04T09:56:24Z</time>
      </trkpt>
      <trkpt lat="45.88710006326437" lon="7.158496342599392">
        <ele>2468.8000000000002</ele>
        <time>2016-07-04T09:56:33Z</time>
      </trkpt>
      <trkpt lat="45.887101152911782" lon="7.158478405326605">
        <ele>2468.8000000000002</ele>
        <time>2016-07-04T09:56:35Z</time>
      </trkpt>
      <trkpt lat="45.887125628069043" lon="7.158407829701901">
        <ele>2470.2399999999998</ele>
        <time>2016-07-04T09:56:44Z</time>
      </trkpt>
      <trkpt lat="45.887165442109108" lon="7.158346557989717">
        <ele>2471.21</ele>
        <time>2016-07-04T09:56:54Z</time>
      </trkpt>
      <trkpt lat="45.88715479709208" lon="7.158324513584375">
        <ele>2471.6900000000001</ele>
        <time>2016-07-04T09:56:57Z</time>
      </trkpt>
      <trkpt lat="45.887163346633315" lon="7.158225858584046">
        <ele>2472.6500000000001</ele>
        <time>2016-07-04T09:57:07Z</time>
      </trkpt>
      <trkpt lat="45.887203076854348" lon="7.158142877742648">
        <ele>2474.0900000000001</ele>
        <time>2016-07-04T09:57:17Z</time>
      </trkpt>
      <trkpt lat="45.887202406302094" lon="7.158079678192735">
        <ele>2475.0500000000002</ele>
        <time>2016-07-04T09:57:28Z</time>
      </trkpt>
      <trkpt lat="45.887215565890074" lon="7.158060735091567">
        <ele>2475.0500000000002</ele>
        <time>2016-07-04T09:57:40Z</time>
      </trkpt>
      <trkpt lat="45.887239538133144" lon="7.158019160851836">
        <ele>2476.4899999999998</ele>
        <time>2016-07-04T09:57:46Z</time>
      </trkpt>
      <trkpt lat="45.887277340516448" lon="7.157943053171039">
        <ele>2477.9400000000001</ele>
        <time>2016-07-04T09:57:56Z</time>
      </trkpt>
      <trkpt lat="45.887278094887733" lon="7.157937102019787">
        <ele>2477.9400000000001</ele>
        <time>2016-07-04T09:57:57Z</time>
      </trkpt>
      <trkpt lat="45.887270383536816" lon="7.157913884148002">
        <ele>2478.4200000000001</ele>
        <time>2016-07-04T09:57:59Z</time>
      </trkpt>
      <trkpt lat="45.887254793196917" lon="7.157817408442497">
        <ele>2479.3800000000001</ele>
        <time>2016-07-04T09:58:08Z</time>
      </trkpt>
      <trkpt lat="45.887269545346498" lon="7.157722441479564">
        <ele>2481.3000000000002</ele>
        <time>2016-07-04T09:58:19Z</time>
      </trkpt>
      <trkpt lat="45.887290500104427" lon="7.157728476449847">
        <ele>2482.2600000000002</ele>
        <time>2016-07-04T09:58:28Z</time>
      </trkpt>
      <trkpt lat="45.887324279174209" lon="7.157809110358357">
        <ele>2483.6999999999998</ele>
        <time>2016-07-04T09:58:36Z</time>
      </trkpt>
      <trkpt lat="45.887365518137813" lon="7.157974736765027">
        <ele>2484.6599999999999</ele>
        <time>2016-07-04T09:58:50Z</time>
      </trkpt>
      <trkpt lat="45.88737809099257" lon="7.157999966293573">
        <ele>2485.1500000000001</ele>
        <time>2016-07-04T09:58:53Z</time>
      </trkpt>
      <trkpt lat="45.887423688545823" lon="7.158075235784054">
        <ele>2486.5900000000001</ele>
        <time>2016-07-04T09:59:04Z</time>
      </trkpt>
      <trkpt lat="45.887432238087058" lon="7.158087808638811">
        <ele>2487.0700000000002</ele>
        <time>2016-07-04T09:59:06Z</time>
      </trkpt>
      <trkpt lat="45.887481020763516" lon="7.158202975988388">
        <ele>2488.9899999999998</ele>
        <time>2016-07-04T09:59:18Z</time>
      </trkpt>
      <trkpt lat="45.887488732114434" lon="7.15824312530458">
        <ele>2488.9899999999998</ele>
        <time>2016-07-04T09:59:30Z</time>
      </trkpt>
      <trkpt lat="45.887494264170527" lon="7.15830615721643">
        <ele>2489.9499999999998</ele>
        <time>2016-07-04T09:59:44Z</time>
      </trkpt>
      <trkpt lat="45.887504322454333" lon="7.158409422263503">
        <ele>2491.3899999999999</ele>
        <time>2016-07-04T09:59:55Z</time>
      </trkpt>
      <trkpt lat="45.887536173686385" lon="7.158484105020762">
        <ele>2493.3200000000002</ele>
        <time>2016-07-04T10:00:05Z</time>
      </trkpt>
      <trkpt lat="45.887576239183545" lon="7.158564487472177">
        <ele>2494.7600000000002</ele>
        <time>2016-07-04T10:00:16Z</time>
      </trkpt>
      <trkpt lat="45.88760138489306" lon="7.158623496070504">
        <ele>2496.6799999999998</ele>
        <time>2016-07-04T10:00:27Z</time>
      </trkpt>
      <trkpt lat="45.887604234740138" lon="7.158649982884526">
        <ele>2496.6799999999998</ele>
        <time>2016-07-04T10:00:29Z</time>
      </trkpt>
      <trkpt lat="45.887649832293391" lon="7.158734304830432">
        <ele>2498.5999999999999</ele>
        <time>2016-07-04T10:00:42Z</time>
      </trkpt>
      <trkpt lat="45.887663578614593" lon="7.158799013122916">
        <ele>2500.5300000000002</ele>
        <time>2016-07-04T10:00:53Z</time>
      </trkpt>
      <trkpt lat="45.887678833678365" lon="7.158885598182678">
        <ele>2501.4899999999998</ele>
        <time>2016-07-04T10:01:04Z</time>
      </trkpt>
      <trkpt lat="45.887712780386209" lon="7.158971428871155">
        <ele>2502.9299999999998</ele>
        <time>2016-07-04T10:01:15Z</time>
      </trkpt>
      <trkpt lat="45.887718731537461" lon="7.159066395834088">
        <ele>2504.8499999999999</ele>
        <time>2016-07-04T10:01:27Z</time>
      </trkpt>
      <trkpt lat="45.887753684073687" lon="7.15917251072824">
        <ele>2506.77</ele>
        <time>2016-07-04T10:01:39Z</time>
      </trkpt>
      <trkpt lat="45.887779081240296" lon="7.159256748855114">
        <ele>2507.7399999999998</ele>
        <time>2016-07-04T10:01:50Z</time>
      </trkpt>
      <trkpt lat="45.887821242213249" lon="7.159366300329566">
        <ele>2509.6599999999999</ele>
        <time>2016-07-04T10:02:04Z</time>
      </trkpt>
      <trkpt lat="45.887864995747805" lon="7.15945053845644">
        <ele>2511.0999999999999</ele>
        <time>2016-07-04T10:02:15Z</time>
      </trkpt>
      <trkpt lat="45.887897349894047" lon="7.159527568146586">
        <ele>2511.5799999999999</ele>
        <time>2016-07-04T10:02:25Z</time>
      </trkpt>
      <trkpt lat="45.887954011559486" lon="7.159515414386988">
        <ele>2512.0599999999999</ele>
        <time>2016-07-04T10:02:36Z</time>
      </trkpt>
      <trkpt lat="45.88799768127501" lon="7.159479204565287">
        <ele>2513.02</ele>
        <time>2016-07-04T10:02:47Z</time>
      </trkpt>
      <trkpt lat="45.888032969087362" lon="7.159432433545589">
        <ele>2515.4299999999998</ele>
        <time>2016-07-04T10:02:58Z</time>
      </trkpt>
      <trkpt lat="45.888089630752802" lon="7.159392535686493">
        <ele>2516.8699999999999</ele>
        <time>2016-07-04T10:03:10Z</time>
      </trkpt>
      <trkpt lat="45.888151070103049" lon="7.159363701939583">
        <ele>2518.79</ele>
        <time>2016-07-04T10:03:21Z</time>
      </trkpt>
      <trkpt lat="45.888193398714066" lon="7.159323049709201">
        <ele>2520.71</ele>
        <time>2016-07-04T10:03:31Z</time>
      </trkpt>
      <trkpt lat="45.888221561908722" lon="7.159296059980989">
        <ele>2522.1599999999999</ele>
        <time>2016-07-04T10:03:40Z</time>
      </trkpt>
      <trkpt lat="45.888292053714395" lon="7.15924920514226">
        <ele>2523.5999999999999</ele>
        <time>2016-07-04T10:03:52Z</time>
      </trkpt>
      <trkpt lat="45.888366065919399" lon="7.159228250384331">
        <ele>2525.04</ele>
        <time>2016-07-04T10:04:04Z</time>
      </trkpt>
      <trkpt lat="45.88839003816247" lon="7.159201763570309">
        <ele>2526.48</ele>
        <time>2016-07-04T10:04:13Z</time>
      </trkpt>
      <trkpt lat="45.888414932414889" lon="7.159220706671476">
        <ele>2526.48</ele>
        <time>2016-07-04T10:04:24Z</time>
      </trkpt>
      <trkpt lat="45.888421218842268" lon="7.159200171008706">
        <ele>2526.96</ele>
        <time>2016-07-04T10:04:37Z</time>
      </trkpt>
      <trkpt lat="45.888464218005538" lon="7.159143593162298">
        <ele>2528.8899999999999</ele>
        <time>2016-07-04T10:04:46Z</time>
      </trkpt>
      <trkpt lat="45.888496236875653" lon="7.159086177125573">
        <ele>2531.29</ele>
        <time>2016-07-04T10:04:57Z</time>
      </trkpt>
      <trkpt lat="45.88853026740253" lon="7.159062540158629">
        <ele>2532.25</ele>
        <time>2016-07-04T10:05:03Z</time>
      </trkpt>
      <trkpt lat="45.888580558821559" lon="7.159054912626743">
        <ele>2533.6900000000001</ele>
        <time>2016-07-04T10:05:13Z</time>
      </trkpt>
      <trkpt lat="45.888612074777484" lon="7.159006297588348">
        <ele>2535.1300000000001</ele>
        <time>2016-07-04T10:05:23Z</time>
      </trkpt>
      <trkpt lat="45.888679968193173" lon="7.159002861008048">
        <ele>2535.6100000000001</ele>
        <time>2016-07-04T10:05:32Z</time>
      </trkpt>
      <trkpt lat="45.888752806931734" lon="7.158914348110557">
        <ele>2537.54</ele>
        <time>2016-07-04T10:05:47Z</time>
      </trkpt>
      <trkpt lat="45.888805696740746" lon="7.158870343118906">
        <ele>2539.46</ele>
        <time>2016-07-04T10:05:57Z</time>
      </trkpt>
      <trkpt lat="45.888864118605852" lon="7.158798426389694">
        <ele>2540.4200000000001</ele>
        <time>2016-07-04T10:06:09Z</time>
      </trkpt>
      <trkpt lat="45.888910386711359" lon="7.158765569329262">
        <ele>2541.3800000000001</ele>
        <time>2016-07-04T10:06:16Z</time>
      </trkpt>
      <trkpt lat="45.888929748907685" lon="7.158720390871167">
        <ele>2541.8600000000001</ele>
        <time>2016-07-04T10:06:29Z</time>
      </trkpt>
      <trkpt lat="45.888935867697001" lon="7.15870195068419">
        <ele>2541.8600000000001</ele>
        <time>2016-07-04T10:06:32Z</time>
      </trkpt>
      <trkpt lat="45.888985069468617" lon="7.158622657880187">
        <ele>2542.8200000000002</ele>
        <time>2016-07-04T10:06:42Z</time>
      </trkpt>
      <trkpt lat="45.889013819396496" lon="7.158536491915584">
        <ele>2543.79</ele>
        <time>2016-07-04T10:06:52Z</time>
      </trkpt>
      <trkpt lat="45.889037791639566" lon="7.158420151099563">
        <ele>2545.23</ele>
        <time>2016-07-04T10:07:04Z</time>
      </trkpt>
      <trkpt lat="45.889070061966777" lon="7.158321077004075">
        <ele>2546.6700000000001</ele>
        <time>2016-07-04T10:07:15Z</time>
      </trkpt>
      <trkpt lat="45.889145918190479" lon="7.158280340954661">
        <ele>2547.6300000000001</ele>
        <time>2016-07-04T10:07:26Z</time>
      </trkpt>
      <trkpt lat="45.889169722795486" lon="7.15821529738605">
        <ele>2548.5900000000001</ele>
        <time>2016-07-04T10:07:38Z</time>
      </trkpt>
      <trkpt lat="45.889218170195818" lon="7.158187972381711">
        <ele>2549.0700000000002</ele>
        <time>2016-07-04T10:07:49Z</time>
      </trkpt>
      <trkpt lat="45.889241388067603" lon="7.158175148069859">
        <ele>2549.0700000000002</ele>
        <time>2016-07-04T10:08:05Z</time>
      </trkpt>
      <trkpt lat="45.889251949265599" lon="7.158175986260176">
        <ele>2549.0700000000002</ele>
        <time>2016-07-04T10:08:19Z</time>
      </trkpt>
      <trkpt lat="45.889227641746402" lon="7.158222086727619">
        <ele>2549.0700000000002</ele>
        <time>2016-07-04T10:08:44Z</time>
      </trkpt>
      <trkpt lat="45.889251446351409" lon="7.158189732581377">
        <ele>2549.0700000000002</ele>
        <time>2016-07-04T10:09:08Z</time>
      </trkpt>
      <trkpt lat="45.889265695586801" lon="7.158183362334967">
        <ele>2549.0700000000002</ele>
        <time>2016-07-04T10:09:19Z</time>
      </trkpt>
      <trkpt lat="45.889302995055914" lon="7.158174812793732">
        <ele>2549.5500000000002</ele>
        <time>2016-07-04T10:09:29Z</time>
      </trkpt>
      <trkpt lat="45.889304419979453" lon="7.158186044543982">
        <ele>2549.5500000000002</ele>
        <time>2016-07-04T10:09:46Z</time>
      </trkpt>
      <trkpt lat="45.889323614537716" lon="7.158165173605084">
        <ele>2549.0700000000002</ele>
        <time>2016-07-04T10:10:03Z</time>
      </trkpt>
      <trkpt lat="45.889324536547065" lon="7.158128628507257">
        <ele>2549.5500000000002</ele>
        <time>2016-07-04T10:10:13Z</time>
      </trkpt>
      <trkpt lat="45.889342976734042" lon="7.158090574666858">
        <ele>2549.5500000000002</ele>
        <time>2016-07-04T10:10:22Z</time>
      </trkpt>
      <trkpt lat="45.889395195990801" lon="7.15803399682045">
        <ele>2550.0300000000002</ele>
        <time>2016-07-04T10:10:31Z</time>
      </trkpt>
      <trkpt lat="45.889433668926358" lon="7.157932491973043">
        <ele>2551</ele>
        <time>2016-07-04T10:10:42Z</time>
      </trkpt>
      <trkpt lat="45.8894850499928" lon="7.157841883599758">
        <ele>2551.48</ele>
        <time>2016-07-04T10:10:53Z</time>
      </trkpt>
      <trkpt lat="45.889534000307322" lon="7.157790837809444">
        <ele>2552.4400000000001</ele>
        <time>2016-07-04T10:11:01Z</time>
      </trkpt>
      <trkpt lat="45.889565432444215" lon="7.157794861122966">
        <ele>2552.9200000000001</ele>
        <time>2016-07-04T10:11:05Z</time>
      </trkpt>
      <trkpt lat="45.889625614508986" lon="7.157701486721635">
        <ele>2553.8800000000001</ele>
        <time>2016-07-04T10:11:17Z</time>
      </trkpt>
      <trkpt lat="45.889645479619503" lon="7.157631833106279">
        <ele>2555.3200000000002</ele>
        <time>2016-07-04T10:11:29Z</time>
      </trkpt>
      <trkpt lat="45.889672469347715" lon="7.157656643539667">
        <ele>2554.8400000000001</ele>
        <time>2016-07-04T10:11:45Z</time>
      </trkpt>
      <trkpt lat="45.889692083001137" lon="7.157608950510621">
        <ele>2556.2800000000002</ele>
        <time>2016-07-04T10:12:04Z</time>
      </trkpt>
      <trkpt lat="45.889726616442204" lon="7.157520102337003">
        <ele>2557.2399999999998</ele>
        <time>2016-07-04T10:12:15Z</time>
      </trkpt>
      <trkpt lat="45.889762071892619" lon="7.157446341589093">
        <ele>2559.1700000000001</ele>
        <time>2016-07-04T10:12:25Z</time>
      </trkpt>
      <trkpt lat="45.88980414904654" lon="7.157378615811467">
        <ele>2560.6100000000001</ele>
        <time>2016-07-04T10:12:34Z</time>
      </trkpt>
      <trkpt lat="45.889831054955721" lon="7.157271159812808">
        <ele>2562.5300000000002</ele>
        <time>2016-07-04T10:12:46Z</time>
      </trkpt>
      <trkpt lat="45.889857457950711" lon="7.15717107988894">
        <ele>2563.4899999999998</ele>
        <time>2016-07-04T10:12:58Z</time>
      </trkpt>
      <trkpt lat="45.889873132109642" lon="7.157129421830177">
        <ele>2563.9699999999998</ele>
        <time>2016-07-04T10:13:02Z</time>
      </trkpt>
      <trkpt lat="45.88988428004086" lon="7.157034035772085">
        <ele>2563.9699999999998</ele>
        <time>2016-07-04T10:13:10Z</time>
      </trkpt>
      <trkpt lat="45.889939852058887" lon="7.156946025788784">
        <ele>2565.4200000000001</ele>
        <time>2016-07-04T10:13:21Z</time>
      </trkpt>
      <trkpt lat="45.890005482360721" lon="7.15692532248795">
        <ele>2565.9000000000001</ele>
        <time>2016-07-04T10:13:31Z</time>
      </trkpt>
      <trkpt lat="45.890037501230836" lon="7.156906295567751">
        <ele>2566.8600000000001</ele>
        <time>2016-07-04T10:13:40Z</time>
      </trkpt>
      <trkpt lat="45.890041524544358" lon="7.156905122101307">
        <ele>2566.8600000000001</ele>
        <time>2016-07-04T10:14:00Z</time>
      </trkpt>
      <trkpt lat="45.89011293835938" lon="7.156894141808152">
        <ele>2569.2600000000002</ele>
        <time>2016-07-04T10:14:10Z</time>
      </trkpt>
      <trkpt lat="45.890186615288258" lon="7.156832702457905">
        <ele>2571.1799999999998</ele>
        <time>2016-07-04T10:14:22Z</time>
      </trkpt>
      <trkpt lat="45.890249814838171" lon="7.156794061884284">
        <ele>2573.5900000000001</ele>
        <time>2016-07-04T10:14:33Z</time>
      </trkpt>
      <trkpt lat="45.890295915305614" lon="7.1567293535918">
        <ele>2575.0300000000002</ele>
        <time>2016-07-04T10:14:44Z</time>
      </trkpt>
      <trkpt lat="45.890352828428149" lon="7.156606810167432">
        <ele>2576.4699999999998</ele>
        <time>2016-07-04T10:14:58Z</time>
      </trkpt>
      <trkpt lat="45.890392977744341" lon="7.156512765213847">
        <ele>2577.4299999999998</ele>
        <time>2016-07-04T10:15:09Z</time>
      </trkpt>
      <trkpt lat="45.890410412102938" lon="7.156484182924032">
        <ele>2577.9099999999999</ele>
        <time>2016-07-04T10:15:13Z</time>
      </trkpt>
      <trkpt lat="45.890460200607777" lon="7.156379912048578">
        <ele>2579.3499999999999</ele>
        <time>2016-07-04T10:15:25Z</time>
      </trkpt>
      <trkpt lat="45.89049800299108" lon="7.156277569010854">
        <ele>2580.8000000000002</ele>
        <time>2016-07-04T10:15:38Z</time>
      </trkpt>
      <trkpt lat="45.890555251389742" lon="7.156186709180474">
        <ele>2582.2399999999998</ele>
        <time>2016-07-04T10:15:51Z</time>
      </trkpt>
      <trkpt lat="45.890598837286234" lon="7.15609023347497">
        <ele>2583.1999999999998</ele>
        <time>2016-07-04T10:16:02Z</time>
      </trkpt>
      <trkpt lat="45.890650637447834" lon="7.156002391129732">
        <ele>2584.1599999999999</ele>
        <time>2016-07-04T10:16:13Z</time>
      </trkpt>
      <trkpt lat="45.890688775107265" lon="7.155891917645931">
        <ele>2585.1199999999999</ele>
        <time>2016-07-04T10:16:27Z</time>
      </trkpt>
      <trkpt lat="45.890710987150669" lon="7.155793933197856">
        <ele>2586.5599999999999</ele>
        <time>2016-07-04T10:16:38Z</time>
      </trkpt>
      <trkpt lat="45.890726745128632" lon="7.155704246833921">
        <ele>2587.5300000000002</ele>
        <time>2016-07-04T10:16:48Z</time>
      </trkpt>
      <trkpt lat="45.890743592754006" lon="7.155569130554795">
        <ele>2588.4899999999998</ele>
        <time>2016-07-04T10:17:00Z</time>
      </trkpt>
      <trkpt lat="45.890763374045491" lon="7.155555468052626">
        <ele>2589.4499999999998</ele>
        <time>2016-07-04T10:17:09Z</time>
      </trkpt>
      <trkpt lat="45.890769828110933" lon="7.155533256009221">
        <ele>2589.4499999999998</ele>
        <time>2016-07-04T10:17:22Z</time>
      </trkpt>
      <trkpt lat="45.890770750120282" lon="7.155543733388186">
        <ele>2588.4899999999998</ele>
        <time>2016-07-04T10:17:38Z</time>
      </trkpt>
      <trkpt lat="45.890789022669196" lon="7.155551444739103">
        <ele>2589.4499999999998</ele>
        <time>2016-07-04T10:17:50Z</time>
      </trkpt>
      <trkpt lat="45.890801763162017" lon="7.155490843579173">
        <ele>2589.4499999999998</ele>
        <time>2016-07-04T10:18:04Z</time>
      </trkpt>
      <trkpt lat="45.890794638544321" lon="7.155455304309726">
        <ele>2589.9299999999998</ele>
        <time>2016-07-04T10:18:14Z</time>
      </trkpt>
      <trkpt lat="45.890782568603754" lon="7.155488580465317">
        <ele>2589.9299999999998</ele>
        <time>2016-07-04T10:18:31Z</time>
      </trkpt>
      <trkpt lat="45.89078483171761" lon="7.155464440584183">
        <ele>2589.4499999999998</ele>
        <time>2016-07-04T10:18:44Z</time>
      </trkpt>
      <trkpt lat="45.890789609402418" lon="7.155462009832263">
        <ele>2589.4499999999998</ele>
        <time>2016-07-04T10:18:57Z</time>
      </trkpt>
      <trkpt lat="45.89079019613564" lon="7.15545111335814">
        <ele>2589.9299999999998</ele>
        <time>2016-07-04T10:19:07Z</time>
      </trkpt>
      <trkpt lat="45.890798326581717" lon="7.155464189127088">
        <ele>2589.9299999999998</ele>
        <time>2016-07-04T10:19:24Z</time>
      </trkpt>
      <trkpt lat="45.890813330188394" lon="7.155475839972496">
        <ele>2589.4499999999998</ele>
        <time>2016-07-04T10:19:35Z</time>
      </trkpt>
      <trkpt lat="45.890812240540981" lon="7.155478354543448">
        <ele>2588.9699999999998</ele>
        <time>2016-07-04T10:19:51Z</time>
      </trkpt>
      <trkpt lat="45.890811569988728" lon="7.155470224097371">
        <ele>2588.9699999999998</ele>
        <time>2016-07-04T10:20:18Z</time>
      </trkpt>
      <trkpt lat="45.890824059024453" lon="7.155487323179841">
        <ele>2589.4499999999998</ele>
        <time>2016-07-04T10:20:38Z</time>
      </trkpt>
      <trkpt lat="45.890817185863853" lon="7.155482545495033">
        <ele>2589.4499999999998</ele>
        <time>2016-07-04T10:21:02Z</time>
      </trkpt>
      <trkpt lat="45.890806708484888" lon="7.155500818043947">
        <ele>2589.4499999999998</ele>
        <time>2016-07-04T10:21:27Z</time>
      </trkpt>
      <trkpt lat="45.89081073179841" lon="7.155491262674332">
        <ele>2589.4499999999998</ele>
        <time>2016-07-04T10:21:49Z</time>
      </trkpt>
      <trkpt lat="45.890801344066858" lon="7.155494950711727">
        <ele>2589.9299999999998</ele>
        <time>2016-07-04T10:22:14Z</time>
      </trkpt>
      <trkpt lat="45.890798913314939" lon="7.155504673719406">
        <ele>2589.4499999999998</ele>
        <time>2016-07-04T10:22:47Z</time>
      </trkpt>
      <trkpt lat="45.890791788697243" lon="7.155481036752462">
        <ele>2589.4499999999998</ele>
        <time>2016-07-04T10:23:17Z</time>
      </trkpt>
      <trkpt lat="45.890798242762685" lon="7.155476426705718">
        <ele>2589.4499999999998</ele>
        <time>2016-07-04T10:23:50Z</time>
      </trkpt>
      <trkpt lat="45.89079849421978" lon="7.155471313744783">
        <ele>2589.4499999999998</ele>
        <time>2016-07-04T10:24:25Z</time>
      </trkpt>
      <trkpt lat="45.890796314924955" lon="7.155476594343782">
        <ele>2589.4499999999998</ele>
        <time>2016-07-04T10:25:03Z</time>
      </trkpt>
      <trkpt lat="45.890798242762685" lon="7.155484221875668">
        <ele>2588.9699999999998</ele>
        <time>2016-07-04T10:25:33Z</time>
      </trkpt>
      <trkpt lat="45.890795895829797" lon="7.155483216047287">
        <ele>2589.4499999999998</ele>
        <time>2016-07-04T10:26:04Z</time>
      </trkpt>
      <trkpt lat="45.890796817839146" lon="7.155476594343782">
        <ele>2589.4499999999998</ele>
        <time>2016-07-04T10:26:31Z</time>
      </trkpt>
      <trkpt lat="45.890783574432135" lon="7.155483048409224">
        <ele>2589.4499999999998</ele>
        <time>2016-07-04T10:26:52Z</time>
      </trkpt>
      <trkpt lat="45.890783742070198" lon="7.155486401170492">
        <ele>2589.4499999999998</ele>
        <time>2016-07-04T10:27:24Z</time>
      </trkpt>
      <trkpt lat="45.890773767605424" lon="7.155498722568154">
        <ele>2589.9299999999998</ele>
        <time>2016-07-04T10:27:45Z</time>
      </trkpt>
      <trkpt lat="45.890795309096575" lon="7.155485982075334">
        <ele>2589.9299999999998</ele>
        <time>2016-07-04T10:28:15Z</time>
      </trkpt>
      <trkpt lat="45.890782568603754" lon="7.155496124178171">
        <ele>2590.4099999999999</ele>
        <time>2016-07-04T10:28:42Z</time>
      </trkpt>
      <trkpt lat="45.890778126195073" lon="7.155473409220576">
        <ele>2590.4099999999999</ele>
        <time>2016-07-04T10:29:12Z</time>
      </trkpt>
      <trkpt lat="45.890778545290232" lon="7.155481623485684">
        <ele>2590.8899999999999</ele>
        <time>2016-07-04T10:29:45Z</time>
      </trkpt>
      <trkpt lat="45.890776198357344" lon="7.155482545495033">
        <ele>2590.4099999999999</ele>
        <time>2016-07-04T10:30:18Z</time>
      </trkpt>
      <trkpt lat="45.890777539461851" lon="7.155492352321744">
        <ele>2590.8899999999999</ele>
        <time>2016-07-04T10:30:48Z</time>
      </trkpt>
      <trkpt lat="45.890781730413437" lon="7.155477264896035">
        <ele>2590.8899999999999</ele>
        <time>2016-07-04T10:31:18Z</time>
      </trkpt>
      <trkpt lat="45.890784244984388" lon="7.155478438362479">
        <ele>2590.8899999999999</ele>
        <time>2016-07-04T10:31:48Z</time>
      </trkpt>
      <trkpt lat="45.890782065689564" lon="7.155491849407554">
        <ele>2590.8899999999999</ele>
        <time>2016-07-04T10:32:20Z</time>
      </trkpt>
      <trkpt lat="45.890774102881551" lon="7.155499728396535">
        <ele>2591.3699999999999</ele>
        <time>2016-07-04T10:32:42Z</time>
      </trkpt>
      <trkpt lat="45.890784915536642" lon="7.155492855235934">
        <ele>2590.8899999999999</ele>
        <time>2016-07-04T10:33:13Z</time>
      </trkpt>
      <trkpt lat="45.890774605795741" lon="7.155497716739774">
        <ele>2590.8899999999999</ele>
        <time>2016-07-04T10:33:48Z</time>
      </trkpt>
      <trkpt lat="45.890774102881551" lon="7.155483970418572">
        <ele>2590.8899999999999</ele>
        <time>2016-07-04T10:34:18Z</time>
      </trkpt>
      <trkpt lat="45.890785166993737" lon="7.15548187494278">
        <ele>2591.3699999999999</ele>
        <time>2016-07-04T10:34:53Z</time>
      </trkpt>
      <trkpt lat="45.890765972435474" lon="7.155478522181511">
        <ele>2591.3699999999999</ele>
        <time>2016-07-04T10:35:28Z</time>
      </trkpt>
      <trkpt lat="45.890770331025124" lon="7.155489670112729">
        <ele>2591.3699999999999</ele>
        <time>2016-07-04T10:36:03Z</time>
      </trkpt>
      <trkpt lat="45.890773683786392" lon="7.155475923791528">
        <ele>2591.8499999999999</ele>
        <time>2016-07-04T10:36:33Z</time>
      </trkpt>
      <trkpt lat="45.890774605795741" lon="7.155478773638606">
        <ele>2591.8499999999999</ele>
        <time>2016-07-04T10:37:03Z</time>
      </trkpt>
      <trkpt lat="45.890776198357344" lon="7.155486484989524">
        <ele>2591.8499999999999</ele>
        <time>2016-07-04T10:37:39Z</time>
      </trkpt>
      <trkpt lat="45.890783909708261" lon="7.155480366200209">
        <ele>2591.8499999999999</ele>
        <time>2016-07-04T10:38:15Z</time>
      </trkpt>
      <trkpt lat="45.89078625664115" lon="7.155479863286018">
        <ele>2591.8499999999999</ele>
        <time>2016-07-04T10:38:51Z</time>
      </trkpt>
      <trkpt lat="45.890768319368362" lon="7.155492184683681">
        <ele>2591.8499999999999</ele>
        <time>2016-07-04T10:39:20Z</time>
      </trkpt>
      <trkpt lat="45.890777036547661" lon="7.155490256845951">
        <ele>2591.8499999999999</ele>
        <time>2016-07-04T10:39:50Z</time>
      </trkpt>
      <trkpt lat="45.890773767605424" lon="7.155491849407554">
        <ele>2591.8499999999999</ele>
        <time>2016-07-04T10:40:18Z</time>
      </trkpt>
      <trkpt lat="45.89077309705317" lon="7.155486233532429">
        <ele>2591.8499999999999</ele>
        <time>2016-07-04T10:40:48Z</time>
      </trkpt>
      <trkpt lat="45.890768235549331" lon="7.155488580465317">
        <ele>2592.3299999999999</ele>
        <time>2016-07-04T10:41:12Z</time>
      </trkpt>
      <trkpt lat="45.89078726246953" lon="7.155487323179841">
        <ele>2591.8499999999999</ele>
        <time>2016-07-04T10:41:46Z</time>
      </trkpt>
      <trkpt lat="45.890784161165357" lon="7.155486233532429">
        <ele>2591.8499999999999</ele>
        <time>2016-07-04T10:42:22Z</time>
      </trkpt>
      <trkpt lat="45.890772175043821" lon="7.155491430312395">
        <ele>2592.3299999999999</ele>
        <time>2016-07-04T10:42:42Z</time>
      </trkpt>
      <trkpt lat="45.890762619674206" lon="7.155486820265651">
        <ele>2591.8499999999999</ele>
        <time>2016-07-04T10:43:12Z</time>
      </trkpt>
      <trkpt lat="45.89077016338706" lon="7.155484892427921">
        <ele>2591.8499999999999</ele>
        <time>2016-07-04T10:43:50Z</time>
      </trkpt>
      <trkpt lat="45.89079019613564" lon="7.155485646799207">
        <ele>2591.8499999999999</ele>
        <time>2016-07-04T10:44:34Z</time>
      </trkpt>
      <trkpt lat="45.890790950506926" lon="7.155496375635266">
        <ele>2591.8499999999999</ele>
        <time>2016-07-04T10:45:17Z</time>
      </trkpt>
      <trkpt lat="45.890782317146659" lon="7.155475420877338">
        <ele>2592.3299999999999</ele>
        <time>2016-07-04T10:46:03Z</time>
      </trkpt>
      <trkpt lat="45.890791453421116" lon="7.15547994710505">
        <ele>2592.3299999999999</ele>
        <time>2016-07-04T10:46:52Z</time>
      </trkpt>
      <trkpt lat="45.89079212397337" lon="7.155486149713397">
        <ele>2592.8099999999999</ele>
        <time>2016-07-04T10:47:28Z</time>
      </trkpt>
      <trkpt lat="45.890786508098245" lon="7.155495705083013">
        <ele>2592.3299999999999</ele>
        <time>2016-07-04T10:48:20Z</time>
      </trkpt>
      <trkpt lat="45.890787933021784" lon="7.155492184683681">
        <ele>2592.3299999999999</ele>
        <time>2016-07-04T10:49:11Z</time>
      </trkpt>
      <trkpt lat="45.89078089222312" lon="7.155486736446619">
        <ele>2592.3299999999999</ele>
        <time>2016-07-04T10:49:51Z</time>
      </trkpt>
      <trkpt lat="45.89079262688756" lon="7.155486820265651">
        <ele>2592.3299999999999</ele>
        <time>2016-07-04T10:50:20Z</time>
      </trkpt>
      <trkpt lat="45.890800086781383" lon="7.155487909913063">
        <ele>2592.8099999999999</ele>
        <time>2016-07-04T10:50:58Z</time>
      </trkpt>
      <trkpt lat="45.890793297439814" lon="7.155487993732095">
        <ele>2592.8099999999999</ele>
        <time>2016-07-04T10:51:35Z</time>
      </trkpt>
      <trkpt lat="45.890779802575707" lon="7.155487071722746">
        <ele>2592.3299999999999</ele>
        <time>2016-07-04T10:52:16Z</time>
      </trkpt>
      <trkpt lat="45.890776952728629" lon="7.155488580465317">
        <ele>2592.3299999999999</ele>
        <time>2016-07-04T10:52:47Z</time>
      </trkpt>
      <trkpt lat="45.890776868909597" lon="7.155487323179841">
        <ele>2592.3299999999999</ele>
        <time>2016-07-04T10:53:19Z</time>
      </trkpt>
      <trkpt lat="45.890769911929965" lon="7.155490340664983">
        <ele>2592.3299999999999</ele>
        <time>2016-07-04T10:53:44Z</time>
      </trkpt>
      <trkpt lat="45.890767984092236" lon="7.155498890206218">
        <ele>2592.8099999999999</ele>
        <time>2016-07-04T10:54:08Z</time>
      </trkpt>
      <trkpt lat="45.890745269134641" lon="7.155511295422912">
        <ele>2592.8099999999999</ele>
        <time>2016-07-04T10:54:24Z</time>
      </trkpt>
      <trkpt lat="45.89076722972095" lon="7.155497716739774">
        <ele>2592.8099999999999</ele>
        <time>2016-07-04T10:54:40Z</time>
      </trkpt>
      <trkpt lat="45.890748538076878" lon="7.155462177470326">
        <ele>2593.29</ele>
        <time>2016-07-04T10:54:49Z</time>
      </trkpt>
      <trkpt lat="45.89072423055768" lon="7.155453292652965">
        <ele>2592.8099999999999</ele>
        <time>2016-07-04T10:55:02Z</time>
      </trkpt>
      <trkpt lat="45.890739904716611" lon="7.155443318188191">
        <ele>2592.8099999999999</ele>
        <time>2016-07-04T10:55:16Z</time>
      </trkpt>
      <trkpt lat="45.890762032940984" lon="7.155356649309397">
        <ele>2592.3299999999999</ele>
        <time>2016-07-04T10:55:28Z</time>
      </trkpt>
      <trkpt lat="45.890828249976039" lon="7.155254641547799">
        <ele>2593.29</ele>
        <time>2016-07-04T10:55:38Z</time>
      </trkpt>
      <trkpt lat="45.890866722911596" lon="7.155149783939123">
        <ele>2593.29</ele>
        <time>2016-07-04T10:55:46Z</time>
      </trkpt>
      <trkpt lat="45.890881139785051" lon="7.155009638518095">
        <ele>2592.8099999999999</ele>
        <time>2016-07-04T10:55:54Z</time>
      </trkpt>
      <trkpt lat="45.890856999903917" lon="7.154962532222271">
        <ele>2592.8099999999999</ele>
        <time>2016-07-04T10:55:58Z</time>
      </trkpt>
      <trkpt lat="45.89080922305584" lon="7.154880724847317">
        <ele>2591.8499999999999</ele>
        <time>2016-07-04T10:56:07Z</time>
      </trkpt>
      <trkpt lat="45.890805199742317" lon="7.154774274677038">
        <ele>2591.8499999999999</ele>
        <time>2016-07-04T10:56:15Z</time>
      </trkpt>
      <trkpt lat="45.890807043761015" lon="7.154701352119446">
        <ele>2592.3299999999999</ele>
        <time>2016-07-04T10:56:21Z</time>
      </trkpt>
      <trkpt lat="45.890759853646159" lon="7.154584508389235">
        <ele>2592.3299999999999</ele>
        <time>2016-07-04T10:56:31Z</time>
      </trkpt>
      <trkpt lat="45.890766642987728" lon="7.154569672420621">
        <ele>2592.8099999999999</ele>
        <time>2016-07-04T10:56:33Z</time>
      </trkpt>
      <trkpt lat="45.890807546675205" lon="7.154490044340491">
        <ele>2593.29</ele>
        <time>2016-07-04T10:56:42Z</time>
      </trkpt>
      <trkpt lat="45.890812408179045" lon="7.154503287747502">
        <ele>2593.29</ele>
        <time>2016-07-04T10:56:46Z</time>
      </trkpt>
      <trkpt lat="45.890823053196073" lon="7.15444402769208">
        <ele>2593.29</ele>
        <time>2016-07-04T10:56:50Z</time>
      </trkpt>
      <trkpt lat="45.890852054581046" lon="7.154362807050347">
        <ele>2593.29</ele>
        <time>2016-07-04T10:56:55Z</time>
      </trkpt>
      <trkpt lat="45.89087812229991" lon="7.154334057122469">
        <ele>2593.29</ele>
        <time>2016-07-04T10:56:59Z</time>
      </trkpt>
      <trkpt lat="45.890915086492896" lon="7.154210843145847">
        <ele>2594.25</ele>
        <time>2016-07-04T10:57:12Z</time>
      </trkpt>
      <trkpt lat="45.89093822054565" lon="7.154158372431994">
        <ele>2594.25</ele>
        <time>2016-07-04T10:57:16Z</time>
      </trkpt>
      <trkpt lat="45.890933526679873" lon="7.154138926416636">
        <ele>2594.7399999999998</ele>
        <time>2016-07-04T10:57:26Z</time>
      </trkpt>
      <trkpt lat="45.890952637419105" lon="7.154111852869391">
        <ele>2594.7399999999998</ele>
        <time>2016-07-04T10:57:31Z</time>
      </trkpt>
      <trkpt lat="45.890974178910255" lon="7.154069021344185">
        <ele>2594.7399999999998</ele>
        <time>2016-07-04T10:57:34Z</time>
      </trkpt>
      <trkpt lat="45.890940902754664" lon="7.1539197396487">
        <ele>2596.1799999999998</ele>
        <time>2016-07-04T10:57:46Z</time>
      </trkpt>
      <trkpt lat="45.890909722074866" lon="7.153816977515817">
        <ele>2597.1399999999999</ele>
        <time>2016-07-04T10:57:58Z</time>
      </trkpt>
      <trkpt lat="45.890920786187053" lon="7.15381471440196">
        <ele>2596.6599999999999</ele>
        <time>2016-07-04T10:58:08Z</time>
      </trkpt>
      <trkpt lat="45.890930006280541" lon="7.153752353042364">
        <ele>2596.6599999999999</ele>
        <time>2016-07-04T10:58:26Z</time>
      </trkpt>
      <trkpt lat="45.890899244695902" lon="7.15377607382834">
        <ele>2597.1399999999999</ele>
        <time>2016-07-04T10:58:40Z</time>
      </trkpt>
      <trkpt lat="45.890915086492896" lon="7.153851091861725">
        <ele>2597.1399999999999</ele>
        <time>2016-07-04T10:58:58Z</time>
      </trkpt>
      <trkpt lat="45.890954900532961" lon="7.153884032741189">
        <ele>2596.6599999999999</ele>
        <time>2016-07-04T10:59:16Z</time>
      </trkpt>
      <trkpt lat="45.890971161425114" lon="7.153903730213642">
        <ele>2596.6599999999999</ele>
        <time>2016-07-04T10:59:19Z</time>
      </trkpt>
      <trkpt lat="45.891056740656495" lon="7.153932983055711">
        <ele>2596.6599999999999</ele>
        <time>2016-07-04T10:59:30Z</time>
      </trkpt>
      <trkpt lat="45.891061685979366" lon="7.153941113501787">
        <ele>2596.1799999999998</ele>
        <time>2016-07-04T10:59:31Z</time>
      </trkpt>
      <trkpt lat="45.891128238290548" lon="7.153975311666727">
        <ele>2596.6599999999999</ele>
        <time>2016-07-04T10:59:42Z</time>
      </trkpt>
      <trkpt lat="45.891217421740294" lon="7.154039349406958">
        <ele>2597.1399999999999</ele>
        <time>2016-07-04T10:59:54Z</time>
      </trkpt>
      <trkpt lat="45.891317250207067" lon="7.154099531471729">
        <ele>2598.0999999999999</ele>
        <time>2016-07-04T11:00:06Z</time>
      </trkpt>
      <trkpt lat="45.891378102824092" lon="7.154104979708791">
        <ele>2598.5799999999999</ele>
        <time>2016-07-04T11:00:15Z</time>
      </trkpt>
      <trkpt lat="45.891382629051805" lon="7.154116546735168">
        <ele>2598.5799999999999</ele>
        <time>2016-07-04T11:00:27Z</time>
      </trkpt>
      <trkpt lat="45.891383215785027" lon="7.154122246429324">
        <ele>2598.0999999999999</ele>
        <time>2016-07-04T11:00:28Z</time>
      </trkpt>
      <trkpt lat="45.891392352059484" lon="7.154147140681744">
        <ele>2598.0999999999999</ele>
        <time>2016-07-04T11:00:37Z</time>
      </trkpt>
      <trkpt lat="45.891387909650803" lon="7.154238251969218">
        <ele>2597.6199999999999</ele>
        <time>2016-07-04T11:00:50Z</time>
      </trkpt>
      <trkpt lat="45.891444906592369" lon="7.154270522296429">
        <ele>2597.6199999999999</ele>
        <time>2016-07-04T11:01:01Z</time>
      </trkpt>
      <trkpt lat="45.891484301537275" lon="7.154302289709449">
        <ele>2597.6199999999999</ele>
        <time>2016-07-04T11:01:11Z</time>
      </trkpt>
      <trkpt lat="45.891515482217073" lon="7.154351826757193">
        <ele>2597.1399999999999</ele>
        <time>2016-07-04T11:01:21Z</time>
      </trkpt>
      <trkpt lat="45.891528641805053" lon="7.154425587505102">
        <ele>2595.6999999999998</ele>
        <time>2016-07-04T11:01:33Z</time>
      </trkpt>
      <trkpt lat="45.891563342884183" lon="7.154517536982894">
        <ele>2595.2199999999998</ele>
        <time>2016-07-04T11:01:43Z</time>
      </trkpt>
      <trkpt lat="45.891541382297873" lon="7.154591046273708">
        <ele>2595.2199999999998</ele>
        <time>2016-07-04T11:01:54Z</time>
      </trkpt>
      <trkpt lat="45.891582118347287" lon="7.154687354341149">
        <ele>2596.1799999999998</ele>
        <time>2016-07-04T11:02:04Z</time>
      </trkpt>
      <trkpt lat="45.891593266278505" lon="7.154721887782216">
        <ele>2596.6599999999999</ele>
        <time>2016-07-04T11:02:07Z</time>
      </trkpt>
      <trkpt lat="45.891599720343947" lon="7.154781483113766">
        <ele>2595.6999999999998</ele>
        <time>2016-07-04T11:02:11Z</time>
      </trkpt>
      <trkpt lat="45.891560660675168" lon="7.154900506138802">
        <ele>2595.2199999999998</ele>
        <time>2016-07-04T11:02:21Z</time>
      </trkpt>
      <trkpt lat="45.891531240195036" lon="7.15500988997519">
        <ele>2594.7399999999998</ele>
        <time>2016-07-04T11:02:31Z</time>
      </trkpt>
      <trkpt lat="45.891512548550963" lon="7.155146598815918">
        <ele>2594.7399999999998</ele>
        <time>2016-07-04T11:02:42Z</time>
      </trkpt>
      <trkpt lat="45.891552697867155" lon="7.155256234109402">
        <ele>2595.6999999999998</ele>
        <time>2016-07-04T11:02:52Z</time>
      </trkpt>
      <trkpt lat="45.891575748100877" lon="7.155389590188861">
        <ele>2594.7399999999998</ele>
        <time>2016-07-04T11:03:03Z</time>
      </trkpt>
      <trkpt lat="45.891599804162979" lon="7.155496040359139">
        <ele>2592.3299999999999</ele>
        <time>2016-07-04T11:03:12Z</time>
      </trkpt>
      <trkpt lat="45.891616148874164" lon="7.155580362305045">
        <ele>2591.3699999999999</ele>
        <time>2016-07-04T11:03:22Z</time>
      </trkpt>
      <trkpt lat="45.891667446121573" lon="7.155678179115057">
        <ele>2590.4099999999999</ele>
        <time>2016-07-04T11:03:33Z</time>
      </trkpt>
      <trkpt lat="45.891689155250788" lon="7.155694859102368">
        <ele>2590.4099999999999</ele>
        <time>2016-07-04T11:03:35Z</time>
      </trkpt>
      <trkpt lat="45.891731651499867" lon="7.15573500841856">
        <ele>2589.9299999999998</ele>
        <time>2016-07-04T11:03:41Z</time>
      </trkpt>
      <trkpt lat="45.891738776117563" lon="7.155767194926739">
        <ele>2589.9299999999998</ele>
        <time>2016-07-04T11:03:44Z</time>
      </trkpt>
      <trkpt lat="45.891752019524574" lon="7.155879177153111">
        <ele>2589.4499999999998</ele>
        <time>2016-07-04T11:03:54Z</time>
      </trkpt>
      <trkpt lat="45.891742296516895" lon="7.155924690887332">
        <ele>2588.9699999999998</ele>
        <time>2016-07-04T11:03:58Z</time>
      </trkpt>
      <trkpt lat="45.891741877421737" lon="7.155950674787164">
        <ele>2588.9699999999998</ele>
        <time>2016-07-04T11:04:00Z</time>
      </trkpt>
      <trkpt lat="45.89176258072257" lon="7.156077660620213">
        <ele>2588.0100000000002</ele>
        <time>2016-07-04T11:04:11Z</time>
      </trkpt>
      <trkpt lat="45.89177917689085" lon="7.156177489086986">
        <ele>2587.5300000000002</ele>
        <time>2016-07-04T11:04:18Z</time>
      </trkpt>
      <trkpt lat="45.89180801063776" lon="7.15628863312304">
        <ele>2586.0799999999999</ele>
        <time>2016-07-04T11:04:28Z</time>
      </trkpt>
      <trkpt lat="45.891861235722899" lon="7.156398519873619">
        <ele>2586.0799999999999</ele>
        <time>2016-07-04T11:04:38Z</time>
      </trkpt>
      <trkpt lat="45.891863582655787" lon="7.156490888446569">
        <ele>2586.0799999999999</ele>
        <time>2016-07-04T11:04:45Z</time>
      </trkpt>
      <trkpt lat="45.891852099448442" lon="7.156520560383797">
        <ele>2586.0799999999999</ele>
        <time>2016-07-04T11:04:47Z</time>
      </trkpt>
      <trkpt lat="45.891845393925905" lon="7.156656850129366">
        <ele>2586.5599999999999</ele>
        <time>2016-07-04T11:04:58Z</time>
      </trkpt>
      <trkpt lat="45.891853859648108" lon="7.156761456280947">
        <ele>2587.04</ele>
        <time>2016-07-04T11:05:07Z</time>
      </trkpt>
      <trkpt lat="45.89186710305512" lon="7.156765731051564">
        <ele>2587.04</ele>
        <time>2016-07-04T11:05:19Z</time>
      </trkpt>
      <trkpt lat="45.891872048377991" lon="7.15678702108562">
        <ele>2587.04</ele>
        <time>2016-07-04T11:05:36Z</time>
      </trkpt>
      <trkpt lat="45.891852183267474" lon="7.156805209815502">
        <ele>2586.5599999999999</ele>
        <time>2016-07-04T11:05:50Z</time>
      </trkpt>
      <trkpt lat="45.891854278743267" lon="7.156825326383114">
        <ele>2586.5599999999999</ele>
        <time>2016-07-04T11:06:02Z</time>
      </trkpt>
      <trkpt lat="45.891887387260795" lon="7.156864134594798">
        <ele>2585.1199999999999</ele>
        <time>2016-07-04T11:06:13Z</time>
      </trkpt>
      <trkpt lat="45.891885794699192" lon="7.15680068358779">
        <ele>2585.1199999999999</ele>
        <time>2016-07-04T11:06:31Z</time>
      </trkpt>
      <trkpt lat="45.891871713101864" lon="7.156780231744051">
        <ele>2585.5999999999999</ele>
        <time>2016-07-04T11:06:44Z</time>
      </trkpt>
      <trkpt lat="45.891860229894519" lon="7.156872600317001">
        <ele>2585.5999999999999</ele>
        <time>2016-07-04T11:06:53Z</time>
      </trkpt>
      <trkpt lat="45.891838939860463" lon="7.15690964832902">
        <ele>2585.1199999999999</ele>
        <time>2016-07-04T11:06:56Z</time>
      </trkpt>
      <trkpt lat="45.891841957345605" lon="7.157060019671917">
        <ele>2583.1999999999998</ele>
        <time>2016-07-04T11:07:07Z</time>
      </trkpt>
      <trkpt lat="45.891847321763635" lon="7.157098324969411">
        <ele>2583.1999999999998</ele>
        <time>2016-07-04T11:07:10Z</time>
      </trkpt>
      <trkpt lat="45.891856793314219" lon="7.157119866460562">
        <ele>2582.2399999999998</ele>
        <time>2016-07-04T11:07:12Z</time>
      </trkpt>
      <trkpt lat="45.891846818849444" lon="7.157215923070908">
        <ele>2581.2800000000002</ele>
        <time>2016-07-04T11:07:19Z</time>
      </trkpt>
      <trkpt lat="45.891857715323567" lon="7.157278954982758">
        <ele>2580.3200000000002</ele>
        <time>2016-07-04T11:07:24Z</time>
      </trkpt>
      <trkpt lat="45.891857128590345" lon="7.157326228916645">
        <ele>2579.8400000000001</ele>
        <time>2016-07-04T11:07:28Z</time>
      </trkpt>
      <trkpt lat="45.891897529363632" lon="7.157459501177073">
        <ele>2577.9099999999999</ele>
        <time>2016-07-04T11:07:39Z</time>
      </trkpt>
      <trkpt lat="45.891925944015384" lon="7.157592354342341">
        <ele>2575.9899999999998</ele>
        <time>2016-07-04T11:07:50Z</time>
      </trkpt>
      <trkpt lat="45.891940109431744" lon="7.157618086785078">
        <ele>2575.5100000000002</ele>
        <time>2016-07-04T11:08:01Z</time>
      </trkpt>
      <trkpt lat="45.891963830217719" lon="7.157610207796097">
        <ele>2575.5100000000002</ele>
        <time>2016-07-04T11:08:24Z</time>
      </trkpt>
      <trkpt lat="45.891954777762294" lon="7.157585145905614">
        <ele>2575.5100000000002</ele>
        <time>2016-07-04T11:08:37Z</time>
      </trkpt>
      <trkpt lat="45.891926195472479" lon="7.157622277736664">
        <ele>2575.5100000000002</ele>
        <time>2016-07-04T11:08:53Z</time>
      </trkpt>
      <trkpt lat="45.891924351453781" lon="7.157613392919302">
        <ele>2575.0300000000002</ele>
        <time>2016-07-04T11:09:07Z</time>
      </trkpt>
      <trkpt lat="45.891921585425735" lon="7.157620517536998">
        <ele>2574.5500000000002</ele>
        <time>2016-07-04T11:09:17Z</time>
      </trkpt>
      <trkpt lat="45.891929548233747" lon="7.15761280618608">
        <ele>2575.9899999999998</ele>
        <time>2016-07-04T11:09:31Z</time>
      </trkpt>
      <trkpt lat="45.891945976763964" lon="7.157636107876897">
        <ele>2575.5100000000002</ele>
        <time>2016-07-04T11:09:45Z</time>
      </trkpt>
      <trkpt lat="45.8919648360461" lon="7.157638119533658">
        <ele>2575.5100000000002</ele>
        <time>2016-07-04T11:10:04Z</time>
      </trkpt>
      <trkpt lat="45.89197413995862" lon="7.157648429274559">
        <ele>2575.5100000000002</ele>
        <time>2016-07-04T11:10:27Z</time>
      </trkpt>
      <trkpt lat="45.891946060582995" lon="7.157613141462207">
        <ele>2575.9899999999998</ele>
        <time>2016-07-04T11:10:43Z</time>
      </trkpt>
      <trkpt lat="45.891937930136919" lon="7.157597383484244">
        <ele>2575.5100000000002</ele>
        <time>2016-07-04T11:11:02Z</time>
      </trkpt>
      <trkpt lat="45.891890907660127" lon="7.157554719597101">
        <ele>2576.4699999999998</ele>
        <time>2016-07-04T11:11:16Z</time>
      </trkpt>
      <trkpt lat="45.89185444638133" lon="7.157441396266222">
        <ele>2577.9099999999999</ele>
        <time>2016-07-04T11:11:27Z</time>
      </trkpt>
      <trkpt lat="45.891853272914886" lon="7.157401582226157">
        <ele>2578.3899999999999</ele>
        <time>2016-07-04T11:11:30Z</time>
      </trkpt>
      <trkpt lat="45.891812369227409" lon="7.157271830365062">
        <ele>2579.8400000000001</ele>
        <time>2016-07-04T11:11:42Z</time>
      </trkpt>
      <trkpt lat="45.891713378950953" lon="7.157183820381761">
        <ele>2581.7600000000002</ele>
        <time>2016-07-04T11:11:54Z</time>
      </trkpt>
      <trkpt lat="45.891696279868484" lon="7.157169068232179">
        <ele>2581.7600000000002</ele>
        <time>2016-07-04T11:11:57Z</time>
      </trkpt>
      <trkpt lat="45.891658393666148" lon="7.15705968439579">
        <ele>2582.7199999999998</ele>
        <time>2016-07-04T11:12:08Z</time>
      </trkpt>
      <trkpt lat="45.891650849953294" lon="7.157039903104305">
        <ele>2582.7199999999998</ele>
        <time>2016-07-04T11:12:10Z</time>
      </trkpt>
      <trkpt lat="45.891631655395031" lon="7.156904535368085">
        <ele>2582.2399999999998</ele>
        <time>2016-07-04T11:12:20Z</time>
      </trkpt>
      <trkpt lat="45.891572227701545" lon="7.15682172216475">
        <ele>2582.2399999999998</ele>
        <time>2016-07-04T11:12:33Z</time>
      </trkpt>
      <trkpt lat="45.891539705917239" lon="7.156704207882285">
        <ele>2582.2399999999998</ele>
        <time>2016-07-04T11:12:44Z</time>
      </trkpt>
      <trkpt lat="45.891519924625754" lon="7.156589040532708">
        <ele>2582.7199999999998</ele>
        <time>2016-07-04T11:12:54Z</time>
      </trkpt>
      <trkpt lat="45.891502238810062" lon="7.15649432502687">
        <ele>2583.1999999999998</ele>
        <time>2016-07-04T11:13:05Z</time>
      </trkpt>
      <trkpt lat="45.89149184525013" lon="7.156499857082963">
        <ele>2582.7199999999998</ele>
        <time>2016-07-04T11:13:25Z</time>
      </trkpt>
      <trkpt lat="45.891416659578681" lon="7.156441519036889">
        <ele>2583.1999999999998</ele>
        <time>2016-07-04T11:13:35Z</time>
      </trkpt>
      <trkpt lat="45.891350442543626" lon="7.156339092180133">
        <ele>2584.1599999999999</ele>
        <time>2016-07-04T11:13:45Z</time>
      </trkpt>
      <trkpt lat="45.891311634331942" lon="7.156228199601173">
        <ele>2585.5999999999999</ele>
        <time>2016-07-04T11:13:55Z</time>
      </trkpt>
      <trkpt lat="45.891283303499222" lon="7.156127616763115">
        <ele>2586.5599999999999</ele>
        <time>2016-07-04T11:14:05Z</time>
      </trkpt>
      <trkpt lat="45.891253044828773" lon="7.156003816053271">
        <ele>2587.5300000000002</ele>
        <time>2016-07-04T11:14:15Z</time>
      </trkpt>
      <trkpt lat="45.89122504927218" lon="7.155903819948435">
        <ele>2588.0100000000002</ele>
        <time>2016-07-04T11:14:26Z</time>
      </trkpt>
      <trkpt lat="45.891131004318595" lon="7.155884373933077">
        <ele>2588.9699999999998</ele>
        <time>2016-07-04T11:14:40Z</time>
      </trkpt>
      <trkpt lat="45.891071744263172" lon="7.155876494944096">
        <ele>2589.4499999999998</ele>
        <time>2016-07-04T11:14:53Z</time>
      </trkpt>
      <trkpt lat="45.891047939658165" lon="7.155870627611876">
        <ele>2589.4499999999998</ele>
        <time>2016-07-04T11:15:07Z</time>
      </trkpt>
      <trkpt lat="45.890991194173694" lon="7.155863083899021">
        <ele>2589.9299999999998</ele>
        <time>2016-07-04T11:15:18Z</time>
      </trkpt>
      <trkpt lat="45.890935622155666" lon="7.155843134969473">
        <ele>2589.9299999999998</ele>
        <time>2016-07-04T11:15:23Z</time>
      </trkpt>
      <trkpt lat="45.890911398455501" lon="7.155825952067971">
        <ele>2589.9299999999998</ele>
        <time>2016-07-04T11:15:26Z</time>
      </trkpt>
      <trkpt lat="45.890871165320277" lon="7.155789909884334">
        <ele>2590.4099999999999</ele>
        <time>2016-07-04T11:15:31Z</time>
      </trkpt>
      <trkpt lat="45.890777539461851" lon="7.155732493847609">
        <ele>2590.4099999999999</ele>
        <time>2016-07-04T11:15:43Z</time>
      </trkpt>
      <trkpt lat="45.890738815069199" lon="7.155636604875326">
        <ele>2590.8899999999999</ele>
        <time>2016-07-04T11:15:56Z</time>
      </trkpt>
      <trkpt lat="45.890720374882221" lon="7.155524203553796">
        <ele>2592.3299999999999</ele>
        <time>2016-07-04T11:16:08Z</time>
      </trkpt>
      <trkpt lat="45.890733869746327" lon="7.155510373413563">
        <ele>2592.3299999999999</ele>
        <time>2016-07-04T11:16:19Z</time>
      </trkpt>
      <trkpt lat="45.890764882788062" lon="7.155462596565485">
        <ele>2592.3299999999999</ele>
        <time>2016-07-04T11:16:30Z</time>
      </trkpt>
      <trkpt lat="45.890722721815109" lon="7.15550584718585">
        <ele>2592.3299999999999</ele>
        <time>2016-07-04T11:16:41Z</time>
      </trkpt>
      <trkpt lat="45.890727331861854" lon="7.155482629314065">
        <ele>2592.3299999999999</ele>
        <time>2016-07-04T11:16:52Z</time>
      </trkpt>
      <trkpt lat="45.890727918595076" lon="7.155526047572494">
        <ele>2592.3299999999999</ele>
        <time>2016-07-04T11:17:13Z</time>
      </trkpt>
      <trkpt lat="45.890757590532303" lon="7.155550355091691">
        <ele>2592.3299999999999</ele>
        <time>2016-07-04T11:17:21Z</time>
      </trkpt>
      <trkpt lat="45.890756333246827" lon="7.155553875491023">
        <ele>2592.3299999999999</ele>
        <time>2016-07-04T11:17:36Z</time>
      </trkpt>
      <trkpt lat="45.890753567218781" lon="7.155527640134096">
        <ele>2592.3299999999999</ele>
        <time>2016-07-04T11:17:49Z</time>
      </trkpt>
      <trkpt lat="45.890723392367363" lon="7.155537195503712">
        <ele>2591.3699999999999</ele>
        <time>2016-07-04T11:18:02Z</time>
      </trkpt>
      <trkpt lat="45.890793716534972" lon="7.15552487410605">
        <ele>2591.3699999999999</ele>
        <time>2016-07-04T11:18:18Z</time>
      </trkpt>
      <trkpt lat="45.89077896438539" lon="7.155523113906384">
        <ele>2591.3699999999999</ele>
        <time>2016-07-04T11:18:46Z</time>
      </trkpt>
      <trkpt lat="45.89078432880342" lon="7.155529316514731">
        <ele>2591.3699999999999</ele>
        <time>2016-07-04T11:19:07Z</time>
      </trkpt>
      <trkpt lat="45.890794890001416" lon="7.15552001260221">
        <ele>2591.8499999999999</ele>
        <time>2016-07-04T11:19:35Z</time>
      </trkpt>
      <trkpt lat="45.89079899713397" lon="7.155522862449288">
        <ele>2591.8499999999999</ele>
        <time>2016-07-04T11:20:08Z</time>
      </trkpt>
      <trkpt lat="45.890796231105924" lon="7.155526885762811">
        <ele>2591.8499999999999</ele>
        <time>2016-07-04T11:20:42Z</time>
      </trkpt>
      <trkpt lat="45.890767481178045" lon="7.155505595728755">
        <ele>2592.3299999999999</ele>
        <time>2016-07-04T11:20:58Z</time>
      </trkpt>
      <trkpt lat="45.890711322426796" lon="7.155572650954127">
        <ele>2592.8099999999999</ele>
        <time>2016-07-04T11:21:26Z</time>
      </trkpt>
      <trkpt lat="45.890748705714941" lon="7.155536273494363">
        <ele>2592.3299999999999</ele>
        <time>2016-07-04T11:21:46Z</time>
      </trkpt>
      <trkpt lat="45.890774019062519" lon="7.155504254624248">
        <ele>2592.3299999999999</ele>
        <time>2016-07-04T11:22:07Z</time>
      </trkpt>
      <trkpt lat="45.890763625502586" lon="7.155505679547787">
        <ele>2592.3299999999999</ele>
        <time>2016-07-04T11:22:39Z</time>
      </trkpt>
      <trkpt lat="45.890784496441483" lon="7.155526466667652">
        <ele>2592.3299999999999</ele>
        <time>2016-07-04T11:23:06Z</time>
      </trkpt>
      <trkpt lat="45.890794973820448" lon="7.155522778630257">
        <ele>2592.3299999999999</ele>
        <time>2016-07-04T11:23:30Z</time>
      </trkpt>
      <trkpt lat="45.890780137851834" lon="7.15550241060555">
        <ele>2592.3299999999999</ele>
        <time>2016-07-04T11:23:50Z</time>
      </trkpt>
      <trkpt lat="45.890765134245157" lon="7.155540464445949">
        <ele>2592.3299999999999</ele>
        <time>2016-07-04T11:24:14Z</time>
      </trkpt>
      <trkpt lat="45.890787933021784" lon="7.155511463060975">
        <ele>2592.3299999999999</ele>
        <time>2016-07-04T11:24:52Z</time>
      </trkpt>
      <trkpt lat="45.890776114538312" lon="7.155503332614899">
        <ele>2592.3299999999999</ele>
        <time>2016-07-04T11:25:20Z</time>
      </trkpt>
      <trkpt lat="45.890774857252836" lon="7.155497968196869">
        <ele>2592.3299999999999</ele>
        <time>2016-07-04T11:25:45Z</time>
      </trkpt>
      <trkpt lat="45.890771169215441" lon="7.155498722568154">
        <ele>2592.3299999999999</ele>
        <time>2016-07-04T11:26:17Z</time>
      </trkpt>
      <trkpt lat="45.89078089222312" lon="7.155511798337102">
        <ele>2592.3299999999999</ele>
        <time>2016-07-04T11:26:49Z</time>
      </trkpt>
      <trkpt lat="45.890784244984388" lon="7.155521102249622">
        <ele>2592.3299999999999</ele>
        <time>2016-07-04T11:27:31Z</time>
      </trkpt>
      <trkpt lat="45.890768570825458" lon="7.155528226867318">
        <ele>2592.3299999999999</ele>
        <time>2016-07-04T11:27:59Z</time>
      </trkpt>
      <trkpt lat="45.89076915755868" lon="7.155542224645615">
        <ele>2592.3299999999999</ele>
        <time>2016-07-04T11:28:37Z</time>
      </trkpt>
      <trkpt lat="45.890782903879881" lon="7.155491262674332">
        <ele>2592.3299999999999</ele>
        <time>2016-07-04T11:28:52Z</time>
      </trkpt>
      <trkpt lat="45.890791034325957" lon="7.155476678162813">
        <ele>2591.8499999999999</ele>
        <time>2016-07-04T11:29:28Z</time>
      </trkpt>
      <trkpt lat="45.890781814232469" lon="7.15546578168869">
        <ele>2591.8499999999999</ele>
        <time>2016-07-04T11:29:58Z</time>
      </trkpt>
      <trkpt lat="45.890775108709931" lon="7.155456645414233">
        <ele>2592.3299999999999</ele>
        <time>2016-07-04T11:30:34Z</time>
      </trkpt>
      <trkpt lat="45.890778210014105" lon="7.155475672334433">
        <ele>2591.3699999999999</ele>
        <time>2016-07-04T11:30:58Z</time>
      </trkpt>
      <trkpt lat="45.890785083174706" lon="7.155461758375168">
        <ele>2592.3299999999999</ele>
        <time>2016-07-04T11:31:31Z</time>
      </trkpt>
      <trkpt lat="45.890795728191733" lon="7.155469637364149">
        <ele>2592.3299999999999</ele>
        <time>2016-07-04T11:32:05Z</time>
      </trkpt>
      <trkpt lat="45.89078969322145" lon="7.155481455847621">
        <ele>2591.8499999999999</ele>
        <time>2016-07-04T11:32:41Z</time>
      </trkpt>
      <trkpt lat="45.890784496441483" lon="7.155471984297037">
        <ele>2592.3299999999999</ele>
        <time>2016-07-04T11:33:11Z</time>
      </trkpt>
      <trkpt lat="45.890782317146659" lon="7.155478186905384">
        <ele>2592.3299999999999</ele>
        <time>2016-07-04T11:33:49Z</time>
      </trkpt>
      <trkpt lat="45.890785586088896" lon="7.155476761981845">
        <ele>2592.8099999999999</ele>
        <time>2016-07-04T11:34:22Z</time>
      </trkpt>
      <trkpt lat="45.890791704878211" lon="7.155478773638606">
        <ele>2592.3299999999999</ele>
        <time>2016-07-04T11:34:52Z</time>
      </trkpt>
      <trkpt lat="45.890798578038812" lon="7.155478186905384">
        <ele>2592.3299999999999</ele>
        <time>2016-07-04T11:35:33Z</time>
      </trkpt>
      <trkpt lat="45.890796817839146" lon="7.155477264896035">
        <ele>2592.3299999999999</ele>
        <time>2016-07-04T11:36:05Z</time>
      </trkpt>
      <trkpt lat="45.890779299661517" lon="7.155476929619908">
        <ele>2593.29</ele>
        <time>2016-07-04T11:36:19Z</time>
      </trkpt>
      <trkpt lat="45.890773348510265" lon="7.15545454993844">
        <ele>2593.77</ele>
        <time>2016-07-04T11:36:21Z</time>
      </trkpt>
      <trkpt lat="45.890781981870532" lon="7.155470140278339">
        <ele>2593.29</ele>
        <time>2016-07-04T11:36:28Z</time>
      </trkpt>
      <trkpt lat="45.890789441764355" lon="7.155470727011561">
        <ele>2593.29</ele>
        <time>2016-07-04T11:36:47Z</time>
      </trkpt>
      <trkpt lat="45.89080142788589" lon="7.15547114610672">
        <ele>2592.8099999999999</ele>
        <time>2016-07-04T11:37:15Z</time>
      </trkpt>
      <trkpt lat="45.890799835324287" lon="7.155476845800877">
        <ele>2593.29</ele>
        <time>2016-07-04T11:37:44Z</time>
      </trkpt>
      <trkpt lat="45.890801679342985" lon="7.155471229925752">
        <ele>2593.29</ele>
        <time>2016-07-04T11:38:20Z</time>
      </trkpt>
      <trkpt lat="45.890799667686224" lon="7.155481372028589">
        <ele>2593.29</ele>
        <time>2016-07-04T11:38:47Z</time>
      </trkpt>
      <trkpt lat="45.89079069904983" lon="7.155470307916403">
        <ele>2593.29</ele>
        <time>2016-07-04T11:39:16Z</time>
      </trkpt>
      <trkpt lat="45.890798578038812" lon="7.155475672334433">
        <ele>2593.29</ele>
        <time>2016-07-04T11:39:50Z</time>
      </trkpt>
      <trkpt lat="45.89078675955534" lon="7.155477683991194">
        <ele>2593.29</ele>
        <time>2016-07-04T11:40:25Z</time>
      </trkpt>
      <trkpt lat="45.890781478956342" lon="7.155469302088022">
        <ele>2593.29</ele>
        <time>2016-07-04T11:41:06Z</time>
      </trkpt>
      <trkpt lat="45.890781562775373" lon="7.15547600761056">
        <ele>2593.29</ele>
        <time>2016-07-04T11:41:45Z</time>
      </trkpt>
      <trkpt lat="45.890787011012435" lon="7.155478186905384">
        <ele>2593.29</ele>
        <time>2016-07-04T11:42:16Z</time>
      </trkpt>
      <trkpt lat="45.890787346288562" lon="7.155473409220576">
        <ele>2593.29</ele>
        <time>2016-07-04T11:42:55Z</time>
      </trkpt>
      <trkpt lat="45.8907818980515" lon="7.155465362593532">
        <ele>2593.77</ele>
        <time>2016-07-04T11:43:41Z</time>
      </trkpt>
      <trkpt lat="45.890783574432135" lon="7.155468631535769">
        <ele>2593.29</ele>
        <time>2016-07-04T11:44:22Z</time>
      </trkpt>
      <trkpt lat="45.890786591917276" lon="7.155466955155134">
        <ele>2593.77</ele>
        <time>2016-07-04T11:45:02Z</time>
      </trkpt>
      <trkpt lat="45.890785669907928" lon="7.155474666506052">
        <ele>2593.29</ele>
        <time>2016-07-04T11:45:20Z</time>
      </trkpt>
      <trkpt lat="45.890789609402418" lon="7.15547944419086">
        <ele>2593.29</ele>
        <time>2016-07-04T11:45:36Z</time>
      </trkpt>
      <trkpt lat="45.890787011012435" lon="7.155490927398205">
        <ele>2593.29</ele>
        <time>2016-07-04T11:45:54Z</time>
      </trkpt>
      <trkpt lat="45.890787346288562" lon="7.155478606000543">
        <ele>2593.29</ele>
        <time>2016-07-04T11:46:24Z</time>
      </trkpt>
      <trkpt lat="45.890785083174706" lon="7.155486987903714">
        <ele>2593.29</ele>
        <time>2016-07-04T11:46:45Z</time>
      </trkpt>
      <trkpt lat="45.890788016840816" lon="7.155495788902044">
        <ele>2587.5300000000002</ele>
        <time>2016-07-04T11:47:07Z</time>
      </trkpt>
      <trkpt lat="45.890791369602084" lon="7.155492687597871">
        <ele>2592.8099999999999</ele>
        <time>2016-07-04T11:47:08Z</time>
      </trkpt>
      <trkpt lat="45.890773935243487" lon="7.15547751635313">
        <ele>2593.29</ele>
        <time>2016-07-04T11:47:35Z</time>
      </trkpt>
      <trkpt lat="45.890779634937644" lon="7.155484054237604">
        <ele>2593.29</ele>
        <time>2016-07-04T11:48:06Z</time>
      </trkpt>
      <trkpt lat="45.890791537240148" lon="7.155490759760141">
        <ele>2593.29</ele>
        <time>2016-07-04T11:48:34Z</time>
      </trkpt>
      <trkpt lat="45.890792543068528" lon="7.155495537444949">
        <ele>2600.02</ele>
        <time>2016-07-04T11:48:39Z</time>
      </trkpt>
      <trkpt lat="45.89078382588923" lon="7.155482629314065">
        <ele>2594.25</ele>
        <time>2016-07-04T11:48:40Z</time>
      </trkpt>
      <trkpt lat="45.890787681564689" lon="7.155485060065985">
        <ele>2593.29</ele>
        <time>2016-07-04T11:48:42Z</time>
      </trkpt>
      <trkpt lat="45.890779299661517" lon="7.155465697869659">
        <ele>2593.29</ele>
        <time>2016-07-04T11:49:02Z</time>
      </trkpt>
      <trkpt lat="45.890784915536642" lon="7.155466536059976">
        <ele>2593.29</ele>
        <time>2016-07-04T11:49:26Z</time>
      </trkpt>
      <trkpt lat="45.890788435935974" lon="7.155471481382847">
        <ele>2593.29</ele>
        <time>2016-07-04T11:49:41Z</time>
      </trkpt>
      <trkpt lat="45.890794554725289" lon="7.155446419492364">
        <ele>2593.29</ele>
        <time>2016-07-04T11:50:01Z</time>
      </trkpt>
      <trkpt lat="45.890779215842485" lon="7.155492436140776">
        <ele>2593.29</ele>
        <time>2016-07-04T11:50:16Z</time>
      </trkpt>
      <trkpt lat="45.890781059861183" lon="7.155492855235934">
        <ele>2593.77</ele>
        <time>2016-07-04T11:50:29Z</time>
      </trkpt>
      <trkpt lat="45.890785418450832" lon="7.155466033145785">
        <ele>2593.29</ele>
        <time>2016-07-04T11:50:48Z</time>
      </trkpt>
      <trkpt lat="45.890788938850164" lon="7.155475756153464">
        <ele>2593.29</ele>
        <time>2016-07-04T11:50:59Z</time>
      </trkpt>
      <trkpt lat="45.890787011012435" lon="7.155483802780509">
        <ele>2593.29</ele>
        <time>2016-07-04T11:51:13Z</time>
      </trkpt>
      <trkpt lat="45.890782652422786" lon="7.155482294037938">
        <ele>2593.77</ele>
        <time>2016-07-04T11:51:26Z</time>
      </trkpt>
      <trkpt lat="45.890771085396409" lon="7.155485227704048">
        <ele>2593.77</ele>
        <time>2016-07-04T11:51:40Z</time>
      </trkpt>
      <trkpt lat="45.890782652422786" lon="7.155475672334433">
        <ele>2594.25</ele>
        <time>2016-07-04T11:51:55Z</time>
      </trkpt>
      <trkpt lat="45.890781478956342" lon="7.155491346493363">
        <ele>2593.77</ele>
        <time>2016-07-04T11:52:08Z</time>
      </trkpt>
      <trkpt lat="45.890779718756676" lon="7.155511463060975">
        <ele>2593.77</ele>
        <time>2016-07-04T11:52:21Z</time>
      </trkpt>
      <trkpt lat="45.890790531411767" lon="7.155514480546117">
        <ele>2593.77</ele>
        <time>2016-07-04T11:52:36Z</time>
      </trkpt>
      <trkpt lat="45.890793297439814" lon="7.155491346493363">
        <ele>2593.77</ele>
        <time>2016-07-04T11:52:38Z</time>
      </trkpt>
      <trkpt lat="45.890790028497577" lon="7.155459159985185">
        <ele>2594.25</ele>
        <time>2016-07-04T11:52:49Z</time>
      </trkpt>
      <trkpt lat="45.890806373208761" lon="7.155516073107719">
        <ele>2594.25</ele>
        <time>2016-07-04T11:52:59Z</time>
      </trkpt>
      <trkpt lat="45.890800002962351" lon="7.155546667054296">
        <ele>2594.25</ele>
        <time>2016-07-04T11:53:18Z</time>
      </trkpt>
      <trkpt lat="45.890799248591065" lon="7.155534261837602">
        <ele>2593.77</ele>
        <time>2016-07-04T11:53:26Z</time>
      </trkpt>
      <trkpt lat="45.890794219449162" lon="7.155525796115398">
        <ele>2593.77</ele>
        <time>2016-07-04T11:53:38Z</time>
      </trkpt>
      <trkpt lat="45.890793884173036" lon="7.155524035915732">
        <ele>2593.77</ele>
        <time>2016-07-04T11:53:55Z</time>
      </trkpt>
      <trkpt lat="45.890798829495907" lon="7.155527891591191">
        <ele>2593.77</ele>
        <time>2016-07-04T11:54:10Z</time>
      </trkpt>
      <trkpt lat="45.890776533633471" lon="7.155559072270989">
        <ele>2593.77</ele>
        <time>2016-07-04T11:54:27Z</time>
      </trkpt>
      <trkpt lat="45.890765050426126" lon="7.15550241060555">
        <ele>2593.77</ele>
        <time>2016-07-04T11:54:37Z</time>
      </trkpt>
      <trkpt lat="45.890763457864523" lon="7.15549654327333">
        <ele>2592.3299999999999</ele>
        <time>2016-07-04T11:54:49Z</time>
      </trkpt>
      <trkpt lat="45.890764715149999" lon="7.155493777245283">
        <ele>2592.3299999999999</ele>
        <time>2016-07-04T11:55:04Z</time>
      </trkpt>
      <trkpt lat="45.890780724585056" lon="7.155505931004882">
        <ele>2592.3299999999999</ele>
        <time>2016-07-04T11:55:32Z</time>
      </trkpt>
      <trkpt lat="45.890772929415107" lon="7.15553174726665">
        <ele>2592.3299999999999</ele>
        <time>2016-07-04T11:55:56Z</time>
      </trkpt>
      <trkpt lat="45.89077309705317" lon="7.155502242967486">
        <ele>2591.8499999999999</ele>
        <time>2016-07-04T11:56:17Z</time>
      </trkpt>
      <trkpt lat="45.890775276347995" lon="7.155498471111059">
        <ele>2591.8499999999999</ele>
        <time>2016-07-04T11:56:45Z</time>
      </trkpt>
      <trkpt lat="45.890781059861183" lon="7.155505595728755">
        <ele>2592.8099999999999</ele>
        <time>2016-07-04T11:57:07Z</time>
      </trkpt>
      <trkpt lat="45.890782233327627" lon="7.155539290979505">
        <ele>2593.77</ele>
        <time>2016-07-04T11:57:18Z</time>
      </trkpt>
      <trkpt lat="45.890768151730299" lon="7.155540296807885">
        <ele>2593.29</ele>
        <time>2016-07-04T11:57:30Z</time>
      </trkpt>
      <trkpt lat="45.890768906101584" lon="7.155580949038267">
        <ele>2593.77</ele>
        <time>2016-07-04T11:57:43Z</time>
      </trkpt>
      <trkpt lat="45.89073789305985" lon="7.155659152194858">
        <ele>2593.29</ele>
        <time>2016-07-04T11:57:52Z</time>
      </trkpt>
      <trkpt lat="45.890656001865864" lon="7.155742552131414">
        <ele>2591.3699999999999</ele>
        <time>2016-07-04T11:58:05Z</time>
      </trkpt>
      <trkpt lat="45.890600010752678" lon="7.155779516324401">
        <ele>2589.4499999999998</ele>
        <time>2016-07-04T11:58:12Z</time>
      </trkpt>
      <trkpt lat="45.890558520331979" lon="7.155792256817222">
        <ele>2587.5300000000002</ele>
        <time>2016-07-04T11:58:22Z</time>
      </trkpt>
      <trkpt lat="45.890534715726972" lon="7.155829221010208">
        <ele>2586.5599999999999</ele>
        <time>2016-07-04T11:58:43Z</time>
      </trkpt>
      <trkpt lat="45.890468498691916" lon="7.155898958444595">
        <ele>2584.6399999999999</ele>
        <time>2016-07-04T11:58:54Z</time>
      </trkpt>
      <trkpt lat="45.89042223058641" lon="7.155931312590838">
        <ele>2583.1999999999998</ele>
        <time>2016-07-04T11:59:02Z</time>
      </trkpt>
      <trkpt lat="45.890399599447846" lon="7.155942544341087">
        <ele>2582.7199999999998</ele>
        <time>2016-07-04T11:59:05Z</time>
      </trkpt>
      <trkpt lat="45.890342183411121" lon="7.155982945114374">
        <ele>2580.8000000000002</ele>
        <time>2016-07-04T11:59:16Z</time>
      </trkpt>
      <trkpt lat="45.890282839536667" lon="7.156004570424557">
        <ele>2579.3499999999999</ele>
        <time>2016-07-04T11:59:24Z</time>
      </trkpt>
      <trkpt lat="45.890234559774399" lon="7.156071793287993">
        <ele>2578.3899999999999</ele>
        <time>2016-07-04T11:59:33Z</time>
      </trkpt>
      <trkpt lat="45.890200864523649" lon="7.156101129949093">
        <ele>2577.4299999999998</ele>
        <time>2016-07-04T11:59:44Z</time>
      </trkpt>
      <trkpt lat="45.890150489285588" lon="7.156160557642579">
        <ele>2576.9499999999998</ele>
        <time>2016-07-04T11:59:53Z</time>
      </trkpt>
      <trkpt lat="45.890124589204788" lon="7.156201796606183">
        <ele>2576.4699999999998</ele>
        <time>2016-07-04T11:59:58Z</time>
      </trkpt>
      <trkpt lat="45.890045631676912" lon="7.15627882629633">
        <ele>2575.0300000000002</ele>
        <time>2016-07-04T12:00:08Z</time>
      </trkpt>
      <trkpt lat="45.889954855665565" lon="7.15637655928731">
        <ele>2575.0300000000002</ele>
        <time>2016-07-04T12:00:20Z</time>
      </trkpt>
      <trkpt lat="45.889890398830175" lon="7.156483428552747">
        <ele>2573.5900000000001</ele>
        <time>2016-07-04T12:00:30Z</time>
      </trkpt>
      <trkpt lat="45.889845471829176" lon="7.156629944220185">
        <ele>2572.1399999999999</ele>
        <time>2016-07-04T12:00:42Z</time>
      </trkpt>
      <trkpt lat="45.889849662780762" lon="7.156762545928359">
        <ele>2571.1799999999998</ele>
        <time>2016-07-04T12:00:53Z</time>
      </trkpt>
      <trkpt lat="45.889844968914986" lon="7.156766150146723">
        <ele>2571.1799999999998</ele>
        <time>2016-07-04T12:00:54Z</time>
      </trkpt>
      <trkpt lat="45.889762407168746" lon="7.156878216192126">
        <ele>2568.7800000000002</ele>
        <time>2016-07-04T12:01:07Z</time>
      </trkpt>
      <trkpt lat="45.889728544279933" lon="7.156935045495629">
        <ele>2567.8200000000002</ele>
        <time>2016-07-04T12:01:13Z</time>
      </trkpt>
      <trkpt lat="45.889675989747047" lon="7.156975027173758">
        <ele>2567.8200000000002</ele>
        <time>2016-07-04T12:01:23Z</time>
      </trkpt>
      <trkpt lat="45.889657801017165" lon="7.157002184540033">
        <ele>2567.3400000000001</ele>
        <time>2016-07-04T12:01:25Z</time>
      </trkpt>
      <trkpt lat="45.889581190422177" lon="7.157162195071578">
        <ele>2565.4200000000001</ele>
        <time>2016-07-04T12:01:38Z</time>
      </trkpt>
      <trkpt lat="45.889550009742379" lon="7.157211396843195">
        <ele>2564.9299999999998</ele>
        <time>2016-07-04T12:01:47Z</time>
      </trkpt>
      <trkpt lat="45.889492174610496" lon="7.157301418483257">
        <ele>2563.4899999999998</ele>
        <time>2016-07-04T12:01:56Z</time>
      </trkpt>
      <trkpt lat="45.889460658654571" lon="7.157371491193771">
        <ele>2562.5300000000002</ele>
        <time>2016-07-04T12:02:02Z</time>
      </trkpt>
      <trkpt lat="45.889435010030866" lon="7.157419854775071">
        <ele>2561.5700000000002</ele>
        <time>2016-07-04T12:02:07Z</time>
      </trkpt>
      <trkpt lat="45.889363093301654" lon="7.157540554180741">
        <ele>2559.6500000000001</ele>
        <time>2016-07-04T12:02:19Z</time>
      </trkpt>
      <trkpt lat="45.889333672821522" lon="7.157573075965047">
        <ele>2558.6900000000001</ele>
        <time>2016-07-04T12:02:27Z</time>
      </trkpt>
      <trkpt lat="45.88930131867528" lon="7.157651195302606">
        <ele>2557.73</ele>
        <time>2016-07-04T12:02:35Z</time>
      </trkpt>
      <trkpt lat="45.889273658394814" lon="7.157703833654523">
        <ele>2557.2399999999998</ele>
        <time>2016-07-04T12:02:40Z</time>
      </trkpt>
      <trkpt lat="45.88924465700984" lon="7.157797962427139">
        <ele>2556.7600000000002</ele>
        <time>2016-07-04T12:02:51Z</time>
      </trkpt>
      <trkpt lat="45.889236945658922" lon="7.157807936891913">
        <ele>2556.2800000000002</ele>
        <time>2016-07-04T12:03:02Z</time>
      </trkpt>
      <trkpt lat="45.889225210994482" lon="7.157873064279556">
        <ele>2556.2800000000002</ele>
        <time>2016-07-04T12:03:12Z</time>
      </trkpt>
      <trkpt lat="45.889194449409842" lon="7.157958978787065">
        <ele>2555.3200000000002</ele>
        <time>2016-07-04T12:03:21Z</time>
      </trkpt>
      <trkpt lat="45.889155222103" lon="7.158042127266526">
        <ele>2554.8400000000001</ele>
        <time>2016-07-04T12:03:31Z</time>
      </trkpt>
      <trkpt lat="45.88910635560751" lon="7.158131394535303">
        <ele>2554.3600000000001</ele>
        <time>2016-07-04T12:03:40Z</time>
      </trkpt>
      <trkpt lat="45.889045000076294" lon="7.158226612955332">
        <ele>2552.9200000000001</ele>
        <time>2016-07-04T12:03:52Z</time>
      </trkpt>
      <trkpt lat="45.888991188257933" lon="7.158283106982708">
        <ele>2551</ele>
        <time>2016-07-04T12:04:01Z</time>
      </trkpt>
      <trkpt lat="45.88894072920084" lon="7.158357538282871">
        <ele>2549.5500000000002</ele>
        <time>2016-07-04T12:04:10Z</time>
      </trkpt>
      <trkpt lat="45.888899825513363" lon="7.158435573801398">
        <ele>2548.1100000000001</ele>
        <time>2016-07-04T12:04:19Z</time>
      </trkpt>
      <trkpt lat="45.888853808864951" lon="7.158529870212078">
        <ele>2547.1500000000001</ele>
        <time>2016-07-04T12:04:29Z</time>
      </trkpt>
      <trkpt lat="45.888796644285321" lon="7.15862425044179">
        <ele>2545.23</ele>
        <time>2016-07-04T12:04:41Z</time>
      </trkpt>
      <trkpt lat="45.888729672878981" lon="7.158718379214406">
        <ele>2543.79</ele>
        <time>2016-07-04T12:04:52Z</time>
      </trkpt>
      <trkpt lat="45.888666808605194" lon="7.158805802464485">
        <ele>2541.8600000000001</ele>
        <time>2016-07-04T12:05:04Z</time>
      </trkpt>
      <trkpt lat="45.888612326234579" lon="7.158863553777337">
        <ele>2539.46</ele>
        <time>2016-07-04T12:05:14Z</time>
      </trkpt>
      <trkpt lat="45.888585336506367" lon="7.15896237641573">
        <ele>2538.5</ele>
        <time>2016-07-04T12:05:25Z</time>
      </trkpt>
      <trkpt lat="45.88857620023191" lon="7.158997328951955">
        <ele>2537.54</ele>
        <time>2016-07-04T12:05:28Z</time>
      </trkpt>
      <trkpt lat="45.888525741174817" lon="7.159074945375323">
        <ele>2536.5799999999999</ele>
        <time>2016-07-04T12:05:38Z</time>
      </trkpt>
      <trkpt lat="45.888471761718392" lon="7.159142838791013">
        <ele>2534.1700000000001</ele>
        <time>2016-07-04T12:05:47Z</time>
      </trkpt>
      <trkpt lat="45.888424068689346" lon="7.159205451607704">
        <ele>2532.25</ele>
        <time>2016-07-04T12:05:58Z</time>
      </trkpt>
      <trkpt lat="45.88835927657783" lon="7.15925607830286">
        <ele>2529.3699999999999</ele>
        <time>2016-07-04T12:06:09Z</time>
      </trkpt>
      <trkpt lat="45.888342512771487" lon="7.159273512661457">
        <ele>2528.4000000000001</ele>
        <time>2016-07-04T12:06:12Z</time>
      </trkpt>
      <trkpt lat="45.888262130320072" lon="7.159335287287831">
        <ele>2526.48</ele>
        <time>2016-07-04T12:06:23Z</time>
      </trkpt>
      <trkpt lat="45.888225249946117" lon="7.159363701939583">
        <ele>2525.52</ele>
        <time>2016-07-04T12:06:29Z</time>
      </trkpt>
      <trkpt lat="45.888163056224585" lon="7.159461518749595">
        <ele>2523.5999999999999</ele>
        <time>2016-07-04T12:06:40Z</time>
      </trkpt>
      <trkpt lat="45.888096839189529" lon="7.159492615610361">
        <ele>2521.1900000000001</ele>
        <time>2016-07-04T12:06:50Z</time>
      </trkpt>
      <trkpt lat="45.888075046241283" lon="7.159510804340243">
        <ele>2520.23</ele>
        <time>2016-07-04T12:06:53Z</time>
      </trkpt>
      <trkpt lat="45.888001285493374" lon="7.159538213163614">
        <ele>2517.8299999999999</ele>
        <time>2016-07-04T12:07:05Z</time>
      </trkpt>
      <trkpt lat="45.887933978810906" lon="7.159571656957269">
        <ele>2515.4299999999998</ele>
        <time>2016-07-04T12:07:15Z</time>
      </trkpt>
      <trkpt lat="45.887879664078355" lon="7.159594036638737">
        <ele>2514.4699999999998</ele>
        <time>2016-07-04T12:07:25Z</time>
      </trkpt>
      <trkpt lat="45.887866839766502" lon="7.159566795453429">
        <ele>2513.98</ele>
        <time>2016-07-04T12:07:28Z</time>
      </trkpt>
      <trkpt lat="45.887798611074686" lon="7.159414663910866">
        <ele>2513.02</ele>
        <time>2016-07-04T12:07:41Z</time>
      </trkpt>
      <trkpt lat="45.887753097340465" lon="7.159299915656447">
        <ele>2511.5799999999999</ele>
        <time>2016-07-04T12:07:52Z</time>
      </trkpt>
      <trkpt lat="45.88771915063262" lon="7.159145940095186">
        <ele>2509.1799999999998</ele>
        <time>2016-07-04T12:08:04Z</time>
      </trkpt>
      <trkpt lat="45.887686125934124" lon="7.159010069444776">
        <ele>2506.77</ele>
        <time>2016-07-04T12:08:16Z</time>
      </trkpt>
      <trkpt lat="45.887639103457332" lon="7.158908396959305">
        <ele>2504.8499999999999</ele>
        <time>2016-07-04T12:08:27Z</time>
      </trkpt>
      <trkpt lat="45.887633822858334" lon="7.158898338675499">
        <ele>2504.3699999999999</ele>
        <time>2016-07-04T12:08:28Z</time>
      </trkpt>
      <trkpt lat="45.887605492025614" lon="7.158768586814404">
        <ele>2502.4499999999998</ele>
        <time>2016-07-04T12:08:39Z</time>
      </trkpt>
      <trkpt lat="45.887574981898069" lon="7.15866431593895">
        <ele>2500.5300000000002</ele>
        <time>2016-07-04T12:08:51Z</time>
      </trkpt>
      <trkpt lat="45.887536844238639" lon="7.158539090305567">
        <ele>2497.6399999999999</ele>
        <time>2016-07-04T12:09:03Z</time>
      </trkpt>
      <trkpt lat="45.887504741549492" lon="7.158432472497225">
        <ele>2495.2399999999998</ele>
        <time>2016-07-04T12:09:15Z</time>
      </trkpt>
      <trkpt lat="45.887485295534134" lon="7.158320993185043">
        <ele>2493.3200000000002</ele>
        <time>2016-07-04T12:09:26Z</time>
      </trkpt>
      <trkpt lat="45.887483116239309" lon="7.158309258520603">
        <ele>2493.3200000000002</ele>
        <time>2016-07-04T12:09:27Z</time>
      </trkpt>
      <trkpt lat="45.887450342997909" lon="7.15818252414465">
        <ele>2491.8699999999999</ele>
        <time>2016-07-04T12:09:38Z</time>
      </trkpt>
      <trkpt lat="45.887393597513437" lon="7.158098537474871">
        <ele>2490.4299999999998</ele>
        <time>2016-07-04T12:09:49Z</time>
      </trkpt>
      <trkpt lat="45.887344647198915" lon="7.157995272427797">
        <ele>2488.5100000000002</ele>
        <time>2016-07-04T12:09:58Z</time>
      </trkpt>
      <trkpt lat="45.887308437377214" lon="7.157816821709275">
        <ele>2487.5500000000002</ele>
        <time>2016-07-04T12:10:10Z</time>
      </trkpt>
      <trkpt lat="45.887267617508769" lon="7.157744150608778">
        <ele>2485.1500000000001</ele>
        <time>2016-07-04T12:10:20Z</time>
      </trkpt>
      <trkpt lat="45.887258481234312" lon="7.157797710970044">
        <ele>2484.6599999999999</ele>
        <time>2016-07-04T12:10:25Z</time>
      </trkpt>
      <trkpt lat="45.887248171493411" lon="7.157916985452175">
        <ele>2482.2600000000002</ele>
        <time>2016-07-04T12:10:35Z</time>
      </trkpt>
      <trkpt lat="45.887253535911441" lon="7.158018238842487">
        <ele>2480.8200000000002</ele>
        <time>2016-07-04T12:10:43Z</time>
      </trkpt>
      <trkpt lat="45.887218667194247" lon="7.158089904114604">
        <ele>2478.9000000000001</ele>
        <time>2016-07-04T12:10:51Z</time>
      </trkpt>
      <trkpt lat="45.887186396867037" lon="7.158221332356334">
        <ele>2476.9699999999998</ele>
        <time>2016-07-04T12:11:01Z</time>
      </trkpt>
      <trkpt lat="45.887166950851679" lon="7.158292578533292">
        <ele>2476.0100000000002</ele>
        <time>2016-07-04T12:11:07Z</time>
      </trkpt>
      <trkpt lat="45.887140966951847" lon="7.15842199511826">
        <ele>2474.0900000000001</ele>
        <time>2016-07-04T12:11:18Z</time>
      </trkpt>
      <trkpt lat="45.887121185660362" lon="7.158454265445471">
        <ele>2473.6100000000001</ele>
        <time>2016-07-04T12:11:21Z</time>
      </trkpt>
      <trkpt lat="45.887098135426641" lon="7.158571695908904">
        <ele>2471.6900000000001</ele>
        <time>2016-07-04T12:11:31Z</time>
      </trkpt>
      <trkpt lat="45.887060835957527" lon="7.158669512718916">
        <ele>2469.2800000000002</ele>
        <time>2016-07-04T12:11:42Z</time>
      </trkpt>
      <trkpt lat="45.88702286593616" lon="7.158732879906893">
        <ele>2467.8400000000001</ele>
        <time>2016-07-04T12:11:50Z</time>
      </trkpt>
      <trkpt lat="45.886984979733825" lon="7.158817369490862">
        <ele>2465.9200000000001</ele>
        <time>2016-07-04T12:12:00Z</time>
      </trkpt>
      <trkpt lat="45.886924294754863" lon="7.15892381966114">
        <ele>2463.52</ele>
        <time>2016-07-04T12:12:11Z</time>
      </trkpt>
      <trkpt lat="45.886879116296768" lon="7.158932369202375">
        <ele>2462.5500000000002</ele>
        <time>2016-07-04T12:12:16Z</time>
      </trkpt>
      <trkpt lat="45.886828992515802" lon="7.15892281383276">
        <ele>2461.5900000000001</ele>
        <time>2016-07-04T12:12:20Z</time>
      </trkpt>
      <trkpt lat="45.88671650737524" lon="7.158851400017738">
        <ele>2460.6300000000001</ele>
        <time>2016-07-04T12:12:32Z</time>
      </trkpt>
      <trkpt lat="45.886703180149198" lon="7.158847376704216">
        <ele>2460.6300000000001</ele>
        <time>2016-07-04T12:12:34Z</time>
      </trkpt>
      <trkpt lat="45.88667887263" lon="7.158819632604718">
        <ele>2460.1500000000001</ele>
        <time>2016-07-04T12:12:39Z</time>
      </trkpt>
      <trkpt lat="45.886646099388599" lon="7.158751236274838">
        <ele>2459.6700000000001</ele>
        <time>2016-07-04T12:12:45Z</time>
      </trkpt>
      <trkpt lat="45.886616175994277" lon="7.158682253211737">
        <ele>2458.71</ele>
        <time>2016-07-04T12:12:52Z</time>
      </trkpt>
      <trkpt lat="45.886553060263395" lon="7.158613940700889">
        <ele>2457.75</ele>
        <time>2016-07-04T12:13:03Z</time>
      </trkpt>
      <trkpt lat="45.886512827128172" lon="7.158575803041458">
        <ele>2457.75</ele>
        <time>2016-07-04T12:13:11Z</time>
      </trkpt>
      <trkpt lat="45.886482987552881" lon="7.15854705311358">
        <ele>2457.27</ele>
        <time>2016-07-04T12:13:19Z</time>
      </trkpt>
      <trkpt lat="45.886452393606305" lon="7.158543448895216">
        <ele>2456.3099999999999</ele>
        <time>2016-07-04T12:13:28Z</time>
      </trkpt>
      <trkpt lat="45.88642280548811" lon="7.158546634018421">
        <ele>2455.8200000000002</ele>
        <time>2016-07-04T12:13:39Z</time>
      </trkpt>
      <trkpt lat="45.886421967297792" lon="7.158582173287869">
        <ele>2454.8600000000001</ele>
        <time>2016-07-04T12:13:49Z</time>
      </trkpt>
      <trkpt lat="45.886422051116824" lon="7.158623160794377">
        <ele>2454.3800000000001</ele>
        <time>2016-07-04T12:14:02Z</time>
      </trkpt>
      <trkpt lat="45.886405622586608" lon="7.158667333424091">
        <ele>2453.4200000000001</ele>
        <time>2016-07-04T12:14:12Z</time>
      </trkpt>
      <trkpt lat="45.886392127722502" lon="7.158710081130266">
        <ele>2452.46</ele>
        <time>2016-07-04T12:14:20Z</time>
      </trkpt>
      <trkpt lat="45.886369161307812" lon="7.158753667026758">
        <ele>2451.98</ele>
        <time>2016-07-04T12:14:29Z</time>
      </trkpt>
      <trkpt lat="45.886366982012987" lon="7.158812172710896">
        <ele>2451.02</ele>
        <time>2016-07-04T12:14:39Z</time>
      </trkpt>
      <trkpt lat="45.886349212378263" lon="7.158835977315903">
        <ele>2451.02</ele>
        <time>2016-07-04T12:14:45Z</time>
      </trkpt>
      <trkpt lat="45.886337142437696" lon="7.158972937613726">
        <ele>2449.5799999999999</ele>
        <time>2016-07-04T12:14:57Z</time>
      </trkpt>
      <trkpt lat="45.886323731392622" lon="7.159065809100866">
        <ele>2449.0999999999999</ele>
        <time>2016-07-04T12:15:06Z</time>
      </trkpt>
      <trkpt lat="45.886306297034025" lon="7.159174103289843">
        <ele>2447.6500000000001</ele>
        <time>2016-07-04T12:15:15Z</time>
      </trkpt>
      <trkpt lat="45.886315600946546" lon="7.159224981442094">
        <ele>2447.1700000000001</ele>
        <time>2016-07-04T12:15:20Z</time>
      </trkpt>
      <trkpt lat="45.886335214599967" lon="7.159337382763624">
        <ele>2445.73</ele>
        <time>2016-07-04T12:15:31Z</time>
      </trkpt>
      <trkpt lat="45.886343847960234" lon="7.159428661689162">
        <ele>2444.29</ele>
        <time>2016-07-04T12:15:40Z</time>
      </trkpt>
      <trkpt lat="45.886334795504808" lon="7.15957417152822">
        <ele>2442.3699999999999</ele>
        <time>2016-07-04T12:15:53Z</time>
      </trkpt>
      <trkpt lat="45.886334124952555" lon="7.159626390784979">
        <ele>2442.3699999999999</ele>
        <time>2016-07-04T12:15:57Z</time>
      </trkpt>
      <trkpt lat="45.886334208771586" lon="7.159660756587982">
        <ele>2441.8899999999999</ele>
        <time>2016-07-04T12:16:01Z</time>
      </trkpt>
      <trkpt lat="45.886347284540534" lon="7.159796375781298">
        <ele>2439.96</ele>
        <time>2016-07-04T12:16:13Z</time>
      </trkpt>
      <trkpt lat="45.88637444190681" lon="7.159918081015348">
        <ele>2438.04</ele>
        <time>2016-07-04T12:16:25Z</time>
      </trkpt>
      <trkpt lat="45.886391708627343" lon="7.16000122949481">
        <ele>2437.0799999999999</ele>
        <time>2016-07-04T12:16:32Z</time>
      </trkpt>
      <trkpt lat="45.886361869052052" lon="7.160116480663419">
        <ele>2435.6399999999999</ele>
        <time>2016-07-04T12:16:42Z</time>
      </trkpt>
      <trkpt lat="45.886380057781935" lon="7.160227708518505">
        <ele>2433.71</ele>
        <time>2016-07-04T12:16:53Z</time>
      </trkpt>
      <trkpt lat="45.886390032246709" lon="7.1603471506387">
        <ele>2431.79</ele>
        <time>2016-07-04T12:17:05Z</time>
      </trkpt>
      <trkpt lat="45.886408472433686" lon="7.160442704334855">
        <ele>2430.8299999999999</ele>
        <time>2016-07-04T12:17:14Z</time>
      </trkpt>
      <trkpt lat="45.8864267449826" lon="7.16057974845171">
        <ele>2428.4299999999998</ele>
        <time>2016-07-04T12:17:26Z</time>
      </trkpt>
      <trkpt lat="45.886404197663069" lon="7.1606286149472">
        <ele>2427.9499999999998</ele>
        <time>2016-07-04T12:17:31Z</time>
      </trkpt>
      <trkpt lat="45.886393971741199" lon="7.160747721791267">
        <ele>2426.9899999999998</ele>
        <time>2016-07-04T12:17:41Z</time>
      </trkpt>
      <trkpt lat="45.886385003104806" lon="7.160760378465056">
        <ele>2426.5</ele>
        <time>2016-07-04T12:17:43Z</time>
      </trkpt>
      <trkpt lat="45.886352648958564" lon="7.160842521116138">
        <ele>2426.5</ele>
        <time>2016-07-04T12:17:52Z</time>
      </trkpt>
      <trkpt lat="45.88634317740798" lon="7.160928351804614">
        <ele>2425.54</ele>
        <time>2016-07-04T12:18:01Z</time>
      </trkpt>
      <trkpt lat="45.886348290368915" lon="7.16096967458725">
        <ele>2424.5799999999999</ele>
        <time>2016-07-04T12:18:09Z</time>
      </trkpt>
      <trkpt lat="45.886388858780265" lon="7.161041842773557">
        <ele>2423.6199999999999</ele>
        <time>2016-07-04T12:18:18Z</time>
      </trkpt>
      <trkpt lat="45.886367652565241" lon="7.161047291010618">
        <ele>2423.1399999999999</ele>
        <time>2016-07-04T12:18:29Z</time>
      </trkpt>
      <trkpt lat="45.886380225419998" lon="7.161058774217963">
        <ele>2423.1399999999999</ele>
        <time>2016-07-04T12:18:44Z</time>
      </trkpt>
      <trkpt lat="45.886375196278095" lon="7.161059947684407">
        <ele>2423.1399999999999</ele>
        <time>2016-07-04T12:18:56Z</time>
      </trkpt>
      <trkpt lat="45.886402018368244" lon="7.161077465862036">
        <ele>2422.6599999999999</ele>
        <time>2016-07-04T12:19:13Z</time>
      </trkpt>
      <trkpt lat="45.886407298967242" lon="7.161108562722802">
        <ele>2422.1799999999998</ele>
        <time>2016-07-04T12:19:27Z</time>
      </trkpt>
      <trkpt lat="45.886430013924837" lon="7.161193639039993">
        <ele>2421.2199999999998</ele>
        <time>2016-07-04T12:19:36Z</time>
      </trkpt>
      <trkpt lat="45.886470666155219" lon="7.161281984299421">
        <ele>2419.7800000000002</ele>
        <time>2016-07-04T12:19:45Z</time>
      </trkpt>
      <trkpt lat="45.886493967846036" lon="7.161325821653009">
        <ele>2418.8099999999999</ele>
        <time>2016-07-04T12:19:49Z</time>
      </trkpt>
      <trkpt lat="45.886496147140861" lon="7.16140947304666">
        <ele>2417.8499999999999</ele>
        <time>2016-07-04T12:19:57Z</time>
      </trkpt>
      <trkpt lat="45.886497069150209" lon="7.16148080304265">
        <ele>2416.8899999999999</ele>
        <time>2016-07-04T12:20:02Z</time>
      </trkpt>
      <trkpt lat="45.886502517387271" lon="7.161563700065017">
        <ele>2416.4099999999999</ele>
        <time>2016-07-04T12:20:09Z</time>
      </trkpt>
      <trkpt lat="45.886488687247038" lon="7.161706192418933">
        <ele>2414.4899999999998</ele>
        <time>2016-07-04T12:20:20Z</time>
      </trkpt>
      <trkpt lat="45.886498996987939" lon="7.161804512143135">
        <ele>2413.5300000000002</ele>
        <time>2016-07-04T12:20:27Z</time>
      </trkpt>
      <trkpt lat="45.886493548750877" lon="7.161909369751811">
        <ele>2412.5700000000002</ele>
        <time>2016-07-04T12:20:35Z</time>
      </trkpt>
      <trkpt lat="45.886486172676086" lon="7.162016741931438">
        <ele>2410.6399999999999</ele>
        <time>2016-07-04T12:20:45Z</time>
      </trkpt>
      <trkpt lat="45.886540152132511" lon="7.162054544314742">
        <ele>2409.1999999999998</ele>
        <time>2016-07-04T12:20:54Z</time>
      </trkpt>
      <trkpt lat="45.886562196537852" lon="7.162108020856977">
        <ele>2408.2399999999998</ele>
        <time>2016-07-04T12:20:59Z</time>
      </trkpt>
      <trkpt lat="45.886555407196283" lon="7.162239030003548">
        <ele>2406.8000000000002</ele>
        <time>2016-07-04T12:21:09Z</time>
      </trkpt>
      <trkpt lat="45.886565800756216" lon="7.162342965602875">
        <ele>2405.3600000000001</ele>
        <time>2016-07-04T12:21:19Z</time>
      </trkpt>
      <trkpt lat="45.886600501835346" lon="7.162450840696693">
        <ele>2403.4299999999998</ele>
        <time>2016-07-04T12:21:30Z</time>
      </trkpt>
      <trkpt lat="45.886595388874412" lon="7.162458635866642">
        <ele>2403.4299999999998</ele>
        <time>2016-07-04T12:21:31Z</time>
      </trkpt>
      <trkpt lat="45.886578289791942" lon="7.162485374137759">
        <ele>2403.4299999999998</ele>
        <time>2016-07-04T12:21:38Z</time>
      </trkpt>
      <trkpt lat="45.886572254821658" lon="7.162536419928074">
        <ele>2402.4699999999998</ele>
        <time>2016-07-04T12:21:48Z</time>
      </trkpt>
      <trkpt lat="45.88657820597291" lon="7.1625523455441">
        <ele>2401.9899999999998</ele>
        <time>2016-07-04T12:22:13Z</time>
      </trkpt>
      <trkpt lat="45.886587761342525" lon="7.16256408020854">
        <ele>2402.4699999999998</ele>
        <time>2016-07-04T12:22:18Z</time>
      </trkpt>
      <trkpt lat="45.886601088568568" lon="7.162713026627898">
        <ele>2400.5500000000002</ele>
        <time>2016-07-04T12:22:30Z</time>
      </trkpt>
      <trkpt lat="45.886606704443693" lon="7.162739261984825">
        <ele>2401.0300000000002</ele>
        <time>2016-07-04T12:22:33Z</time>
      </trkpt>
      <trkpt lat="45.886625228449702" lon="7.16277027502656">
        <ele>2399.5900000000001</ele>
        <time>2016-07-04T12:22:36Z</time>
      </trkpt>
      <trkpt lat="45.886629838496447" lon="7.162774885073304">
        <ele>2399.1100000000001</ele>
        <time>2016-07-04T12:22:37Z</time>
      </trkpt>
      <trkpt lat="45.886686081066728" lon="7.162879323586822">
        <ele>2397.1799999999998</ele>
        <time>2016-07-04T12:22:47Z</time>
      </trkpt>
      <trkpt lat="45.886754980310798" lon="7.163027096539736">
        <ele>2394.3000000000002</ele>
        <time>2016-07-04T12:23:00Z</time>
      </trkpt>
      <trkpt lat="45.886765541508794" lon="7.163129355758429">
        <ele>2392.8600000000001</ele>
        <time>2016-07-04T12:23:09Z</time>
      </trkpt>
      <trkpt lat="45.886782305315137" lon="7.163230860605836">
        <ele>2391.4200000000001</ele>
        <time>2016-07-04T12:23:17Z</time>
      </trkpt>
      <trkpt lat="45.886746346950531" lon="7.163333287462592">
        <ele>2390.46</ele>
        <time>2016-07-04T12:23:27Z</time>
      </trkpt>
      <trkpt lat="45.886748777702451" lon="7.163449125364423">
        <ele>2389.0100000000002</ele>
        <time>2016-07-04T12:23:37Z</time>
      </trkpt>
      <trkpt lat="45.886768894270062" lon="7.163498746231198">
        <ele>2388.5300000000002</ele>
        <time>2016-07-04T12:23:42Z</time>
      </trkpt>
      <trkpt lat="45.886814910918474" lon="7.163618942722678">
        <ele>2386.1300000000001</ele>
        <time>2016-07-04T12:23:53Z</time>
      </trkpt>
      <trkpt lat="45.886825975030661" lon="7.163671916350722">
        <ele>2385.1700000000001</ele>
        <time>2016-07-04T12:23:59Z</time>
      </trkpt>
      <trkpt lat="45.886877523735166" lon="7.163750790059567">
        <ele>2383.25</ele>
        <time>2016-07-04T12:24:08Z</time>
      </trkpt>
      <trkpt lat="45.886880122125149" lon="7.163761937990785">
        <ele>2383.25</ele>
        <time>2016-07-04T12:24:09Z</time>
      </trkpt>
      <trkpt lat="45.886874087154865" lon="7.163818264380097">
        <ele>2381.8000000000002</ele>
        <time>2016-07-04T12:24:13Z</time>
      </trkpt>
      <trkpt lat="45.886872075498104" lon="7.163861682638526">
        <ele>2381.8000000000002</ele>
        <time>2016-07-04T12:24:17Z</time>
      </trkpt>
      <trkpt lat="45.886891102418303" lon="7.163901412859559">
        <ele>2381.3200000000002</ele>
        <time>2016-07-04T12:24:21Z</time>
      </trkpt>
      <trkpt lat="45.886902250349522" lon="7.163953548297286">
        <ele>2380.3600000000001</ele>
        <time>2016-07-04T12:24:25Z</time>
      </trkpt>
      <trkpt lat="45.886925971135497" lon="7.163989087566733">
        <ele>2379.8800000000001</ele>
        <time>2016-07-04T12:24:29Z</time>
      </trkpt>
      <trkpt lat="45.886932425200939" lon="7.164081372320652">
        <ele>2379.4000000000001</ele>
        <time>2016-07-04T12:24:36Z</time>
      </trkpt>
      <trkpt lat="45.886974586173892" lon="7.164128394797444">
        <ele>2378.4400000000001</ele>
        <time>2016-07-04T12:24:41Z</time>
      </trkpt>
      <trkpt lat="45.887016160413623" lon="7.164234090596438">
        <ele>2377</ele>
        <time>2016-07-04T12:24:51Z</time>
      </trkpt>
      <trkpt lat="45.887056393548846" lon="7.164360322058201">
        <ele>2375.5500000000002</ele>
        <time>2016-07-04T12:25:01Z</time>
      </trkpt>
      <trkpt lat="45.887077515944839" lon="7.164417738094926">
        <ele>2375.0700000000002</ele>
        <time>2016-07-04T12:25:06Z</time>
      </trkpt>
      <trkpt lat="45.88709369301796" lon="7.164435675367713">
        <ele>2374.5900000000001</ele>
        <time>2016-07-04T12:25:08Z</time>
      </trkpt>
      <trkpt lat="45.887144235894084" lon="7.164530726149678">
        <ele>2373.6300000000001</ele>
        <time>2016-07-04T12:25:17Z</time>
      </trkpt>
      <trkpt lat="45.887171560898423" lon="7.164601301774383">
        <ele>2372.6700000000001</ele>
        <time>2016-07-04T12:25:23Z</time>
      </trkpt>
      <trkpt lat="45.887143732979894" lon="7.164714206010103">
        <ele>2372.1900000000001</ele>
        <time>2016-07-04T12:25:32Z</time>
      </trkpt>
      <trkpt lat="45.887139374390244" lon="7.164810094982386">
        <ele>2371.23</ele>
        <time>2016-07-04T12:25:41Z</time>
      </trkpt>
      <trkpt lat="45.887148343026638" lon="7.164888214319944">
        <ele>2370.75</ele>
        <time>2016-07-04T12:25:46Z</time>
      </trkpt>
      <trkpt lat="45.887137362733483" lon="7.16493733227253">
        <ele>2370.27</ele>
        <time>2016-07-04T12:25:50Z</time>
      </trkpt>
      <trkpt lat="45.887136273086071" lon="7.164961723610759">
        <ele>2370.27</ele>
        <time>2016-07-04T12:25:52Z</time>
      </trkpt>
      <trkpt lat="45.887147756293416" lon="7.165001118555665">
        <ele>2369.79</ele>
        <time>2016-07-04T12:25:55Z</time>
      </trkpt>
      <trkpt lat="45.887147085741162" lon="7.165071107447147">
        <ele>2369.79</ele>
        <time>2016-07-04T12:25:59Z</time>
      </trkpt>
      <trkpt lat="45.887154210358858" lon="7.165111089125276">
        <ele>2368.3499999999999</ele>
        <time>2016-07-04T12:26:02Z</time>
      </trkpt>
      <trkpt lat="45.887193353846669" lon="7.16525693424046">
        <ele>2368.3499999999999</ele>
        <time>2016-07-04T12:26:13Z</time>
      </trkpt>
      <trkpt lat="45.887265102937818" lon="7.16539079323411">
        <ele>2366.9000000000001</ele>
        <time>2016-07-04T12:26:24Z</time>
      </trkpt>
      <trkpt lat="45.887342132627964" lon="7.165479389950633">
        <ele>2365.9400000000001</ele>
        <time>2016-07-04T12:26:34Z</time>
      </trkpt>
      <trkpt lat="45.887436512857676" lon="7.165545104071498">
        <ele>2365.46</ele>
        <time>2016-07-04T12:26:44Z</time>
      </trkpt>
      <trkpt lat="45.887453611940145" lon="7.165563879534602">
        <ele>2365.46</ele>
        <time>2016-07-04T12:26:46Z</time>
      </trkpt>
      <trkpt lat="45.887504406273365" lon="7.165633700788021">
        <ele>2364.98</ele>
        <time>2016-07-04T12:26:54Z</time>
      </trkpt>
      <trkpt lat="45.88755251839757" lon="7.16568885371089">
        <ele>2364.5</ele>
        <time>2016-07-04T12:27:00Z</time>
      </trkpt>
      <trkpt lat="45.88762778788805" lon="7.16576068662107">
        <ele>2363.54</ele>
        <time>2016-07-04T12:27:09Z</time>
      </trkpt>
      <trkpt lat="45.887735243886709" lon="7.165848277509213">
        <ele>2361.6199999999999</ele>
        <time>2016-07-04T12:27:21Z</time>
      </trkpt>
      <trkpt lat="45.887775141745806" lon="7.165892953053117">
        <ele>2361.1399999999999</ele>
        <time>2016-07-04T12:27:26Z</time>
      </trkpt>
      <trkpt lat="45.887871952727437" lon="7.166015999391675">
        <ele>2361.1399999999999</ele>
        <time>2016-07-04T12:27:38Z</time>
      </trkpt>
      <trkpt lat="45.887943366542459" lon="7.166108619421721">
        <ele>2360.6500000000001</ele>
        <time>2016-07-04T12:27:47Z</time>
      </trkpt>
      <trkpt lat="45.888003213331103" lon="7.166181793436408">
        <ele>2360.1700000000001</ele>
        <time>2016-07-04T12:27:55Z</time>
      </trkpt>
      <trkpt lat="45.888022240251303" lon="7.166202077642083">
        <ele>2359.6900000000001</ele>
        <time>2016-07-04T12:27:57Z</time>
      </trkpt>
      <trkpt lat="45.888035818934441" lon="7.166212387382984">
        <ele>2359.6900000000001</ele>
        <time>2016-07-04T12:27:59Z</time>
      </trkpt>
      <trkpt lat="45.888098599389195" lon="7.1663548797369">
        <ele>2357.77</ele>
        <time>2016-07-04T12:28:10Z</time>
      </trkpt>
      <trkpt lat="45.888111758977175" lon="7.166442554444075">
        <ele>2356.8099999999999</ele>
        <time>2016-07-04T12:28:16Z</time>
      </trkpt>
      <trkpt lat="45.888123158365488" lon="7.166476501151919">
        <ele>2356.3299999999999</ele>
        <time>2016-07-04T12:28:19Z</time>
      </trkpt>
      <trkpt lat="45.888122571632266" lon="7.166509525850415">
        <ele>2355.8499999999999</ele>
        <time>2016-07-04T12:28:21Z</time>
      </trkpt>
      <trkpt lat="45.888199266046286" lon="7.166571049019694">
        <ele>2354.4099999999999</ele>
        <time>2016-07-04T12:28:31Z</time>
      </trkpt>
      <trkpt lat="45.888248300179839" lon="7.166682947427034">
        <ele>2352.96</ele>
        <time>2016-07-04T12:28:40Z</time>
      </trkpt>
      <trkpt lat="45.888318372890353" lon="7.166759390383959">
        <ele>2351.04</ele>
        <time>2016-07-04T12:28:50Z</time>
      </trkpt>
      <trkpt lat="45.888409903272986" lon="7.166830971837044">
        <ele>2349.1199999999999</ele>
        <time>2016-07-04T12:29:00Z</time>
      </trkpt>
      <trkpt lat="45.888470085337758" lon="7.166947815567255">
        <ele>2346.7199999999998</ele>
        <time>2016-07-04T12:29:10Z</time>
      </trkpt>
      <trkpt lat="45.888477293774486" lon="7.167007913812995">
        <ele>2346.7199999999998</ele>
        <time>2016-07-04T12:29:15Z</time>
      </trkpt>
      <trkpt lat="45.88849849998951" lon="7.16701889410615">
        <ele>2345.75</ele>
        <time>2016-07-04T12:29:17Z</time>
      </trkpt>
      <trkpt lat="45.888488357886672" lon="7.167173707857728">
        <ele>2343.8299999999999</ele>
        <time>2016-07-04T12:29:28Z</time>
      </trkpt>
      <trkpt lat="45.88849120773375" lon="7.167185274884105">
        <ele>2343.3499999999999</ele>
        <time>2016-07-04T12:29:29Z</time>
      </trkpt>
      <trkpt lat="45.888505456969142" lon="7.167239841073751">
        <ele>2343.3499999999999</ele>
        <time>2016-07-04T12:29:33Z</time>
      </trkpt>
      <trkpt lat="45.888528842478991" lon="7.167276050895453">
        <ele>2342.8699999999999</ele>
        <time>2016-07-04T12:29:37Z</time>
      </trkpt>
      <trkpt lat="45.888563208281994" lon="7.167364815250039">
        <ele>2341.4299999999998</ele>
        <time>2016-07-04T12:29:45Z</time>
      </trkpt>
      <trkpt lat="45.888642333447933" lon="7.167475037276745">
        <ele>2339.9899999999998</ele>
        <time>2016-07-04T12:29:56Z</time>
      </trkpt>
      <trkpt lat="45.888734618201852" lon="7.167586516588926">
        <ele>2339.5100000000002</ele>
        <time>2016-07-04T12:30:08Z</time>
      </trkpt>
      <trkpt lat="45.888807708397508" lon="7.167694810777903">
        <ele>2338.54</ele>
        <time>2016-07-04T12:30:19Z</time>
      </trkpt>
      <trkpt lat="45.88887820020318" lon="7.167767062783241">
        <ele>2337.5799999999999</ele>
        <time>2016-07-04T12:30:28Z</time>
      </trkpt>
      <trkpt lat="45.88894659653306" lon="7.167844176292419">
        <ele>2336.6199999999999</ele>
        <time>2016-07-04T12:30:37Z</time>
      </trkpt>
      <trkpt lat="45.888979369774461" lon="7.167882733047009">
        <ele>2336.1399999999999</ele>
        <time>2016-07-04T12:30:41Z</time>
      </trkpt>
      <trkpt lat="45.889073414728045" lon="7.167967474088073">
        <ele>2334.6999999999998</ele>
        <time>2016-07-04T12:30:51Z</time>
      </trkpt>
      <trkpt lat="45.889173243194818" lon="7.168024806305766">
        <ele>2334.2199999999998</ele>
        <time>2016-07-04T12:31:02Z</time>
      </trkpt>
      <trkpt lat="45.889204675331712" lon="7.168038636445999">
        <ele>2333.7399999999998</ele>
        <time>2016-07-04T12:31:05Z</time>
      </trkpt>
      <trkpt lat="45.889253793284297" lon="7.168078618124127">
        <ele>2333.2600000000002</ele>
        <time>2016-07-04T12:31:10Z</time>
      </trkpt>
      <trkpt lat="45.889361333101988" lon="7.16816620901227">
        <ele>2332.3000000000002</ele>
        <time>2016-07-04T12:31:22Z</time>
      </trkpt>
      <trkpt lat="45.889409948140383" lon="7.168189929798245">
        <ele>2331.8099999999999</ele>
        <time>2016-07-04T12:31:27Z</time>
      </trkpt>
      <trkpt lat="45.889431405812502" lon="7.168218847364187">
        <ele>2330.8499999999999</ele>
        <time>2016-07-04T12:31:30Z</time>
      </trkpt>
      <trkpt lat="45.889519583433867" lon="7.168293613940477">
        <ele>2329.4099999999999</ele>
        <time>2016-07-04T12:31:40Z</time>
      </trkpt>
      <trkpt lat="45.889567360281944" lon="7.168376678600907">
        <ele>2327.9699999999998</ele>
        <time>2016-07-04T12:31:48Z</time>
      </trkpt>
      <trkpt lat="45.889648078009486" lon="7.168472399935126">
        <ele>2326.5300000000002</ele>
        <time>2016-07-04T12:31:58Z</time>
      </trkpt>
      <trkpt lat="45.889679426327348" lon="7.168485810980201">
        <ele>2326.5300000000002</ele>
        <time>2016-07-04T12:32:01Z</time>
      </trkpt>
      <trkpt lat="45.889704488217831" lon="7.168512046337128">
        <ele>2326.0500000000002</ele>
        <time>2016-07-04T12:32:04Z</time>
      </trkpt>
      <trkpt lat="45.889803310856223" lon="7.168603073805571">
        <ele>2324.6100000000001</ele>
        <time>2016-07-04T12:32:15Z</time>
      </trkpt>
      <trkpt lat="45.889811357483268" lon="7.168612964451313">
        <ele>2324.6100000000001</ele>
        <time>2016-07-04T12:32:16Z</time>
      </trkpt>
      <trkpt lat="45.889842035248876" lon="7.16862453147769">
        <ele>2324.1199999999999</ele>
        <time>2016-07-04T12:32:19Z</time>
      </trkpt>
      <trkpt lat="45.889927865937352" lon="7.168719666078687">
        <ele>2323.1599999999999</ele>
        <time>2016-07-04T12:32:29Z</time>
      </trkpt>
      <trkpt lat="45.889968853443861" lon="7.168763168156147">
        <ele>2322.6799999999998</ele>
        <time>2016-07-04T12:32:34Z</time>
      </trkpt>
      <trkpt lat="45.890010595321655" lon="7.168779009953141">
        <ele>2322.6799999999998</ele>
        <time>2016-07-04T12:32:38Z</time>
      </trkpt>
      <trkpt lat="45.890087960287929" lon="7.16886836104095">
        <ele>2321.2399999999998</ele>
        <time>2016-07-04T12:32:48Z</time>
      </trkpt>
      <trkpt lat="45.890145963057876" lon="7.168932147324085">
        <ele>2320.2800000000002</ele>
        <time>2016-07-04T12:33:00Z</time>
      </trkpt>
      <trkpt lat="45.890134731307626" lon="7.168958131223917">
        <ele>2319.3200000000002</ele>
        <time>2016-07-04T12:33:17Z</time>
      </trkpt>
      <trkpt lat="45.890189968049526" lon="7.168974224478006">
        <ele>2319.3200000000002</ele>
        <time>2016-07-04T12:33:24Z</time>
      </trkpt>
      <trkpt lat="45.890292143449187" lon="7.169008422642946">
        <ele>2317.8800000000001</ele>
        <time>2016-07-04T12:33:35Z</time>
      </trkpt>
      <trkpt lat="45.89036900550127" lon="7.169065251946449">
        <ele>2316.4299999999998</ele>
        <time>2016-07-04T12:33:45Z</time>
      </trkpt>
      <trkpt lat="45.890414183959365" lon="7.169131888076663">
        <ele>2315.4699999999998</ele>
        <time>2016-07-04T12:33:52Z</time>
      </trkpt>
      <trkpt lat="45.890469588339329" lon="7.169248731806874">
        <ele>2313.5500000000002</ele>
        <time>2016-07-04T12:34:03Z</time>
      </trkpt>
      <trkpt lat="45.890459530055523" lon="7.169248396530747">
        <ele>2313.5500000000002</ele>
        <time>2016-07-04T12:34:16Z</time>
      </trkpt>
      <trkpt lat="45.890486687421799" lon="7.16927588917315">
        <ele>2313.5500000000002</ele>
        <time>2016-07-04T12:34:23Z</time>
      </trkpt>
      <trkpt lat="45.890524825081229" lon="7.169304890558124">
        <ele>2312.5900000000001</ele>
        <time>2016-07-04T12:34:27Z</time>
      </trkpt>
      <trkpt lat="45.890637477859855" lon="7.169419303536415">
        <ele>2312.1100000000001</ele>
        <time>2016-07-04T12:34:40Z</time>
      </trkpt>
      <trkpt lat="45.890720877796412" lon="7.169467248022556">
        <ele>2308.7399999999998</ele>
        <time>2016-07-04T12:34:50Z</time>
      </trkpt>
      <trkpt lat="45.890728421509266" lon="7.169474037364125">
        <ele>2308.7399999999998</ele>
        <time>2016-07-04T12:34:51Z</time>
      </trkpt>
      <trkpt lat="45.890814000740647" lon="7.169573698192835">
        <ele>2306.8200000000002</ele>
        <time>2016-07-04T12:35:02Z</time>
      </trkpt>
      <trkpt lat="45.890849707648158" lon="7.169622564688325">
        <ele>2306.3400000000001</ele>
        <time>2016-07-04T12:35:06Z</time>
      </trkpt>
      <trkpt lat="45.890932185575366" lon="7.16971174813807">
        <ele>2304.4200000000001</ele>
        <time>2016-07-04T12:35:16Z</time>
      </trkpt>
      <trkpt lat="45.89105891995132" lon="7.169785005971789">
        <ele>2303.46</ele>
        <time>2016-07-04T12:35:30Z</time>
      </trkpt>
      <trkpt lat="45.89115958660841" lon="7.169896066188812">
        <ele>2302.4899999999998</ele>
        <time>2016-07-04T12:35:42Z</time>
      </trkpt>
      <trkpt lat="45.891253715381026" lon="7.170038977637887">
        <ele>2301.0500000000002</ele>
        <time>2016-07-04T12:35:55Z</time>
      </trkpt>
      <trkpt lat="45.891265030950308" lon="7.170075355097652">
        <ele>2300.5700000000002</ele>
        <time>2016-07-04T12:35:58Z</time>
      </trkpt>
      <trkpt lat="45.891322195529938" lon="7.170120030641556">
        <ele>2300.0900000000001</ele>
        <time>2016-07-04T12:36:04Z</time>
      </trkpt>
      <trkpt lat="45.891409702599049" lon="7.170266378670931">
        <ele>2298.6500000000001</ele>
        <time>2016-07-04T12:36:18Z</time>
      </trkpt>
      <trkpt lat="45.891487654298544" lon="7.170373080298305">
        <ele>2297.6900000000001</ele>
        <time>2016-07-04T12:36:29Z</time>
      </trkpt>
      <trkpt lat="45.891510369256139" lon="7.17040752992034">
        <ele>2297.6900000000001</ele>
        <time>2016-07-04T12:36:37Z</time>
      </trkpt>
      <trkpt lat="45.891504250466824" lon="7.170413816347718">
        <ele>2296.73</ele>
        <time>2016-07-04T12:36:45Z</time>
      </trkpt>
      <trkpt lat="45.891495114192367" lon="7.170430915430188">
        <ele>2296.73</ele>
        <time>2016-07-04T12:37:02Z</time>
      </trkpt>
      <trkpt lat="45.89151531457901" lon="7.170469556003809">
        <ele>2297.21</ele>
        <time>2016-07-04T12:37:17Z</time>
      </trkpt>
      <trkpt lat="45.891511710360646" lon="7.170487912371755">
        <ele>2297.6900000000001</ele>
        <time>2016-07-04T12:37:20Z</time>
      </trkpt>
      <trkpt lat="45.891521936282516" lon="7.170498557388783">
        <ele>2297.21</ele>
        <time>2016-07-04T12:37:22Z</time>
      </trkpt>
      <trkpt lat="45.891553200781345" lon="7.170539377257228">
        <ele>2296.25</ele>
        <time>2016-07-04T12:37:26Z</time>
      </trkpt>
      <trkpt lat="45.891616316512227" lon="7.170700393617153">
        <ele>2295.77</ele>
        <time>2016-07-04T12:37:39Z</time>
      </trkpt>
      <trkpt lat="45.891720335930586" lon="7.170869624242187">
        <ele>2295.2800000000002</ele>
        <time>2016-07-04T12:37:53Z</time>
      </trkpt>
      <trkpt lat="45.891805160790682" lon="7.171040782704949">
        <ele>2293.8400000000001</ele>
        <time>2016-07-04T12:38:07Z</time>
      </trkpt>
      <trkpt lat="45.891891997307539" lon="7.171185202896595">
        <ele>2292.8800000000001</ele>
        <time>2016-07-04T12:38:19Z</time>
      </trkpt>
      <trkpt lat="45.891980091109872" lon="7.171337585896254">
        <ele>2292.8800000000001</ele>
        <time>2016-07-04T12:38:32Z</time>
      </trkpt>
      <trkpt lat="45.892042871564627" lon="7.171429200097919">
        <ele>2292.8800000000001</ele>
        <time>2016-07-04T12:38:40Z</time>
      </trkpt>
      <trkpt lat="45.892121829092503" lon="7.171431044116616">
        <ele>2290.48</ele>
        <time>2016-07-04T12:38:49Z</time>
      </trkpt>
      <trkpt lat="45.892130210995674" lon="7.171428697183728">
        <ele>2290</ele>
        <time>2016-07-04T12:38:50Z</time>
      </trkpt>
      <trkpt lat="45.892237080261111" lon="7.171544535085559">
        <ele>2287.5900000000001</ele>
        <time>2016-07-04T12:39:02Z</time>
      </trkpt>
      <trkpt lat="45.892332550138235" lon="7.171699432656169">
        <ele>2286.6300000000001</ele>
        <time>2016-07-04T12:39:14Z</time>
      </trkpt>
      <trkpt lat="45.892404047772288" lon="7.171834968030453">
        <ele>2285.6700000000001</ele>
        <time>2016-07-04T12:39:25Z</time>
      </trkpt>
      <trkpt lat="45.892480155453086" lon="7.172001181170344">
        <ele>2283.75</ele>
        <time>2016-07-04T12:39:39Z</time>
      </trkpt>
      <trkpt lat="45.892530446872115" lon="7.172131519764662">
        <ele>2282.79</ele>
        <time>2016-07-04T12:39:48Z</time>
      </trkpt>
      <trkpt lat="45.89258098974824" lon="7.172300918027759">
        <ele>2280.8699999999999</ele>
        <time>2016-07-04T12:39:59Z</time>
      </trkpt>
      <trkpt lat="45.892640501260757" lon="7.172447852790356">
        <ele>2278.9400000000001</ele>
        <time>2016-07-04T12:40:10Z</time>
      </trkpt>
      <trkpt lat="45.892708394676447" lon="7.172604175284505">
        <ele>2277.02</ele>
        <time>2016-07-04T12:40:23Z</time>
      </trkpt>
      <trkpt lat="45.892735216766596" lon="7.172849094495177">
        <ele>2275.5799999999999</ele>
        <time>2016-07-04T12:40:37Z</time>
      </trkpt>
      <trkpt lat="45.892766313627362" lon="7.17299628071487">
        <ele>2273.6599999999999</ele>
        <time>2016-07-04T12:40:48Z</time>
      </trkpt>
      <trkpt lat="45.892800847068429" lon="7.173148412257433">
        <ele>2271.73</ele>
        <time>2016-07-04T12:40:59Z</time>
      </trkpt>
      <trkpt lat="45.892808558419347" lon="7.173202726989985">
        <ele>2271.25</ele>
        <time>2016-07-04T12:41:03Z</time>
      </trkpt>
      <trkpt lat="45.892848875373602" lon="7.173298196867108">
        <ele>2268.3699999999999</ele>
        <time>2016-07-04T12:41:13Z</time>
      </trkpt>
      <trkpt lat="45.892843175679445" lon="7.173282606527209">
        <ele>2267.8899999999999</ele>
        <time>2016-07-04T12:41:24Z</time>
      </trkpt>
      <trkpt lat="45.892832865938544" lon="7.173264333978295">
        <ele>2267.8899999999999</ele>
        <time>2016-07-04T12:41:36Z</time>
      </trkpt>
      <trkpt lat="45.892831943929195" lon="7.173266932368279">
        <ele>2267.4099999999999</ele>
        <time>2016-07-04T12:41:40Z</time>
      </trkpt>
      <trkpt lat="45.892864298075438" lon="7.173481676727533">
        <ele>2265</ele>
        <time>2016-07-04T12:41:52Z</time>
      </trkpt>
      <trkpt lat="45.892859017476439" lon="7.173561975359917">
        <ele>2263.0799999999999</ele>
        <time>2016-07-04T12:42:01Z</time>
      </trkpt>
      <trkpt lat="45.892886845394969" lon="7.17362274415791">
        <ele>2261.1599999999999</ele>
        <time>2016-07-04T12:42:08Z</time>
      </trkpt>
      <trkpt lat="45.892938142642379" lon="7.173721063882113">
        <ele>2259.7199999999998</ele>
        <time>2016-07-04T12:42:16Z</time>
      </trkpt>
      <trkpt lat="45.892987931147218" lon="7.173884594812989">
        <ele>2256.8299999999999</ele>
        <time>2016-07-04T12:42:28Z</time>
      </trkpt>
      <trkpt lat="45.892992792651057" lon="7.173894988372922">
        <ele>2256.8299999999999</ele>
        <time>2016-07-04T12:42:29Z</time>
      </trkpt>
      <trkpt lat="45.892968233674765" lon="7.174024824053049">
        <ele>2253.4699999999998</ele>
        <time>2016-07-04T12:42:39Z</time>
      </trkpt>
      <trkpt lat="45.892956582829356" lon="7.174084922298789">
        <ele>2253.4699999999998</ele>
        <time>2016-07-04T12:42:45Z</time>
      </trkpt>
      <trkpt lat="45.892964545637369" lon="7.17415482737124">
        <ele>2250.0999999999999</ele>
        <time>2016-07-04T12:42:52Z</time>
      </trkpt>
      <trkpt lat="45.892930431291461" lon="7.174221044406295">
        <ele>2248.6599999999999</ele>
        <time>2016-07-04T12:42:59Z</time>
      </trkpt>
      <trkpt lat="45.892979800701141" lon="7.174324057996273">
        <ele>2246.2600000000002</ele>
        <time>2016-07-04T12:43:09Z</time>
      </trkpt>
      <trkpt lat="45.892996732145548" lon="7.174481302499771">
        <ele>2243.8499999999999</ele>
        <time>2016-07-04T12:43:21Z</time>
      </trkpt>
      <trkpt lat="45.893005533143878" lon="7.174485744908452">
        <ele>2243.3699999999999</ele>
        <time>2016-07-04T12:43:35Z</time>
      </trkpt>
      <trkpt lat="45.893036713823676" lon="7.174538131803274">
        <ele>2242.8899999999999</ele>
        <time>2016-07-04T12:43:47Z</time>
      </trkpt>
      <trkpt lat="45.893071414902806" lon="7.174621364101768">
        <ele>2241.4499999999998</ele>
        <time>2016-07-04T12:43:57Z</time>
      </trkpt>
      <trkpt lat="45.893062613904476" lon="7.174607533961535">
        <ele>2240.9699999999998</ele>
        <time>2016-07-04T12:44:12Z</time>
      </trkpt>
      <trkpt lat="45.893090358003974" lon="7.174603678286076">
        <ele>2240.4899999999998</ele>
        <time>2016-07-04T12:44:24Z</time>
      </trkpt>
      <trkpt lat="45.893093794584274" lon="7.174609629437327">
        <ele>2240.4899999999998</ele>
        <time>2016-07-04T12:44:43Z</time>
      </trkpt>
      <trkpt lat="45.893091363832355" lon="7.174622034654021">
        <ele>2240.0100000000002</ele>
        <time>2016-07-04T12:44:54Z</time>
      </trkpt>
      <trkpt lat="45.89307795278728" lon="7.174624968320131">
        <ele>2240.0100000000002</ele>
        <time>2016-07-04T12:44:55Z</time>
      </trkpt>
      <trkpt lat="45.893033193424344" lon="7.174544921144843">
        <ele>2241.4499999999998</ele>
        <time>2016-07-04T12:45:05Z</time>
      </trkpt>
      <trkpt lat="45.892981057986617" lon="7.174496473744512">
        <ele>2242.8899999999999</ele>
        <time>2016-07-04T12:45:12Z</time>
      </trkpt>
      <trkpt lat="45.892968401312828" lon="7.174386251717806">
        <ele>2244.3299999999999</ele>
        <time>2016-07-04T12:45:21Z</time>
      </trkpt>
      <trkpt lat="45.892960522323847" lon="7.174271000549197">
        <ele>2246.2600000000002</ele>
        <time>2016-07-04T12:45:31Z</time>
      </trkpt>
      <trkpt lat="45.89295725338161" lon="7.17425549402833">
        <ele>2246.7399999999998</ele>
        <time>2016-07-04T12:45:34Z</time>
      </trkpt>
      <trkpt lat="45.892956247553229" lon="7.174172680824995">
        <ele>2248.6599999999999</ele>
        <time>2016-07-04T12:45:44Z</time>
      </trkpt>
      <trkpt lat="45.892984997481108" lon="7.174117946997285">
        <ele>2250.0999999999999</ele>
        <time>2016-07-04T12:45:53Z</time>
      </trkpt>
      <trkpt lat="45.89300125837326" lon="7.174063129350543">
        <ele>2250.0999999999999</ele>
        <time>2016-07-04T12:46:03Z</time>
      </trkpt>
      <trkpt lat="45.893063032999635" lon="7.17400873079896">
        <ele>2249.1399999999999</ele>
        <time>2016-07-04T12:46:13Z</time>
      </trkpt>
      <trkpt lat="45.893091112375259" lon="7.17399992980063">
        <ele>2248.1799999999998</ele>
        <time>2016-07-04T12:46:20Z</time>
      </trkpt>
      <trkpt lat="45.893096979707479" lon="7.173967491835356">
        <ele>2248.1799999999998</ele>
        <time>2016-07-04T12:46:30Z</time>
      </trkpt>
      <trkpt lat="45.893090609461069" lon="7.173925498500466">
        <ele>2249.1399999999999</ele>
        <time>2016-07-04T12:46:40Z</time>
      </trkpt>
      <trkpt lat="45.893083987757564" lon="7.173937484622002">
        <ele>2249.6199999999999</ele>
        <time>2016-07-04T12:46:47Z</time>
      </trkpt>
      <trkpt lat="45.893080634996295" lon="7.173815108835697">
        <ele>2251.0599999999999</ele>
        <time>2016-07-04T12:46:58Z</time>
      </trkpt>
      <trkpt lat="45.89306085370481" lon="7.1737649012357">
        <ele>2251.0599999999999</ele>
        <time>2016-07-04T12:47:05Z</time>
      </trkpt>
      <trkpt lat="45.893060099333525" lon="7.173688458278775">
        <ele>2252.0300000000002</ele>
        <time>2016-07-04T12:47:16Z</time>
      </trkpt>
      <trkpt lat="45.893067726865411" lon="7.173685859888792">
        <ele>2252.0300000000002</ele>
        <time>2016-07-04T12:47:29Z</time>
      </trkpt>
      <trkpt lat="45.893035875633359" lon="7.173682088032365">
        <ele>2252.5100000000002</ele>
        <time>2016-07-04T12:47:40Z</time>
      </trkpt>
      <trkpt lat="45.89300855062902" lon="7.173636239022017">
        <ele>2253.4699999999998</ele>
        <time>2016-07-04T12:47:48Z</time>
      </trkpt>
      <trkpt lat="45.893006455153227" lon="7.173598017543554">
        <ele>2253.9499999999998</ele>
        <time>2016-07-04T12:47:59Z</time>
      </trkpt>
      <trkpt lat="45.893002767115831" lon="7.173597766086459">
        <ele>2253.9499999999998</ele>
        <time>2016-07-04T12:48:14Z</time>
      </trkpt>
      <trkpt lat="45.893018189817667" lon="7.173669431358576">
        <ele>2253.4699999999998</ele>
        <time>2016-07-04T12:48:26Z</time>
      </trkpt>
      <trkpt lat="45.893051214516163" lon="7.173760710284114">
        <ele>2252.5100000000002</ele>
        <time>2016-07-04T12:48:37Z</time>
      </trkpt>
      <trkpt lat="45.893058506771922" lon="7.173764314502478">
        <ele>2252.5100000000002</ele>
        <time>2016-07-04T12:48:38Z</time>
      </trkpt>
      <trkpt lat="45.89309161528945" lon="7.17386070638895">
        <ele>2251.0599999999999</ele>
        <time>2016-07-04T12:48:46Z</time>
      </trkpt>
      <trkpt lat="45.893085999414325" lon="7.173950895667076">
        <ele>2251.0599999999999</ele>
        <time>2016-07-04T12:48:55Z</time>
      </trkpt>
      <trkpt lat="45.893087172880769" lon="7.173960534855723">
        <ele>2251.0599999999999</ele>
        <time>2016-07-04T12:48:56Z</time>
      </trkpt>
      <trkpt lat="45.893034031614661" lon="7.1740463655442">
        <ele>2250.5799999999999</ele>
        <time>2016-07-04T12:49:05Z</time>
      </trkpt>
      <trkpt lat="45.892988685518503" lon="7.17409766279161">
        <ele>2251.54</ele>
        <time>2016-07-04T12:49:14Z</time>
      </trkpt>
      <trkpt lat="45.892979046329856" lon="7.174141751602292">
        <ele>2250.5799999999999</ele>
        <time>2016-07-04T12:49:19Z</time>
      </trkpt>
      <trkpt lat="45.89295968413353" lon="7.174253147095442">
        <ele>2248.1799999999998</ele>
        <time>2016-07-04T12:49:31Z</time>
      </trkpt>
      <trkpt lat="45.89296362362802" lon="7.17425649985671">
        <ele>2248.1799999999998</ele>
        <time>2016-07-04T12:49:32Z</time>
      </trkpt>
      <trkpt lat="45.892986841499805" lon="7.174373930320144">
        <ele>2245.3000000000002</ele>
        <time>2016-07-04T12:49:42Z</time>
      </trkpt>
      <trkpt lat="45.892997654154897" lon="7.174494713544846">
        <ele>2243.3699999999999</ele>
        <time>2016-07-04T12:49:53Z</time>
      </trkpt>
      <trkpt lat="45.89301492087543" lon="7.174526313319802">
        <ele>2242.4099999999999</ele>
        <time>2016-07-04T12:50:02Z</time>
      </trkpt>
      <trkpt lat="45.893037049099803" lon="7.174575347453356">
        <ele>2241.9299999999998</ele>
        <time>2016-07-04T12:50:16Z</time>
      </trkpt>
      <trkpt lat="45.893044425174594" lon="7.174680540338159">
        <ele>2240.4899999999998</ele>
        <time>2016-07-04T12:50:27Z</time>
      </trkpt>
      <trkpt lat="45.893055154010653" lon="7.174709709361196">
        <ele>2239.0500000000002</ele>
        <time>2016-07-04T12:50:30Z</time>
      </trkpt>
      <trkpt lat="45.893104020506144" lon="7.174783805385232">
        <ele>2237.6100000000001</ele>
        <time>2016-07-04T12:50:41Z</time>
      </trkpt>
      <trkpt lat="45.893133021891117" lon="7.174871899187565">
        <ele>2235.1999999999998</ele>
        <time>2016-07-04T12:50:51Z</time>
      </trkpt>
      <trkpt lat="45.893140062689781" lon="7.174988156184554">
        <ele>2232.8000000000002</ele>
        <time>2016-07-04T12:51:01Z</time>
      </trkpt>
      <trkpt lat="45.893144924193621" lon="7.175069125369191">
        <ele>2231.3600000000001</ele>
        <time>2016-07-04T12:51:08Z</time>
      </trkpt>
      <trkpt lat="45.893142744898796" lon="7.175214719027281">
        <ele>2229.9200000000001</ele>
        <time>2016-07-04T12:51:19Z</time>
      </trkpt>
      <trkpt lat="45.893145343288779" lon="7.175330556929112">
        <ele>2227.9899999999998</ele>
        <time>2016-07-04T12:51:29Z</time>
      </trkpt>
      <trkpt lat="45.893144337460399" lon="7.175343129783869">
        <ele>2227.9899999999998</ele>
        <time>2016-07-04T12:51:30Z</time>
      </trkpt>
      <trkpt lat="45.893166130408645" lon="7.17546341009438">
        <ele>2226.5500000000002</ele>
        <time>2016-07-04T12:51:40Z</time>
      </trkpt>
      <trkpt lat="45.893192449584603" lon="7.175567261874676">
        <ele>2224.6300000000001</ele>
        <time>2016-07-04T12:51:50Z</time>
      </trkpt>
      <trkpt lat="45.893228072673082" lon="7.175575811415911">
        <ele>2223.1900000000001</ele>
        <time>2016-07-04T12:52:00Z</time>
      </trkpt>
      <trkpt lat="45.893229497596622" lon="7.175541948527098">
        <ele>2222.71</ele>
        <time>2016-07-04T12:52:16Z</time>
      </trkpt>
      <trkpt lat="45.893242908641696" lon="7.175491405650973">
        <ele>2221.7399999999998</ele>
        <time>2016-07-04T12:52:20Z</time>
      </trkpt>
      <trkpt lat="45.89326654560864" lon="7.175343129783869">
        <ele>2220.3000000000002</ele>
        <time>2016-07-04T12:52:31Z</time>
      </trkpt>
      <trkpt lat="45.893262606114149" lon="7.175305159762502">
        <ele>2220.3000000000002</ele>
        <time>2016-07-04T12:52:38Z</time>
      </trkpt>
      <trkpt lat="45.893265623599291" lon="7.175289988517761">
        <ele>2220.3000000000002</ele>
        <time>2016-07-04T12:52:49Z</time>
      </trkpt>
      <trkpt lat="45.893267299979925" lon="7.175301890820265">
        <ele>2220.3000000000002</ele>
        <time>2016-07-04T12:53:07Z</time>
      </trkpt>
      <trkpt lat="45.893266294151545" lon="7.175259813666344">
        <ele>2220.3000000000002</ele>
        <time>2016-07-04T12:53:16Z</time>
      </trkpt>
      <trkpt lat="45.893269646912813" lon="7.175250174477696">
        <ele>2219.8200000000002</ele>
        <time>2016-07-04T12:53:30Z</time>
      </trkpt>
      <trkpt lat="45.893267467617989" lon="7.175243804231286">
        <ele>2219.8200000000002</ele>
        <time>2016-07-04T12:53:49Z</time>
      </trkpt>
      <trkpt lat="45.893260510638356" lon="7.175258137285709">
        <ele>2219.8200000000002</ele>
        <time>2016-07-04T12:54:13Z</time>
      </trkpt>
      <trkpt lat="45.893281465396285" lon="7.175258891656995">
        <ele>2219.8200000000002</ele>
        <time>2016-07-04T12:54:29Z</time>
      </trkpt>
      <trkpt lat="45.893279369920492" lon="7.175262244418263">
        <ele>2219.8200000000002</ele>
        <time>2016-07-04T12:54:49Z</time>
      </trkpt>
      <trkpt lat="45.893277861177921" lon="7.175261238589883">
        <ele>2219.8200000000002</ele>
        <time>2016-07-04T12:55:11Z</time>
      </trkpt>
      <trkpt lat="45.893272999674082" lon="7.175243888050318">
        <ele>2219.8200000000002</ele>
        <time>2016-07-04T12:55:32Z</time>
      </trkpt>
      <trkpt lat="45.893287500366569" lon="7.175249923020601">
        <ele>2219.8200000000002</ele>
        <time>2016-07-04T12:55:52Z</time>
      </trkpt>
      <trkpt lat="45.893286326900125" lon="7.17524154111743">
        <ele>2219.8200000000002</ele>
        <time>2016-07-04T12:56:08Z</time>
      </trkpt>
      <trkpt lat="45.893280040472746" lon="7.175241457298398">
        <ele>2219.8200000000002</ele>
        <time>2016-07-04T12:56:25Z</time>
      </trkpt>
      <trkpt lat="45.893284734338522" lon="7.17524983920157">
        <ele>2219.8200000000002</ele>
        <time>2016-07-04T12:56:50Z</time>
      </trkpt>
      <trkpt lat="45.893298983573914" lon="7.175246821716428">
        <ele>2219.8200000000002</ele>
        <time>2016-07-04T12:57:05Z</time>
      </trkpt>
      <trkpt lat="45.893303006887436" lon="7.175240870565176">
        <ele>2219.3400000000001</ele>
        <time>2016-07-04T12:57:22Z</time>
      </trkpt>
      <trkpt lat="45.893290601670742" lon="7.175238020718098">
        <ele>2219.8200000000002</ele>
        <time>2016-07-04T12:57:35Z</time>
      </trkpt>
      <trkpt lat="45.893287165090442" lon="7.175220334902406">
        <ele>2218.8600000000001</ele>
        <time>2016-07-04T12:57:48Z</time>
      </trkpt>
      <trkpt lat="45.893300995230675" lon="7.175230728462338">
        <ele>2218.8600000000001</ele>
        <time>2016-07-04T12:58:05Z</time>
      </trkpt>
      <trkpt lat="45.893294624984264" lon="7.175223017111421">
        <ele>2218.8600000000001</ele>
        <time>2016-07-04T12:58:18Z</time>
      </trkpt>
      <trkpt lat="45.893297726288438" lon="7.175229554995894">
        <ele>2218.8600000000001</ele>
        <time>2016-07-04T12:58:28Z</time>
      </trkpt>
      <trkpt lat="45.893306694924831" lon="7.175245648249984">
        <ele>2218.8600000000001</ele>
        <time>2016-07-04T12:58:42Z</time>
      </trkpt>
      <trkpt lat="45.893345586955547" lon="7.175245732069016">
        <ele>2218.8600000000001</ele>
        <time>2016-07-04T12:58:53Z</time>
      </trkpt>
      <trkpt lat="45.89337944984436" lon="7.175271464511752">
        <ele>2219.3400000000001</ele>
        <time>2016-07-04T12:59:05Z</time>
      </trkpt>
      <trkpt lat="45.893388167023659" lon="7.175293425098062">
        <ele>2219.3400000000001</ele>
        <time>2016-07-04T12:59:19Z</time>
      </trkpt>
      <trkpt lat="45.893402164801955" lon="7.175309099256992">
        <ele>2219.3400000000001</ele>
        <time>2016-07-04T12:59:28Z</time>
      </trkpt>
      <trkpt lat="45.893417503684759" lon="7.175277750939131">
        <ele>2220.7800000000002</ele>
        <time>2016-07-04T12:59:39Z</time>
      </trkpt>
      <trkpt lat="45.893406188115478" lon="7.17529971152544">
        <ele>2219.8200000000002</ele>
        <time>2016-07-04T12:59:53Z</time>
      </trkpt>
      <trkpt lat="45.893408618867397" lon="7.175287893041968">
        <ele>2219.8200000000002</ele>
        <time>2016-07-04T13:00:04Z</time>
      </trkpt>
      <trkpt lat="45.893423203378916" lon="7.175298118963838">
        <ele>2219.8200000000002</ele>
        <time>2016-07-04T13:00:26Z</time>
      </trkpt>
      <trkpt lat="45.893423119559884" lon="7.175275990739465">
        <ele>2219.8200000000002</ele>
        <time>2016-07-04T13:00:35Z</time>
      </trkpt>
      <trkpt lat="45.89343368075788" lon="7.17529091052711">
        <ele>2219.8200000000002</ele>
        <time>2016-07-04T13:01:06Z</time>
      </trkpt>
      <trkpt lat="45.893416330218315" lon="7.17529334127903">
        <ele>2219.8200000000002</ele>
        <time>2016-07-04T13:01:42Z</time>
      </trkpt>
      <trkpt lat="45.893413983285427" lon="7.175290491431952">
        <ele>2219.8200000000002</ele>
        <time>2016-07-04T13:02:19Z</time>
      </trkpt>
      <trkpt lat="45.893415827304125" lon="7.175283785909414">
        <ele>2219.8200000000002</ele>
        <time>2016-07-04T13:02:49Z</time>
      </trkpt>
      <trkpt lat="45.893415240570903" lon="7.175273057073355">
        <ele>2219.8200000000002</ele>
        <time>2016-07-04T13:03:28Z</time>
      </trkpt>
      <trkpt lat="45.893416246399283" lon="7.175262160599232">
        <ele>2219.3400000000001</ele>
        <time>2016-07-04T13:04:04Z</time>
      </trkpt>
      <trkpt lat="45.893433010205626" lon="7.175255455076695">
        <ele>2219.3400000000001</ele>
        <time>2016-07-04T13:04:37Z</time>
      </trkpt>
      <trkpt lat="45.893409373238683" lon="7.175257634371519">
        <ele>2218.8600000000001</ele>
        <time>2016-07-04T13:05:08Z</time>
      </trkpt>
      <trkpt lat="45.893415743485093" lon="7.175275152549148">
        <ele>2219.8200000000002</ele>
        <time>2016-07-04T13:05:21Z</time>
      </trkpt>
      <trkpt lat="45.893415324389935" lon="7.175240870565176">
        <ele>2219.8200000000002</ele>
        <time>2016-07-04T13:05:29Z</time>
      </trkpt>
      <trkpt lat="45.893418760970235" lon="7.175278756767511">
        <ele>2220.3000000000002</ele>
        <time>2016-07-04T13:05:46Z</time>
      </trkpt>
      <trkpt lat="45.893418593332171" lon="7.175285378471017">
        <ele>2219.8200000000002</ele>
        <time>2016-07-04T13:05:58Z</time>
      </trkpt>
      <trkpt lat="45.893444325774908" lon="7.175337681546807">
        <ele>2220.3000000000002</ele>
        <time>2016-07-04T13:06:07Z</time>
      </trkpt>
      <trkpt lat="45.893438206985593" lon="7.175370035693049">
        <ele>2220.3000000000002</ele>
        <time>2016-07-04T13:06:10Z</time>
      </trkpt>
      <trkpt lat="45.893468214198947" lon="7.175476821139455">
        <ele>2219.3400000000001</ele>
        <time>2016-07-04T13:06:21Z</time>
      </trkpt>
      <trkpt lat="45.893486989662051" lon="7.175558712333441">
        <ele>2218.3800000000001</ele>
        <time>2016-07-04T13:06:28Z</time>
      </trkpt>
      <trkpt lat="45.893519343808293" lon="7.175624594092369">
        <ele>2216.9400000000001</ele>
        <time>2016-07-04T13:06:35Z</time>
      </trkpt>
      <trkpt lat="45.893533006310463" lon="7.17575510032475">
        <ele>2214.5300000000002</ele>
        <time>2016-07-04T13:06:46Z</time>
      </trkpt>
      <trkpt lat="45.893524624407291" lon="7.17583816498518">
        <ele>2212.6100000000001</ele>
        <time>2016-07-04T13:06:54Z</time>
      </trkpt>
      <trkpt lat="45.893506687134504" lon="7.175920307636261">
        <ele>2210.6900000000001</ele>
        <time>2016-07-04T13:07:04Z</time>
      </trkpt>
      <trkpt lat="45.89350450783968" lon="7.176024746149778">
        <ele>2210.21</ele>
        <time>2016-07-04T13:07:14Z</time>
      </trkpt>
      <trkpt lat="45.893530743196607" lon="7.176140248775482">
        <ele>2208.29</ele>
        <time>2016-07-04T13:07:24Z</time>
      </trkpt>
      <trkpt lat="45.893551865592599" lon="7.176249884068966">
        <ele>2206.3600000000001</ele>
        <time>2016-07-04T13:07:36Z</time>
      </trkpt>
      <trkpt lat="45.893560750409961" lon="7.176261199638248">
        <ele>2205.4000000000001</ele>
        <time>2016-07-04T13:07:38Z</time>
      </trkpt>
      <trkpt lat="45.893616322427988" lon="7.176299085840583">
        <ele>2204.4400000000001</ele>
        <time>2016-07-04T13:07:45Z</time>
      </trkpt>
      <trkpt lat="45.893703326582909" lon="7.176372427493334">
        <ele>2202.52</ele>
        <time>2016-07-04T13:07:56Z</time>
      </trkpt>
      <trkpt lat="45.893737440928817" lon="7.176526570692658">
        <ele>2202.04</ele>
        <time>2016-07-04T13:08:07Z</time>
      </trkpt>
      <trkpt lat="45.893738698214293" lon="7.176639726385474">
        <ele>2201.5599999999999</ele>
        <time>2016-07-04T13:08:16Z</time>
      </trkpt>
      <trkpt lat="45.893770214170218" lon="7.176787666976452">
        <ele>2200.5900000000001</ele>
        <time>2016-07-04T13:08:28Z</time>
      </trkpt>
      <trkpt lat="45.893788654357195" lon="7.176820524036884">
        <ele>2199.1500000000001</ele>
        <time>2016-07-04T13:08:32Z</time>
      </trkpt>
      <trkpt lat="45.893823187798262" lon="7.176929488778114">
        <ele>2197.71</ele>
        <time>2016-07-04T13:08:45Z</time>
      </trkpt>
      <trkpt lat="45.893856212496758" lon="7.176989587023854">
        <ele>2197.23</ele>
        <time>2016-07-04T13:08:55Z</time>
      </trkpt>
      <trkpt lat="45.893857888877392" lon="7.176997046917677">
        <ele>2197.23</ele>
        <time>2016-07-04T13:09:10Z</time>
      </trkpt>
      <trkpt lat="45.893857050687075" lon="7.177000315859914">
        <ele>2196.75</ele>
        <time>2016-07-04T13:09:27Z</time>
      </trkpt>
      <trkpt lat="45.893866857513785" lon="7.177033759653568">
        <ele>2196.75</ele>
        <time>2016-07-04T13:09:38Z</time>
      </trkpt>
      <trkpt lat="45.89390566572547" lon="7.177075836807489">
        <ele>2195.79</ele>
        <time>2016-07-04T13:09:51Z</time>
      </trkpt>
      <trkpt lat="45.893938271328807" lon="7.177113303914666">
        <ele>2194.8299999999999</ele>
        <time>2016-07-04T13:10:02Z</time>
      </trkpt>
      <trkpt lat="45.893942294642329" lon="7.177164182066917">
        <ele>2193.8699999999999</ele>
        <time>2016-07-04T13:10:11Z</time>
      </trkpt>
      <trkpt lat="45.893959393724799" lon="7.177212294191122">
        <ele>2192.4200000000001</ele>
        <time>2016-07-04T13:10:21Z</time>
      </trkpt>
      <trkpt lat="45.89399317279458" lon="7.177317654713988">
        <ele>2189.54</ele>
        <time>2016-07-04T13:10:33Z</time>
      </trkpt>
      <trkpt lat="45.894014881923795" lon="7.177383033558726">
        <ele>2188.0999999999999</ele>
        <time>2016-07-04T13:10:42Z</time>
      </trkpt>
      <trkpt lat="45.894056539982557" lon="7.177505157887936">
        <ele>2185.21</ele>
        <time>2016-07-04T13:10:55Z</time>
      </trkpt>
      <trkpt lat="45.894059808924794" lon="7.177634323015809">
        <ele>2181.8499999999999</ele>
        <time>2016-07-04T13:11:08Z</time>
      </trkpt>
      <trkpt lat="45.894036004319787" lon="7.177738174796104">
        <ele>2179.4499999999998</ele>
        <time>2016-07-04T13:11:20Z</time>
      </trkpt>
      <trkpt lat="45.894016558304429" lon="7.177859796211124">
        <ele>2177.04</ele>
        <time>2016-07-04T13:11:31Z</time>
      </trkpt>
      <trkpt lat="45.894000716507435" lon="7.177893826738">
        <ele>2176.5599999999999</ele>
        <time>2016-07-04T13:11:34Z</time>
      </trkpt>
      <trkpt lat="45.893991915509105" lon="7.177926935255528">
        <ele>2176.0799999999999</ele>
        <time>2016-07-04T13:11:37Z</time>
      </trkpt>
      <trkpt lat="45.893969787284732" lon="7.178061548620462">
        <ele>2172.7199999999998</ele>
        <time>2016-07-04T13:11:50Z</time>
      </trkpt>
      <trkpt lat="45.893972888588905" lon="7.178122820332646">
        <ele>2171.7600000000002</ele>
        <time>2016-07-04T13:12:00Z</time>
      </trkpt>
      <trkpt lat="45.893985126167536" lon="7.178119970485568">
        <ele>2171.27</ele>
        <time>2016-07-04T13:12:12Z</time>
      </trkpt>
      <trkpt lat="45.893991747871041" lon="7.178107313811779">
        <ele>2171.7600000000002</ele>
        <time>2016-07-04T13:12:29Z</time>
      </trkpt>
      <trkpt lat="45.893986131995916" lon="7.178218876942992">
        <ele>2169.3499999999999</ele>
        <time>2016-07-04T13:12:39Z</time>
      </trkpt>
      <trkpt lat="45.89403759688139" lon="7.178314095363021">
        <ele>2166.4699999999998</ele>
        <time>2016-07-04T13:12:50Z</time>
      </trkpt>
      <trkpt lat="45.894042123109102" lon="7.178339576348662">
        <ele>2166.4699999999998</ele>
        <time>2016-07-04T13:12:52Z</time>
      </trkpt>
      <trkpt lat="45.894096605479717" lon="7.178527330979705">
        <ele>2165.0300000000002</ele>
        <time>2016-07-04T13:13:06Z</time>
      </trkpt>
      <trkpt lat="45.894103646278381" lon="7.178540406748653">
        <ele>2165.5100000000002</ele>
        <time>2016-07-04T13:13:07Z</time>
      </trkpt>
      <trkpt lat="45.894237505272031" lon="7.17866194434464">
        <ele>2162.1399999999999</ele>
        <time>2016-07-04T13:13:24Z</time>
      </trkpt>
      <trkpt lat="45.894261728972197" lon="7.178669236600399">
        <ele>2162.1399999999999</ele>
        <time>2016-07-04T13:13:26Z</time>
      </trkpt>
      <trkpt lat="45.894301207736135" lon="7.178710559383035">
        <ele>2161.1799999999998</ele>
        <time>2016-07-04T13:13:37Z</time>
      </trkpt>
      <trkpt lat="45.894321743398905" lon="7.178738387301564">
        <ele>2161.1799999999998</ele>
        <time>2016-07-04T13:13:41Z</time>
      </trkpt>
      <trkpt lat="45.894339261576533" lon="7.178766215220094">
        <ele>2159.2600000000002</ele>
        <time>2016-07-04T13:13:45Z</time>
      </trkpt>
      <trkpt lat="45.89435325935483" lon="7.178817680105567">
        <ele>2159.2600000000002</ele>
        <time>2016-07-04T13:13:56Z</time>
      </trkpt>
      <trkpt lat="45.894358875229955" lon="7.178849531337619">
        <ele>2158.7800000000002</ele>
        <time>2016-07-04T13:14:08Z</time>
      </trkpt>
      <trkpt lat="45.894372621551156" lon="7.178890854120255">
        <ele>2157.8200000000002</ele>
        <time>2016-07-04T13:14:17Z</time>
      </trkpt>
      <trkpt lat="45.894363652914762" lon="7.178892614319921">
        <ele>2158.3000000000002</ele>
        <time>2016-07-04T13:14:28Z</time>
      </trkpt>
      <trkpt lat="45.894373459741473" lon="7.178887752816081">
        <ele>2158.7800000000002</ele>
        <time>2016-07-04T13:14:36Z</time>
      </trkpt>
      <trkpt lat="45.894379746168852" lon="7.178927734494209">
        <ele>2157.3400000000001</ele>
        <time>2016-07-04T13:14:41Z</time>
      </trkpt>
      <trkpt lat="45.894398521631956" lon="7.179006272926927">
        <ele>2155.8899999999999</ele>
        <time>2016-07-04T13:14:50Z</time>
      </trkpt>
      <trkpt lat="45.894411765038967" lon="7.179071316495538">
        <ele>2155.4099999999999</ele>
        <time>2016-07-04T13:15:01Z</time>
      </trkpt>
      <trkpt lat="45.894441436976194" lon="7.179113142192364">
        <ele>2153.9699999999998</ele>
        <time>2016-07-04T13:15:11Z</time>
      </trkpt>
      <trkpt lat="45.894486112520099" lon="7.179199643433094">
        <ele>2152.0500000000002</ele>
        <time>2016-07-04T13:15:22Z</time>
      </trkpt>
      <trkpt lat="45.894510000944138" lon="7.17927323654294">
        <ele>2151.0900000000001</ele>
        <time>2016-07-04T13:15:31Z</time>
      </trkpt>
      <trkpt lat="45.894490135833621" lon="7.179323360323906">
        <ele>2150.1300000000001</ele>
        <time>2016-07-04T13:15:39Z</time>
      </trkpt>
      <trkpt lat="45.89442852884531" lon="7.179387398064137">
        <ele>2147.7199999999998</ele>
        <time>2016-07-04T13:15:50Z</time>
      </trkpt>
      <trkpt lat="45.894374046474695" lon="7.179399468004704">
        <ele>2147.2399999999998</ele>
        <time>2016-07-04T13:15:56Z</time>
      </trkpt>
      <trkpt lat="45.894331047311425" lon="7.179372310638428">
        <ele>2146.2800000000002</ele>
        <time>2016-07-04T13:16:01Z</time>
      </trkpt>
      <trkpt lat="45.894281510263681" lon="7.179471971467137">
        <ele>2144.3600000000001</ele>
        <time>2016-07-04T13:16:12Z</time>
      </trkpt>
      <trkpt lat="45.89424136094749" lon="7.179525615647435">
        <ele>2143.8800000000001</ele>
        <time>2016-07-04T13:16:19Z</time>
      </trkpt>
      <trkpt lat="45.89418713003397" lon="7.179647823795676">
        <ele>2141.4699999999998</ele>
        <time>2016-07-04T13:16:32Z</time>
      </trkpt>
      <trkpt lat="45.894185621291399" lon="7.179656205698848">
        <ele>2141.4699999999998</ele>
        <time>2016-07-04T13:16:33Z</time>
      </trkpt>
      <trkpt lat="45.894210934638977" lon="7.179744802415371">
        <ele>2140.0300000000002</ele>
        <time>2016-07-04T13:16:44Z</time>
      </trkpt>
      <trkpt lat="45.894241780042648" lon="7.179747987538576">
        <ele>2139.5500000000002</ele>
        <time>2016-07-04T13:16:57Z</time>
      </trkpt>
      <trkpt lat="45.894251335412264" lon="7.17979115433991">
        <ele>2138.5900000000001</ele>
        <time>2016-07-04T13:17:08Z</time>
      </trkpt>
      <trkpt lat="45.894256951287389" lon="7.17985418625176">
        <ele>2136.6700000000001</ele>
        <time>2016-07-04T13:17:17Z</time>
      </trkpt>
      <trkpt lat="45.894236667081714" lon="7.179866172373295">
        <ele>2136.1900000000001</ele>
        <time>2016-07-04T13:17:28Z</time>
      </trkpt>
      <trkpt lat="45.894219651818275" lon="7.179902717471123">
        <ele>2135.23</ele>
        <time>2016-07-04T13:17:36Z</time>
      </trkpt>
      <trkpt lat="45.89426726102829" lon="7.17992995865643">
        <ele>2133.3000000000002</ele>
        <time>2016-07-04T13:17:46Z</time>
      </trkpt>
      <trkpt lat="45.89429852552712" lon="7.179976729676127">
        <ele>2131.3800000000001</ele>
        <time>2016-07-04T13:17:57Z</time>
      </trkpt>
      <trkpt lat="45.894338004291058" lon="7.180007575079799">
        <ele>2129.46</ele>
        <time>2016-07-04T13:18:07Z</time>
      </trkpt>
      <trkpt lat="45.894360048696399" lon="7.179995756596327">
        <ele>2128.98</ele>
        <time>2016-07-04T13:18:10Z</time>
      </trkpt>
      <trkpt lat="45.894379578530788" lon="7.180024674162269">
        <ele>2128.98</ele>
        <time>2016-07-04T13:18:13Z</time>
      </trkpt>
      <trkpt lat="45.894340183585882" lon="7.180158784613013">
        <ele>2127.0500000000002</ele>
        <time>2016-07-04T13:18:24Z</time>
      </trkpt>
      <trkpt lat="45.894289053976536" lon="7.180265402421355">
        <ele>2125.1300000000001</ele>
        <time>2016-07-04T13:18:38Z</time>
      </trkpt>
      <trkpt lat="45.894316714257002" lon="7.180351484566927">
        <ele>2123.21</ele>
        <time>2016-07-04T13:18:48Z</time>
      </trkpt>
      <trkpt lat="45.894384942948818" lon="7.180342432111502">
        <ele>2121.77</ele>
        <time>2016-07-04T13:18:57Z</time>
      </trkpt>
      <trkpt lat="45.894407741725445" lon="7.180322147905827">
        <ele>2121.29</ele>
        <time>2016-07-04T13:19:01Z</time>
      </trkpt>
      <trkpt lat="45.894479406997561" lon="7.180330194532871">
        <ele>2118.8800000000001</ele>
        <time>2016-07-04T13:19:12Z</time>
      </trkpt>
      <trkpt lat="45.894489968195558" lon="7.180387023836374">
        <ele>2117.9200000000001</ele>
        <time>2016-07-04T13:19:18Z</time>
      </trkpt>
      <trkpt lat="45.894483765587211" lon="7.180446451529861">
        <ele>2116.48</ele>
        <time>2016-07-04T13:19:28Z</time>
      </trkpt>
      <trkpt lat="45.894536068663001" lon="7.180419461801648">
        <ele>2114.0799999999999</ele>
        <time>2016-07-04T13:19:39Z</time>
      </trkpt>
      <trkpt lat="45.894548976793885" lon="7.180395992472768">
        <ele>2114.0799999999999</ele>
        <time>2016-07-04T13:19:41Z</time>
      </trkpt>
      <trkpt lat="45.8946000225842" lon="7.18031695112586">
        <ele>2112.6300000000001</ele>
        <time>2016-07-04T13:19:48Z</time>
      </trkpt>
      <trkpt lat="45.894704628735781" lon="7.180304965004325">
        <ele>2111.6700000000001</ele>
        <time>2016-07-04T13:20:00Z</time>
      </trkpt>
      <trkpt lat="45.894750896841288" lon="7.180359698832035">
        <ele>2111.1900000000001</ele>
        <time>2016-07-04T13:20:06Z</time>
      </trkpt>
      <trkpt lat="45.894878385588527" lon="7.180396914482117">
        <ele>2109.75</ele>
        <time>2016-07-04T13:20:20Z</time>
      </trkpt>
      <trkpt lat="45.894941417500377" lon="7.180434297770262">
        <ele>2107.3499999999999</ele>
        <time>2016-07-04T13:20:31Z</time>
      </trkpt>
      <trkpt lat="45.894932365044951" lon="7.180446283891797">
        <ele>2106.8699999999999</ele>
        <time>2016-07-04T13:20:33Z</time>
      </trkpt>
      <trkpt lat="45.894878637045622" lon="7.180515015497804">
        <ele>2105.4200000000001</ele>
        <time>2016-07-04T13:20:44Z</time>
      </trkpt>
      <trkpt lat="45.894900932908058" lon="7.180516356602311">
        <ele>2104.9400000000001</ele>
        <time>2016-07-04T13:20:47Z</time>
      </trkpt>
      <trkpt lat="45.895023476332426" lon="7.180574359372258">
        <ele>2102.54</ele>
        <time>2016-07-04T13:21:00Z</time>
      </trkpt>
      <trkpt lat="45.895109809935093" lon="7.180697154253721">
        <ele>2100.1399999999999</ele>
        <time>2016-07-04T13:21:15Z</time>
      </trkpt>
      <trkpt lat="45.895127998664975" lon="7.180719198659062">
        <ele>2100.6199999999999</ele>
        <time>2016-07-04T13:21:24Z</time>
      </trkpt>
      <trkpt lat="45.895143253728747" lon="7.180746020749211">
        <ele>2098.6999999999998</ele>
        <time>2016-07-04T13:21:34Z</time>
      </trkpt>
      <trkpt lat="45.895147360861301" lon="7.180746607482433">
        <ele>2098.6999999999998</ele>
        <time>2016-07-04T13:21:36Z</time>
      </trkpt>
      <trkpt lat="45.895154401659966" lon="7.180749205872417">
        <ele>2099.6599999999999</ele>
        <time>2016-07-04T13:21:38Z</time>
      </trkpt>
      <trkpt lat="45.895160101354122" lon="7.180745853111148">
        <ele>2099.6599999999999</ele>
        <time>2016-07-04T13:21:40Z</time>
      </trkpt>
      <trkpt lat="45.89516487903893" lon="7.180828163400292">
        <ele>2097.73</ele>
        <time>2016-07-04T13:21:50Z</time>
      </trkpt>
      <trkpt lat="45.895206034183502" lon="7.180899409577251">
        <ele>2096.29</ele>
        <time>2016-07-04T13:22:01Z</time>
      </trkpt>
      <trkpt lat="45.89525674469769" lon="7.180942241102457">
        <ele>2095.3299999999999</ele>
        <time>2016-07-04T13:22:11Z</time>
      </trkpt>
      <trkpt lat="45.895313741639256" lon="7.181014241650701">
        <ele>2094.3699999999999</ele>
        <time>2016-07-04T13:22:20Z</time>
      </trkpt>
      <trkpt lat="45.895406948402524" lon="7.181086409837008">
        <ele>2092.4499999999998</ele>
        <time>2016-07-04T13:22:32Z</time>
      </trkpt>
      <trkpt lat="45.895459586754441" lon="7.181154387071729">
        <ele>2091</ele>
        <time>2016-07-04T13:22:43Z</time>
      </trkpt>
      <trkpt lat="45.895497892051935" lon="7.181202918291092">
        <ele>2090.04</ele>
        <time>2016-07-04T13:22:54Z</time>
      </trkpt>
      <trkpt lat="45.895552961155772" lon="7.181267542764545">
        <ele>2088.1199999999999</ele>
        <time>2016-07-04T13:23:04Z</time>
      </trkpt>
      <trkpt lat="45.895601827651262" lon="7.181270057335496">
        <ele>2087.1599999999999</ele>
        <time>2016-07-04T13:23:13Z</time>
      </trkpt>
      <trkpt lat="45.895651616156101" lon="7.181297047063708">
        <ele>2086.6799999999998</ele>
        <time>2016-07-04T13:23:25Z</time>
      </trkpt>
      <trkpt lat="45.895671732723713" lon="7.181314649060369">
        <ele>2087.6399999999999</ele>
        <time>2016-07-04T13:23:37Z</time>
      </trkpt>
      <trkpt lat="45.895682210102677" lon="7.181312553584576">
        <ele>2087.6399999999999</ele>
        <time>2016-07-04T13:23:39Z</time>
      </trkpt>
      <trkpt lat="45.89574784040451" lon="7.181362509727478">
        <ele>2086.1999999999998</ele>
        <time>2016-07-04T13:23:50Z</time>
      </trkpt>
      <trkpt lat="45.895761167630553" lon="7.181368125602603">
        <ele>2085.7199999999998</ele>
        <time>2016-07-04T13:23:52Z</time>
      </trkpt>
      <trkpt lat="45.895826881751418" lon="7.181470971554518">
        <ele>2083.79</ele>
        <time>2016-07-04T13:24:03Z</time>
      </trkpt>
      <trkpt lat="45.895882705226541" lon="7.181544061750174">
        <ele>2082.3499999999999</ele>
        <time>2016-07-04T13:24:13Z</time>
      </trkpt>
      <trkpt lat="45.895906342193484" lon="7.181576499715447">
        <ele>2081.8699999999999</ele>
        <time>2016-07-04T13:24:25Z</time>
      </trkpt>
      <trkpt lat="45.895920256152749" lon="7.181575410068035">
        <ele>2082.3499999999999</ele>
        <time>2016-07-04T13:24:42Z</time>
      </trkpt>
      <trkpt lat="45.895919417962432" lon="7.181613715365529">
        <ele>2081.3899999999999</ele>
        <time>2016-07-04T13:24:57Z</time>
      </trkpt>
      <trkpt lat="45.895924028009176" lon="7.181602399796248">
        <ele>2081.3899999999999</ele>
        <time>2016-07-04T13:25:18Z</time>
      </trkpt>
      <trkpt lat="45.895928386598825" lon="7.181589072570205">
        <ele>2081.3899999999999</ele>
        <time>2016-07-04T13:25:38Z</time>
      </trkpt>
      <trkpt lat="45.895954705774784" lon="7.181640202179551">
        <ele>2080.9099999999999</ele>
        <time>2016-07-04T13:25:57Z</time>
      </trkpt>
      <trkpt lat="45.895977253094316" lon="7.181654451414943">
        <ele>2080.4299999999998</ele>
        <time>2016-07-04T13:26:00Z</time>
      </trkpt>
      <trkpt lat="45.896044475957751" lon="7.181729972362518">
        <ele>2079.4699999999998</ele>
        <time>2016-07-04T13:26:10Z</time>
      </trkpt>
      <trkpt lat="45.896144220605493" lon="7.181845223531127">
        <ele>2078.0300000000002</ele>
        <time>2016-07-04T13:26:22Z</time>
      </trkpt>
      <trkpt lat="45.896160732954741" lon="7.181875482201576">
        <ele>2078.0300000000002</ele>
        <time>2016-07-04T13:26:25Z</time>
      </trkpt>
      <trkpt lat="45.896192416548729" lon="7.181907081976533">
        <ele>2077.0700000000002</ele>
        <time>2016-07-04T13:26:29Z</time>
      </trkpt>
      <trkpt lat="45.896266931667924" lon="7.182059716433287">
        <ele>2075.6199999999999</ele>
        <time>2016-07-04T13:26:42Z</time>
      </trkpt>
      <trkpt lat="45.89635469019413" lon="7.182156862691045">
        <ele>2075.1399999999999</ele>
        <time>2016-07-04T13:26:53Z</time>
      </trkpt>
      <trkpt lat="45.896361814811826" lon="7.182170189917088">
        <ele>2075.1399999999999</ele>
        <time>2016-07-04T13:26:54Z</time>
      </trkpt>
      <trkpt lat="45.896392241120338" lon="7.182272700592876">
        <ele>2074.6599999999999</ele>
        <time>2016-07-04T13:27:01Z</time>
      </trkpt>
      <trkpt lat="45.896478909999132" lon="7.182378564029932">
        <ele>2073.2199999999998</ele>
        <time>2016-07-04T13:27:12Z</time>
      </trkpt>
      <trkpt lat="45.896520065143704" lon="7.18249280937016">
        <ele>2073.2199999999998</ele>
        <time>2016-07-04T13:27:20Z</time>
      </trkpt>
      <trkpt lat="45.89658091776073" lon="7.182595571503043">
        <ele>2071.7800000000002</ele>
        <time>2016-07-04T13:27:30Z</time>
      </trkpt>
      <trkpt lat="45.896641938015819" lon="7.182742087170482">
        <ele>2071.3000000000002</ele>
        <time>2016-07-04T13:27:43Z</time>
      </trkpt>
      <trkpt lat="45.896650990471244" lon="7.182827414944768">
        <ele>2071.3000000000002</ele>
        <time>2016-07-04T13:27:49Z</time>
      </trkpt>
      <trkpt lat="45.896661719307303" lon="7.18285390175879">
        <ele>2071.7800000000002</ele>
        <time>2016-07-04T13:27:51Z</time>
      </trkpt>
      <trkpt lat="45.896658953279257" lon="7.18298776075244">
        <ele>2069.8600000000001</ele>
        <time>2016-07-04T13:28:02Z</time>
      </trkpt>
      <trkpt lat="45.896663144230843" lon="7.183077782392502">
        <ele>2068.4099999999999</ele>
        <time>2016-07-04T13:28:11Z</time>
      </trkpt>
      <trkpt lat="45.896662808954716" lon="7.183150118216872">
        <ele>2066.4899999999998</ele>
        <time>2016-07-04T13:28:20Z</time>
      </trkpt>
      <trkpt lat="45.896656690165401" lon="7.183202169835568">
        <ele>2066.4899999999998</ele>
        <time>2016-07-04T13:28:30Z</time>
      </trkpt>
      <trkpt lat="45.896750148385763" lon="7.183282971382141">
        <ele>2066.4899999999998</ele>
        <time>2016-07-04T13:28:42Z</time>
      </trkpt>
      <trkpt lat="45.896829441189766" lon="7.183391097933054">
        <ele>2067.4499999999998</ele>
        <time>2016-07-04T13:28:53Z</time>
      </trkpt>
      <trkpt lat="45.896914517506957" lon="7.183469301089644">
        <ele>2067.9299999999998</ele>
        <time>2016-07-04T13:29:04Z</time>
      </trkpt>
      <trkpt lat="45.897004120051861" lon="7.183573571965098">
        <ele>2068.8899999999999</ele>
        <time>2016-07-04T13:29:17Z</time>
      </trkpt>
      <trkpt lat="45.897012753412127" lon="7.183579690754414">
        <ele>2068.8899999999999</ele>
        <time>2016-07-04T13:29:18Z</time>
      </trkpt>
      <trkpt lat="45.897102858871222" lon="7.18367625027895">
        <ele>2069.8600000000001</ele>
        <time>2016-07-04T13:29:30Z</time>
      </trkpt>
      <trkpt lat="45.897190533578396" lon="7.183793596923351">
        <ele>2069.8600000000001</ele>
        <time>2016-07-04T13:29:42Z</time>
      </trkpt>
      <trkpt lat="45.897286338731647" lon="7.183913290500641">
        <ele>2067.4499999999998</ele>
        <time>2016-07-04T13:29:55Z</time>
      </trkpt>
      <trkpt lat="45.897333528846502" lon="7.183972969651222">
        <ele>2066.4899999999998</ele>
        <time>2016-07-04T13:30:02Z</time>
      </trkpt>
      <trkpt lat="45.897405613213778" lon="7.184054357931018">
        <ele>2066.0100000000002</ele>
        <time>2016-07-04T13:30:11Z</time>
      </trkpt>
      <trkpt lat="45.897474512457848" lon="7.184141613543034">
        <ele>2064.0900000000001</ele>
        <time>2016-07-04T13:30:21Z</time>
      </trkpt>
      <trkpt lat="45.897523378953338" lon="7.184286033734679">
        <ele>2062.1700000000001</ele>
        <time>2016-07-04T13:30:33Z</time>
      </trkpt>
      <trkpt lat="45.897572664543986" lon="7.184386784210801">
        <ele>2061.1999999999998</ele>
        <time>2016-07-04T13:30:42Z</time>
      </trkpt>
      <trkpt lat="45.897647263482213" lon="7.184506813064218">
        <ele>2059.7600000000002</ele>
        <time>2016-07-04T13:30:54Z</time>
      </trkpt>
      <trkpt lat="45.897689759731293" lon="7.184620220214129">
        <ele>2057.8400000000001</ele>
        <time>2016-07-04T13:31:04Z</time>
      </trkpt>
      <trkpt lat="45.89771649800241" lon="7.184666655957699">
        <ele>2057.3600000000001</ele>
        <time>2016-07-04T13:31:08Z</time>
      </trkpt>
      <trkpt lat="45.897759245708585" lon="7.184718623757362">
        <ele>2056.8800000000001</ele>
        <time>2016-07-04T13:31:14Z</time>
      </trkpt>
      <trkpt lat="45.897780368104577" lon="7.184766316786408">
        <ele>2055.9200000000001</ele>
        <time>2016-07-04T13:31:18Z</time>
      </trkpt>
      <trkpt lat="45.89787089265883" lon="7.184896236285567">
        <ele>2052.5500000000002</ele>
        <time>2016-07-04T13:31:32Z</time>
      </trkpt>
      <trkpt lat="45.897875754162669" lon="7.184918532148004">
        <ele>2052.0700000000002</ele>
        <time>2016-07-04T13:31:34Z</time>
      </trkpt>
      <trkpt lat="45.897905426099896" lon="7.185025066137314">
        <ele>2049.6700000000001</ele>
        <time>2016-07-04T13:31:44Z</time>
      </trkpt>
      <trkpt lat="45.897949850186706" lon="7.185151297599077">
        <ele>2047.75</ele>
        <time>2016-07-04T13:31:55Z</time>
      </trkpt>
      <trkpt lat="45.897955968976021" lon="7.185208210721612">
        <ele>2047.26</ele>
        <time>2016-07-04T13:32:05Z</time>
      </trkpt>
      <trkpt lat="45.897971140220761" lon="7.185197817161679">
        <ele>2047.26</ele>
        <time>2016-07-04T13:32:13Z</time>
      </trkpt>
      <trkpt lat="45.897963847965002" lon="7.185191530734301">
        <ele>2047.26</ele>
        <time>2016-07-04T13:32:27Z</time>
      </trkpt>
      <trkpt lat="45.897949011996388" lon="7.185188177973032">
        <ele>2046.78</ele>
        <time>2016-07-04T13:32:57Z</time>
      </trkpt>
      <trkpt lat="45.897943396121264" lon="7.185242995619774">
        <ele>2046.3</ele>
        <time>2016-07-04T13:33:03Z</time>
      </trkpt>
      <trkpt lat="45.897990753874183" lon="7.185385907068849">
        <ele>2046.78</ele>
        <time>2016-07-04T13:33:14Z</time>
      </trkpt>
      <trkpt lat="45.898023778572679" lon="7.185528902336955">
        <ele>2044.8599999999999</ele>
        <time>2016-07-04T13:33:25Z</time>
      </trkpt>
      <trkpt lat="45.898048840463161" lon="7.185592101886869">
        <ele>2043.9000000000001</ele>
        <time>2016-07-04T13:33:30Z</time>
      </trkpt>
      <trkpt lat="45.898084463551641" lon="7.185683213174343">
        <ele>2042.46</ele>
        <time>2016-07-04T13:33:40Z</time>
      </trkpt>
      <trkpt lat="45.898139365017414" lon="7.185771390795708">
        <ele>2042.46</ele>
        <time>2016-07-04T13:33:49Z</time>
      </trkpt>
      <trkpt lat="45.898146908730268" lon="7.185782622545958">
        <ele>2041.98</ele>
        <time>2016-07-04T13:33:50Z</time>
      </trkpt>
      <trkpt lat="45.898210611194372" lon="7.18583500944078">
        <ele>2041.02</ele>
        <time>2016-07-04T13:33:57Z</time>
      </trkpt>
      <trkpt lat="45.898246904835105" lon="7.185935592278838">
        <ele>2040.05</ele>
        <time>2016-07-04T13:34:04Z</time>
      </trkpt>
      <trkpt lat="45.898253275081515" lon="7.186022680252791">
        <ele>2038.1300000000001</ele>
        <time>2016-07-04T13:34:11Z</time>
      </trkpt>
      <trkpt lat="45.898257549852133" lon="7.186082946136594">
        <ele>2036.6900000000001</ele>
        <time>2016-07-04T13:34:16Z</time>
      </trkpt>
      <trkpt lat="45.898200049996376" lon="7.18617120757699">
        <ele>2034.29</ele>
        <time>2016-07-04T13:34:26Z</time>
      </trkpt>
      <trkpt lat="45.898202983662486" lon="7.186188390478492">
        <ele>2033.8099999999999</ele>
        <time>2016-07-04T13:34:28Z</time>
      </trkpt>
      <trkpt lat="45.89827599003911" lon="7.186267012730241">
        <ele>2032.3599999999999</ele>
        <time>2016-07-04T13:34:39Z</time>
      </trkpt>
      <trkpt lat="45.898282779380679" lon="7.186271706596017">
        <ele>2031.8800000000001</ele>
        <time>2016-07-04T13:34:40Z</time>
      </trkpt>
      <trkpt lat="45.898317648097873" lon="7.186311520636082">
        <ele>2030.4400000000001</ele>
        <time>2016-07-04T13:34:52Z</time>
      </trkpt>
      <trkpt lat="45.898318402469158" lon="7.186307413503528">
        <ele>2030.4400000000001</ele>
        <time>2016-07-04T13:35:12Z</time>
      </trkpt>
      <trkpt lat="45.898360228165984" lon="7.186362063512206">
        <ele>2029.96</ele>
        <time>2016-07-04T13:35:25Z</time>
      </trkpt>
      <trkpt lat="45.898411609232426" lon="7.186433058232069">
        <ele>2028.04</ele>
        <time>2016-07-04T13:35:35Z</time>
      </trkpt>
      <trkpt lat="45.89845041744411" lon="7.186548309400678">
        <ele>2026.5999999999999</ele>
        <time>2016-07-04T13:35:44Z</time>
      </trkpt>
      <trkpt lat="45.8985217474401" lon="7.186651071533561">
        <ele>2023.71</ele>
        <time>2016-07-04T13:35:54Z</time>
      </trkpt>
      <trkpt lat="45.898569105193019" lon="7.18678099103272">
        <ele>2022.27</ele>
        <time>2016-07-04T13:36:05Z</time>
      </trkpt>
      <trkpt lat="45.898630209267139" lon="7.186914347112179">
        <ele>2020.3499999999999</ele>
        <time>2016-07-04T13:36:16Z</time>
      </trkpt>
      <trkpt lat="45.898683685809374" lon="7.187058180570602">
        <ele>2018.4300000000001</ele>
        <time>2016-07-04T13:36:27Z</time>
      </trkpt>
      <trkpt lat="45.898714531213045" lon="7.187135545536876">
        <ele>2017.46</ele>
        <time>2016-07-04T13:36:33Z</time>
      </trkpt>
      <trkpt lat="45.898798601701856" lon="7.187276696786284">
        <ele>2016.02</ele>
        <time>2016-07-04T13:36:45Z</time>
      </trkpt>
      <trkpt lat="45.898862555623055" lon="7.187337381765246">
        <ele>2015.54</ele>
        <time>2016-07-04T13:36:52Z</time>
      </trkpt>
      <trkpt lat="45.898874457925558" lon="7.187377950176597">
        <ele>2014.5799999999999</ele>
        <time>2016-07-04T13:36:55Z</time>
      </trkpt>
      <trkpt lat="45.898937908932567" lon="7.18746897764504">
        <ele>2013.6199999999999</ele>
        <time>2016-07-04T13:37:08Z</time>
      </trkpt>
      <trkpt lat="45.898967664688826" lon="7.187509713694453">
        <ele>2011.7</ele>
        <time>2016-07-04T13:37:18Z</time>
      </trkpt>
      <trkpt lat="45.898980656638741" lon="7.187568973749876">
        <ele>2010.25</ele>
        <time>2016-07-04T13:37:29Z</time>
      </trkpt>
      <trkpt lat="45.898922570049763" lon="7.187632592394948">
        <ele>2007.8499999999999</ele>
        <time>2016-07-04T13:37:39Z</time>
      </trkpt>
      <trkpt lat="45.898966491222382" lon="7.187683638185263">
        <ele>2006.8900000000001</ele>
        <time>2016-07-04T13:37:51Z</time>
      </trkpt>
      <trkpt lat="45.898981494829059" lon="7.187695037573576">
        <ele>2006.8900000000001</ele>
        <time>2016-07-04T13:38:12Z</time>
      </trkpt>
      <trkpt lat="45.898997085168958" lon="7.187708197161555">
        <ele>2006.8900000000001</ele>
        <time>2016-07-04T13:38:25Z</time>
      </trkpt>
      <trkpt lat="45.898991469293833" lon="7.187719848006964">
        <ele>2006.8900000000001</ele>
        <time>2016-07-04T13:38:40Z</time>
      </trkpt>
      <trkpt lat="45.898971855640411" lon="7.187712555751205">
        <ele>2007.3699999999999</ele>
        <time>2016-07-04T13:38:57Z</time>
      </trkpt>
      <trkpt lat="45.898973029106855" lon="7.187715992331505">
        <ele>2005.45</ele>
        <time>2016-07-04T13:39:00Z</time>
      </trkpt>
      <trkpt lat="45.898966323584318" lon="7.187753794714809">
        <ele>2004.97</ele>
        <time>2016-07-04T13:39:16Z</time>
      </trkpt>
      <trkpt lat="45.898988200351596" lon="7.187743484973908">
        <ele>2004.97</ele>
        <time>2016-07-04T13:39:35Z</time>
      </trkpt>
      <trkpt lat="45.899000186473131" lon="7.187752118334174">
        <ele>2005.45</ele>
        <time>2016-07-04T13:39:49Z</time>
      </trkpt>
      <trkpt lat="45.899001359939575" lon="7.187757147476077">
        <ele>2005.45</ele>
        <time>2016-07-04T13:39:50Z</time>
      </trkpt>
      <trkpt lat="45.899004628881812" lon="7.187773827463388">
        <ele>2004.97</ele>
        <time>2016-07-04T13:39:54Z</time>
      </trkpt>
      <trkpt lat="45.899075204506516" lon="7.187819927930832">
        <ele>2003.04</ele>
        <time>2016-07-04T13:40:06Z</time>
      </trkpt>
      <trkpt lat="45.899101607501507" lon="7.187863681465387">
        <ele>2002.5599999999999</ele>
        <time>2016-07-04T13:40:11Z</time>
      </trkpt>
      <trkpt lat="45.899116862565279" lon="7.187889413908124">
        <ele>2002.5599999999999</ele>
        <time>2016-07-04T13:40:13Z</time>
      </trkpt>
      <trkpt lat="45.899206465110183" lon="7.188005335628986">
        <ele>2002.5599999999999</ele>
        <time>2016-07-04T13:40:25Z</time>
      </trkpt>
      <trkpt lat="45.899253822863102" lon="7.188086556270719">
        <ele>2002.0799999999999</ele>
        <time>2016-07-04T13:40:33Z</time>
      </trkpt>
      <trkpt lat="45.899280309677124" lon="7.18810616992414">
        <ele>2001.5999999999999</ele>
        <time>2016-07-04T13:40:36Z</time>
      </trkpt>
      <trkpt lat="45.899313753470778" lon="7.188154365867376">
        <ele>2001.1199999999999</ele>
        <time>2016-07-04T13:40:41Z</time>
      </trkpt>
      <trkpt lat="45.899338228628039" lon="7.188171213492751">
        <ele>2001.1199999999999</ele>
        <time>2016-07-04T13:40:44Z</time>
      </trkpt>
      <trkpt lat="45.899364380165935" lon="7.188194431364536">
        <ele>2000.6400000000001</ele>
        <time>2016-07-04T13:40:49Z</time>
      </trkpt>
      <trkpt lat="45.899410061538219" lon="7.18819753266871">
        <ele>2001.1199999999999</ele>
        <time>2016-07-04T13:40:54Z</time>
      </trkpt>
      <trkpt lat="45.899430010467768" lon="7.188226031139493">
        <ele>2000.6400000000001</ele>
        <time>2016-07-04T13:40:57Z</time>
      </trkpt>
      <trkpt lat="45.899469992145896" lon="7.188384616747499">
        <ele>2000.1600000000001</ele>
        <time>2016-07-04T13:41:07Z</time>
      </trkpt>
      <trkpt lat="45.899515505880117" lon="7.188548985868692">
        <ele>2000.1600000000001</ele>
        <time>2016-07-04T13:41:17Z</time>
      </trkpt>
      <trkpt lat="45.899545261636376" lon="7.188613442704082">
        <ele>2000.1600000000001</ele>
        <time>2016-07-04T13:41:22Z</time>
      </trkpt>
      <trkpt lat="45.89963486418128" lon="7.188704470172525">
        <ele>1999.2</ele>
        <time>2016-07-04T13:41:33Z</time>
      </trkpt>
      <trkpt lat="45.899645844474435" lon="7.188722910359502">
        <ele>1998.72</ele>
        <time>2016-07-04T13:41:35Z</time>
      </trkpt>
      <trkpt lat="45.899676438421011" lon="7.188775045797229">
        <ele>1998.24</ele>
        <time>2016-07-04T13:41:40Z</time>
      </trkpt>
      <trkpt lat="45.899690520018339" lon="7.188817542046309">
        <ele>1997.76</ele>
        <time>2016-07-04T13:41:43Z</time>
      </trkpt>
      <trkpt lat="45.899749109521508" lon="7.188999680802226">
        <ele>1996.3199999999999</ele>
        <time>2016-07-04T13:41:55Z</time>
      </trkpt>
      <trkpt lat="45.899833766743541" lon="7.189127253368497">
        <ele>1995.3499999999999</ele>
        <time>2016-07-04T13:42:06Z</time>
      </trkpt>
      <trkpt lat="45.899903671815991" lon="7.189299250021577">
        <ele>1993.9100000000001</ele>
        <time>2016-07-04T13:42:18Z</time>
      </trkpt>
      <trkpt lat="45.899949353188276" lon="7.189456997439265">
        <ele>1991.99</ele>
        <time>2016-07-04T13:42:28Z</time>
      </trkpt>
      <trkpt lat="45.900006098672748" lon="7.189584905281663">
        <ele>1991.51</ele>
        <time>2016-07-04T13:42:37Z</time>
      </trkpt>
      <trkpt lat="45.900082709267735" lon="7.189711974933744">
        <ele>1991.51</ele>
        <time>2016-07-04T13:42:48Z</time>
      </trkpt>
      <trkpt lat="45.900154039263725" lon="7.189860250800848">
        <ele>1990.55</ele>
        <time>2016-07-04T13:42:59Z</time>
      </trkpt>
      <trkpt lat="45.90019091963768" lon="7.189920349046588">
        <ele>1990.55</ele>
        <time>2016-07-04T13:43:05Z</time>
      </trkpt>
      <trkpt lat="45.900237103924155" lon="7.190026380121708">
        <ele>1990.0699999999999</ele>
        <time>2016-07-04T13:43:12Z</time>
      </trkpt>
      <trkpt lat="45.900297034531832" lon="7.190199969336391">
        <ele>1990.0699999999999</ele>
        <time>2016-07-04T13:43:24Z</time>
      </trkpt>
      <trkpt lat="45.900317151099443" lon="7.190226539969444">
        <ele>1989.5899999999999</ele>
        <time>2016-07-04T13:43:27Z</time>
      </trkpt>
      <trkpt lat="45.900352690368891" lon="7.190266773104668">
        <ele>1990.0699999999999</ele>
        <time>2016-07-04T13:43:32Z</time>
      </trkpt>
      <trkpt lat="45.900398455560207" lon="7.190376911312342">
        <ele>1990.55</ele>
        <time>2016-07-04T13:43:42Z</time>
      </trkpt>
      <trkpt lat="45.900533152744174" lon="7.190446313470602">
        <ele>1988.1400000000001</ele>
        <time>2016-07-04T13:43:55Z</time>
      </trkpt>
      <trkpt lat="45.900645134970546" lon="7.190493084490299">
        <ele>1986.7</ele>
        <time>2016-07-04T13:44:06Z</time>
      </trkpt>
      <trkpt lat="45.900728534907103" lon="7.190526695922017">
        <ele>1984.78</ele>
        <time>2016-07-04T13:44:14Z</time>
      </trkpt>
      <trkpt lat="45.900832135230303" lon="7.19056106172502">
        <ele>1983.3399999999999</ele>
        <time>2016-07-04T13:44:24Z</time>
      </trkpt>
      <trkpt lat="45.900847390294075" lon="7.190558798611164">
        <ele>1983.3399999999999</ele>
        <time>2016-07-04T13:44:26Z</time>
      </trkpt>
      <trkpt lat="45.900968676432967" lon="7.190536083653569">
        <ele>1980.9300000000001</ele>
        <time>2016-07-04T13:44:38Z</time>
      </trkpt>
      <trkpt lat="45.901026343926787" lon="7.190540945157409">
        <ele>1980.45</ele>
        <time>2016-07-04T13:44:43Z</time>
      </trkpt>
      <trkpt lat="45.901133548468351" lon="7.190619064494968">
        <ele>1979.01</ele>
        <time>2016-07-04T13:44:53Z</time>
      </trkpt>
      <trkpt lat="45.901208985596895" lon="7.190641947090626">
        <ele>1977.5699999999999</ele>
        <time>2016-07-04T13:45:01Z</time>
      </trkpt>
      <trkpt lat="45.901227258145809" lon="7.190665667876601">
        <ele>1977.0899999999999</ele>
        <time>2016-07-04T13:45:03Z</time>
      </trkpt>
      <trkpt lat="45.901255672797561" lon="7.190747894346714">
        <ele>1975.1700000000001</ele>
        <time>2016-07-04T13:45:12Z</time>
      </trkpt>
      <trkpt lat="45.901303282007575" lon="7.190736997872591">
        <ele>1973.24</ele>
        <time>2016-07-04T13:45:21Z</time>
      </trkpt>
      <trkpt lat="45.901327673345804" lon="7.190711684525013">
        <ele>1972.28</ele>
        <time>2016-07-04T13:45:26Z</time>
      </trkpt>
      <trkpt lat="45.90142565779388" lon="7.19074965454638">
        <ele>1971.3199999999999</ele>
        <time>2016-07-04T13:45:36Z</time>
      </trkpt>
      <trkpt lat="45.901511991396546" lon="7.190841101109982">
        <ele>1970.8399999999999</ele>
        <time>2016-07-04T13:45:47Z</time>
      </trkpt>
      <trkpt lat="45.90153462253511" lon="7.190873203799129">
        <ele>1970.3599999999999</ele>
        <time>2016-07-04T13:45:50Z</time>
      </trkpt>
      <trkpt lat="45.901550715789199" lon="7.190940845757723">
        <ele>1969.4000000000001</ele>
        <time>2016-07-04T13:45:55Z</time>
      </trkpt>
      <trkpt lat="45.901582483202219" lon="7.191002452746034">
        <ele>1968.9200000000001</ele>
        <time>2016-07-04T13:46:00Z</time>
      </trkpt>
      <trkpt lat="45.901588434353471" lon="7.191029107198119">
        <ele>1968.4400000000001</ele>
        <time>2016-07-04T13:46:02Z</time>
      </trkpt>
      <trkpt lat="45.90159622952342" lon="7.191063975915313">
        <ele>1967.96</ele>
        <time>2016-07-04T13:46:05Z</time>
      </trkpt>
      <trkpt lat="45.901622297242284" lon="7.191131869331002">
        <ele>1966.99</ele>
        <time>2016-07-04T13:46:10Z</time>
      </trkpt>
      <trkpt lat="45.901662446558475" lon="7.191180735826492">
        <ele>1965.55</ele>
        <time>2016-07-04T13:46:16Z</time>
      </trkpt>
      <trkpt lat="45.901703350245953" lon="7.191253239288926">
        <ele>1964.1099999999999</ele>
        <time>2016-07-04T13:46:23Z</time>
      </trkpt>
      <trkpt lat="45.901751546189189" lon="7.191409813240171">
        <ele>1960.27</ele>
        <time>2016-07-04T13:46:36Z</time>
      </trkpt>
      <trkpt lat="45.901766717433929" lon="7.191425990313292">
        <ele>1960.27</ele>
        <time>2016-07-04T13:46:41Z</time>
      </trkpt>
      <trkpt lat="45.901789432391524" lon="7.191455410793424">
        <ele>1958.8199999999999</ele>
        <time>2016-07-04T13:46:44Z</time>
      </trkpt>
      <trkpt lat="45.901863193139434" lon="7.191591029986739">
        <ele>1957.8599999999999</ele>
        <time>2016-07-04T13:46:56Z</time>
      </trkpt>
      <trkpt lat="45.901940390467644" lon="7.191740814596415">
        <ele>1956.4200000000001</ele>
        <time>2016-07-04T13:47:09Z</time>
      </trkpt>
      <trkpt lat="45.901996130123734" lon="7.191850617527962">
        <ele>1954.5</ele>
        <time>2016-07-04T13:47:18Z</time>
      </trkpt>
      <trkpt lat="45.902057569473982" lon="7.191951368004084">
        <ele>1952.0899999999999</ele>
        <time>2016-07-04T13:47:28Z</time>
      </trkpt>
      <trkpt lat="45.902066202834249" lon="7.19199612736702">
        <ele>1952.0899999999999</ele>
        <time>2016-07-04T13:47:31Z</time>
      </trkpt>
      <trkpt lat="45.902139879763126" lon="7.192121772095561">
        <ele>1949.21</ele>
        <time>2016-07-04T13:47:43Z</time>
      </trkpt>
      <trkpt lat="45.902185309678316" lon="7.192235598340631">
        <ele>1947.29</ele>
        <time>2016-07-04T13:47:52Z</time>
      </trkpt>
      <trkpt lat="45.90219721198082" lon="7.192315813153982">
        <ele>1945.8499999999999</ele>
        <time>2016-07-04T13:47:58Z</time>
      </trkpt>
      <trkpt lat="45.90226368047297" lon="7.192422682419419">
        <ele>1943.4400000000001</ele>
        <time>2016-07-04T13:48:10Z</time>
      </trkpt>
      <trkpt lat="45.902285473421216" lon="7.192485462874174">
        <ele>1942</ele>
        <time>2016-07-04T13:48:16Z</time>
      </trkpt>
      <trkpt lat="45.902320761233568" lon="7.192626027390361">
        <ele>1939.5999999999999</ele>
        <time>2016-07-04T13:48:26Z</time>
      </trkpt>
      <trkpt lat="45.902331657707691" lon="7.192691657692194">
        <ele>1939.1199999999999</ele>
        <time>2016-07-04T13:48:30Z</time>
      </trkpt>
      <trkpt lat="45.902319503948092" lon="7.192833730950952">
        <ele>1937.6700000000001</ele>
        <time>2016-07-04T13:48:40Z</time>
      </trkpt>
      <trkpt lat="45.902368118986487" lon="7.192966416478157">
        <ele>1936.23</ele>
        <time>2016-07-04T13:48:52Z</time>
      </trkpt>
      <trkpt lat="45.902405837550759" lon="7.193066412582994">
        <ele>1933.3499999999999</ele>
        <time>2016-07-04T13:49:03Z</time>
      </trkpt>
      <trkpt lat="45.902461241930723" lon="7.193167582154274">
        <ele>1929.98</ele>
        <time>2016-07-04T13:49:14Z</time>
      </trkpt>
      <trkpt lat="45.902489740401506" lon="7.193254502490163">
        <ele>1928.54</ele>
        <time>2016-07-04T13:49:25Z</time>
      </trkpt>
      <trkpt lat="45.902520418167114" lon="7.193311164155603">
        <ele>1927.0999999999999</ele>
        <time>2016-07-04T13:49:35Z</time>
      </trkpt>
      <trkpt lat="45.902594430372119" lon="7.193413758650422">
        <ele>1923.74</ele>
        <time>2016-07-04T13:49:47Z</time>
      </trkpt>
      <trkpt lat="45.902650756761432" lon="7.193465223535895">
        <ele>1924.7</ele>
        <time>2016-07-04T13:49:57Z</time>
      </trkpt>
      <trkpt lat="45.902730217203498" lon="7.193526411429048">
        <ele>1924.22</ele>
        <time>2016-07-04T13:50:07Z</time>
      </trkpt>
      <trkpt lat="45.902758296579123" lon="7.193584498018026">
        <ele>1924.22</ele>
        <time>2016-07-04T13:50:11Z</time>
      </trkpt>
      <trkpt lat="45.902824513614178" lon="7.193677201867104">
        <ele>1922.77</ele>
        <time>2016-07-04T13:50:23Z</time>
      </trkpt>
      <trkpt lat="45.90290036983788" lon="7.193790273740888">
        <ele>1919.8900000000001</ele>
        <time>2016-07-04T13:50:35Z</time>
      </trkpt>
      <trkpt lat="45.902933226898313" lon="7.193829249590635">
        <ele>1919.4100000000001</ele>
        <time>2016-07-04T13:50:39Z</time>
      </trkpt>
      <trkpt lat="45.902955522760749" lon="7.19384609721601">
        <ele>1917.97</ele>
        <time>2016-07-04T13:50:41Z</time>
      </trkpt>
      <trkpt lat="45.903056440874934" lon="7.19397115521133">
        <ele>1917.01</ele>
        <time>2016-07-04T13:50:54Z</time>
      </trkpt>
      <trkpt lat="45.903154760599136" lon="7.194065786898136">
        <ele>1915.0799999999999</ele>
        <time>2016-07-04T13:51:05Z</time>
      </trkpt>
      <trkpt lat="45.90323505923152" lon="7.194167459383607">
        <ele>1913.1600000000001</ele>
        <time>2016-07-04T13:51:15Z</time>
      </trkpt>
      <trkpt lat="45.903291469439864" lon="7.194233508780599">
        <ele>1911.72</ele>
        <time>2016-07-04T13:51:26Z</time>
      </trkpt>
      <trkpt lat="45.903375875204802" lon="7.194296373054385">
        <ele>1910.28</ele>
        <time>2016-07-04T13:51:37Z</time>
      </trkpt>
      <trkpt lat="45.903402278199792" lon="7.194323781877756">
        <ele>1909.8</ele>
        <time>2016-07-04T13:51:47Z</time>
      </trkpt>
      <trkpt lat="45.903406720608473" lon="7.194327050819993">
        <ele>1910.28</ele>
        <time>2016-07-04T13:51:48Z</time>
      </trkpt>
      <trkpt lat="45.90342415496707" lon="7.194342892616987">
        <ele>1910.28</ele>
        <time>2016-07-04T13:51:51Z</time>
      </trkpt>
      <trkpt lat="45.903535215184093" lon="7.194429310038686">
        <ele>1908.8299999999999</ele>
        <time>2016-07-04T13:52:04Z</time>
      </trkpt>
      <trkpt lat="45.903626577928662" lon="7.194517236202955">
        <ele>1907.3900000000001</ele>
        <time>2016-07-04T13:52:16Z</time>
      </trkpt>
      <trkpt lat="45.903708888217807" lon="7.194604743272066">
        <ele>1906.4300000000001</ele>
        <time>2016-07-04T13:52:29Z</time>
      </trkpt>
      <trkpt lat="45.903714587911963" lon="7.194618321955204">
        <ele>1906.4300000000001</ele>
        <time>2016-07-04T13:52:33Z</time>
      </trkpt>
      <trkpt lat="45.903816260397434" lon="7.194676157087088">
        <ele>1905.47</ele>
        <time>2016-07-04T13:52:42Z</time>
      </trkpt>
      <trkpt lat="45.903928996995091" lon="7.194785457104445">
        <ele>1904.51</ele>
        <time>2016-07-04T13:52:54Z</time>
      </trkpt>
      <trkpt lat="45.903997980058193" lon="7.194838095456362">
        <ele>1904.03</ele>
        <time>2016-07-04T13:53:03Z</time>
      </trkpt>
      <trkpt lat="45.904051624238491" lon="7.194884363561869">
        <ele>1903.0699999999999</ele>
        <time>2016-07-04T13:53:10Z</time>
      </trkpt>
      <trkpt lat="45.904203169047832" lon="7.195016881451011">
        <ele>1901.6300000000001</ele>
        <time>2016-07-04T13:53:25Z</time>
      </trkpt>
      <trkpt lat="45.90429000556469" lon="7.195095838978887">
        <ele>1900.6600000000001</ele>
        <time>2016-07-04T13:53:34Z</time>
      </trkpt>
      <trkpt lat="45.904378769919276" lon="7.195194829255343">
        <ele>1899.7</ele>
        <time>2016-07-04T13:53:44Z</time>
      </trkpt>
      <trkpt lat="45.904460996389389" lon="7.195306476205587">
        <ele>1899.7</ele>
        <time>2016-07-04T13:53:55Z</time>
      </trkpt>
      <trkpt lat="45.904554538428783" lon="7.195394989103079">
        <ele>1899.7</ele>
        <time>2016-07-04T13:54:06Z</time>
      </trkpt>
      <trkpt lat="45.904590664431453" lon="7.195429187268019">
        <ele>1899.7</ele>
        <time>2016-07-04T13:54:10Z</time>
      </trkpt>
      <trkpt lat="45.904608769342303" lon="7.195472354069352">
        <ele>1899.22</ele>
        <time>2016-07-04T13:54:21Z</time>
      </trkpt>
      <trkpt lat="45.904658809304237" lon="7.195456428453326">
        <ele>1898.74</ele>
        <time>2016-07-04T13:54:25Z</time>
      </trkpt>
      <trkpt lat="45.904793338850141" lon="7.195498757064343">
        <ele>1895.3800000000001</ele>
        <time>2016-07-04T13:54:37Z</time>
      </trkpt>
      <trkpt lat="45.904903644695878" lon="7.195557849481702">
        <ele>1892.49</ele>
        <time>2016-07-04T13:54:48Z</time>
      </trkpt>
      <trkpt lat="45.905002299696207" lon="7.19559783115983">
        <ele>1890.5699999999999</ele>
        <time>2016-07-04T13:54:59Z</time>
      </trkpt>
      <trkpt lat="45.905014369636774" lon="7.195612415671349">
        <ele>1890.0899999999999</ele>
        <time>2016-07-04T13:55:06Z</time>
      </trkpt>
      <trkpt lat="45.905035994946957" lon="7.195612918585539">
        <ele>1889.6099999999999</ele>
        <time>2016-07-04T13:55:09Z</time>
      </trkpt>
      <trkpt lat="45.905180247500539" lon="7.195684751495719">
        <ele>1887.6900000000001</ele>
        <time>2016-07-04T13:55:21Z</time>
      </trkpt>
      <trkpt lat="45.905294241383672" lon="7.195738730952144">
        <ele>1887.21</ele>
        <time>2016-07-04T13:55:32Z</time>
      </trkpt>
      <trkpt lat="45.905426926910877" lon="7.195827830582857">
        <ele>1885.76</ele>
        <time>2016-07-04T13:55:44Z</time>
      </trkpt>
      <trkpt lat="45.905522229149938" lon="7.195848366245627">
        <ele>1884.3199999999999</ele>
        <time>2016-07-04T13:55:53Z</time>
      </trkpt>
      <trkpt lat="45.905671762302518" lon="7.195913074538112">
        <ele>1881.9200000000001</ele>
        <time>2016-07-04T13:56:07Z</time>
      </trkpt>
      <trkpt lat="45.905695902183652" lon="7.195919109508395">
        <ele>1881.4400000000001</ele>
        <time>2016-07-04T13:56:18Z</time>
      </trkpt>
      <trkpt lat="45.905795563012362" lon="7.195961605757475">
        <ele>1880</ele>
        <time>2016-07-04T13:56:27Z</time>
      </trkpt>
      <trkpt lat="45.905904360115528" lon="7.196003012359142">
        <ele>1878.0699999999999</ele>
        <time>2016-07-04T13:56:38Z</time>
      </trkpt>
      <trkpt lat="45.906005278229713" lon="7.19605959020555">
        <ele>1877.1099999999999</ele>
        <time>2016-07-04T13:56:48Z</time>
      </trkpt>
      <trkpt lat="45.906074177473783" lon="7.196089848876">
        <ele>1876.1500000000001</ele>
        <time>2016-07-04T13:56:58Z</time>
      </trkpt>
      <trkpt lat="45.906150955706835" lon="7.196119856089354">
        <ele>1875.1900000000001</ele>
        <time>2016-07-04T13:57:12Z</time>
      </trkpt>
      <trkpt lat="45.906292609870434" lon="7.196177020668984">
        <ele>1873.75</ele>
        <time>2016-07-04T13:57:25Z</time>
      </trkpt>
      <trkpt lat="45.906422026455402" lon="7.196244662627578">
        <ele>1871.3399999999999</ele>
        <time>2016-07-04T13:57:37Z</time>
      </trkpt>
      <trkpt lat="45.906542809680104" lon="7.196306185796857">
        <ele>1871.3399999999999</ele>
        <time>2016-07-04T13:57:46Z</time>
      </trkpt>
      <trkpt lat="45.90667893178761" lon="7.196340635418892">
        <ele>1870.8599999999999</ele>
        <time>2016-07-04T13:57:59Z</time>
      </trkpt>
      <trkpt lat="45.906715979799628" lon="7.19634055159986">
        <ele>1870.8599999999999</ele>
        <time>2016-07-04T13:58:09Z</time>
      </trkpt>
      <trkpt lat="45.906793847680092" lon="7.196354297921062">
        <ele>1867.5</ele>
        <time>2016-07-04T13:58:16Z</time>
      </trkpt>
      <trkpt lat="45.906860819086432" lon="7.196332840248942">
        <ele>1866.54</ele>
        <time>2016-07-04T13:58:25Z</time>
      </trkpt>
      <trkpt lat="45.906939106062055" lon="7.196364942938089">
        <ele>1865.5799999999999</ele>
        <time>2016-07-04T13:58:34Z</time>
      </trkpt>
      <trkpt lat="45.907087130472064" lon="7.19632538035512">
        <ele>1865.5799999999999</ele>
        <time>2016-07-04T13:58:49Z</time>
      </trkpt>
      <trkpt lat="45.907125184312463" lon="7.196324877440929">
        <ele>1865.5799999999999</ele>
        <time>2016-07-04T13:58:55Z</time>
      </trkpt>
      <trkpt lat="45.90716659091413" lon="7.196342898532748">
        <ele>1865.5799999999999</ele>
        <time>2016-07-04T13:58:59Z</time>
      </trkpt>
      <trkpt lat="45.907289553433657" lon="7.196384388953447">
        <ele>1865.0899999999999</ele>
        <time>2016-07-04T13:59:12Z</time>
      </trkpt>
      <trkpt lat="45.907353591173887" lon="7.196353878825903">
        <ele>1865.0899999999999</ele>
        <time>2016-07-04T13:59:21Z</time>
      </trkpt>
      <trkpt lat="45.907364822924137" lon="7.196340635418892">
        <ele>1865.0899999999999</ele>
        <time>2016-07-04T13:59:23Z</time>
      </trkpt>
      <trkpt lat="45.907505135983229" lon="7.196312053129077">
        <ele>1864.6099999999999</ele>
        <time>2016-07-04T13:59:35Z</time>
      </trkpt>
      <trkpt lat="45.907652908936143" lon="7.196313561871648">
        <ele>1863.6500000000001</ele>
        <time>2016-07-04T13:59:47Z</time>
      </trkpt>
      <trkpt lat="45.907782325521111" lon="7.196355806663632">
        <ele>1862.6900000000001</ele>
        <time>2016-07-04T13:59:59Z</time>
      </trkpt>
      <trkpt lat="45.907863546162844" lon="7.196353962644935">
        <ele>1862.21</ele>
        <time>2016-07-04T14:00:07Z</time>
      </trkpt>
      <trkpt lat="45.90788584202528" lon="7.1963454131037">
        <ele>1861.73</ele>
        <time>2016-07-04T14:00:09Z</time>
      </trkpt>
      <trkpt lat="45.908021125942469" lon="7.196355722844601">
        <ele>1862.21</ele>
        <time>2016-07-04T14:00:21Z</time>
      </trkpt>
      <trkpt lat="45.908066723495722" lon="7.196366954594851">
        <ele>1861.73</ele>
        <time>2016-07-04T14:00:25Z</time>
      </trkpt>
      <trkpt lat="45.908107291907072" lon="7.196385143324733">
        <ele>1860.77</ele>
        <time>2016-07-04T14:00:36Z</time>
      </trkpt>
      <trkpt lat="45.908109722658992" lon="7.196404924616218">
        <ele>1860.77</ele>
        <time>2016-07-04T14:00:54Z</time>
      </trkpt>
      <trkpt lat="45.908118942752481" lon="7.196400314569473">
        <ele>1860.29</ele>
        <time>2016-07-04T14:01:12Z</time>
      </trkpt>
      <trkpt lat="45.908113745972514" lon="7.196395788341761">
        <ele>1861.25</ele>
        <time>2016-07-04T14:01:19Z</time>
      </trkpt>
      <trkpt lat="45.908269649371505" lon="7.196410372853279">
        <ele>1860.29</ele>
        <time>2016-07-04T14:01:32Z</time>
      </trkpt>
      <trkpt lat="45.908405184745789" lon="7.196428142488003">
        <ele>1859.8099999999999</ele>
        <time>2016-07-04T14:01:44Z</time>
      </trkpt>
      <trkpt lat="45.908530410379171" lon="7.196456389501691">
        <ele>1859.8099999999999</ele>
        <time>2016-07-04T14:01:55Z</time>
      </trkpt>
      <trkpt lat="45.908641219139099" lon="7.196496035903692">
        <ele>1859.3299999999999</ele>
        <time>2016-07-04T14:02:05Z</time>
      </trkpt>
      <trkpt lat="45.90865932404995" lon="7.19650274142623">
        <ele>1859.3299999999999</ele>
        <time>2016-07-04T14:02:07Z</time>
      </trkpt>
      <trkpt lat="45.908805672079325" lon="7.196545908227563">
        <ele>1858.8499999999999</ele>
        <time>2016-07-04T14:02:20Z</time>
      </trkpt>
      <trkpt lat="45.908965431153774" lon="7.196570886299014">
        <ele>1856.9200000000001</ele>
        <time>2016-07-04T14:02:32Z</time>
      </trkpt>
      <trkpt lat="45.909118987619877" lon="7.196553619578481">
        <ele>1855.96</ele>
        <time>2016-07-04T14:02:44Z</time>
      </trkpt>
      <trkpt lat="45.909266090020537" lon="7.196565018966794">
        <ele>1854.04</ele>
        <time>2016-07-04T14:02:55Z</time>
      </trkpt>
      <trkpt lat="45.909417718648911" lon="7.196566192433238">
        <ele>1853.0799999999999</ele>
        <time>2016-07-04T14:03:07Z</time>
      </trkpt>
      <trkpt lat="45.909580746665597" lon="7.196568287909031">
        <ele>1851.1600000000001</ele>
        <time>2016-07-04T14:03:19Z</time>
      </trkpt>
      <trkpt lat="45.909697925671935" lon="7.196567617356777">
        <ele>1850.6800000000001</ele>
        <time>2016-07-04T14:03:30Z</time>
      </trkpt>
      <trkpt lat="45.909859528765082" lon="7.196544818580151">
        <ele>1848.75</ele>
        <time>2016-07-04T14:03:43Z</time>
      </trkpt>
      <trkpt lat="45.910028675571084" lon="7.196539286524057">
        <ele>1847.3099999999999</ele>
        <time>2016-07-04T14:03:56Z</time>
      </trkpt>
      <trkpt lat="45.910191787406802" lon="7.196536855772138">
        <ele>1847.3099999999999</ele>
        <time>2016-07-04T14:04:10Z</time>
      </trkpt>
      <trkpt lat="45.910320784896612" lon="7.196539789438248">
        <ele>1846.8299999999999</ele>
        <time>2016-07-04T14:04:21Z</time>
      </trkpt>
      <trkpt lat="45.910455482080579" lon="7.196524953469634">
        <ele>1846.8299999999999</ele>
        <time>2016-07-04T14:04:34Z</time>
      </trkpt>
      <trkpt lat="45.91059478931129" lon="7.196536688134074">
        <ele>1846.3499999999999</ele>
        <time>2016-07-04T14:04:46Z</time>
      </trkpt>
      <trkpt lat="45.910677434876561" lon="7.196530401706696">
        <ele>1845.8699999999999</ele>
        <time>2016-07-04T14:04:55Z</time>
      </trkpt>
      <trkpt lat="45.910766031593084" lon="7.196574658155441">
        <ele>1845.8699999999999</ele>
        <time>2016-07-04T14:05:05Z</time>
      </trkpt>
      <trkpt lat="45.910843312740326" lon="7.196567617356777">
        <ele>1845.3900000000001</ele>
        <time>2016-07-04T14:05:14Z</time>
      </trkpt>
      <trkpt lat="45.910982200875878" lon="7.196551021188498">
        <ele>1845.3900000000001</ele>
        <time>2016-07-04T14:05:26Z</time>
      </trkpt>
      <trkpt lat="45.91112251393497" lon="7.196545321494341">
        <ele>1844.4300000000001</ele>
        <time>2016-07-04T14:05:37Z</time>
      </trkpt>
      <trkpt lat="45.911249918863177" lon="7.196539873257279">
        <ele>1844.9100000000001</ele>
        <time>2016-07-04T14:05:49Z</time>
      </trkpt>
      <trkpt lat="45.911377323791385" lon="7.196574239060283">
        <ele>1844.9100000000001</ele>
        <time>2016-07-04T14:06:00Z</time>
      </trkpt>
      <trkpt lat="45.911518139764667" lon="7.196600222960115">
        <ele>1844.9100000000001</ele>
        <time>2016-07-04T14:06:11Z</time>
      </trkpt>
      <trkpt lat="45.911659207195044" lon="7.196602569893003">
        <ele>1845.3900000000001</ele>
        <time>2016-07-04T14:06:23Z</time>
      </trkpt>
      <trkpt lat="45.911782337352633" lon="7.196586392819881">
        <ele>1845.3900000000001</ele>
        <time>2016-07-04T14:06:35Z</time>
      </trkpt>
      <trkpt lat="45.91194050386548" lon="7.196567617356777">
        <ele>1845.8699999999999</ele>
        <time>2016-07-04T14:06:49Z</time>
      </trkpt>
      <trkpt lat="45.912075620144606" lon="7.196582201868296">
        <ele>1846.3499999999999</ele>
        <time>2016-07-04T14:07:00Z</time>
      </trkpt>
      <trkpt lat="45.912112584337592" lon="7.196577759459615">
        <ele>1846.3499999999999</ele>
        <time>2016-07-04T14:07:03Z</time>
      </trkpt>
      <trkpt lat="45.912161450833082" lon="7.196572814136744">
        <ele>1845.8699999999999</ele>
        <time>2016-07-04T14:07:07Z</time>
      </trkpt>
      <trkpt lat="45.912300422787666" lon="7.196491258218885">
        <ele>1845.8699999999999</ele>
        <time>2016-07-04T14:07:20Z</time>
      </trkpt>
      <trkpt lat="45.912445094436407" lon="7.196421939879656">
        <ele>1845.8699999999999</ele>
        <time>2016-07-04T14:07:33Z</time>
      </trkpt>
      <trkpt lat="45.912580378353596" lon="7.196387993171811">
        <ele>1845.8699999999999</ele>
        <time>2016-07-04T14:07:46Z</time>
      </trkpt>
      <trkpt lat="45.912707867100835" lon="7.196380030363798">
        <ele>1845.8699999999999</ele>
        <time>2016-07-04T14:07:58Z</time>
      </trkpt>
      <trkpt lat="45.912834517657757" lon="7.196372067555785">
        <ele>1845.8699999999999</ele>
        <time>2016-07-04T14:08:09Z</time>
      </trkpt>
      <trkpt lat="45.912978267297149" lon="7.196353962644935">
        <ele>1846.3499999999999</ele>
        <time>2016-07-04T14:08:21Z</time>
      </trkpt>
      <trkpt lat="45.91312101110816" lon="7.196349017322063">
        <ele>1846.8299999999999</ele>
        <time>2016-07-04T14:08:33Z</time>
      </trkpt>
      <trkpt lat="45.913254031911492" lon="7.196349268779159">
        <ele>1847.79</ele>
        <time>2016-07-04T14:08:45Z</time>
      </trkpt>
      <trkpt lat="45.913393087685108" lon="7.196360416710377">
        <ele>1848.75</ele>
        <time>2016-07-04T14:08:58Z</time>
      </trkpt>
      <trkpt lat="45.913528790697455" lon="7.196369636803865">
        <ele>1849.71</ele>
        <time>2016-07-04T14:09:10Z</time>
      </trkpt>
      <trkpt lat="45.913639264181256" lon="7.196361506357789">
        <ele>1850.1900000000001</ele>
        <time>2016-07-04T14:09:21Z</time>
      </trkpt>
      <trkpt lat="45.913741774857044" lon="7.196314567700028">
        <ele>1852.1199999999999</ele>
        <time>2016-07-04T14:09:32Z</time>
      </trkpt>
      <trkpt lat="45.91383439488709" lon="7.196282045915723">
        <ele>1852.5999999999999</ele>
        <time>2016-07-04T14:09:43Z</time>
      </trkpt>
      <trkpt lat="45.913909329101443" lon="7.196250697597861">
        <ele>1853.0799999999999</ele>
        <time>2016-07-04T14:09:51Z</time>
      </trkpt>
      <trkpt lat="45.913990382105112" lon="7.19616805203259">
        <ele>1854.52</ele>
        <time>2016-07-04T14:10:02Z</time>
      </trkpt>
      <trkpt lat="45.914064310491085" lon="7.196112982928753">
        <ele>1855.48</ele>
        <time>2016-07-04T14:10:12Z</time>
      </trkpt>
      <trkpt lat="45.91415056027472" lon="7.196092363446951">
        <ele>1856.4400000000001</ele>
        <time>2016-07-04T14:10:24Z</time>
      </trkpt>
      <trkpt lat="45.91429129242897" lon="7.196089932695031">
        <ele>1856.9200000000001</ele>
        <time>2016-07-04T14:10:38Z</time>
      </trkpt>
      <trkpt lat="45.914333704859018" lon="7.196071911603212">
        <ele>1857.4000000000001</ele>
        <time>2016-07-04T14:10:42Z</time>
      </trkpt>
      <trkpt lat="45.91446278616786" lon="7.196047184988856">
        <ele>1858.3699999999999</ele>
        <time>2016-07-04T14:10:53Z</time>
      </trkpt>
      <trkpt lat="45.91456102207303" lon="7.196047436445952">
        <ele>1858.8499999999999</ele>
        <time>2016-07-04T14:11:01Z</time>
      </trkpt>
      <trkpt lat="45.914605613797903" lon="7.196028074249625">
        <ele>1859.3299999999999</ele>
        <time>2016-07-04T14:11:06Z</time>
      </trkpt>
      <trkpt lat="45.91472128406167" lon="7.195966299623251">
        <ele>1860.29</ele>
        <time>2016-07-04T14:11:18Z</time>
      </trkpt>
      <trkpt lat="45.914789848029613" lon="7.195971999317408">
        <ele>1860.77</ele>
        <time>2016-07-04T14:11:28Z</time>
      </trkpt>
      <trkpt lat="45.914841396734118" lon="7.195957582443953">
        <ele>1860.77</ele>
        <time>2016-07-04T14:11:40Z</time>
      </trkpt>
      <trkpt lat="45.914910295978189" lon="7.195960432291031">
        <ele>1862.21</ele>
        <time>2016-07-04T14:11:51Z</time>
      </trkpt>
      <trkpt lat="45.914925299584866" lon="7.19593889079988">
        <ele>1862.21</ele>
        <time>2016-07-04T14:11:54Z</time>
      </trkpt>
      <trkpt lat="45.914988163858652" lon="7.19589882530272">
        <ele>1862.6900000000001</ele>
        <time>2016-07-04T14:12:02Z</time>
      </trkpt>
      <trkpt lat="45.915104756131768" lon="7.195904524996877">
        <ele>1863.6500000000001</ele>
        <time>2016-07-04T14:12:16Z</time>
      </trkpt>
      <trkpt lat="45.91520743444562" lon="7.195898490026593">
        <ele>1863.1700000000001</ele>
        <time>2016-07-04T14:12:29Z</time>
      </trkpt>
      <trkpt lat="45.915275244042277" lon="7.195880971848965">
        <ele>1864.1300000000001</ele>
        <time>2016-07-04T14:12:41Z</time>
      </trkpt>
      <trkpt lat="45.915353363379836" lon="7.195861609652638">
        <ele>1865.0899999999999</ele>
        <time>2016-07-04T14:12:52Z</time>
      </trkpt>
      <trkpt lat="45.915435841307044" lon="7.195834452286363">
        <ele>1866.0599999999999</ele>
        <time>2016-07-04T14:13:05Z</time>
      </trkpt>
      <trkpt lat="45.915521839633584" lon="7.19586756080389">
        <ele>1867.5</ele>
        <time>2016-07-04T14:13:15Z</time>
      </trkpt>
      <trkpt lat="45.915552182123065" lon="7.195862615481019">
        <ele>1867.5</ele>
        <time>2016-07-04T14:13:18Z</time>
      </trkpt>
      <trkpt lat="45.915627870708704" lon="7.195835961028934">
        <ele>1867.5</ele>
        <time>2016-07-04T14:13:28Z</time>
      </trkpt>
      <trkpt lat="45.915664164349437" lon="7.195831099525094">
        <ele>1867.98</ele>
        <time>2016-07-04T14:13:34Z</time>
      </trkpt>
      <trkpt lat="45.915726693347096" lon="7.195817939937115">
        <ele>1866.54</ele>
        <time>2016-07-04T14:13:45Z</time>
      </trkpt>
      <trkpt lat="45.915788216516376" lon="7.195811150595546">
        <ele>1866.54</ele>
        <time>2016-07-04T14:13:56Z</time>
      </trkpt>
      <trkpt lat="45.915809087455273" lon="7.195806708186865">
        <ele>1867.02</ele>
        <time>2016-07-04T14:14:07Z</time>
      </trkpt>
      <trkpt lat="45.915879160165787" lon="7.195788519456983">
        <ele>1867.02</ele>
        <time>2016-07-04T14:14:18Z</time>
      </trkpt>
      <trkpt lat="45.915926769375801" lon="7.195757757872343">
        <ele>1867.5</ele>
        <time>2016-07-04T14:14:27Z</time>
      </trkpt>
      <trkpt lat="45.915948729962111" lon="7.195768402889371">
        <ele>1867.5</ele>
        <time>2016-07-04T14:14:36Z</time>
      </trkpt>
      <trkpt lat="45.915945209562778" lon="7.195766139775515">
        <ele>1866.54</ele>
        <time>2016-07-04T14:14:45Z</time>
      </trkpt>
      <trkpt lat="45.915945544838905" lon="7.195739736780524">
        <ele>1866.0599999999999</ele>
        <time>2016-07-04T14:15:04Z</time>
      </trkpt>
      <trkpt lat="45.915925847366452" lon="7.195720793679357">
        <ele>1866.0599999999999</ele>
        <time>2016-07-04T14:15:23Z</time>
      </trkpt>
      <trkpt lat="45.915950825437903" lon="7.195762619376183">
        <ele>1866.0599999999999</ele>
        <time>2016-07-04T14:15:40Z</time>
      </trkpt>
      <trkpt lat="45.915957614779472" lon="7.195789525285363">
        <ele>1866.0599999999999</ele>
        <time>2016-07-04T14:15:59Z</time>
      </trkpt>
      <trkpt lat="45.915980497375131" lon="7.195804780349135">
        <ele>1866.0599999999999</ele>
        <time>2016-07-04T14:16:21Z</time>
      </trkpt>
      <trkpt lat="45.915984604507685" lon="7.195819448679686">
        <ele>1866.0599999999999</ele>
        <time>2016-07-04T14:16:38Z</time>
      </trkpt>
      <trkpt lat="45.916000697761774" lon="7.19581919722259">
        <ele>1865.5799999999999</ele>
        <time>2016-07-04T14:17:01Z</time>
      </trkpt>
      <trkpt lat="45.916000111028552" lon="7.195809809491038">
        <ele>1866.0599999999999</ele>
        <time>2016-07-04T14:17:15Z</time>
      </trkpt>
      <trkpt lat="45.91597605496645" lon="7.1957927942276">
        <ele>1866.0599999999999</ele>
        <time>2016-07-04T14:17:35Z</time>
      </trkpt>
      <trkpt lat="45.915974546223879" lon="7.195786759257317">
        <ele>1865.5799999999999</ele>
        <time>2016-07-04T14:17:50Z</time>
      </trkpt>
      <trkpt lat="45.915964152663946" lon="7.195782903581858">
        <ele>1866.0599999999999</ele>
        <time>2016-07-04T14:18:13Z</time>
      </trkpt>
      <trkpt lat="45.915979743003845" lon="7.195793800055981">
        <ele>1866.0599999999999</ele>
        <time>2016-07-04T14:18:40Z</time>
      </trkpt>
      <trkpt lat="45.915974713861942" lon="7.195786088705063">
        <ele>1866.0599999999999</ele>
        <time>2016-07-04T14:19:01Z</time>
      </trkpt>
      <trkpt lat="45.915981251746416" lon="7.195793213322759">
        <ele>1866.0599999999999</ele>
        <time>2016-07-04T14:19:26Z</time>
      </trkpt>
      <trkpt lat="45.915972702205181" lon="7.195788184180856">
        <ele>1866.0599999999999</ele>
        <time>2016-07-04T14:19:54Z</time>
      </trkpt>
      <trkpt lat="45.915970019996166" lon="7.195787932723761">
        <ele>1866.0599999999999</ele>
        <time>2016-07-04T14:20:11Z</time>
      </trkpt>
      <trkpt lat="45.915959542617202" lon="7.195790028199554">
        <ele>1866.0599999999999</ele>
        <time>2016-07-04T14:20:27Z</time>
      </trkpt>
      <trkpt lat="45.915951244533062" lon="7.19580058939755">
        <ele>1866.0599999999999</ele>
        <time>2016-07-04T14:20:53Z</time>
      </trkpt>
      <trkpt lat="45.915961302816868" lon="7.195796649903059">
        <ele>1866.0599999999999</ele>
        <time>2016-07-04T14:21:16Z</time>
      </trkpt>
      <trkpt lat="45.915958117693663" lon="7.195799499750137">
        <ele>1866.0599999999999</ele>
        <time>2016-07-04T14:21:33Z</time>
      </trkpt>
      <trkpt lat="45.915958620607853" lon="7.195816347375512">
        <ele>1866.54</ele>
        <time>2016-07-04T14:21:50Z</time>
      </trkpt>
      <trkpt lat="45.915981503203511" lon="7.195837972685695">
        <ele>1866.0599999999999</ele>
        <time>2016-07-04T14:22:13Z</time>
      </trkpt>
      <trkpt lat="45.915963817387819" lon="7.195811904966831">
        <ele>1866.54</ele>
        <time>2016-07-04T14:22:42Z</time>
      </trkpt>
      <trkpt lat="45.915990974754095" lon="7.195811988785863">
        <ele>1866.0599999999999</ele>
        <time>2016-07-04T14:23:04Z</time>
      </trkpt>
      <trkpt lat="45.916001200675964" lon="7.195794973522425">
        <ele>1866.54</ele>
        <time>2016-07-04T14:23:26Z</time>
      </trkpt>
      <trkpt lat="45.915988879278302" lon="7.19580645672977">
        <ele>1866.0599999999999</ele>
        <time>2016-07-04T14:23:53Z</time>
      </trkpt>
      <trkpt lat="45.915977312251925" lon="7.195794889703393">
        <ele>1866.0599999999999</ele>
        <time>2016-07-04T14:24:16Z</time>
      </trkpt>
      <trkpt lat="45.915956860408187" lon="7.195766139775515">
        <ele>1866.0599999999999</ele>
        <time>2016-07-04T14:24:38Z</time>
      </trkpt>
      <trkpt lat="45.915965158492327" lon="7.195793883875012">
        <ele>1866.0599999999999</ele>
        <time>2016-07-04T14:24:57Z</time>
      </trkpt>
      <trkpt lat="45.915984772145748" lon="7.195817856118083">
        <ele>1866.54</ele>
        <time>2016-07-04T14:25:20Z</time>
      </trkpt>
      <trkpt lat="45.915976138785481" lon="7.195803187787533">
        <ele>1866.0599999999999</ele>
        <time>2016-07-04T14:25:37Z</time>
      </trkpt>
      <trkpt lat="45.915965661406517" lon="7.19579036347568">
        <ele>1866.0599999999999</ele>
        <time>2016-07-04T14:26:02Z</time>
      </trkpt>
      <trkpt lat="45.915992483496666" lon="7.195793213322759">
        <ele>1866.0599999999999</ele>
        <time>2016-07-04T14:26:20Z</time>
      </trkpt>
      <trkpt lat="45.915986951440573" lon="7.195769911631942">
        <ele>1866.54</ele>
        <time>2016-07-04T14:26:47Z</time>
      </trkpt>
      <trkpt lat="45.915974881500006" lon="7.195788519456983">
        <ele>1866.54</ele>
        <time>2016-07-04T14:27:16Z</time>
      </trkpt>
      <trkpt lat="45.915994746610522" lon="7.195789525285363">
        <ele>1867.02</ele>
        <time>2016-07-04T14:27:43Z</time>
      </trkpt>
      <trkpt lat="45.915993237867951" lon="7.195781227201223">
        <ele>1866.54</ele>
        <time>2016-07-04T14:28:03Z</time>
      </trkpt>
      <trkpt lat="45.915951328352094" lon="7.195799835026264">
        <ele>1867.5</ele>
        <time>2016-07-04T14:28:11Z</time>
      </trkpt>
      <trkpt lat="45.915977144613862" lon="7.195820370689035">
        <ele>1866.54</ele>
        <time>2016-07-04T14:28:22Z</time>
      </trkpt>
      <trkpt lat="45.915959710255265" lon="7.195794219151139">
        <ele>1867.5</ele>
        <time>2016-07-04T14:28:30Z</time>
      </trkpt>
      <trkpt lat="45.915948394685984" lon="7.195782316848636">
        <ele>1867.5</ele>
        <time>2016-07-04T14:28:41Z</time>
      </trkpt>
      <trkpt lat="45.915937162935734" lon="7.19579572789371">
        <ele>1867.5</ele>
        <time>2016-07-04T14:28:55Z</time>
      </trkpt>
      <trkpt lat="45.915955770760775" lon="7.195792458951473">
        <ele>1867.98</ele>
        <time>2016-07-04T14:29:05Z</time>
      </trkpt>
      <trkpt lat="45.915932888165116" lon="7.19581919722259">
        <ele>1867.5</ele>
        <time>2016-07-04T14:29:20Z</time>
      </trkpt>
      <trkpt lat="45.915993405506015" lon="7.195810563862324">
        <ele>1867.5</ele>
        <time>2016-07-04T14:29:36Z</time>
      </trkpt>
      <trkpt lat="45.916056102141738" lon="7.195802098140121">
        <ele>1867.98</ele>
        <time>2016-07-04T14:29:46Z</time>
      </trkpt>
      <trkpt lat="45.916152410209179" lon="7.195799499750137">
        <ele>1869.4200000000001</ele>
        <time>2016-07-04T14:29:58Z</time>
      </trkpt>
      <trkpt lat="45.916256178170443" lon="7.195813665166497">
        <ele>1870.8599999999999</ele>
        <time>2016-07-04T14:30:10Z</time>
      </trkpt>
      <trkpt lat="45.916303368285298" lon="7.19578642398119">
        <ele>1871.3399999999999</ele>
        <time>2016-07-04T14:30:15Z</time>
      </trkpt>
      <trkpt lat="45.916387941688299" lon="7.195693636313081">
        <ele>1872.79</ele>
        <time>2016-07-04T14:30:27Z</time>
      </trkpt>
      <trkpt lat="45.916423816233873" lon="7.195689445361495">
        <ele>1872.79</ele>
        <time>2016-07-04T14:30:31Z</time>
      </trkpt>
      <trkpt lat="45.916554238647223" lon="7.195687349885702">
        <ele>1872.79</ele>
        <time>2016-07-04T14:30:43Z</time>
      </trkpt>
      <trkpt lat="45.916661191731691" lon="7.195687601342797">
        <ele>1873.75</ele>
        <time>2016-07-04T14:30:56Z</time>
      </trkpt>
      <trkpt lat="45.916773341596127" lon="7.195702437311411">
        <ele>1874.71</ele>
        <time>2016-07-04T14:31:09Z</time>
      </trkpt>
      <trkpt lat="45.916855568066239" lon="7.195695983245969">
        <ele>1876.6300000000001</ele>
        <time>2016-07-04T14:31:20Z</time>
      </trkpt>
      <trkpt lat="45.916952211409807" lon="7.195714674890041">
        <ele>1877.5899999999999</ele>
        <time>2016-07-04T14:31:31Z</time>
      </trkpt>
      <trkpt lat="45.91706913895905" lon="7.195782233029604">
        <ele>1879.03</ele>
        <time>2016-07-04T14:31:45Z</time>
      </trkpt>
      <trkpt lat="45.917193694040179" lon="7.195812072604895">
        <ele>1880</ele>
        <time>2016-07-04T14:31:58Z</time>
      </trkpt>
      <trkpt lat="45.917350854724646" lon="7.195802936330438">
        <ele>1880.96</ele>
        <time>2016-07-04T14:32:12Z</time>
      </trkpt>
      <trkpt lat="45.917459651827812" lon="7.19580452889204">
        <ele>1881.4400000000001</ele>
        <time>2016-07-04T14:32:23Z</time>
      </trkpt>
      <trkpt lat="45.917579932138324" lon="7.195745687931776">
        <ele>1880.96</ele>
        <time>2016-07-04T14:32:36Z</time>
      </trkpt>
      <trkpt lat="45.917735332623124" lon="7.195770666003227">
        <ele>1880.48</ele>
        <time>2016-07-04T14:32:50Z</time>
      </trkpt>
      <trkpt lat="45.917893331497908" lon="7.195706544443965">
        <ele>1880.48</ele>
        <time>2016-07-04T14:33:03Z</time>
      </trkpt>
      <trkpt lat="45.918046301230788" lon="7.195720626041293">
        <ele>1880.48</ele>
        <time>2016-07-04T14:33:16Z</time>
      </trkpt>
      <trkpt lat="45.918056694790721" lon="7.195721128955483">
        <ele>1880.48</ele>
        <time>2016-07-04T14:33:17Z</time>
      </trkpt>
      <trkpt lat="45.918163564056158" lon="7.195643093436956">
        <ele>1880.96</ele>
        <time>2016-07-04T14:33:32Z</time>
      </trkpt>
      <trkpt lat="45.918223997578025" lon="7.195556676015258">
        <ele>1884.3199999999999</ele>
        <time>2016-07-04T14:33:45Z</time>
      </trkpt>
      <trkpt lat="45.918261129409075" lon="7.195522645488381">
        <ele>1884.3199999999999</ele>
        <time>2016-07-04T14:33:56Z</time>
      </trkpt>
      <trkpt lat="45.91833078302443" lon="7.195459278300405">
        <ele>1887.21</ele>
        <time>2016-07-04T14:34:12Z</time>
      </trkpt>
      <trkpt lat="45.918389372527599" lon="7.195421643555164">
        <ele>1890.0899999999999</ele>
        <time>2016-07-04T14:34:25Z</time>
      </trkpt>
      <trkpt lat="45.91844167560339" lon="7.19540580175817">
        <ele>1891.53</ele>
        <time>2016-07-04T14:34:34Z</time>
      </trkpt>
      <trkpt lat="45.918481154367328" lon="7.195345452055335">
        <ele>1893.45</ele>
        <time>2016-07-04T14:34:45Z</time>
      </trkpt>
      <trkpt lat="45.918528931215405" lon="7.195261884480715">
        <ele>1894.4200000000001</ele>
        <time>2016-07-04T14:34:56Z</time>
      </trkpt>
      <trkpt lat="45.918581737205386" lon="7.195190051570535">
        <ele>1895.8599999999999</ele>
        <time>2016-07-04T14:35:08Z</time>
      </trkpt>
      <trkpt lat="45.918622389435768" lon="7.195164822041988">
        <ele>1895.3800000000001</ele>
        <time>2016-07-04T14:35:17Z</time>
      </trkpt>
      <trkpt lat="45.918680727481842" lon="7.19510430470109">
        <ele>1892.97</ele>
        <time>2016-07-04T14:35:27Z</time>
      </trkpt>
      <trkpt lat="45.91873194091022" lon="7.195040602236986">
        <ele>1890.0899999999999</ele>
        <time>2016-07-04T14:35:38Z</time>
      </trkpt>
      <trkpt lat="45.918843084946275" lon="7.195003889501095">
        <ele>1887.6900000000001</ele>
        <time>2016-07-04T14:35:50Z</time>
      </trkpt>
      <trkpt lat="45.918918186798692" lon="7.194907916709781">
        <ele>1884.3199999999999</ele>
        <time>2016-07-04T14:36:02Z</time>
      </trkpt>
      <trkpt lat="45.918985325843096" lon="7.194841112941504">
        <ele>1882.4000000000001</ele>
        <time>2016-07-04T14:36:12Z</time>
      </trkpt>
      <trkpt lat="45.919064451009035" lon="7.194782858714461">
        <ele>1880.48</ele>
        <time>2016-07-04T14:36:22Z</time>
      </trkpt>
      <trkpt lat="45.91916193254292" lon="7.1947290468961">
        <ele>1879.51</ele>
        <time>2016-07-04T14:36:33Z</time>
      </trkpt>
      <trkpt lat="45.919201746582985" lon="7.19471094198525">
        <ele>1879.03</ele>
        <time>2016-07-04T14:36:37Z</time>
      </trkpt>
      <trkpt lat="45.919286655262113" lon="7.194643886759877">
        <ele>1878.55</ele>
        <time>2016-07-04T14:36:47Z</time>
      </trkpt>
      <trkpt lat="45.919373407959938" lon="7.194579262286425">
        <ele>1877.5899999999999</ele>
        <time>2016-07-04T14:36:57Z</time>
      </trkpt>
      <trkpt lat="45.919407941401005" lon="7.194526959210634">
        <ele>1877.1099999999999</ele>
        <time>2016-07-04T14:37:03Z</time>
      </trkpt>
      <trkpt lat="45.91950885951519" lon="7.194472141563892">
        <ele>1875.6700000000001</ele>
        <time>2016-07-04T14:37:14Z</time>
      </trkpt>
      <trkpt lat="45.919598210602999" lon="7.194511033594608">
        <ele>1872.79</ele>
        <time>2016-07-04T14:37:25Z</time>
      </trkpt>
      <trkpt lat="45.919667948037386" lon="7.19449452124536">
        <ele>1871.3399999999999</ele>
        <time>2016-07-04T14:37:34Z</time>
      </trkpt>
      <trkpt lat="45.919761825352907" lon="7.194482367485762">
        <ele>1868.9400000000001</ele>
        <time>2016-07-04T14:37:45Z</time>
      </trkpt>
      <trkpt lat="45.919831227511168" lon="7.194463592022657">
        <ele>1867.02</ele>
        <time>2016-07-04T14:37:53Z</time>
      </trkpt>
      <trkpt lat="45.919846901670098" lon="7.19445051625371">
        <ele>1866.54</ele>
        <time>2016-07-04T14:37:55Z</time>
      </trkpt>
      <trkpt lat="45.919899791479111" lon="7.194446660578251">
        <ele>1865.5799999999999</ele>
        <time>2016-07-04T14:38:01Z</time>
      </trkpt>
      <trkpt lat="45.919992662966251" lon="7.19447985291481">
        <ele>1864.1300000000001</ele>
        <time>2016-07-04T14:38:09Z</time>
      </trkpt>
      <trkpt lat="45.920081427320838" lon="7.19445881433785">
        <ele>1863.6500000000001</ele>
        <time>2016-07-04T14:38:18Z</time>
      </trkpt>
      <trkpt lat="45.9201904758811" lon="7.194465771317482">
        <ele>1862.6900000000001</ele>
        <time>2016-07-04T14:38:29Z</time>
      </trkpt>
      <trkpt lat="45.920212855562568" lon="7.194465268403292">
        <ele>1862.6900000000001</ele>
        <time>2016-07-04T14:38:31Z</time>
      </trkpt>
      <trkpt lat="45.920327939093113" lon="7.194481696933508">
        <ele>1861.73</ele>
        <time>2016-07-04T14:38:43Z</time>
      </trkpt>
      <trkpt lat="45.920411255210638" lon="7.194507597014308">
        <ele>1860.77</ele>
        <time>2016-07-04T14:38:53Z</time>
      </trkpt>
      <trkpt lat="45.920416451990604" lon="7.19451111741364">
        <ele>1860.29</ele>
        <time>2016-07-04T14:38:54Z</time>
      </trkpt>
      <trkpt lat="45.920493230223656" lon="7.194528635591269">
        <ele>1859.8099999999999</ele>
        <time>2016-07-04T14:39:01Z</time>
      </trkpt>
      <trkpt lat="45.920587610453367" lon="7.194612789899111">
        <ele>1858.3699999999999</ele>
        <time>2016-07-04T14:39:12Z</time>
      </trkpt>
      <trkpt lat="45.920619629323483" lon="7.194694094359875">
        <ele>1860.29</ele>
        <time>2016-07-04T14:39:21Z</time>
      </trkpt>
      <trkpt lat="45.920743513852358" lon="7.1947583835572">
        <ele>1858.3699999999999</ele>
        <time>2016-07-04T14:39:34Z</time>
      </trkpt>
      <trkpt lat="45.920756589621305" lon="7.194786798208952">
        <ele>1857.8900000000001</ele>
        <time>2016-07-04T14:39:37Z</time>
      </trkpt>
      <trkpt lat="45.92086823657155" lon="7.194892158731818">
        <ele>1855.96</ele>
        <time>2016-07-04T14:39:50Z</time>
      </trkpt>
      <trkpt lat="45.920883659273386" lon="7.194902887567878">
        <ele>1855.48</ele>
        <time>2016-07-04T14:39:52Z</time>
      </trkpt>
      <trkpt lat="45.92090436257422" lon="7.194908922538161">
        <ele>1855</ele>
        <time>2016-07-04T14:39:54Z</time>
      </trkpt>
      <trkpt lat="45.921061271801591" lon="7.194971367716789">
        <ele>1853.5599999999999</ele>
        <time>2016-07-04T14:40:10Z</time>
      </trkpt>
      <trkpt lat="45.921207116916776" lon="7.19501537270844">
        <ele>1851.6400000000001</ele>
        <time>2016-07-04T14:40:25Z</time>
      </trkpt>
      <trkpt lat="45.921251624822617" lon="7.195037668570876">
        <ele>1850.1900000000001</ele>
        <time>2016-07-04T14:40:31Z</time>
      </trkpt>
      <trkpt lat="45.921338964253664" lon="7.194998860359192">
        <ele>1847.79</ele>
        <time>2016-07-04T14:40:43Z</time>
      </trkpt>
      <trkpt lat="45.921416077762842" lon="7.194948317483068">
        <ele>1844.4300000000001</ele>
        <time>2016-07-04T14:40:56Z</time>
      </trkpt>
      <trkpt lat="45.921453880146146" lon="7.194928536191583">
        <ele>1843.47</ele>
        <time>2016-07-04T14:41:00Z</time>
      </trkpt>
      <trkpt lat="45.921489167958498" lon="7.194921495392919">
        <ele>1842.98</ele>
        <time>2016-07-04T14:41:03Z</time>
      </trkpt>
      <trkpt lat="45.921602575108409" lon="7.194968434050679">
        <ele>1840.0999999999999</ele>
        <time>2016-07-04T14:41:15Z</time>
      </trkpt>
      <trkpt lat="45.921592181548476" lon="7.194884112104774">
        <ele>1837.7</ele>
        <time>2016-07-04T14:41:25Z</time>
      </trkpt>
      <trkpt lat="45.921559073030949" lon="7.194804232567549">
        <ele>1834.8099999999999</ele>
        <time>2016-07-04T14:41:36Z</time>
      </trkpt>
      <trkpt lat="45.921545997262001" lon="7.194713456556201">
        <ele>1832.4100000000001</ele>
        <time>2016-07-04T14:41:46Z</time>
      </trkpt>
      <trkpt lat="45.921543315052986" lon="7.1947031468153">
        <ele>1832.4100000000001</ele>
        <time>2016-07-04T14:41:47Z</time>
      </trkpt>
      <trkpt lat="45.921539040282369" lon="7.194677079096437">
        <ele>1831.9300000000001</ele>
        <time>2016-07-04T14:41:49Z</time>
      </trkpt>
      <trkpt lat="45.921546332538128" lon="7.194653023034334">
        <ele>1831.9300000000001</ele>
        <time>2016-07-04T14:41:59Z</time>
      </trkpt>
      <trkpt lat="45.921545997262001" lon="7.194644557312131">
        <ele>1831.9300000000001</ele>
        <time>2016-07-04T14:42:03Z</time>
      </trkpt>
      <trkpt lat="45.921617662534118" lon="7.194677833467722">
        <ele>1831.9300000000001</ele>
        <time>2016-07-04T14:42:15Z</time>
      </trkpt>
      <trkpt lat="45.921663763001561" lon="7.194609353318811">
        <ele>1830.97</ele>
        <time>2016-07-04T14:42:25Z</time>
      </trkpt>
      <trkpt lat="45.921670217067003" lon="7.194602731615305">
        <ele>1831.45</ele>
        <time>2016-07-04T14:42:26Z</time>
      </trkpt>
      <trkpt lat="45.921781696379185" lon="7.194665344431996">
        <ele>1830.49</ele>
        <time>2016-07-04T14:42:37Z</time>
      </trkpt>
      <trkpt lat="45.921887643635273" lon="7.194655956700444">
        <ele>1830.97</ele>
        <time>2016-07-04T14:42:48Z</time>
      </trkpt>
      <trkpt lat="45.921984370797873" lon="7.194654531776905">
        <ele>1832.4100000000001</ele>
        <time>2016-07-04T14:43:00Z</time>
      </trkpt>
      <trkpt lat="45.922003984451294" lon="7.194641539826989">
        <ele>1832.4100000000001</ele>
        <time>2016-07-04T14:43:02Z</time>
      </trkpt>
      <trkpt lat="45.922088222578168" lon="7.194554368034005">
        <ele>1833.8499999999999</ele>
        <time>2016-07-04T14:43:14Z</time>
      </trkpt>
      <trkpt lat="45.922129210084677" lon="7.194540621712804">
        <ele>1833.8499999999999</ele>
        <time>2016-07-04T14:43:24Z</time>
      </trkpt>
      <trkpt lat="45.922197690233588" lon="7.194548584520817">
        <ele>1834.3299999999999</ele>
        <time>2016-07-04T14:43:32Z</time>
      </trkpt>
      <trkpt lat="45.922260470688343" lon="7.194578424096108">
        <ele>1833.8499999999999</ele>
        <time>2016-07-04T14:43:40Z</time>
      </trkpt>
      <trkpt lat="45.922399191185832" lon="7.194608431309462">
        <ele>1833.3699999999999</ele>
        <time>2016-07-04T14:43:53Z</time>
      </trkpt>
      <trkpt lat="45.922590801492333" lon="7.194756371900439">
        <ele>1833.8499999999999</ele>
        <time>2016-07-04T14:44:04Z</time>
      </trkpt>
      <trkpt lat="45.922661041840911" lon="7.19480968080461">
        <ele>1833.8499999999999</ele>
        <time>2016-07-04T14:44:13Z</time>
      </trkpt>
      <trkpt lat="45.922728599980474" lon="7.194858631119132">
        <ele>1834.3299999999999</ele>
        <time>2016-07-04T14:44:23Z</time>
      </trkpt>
      <trkpt lat="45.922749303281307" lon="7.194885788485408">
        <ele>1834.3299999999999</ele>
        <time>2016-07-04T14:44:26Z</time>
      </trkpt>
      <trkpt lat="45.922810658812523" lon="7.194920824840665">
        <ele>1834.3299999999999</ele>
        <time>2016-07-04T14:44:35Z</time>
      </trkpt>
      <trkpt lat="45.922868913039565" lon="7.194934990257025">
        <ele>1834.8099999999999</ele>
        <time>2016-07-04T14:44:41Z</time>
      </trkpt>
      <trkpt lat="45.922938818112016" lon="7.194941192865372">
        <ele>1834.8099999999999</ele>
        <time>2016-07-04T14:44:49Z</time>
      </trkpt>
      <trkpt lat="45.923043508082628" lon="7.194960135966539">
        <ele>1835.29</ele>
        <time>2016-07-04T14:45:00Z</time>
      </trkpt>
      <trkpt lat="45.923213828355074" lon="7.194992993026972">
        <ele>1835.77</ele>
        <time>2016-07-04T14:45:14Z</time>
      </trkpt>
      <trkpt lat="45.923220114782453" lon="7.194991568103433">
        <ele>1835.29</ele>
        <time>2016-07-04T14:45:15Z</time>
      </trkpt>
      <trkpt lat="45.923336036503315" lon="7.19510187394917">
        <ele>1836.26</ele>
        <time>2016-07-04T14:45:29Z</time>
      </trkpt>
      <trkpt lat="45.923440223559737" lon="7.195160882547498">
        <ele>1836.74</ele>
        <time>2016-07-04T14:45:40Z</time>
      </trkpt>
      <trkpt lat="45.923571987077594" lon="7.195199439302087">
        <ele>1838.1800000000001</ele>
        <time>2016-07-04T14:45:53Z</time>
      </trkpt>
      <trkpt lat="45.923700397834182" lon="7.195245455950499">
        <ele>1837.22</ele>
        <time>2016-07-04T14:46:06Z</time>
      </trkpt>
      <trkpt lat="45.923840878531337" lon="7.195310667157173">
        <ele>1837.7</ele>
        <time>2016-07-04T14:46:21Z</time>
      </trkpt>
      <trkpt lat="45.923949675634503" lon="7.195386439561844">
        <ele>1838.1800000000001</ele>
        <time>2016-07-04T14:46:32Z</time>
      </trkpt>
      <trkpt lat="45.924020502716303" lon="7.195476293563843">
        <ele>1838.6600000000001</ele>
        <time>2016-07-04T14:46:43Z</time>
      </trkpt>
      <trkpt lat="45.924105159938335" lon="7.195599842816591">
        <ele>1839.1400000000001</ele>
        <time>2016-07-04T14:46:54Z</time>
      </trkpt>
      <trkpt lat="45.924192415550351" lon="7.195731606334448">
        <ele>1839.1400000000001</ele>
        <time>2016-07-04T14:47:06Z</time>
      </trkpt>
      <trkpt lat="45.924293417483568" lon="7.195892287418246">
        <ele>1840.0999999999999</ele>
        <time>2016-07-04T14:47:20Z</time>
      </trkpt>
      <trkpt lat="45.924410931766033" lon="7.196033271029592">
        <ele>1840.5799999999999</ele>
        <time>2016-07-04T14:47:34Z</time>
      </trkpt>
      <trkpt lat="45.924525177106261" lon="7.196155143901706">
        <ele>1840.5799999999999</ele>
        <time>2016-07-04T14:47:47Z</time>
      </trkpt>
      <trkpt lat="45.924669681116939" lon="7.196211637929082">
        <ele>1841.0599999999999</ele>
        <time>2016-07-04T14:48:00Z</time>
      </trkpt>
      <trkpt lat="45.924838408827782" lon="7.196223456412554">
        <ele>1841.0599999999999</ele>
        <time>2016-07-04T14:48:15Z</time>
      </trkpt>
      <trkpt lat="45.924961371347308" lon="7.196323368698359">
        <ele>1841.0599999999999</ele>
        <time>2016-07-04T14:48:27Z</time>
      </trkpt>
      <trkpt lat="45.925085674971342" lon="7.196462089195848">
        <ele>1842.02</ele>
        <time>2016-07-04T14:48:41Z</time>
      </trkpt>
      <trkpt lat="45.925220288336277" lon="7.196580106392503">
        <ele>1842.02</ele>
        <time>2016-07-04T14:48:55Z</time>
      </trkpt>
      <trkpt lat="45.925369821488857" lon="7.196677085012198">
        <ele>1842.02</ele>
        <time>2016-07-04T14:49:09Z</time>
      </trkpt>
      <trkpt lat="45.925526563078165" lon="7.196756964549422">
        <ele>1842.02</ele>
        <time>2016-07-04T14:49:24Z</time>
      </trkpt>
      <trkpt lat="45.92566067352891" lon="7.196828546002507">
        <ele>1842.02</ele>
        <time>2016-07-04T14:49:36Z</time>
      </trkpt>
      <trkpt lat="45.925804506987333" lon="7.196859810501337">
        <ele>1841.54</ele>
        <time>2016-07-04T14:49:48Z</time>
      </trkpt>
      <trkpt lat="45.925964266061783" lon="7.19689853489399">
        <ele>1841.0599999999999</ele>
        <time>2016-07-04T14:50:01Z</time>
      </trkpt>
      <trkpt lat="45.926107680425048" lon="7.196986125782132">
        <ele>1841.0599999999999</ele>
        <time>2016-07-04T14:50:15Z</time>
      </trkpt>
      <trkpt lat="45.92625830322504" lon="7.197109004482627">
        <ele>1841.54</ele>
        <time>2016-07-04T14:50:29Z</time>
      </trkpt>
      <trkpt lat="45.926401214674115" lon="7.197247808799148">
        <ele>1840.5799999999999</ele>
        <time>2016-07-04T14:50:43Z</time>
      </trkpt>
      <trkpt lat="45.926533816382289" lon="7.197359288111329">
        <ele>1840.0999999999999</ele>
        <time>2016-07-04T14:50:57Z</time>
      </trkpt>
      <trkpt lat="45.92668242752552" lon="7.197454338893294">
        <ele>1839.1400000000001</ele>
        <time>2016-07-04T14:51:11Z</time>
      </trkpt>
      <trkpt lat="45.92681142501533" lon="7.197618037462235">
        <ele>1838.6600000000001</ele>
        <time>2016-07-04T14:51:26Z</time>
      </trkpt>
      <trkpt lat="45.92687982134521" lon="7.197791961953044">
        <ele>1838.6600000000001</ele>
        <time>2016-07-04T14:51:38Z</time>
      </trkpt>
      <trkpt lat="45.926866326481104" lon="7.197834793478251">
        <ele>1838.6600000000001</ele>
        <time>2016-07-04T14:51:48Z</time>
      </trkpt>
      <trkpt lat="45.926883677020669" lon="7.197834458202124">
        <ele>1839.1400000000001</ele>
        <time>2016-07-04T14:51:56Z</time>
      </trkpt>
      <trkpt lat="45.926895663142204" lon="7.197843175381422">
        <ele>1838.1800000000001</ele>
        <time>2016-07-04T14:51:57Z</time>
      </trkpt>
      <trkpt lat="45.926909744739532" lon="7.197851222008467">
        <ele>1838.1800000000001</ele>
        <time>2016-07-04T14:51:58Z</time>
      </trkpt>
      <trkpt lat="45.926922066137195" lon="7.197861196473241">
        <ele>1838.1800000000001</ele>
        <time>2016-07-04T14:51:59Z</time>
      </trkpt>
      <trkpt lat="45.926934806630015" lon="7.197874188423157">
        <ele>1838.1800000000001</ele>
        <time>2016-07-04T14:52:00Z</time>
      </trkpt>
      <trkpt lat="45.926949642598629" lon="7.197887180373073">
        <ele>1838.1800000000001</ele>
        <time>2016-07-04T14:52:01Z</time>
      </trkpt>
      <trkpt lat="45.926962550729513" lon="7.197904195636511">
        <ele>1838.1800000000001</ele>
        <time>2016-07-04T14:52:02Z</time>
      </trkpt>
      <trkpt lat="45.927112754434347" lon="7.198109468445182">
        <ele>1837.22</ele>
        <time>2016-07-04T14:52:18Z</time>
      </trkpt>
      <trkpt lat="45.927200261503458" lon="7.198290685191751">
        <ele>1836.74</ele>
        <time>2016-07-04T14:52:31Z</time>
      </trkpt>
      <trkpt lat="45.927231945097446" lon="7.198374336585403">
        <ele>1836.74</ele>
        <time>2016-07-04T14:52:37Z</time>
      </trkpt>
      <trkpt lat="45.927245104685426" lon="7.19837081618607">
        <ele>1836.74</ele>
        <time>2016-07-04T14:52:38Z</time>
      </trkpt>
      <trkpt lat="45.927399080246687" lon="7.198338378220797">
        <ele>1836.26</ele>
        <time>2016-07-04T14:52:50Z</time>
      </trkpt>
      <trkpt lat="45.927518522366881" lon="7.198349526152015">
        <ele>1836.26</ele>
        <time>2016-07-04T14:52:59Z</time>
      </trkpt>
      <trkpt lat="45.927677443251014" lon="7.198312394320965">
        <ele>1835.77</ele>
        <time>2016-07-04T14:53:13Z</time>
      </trkpt>
      <trkpt lat="45.927796633914113" lon="7.198266042396426">
        <ele>1835.77</ele>
        <time>2016-07-04T14:53:23Z</time>
      </trkpt>
      <trkpt lat="45.927914902567863" lon="7.198255648836494">
        <ele>1835.77</ele>
        <time>2016-07-04T14:53:33Z</time>
      </trkpt>
      <trkpt lat="45.928026549518108" lon="7.198262354359031">
        <ele>1835.77</ele>
        <time>2016-07-04T14:53:42Z</time>
      </trkpt>
      <trkpt lat="45.92815320007503" lon="7.198272664099932">
        <ele>1836.74</ele>
        <time>2016-07-04T14:53:54Z</time>
      </trkpt>
      <trkpt lat="45.92826945707202" lon="7.198283979669213">
        <ele>1836.26</ele>
        <time>2016-07-04T14:54:04Z</time>
      </trkpt>
      <trkpt lat="45.928390743210912" lon="7.198315830901265">
        <ele>1835.77</ele>
        <time>2016-07-04T14:54:15Z</time>
      </trkpt>
      <trkpt lat="45.928505910560489" lon="7.198377437889576">
        <ele>1835.77</ele>
        <time>2016-07-04T14:54:25Z</time>
      </trkpt>
      <trkpt lat="45.928624682128429" lon="7.198467962443829">
        <ele>1834.8099999999999</ele>
        <time>2016-07-04T14:54:36Z</time>
      </trkpt>
      <trkpt lat="45.928731383755803" lon="7.198555637151003">
        <ele>1833.8499999999999</ele>
        <time>2016-07-04T14:54:46Z</time>
      </trkpt>
      <trkpt lat="45.928829200565815" lon="7.198648173362017">
        <ele>1832.4100000000001</ele>
        <time>2016-07-04T14:54:56Z</time>
      </trkpt>
      <trkpt lat="45.928954090923071" lon="7.198794856667519">
        <ele>1830.01</ele>
        <time>2016-07-04T14:55:10Z</time>
      </trkpt>
      <trkpt lat="45.929057942703366" lon="7.198987388983369">
        <ele>1827.1199999999999</ele>
        <time>2016-07-04T14:55:24Z</time>
      </trkpt>
      <trkpt lat="45.929140001535416" lon="7.199132312089205">
        <ele>1825.6800000000001</ele>
        <time>2016-07-04T14:55:35Z</time>
      </trkpt>
      <trkpt lat="45.929272184148431" lon="7.199309337884188">
        <ele>1824.24</ele>
        <time>2016-07-04T14:55:51Z</time>
      </trkpt>
      <trkpt lat="45.929352063685656" lon="7.199496002867818">
        <ele>1821.8399999999999</ele>
        <time>2016-07-04T14:56:04Z</time>
      </trkpt>
      <trkpt lat="45.929430518299341" lon="7.199662383645773">
        <ele>1820.8699999999999</ele>
        <time>2016-07-04T14:56:16Z</time>
      </trkpt>
      <trkpt lat="45.929495729506016" lon="7.199824154376984">
        <ele>1818.95</ele>
        <time>2016-07-04T14:56:28Z</time>
      </trkpt>
      <trkpt lat="45.929595557972789" lon="7.199915517121553">
        <ele>1817.99</ele>
        <time>2016-07-04T14:56:40Z</time>
      </trkpt>
      <trkpt lat="45.92972363345325" lon="7.199880983680487">
        <ele>1814.6300000000001</ele>
        <time>2016-07-04T14:56:53Z</time>
      </trkpt>
      <trkpt lat="45.929859587922692" lon="7.199839577078819">
        <ele>1812.7</ele>
        <time>2016-07-04T14:57:06Z</time>
      </trkpt>
      <trkpt lat="45.929994452744722" lon="7.199805378913879">
        <ele>1810.3</ele>
        <time>2016-07-04T14:57:18Z</time>
      </trkpt>
      <trkpt lat="45.930157648399472" lon="7.19977998174727">
        <ele>1808.3800000000001</ele>
        <time>2016-07-04T14:57:32Z</time>
      </trkpt>
      <trkpt lat="45.930333752185106" lon="7.199807139113545">
        <ele>1806.45</ele>
        <time>2016-07-04T14:57:46Z</time>
      </trkpt>
      <trkpt lat="45.930481944233179" lon="7.199833877384663">
        <ele>1804.53</ele>
        <time>2016-07-04T14:57:58Z</time>
      </trkpt>
      <trkpt lat="45.930631561204791" lon="7.199891796335578">
        <ele>1802.6099999999999</ele>
        <time>2016-07-04T14:58:11Z</time>
      </trkpt>
      <trkpt lat="45.93074438162148" lon="7.199944602325559">
        <ele>1801.6500000000001</ele>
        <time>2016-07-04T14:58:22Z</time>
      </trkpt>
      <trkpt lat="45.930858040228486" lon="7.199988272041082">
        <ele>1800.6900000000001</ele>
        <time>2016-07-04T14:58:33Z</time>
      </trkpt>
      <trkpt lat="45.93097354285419" lon="7.200023559853435">
        <ele>1799.24</ele>
        <time>2016-07-04T14:58:45Z</time>
      </trkpt>
      <trkpt lat="45.931064737960696" lon="7.200099164620042">
        <ele>1798.28</ele>
        <time>2016-07-04T14:58:54Z</time>
      </trkpt>
      <trkpt lat="45.931065492331982" lon="7.200117269530892">
        <ele>1797.8</ele>
        <time>2016-07-04T14:58:55Z</time>
      </trkpt>
      <trkpt lat="45.931063145399094" lon="7.200136631727219">
        <ele>1797.8</ele>
        <time>2016-07-04T14:58:56Z</time>
      </trkpt>
      <trkpt lat="45.931059373542666" lon="7.200153144076467">
        <ele>1797.8</ele>
        <time>2016-07-04T14:58:57Z</time>
      </trkpt>
      <trkpt lat="45.931051326915622" lon="7.200171751901507">
        <ele>1797.8</ele>
        <time>2016-07-04T14:58:58Z</time>
      </trkpt>
      <trkpt lat="45.931041520088911" lon="7.200189689174295">
        <ele>1797.3199999999999</ele>
        <time>2016-07-04T14:58:59Z</time>
      </trkpt>
      <trkpt lat="45.931031629443169" lon="7.20020511187613">
        <ele>1797.3199999999999</ele>
        <time>2016-07-04T14:59:00Z</time>
      </trkpt>
      <trkpt lat="45.931024169549346" lon="7.200212236493826">
        <ele>1797.3199999999999</ele>
        <time>2016-07-04T14:59:01Z</time>
      </trkpt>
      <trkpt lat="45.931012434884906" lon="7.200219864025712">
        <ele>1797.3199999999999</ele>
        <time>2016-07-04T14:59:02Z</time>
      </trkpt>
      <trkpt lat="45.931000281125307" lon="7.200226150453091">
        <ele>1797.3199999999999</ele>
        <time>2016-07-04T14:59:03Z</time>
      </trkpt>
      <trkpt lat="45.930950660258532" lon="7.200257917866111">
        <ele>1796.8399999999999</ele>
        <time>2016-07-04T14:59:14Z</time>
      </trkpt>
      <trkpt lat="45.930936830118299" lon="7.200241908431053">
        <ele>1796.8399999999999</ele>
        <time>2016-07-04T14:59:25Z</time>
      </trkpt>
      <trkpt lat="45.93092861585319" lon="7.200229084119201">
        <ele>1796.8399999999999</ele>
        <time>2016-07-04T14:59:30Z</time>
      </trkpt>
      <trkpt lat="45.930883688852191" lon="7.200197232887149">
        <ele>1795.8800000000001</ele>
        <time>2016-07-04T14:59:36Z</time>
      </trkpt>
      <trkpt lat="45.930871870368719" lon="7.200194634497166">
        <ele>1795.8800000000001</ele>
        <time>2016-07-04T14:59:37Z</time>
      </trkpt>
      <trkpt lat="45.930861979722977" lon="7.200191700831056">
        <ele>1795.4000000000001</ele>
        <time>2016-07-04T14:59:38Z</time>
      </trkpt>
      <trkpt lat="45.930707585066557" lon="7.200196478515863">
        <ele>1793.48</ele>
        <time>2016-07-04T14:59:52Z</time>
      </trkpt>
      <trkpt lat="45.930581521242857" lon="7.200244925916195">
        <ele>1792.52</ele>
        <time>2016-07-04T15:00:04Z</time>
      </trkpt>
      <trkpt lat="45.930425617843866" lon="7.200333690270782">
        <ele>1790.5899999999999</ele>
        <time>2016-07-04T15:00:18Z</time>
      </trkpt>
      <trkpt lat="45.930291842669249" lon="7.200364703312516">
        <ele>1789.1500000000001</ele>
        <time>2016-07-04T15:00:29Z</time>
      </trkpt>
      <trkpt lat="45.930129988119006" lon="7.200407702475786">
        <ele>1787.71</ele>
        <time>2016-07-04T15:00:43Z</time>
      </trkpt>
      <trkpt lat="45.930023873224854" lon="7.200510799884796">
        <ele>1786.27</ele>
        <time>2016-07-04T15:00:54Z</time>
      </trkpt>
      <trkpt lat="45.929886493831873" lon="7.20064977183938">
        <ele>1784.3399999999999</ele>
        <time>2016-07-04T15:01:08Z</time>
      </trkpt>
      <trkpt lat="45.929746767506003" lon="7.200718335807324">
        <ele>1782.9000000000001</ele>
        <time>2016-07-04T15:01:20Z</time>
      </trkpt>
      <trkpt lat="45.929631600156426" lon="7.200702745467424">
        <ele>1781.46</ele>
        <time>2016-07-04T15:01:29Z</time>
      </trkpt>
      <trkpt lat="45.92961709946394" lon="7.200706098228693">
        <ele>1781.46</ele>
        <time>2016-07-04T15:01:30Z</time>
      </trkpt>
      <trkpt lat="45.929604945704341" lon="7.2007005661726">
        <ele>1780.98</ele>
        <time>2016-07-04T15:01:31Z</time>
      </trkpt>
      <trkpt lat="45.929593630135059" lon="7.20070006325841">
        <ele>1780.98</ele>
        <time>2016-07-04T15:01:32Z</time>
      </trkpt>
      <trkpt lat="45.929580386728048" lon="7.200700482353568">
        <ele>1780.98</ele>
        <time>2016-07-04T15:01:33Z</time>
      </trkpt>
      <trkpt lat="45.929546188563108" lon="7.200693693011999">
        <ele>1780.5</ele>
        <time>2016-07-04T15:01:36Z</time>
      </trkpt>
      <trkpt lat="45.929535459727049" lon="7.200693357735872">
        <ele>1780.5</ele>
        <time>2016-07-04T15:01:37Z</time>
      </trkpt>
      <trkpt lat="45.929399505257607" lon="7.20064683817327">
        <ele>1778.5799999999999</ele>
        <time>2016-07-04T15:01:49Z</time>
      </trkpt>
      <trkpt lat="45.929297413676977" lon="7.200645916163921">
        <ele>1777.6099999999999</ele>
        <time>2016-07-04T15:01:59Z</time>
      </trkpt>
      <trkpt lat="45.929283080622554" lon="7.200708445161581">
        <ele>1776.1700000000001</ele>
        <time>2016-07-04T15:02:05Z</time>
      </trkpt>
      <trkpt lat="45.929330019280314" lon="7.200826713815332">
        <ele>1773.77</ele>
        <time>2016-07-04T15:02:16Z</time>
      </trkpt>
      <trkpt lat="45.929341502487659" lon="7.200852949172258">
        <ele>1773.29</ele>
        <time>2016-07-04T15:02:18Z</time>
      </trkpt>
      <trkpt lat="45.929383328184485" lon="7.20093509182334">
        <ele>1772.3299999999999</ele>
        <time>2016-07-04T15:02:25Z</time>
      </trkpt>
      <trkpt lat="45.929425405338407" lon="7.200992424041033">
        <ele>1771.3699999999999</ele>
        <time>2016-07-04T15:02:30Z</time>
      </trkpt>
      <trkpt lat="45.929496483877301" lon="7.201085463166237">
        <ele>1769.4400000000001</ele>
        <time>2016-07-04T15:02:39Z</time>
      </trkpt>
      <trkpt lat="45.929578375071287" lon="7.201185459271073">
        <ele>1768.96</ele>
        <time>2016-07-04T15:02:49Z</time>
      </trkpt>
      <trkpt lat="45.92966110445559" lon="7.201278163120151">
        <ele>1768.96</ele>
        <time>2016-07-04T15:02:59Z</time>
      </trkpt>
      <trkpt lat="45.929727405309677" lon="7.201318396255374">
        <ele>1767.52</ele>
        <time>2016-07-04T15:03:09Z</time>
      </trkpt>
      <trkpt lat="45.929747270420194" lon="7.20138369128108">
        <ele>1764.6400000000001</ele>
        <time>2016-07-04T15:03:18Z</time>
      </trkpt>
      <trkpt lat="45.929781887680292" lon="7.201440939679742">
        <ele>1762.71</ele>
        <time>2016-07-04T15:03:26Z</time>
      </trkpt>
      <trkpt lat="45.929802758619189" lon="7.201510174199939">
        <ele>1760.79</ele>
        <time>2016-07-04T15:03:33Z</time>
      </trkpt>
      <trkpt lat="45.929939216002822" lon="7.201594663783908">
        <ele>1759.8299999999999</ele>
        <time>2016-07-04T15:03:47Z</time>
      </trkpt>
      <trkpt lat="45.92996159568429" lon="7.201598938554525">
        <ele>1759.3499999999999</ele>
        <time>2016-07-04T15:03:49Z</time>
      </trkpt>
      <trkpt lat="45.930056059733033" lon="7.20164361409843">
        <ele>1758.3900000000001</ele>
        <time>2016-07-04T15:04:00Z</time>
      </trkpt>
      <trkpt lat="45.930086318403482" lon="7.201661132276058">
        <ele>1757.9100000000001</ele>
        <time>2016-07-04T15:04:05Z</time>
      </trkpt>
      <trkpt lat="45.930102160200477" lon="7.201657863333821">
        <ele>1757.4300000000001</ele>
        <time>2016-07-04T15:04:07Z</time>
      </trkpt>
      <trkpt lat="45.930181285366416" lon="7.201727936044335">
        <ele>1755.99</ele>
        <time>2016-07-04T15:04:19Z</time>
      </trkpt>
      <trkpt lat="45.930246580392122" lon="7.201769091188908">
        <ele>1754.54</ele>
        <time>2016-07-04T15:04:27Z</time>
      </trkpt>
      <trkpt lat="45.930344481021166" lon="7.201820220798254">
        <ele>1754.0599999999999</ele>
        <time>2016-07-04T15:04:39Z</time>
      </trkpt>
      <trkpt lat="45.930412290617824" lon="7.20186204649508">
        <ele>1753.0999999999999</ele>
        <time>2016-07-04T15:04:47Z</time>
      </trkpt>
      <trkpt lat="45.930457720533013" lon="7.201899932697415">
        <ele>1752.6199999999999</ele>
        <time>2016-07-04T15:04:53Z</time>
      </trkpt>
      <trkpt lat="45.930561069399118" lon="7.201961372047663">
        <ele>1750.7</ele>
        <time>2016-07-04T15:05:04Z</time>
      </trkpt>
      <trkpt lat="45.930700628086925" lon="7.202023481950164">
        <ele>1748.78</ele>
        <time>2016-07-04T15:05:18Z</time>
      </trkpt>
      <trkpt lat="45.930723929777741" lon="7.202033875510097">
        <ele>1748.78</ele>
        <time>2016-07-04T15:05:21Z</time>
      </trkpt>
      <trkpt lat="45.930828703567386" lon="7.202039072290063">
        <ele>1746.8499999999999</ele>
        <time>2016-07-04T15:05:33Z</time>
      </trkpt>
      <trkpt lat="45.930921910330653" lon="7.202044269070029">
        <ele>1744.9300000000001</ele>
        <time>2016-07-04T15:05:44Z</time>
      </trkpt>
      <trkpt lat="45.931004891172051" lon="7.202062960714102">
        <ele>1743.49</ele>
        <time>2016-07-04T15:05:54Z</time>
      </trkpt>
      <trkpt lat="45.931016374379396" lon="7.202059105038643">
        <ele>1743.01</ele>
        <time>2016-07-04T15:05:55Z</time>
      </trkpt>
      <trkpt lat="45.931146377697587" lon="7.202077712863684">
        <ele>1741.5699999999999</ele>
        <time>2016-07-04T15:06:07Z</time>
      </trkpt>
      <trkpt lat="45.93125844374299" lon="7.20207997597754">
        <ele>1739.6400000000001</ele>
        <time>2016-07-04T15:06:18Z</time>
      </trkpt>
      <trkpt lat="45.931364810094237" lon="7.202031360939145">
        <ele>1738.6800000000001</ele>
        <time>2016-07-04T15:06:28Z</time>
      </trkpt>
      <trkpt lat="45.931482072919607" lon="7.202032450586557">
        <ele>1737.72</ele>
        <time>2016-07-04T15:06:39Z</time>
      </trkpt>
      <trkpt lat="45.931622385978699" lon="7.20210487022996">
        <ele>1737.72</ele>
        <time>2016-07-04T15:06:54Z</time>
      </trkpt>
      <trkpt lat="45.931637892499566" lon="7.202124400064349">
        <ele>1734.8399999999999</ele>
        <time>2016-07-04T15:06:56Z</time>
      </trkpt>
      <trkpt lat="45.931764291599393" lon="7.202221546322107">
        <ele>1732.9100000000001</ele>
        <time>2016-07-04T15:07:09Z</time>
      </trkpt>
      <trkpt lat="45.931864120066166" lon="7.202312657609582">
        <ele>1731.95</ele>
        <time>2016-07-04T15:07:21Z</time>
      </trkpt>
      <trkpt lat="45.931873507797718" lon="7.202323218807578">
        <ele>1732.4300000000001</ele>
        <time>2016-07-04T15:07:22Z</time>
      </trkpt>
      <trkpt lat="45.931987166404724" lon="7.202400835230947">
        <ele>1732.9100000000001</ele>
        <time>2016-07-04T15:07:34Z</time>
      </trkpt>
      <trkpt lat="45.93210325576365" lon="7.202434279024601">
        <ele>1730.99</ele>
        <time>2016-07-04T15:07:45Z</time>
      </trkpt>
      <trkpt lat="45.932252621278167" lon="7.20248700119555">
        <ele>1729.0699999999999</ele>
        <time>2016-07-04T15:07:58Z</time>
      </trkpt>
      <trkpt lat="45.932355215772986" lon="7.202557493001223">
        <ele>1728.1099999999999</ele>
        <time>2016-07-04T15:08:09Z</time>
      </trkpt>
      <trkpt lat="45.932448422536254" lon="7.202600492164493">
        <ele>1727.6300000000001</ele>
        <time>2016-07-04T15:08:20Z</time>
      </trkpt>
      <trkpt lat="45.932495109736919" lon="7.202616920694709">
        <ele>1726.6700000000001</ele>
        <time>2016-07-04T15:08:27Z</time>
      </trkpt>
      <trkpt lat="45.932581108063459" lon="7.202682383358479">
        <ele>1726.6700000000001</ele>
        <time>2016-07-04T15:08:37Z</time>
      </trkpt>
      <trkpt lat="45.932586640119553" lon="7.202682718634605">
        <ele>1726.6700000000001</ele>
        <time>2016-07-04T15:08:38Z</time>
      </trkpt>
      <trkpt lat="45.932648750022054" lon="7.202729573473334">
        <ele>1727.1500000000001</ele>
        <time>2016-07-04T15:08:45Z</time>
      </trkpt>
      <trkpt lat="45.932700717821717" lon="7.202774668112397">
        <ele>1727.1500000000001</ele>
        <time>2016-07-04T15:08:52Z</time>
      </trkpt>
      <trkpt lat="45.932764085009694" lon="7.202814146876335">
        <ele>1727.6300000000001</ele>
        <time>2016-07-04T15:09:00Z</time>
      </trkpt>
      <trkpt lat="45.932859973981977" lon="7.202876759693027">
        <ele>1727.6300000000001</ele>
        <time>2016-07-04T15:09:10Z</time>
      </trkpt>
      <trkpt lat="45.932979667559266" lon="7.202984718605876">
        <ele>1727.1500000000001</ele>
        <time>2016-07-04T15:09:22Z</time>
      </trkpt>
      <trkpt lat="45.933066504076123" lon="7.203080356121063">
        <ele>1727.1500000000001</ele>
        <time>2016-07-04T15:09:32Z</time>
      </trkpt>
      <trkpt lat="45.933159291744232" lon="7.203157050535083">
        <ele>1726.6700000000001</ele>
        <time>2016-07-04T15:09:42Z</time>
      </trkpt>
      <trkpt lat="45.933177480474114" lon="7.203167695552111">
        <ele>1727.1500000000001</ele>
        <time>2016-07-04T15:09:44Z</time>
      </trkpt>
      <trkpt lat="45.933210756629705" lon="7.203207341954112">
        <ele>1727.6300000000001</ele>
        <time>2016-07-04T15:09:48Z</time>
      </trkpt>
      <trkpt lat="45.933308321982622" lon="7.203277666121721">
        <ele>1729.0699999999999</ele>
        <time>2016-07-04T15:09:59Z</time>
      </trkpt>
      <trkpt lat="45.933324750512838" lon="7.203288562595844">
        <ele>1729.0699999999999</ele>
        <time>2016-07-04T15:10:01Z</time>
      </trkpt>
      <trkpt lat="45.933337742462754" lon="7.203303398564458">
        <ele>1730.03</ele>
        <time>2016-07-04T15:10:03Z</time>
      </trkpt>
      <trkpt lat="45.933426255360246" lon="7.203375734388828">
        <ele>1729.0699999999999</ele>
        <time>2016-07-04T15:10:12Z</time>
      </trkpt>
      <trkpt lat="45.933435559272766" lon="7.203383445739746">
        <ele>1729.0699999999999</ele>
        <time>2016-07-04T15:10:13Z</time>
      </trkpt>
      <trkpt lat="45.933539411053061" lon="7.20348478294909">
        <ele>1728.5899999999999</ele>
        <time>2016-07-04T15:10:24Z</time>
      </trkpt>
      <trkpt lat="45.9336341265589" lon="7.2035913169384">
        <ele>1727.6300000000001</ele>
        <time>2016-07-04T15:10:35Z</time>
      </trkpt>
      <trkpt lat="45.933669414371252" lon="7.203620234504342">
        <ele>1727.1500000000001</ele>
        <time>2016-07-04T15:10:44Z</time>
      </trkpt>
      <trkpt lat="45.93368542380631" lon="7.203618725761771">
        <ele>1727.1500000000001</ele>
        <time>2016-07-04T15:10:59Z</time>
      </trkpt>
      <trkpt lat="45.933672683313489" lon="7.203636663034558">
        <ele>1727.1500000000001</ele>
        <time>2016-07-04T15:11:12Z</time>
      </trkpt>
      <trkpt lat="45.93367662280798" lon="7.203638087958098">
        <ele>1727.1500000000001</ele>
        <time>2016-07-04T15:11:27Z</time>
      </trkpt>
      <trkpt lat="45.933688608929515" lon="7.203632723540068">
        <ele>1727.1500000000001</ele>
        <time>2016-07-04T15:11:45Z</time>
      </trkpt>
      <trkpt lat="45.933755915611982" lon="7.203698856756091">
        <ele>1726.6700000000001</ele>
        <time>2016-07-04T15:11:55Z</time>
      </trkpt>
      <trkpt lat="45.933839567005634" lon="7.203759625554085">
        <ele>1727.1500000000001</ele>
        <time>2016-07-04T15:12:05Z</time>
      </trkpt>
      <trkpt lat="45.933911483734846" lon="7.203824417665601">
        <ele>1728.1099999999999</ele>
        <time>2016-07-04T15:12:15Z</time>
      </trkpt>
      <trkpt lat="45.933972671627998" lon="7.203901028260589">
        <ele>1729.55</ele>
        <time>2016-07-04T15:12:25Z</time>
      </trkpt>
      <trkpt lat="45.933998906984925" lon="7.203948805108666">
        <ele>1729.55</ele>
        <time>2016-07-04T15:12:37Z</time>
      </trkpt>
      <trkpt lat="45.933984825387597" lon="7.203949140384793">
        <ele>1729.0699999999999</ele>
        <time>2016-07-04T15:12:48Z</time>
      </trkpt>
      <trkpt lat="45.933973761275411" lon="7.203961377963424">
        <ele>1729.0699999999999</ele>
        <time>2016-07-04T15:13:01Z</time>
      </trkpt>
      <trkpt lat="45.933959344401956" lon="7.203952576965094">
        <ele>1729.0699999999999</ele>
        <time>2016-07-04T15:13:24Z</time>
      </trkpt>
      <trkpt lat="45.933964876458049" lon="7.203939165920019">
        <ele>1729.0699999999999</ele>
        <time>2016-07-04T15:13:45Z</time>
      </trkpt>
      <trkpt lat="45.933959763497114" lon="7.203947128728032">
        <ele>1729.55</ele>
        <time>2016-07-04T15:14:11Z</time>
      </trkpt>
      <trkpt lat="45.933971162885427" lon="7.203948888927698">
        <ele>1729.0699999999999</ele>
        <time>2016-07-04T15:14:36Z</time>
      </trkpt>
      <trkpt lat="45.933965127915144" lon="7.203933633863926">
        <ele>1729.0699999999999</ele>
        <time>2016-07-04T15:15:00Z</time>
      </trkpt>
      <trkpt lat="45.933963702991605" lon="7.203942015767098">
        <ele>1729.0699999999999</ele>
        <time>2016-07-04T15:15:30Z</time>
      </trkpt>
      <trkpt lat="45.933969151228666" lon="7.203957354649901">
        <ele>1729.0699999999999</ele>
        <time>2016-07-04T15:15:56Z</time>
      </trkpt>
      <trkpt lat="45.933967810124159" lon="7.203924749046564">
        <ele>1729.0699999999999</ele>
        <time>2016-07-04T15:16:10Z</time>
      </trkpt>
      <trkpt lat="45.933984406292439" lon="7.203963473439217">
        <ele>1729.0699999999999</ele>
        <time>2016-07-04T15:16:26Z</time>
      </trkpt>
      <trkpt lat="45.933964038267732" lon="7.203927263617516">
        <ele>1729.0699999999999</ele>
        <time>2016-07-04T15:16:42Z</time>
      </trkpt>
      <trkpt lat="45.933966552838683" lon="7.203952157869935">
        <ele>1729.0699999999999</ele>
        <time>2016-07-04T15:17:06Z</time>
      </trkpt>
      <trkpt lat="45.933991698548198" lon="7.20397143624723">
        <ele>1729.0699999999999</ele>
        <time>2016-07-04T15:17:13Z</time>
      </trkpt>
      <trkpt lat="45.934001840651035" lon="7.203940004110336">
        <ele>1728.5899999999999</ele>
        <time>2016-07-04T15:17:27Z</time>
      </trkpt>
      <trkpt lat="45.934047354385257" lon="7.203938998281956">
        <ele>1728.1099999999999</ele>
        <time>2016-07-04T15:17:38Z</time>
      </trkpt>
      <trkpt lat="45.934083815664053" lon="7.203988116234541">
        <ele>1728.1099999999999</ele>
        <time>2016-07-04T15:17:47Z</time>
      </trkpt>
      <trkpt lat="45.93414818868041" lon="7.204014519229531">
        <ele>1728.1099999999999</ele>
        <time>2016-07-04T15:17:53Z</time>
      </trkpt>
      <trkpt lat="45.934269139543176" lon="7.204157765954733">
        <ele>1727.1500000000001</ele>
        <time>2016-07-04T15:18:07Z</time>
      </trkpt>
      <trkpt lat="45.934381624683738" lon="7.204217528924346">
        <ele>1724.74</ele>
        <time>2016-07-04T15:18:19Z</time>
      </trkpt>
      <trkpt lat="45.934470221400261" lon="7.204320877790451">
        <ele>1721.8599999999999</ele>
        <time>2016-07-04T15:18:31Z</time>
      </trkpt>
      <trkpt lat="45.934515818953514" lon="7.204377287998796">
        <ele>1720.9000000000001</ele>
        <time>2016-07-04T15:18:37Z</time>
      </trkpt>
      <trkpt lat="45.934567116200924" lon="7.20444300211966">
        <ele>1719.9400000000001</ele>
        <time>2016-07-04T15:18:43Z</time>
      </trkpt>
      <trkpt lat="45.934618748724461" lon="7.204527156427503">
        <ele>1718.01</ele>
        <time>2016-07-04T15:18:50Z</time>
      </trkpt>
      <trkpt lat="45.934712709859014" lon="7.20464232377708">
        <ele>1715.6099999999999</ele>
        <time>2016-07-04T15:19:01Z</time>
      </trkpt>
      <trkpt lat="45.934801055118442" lon="7.204772997647524">
        <ele>1713.21</ele>
        <time>2016-07-04T15:19:12Z</time>
      </trkpt>
      <trkpt lat="45.934889987111092" lon="7.204953292384744">
        <ele>1709.8399999999999</ele>
        <time>2016-07-04T15:19:26Z</time>
      </trkpt>
      <trkpt lat="45.934979841113091" lon="7.205075165256858">
        <ele>1707.9200000000001</ele>
        <time>2016-07-04T15:19:37Z</time>
      </trkpt>
      <trkpt lat="45.93506290577352" lon="7.205188572406769">
        <ele>1706</ele>
        <time>2016-07-04T15:19:47Z</time>
      </trkpt>
      <trkpt lat="45.935092326253653" lon="7.205237857997417">
        <ele>1705.04</ele>
        <time>2016-07-04T15:19:51Z</time>
      </trkpt>
      <trkpt lat="45.935123758390546" lon="7.205260572955012">
        <ele>1704.0699999999999</ele>
        <time>2016-07-04T15:19:55Z</time>
      </trkpt>
      <trkpt lat="45.935247223824263" lon="7.205336010083556">
        <ele>1700.23</ele>
        <time>2016-07-04T15:20:08Z</time>
      </trkpt>
      <trkpt lat="45.935418633744121" lon="7.205430641770363">
        <ele>1697.3399999999999</ele>
        <time>2016-07-04T15:20:23Z</time>
      </trkpt>
      <trkpt lat="45.935564059764147" lon="7.205526530742645">
        <ele>1696.3800000000001</ele>
        <time>2016-07-04T15:20:36Z</time>
      </trkpt>
      <trkpt lat="45.935664139688015" lon="7.205586126074195">
        <ele>1695.4200000000001</ele>
        <time>2016-07-04T15:20:48Z</time>
      </trkpt>
      <trkpt lat="45.935775954276323" lon="7.205583192408085">
        <ele>1695.9000000000001</ele>
        <time>2016-07-04T15:20:58Z</time>
      </trkpt>
      <trkpt lat="45.935931522399187" lon="7.205574056133628">
        <ele>1694.9400000000001</ele>
        <time>2016-07-04T15:21:11Z</time>
      </trkpt>
      <trkpt lat="45.936091365292668" lon="7.205615798011422">
        <ele>1693.98</ele>
        <time>2016-07-04T15:21:24Z</time>
      </trkpt>
      <trkpt lat="45.936253890395164" lon="7.205703053623438">
        <ele>1693.98</ele>
        <time>2016-07-04T15:21:38Z</time>
      </trkpt>
      <trkpt lat="45.936406692489982" lon="7.205800618976355">
        <ele>1693.5</ele>
        <time>2016-07-04T15:21:53Z</time>
      </trkpt>
      <trkpt lat="45.936535438522696" lon="7.205871529877186">
        <ele>1693.5</ele>
        <time>2016-07-04T15:22:05Z</time>
      </trkpt>
      <trkpt lat="45.936698131263256" lon="7.205935316160321">
        <ele>1693.98</ele>
        <time>2016-07-04T15:22:19Z</time>
      </trkpt>
      <trkpt lat="45.936825620010495" lon="7.206011340022087">
        <ele>1692.54</ele>
        <time>2016-07-04T15:22:31Z</time>
      </trkpt>
      <trkpt lat="45.936987223103642" lon="7.206100774928927">
        <ele>1692.54</ele>
        <time>2016-07-04T15:22:46Z</time>
      </trkpt>
      <trkpt lat="45.937142791226506" lon="7.206165315583348">
        <ele>1692.54</ele>
        <time>2016-07-04T15:22:59Z</time>
      </trkpt>
      <trkpt lat="45.93726608902216" lon="7.206172607839108">
        <ele>1693.5</ele>
        <time>2016-07-04T15:23:10Z</time>
      </trkpt>
      <trkpt lat="45.937407491728663" lon="7.206162884831429">
        <ele>1694.46</ele>
        <time>2016-07-04T15:23:23Z</time>
      </trkpt>
      <trkpt lat="45.937530873343349" lon="7.206148719415069">
        <ele>1696.3800000000001</ele>
        <time>2016-07-04T15:23:35Z</time>
      </trkpt>
      <trkpt lat="45.937681412324309" lon="7.206212505698204">
        <ele>1697.8299999999999</ele>
        <time>2016-07-04T15:23:49Z</time>
      </trkpt>
      <trkpt lat="45.93778308480978" lon="7.206274531781673">
        <ele>1699.75</ele>
        <time>2016-07-04T15:24:01Z</time>
      </trkpt>
      <trkpt lat="45.937883583828807" lon="7.206317698583007">
        <ele>1701.1900000000001</ele>
        <time>2016-07-04T15:24:13Z</time>
      </trkpt>
      <trkpt lat="45.937957679852843" lon="7.206371929496527">
        <ele>1702.1500000000001</ele>
        <time>2016-07-04T15:24:21Z</time>
      </trkpt>
      <trkpt lat="45.938041415065527" lon="7.206426663324237">
        <ele>1703.5899999999999</ele>
        <time>2016-07-04T15:24:32Z</time>
      </trkpt>
      <trkpt lat="45.938149457797408" lon="7.206469997763634">
        <ele>1705.52</ele>
        <time>2016-07-04T15:24:44Z</time>
      </trkpt>
      <trkpt lat="45.938250627368689" lon="7.206493383273482">
        <ele>1706.48</ele>
        <time>2016-07-04T15:24:55Z</time>
      </trkpt>
      <trkpt lat="45.938336374238133" lon="7.206511404365301">
        <ele>1707.4400000000001</ele>
        <time>2016-07-04T15:25:05Z</time>
      </trkpt>
      <trkpt lat="45.938426898792386" lon="7.206533364951611">
        <ele>1708.4000000000001</ele>
        <time>2016-07-04T15:25:15Z</time>
      </trkpt>
      <trkpt lat="45.938541311770678" lon="7.206538058817387">
        <ele>1709.8399999999999</ele>
        <time>2016-07-04T15:25:27Z</time>
      </trkpt>
      <trkpt lat="45.9386489354074" lon="7.206539567559958">
        <ele>1711.28</ele>
        <time>2016-07-04T15:25:39Z</time>
      </trkpt>
      <trkpt lat="45.938730491325259" lon="7.206559516489506">
        <ele>1712.73</ele>
        <time>2016-07-04T15:25:50Z</time>
      </trkpt>
      <trkpt lat="45.938839372247458" lon="7.206523139029741">
        <ele>1714.1700000000001</ele>
        <time>2016-07-04T15:26:01Z</time>
      </trkpt>
      <trkpt lat="45.938904415816069" lon="7.206504782661796">
        <ele>1714.1700000000001</ele>
        <time>2016-07-04T15:26:08Z</time>
      </trkpt>
      <trkpt lat="45.939040202647448" lon="7.206460777670145">
        <ele>1715.1300000000001</ele>
        <time>2016-07-04T15:26:21Z</time>
      </trkpt>
      <trkpt lat="45.939142629504204" lon="7.206425070762634">
        <ele>1715.6099999999999</ele>
        <time>2016-07-04T15:26:32Z</time>
      </trkpt>
      <trkpt lat="45.939245726913214" lon="7.206387519836426">
        <ele>1716.0899999999999</ele>
        <time>2016-07-04T15:26:43Z</time>
      </trkpt>
      <trkpt lat="45.939386794343591" lon="7.206314262002707">
        <ele>1716.0899999999999</ele>
        <time>2016-07-04T15:26:56Z</time>
      </trkpt>
      <trkpt lat="45.939460303634405" lon="7.206270843744278">
        <ele>1715.1300000000001</ele>
        <time>2016-07-04T15:27:03Z</time>
      </trkpt>
      <trkpt lat="45.939600700512528" lon="7.206178726628423">
        <ele>1713.21</ele>
        <time>2016-07-04T15:27:16Z</time>
      </trkpt>
      <trkpt lat="45.939742857590318" lon="7.206162884831429">
        <ele>1711.76</ele>
        <time>2016-07-04T15:27:28Z</time>
      </trkpt>
      <trkpt lat="45.93989348039031" lon="7.206154838204384">
        <ele>1710.8</ele>
        <time>2016-07-04T15:27:41Z</time>
      </trkpt>
      <trkpt lat="45.94001367688179" lon="7.206225330010057">
        <ele>1710.3199999999999</ele>
        <time>2016-07-04T15:27:51Z</time>
      </trkpt>
      <trkpt lat="45.940145021304488" lon="7.206248631700873">
        <ele>1709.8399999999999</ele>
        <time>2016-07-04T15:28:02Z</time>
      </trkpt>
      <trkpt lat="45.940278209745884" lon="7.206283500418067">
        <ele>1709.3599999999999</ele>
        <time>2016-07-04T15:28:14Z</time>
      </trkpt>
      <trkpt lat="45.940399244427681" lon="7.206266904249787">
        <ele>1706.96</ele>
        <time>2016-07-04T15:28:25Z</time>
      </trkpt>
      <trkpt lat="45.940530588850379" lon="7.206237819045782">
        <ele>1705.04</ele>
        <time>2016-07-04T15:28:37Z</time>
      </trkpt>
      <trkpt lat="45.940645923838019" lon="7.206180319190025">
        <ele>1703.5899999999999</ele>
        <time>2016-07-04T15:28:47Z</time>
      </trkpt>
      <trkpt lat="45.940769976004958" lon="7.206184677779675">
        <ele>1703.5899999999999</ele>
        <time>2016-07-04T15:28:58Z</time>
      </trkpt>
      <trkpt lat="45.940873911604285" lon="7.206129943951964">
        <ele>1701.6700000000001</ele>
        <time>2016-07-04T15:29:09Z</time>
      </trkpt>
      <trkpt lat="45.940994862467051" lon="7.206064900383353">
        <ele>1700.71</ele>
        <time>2016-07-04T15:29:20Z</time>
      </trkpt>
      <trkpt lat="45.941109945997596" lon="7.206011926755309">
        <ele>1700.71</ele>
        <time>2016-07-04T15:29:31Z</time>
      </trkpt>
      <trkpt lat="45.941250259056687" lon="7.205989044159651">
        <ele>1697.8299999999999</ele>
        <time>2016-07-04T15:29:44Z</time>
      </trkpt>
      <trkpt lat="45.941393841058016" lon="7.206019721925259">
        <ele>1697.3399999999999</ele>
        <time>2016-07-04T15:29:56Z</time>
      </trkpt>
      <trkpt lat="45.941512193530798" lon="7.205980578437448">
        <ele>1697.8299999999999</ele>
        <time>2016-07-04T15:30:07Z</time>
      </trkpt>
      <trkpt lat="45.941663067787886" lon="7.205962641164661">
        <ele>1695.9000000000001</ele>
        <time>2016-07-04T15:30:22Z</time>
      </trkpt>
      <trkpt lat="45.941753508523107" lon="7.205913187935948">
        <ele>1693.5</ele>
        <time>2016-07-04T15:30:32Z</time>
      </trkpt>
      <trkpt lat="45.941828526556492" lon="7.205798020586371">
        <ele>1692.0599999999999</ele>
        <time>2016-07-04T15:30:41Z</time>
      </trkpt>
      <trkpt lat="45.941831963136792" lon="7.205794500187039">
        <ele>1692.54</ele>
        <time>2016-07-04T15:30:42Z</time>
      </trkpt>
      <trkpt lat="45.941967330873013" lon="7.205713279545307">
        <ele>1689.1700000000001</ele>
        <time>2016-07-04T15:30:54Z</time>
      </trkpt>
      <trkpt lat="45.942102950066328" lon="7.205820484086871">
        <ele>1686.29</ele>
        <time>2016-07-04T15:31:07Z</time>
      </trkpt>
      <trkpt lat="45.9421147685498" lon="7.205823753029108">
        <ele>1685.8099999999999</ele>
        <time>2016-07-04T15:31:08Z</time>
      </trkpt>
      <trkpt lat="45.942236389964819" lon="7.205888209864497">
        <ele>1683.4100000000001</ele>
        <time>2016-07-04T15:31:19Z</time>
      </trkpt>
      <trkpt lat="45.942355748265982" lon="7.20595677383244">
        <ele>1680.04</ele>
        <time>2016-07-04T15:31:32Z</time>
      </trkpt>
      <trkpt lat="45.94247636385262" lon="7.20592794008553">
        <ele>1677.1600000000001</ele>
        <time>2016-07-04T15:31:45Z</time>
      </trkpt>
      <trkpt lat="45.942587088793516" lon="7.205941015854478">
        <ele>1674.27</ele>
        <time>2016-07-04T15:31:56Z</time>
      </trkpt>
      <trkpt lat="45.942631093785167" lon="7.205968089401722">
        <ele>1672.8299999999999</ele>
        <time>2016-07-04T15:32:01Z</time>
      </trkpt>
      <trkpt lat="45.942721869796515" lon="7.205958617851138">
        <ele>1669.47</ele>
        <time>2016-07-04T15:32:12Z</time>
      </trkpt>
      <trkpt lat="45.942805772647262" lon="7.20587857067585">
        <ele>1666.0999999999999</ele>
        <time>2016-07-04T15:32:24Z</time>
      </trkpt>
      <trkpt lat="45.942848604172468" lon="7.205837750807405">
        <ele>1664.6600000000001</ele>
        <time>2016-07-04T15:32:30Z</time>
      </trkpt>
      <trkpt lat="45.942940805107355" lon="7.20573540776968">
        <ele>1662.26</ele>
        <time>2016-07-04T15:32:41Z</time>
      </trkpt>
      <trkpt lat="45.943060498684645" lon="7.205620491877198">
        <ele>1659.3699999999999</ele>
        <time>2016-07-04T15:32:55Z</time>
      </trkpt>
      <trkpt lat="45.943086734041572" lon="7.205591071397066">
        <ele>1658.8900000000001</ele>
        <time>2016-07-04T15:32:58Z</time>
      </trkpt>
      <trkpt lat="45.943181114271283" lon="7.205524770542979">
        <ele>1657.45</ele>
        <time>2016-07-04T15:33:08Z</time>
      </trkpt>
      <trkpt lat="45.943305920809507" lon="7.205491829663515">
        <ele>1655.05</ele>
        <time>2016-07-04T15:33:20Z</time>
      </trkpt>
      <trkpt lat="45.943429721519351" lon="7.205510353669524">
        <ele>1652.1600000000001</ele>
        <time>2016-07-04T15:33:33Z</time>
      </trkpt>
      <trkpt lat="45.943561652675271" lon="7.205505575984716">
        <ele>1648.8</ele>
        <time>2016-07-04T15:33:46Z</time>
      </trkpt>
      <trkpt lat="45.943676317110658" lon="7.205495601519942">
        <ele>1645.9100000000001</ele>
        <time>2016-07-04T15:33:58Z</time>
      </trkpt>
      <trkpt lat="45.943783354014158" lon="7.205459726974368">
        <ele>1640.6300000000001</ele>
        <time>2016-07-04T15:34:09Z</time>
      </trkpt>
      <trkpt lat="45.943791400641203" lon="7.205457128584385">
        <ele>1643.99</ele>
        <time>2016-07-04T15:34:10Z</time>
      </trkpt>
      <trkpt lat="45.943859629333019" lon="7.205432401970029">
        <ele>1641.5899999999999</ele>
        <time>2016-07-04T15:34:17Z</time>
      </trkpt>
      <trkpt lat="45.943966750055552" lon="7.205400886014104">
        <ele>1639.6700000000001</ele>
        <time>2016-07-04T15:34:28Z</time>
      </trkpt>
      <trkpt lat="45.944011844694614" lon="7.205405831336975">
        <ele>1638.7</ele>
        <time>2016-07-04T15:34:32Z</time>
      </trkpt>
      <trkpt lat="45.94416556879878" lon="7.20535327680409">
        <ele>1635.8199999999999</ele>
        <time>2016-07-04T15:34:47Z</time>
      </trkpt>
      <trkpt lat="45.944284424185753" lon="7.20535185188055">
        <ele>1633.9000000000001</ele>
        <time>2016-07-04T15:34:59Z</time>
      </trkpt>
      <trkpt lat="45.944430688396096" lon="7.205362161621451">
        <ele>1631.98</ele>
        <time>2016-07-04T15:35:12Z</time>
      </trkpt>
      <trkpt lat="45.944591453298926" lon="7.205384960398078">
        <ele>1629.0899999999999</ele>
        <time>2016-07-04T15:35:27Z</time>
      </trkpt>
      <trkpt lat="45.944732017815113" lon="7.205400634557009">
        <ele>1626.6900000000001</ele>
        <time>2016-07-04T15:35:40Z</time>
      </trkpt>
      <trkpt lat="45.944868978112936" lon="7.205414045602083">
        <ele>1624.77</ele>
        <time>2016-07-04T15:35:53Z</time>
      </trkpt>
      <trkpt lat="45.945008033886552" lon="7.205410441383719">
        <ele>1622.3599999999999</ele>
        <time>2016-07-04T15:36:06Z</time>
      </trkpt>
      <trkpt lat="45.945142982527614" lon="7.20535721629858">
        <ele>1620.4400000000001</ele>
        <time>2016-07-04T15:36:19Z</time>
      </trkpt>
      <trkpt lat="45.945282876491547" lon="7.20527708530426">
        <ele>1618.52</ele>
        <time>2016-07-04T15:36:33Z</time>
      </trkpt>
      <trkpt lat="45.945296371355653" lon="7.205315725877881">
        <ele>1618.52</ele>
        <time>2016-07-04T15:36:36Z</time>
      </trkpt>
      <trkpt lat="45.94523468054831" lon="7.205481603741646">
        <ele>1616.5899999999999</ele>
        <time>2016-07-04T15:36:46Z</time>
      </trkpt>
      <trkpt lat="45.945153124630451" lon="7.205640524625778">
        <ele>1616.1099999999999</ele>
        <time>2016-07-04T15:36:59Z</time>
      </trkpt>
      <trkpt lat="45.945054050534964" lon="7.205684194341302">
        <ele>1615.1500000000001</ele>
        <time>2016-07-04T15:37:08Z</time>
      </trkpt>
      <trkpt lat="45.944918347522616" lon="7.205748818814755">
        <ele>1612.75</ele>
        <time>2016-07-04T15:37:20Z</time>
      </trkpt>
      <trkpt lat="45.944821033626795" lon="7.205831296741962">
        <ele>1610.8299999999999</ele>
        <time>2016-07-04T15:37:31Z</time>
      </trkpt>
      <trkpt lat="45.944797145202756" lon="7.205877816304565">
        <ele>1610.3499999999999</ele>
        <time>2016-07-04T15:37:34Z</time>
      </trkpt>
      <trkpt lat="45.944736376404762" lon="7.206049142405391">
        <ele>1608.4200000000001</ele>
        <time>2016-07-04T15:37:47Z</time>
      </trkpt>
      <trkpt lat="45.944776358082891" lon="7.20615366473794">
        <ele>1608.9000000000001</ele>
        <time>2016-07-04T15:37:57Z</time>
      </trkpt>
      <trkpt lat="45.944783566519618" lon="7.206191718578339">
        <ele>1609.3800000000001</ele>
        <time>2016-07-04T15:38:07Z</time>
      </trkpt>
      <trkpt lat="45.944806952029467" lon="7.206195238977671">
        <ele>1609.3800000000001</ele>
        <time>2016-07-04T15:38:12Z</time>
      </trkpt>
      <trkpt lat="45.944891273975372" lon="7.206221306696534">
        <ele>1611.3099999999999</ele>
        <time>2016-07-04T15:38:22Z</time>
      </trkpt>
      <trkpt lat="45.944993197917938" lon="7.206254918128252">
        <ele>1611.79</ele>
        <time>2016-07-04T15:38:34Z</time>
      </trkpt>
      <trkpt lat="45.94509051181376" lon="7.206344185397029">
        <ele>1612.75</ele>
        <time>2016-07-04T15:38:42Z</time>
      </trkpt>
      <trkpt lat="45.945162763819098" lon="7.206442086026073">
        <ele>1613.23</ele>
        <time>2016-07-04T15:38:52Z</time>
      </trkpt>
      <trkpt lat="45.945193357765675" lon="7.206485001370311">
        <ele>1613.71</ele>
        <time>2016-07-04T15:39:01Z</time>
      </trkpt>
      <trkpt lat="45.94525471329689" lon="7.20656312070787">
        <ele>1614.6700000000001</ele>
        <time>2016-07-04T15:39:11Z</time>
      </trkpt>
      <trkpt lat="45.945332078263164" lon="7.206634115427733">
        <ele>1616.1099999999999</ele>
        <time>2016-07-04T15:39:22Z</time>
      </trkpt>
      <trkpt lat="45.945411873981357" lon="7.206692872568965">
        <ele>1617.0699999999999</ele>
        <time>2016-07-04T15:39:32Z</time>
      </trkpt>
      <trkpt lat="45.945468954741955" lon="7.206757999956608">
        <ele>1617.0699999999999</ele>
        <time>2016-07-04T15:39:44Z</time>
      </trkpt>
      <trkpt lat="45.945498291403055" lon="7.206768477335572">
        <ele>1618.52</ele>
        <time>2016-07-04T15:39:48Z</time>
      </trkpt>
      <trkpt lat="45.945607842877507" lon="7.206782475113869">
        <ele>1619.48</ele>
        <time>2016-07-04T15:40:00Z</time>
      </trkpt>
      <trkpt lat="45.945728961378336" lon="7.206755317747593">
        <ele>1621.4000000000001</ele>
        <time>2016-07-04T15:40:14Z</time>
      </trkpt>
      <trkpt lat="45.945820994675159" lon="7.206749198958278">
        <ele>1621.8800000000001</ele>
        <time>2016-07-04T15:40:25Z</time>
      </trkpt>
      <trkpt lat="45.945906993001699" lon="7.206709804013372">
        <ele>1623.3199999999999</ele>
        <time>2016-07-04T15:40:38Z</time>
      </trkpt>
      <trkpt lat="45.946004306897521" lon="7.206689100712538">
        <ele>1624.77</ele>
        <time>2016-07-04T15:40:50Z</time>
      </trkpt>
      <trkpt lat="45.946093993261456" lon="7.20666772685945">
        <ele>1625.73</ele>
        <time>2016-07-04T15:41:02Z</time>
      </trkpt>
      <trkpt lat="45.946201449260116" lon="7.206663703545928">
        <ele>1626.6900000000001</ele>
        <time>2016-07-04T15:41:14Z</time>
      </trkpt>
      <trkpt lat="45.94632675871253" lon="7.206631936132908">
        <ele>1627.6500000000001</ele>
        <time>2016-07-04T15:41:27Z</time>
      </trkpt>
      <trkpt lat="45.946411332115531" lon="7.206596061587334">
        <ele>1628.6099999999999</ele>
        <time>2016-07-04T15:41:38Z</time>
      </trkpt>
      <trkpt lat="45.946506215259433" lon="7.206558343023062">
        <ele>1629.5699999999999</ele>
        <time>2016-07-04T15:41:48Z</time>
      </trkpt>
      <trkpt lat="45.946525828912854" lon="7.206554403528571">
        <ele>1629.5699999999999</ele>
        <time>2016-07-04T15:41:50Z</time>
      </trkpt>
      <trkpt lat="45.946547705680132" lon="7.206552308052778">
        <ele>1630.05</ele>
        <time>2016-07-04T15:41:52Z</time>
      </trkpt>
      <trkpt lat="45.946646444499493" lon="7.206526324152947">
        <ele>1631.01</ele>
        <time>2016-07-04T15:42:04Z</time>
      </trkpt>
      <trkpt lat="45.946750212460756" lon="7.206503860652447">
        <ele>1631.98</ele>
        <time>2016-07-04T15:42:15Z</time>
      </trkpt>
      <trkpt lat="45.946804694831371" lon="7.206484498456121">
        <ele>1632.46</ele>
        <time>2016-07-04T15:42:21Z</time>
      </trkpt>
      <trkpt lat="45.946843335404992" lon="7.206449378281832">
        <ele>1632.9400000000001</ele>
        <time>2016-07-04T15:42:26Z</time>
      </trkpt>
      <trkpt lat="45.946919023990631" lon="7.206384669989348">
        <ele>1633.9000000000001</ele>
        <time>2016-07-04T15:42:37Z</time>
      </trkpt>
      <trkpt lat="45.947011895477772" lon="7.206355333328247">
        <ele>1634.8599999999999</ele>
        <time>2016-07-04T15:42:47Z</time>
      </trkpt>
      <trkpt lat="45.947119351476431" lon="7.206342425197363">
        <ele>1635.3399999999999</ele>
        <time>2016-07-04T15:42:58Z</time>
      </trkpt>
      <trkpt lat="45.947199063375592" lon="7.206315519288182">
        <ele>1636.3</ele>
        <time>2016-07-04T15:43:07Z</time>
      </trkpt>
      <trkpt lat="45.947303669527173" lon="7.206309232860804">
        <ele>1636.3</ele>
        <time>2016-07-04T15:43:17Z</time>
      </trkpt>
      <trkpt lat="45.947407018393278" lon="7.206334546208382">
        <ele>1636.78</ele>
        <time>2016-07-04T15:43:27Z</time>
      </trkpt>
      <trkpt lat="45.947501314803958" lon="7.206350136548281">
        <ele>1637.26</ele>
        <time>2016-07-04T15:43:37Z</time>
      </trkpt>
      <trkpt lat="45.947608603164554" lon="7.206363966688514">
        <ele>1637.74</ele>
        <time>2016-07-04T15:43:48Z</time>
      </trkpt>
      <trkpt lat="45.947698457166553" lon="7.206395901739597">
        <ele>1638.22</ele>
        <time>2016-07-04T15:43:57Z</time>
      </trkpt>
      <trkpt lat="45.947800548747182" lon="7.206446779891849">
        <ele>1639.1900000000001</ele>
        <time>2016-07-04T15:44:08Z</time>
      </trkpt>
      <trkpt lat="45.94782586209476" lon="7.206455999985337">
        <ele>1639.1900000000001</ele>
        <time>2016-07-04T15:44:18Z</time>
      </trkpt>
      <trkpt lat="45.947866095229983" lon="7.206422304734588">
        <ele>1639.6700000000001</ele>
        <time>2016-07-04T15:44:22Z</time>
      </trkpt>
      <trkpt lat="45.947890570387244" lon="7.206407804042101">
        <ele>1640.1500000000001</ele>
        <time>2016-07-04T15:44:25Z</time>
      </trkpt>
      <trkpt lat="45.947978748008609" lon="7.206370085477829">
        <ele>1641.1099999999999</ele>
        <time>2016-07-04T15:44:37Z</time>
      </trkpt>
      <trkpt lat="45.948115289211273" lon="7.206542752683163">
        <ele>1642.0699999999999</ele>
        <time>2016-07-04T15:44:47Z</time>
      </trkpt>
      <trkpt lat="45.948258703574538" lon="7.206679293885827">
        <ele>1643.51</ele>
        <time>2016-07-04T15:45:01Z</time>
      </trkpt>
      <trkpt lat="45.948354844003916" lon="7.20674785785377">
        <ele>1644.95</ele>
        <time>2016-07-04T15:45:13Z</time>
      </trkpt>
      <trkpt lat="45.948416953906417" lon="7.206827653571963">
        <ele>1646.4000000000001</ele>
        <time>2016-07-04T15:45:23Z</time>
      </trkpt>
      <trkpt lat="45.948411505669355" lon="7.206910299137235">
        <ele>1646.8800000000001</ele>
        <time>2016-07-04T15:45:28Z</time>
      </trkpt>
      <trkpt lat="45.948371440172195" lon="7.206985233351588">
        <ele>1647.3599999999999</ele>
        <time>2016-07-04T15:45:34Z</time>
      </trkpt>
      <trkpt lat="45.948274796828628" lon="7.207110794261098">
        <ele>1647.8399999999999</ele>
        <time>2016-07-04T15:45:46Z</time>
      </trkpt>
      <trkpt lat="45.948253674432635" lon="7.207239707931876">
        <ele>1649.28</ele>
        <time>2016-07-04T15:45:57Z</time>
      </trkpt>
      <trkpt lat="45.94824998639524" lon="7.207349678501487">
        <ele>1650.24</ele>
        <time>2016-07-04T15:46:06Z</time>
      </trkpt>
      <trkpt lat="45.948284100741148" lon="7.207480352371931">
        <ele>1651.6800000000001</ele>
        <time>2016-07-04T15:46:18Z</time>
      </trkpt>
      <trkpt lat="45.948290638625622" lon="7.207517735660076">
        <ele>1652.6400000000001</ele>
        <time>2016-07-04T15:46:28Z</time>
      </trkpt>
      <trkpt lat="45.948316790163517" lon="7.207650002092123">
        <ele>1653.5999999999999</ele>
        <time>2016-07-04T15:46:39Z</time>
      </trkpt>
      <trkpt lat="45.948326094076037" lon="7.207753853872418">
        <ele>1654.0899999999999</ele>
        <time>2016-07-04T15:46:48Z</time>
      </trkpt>
      <trkpt lat="45.94835652038455" lon="7.207776652649045">
        <ele>1654.0899999999999</ele>
        <time>2016-07-04T15:46:52Z</time>
      </trkpt>
      <trkpt lat="45.948470681905746" lon="7.207821914926171">
        <ele>1653.1199999999999</ele>
        <time>2016-07-04T15:47:03Z</time>
      </trkpt>
      <trkpt lat="45.948577299714088" lon="7.207858376204968">
        <ele>1652.1600000000001</ele>
        <time>2016-07-04T15:47:15Z</time>
      </trkpt>
      <trkpt lat="45.948582496494055" lon="7.207864243537188">
        <ele>1652.1600000000001</ele>
        <time>2016-07-04T15:47:23Z</time>
      </trkpt>
      <trkpt lat="45.94874300993979" lon="7.207998773083091">
        <ele>1649.76</ele>
        <time>2016-07-04T15:47:37Z</time>
      </trkpt>
      <trkpt lat="45.948882065713406" lon="7.208146713674069">
        <ele>1648.8</ele>
        <time>2016-07-04T15:47:51Z</time>
      </trkpt>
      <trkpt lat="45.949025982990861" lon="7.208262886852026">
        <ele>1647.8399999999999</ele>
        <time>2016-07-04T15:48:07Z</time>
      </trkpt>
      <trkpt lat="45.949101503938437" lon="7.208318123593926">
        <ele>1647.3599999999999</ele>
        <time>2016-07-04T15:48:16Z</time>
      </trkpt>
      <trkpt lat="45.949202254414558" lon="7.20834662206471">
        <ele>1646.4000000000001</ele>
        <time>2016-07-04T15:48:29Z</time>
      </trkpt>
      <trkpt lat="45.949300909414887" lon="7.208324912935495">
        <ele>1645.4300000000001</ele>
        <time>2016-07-04T15:48:39Z</time>
      </trkpt>
      <trkpt lat="45.949439126998186" lon="7.208193400874734">
        <ele>1643.99</ele>
        <time>2016-07-04T15:48:55Z</time>
      </trkpt>
      <trkpt lat="45.949549013748765" lon="7.20813849940896">
        <ele>1642.55</ele>
        <time>2016-07-04T15:49:06Z</time>
      </trkpt>
      <trkpt lat="45.949676251038909" lon="7.208054596558213">
        <ele>1641.5899999999999</ele>
        <time>2016-07-04T15:49:19Z</time>
      </trkpt>
      <trkpt lat="45.949865765869617" lon="7.208014111965895">
        <ele>1640.1500000000001</ele>
        <time>2016-07-04T15:49:35Z</time>
      </trkpt>
      <trkpt lat="45.950002977624536" lon="7.207985948771238">
        <ele>1639.6700000000001</ele>
        <time>2016-07-04T15:49:47Z</time>
      </trkpt>
      <trkpt lat="45.950011108070612" lon="7.207983937114477">
        <ele>1639.1900000000001</ele>
        <time>2016-07-04T15:49:48Z</time>
      </trkpt>
      <trkpt lat="45.950142871588469" lon="7.208004891872406">
        <ele>1638.22</ele>
        <time>2016-07-04T15:50:01Z</time>
      </trkpt>
      <trkpt lat="45.950144715607166" lon="7.207975639030337">
        <ele>1638.22</ele>
        <time>2016-07-04T15:50:12Z</time>
      </trkpt>
      <trkpt lat="45.950188217684627" lon="7.207967676222324">
        <ele>1638.22</ele>
        <time>2016-07-04T15:50:24Z</time>
      </trkpt>
      <trkpt lat="45.950191570445895" lon="7.207984607666731">
        <ele>1637.74</ele>
        <time>2016-07-04T15:50:37Z</time>
      </trkpt>
      <trkpt lat="45.950161311775446" lon="7.207992235198617">
        <ele>1637.74</ele>
        <time>2016-07-04T15:50:48Z</time>
      </trkpt>
      <trkpt lat="45.950165670365095" lon="7.207996509969235">
        <ele>1638.22</ele>
        <time>2016-07-04T15:50:56Z</time>
      </trkpt>
      <trkpt lat="45.950134322047234" lon="7.207953510805965">
        <ele>1638.22</ele>
        <time>2016-07-04T15:51:06Z</time>
      </trkpt>
      <trkpt lat="45.950131304562092" lon="7.207931214943528">
        <ele>1637.74</ele>
        <time>2016-07-04T15:51:25Z</time>
      </trkpt>
    </trkseg>
  </trk>

  <trk>
    <name>san-remy-san-bernardo2016-07-03</name>
    <extensions>
      <gpxx:TrackExtension>
        <gpxx:DisplayColor>Yellow</gpxx:DisplayColor>
      </gpxx:TrackExtension>
      <gpxtrkx:TrackStatsExtension xmlns:gpxtrkx="http://www.garmin.com/xmlschemas/TrackStatsExtension/v1">
        <gpxtrkx:Distance>11722</gpxtrkx:Distance>
        <gpxtrkx:TotalElapsedTime>19369</gpxtrkx:TotalElapsedTime>
        <gpxtrkx:MovingTime>12422</gpxtrkx:MovingTime>
        <gpxtrkx:StoppedTime>5600</gpxtrkx:StoppedTime>
        <gpxtrkx:MovingSpeed>1</gpxtrkx:MovingSpeed>
        <gpxtrkx:MaxSpeed>2</gpxtrkx:MaxSpeed>
        <gpxtrkx:MaxElevation>2484</gpxtrkx:MaxElevation>
        <gpxtrkx:MinElevation>1510</gpxtrkx:MinElevation>
        <gpxtrkx:Ascent>1050</gpxtrkx:Ascent>
        <gpxtrkx:Descent>104</gpxtrkx:Descent>
        <gpxtrkx:AvgAscentRate>0</gpxtrkx:AvgAscentRate>
        <gpxtrkx:MaxAscentRate>0</gpxtrkx:MaxAscentRate>
        <gpxtrkx:AvgDescentRate>0</gpxtrkx:AvgDescentRate>
        <gpxtrkx:MaxDescentRate>-0</gpxtrkx:MaxDescentRate>
      </gpxtrkx:TrackStatsExtension>
    </extensions>
    <trkseg>
      <trkpt lat="45.823536906391382" lon="7.182920537889004">
        <ele>1533.9200000000001</ele>
        <time>2016-07-03T08:16:37Z</time>
      </trkpt>
      <trkpt lat="45.823555514216423" lon="7.18290469609201">
        <ele>1532.48</ele>
        <time>2016-07-03T08:16:44Z</time>
      </trkpt>
      <trkpt lat="45.823543779551983" lon="7.182893212884665">
        <ele>1532.48</ele>
        <time>2016-07-03T08:17:07Z</time>
      </trkpt>
      <trkpt lat="45.823537576943636" lon="7.182915676385164">
        <ele>1532.96</ele>
        <time>2016-07-03T08:17:20Z</time>
      </trkpt>
      <trkpt lat="45.823508240282536" lon="7.182919448241592">
        <ele>1532.96</ele>
        <time>2016-07-03T08:17:37Z</time>
      </trkpt>
      <trkpt lat="45.823475383222103" lon="7.182943923398852">
        <ele>1532</ele>
        <time>2016-07-03T08:17:56Z</time>
      </trkpt>
      <trkpt lat="45.823465492576361" lon="7.182943923398852">
        <ele>1532.48</ele>
        <time>2016-07-03T08:18:18Z</time>
      </trkpt>
      <trkpt lat="45.823467671871185" lon="7.182995136827231">
        <ele>1532.48</ele>
        <time>2016-07-03T08:18:40Z</time>
      </trkpt>
      <trkpt lat="45.823465995490551" lon="7.183047607541084">
        <ele>1532.96</ele>
        <time>2016-07-03T08:19:07Z</time>
      </trkpt>
      <trkpt lat="45.823468342423439" lon="7.183051127940416">
        <ele>1532.96</ele>
        <time>2016-07-03T08:19:28Z</time>
      </trkpt>
      <trkpt lat="45.823448225855827" lon="7.183033106848598">
        <ele>1532.96</ele>
        <time>2016-07-03T08:19:50Z</time>
      </trkpt>
      <trkpt lat="45.8234219904989" lon="7.18306009657681">
        <ele>1533.4400000000001</ele>
        <time>2016-07-03T08:20:14Z</time>
      </trkpt>
      <trkpt lat="45.823441185057163" lon="7.183051463216543">
        <ele>1533.4400000000001</ele>
        <time>2016-07-03T08:20:31Z</time>
      </trkpt>
      <trkpt lat="45.823451662436128" lon="7.183018857613206">
        <ele>1533.4400000000001</ele>
        <time>2016-07-03T08:20:54Z</time>
      </trkpt>
      <trkpt lat="45.823457278311253" lon="7.183039141818881">
        <ele>1533.4400000000001</ele>
        <time>2016-07-03T08:21:15Z</time>
      </trkpt>
      <trkpt lat="45.823441268876195" lon="7.183038555085659">
        <ele>1533.4400000000001</ele>
        <time>2016-07-03T08:21:37Z</time>
      </trkpt>
      <trkpt lat="45.823465827852488" lon="7.182998657226563">
        <ele>1533.9200000000001</ele>
        <time>2016-07-03T08:22:04Z</time>
      </trkpt>
      <trkpt lat="45.823460379615426" lon="7.182995639741421">
        <ele>1533.9200000000001</ele>
        <time>2016-07-03T08:22:15Z</time>
      </trkpt>
      <trkpt lat="45.823448477312922" lon="7.183011397719383">
        <ele>1533.4400000000001</ele>
        <time>2016-07-03T08:22:35Z</time>
      </trkpt>
      <trkpt lat="45.823472365736961" lon="7.182945096865296">
        <ele>1533.9200000000001</ele>
        <time>2016-07-03T08:22:59Z</time>
      </trkpt>
      <trkpt lat="45.823467168956995" lon="7.182966805994511">
        <ele>1533.9200000000001</ele>
        <time>2016-07-03T08:23:31Z</time>
      </trkpt>
      <trkpt lat="45.823461133986712" lon="7.182986838743091">
        <ele>1533.9200000000001</ele>
        <time>2016-07-03T08:23:52Z</time>
      </trkpt>
      <trkpt lat="45.82347915507853" lon="7.182954652234912">
        <ele>1534.4000000000001</ele>
        <time>2016-07-03T08:24:16Z</time>
      </trkpt>
      <trkpt lat="45.823470186442137" lon="7.182966554537416">
        <ele>1535.3599999999999</ele>
        <time>2016-07-03T08:24:34Z</time>
      </trkpt>
      <trkpt lat="45.823479322716594" lon="7.182958004996181">
        <ele>1535.8399999999999</ele>
        <time>2016-07-03T08:24:45Z</time>
      </trkpt>
      <trkpt lat="45.823506563901901" lon="7.182868234813213">
        <ele>1535.8399999999999</ele>
        <time>2016-07-03T08:25:02Z</time>
      </trkpt>
      <trkpt lat="45.823499020189047" lon="7.182878712192178">
        <ele>1535.8399999999999</ele>
        <time>2016-07-03T08:25:18Z</time>
      </trkpt>
      <trkpt lat="45.82347085699439" lon="7.182898661121726">
        <ele>1535.8399999999999</ele>
        <time>2016-07-03T08:25:32Z</time>
      </trkpt>
      <trkpt lat="45.823433725163341" lon="7.182901008054614">
        <ele>1535.3599999999999</ele>
        <time>2016-07-03T08:25:49Z</time>
      </trkpt>
      <trkpt lat="45.823418386280537" lon="7.182880807667971">
        <ele>1536.3199999999999</ele>
        <time>2016-07-03T08:26:06Z</time>
      </trkpt>
      <trkpt lat="45.823419978842139" lon="7.182869408279657">
        <ele>1535.8399999999999</ele>
        <time>2016-07-03T08:26:16Z</time>
      </trkpt>
      <trkpt lat="45.823521483689547" lon="7.183004356920719">
        <ele>1535.8399999999999</ele>
        <time>2016-07-03T08:26:27Z</time>
      </trkpt>
      <trkpt lat="45.823547216132283" lon="7.182948617264628">
        <ele>1535.8399999999999</ele>
        <time>2016-07-03T08:26:46Z</time>
      </trkpt>
      <trkpt lat="45.823512095957994" lon="7.182924477383494">
        <ele>1536.3199999999999</ele>
        <time>2016-07-03T08:27:02Z</time>
      </trkpt>
      <trkpt lat="45.823499858379364" lon="7.182916346937418">
        <ele>1536.3199999999999</ele>
        <time>2016-07-03T08:27:18Z</time>
      </trkpt>
      <trkpt lat="45.823497679084539" lon="7.182904276996851">
        <ele>1536.3199999999999</ele>
        <time>2016-07-03T08:27:31Z</time>
      </trkpt>
      <trkpt lat="45.823546294122934" lon="7.182916179299355">
        <ele>1535.8399999999999</ele>
        <time>2016-07-03T08:27:49Z</time>
      </trkpt>
      <trkpt lat="45.823517879471183" lon="7.182923136278987">
        <ele>1536.3199999999999</ele>
        <time>2016-07-03T08:28:08Z</time>
      </trkpt>
      <trkpt lat="45.823517125099897" lon="7.182899583131075">
        <ele>1536.8</ele>
        <time>2016-07-03T08:28:24Z</time>
      </trkpt>
      <trkpt lat="45.823507653549314" lon="7.182935625314713">
        <ele>1536.8</ele>
        <time>2016-07-03T08:28:38Z</time>
      </trkpt>
      <trkpt lat="45.823502456769347" lon="7.182946857064962">
        <ele>1536.8</ele>
        <time>2016-07-03T08:28:46Z</time>
      </trkpt>
      <trkpt lat="45.823490973562002" lon="7.182970074936748">
        <ele>1536.3199999999999</ele>
        <time>2016-07-03T08:29:03Z</time>
      </trkpt>
      <trkpt lat="45.823463648557663" lon="7.182935709133744">
        <ele>1536.8</ele>
        <time>2016-07-03T08:29:19Z</time>
      </trkpt>
      <trkpt lat="45.82347328774631" lon="7.182971499860287">
        <ele>1536.8</ele>
        <time>2016-07-03T08:29:31Z</time>
      </trkpt>
      <trkpt lat="45.823470521718264" lon="7.18297409825027">
        <ele>1536.8</ele>
        <time>2016-07-03T08:29:54Z</time>
      </trkpt>
      <trkpt lat="45.823474042117596" lon="7.182984324172139">
        <ele>1536.8</ele>
        <time>2016-07-03T08:29:55Z</time>
      </trkpt>
      <trkpt lat="45.823524668812752" lon="7.182974936440587">
        <ele>1536.8</ele>
        <time>2016-07-03T08:30:05Z</time>
      </trkpt>
      <trkpt lat="45.823555262759328" lon="7.182963034138084">
        <ele>1536.8</ele>
        <time>2016-07-03T08:30:20Z</time>
      </trkpt>
      <trkpt lat="45.823542270809412" lon="7.183004776015878">
        <ele>1536.8</ele>
        <time>2016-07-03T08:30:30Z</time>
      </trkpt>
      <trkpt lat="45.823564063757658" lon="7.182988682761788">
        <ele>1536.8</ele>
        <time>2016-07-03T08:30:42Z</time>
      </trkpt>
      <trkpt lat="45.823633465915918" lon="7.182948030531406">
        <ele>1536.8</ele>
        <time>2016-07-03T08:30:52Z</time>
      </trkpt>
      <trkpt lat="45.823689121752977" lon="7.182918190956116">
        <ele>1537.29</ele>
        <time>2016-07-03T08:30:59Z</time>
      </trkpt>
      <trkpt lat="45.823832955211401" lon="7.182868318632245">
        <ele>1537.29</ele>
        <time>2016-07-03T08:31:12Z</time>
      </trkpt>
      <trkpt lat="45.823956420645118" lon="7.182925399392843">
        <ele>1537.29</ele>
        <time>2016-07-03T08:31:24Z</time>
      </trkpt>
      <trkpt lat="45.823984332382679" lon="7.182958256453276">
        <ele>1537.29</ele>
        <time>2016-07-03T08:31:27Z</time>
      </trkpt>
      <trkpt lat="45.824056081473827" lon="7.183062946423888">
        <ele>1537.77</ele>
        <time>2016-07-03T08:31:36Z</time>
      </trkpt>
      <trkpt lat="45.824088351801038" lon="7.183142574504018">
        <ele>1538.25</ele>
        <time>2016-07-03T08:31:42Z</time>
      </trkpt>
      <trkpt lat="45.824103690683842" lon="7.18318716622889">
        <ele>1537.77</ele>
        <time>2016-07-03T08:31:45Z</time>
      </trkpt>
      <trkpt lat="45.824213996529579" lon="7.183386236429215">
        <ele>1539.21</ele>
        <time>2016-07-03T08:32:01Z</time>
      </trkpt>
      <trkpt lat="45.82432447001338" lon="7.183423200622201">
        <ele>1540.1700000000001</ele>
        <time>2016-07-03T08:32:12Z</time>
      </trkpt>
      <trkpt lat="45.824376856908202" lon="7.183450944721699">
        <ele>1540.6500000000001</ele>
        <time>2016-07-03T08:32:21Z</time>
      </trkpt>
      <trkpt lat="45.824419185519218" lon="7.183584300801158">
        <ele>1540.6500000000001</ele>
        <time>2016-07-03T08:32:31Z</time>
      </trkpt>
      <trkpt lat="45.824472913518548" lon="7.183714136481285">
        <ele>1541.6099999999999</ele>
        <time>2016-07-03T08:32:43Z</time>
      </trkpt>
      <trkpt lat="45.824498981237411" lon="7.183805918321014">
        <ele>1542.0899999999999</ele>
        <time>2016-07-03T08:32:51Z</time>
      </trkpt>
      <trkpt lat="45.824554217979312" lon="7.183924103155732">
        <ele>1542.5699999999999</ele>
        <time>2016-07-03T08:33:02Z</time>
      </trkpt>
      <trkpt lat="45.824602330103517" lon="7.183920834213495">
        <ele>1543.05</ele>
        <time>2016-07-03T08:33:08Z</time>
      </trkpt>
      <trkpt lat="45.824681371450424" lon="7.184025691822171">
        <ele>1542.5699999999999</ele>
        <time>2016-07-03T08:33:20Z</time>
      </trkpt>
      <trkpt lat="45.824682712554932" lon="7.184042287990451">
        <ele>1543.05</ele>
        <time>2016-07-03T08:33:33Z</time>
      </trkpt>
      <trkpt lat="45.824677012860775" lon="7.184054860845208">
        <ele>1543.05</ele>
        <time>2016-07-03T08:33:36Z</time>
      </trkpt>
      <trkpt lat="45.824741385877132" lon="7.184234987944365">
        <ele>1541.6099999999999</ele>
        <time>2016-07-03T08:33:49Z</time>
      </trkpt>
      <trkpt lat="45.824772818014026" lon="7.184306234121323">
        <ele>1541.1300000000001</ele>
        <time>2016-07-03T08:33:55Z</time>
      </trkpt>
      <trkpt lat="45.824910700321198" lon="7.18443556688726">
        <ele>1539.6900000000001</ele>
        <time>2016-07-03T08:34:11Z</time>
      </trkpt>
      <trkpt lat="45.825050342828035" lon="7.184553584083915">
        <ele>1538.73</ele>
        <time>2016-07-03T08:34:25Z</time>
      </trkpt>
      <trkpt lat="45.825123600661755" lon="7.184669254347682">
        <ele>1538.25</ele>
        <time>2016-07-03T08:34:36Z</time>
      </trkpt>
      <trkpt lat="45.82517565228045" lon="7.184639498591423">
        <ele>1537.77</ele>
        <time>2016-07-03T08:34:43Z</time>
      </trkpt>
      <trkpt lat="45.825267601758242" lon="7.184749133884907">
        <ele>1536.8</ele>
        <time>2016-07-03T08:34:51Z</time>
      </trkpt>
      <trkpt lat="45.825377069413662" lon="7.184948287904263">
        <ele>1534.8800000000001</ele>
        <time>2016-07-03T08:35:06Z</time>
      </trkpt>
      <trkpt lat="45.825521070510149" lon="7.185104275122285">
        <ele>1534.4000000000001</ele>
        <time>2016-07-03T08:35:22Z</time>
      </trkpt>
      <trkpt lat="45.825631292536855" lon="7.185188261792064">
        <ele>1532</ele>
        <time>2016-07-03T08:35:34Z</time>
      </trkpt>
      <trkpt lat="45.825765402987599" lon="7.185255903750658">
        <ele>1530.5599999999999</ele>
        <time>2016-07-03T08:35:47Z</time>
      </trkpt>
      <trkpt lat="45.825893310829997" lon="7.185307200998068">
        <ele>1529.5899999999999</ele>
        <time>2016-07-03T08:36:01Z</time>
      </trkpt>
      <trkpt lat="45.826051142066717" lon="7.185420859605074">
        <ele>1528.1500000000001</ele>
        <time>2016-07-03T08:36:15Z</time>
      </trkpt>
      <trkpt lat="45.826182905584574" lon="7.185529237613082">
        <ele>1526.23</ele>
        <time>2016-07-03T08:36:28Z</time>
      </trkpt>
      <trkpt lat="45.826355321332812" lon="7.185645326972008">
        <ele>1524.79</ele>
        <time>2016-07-03T08:36:43Z</time>
      </trkpt>
      <trkpt lat="45.826491275802255" lon="7.185731576755643">
        <ele>1523.3499999999999</ele>
        <time>2016-07-03T08:36:55Z</time>
      </trkpt>
      <trkpt lat="45.826631588861346" lon="7.185823526233435">
        <ele>1521.9000000000001</ele>
        <time>2016-07-03T08:37:08Z</time>
      </trkpt>
      <trkpt lat="45.826656818389893" lon="7.18584917485714">
        <ele>1521.4200000000001</ele>
        <time>2016-07-03T08:37:11Z</time>
      </trkpt>
      <trkpt lat="45.826777769252658" lon="7.185911284759641">
        <ele>1519.98</ele>
        <time>2016-07-03T08:37:24Z</time>
      </trkpt>
      <trkpt lat="45.826918501406908" lon="7.185968114063144">
        <ele>1518.54</ele>
        <time>2016-07-03T08:37:37Z</time>
      </trkpt>
      <trkpt lat="45.827059652656317" lon="7.186050089076161">
        <ele>1517.5799999999999</ele>
        <time>2016-07-03T08:37:50Z</time>
      </trkpt>
      <trkpt lat="45.827147159725428" lon="7.186094345524907">
        <ele>1516.1400000000001</ele>
        <time>2016-07-03T08:37:58Z</time>
      </trkpt>
      <trkpt lat="45.827281773090363" lon="7.186187719926238">
        <ele>1514.21</ele>
        <time>2016-07-03T08:38:11Z</time>
      </trkpt>
      <trkpt lat="45.827406998723745" lon="7.186258044093847">
        <ele>1512.77</ele>
        <time>2016-07-03T08:38:21Z</time>
      </trkpt>
      <trkpt lat="45.827559130266309" lon="7.186337504535914">
        <ele>1510.8499999999999</ele>
        <time>2016-07-03T08:38:34Z</time>
      </trkpt>
      <trkpt lat="45.827704221010208" lon="7.186456276103854">
        <ele>1509.8900000000001</ele>
        <time>2016-07-03T08:38:47Z</time>
      </trkpt>
      <trkpt lat="45.827732216566801" lon="7.186631541699171">
        <ele>1510.8499999999999</ele>
        <time>2016-07-03T08:39:01Z</time>
      </trkpt>
      <trkpt lat="45.827770438045263" lon="7.186626261100173">
        <ele>1510.3699999999999</ele>
        <time>2016-07-03T08:39:06Z</time>
      </trkpt>
      <trkpt lat="45.827824333682656" lon="7.186635648831725">
        <ele>1510.8499999999999</ele>
        <time>2016-07-03T08:39:10Z</time>
      </trkpt>
      <trkpt lat="45.827964311465621" lon="7.186593906953931">
        <ele>1511.3299999999999</ele>
        <time>2016-07-03T08:39:22Z</time>
      </trkpt>
      <trkpt lat="45.828038239851594" lon="7.186555517837405">
        <ele>1511.8099999999999</ele>
        <time>2016-07-03T08:39:30Z</time>
      </trkpt>
      <trkpt lat="45.828121304512024" lon="7.186513859778643">
        <ele>1510.8499999999999</ele>
        <time>2016-07-03T08:39:39Z</time>
      </trkpt>
      <trkpt lat="45.828255666419864" lon="7.186482846736908">
        <ele>1512.29</ele>
        <time>2016-07-03T08:39:55Z</time>
      </trkpt>
      <trkpt lat="45.828394806012511" lon="7.186443116515875">
        <ele>1513.73</ele>
        <time>2016-07-03T08:40:06Z</time>
      </trkpt>
      <trkpt lat="45.828454066067934" lon="7.186443787068129">
        <ele>1514.21</ele>
        <time>2016-07-03T08:40:14Z</time>
      </trkpt>
      <trkpt lat="45.828471165150404" lon="7.186462478712201">
        <ele>1514.6900000000001</ele>
        <time>2016-07-03T08:40:25Z</time>
      </trkpt>
      <trkpt lat="45.828447779640555" lon="7.18645803630352">
        <ele>1514.6900000000001</ele>
        <time>2016-07-03T08:40:34Z</time>
      </trkpt>
      <trkpt lat="45.828456161543727" lon="7.186445547267795">
        <ele>1514.21</ele>
        <time>2016-07-03T08:40:45Z</time>
      </trkpt>
      <trkpt lat="45.828443337231874" lon="7.186494329944253">
        <ele>1514.6900000000001</ele>
        <time>2016-07-03T08:40:51Z</time>
      </trkpt>
      <trkpt lat="45.828440571203828" lon="7.18656163662672">
        <ele>1514.6900000000001</ele>
        <time>2016-07-03T08:40:57Z</time>
      </trkpt>
      <trkpt lat="45.828363206237555" lon="7.186640929430723">
        <ele>1514.6900000000001</ele>
        <time>2016-07-03T08:41:05Z</time>
      </trkpt>
      <trkpt lat="45.828358260914683" lon="7.186671271920204">
        <ele>1514.6900000000001</ele>
        <time>2016-07-03T08:41:15Z</time>
      </trkpt>
      <trkpt lat="45.828501004725695" lon="7.186543196439743">
        <ele>1515.1800000000001</ele>
        <time>2016-07-03T08:41:29Z</time>
      </trkpt>
      <trkpt lat="45.828511314466596" lon="7.186473375186324">
        <ele>1514.6900000000001</ele>
        <time>2016-07-03T08:41:38Z</time>
      </trkpt>
      <trkpt lat="45.82848759368062" lon="7.18646633438766">
        <ele>1514.21</ele>
        <time>2016-07-03T08:41:42Z</time>
      </trkpt>
      <trkpt lat="45.82841039635241" lon="7.186451414600015">
        <ele>1513.73</ele>
        <time>2016-07-03T08:41:51Z</time>
      </trkpt>
      <trkpt lat="45.828393967822194" lon="7.186446888372302">
        <ele>1513.73</ele>
        <time>2016-07-03T08:41:53Z</time>
      </trkpt>
      <trkpt lat="45.82824720069766" lon="7.186498269438744">
        <ele>1512.77</ele>
        <time>2016-07-03T08:42:07Z</time>
      </trkpt>
      <trkpt lat="45.828072438016534" lon="7.186553422361612">
        <ele>1511.8099999999999</ele>
        <time>2016-07-03T08:42:24Z</time>
      </trkpt>
      <trkpt lat="45.827919552102685" lon="7.186620142310858">
        <ele>1511.3299999999999</ele>
        <time>2016-07-03T08:42:37Z</time>
      </trkpt>
      <trkpt lat="45.827876636758447" lon="7.186643779277802">
        <ele>1510.8499999999999</ele>
        <time>2016-07-03T08:42:41Z</time>
      </trkpt>
      <trkpt lat="45.82782500423491" lon="7.186665488407016">
        <ele>1510.8499999999999</ele>
        <time>2016-07-03T08:42:46Z</time>
      </trkpt>
      <trkpt lat="45.827655186876655" lon="7.186699435114861">
        <ele>1510.3699999999999</ele>
        <time>2016-07-03T08:43:00Z</time>
      </trkpt>
      <trkpt lat="45.82753230817616" lon="7.186783673241735">
        <ele>1511.3299999999999</ele>
        <time>2016-07-03T08:43:14Z</time>
      </trkpt>
      <trkpt lat="45.82744580693543" lon="7.186790881678462">
        <ele>1511.8099999999999</ele>
        <time>2016-07-03T08:43:25Z</time>
      </trkpt>
      <trkpt lat="45.827317982912064" lon="7.186891715973616">
        <ele>1512.29</ele>
        <time>2016-07-03T08:43:39Z</time>
      </trkpt>
      <trkpt lat="45.827189404517412" lon="7.186967739835382">
        <ele>1513.25</ele>
        <time>2016-07-03T08:43:52Z</time>
      </trkpt>
      <trkpt lat="45.827128970995545" lon="7.186996573582292">
        <ele>1513.73</ele>
        <time>2016-07-03T08:43:59Z</time>
      </trkpt>
      <trkpt lat="45.826956639066339" lon="7.187021719291806">
        <ele>1514.21</ele>
        <time>2016-07-03T08:44:13Z</time>
      </trkpt>
      <trkpt lat="45.82688681781292" lon="7.187029514461756">
        <ele>1514.6900000000001</ele>
        <time>2016-07-03T08:44:19Z</time>
      </trkpt>
      <trkpt lat="45.826717084273696" lon="7.187080224975944">
        <ele>1515.6600000000001</ele>
        <time>2016-07-03T08:44:34Z</time>
      </trkpt>
      <trkpt lat="45.826575765386224" lon="7.187144765630364">
        <ele>1516.6199999999999</ele>
        <time>2016-07-03T08:44:48Z</time>
      </trkpt>
      <trkpt lat="45.826466046273708" lon="7.18717678450048">
        <ele>1517.0999999999999</ele>
        <time>2016-07-03T08:44:59Z</time>
      </trkpt>
      <trkpt lat="45.826329505071044" lon="7.187223806977272">
        <ele>1518.0599999999999</ele>
        <time>2016-07-03T08:45:11Z</time>
      </trkpt>
      <trkpt lat="45.826171841472387" lon="7.187280049547553">
        <ele>1518.54</ele>
        <time>2016-07-03T08:45:26Z</time>
      </trkpt>
      <trkpt lat="45.826115850359201" lon="7.187285078689456">
        <ele>1519.02</ele>
        <time>2016-07-03T08:45:30Z</time>
      </trkpt>
      <trkpt lat="45.826002024114132" lon="7.187306620180607">
        <ele>1519.98</ele>
        <time>2016-07-03T08:45:38Z</time>
      </trkpt>
      <trkpt lat="45.825863219797611" lon="7.187388008460403">
        <ele>1520.46</ele>
        <time>2016-07-03T08:45:50Z</time>
      </trkpt>
      <trkpt lat="45.825759451836348" lon="7.187465038150549">
        <ele>1520.9400000000001</ele>
        <time>2016-07-03T08:46:01Z</time>
      </trkpt>
      <trkpt lat="45.825620228424668" lon="7.187519101426005">
        <ele>1521.9000000000001</ele>
        <time>2016-07-03T08:46:14Z</time>
      </trkpt>
      <trkpt lat="45.825586700811982" lon="7.187530333176255">
        <ele>1521.9000000000001</ele>
        <time>2016-07-03T08:46:17Z</time>
      </trkpt>
      <trkpt lat="45.825419565662742" lon="7.187525639310479">
        <ele>1522.8699999999999</ele>
        <time>2016-07-03T08:46:31Z</time>
      </trkpt>
      <trkpt lat="45.825257711112499" lon="7.187498565763235">
        <ele>1523.8299999999999</ele>
        <time>2016-07-03T08:46:43Z</time>
      </trkpt>
      <trkpt lat="45.825092671439052" lon="7.187486160546541">
        <ele>1524.79</ele>
        <time>2016-07-03T08:46:56Z</time>
      </trkpt>
      <trkpt lat="45.824969373643398" lon="7.187503175809979">
        <ele>1525.27</ele>
        <time>2016-07-03T08:47:07Z</time>
      </trkpt>
      <trkpt lat="45.82483266480267" lon="7.187508372589946">
        <ele>1525.75</ele>
        <time>2016-07-03T08:47:18Z</time>
      </trkpt>
      <trkpt lat="45.824801232665777" lon="7.187528237700462">
        <ele>1526.23</ele>
        <time>2016-07-03T08:47:27Z</time>
      </trkpt>
      <trkpt lat="45.824816403910518" lon="7.187525052577257">
        <ele>1526.71</ele>
        <time>2016-07-03T08:47:28Z</time>
      </trkpt>
      <trkpt lat="45.824899971485138" lon="7.187502505257726">
        <ele>1526.71</ele>
        <time>2016-07-03T08:47:37Z</time>
      </trkpt>
      <trkpt lat="45.825016731396317" lon="7.187494542449713">
        <ele>1527.6700000000001</ele>
        <time>2016-07-03T08:47:49Z</time>
      </trkpt>
      <trkpt lat="45.8250676933676" lon="7.187501583248377">
        <ele>1528.1500000000001</ele>
        <time>2016-07-03T08:47:54Z</time>
      </trkpt>
      <trkpt lat="45.825173137709498" lon="7.187476269900799">
        <ele>1529.1099999999999</ele>
        <time>2016-07-03T08:48:04Z</time>
      </trkpt>
      <trkpt lat="45.825221836566925" lon="7.187491692602634">
        <ele>1528.6300000000001</ele>
        <time>2016-07-03T08:48:09Z</time>
      </trkpt>
      <trkpt lat="45.825256705284119" lon="7.187496051192284">
        <ele>1529.5899999999999</ele>
        <time>2016-07-03T08:48:12Z</time>
      </trkpt>
      <trkpt lat="45.82529928535223" lon="7.187514156103134">
        <ele>1529.5899999999999</ele>
        <time>2016-07-03T08:48:16Z</time>
      </trkpt>
      <trkpt lat="45.825398610904813" lon="7.187555143609643">
        <ele>1530.5599999999999</ele>
        <time>2016-07-03T08:48:26Z</time>
      </trkpt>
      <trkpt lat="45.825535487383604" lon="7.187582133337855">
        <ele>1531.04</ele>
        <time>2016-07-03T08:48:40Z</time>
      </trkpt>
      <trkpt lat="45.825655264779925" lon="7.187556400895119">
        <ele>1532</ele>
        <time>2016-07-03T08:48:52Z</time>
      </trkpt>
      <trkpt lat="45.825762720778584" lon="7.187539972364903">
        <ele>1532.96</ele>
        <time>2016-07-03T08:49:02Z</time>
      </trkpt>
      <trkpt lat="45.825884006917477" lon="7.187507534399629">
        <ele>1533.4400000000001</ele>
        <time>2016-07-03T08:49:14Z</time>
      </trkpt>
      <trkpt lat="45.825928598642349" lon="7.187494290992618">
        <ele>1534.4000000000001</ele>
        <time>2016-07-03T08:49:19Z</time>
      </trkpt>
      <trkpt lat="45.826054830104113" lon="7.18748121522367">
        <ele>1534.8800000000001</ele>
        <time>2016-07-03T08:49:30Z</time>
      </trkpt>
      <trkpt lat="45.826177457347512" lon="7.187455734238029">
        <ele>1535.8399999999999</ele>
        <time>2016-07-03T08:49:41Z</time>
      </trkpt>
      <trkpt lat="45.826231688261032" lon="7.187462691217661">
        <ele>1536.3199999999999</ele>
        <time>2016-07-03T08:49:49Z</time>
      </trkpt>
      <trkpt lat="45.826255576685071" lon="7.187457410618663">
        <ele>1536.3199999999999</ele>
        <time>2016-07-03T08:49:52Z</time>
      </trkpt>
      <trkpt lat="45.826372588053346" lon="7.187442490831018">
        <ele>1537.29</ele>
        <time>2016-07-03T08:50:03Z</time>
      </trkpt>
      <trkpt lat="45.826402092352509" lon="7.18744114972651">
        <ele>1537.29</ele>
        <time>2016-07-03T08:50:06Z</time>
      </trkpt>
      <trkpt lat="45.826542992144823" lon="7.187431929633021">
        <ele>1537.77</ele>
        <time>2016-07-03T08:50:19Z</time>
      </trkpt>
      <trkpt lat="45.826618177816272" lon="7.187437964603305">
        <ele>1538.25</ele>
        <time>2016-07-03T08:50:26Z</time>
      </trkpt>
      <trkpt lat="45.826731752604246" lon="7.187425727024674">
        <ele>1538.73</ele>
        <time>2016-07-03T08:50:36Z</time>
      </trkpt>
      <trkpt lat="45.826856810599566" lon="7.187447687610984">
        <ele>1539.21</ele>
        <time>2016-07-03T08:50:48Z</time>
      </trkpt>
      <trkpt lat="45.826864941045642" lon="7.18745187856257">
        <ele>1539.21</ele>
        <time>2016-07-03T08:50:49Z</time>
      </trkpt>
      <trkpt lat="45.826885811984539" lon="7.187445089221001">
        <ele>1539.6900000000001</ele>
        <time>2016-07-03T08:50:51Z</time>
      </trkpt>
      <trkpt lat="45.826914813369513" lon="7.187439305707812">
        <ele>1540.1700000000001</ele>
        <time>2016-07-03T08:50:54Z</time>
      </trkpt>
      <trkpt lat="45.827099634334445" lon="7.187512228265405">
        <ele>1540.6500000000001</ele>
        <time>2016-07-03T08:51:10Z</time>
      </trkpt>
      <trkpt lat="45.827119080349803" lon="7.187612140551209">
        <ele>1540.6500000000001</ele>
        <time>2016-07-03T08:51:16Z</time>
      </trkpt>
      <trkpt lat="45.827109441161156" lon="7.187664695084095">
        <ele>1541.1300000000001</ele>
        <time>2016-07-03T08:51:19Z</time>
      </trkpt>
      <trkpt lat="45.826945072039962" lon="7.187784472480416">
        <ele>1540.6500000000001</ele>
        <time>2016-07-03T08:51:33Z</time>
      </trkpt>
      <trkpt lat="45.826784390956163" lon="7.187726218253374">
        <ele>1541.1300000000001</ele>
        <time>2016-07-03T08:51:48Z</time>
      </trkpt>
      <trkpt lat="45.826660254970193" lon="7.187699479982257">
        <ele>1540.6500000000001</ele>
        <time>2016-07-03T08:51:59Z</time>
      </trkpt>
      <trkpt lat="45.826504351571202" lon="7.187688667327166">
        <ele>1541.1300000000001</ele>
        <time>2016-07-03T08:52:12Z</time>
      </trkpt>
      <trkpt lat="45.826322212815285" lon="7.18773577362299">
        <ele>1541.6099999999999</ele>
        <time>2016-07-03T08:52:26Z</time>
      </trkpt>
      <trkpt lat="45.826219199225307" lon="7.187755471095443">
        <ele>1542.0899999999999</ele>
        <time>2016-07-03T08:52:38Z</time>
      </trkpt>
      <trkpt lat="45.826066983863711" lon="7.187826130539179">
        <ele>1542.5699999999999</ele>
        <time>2016-07-03T08:52:52Z</time>
      </trkpt>
      <trkpt lat="45.825939243659377" lon="7.187894694507122">
        <ele>1543.05</ele>
        <time>2016-07-03T08:53:05Z</time>
      </trkpt>
      <trkpt lat="45.825791638344526" lon="7.187983877956867">
        <ele>1544.01</ele>
        <time>2016-07-03T08:53:19Z</time>
      </trkpt>
      <trkpt lat="45.825680494308472" lon="7.188064092770219">
        <ele>1544.98</ele>
        <time>2016-07-03T08:53:31Z</time>
      </trkpt>
      <trkpt lat="45.825563315302134" lon="7.188107846304774">
        <ele>1544.98</ele>
        <time>2016-07-03T08:53:43Z</time>
      </trkpt>
      <trkpt lat="45.825518304482102" lon="7.188114048913121">
        <ele>1545.46</ele>
        <time>2016-07-03T08:53:47Z</time>
      </trkpt>
      <trkpt lat="45.825364915654063" lon="7.188114551827312">
        <ele>1545.9400000000001</ele>
        <time>2016-07-03T08:53:58Z</time>
      </trkpt>
      <trkpt lat="45.825193002820015" lon="7.188100386410952">
        <ele>1546.4200000000001</ele>
        <time>2016-07-03T08:54:12Z</time>
      </trkpt>
      <trkpt lat="45.825021173804998" lon="7.188114551827312">
        <ele>1547.3800000000001</ele>
        <time>2016-07-03T08:54:27Z</time>
      </trkpt>
      <trkpt lat="45.824868539348245" lon="7.188190156593919">
        <ele>1547.8599999999999</ele>
        <time>2016-07-03T08:54:41Z</time>
      </trkpt>
      <trkpt lat="45.824719592928886" lon="7.188249249011278">
        <ele>1547.8599999999999</ele>
        <time>2016-07-03T08:54:54Z</time>
      </trkpt>
      <trkpt lat="45.824642898514867" lon="7.188358716666699">
        <ele>1548.3399999999999</ele>
        <time>2016-07-03T08:55:05Z</time>
      </trkpt>
      <trkpt lat="45.824647173285484" lon="7.188359303399921">
        <ele>1548.8199999999999</ele>
        <time>2016-07-03T08:55:07Z</time>
      </trkpt>
      <trkpt lat="45.824758652597666" lon="7.188195185735822">
        <ele>1549.78</ele>
        <time>2016-07-03T08:55:22Z</time>
      </trkpt>
      <trkpt lat="45.82476669922471" lon="7.188179846853018">
        <ele>1549.78</ele>
        <time>2016-07-03T08:55:30Z</time>
      </trkpt>
      <trkpt lat="45.82481162622571" lon="7.188128884881735">
        <ele>1550.26</ele>
        <time>2016-07-03T08:55:35Z</time>
      </trkpt>
      <trkpt lat="45.824989909306169" lon="7.188045820221305">
        <ele>1550.74</ele>
        <time>2016-07-03T08:55:50Z</time>
      </trkpt>
      <trkpt lat="45.825132736936212" lon="7.188066858798266">
        <ele>1551.71</ele>
        <time>2016-07-03T08:56:02Z</time>
      </trkpt>
      <trkpt lat="45.825257292017341" lon="7.188117653131485">
        <ele>1552.1900000000001</ele>
        <time>2016-07-03T08:56:13Z</time>
      </trkpt>
      <trkpt lat="45.825413279235363" lon="7.188155287876725">
        <ele>1553.6300000000001</ele>
        <time>2016-07-03T08:56:27Z</time>
      </trkpt>
      <trkpt lat="45.825553759932518" lon="7.18815553933382">
        <ele>1554.5899999999999</ele>
        <time>2016-07-03T08:56:40Z</time>
      </trkpt>
      <trkpt lat="45.825682086870074" lon="7.188133494928479">
        <ele>1556.03</ele>
        <time>2016-07-03T08:56:53Z</time>
      </trkpt>
      <trkpt lat="45.825793566182256" lon="7.188122263178229">
        <ele>1556.51</ele>
        <time>2016-07-03T08:57:03Z</time>
      </trkpt>
      <trkpt lat="45.82592474296689" lon="7.188117066398263">
        <ele>1556.99</ele>
        <time>2016-07-03T08:57:15Z</time>
      </trkpt>
      <trkpt lat="45.826084334403276" lon="7.188124442473054">
        <ele>1557.95</ele>
        <time>2016-07-03T08:57:29Z</time>
      </trkpt>
      <trkpt lat="45.826251469552517" lon="7.188135925680399">
        <ele>1559.4000000000001</ele>
        <time>2016-07-03T08:57:44Z</time>
      </trkpt>
      <trkpt lat="45.826381975784898" lon="7.188132992014289">
        <ele>1560.8399999999999</ele>
        <time>2016-07-03T08:57:56Z</time>
      </trkpt>
      <trkpt lat="45.826402176171541" lon="7.188132237643004">
        <ele>1560.8399999999999</ele>
        <time>2016-07-03T08:57:58Z</time>
      </trkpt>
      <trkpt lat="45.826481049880385" lon="7.188143469393253">
        <ele>1561.3199999999999</ele>
        <time>2016-07-03T08:58:05Z</time>
      </trkpt>
      <trkpt lat="45.826510386541486" lon="7.188138021156192">
        <ele>1561.8</ele>
        <time>2016-07-03T08:58:08Z</time>
      </trkpt>
      <trkpt lat="45.826647095382214" lon="7.188141876831651">
        <ele>1562.28</ele>
        <time>2016-07-03T08:58:20Z</time>
      </trkpt>
      <trkpt lat="45.826760921627283" lon="7.188153779134154">
        <ele>1563.24</ele>
        <time>2016-07-03T08:58:30Z</time>
      </trkpt>
      <trkpt lat="45.826903749257326" lon="7.188147660344839">
        <ele>1563.72</ele>
        <time>2016-07-03T08:58:42Z</time>
      </trkpt>
      <trkpt lat="45.827058479189873" lon="7.188163921236992">
        <ele>1565.6400000000001</ele>
        <time>2016-07-03T08:58:54Z</time>
      </trkpt>
      <trkpt lat="45.827201139181852" lon="7.188159814104438">
        <ele>1566.6099999999999</ele>
        <time>2016-07-03T08:59:06Z</time>
      </trkpt>
      <trkpt lat="45.827338434755802" lon="7.188165178522468">
        <ele>1568.05</ele>
        <time>2016-07-03T08:59:18Z</time>
      </trkpt>
      <trkpt lat="45.827471036463976" lon="7.188168866559863">
        <ele>1568.05</ele>
        <time>2016-07-03T08:59:30Z</time>
      </trkpt>
      <trkpt lat="45.827611936256289" lon="7.18819267116487">
        <ele>1570.45</ele>
        <time>2016-07-03T08:59:43Z</time>
      </trkpt>
      <trkpt lat="45.827680667862296" lon="7.188199628144503">
        <ele>1569.49</ele>
        <time>2016-07-03T08:59:49Z</time>
      </trkpt>
      <trkpt lat="45.827803043648601" lon="7.188219660893083">
        <ele>1570.9300000000001</ele>
        <time>2016-07-03T09:00:01Z</time>
      </trkpt>
      <trkpt lat="45.827912259846926" lon="7.18821999616921">
        <ele>1571.8900000000001</ele>
        <time>2016-07-03T09:00:11Z</time>
      </trkpt>
      <trkpt lat="45.828023655340075" lon="7.188179092481732">
        <ele>1572.8499999999999</ele>
        <time>2016-07-03T09:00:22Z</time>
      </trkpt>
      <trkpt lat="45.828045699745417" lon="7.18817263841629">
        <ele>1572.8499999999999</ele>
        <time>2016-07-03T09:00:24Z</time>
      </trkpt>
      <trkpt lat="45.828173439949751" lon="7.188142798841">
        <ele>1573.3299999999999</ele>
        <time>2016-07-03T09:00:36Z</time>
      </trkpt>
      <trkpt lat="45.828319955617189" lon="7.188132237643004">
        <ele>1574.3</ele>
        <time>2016-07-03T09:00:49Z</time>
      </trkpt>
      <trkpt lat="45.828447612002492" lon="7.18811254017055">
        <ele>1575.74</ele>
        <time>2016-07-03T09:01:00Z</time>
      </trkpt>
      <trkpt lat="45.828587505966425" lon="7.188087813556194">
        <ele>1576.22</ele>
        <time>2016-07-03T09:01:13Z</time>
      </trkpt>
      <trkpt lat="45.828717509284616" lon="7.188039533793926">
        <ele>1577.1800000000001</ele>
        <time>2016-07-03T09:01:24Z</time>
      </trkpt>
      <trkpt lat="45.828856062144041" lon="7.188011622056365">
        <ele>1578.6199999999999</ele>
        <time>2016-07-03T09:01:36Z</time>
      </trkpt>
      <trkpt lat="45.828913897275925" lon="7.188009191304445">
        <ele>1579.0999999999999</ele>
        <time>2016-07-03T09:01:41Z</time>
      </trkpt>
      <trkpt lat="45.829054461792111" lon="7.187977004796267">
        <ele>1579.5799999999999</ele>
        <time>2016-07-03T09:01:53Z</time>
      </trkpt>
      <trkpt lat="45.829193349927664" lon="7.187944734469056">
        <ele>1581.03</ele>
        <time>2016-07-03T09:02:05Z</time>
      </trkpt>
      <trkpt lat="45.829293178394437" lon="7.187928222119808">
        <ele>1581.51</ele>
        <time>2016-07-03T09:02:13Z</time>
      </trkpt>
      <trkpt lat="45.82943064160645" lon="7.18790584243834">
        <ele>1581.99</ele>
        <time>2016-07-03T09:02:25Z</time>
      </trkpt>
      <trkpt lat="45.829448495060205" lon="7.187902824953198">
        <ele>1581.99</ele>
        <time>2016-07-03T09:02:27Z</time>
      </trkpt>
      <trkpt lat="45.829589813947678" lon="7.187872733920813">
        <ele>1583.4300000000001</ele>
        <time>2016-07-03T09:02:39Z</time>
      </trkpt>
      <trkpt lat="45.829724092036486" lon="7.187843145802617">
        <ele>1583.9100000000001</ele>
        <time>2016-07-03T09:02:50Z</time>
      </trkpt>
      <trkpt lat="45.829863650724292" lon="7.187826633453369">
        <ele>1584.8699999999999</ele>
        <time>2016-07-03T09:03:02Z</time>
      </trkpt>
      <trkpt lat="45.829983511939645" lon="7.187805343419313">
        <ele>1585.8299999999999</ele>
        <time>2016-07-03T09:03:12Z</time>
      </trkpt>
      <trkpt lat="45.830103792250156" lon="7.18782520852983">
        <ele>1585.8299999999999</ele>
        <time>2016-07-03T09:03:23Z</time>
      </trkpt>
      <trkpt lat="45.830247960984707" lon="7.187846582382917">
        <ele>1586.79</ele>
        <time>2016-07-03T09:03:37Z</time>
      </trkpt>
      <trkpt lat="45.830394728109241" lon="7.187843816354871">
        <ele>1587.27</ele>
        <time>2016-07-03T09:03:49Z</time>
      </trkpt>
      <trkpt lat="45.830546943470836" lon="7.187830321490765">
        <ele>1588.24</ele>
        <time>2016-07-03T09:04:02Z</time>
      </trkpt>
      <trkpt lat="45.8306541480124" lon="7.187823699787259">
        <ele>1589.2</ele>
        <time>2016-07-03T09:04:12Z</time>
      </trkpt>
      <trkpt lat="45.830769399181008" lon="7.187827806919813">
        <ele>1589.6800000000001</ele>
        <time>2016-07-03T09:04:22Z</time>
      </trkpt>
      <trkpt lat="45.830794041976333" lon="7.187817078083754">
        <ele>1590.1600000000001</ele>
        <time>2016-07-03T09:04:25Z</time>
      </trkpt>
      <trkpt lat="45.830926727503538" lon="7.187827890738845">
        <ele>1590.6400000000001</ele>
        <time>2016-07-03T09:04:37Z</time>
      </trkpt>
      <trkpt lat="45.831065280362964" lon="7.187825627624989">
        <ele>1592.0799999999999</ele>
        <time>2016-07-03T09:04:50Z</time>
      </trkpt>
      <trkpt lat="45.83114423789084" lon="7.187826968729496">
        <ele>1592.5599999999999</ele>
        <time>2016-07-03T09:04:56Z</time>
      </trkpt>
      <trkpt lat="45.831274576485157" lon="7.187818083912134">
        <ele>1593.52</ele>
        <time>2016-07-03T09:05:08Z</time>
      </trkpt>
      <trkpt lat="45.831378176808357" lon="7.187799392268062">
        <ele>1594</ele>
        <time>2016-07-03T09:05:18Z</time>
      </trkpt>
      <trkpt lat="45.831511281430721" lon="7.18778564594686">
        <ele>1594.96</ele>
        <time>2016-07-03T09:05:30Z</time>
      </trkpt>
      <trkpt lat="45.831650588661432" lon="7.187763936817646">
        <ele>1595.9300000000001</ele>
        <time>2016-07-03T09:05:42Z</time>
      </trkpt>
      <trkpt lat="45.831790566444397" lon="7.187750274315476">
        <ele>1596.8900000000001</ele>
        <time>2016-07-03T09:05:55Z</time>
      </trkpt>
      <trkpt lat="45.831922497600317" lon="7.187729235738516">
        <ele>1597.8499999999999</ele>
        <time>2016-07-03T09:06:07Z</time>
      </trkpt>
      <trkpt lat="45.83204722031951" lon="7.187644159421325">
        <ele>1598.8099999999999</ele>
        <time>2016-07-03T09:06:19Z</time>
      </trkpt>
      <trkpt lat="45.832160040736198" lon="7.187513317912817">
        <ele>1600.25</ele>
        <time>2016-07-03T09:06:33Z</time>
      </trkpt>
      <trkpt lat="45.832253163680434" lon="7.187327574938536">
        <ele>1601.21</ele>
        <time>2016-07-03T09:06:47Z</time>
      </trkpt>
      <trkpt lat="45.832319799810648" lon="7.187182987108827">
        <ele>1602.6600000000001</ele>
        <time>2016-07-03T09:06:57Z</time>
      </trkpt>
      <trkpt lat="45.832441169768572" lon="7.187032280489802">
        <ele>1603.1400000000001</ele>
        <time>2016-07-03T09:07:10Z</time>
      </trkpt>
      <trkpt lat="45.832551894709468" lon="7.186934128403664">
        <ele>1604.0999999999999</ele>
        <time>2016-07-03T09:07:21Z</time>
      </trkpt>
      <trkpt lat="45.832654405385256" lon="7.18682985752821">
        <ele>1605.0599999999999</ele>
        <time>2016-07-03T09:07:32Z</time>
      </trkpt>
      <trkpt lat="45.832811649888754" lon="7.186681078746915">
        <ele>1606.02</ele>
        <time>2016-07-03T09:07:48Z</time>
      </trkpt>
      <trkpt lat="45.832943078130484" lon="7.186543615534902">
        <ele>1607.46</ele>
        <time>2016-07-03T09:08:02Z</time>
      </trkpt>
      <trkpt lat="45.83305237814784" lon="7.186372959986329">
        <ele>1608.4200000000001</ele>
        <time>2016-07-03T09:08:16Z</time>
      </trkpt>
      <trkpt lat="45.833151200786233" lon="7.186174811795354">
        <ele>1609.3800000000001</ele>
        <time>2016-07-03T09:08:30Z</time>
      </trkpt>
      <trkpt lat="45.833224458619952" lon="7.186035923659802">
        <ele>1610.3499999999999</ele>
        <time>2016-07-03T09:08:40Z</time>
      </trkpt>
      <trkpt lat="45.833302075043321" lon="7.185906674712896">
        <ele>1610.3499999999999</ele>
        <time>2016-07-03T09:08:50Z</time>
      </trkpt>
      <trkpt lat="45.833421349525452" lon="7.185729313641787">
        <ele>1612.27</ele>
        <time>2016-07-03T09:09:04Z</time>
      </trkpt>
      <trkpt lat="45.833505000919104" lon="7.18564105220139">
        <ele>1612.27</ele>
        <time>2016-07-03T09:09:14Z</time>
      </trkpt>
      <trkpt lat="45.833550682291389" lon="7.185579780489206">
        <ele>1612.27</ele>
        <time>2016-07-03T09:09:19Z</time>
      </trkpt>
      <trkpt lat="45.833586221560836" lon="7.185537787154317">
        <ele>1612.75</ele>
        <time>2016-07-03T09:09:24Z</time>
      </trkpt>
      <trkpt lat="45.83370172418654" lon="7.185436114668846">
        <ele>1614.6700000000001</ele>
        <time>2016-07-03T09:09:36Z</time>
      </trkpt>
      <trkpt lat="45.833733575418591" lon="7.18540795147419">
        <ele>1615.1500000000001</ele>
        <time>2016-07-03T09:09:39Z</time>
      </trkpt>
      <trkpt lat="45.833840779960155" lon="7.185302674770355">
        <ele>1614.6700000000001</ele>
        <time>2016-07-03T09:09:50Z</time>
      </trkpt>
      <trkpt lat="45.833974722772837" lon="7.18518415465951">
        <ele>1616.1099999999999</ele>
        <time>2016-07-03T09:10:03Z</time>
      </trkpt>
      <trkpt lat="45.834106234833598" lon="7.185058845207095">
        <ele>1616.5899999999999</ele>
        <time>2016-07-03T09:10:16Z</time>
      </trkpt>
      <trkpt lat="45.834221905097365" lon="7.184963878244162">
        <ele>1617.0699999999999</ele>
        <time>2016-07-03T09:10:27Z</time>
      </trkpt>
      <trkpt lat="45.834340928122401" lon="7.184868827462196">
        <ele>1618.04</ele>
        <time>2016-07-03T09:10:38Z</time>
      </trkpt>
      <trkpt lat="45.834397925063968" lon="7.184821302071214">
        <ele>1618.52</ele>
        <time>2016-07-03T09:10:45Z</time>
      </trkpt>
      <trkpt lat="45.834415694698691" lon="7.184838820248842">
        <ele>1619</ele>
        <time>2016-07-03T09:10:48Z</time>
      </trkpt>
      <trkpt lat="45.834460621699691" lon="7.184786600992084">
        <ele>1619</ele>
        <time>2016-07-03T09:10:53Z</time>
      </trkpt>
      <trkpt lat="45.834590289741755" lon="7.184773357585073">
        <ele>1619.48</ele>
        <time>2016-07-03T09:11:05Z</time>
      </trkpt>
      <trkpt lat="45.834608897566795" lon="7.184781990945339">
        <ele>1619.48</ele>
        <time>2016-07-03T09:11:07Z</time>
      </trkpt>
      <trkpt lat="45.834636306390166" lon="7.184790372848511">
        <ele>1619.96</ele>
        <time>2016-07-03T09:11:18Z</time>
      </trkpt>
      <trkpt lat="45.834633121266961" lon="7.18476346693933">
        <ele>1619.96</ele>
        <time>2016-07-03T09:11:23Z</time>
      </trkpt>
      <trkpt lat="45.83464334718883" lon="7.18472633510828">
        <ele>1619.96</ele>
        <time>2016-07-03T09:11:34Z</time>
      </trkpt>
      <trkpt lat="45.834652232006192" lon="7.18465500511229">
        <ele>1619.96</ele>
        <time>2016-07-03T09:11:43Z</time>
      </trkpt>
      <trkpt lat="45.834682825952768" lon="7.184659112244844">
        <ele>1620.4400000000001</ele>
        <time>2016-07-03T09:11:53Z</time>
      </trkpt>
      <trkpt lat="45.834700930863619" lon="7.1846061386168">
        <ele>1620.4400000000001</ele>
        <time>2016-07-03T09:12:01Z</time>
      </trkpt>
      <trkpt lat="45.83473370410502" lon="7.184556601569057">
        <ele>1619.96</ele>
        <time>2016-07-03T09:12:11Z</time>
      </trkpt>
      <trkpt lat="45.83481534384191" lon="7.184607312083244">
        <ele>1620.4400000000001</ele>
        <time>2016-07-03T09:12:27Z</time>
      </trkpt>
      <trkpt lat="45.834853481501341" lon="7.184666991233826">
        <ele>1619.96</ele>
        <time>2016-07-03T09:12:40Z</time>
      </trkpt>
      <trkpt lat="45.834836298599839" lon="7.184637738391757">
        <ele>1620.4400000000001</ele>
        <time>2016-07-03T09:12:53Z</time>
      </trkpt>
      <trkpt lat="45.834835460409522" lon="7.184574874117971">
        <ele>1620.9200000000001</ele>
        <time>2016-07-03T09:13:04Z</time>
      </trkpt>
      <trkpt lat="45.834833364933729" lon="7.184549393132329">
        <ele>1620.4400000000001</ele>
        <time>2016-07-03T09:13:16Z</time>
      </trkpt>
      <trkpt lat="45.834814505651593" lon="7.184553081169725">
        <ele>1620.4400000000001</ele>
        <time>2016-07-03T09:13:34Z</time>
      </trkpt>
      <trkpt lat="45.834843590855598" lon="7.184477476403117">
        <ele>1620.4400000000001</ele>
        <time>2016-07-03T09:13:47Z</time>
      </trkpt>
      <trkpt lat="45.83486664108932" lon="7.184456186369062">
        <ele>1620.4400000000001</ele>
        <time>2016-07-03T09:13:58Z</time>
      </trkpt>
      <trkpt lat="45.834835628047585" lon="7.184453420341015">
        <ele>1620.4400000000001</ele>
        <time>2016-07-03T09:14:08Z</time>
      </trkpt>
      <trkpt lat="45.834861611947417" lon="7.184416791424155">
        <ele>1619.96</ele>
        <time>2016-07-03T09:14:20Z</time>
      </trkpt>
      <trkpt lat="45.834857169538736" lon="7.184409163892269">
        <ele>1619.96</ele>
        <time>2016-07-03T09:14:32Z</time>
      </trkpt>
      <trkpt lat="45.834864964708686" lon="7.184413271024823">
        <ele>1620.4400000000001</ele>
        <time>2016-07-03T09:14:43Z</time>
      </trkpt>
      <trkpt lat="45.834861779585481" lon="7.184418551623821">
        <ele>1620.9200000000001</ele>
        <time>2016-07-03T09:14:56Z</time>
      </trkpt>
      <trkpt lat="45.834876531735063" lon="7.184411091729999">
        <ele>1620.9200000000001</ele>
        <time>2016-07-03T09:15:08Z</time>
      </trkpt>
      <trkpt lat="45.834874771535397" lon="7.184416959062219">
        <ele>1620.9200000000001</ele>
        <time>2016-07-03T09:15:21Z</time>
      </trkpt>
      <trkpt lat="45.834872089326382" lon="7.184396842494607">
        <ele>1621.4000000000001</ele>
        <time>2016-07-03T09:15:22Z</time>
      </trkpt>
      <trkpt lat="45.834875190630555" lon="7.184369182214141">
        <ele>1621.4000000000001</ele>
        <time>2016-07-03T09:15:24Z</time>
      </trkpt>
      <trkpt lat="45.83487493917346" lon="7.184328781440854">
        <ele>1621.4000000000001</ele>
        <time>2016-07-03T09:15:35Z</time>
      </trkpt>
      <trkpt lat="45.834880052134395" lon="7.184314951300621">
        <ele>1621.8800000000001</ele>
        <time>2016-07-03T09:15:46Z</time>
      </trkpt>
      <trkpt lat="45.834905281662941" lon="7.184310173615813">
        <ele>1621.4000000000001</ele>
        <time>2016-07-03T09:16:02Z</time>
      </trkpt>
      <trkpt lat="45.834921961650252" lon="7.18431587330997">
        <ele>1621.8800000000001</ele>
        <time>2016-07-03T09:16:17Z</time>
      </trkpt>
      <trkpt lat="45.834965044632554" lon="7.184280082583427">
        <ele>1622.3599999999999</ele>
        <time>2016-07-03T09:16:28Z</time>
      </trkpt>
      <trkpt lat="45.835038889199495" lon="7.184179248288274">
        <ele>1623.3199999999999</ele>
        <time>2016-07-03T09:16:41Z</time>
      </trkpt>
      <trkpt lat="45.835066800937057" lon="7.184141697362065">
        <ele>1624.28</ele>
        <time>2016-07-03T09:16:54Z</time>
      </trkpt>
      <trkpt lat="45.835137711837888" lon="7.184052430093288">
        <ele>1626.21</ele>
        <time>2016-07-03T09:17:07Z</time>
      </trkpt>
      <trkpt lat="45.835200827568769" lon="7.184017980471253">
        <ele>1627.1700000000001</ele>
        <time>2016-07-03T09:17:22Z</time>
      </trkpt>
      <trkpt lat="45.835280623286963" lon="7.183936256915331">
        <ele>1628.1300000000001</ele>
        <time>2016-07-03T09:17:37Z</time>
      </trkpt>
      <trkpt lat="45.835275258868933" lon="7.183947740122676">
        <ele>1628.6099999999999</ele>
        <time>2016-07-03T09:17:49Z</time>
      </trkpt>
      <trkpt lat="45.835271151736379" lon="7.18393717892468">
        <ele>1628.6099999999999</ele>
        <time>2016-07-03T09:17:50Z</time>
      </trkpt>
      <trkpt lat="45.835226895287633" lon="7.183859394863248">
        <ele>1628.1300000000001</ele>
        <time>2016-07-03T09:18:02Z</time>
      </trkpt>
      <trkpt lat="45.83522823639214" lon="7.183942710980773">
        <ele>1628.1300000000001</ele>
        <time>2016-07-03T09:18:15Z</time>
      </trkpt>
      <trkpt lat="45.835324376821518" lon="7.184010269120336">
        <ele>1629.5699999999999</ele>
        <time>2016-07-03T09:18:26Z</time>
      </trkpt>
      <trkpt lat="45.835366202518344" lon="7.18396844342351">
        <ele>1629.5699999999999</ele>
        <time>2016-07-03T09:18:31Z</time>
      </trkpt>
      <trkpt lat="45.835460750386119" lon="7.183961234986782">
        <ele>1631.01</ele>
        <time>2016-07-03T09:18:41Z</time>
      </trkpt>
      <trkpt lat="45.835603242740035" lon="7.183947656303644">
        <ele>1631.98</ele>
        <time>2016-07-03T09:18:54Z</time>
      </trkpt>
      <trkpt lat="45.835775658488274" lon="7.18388588167727">
        <ele>1631.98</ele>
        <time>2016-07-03T09:19:06Z</time>
      </trkpt>
      <trkpt lat="45.835843551903963" lon="7.183861909434199">
        <ele>1635.8199999999999</ele>
        <time>2016-07-03T09:19:19Z</time>
      </trkpt>
      <trkpt lat="45.835957964882255" lon="7.183792926371098">
        <ele>1636.78</ele>
        <time>2016-07-03T09:19:30Z</time>
      </trkpt>
      <trkpt lat="45.835982272401452" lon="7.18379208818078">
        <ele>1637.26</ele>
        <time>2016-07-03T09:19:33Z</time>
      </trkpt>
      <trkpt lat="45.836018146947026" lon="7.183794435113668">
        <ele>1638.22</ele>
        <time>2016-07-03T09:19:41Z</time>
      </trkpt>
      <trkpt lat="45.836087465286255" lon="7.183778928592801">
        <ele>1639.1900000000001</ele>
        <time>2016-07-03T09:19:52Z</time>
      </trkpt>
      <trkpt lat="45.836174301803112" lon="7.183764008805156">
        <ele>1640.1500000000001</ele>
        <time>2016-07-03T09:20:01Z</time>
      </trkpt>
      <trkpt lat="45.836183857172728" lon="7.183766271919012">
        <ele>1640.1500000000001</ele>
        <time>2016-07-03T09:20:02Z</time>
      </trkpt>
      <trkpt lat="45.836288714781404" lon="7.183757806196809">
        <ele>1641.5899999999999</ele>
        <time>2016-07-03T09:20:14Z</time>
      </trkpt>
      <trkpt lat="45.836363900452852" lon="7.183731906116009">
        <ele>1642.55</ele>
        <time>2016-07-03T09:20:24Z</time>
      </trkpt>
      <trkpt lat="45.836432045325637" lon="7.183729223906994">
        <ele>1643.51</ele>
        <time>2016-07-03T09:20:36Z</time>
      </trkpt>
      <trkpt lat="45.836461633443832" lon="7.183744143694639">
        <ele>1643.99</ele>
        <time>2016-07-03T09:20:45Z</time>
      </trkpt>
      <trkpt lat="45.836500944569707" lon="7.183715226128697">
        <ele>1644.95</ele>
        <time>2016-07-03T09:20:53Z</time>
      </trkpt>
      <trkpt lat="45.836486108601093" lon="7.183689828962088">
        <ele>1645.9100000000001</ele>
        <time>2016-07-03T09:21:03Z</time>
      </trkpt>
      <trkpt lat="45.836474457755685" lon="7.183705754578114">
        <ele>1645.9100000000001</ele>
        <time>2016-07-03T09:21:19Z</time>
      </trkpt>
      <trkpt lat="45.836496921256185" lon="7.183726290240884">
        <ele>1645.9100000000001</ele>
        <time>2016-07-03T09:21:38Z</time>
      </trkpt>
      <trkpt lat="45.836410922929645" lon="7.183751603588462">
        <ele>1644.47</ele>
        <time>2016-07-03T09:21:50Z</time>
      </trkpt>
      <trkpt lat="45.836404217407107" lon="7.183738611638546">
        <ele>1643.51</ele>
        <time>2016-07-03T09:22:00Z</time>
      </trkpt>
      <trkpt lat="45.836388627067208" lon="7.183740623295307">
        <ele>1643.51</ele>
        <time>2016-07-03T09:22:03Z</time>
      </trkpt>
      <trkpt lat="45.83638234063983" lon="7.183798039332032">
        <ele>1643.51</ele>
        <time>2016-07-03T09:22:15Z</time>
      </trkpt>
      <trkpt lat="45.83639164455235" lon="7.183765433728695">
        <ele>1643.51</ele>
        <time>2016-07-03T09:22:31Z</time>
      </trkpt>
      <trkpt lat="45.836384771391749" lon="7.183772474527359">
        <ele>1643.51</ele>
        <time>2016-07-03T09:22:45Z</time>
      </trkpt>
      <trkpt lat="45.836347723379731" lon="7.183772223070264">
        <ele>1643.03</ele>
        <time>2016-07-03T09:22:59Z</time>
      </trkpt>
      <trkpt lat="45.836322410032153" lon="7.183798290789127">
        <ele>1643.51</ele>
        <time>2016-07-03T09:23:11Z</time>
      </trkpt>
      <trkpt lat="45.836343867704272" lon="7.183771971613169">
        <ele>1643.03</ele>
        <time>2016-07-03T09:23:29Z</time>
      </trkpt>
      <trkpt lat="45.836330205202103" lon="7.183749759569764">
        <ele>1643.51</ele>
        <time>2016-07-03T09:23:50Z</time>
      </trkpt>
      <trkpt lat="45.836317632347345" lon="7.183775994926691">
        <ele>1643.51</ele>
        <time>2016-07-03T09:24:08Z</time>
      </trkpt>
      <trkpt lat="45.836324254050851" lon="7.18376811593771">
        <ele>1643.99</ele>
        <time>2016-07-03T09:24:30Z</time>
      </trkpt>
      <trkpt lat="45.836365493014455" lon="7.183732241392136">
        <ele>1643.51</ele>
        <time>2016-07-03T09:24:48Z</time>
      </trkpt>
      <trkpt lat="45.836372198536992" lon="7.183732073754072">
        <ele>1644.47</ele>
        <time>2016-07-03T09:25:02Z</time>
      </trkpt>
      <trkpt lat="45.836369935423136" lon="7.183747412636876">
        <ele>1643.99</ele>
        <time>2016-07-03T09:25:19Z</time>
      </trkpt>
      <trkpt lat="45.836410922929645" lon="7.183722769841552">
        <ele>1643.99</ele>
        <time>2016-07-03T09:25:30Z</time>
      </trkpt>
      <trkpt lat="45.836399355903268" lon="7.183709861710668">
        <ele>1644.95</ele>
        <time>2016-07-03T09:25:36Z</time>
      </trkpt>
      <trkpt lat="45.83648837171495" lon="7.183705670759082">
        <ele>1646.4000000000001</ele>
        <time>2016-07-03T09:25:47Z</time>
      </trkpt>
      <trkpt lat="45.836542518809438" lon="7.183670047670603">
        <ele>1647.3599999999999</ele>
        <time>2016-07-03T09:25:55Z</time>
      </trkpt>
      <trkpt lat="45.836555594578385" lon="7.183656636625528">
        <ele>1646.8800000000001</ele>
        <time>2016-07-03T09:25:57Z</time>
      </trkpt>
      <trkpt lat="45.836646538227797" lon="7.183592934161425">
        <ele>1648.8</ele>
        <time>2016-07-03T09:26:08Z</time>
      </trkpt>
      <trkpt lat="45.836727758869529" lon="7.183527052402496">
        <ele>1649.76</ele>
        <time>2016-07-03T09:26:19Z</time>
      </trkpt>
      <trkpt lat="45.836800262331963" lon="7.18349939212203">
        <ele>1651.2</ele>
        <time>2016-07-03T09:26:29Z</time>
      </trkpt>
      <trkpt lat="45.83687100559473" lon="7.183461003005505">
        <ele>1652.6400000000001</ele>
        <time>2016-07-03T09:26:40Z</time>
      </trkpt>
      <trkpt lat="45.836938982829452" lon="7.183412974700332">
        <ele>1654.0899999999999</ele>
        <time>2016-07-03T09:26:50Z</time>
      </trkpt>
      <trkpt lat="45.837049037218094" lon="7.183377770707011">
        <ele>1654.5699999999999</ele>
        <time>2016-07-03T09:27:05Z</time>
      </trkpt>
      <trkpt lat="45.837117685005069" lon="7.183348266407847">
        <ele>1654.5699999999999</ele>
        <time>2016-07-03T09:27:16Z</time>
      </trkpt>
      <trkpt lat="45.83712263032794" lon="7.183344746008515">
        <ele>1657.9300000000001</ele>
        <time>2016-07-03T09:27:17Z</time>
      </trkpt>
      <trkpt lat="45.837125144898891" lon="7.183334771543741">
        <ele>1657.9300000000001</ele>
        <time>2016-07-03T09:27:18Z</time>
      </trkpt>
      <trkpt lat="45.83715146407485" lon="7.18330149538815">
        <ele>1657.45</ele>
        <time>2016-07-03T09:27:22Z</time>
      </trkpt>
      <trkpt lat="45.837185578420758" lon="7.18329512514174">
        <ele>1657.9300000000001</ele>
        <time>2016-07-03T09:27:27Z</time>
      </trkpt>
      <trkpt lat="45.837243078276515" lon="7.183241480961442">
        <ele>1658.8900000000001</ele>
        <time>2016-07-03T09:27:35Z</time>
      </trkpt>
      <trkpt lat="45.837342403829098" lon="7.183179873973131">
        <ele>1659.8499999999999</ele>
        <time>2016-07-03T09:27:47Z</time>
      </trkpt>
      <trkpt lat="45.837386157363653" lon="7.183157494291663">
        <ele>1659.8499999999999</ele>
        <time>2016-07-03T09:27:52Z</time>
      </trkpt>
      <trkpt lat="45.837464025244117" lon="7.183118518441916">
        <ele>1660.8099999999999</ele>
        <time>2016-07-03T09:28:02Z</time>
      </trkpt>
      <trkpt lat="45.837482968345284" lon="7.183096893131733">
        <ele>1660.8099999999999</ele>
        <time>2016-07-03T09:28:05Z</time>
      </trkpt>
      <trkpt lat="45.837571565061808" lon="7.183012319728732">
        <ele>1662.26</ele>
        <time>2016-07-03T09:28:18Z</time>
      </trkpt>
      <trkpt lat="45.837644571438432" lon="7.182943588122726">
        <ele>1663.22</ele>
        <time>2016-07-03T09:28:29Z</time>
      </trkpt>
      <trkpt lat="45.837746243923903" lon="7.182883322238922">
        <ele>1664.6600000000001</ele>
        <time>2016-07-03T09:28:42Z</time>
      </trkpt>
      <trkpt lat="45.837825788185" lon="7.182839903980494">
        <ele>1665.6199999999999</ele>
        <time>2016-07-03T09:28:52Z</time>
      </trkpt>
      <trkpt lat="45.837849508970976" lon="7.182826912030578">
        <ele>1667.0599999999999</ele>
        <time>2016-07-03T09:28:55Z</time>
      </trkpt>
      <trkpt lat="45.837948163971305" lon="7.182760862633586">
        <ele>1667.0599999999999</ele>
        <time>2016-07-03T09:29:07Z</time>
      </trkpt>
      <trkpt lat="45.83803785033524" lon="7.182698249816895">
        <ele>1668.02</ele>
        <time>2016-07-03T09:29:17Z</time>
      </trkpt>
      <trkpt lat="45.838118819519877" lon="7.182647958397865">
        <ele>1669.47</ele>
        <time>2016-07-03T09:29:27Z</time>
      </trkpt>
      <trkpt lat="45.838191993534565" lon="7.182585094124079">
        <ele>1670.4300000000001</ele>
        <time>2016-07-03T09:29:38Z</time>
      </trkpt>
      <trkpt lat="45.838265838101506" lon="7.182533545419574">
        <ele>1671.8699999999999</ele>
        <time>2016-07-03T09:29:48Z</time>
      </trkpt>
      <trkpt lat="45.83838377147913" lon="7.182464729994535">
        <ele>1673.3099999999999</ele>
        <time>2016-07-03T09:30:01Z</time>
      </trkpt>
      <trkpt lat="45.838465997949243" lon="7.182408655062318">
        <ele>1674.27</ele>
        <time>2016-07-03T09:30:12Z</time>
      </trkpt>
      <trkpt lat="45.838536154478788" lon="7.182352244853973">
        <ele>1675.23</ele>
        <time>2016-07-03T09:30:20Z</time>
      </trkpt>
      <trkpt lat="45.8385856077075" lon="7.182317292317748">
        <ele>1675.72</ele>
        <time>2016-07-03T09:30:25Z</time>
      </trkpt>
      <trkpt lat="45.838670181110501" lon="7.182262055575848">
        <ele>1676.2</ele>
        <time>2016-07-03T09:30:33Z</time>
      </trkpt>
      <trkpt lat="45.838781325146556" lon="7.182196592912078">
        <ele>1676.6800000000001</ele>
        <time>2016-07-03T09:30:45Z</time>
      </trkpt>
      <trkpt lat="45.838857432827353" lon="7.182124089449644">
        <ele>1676.6800000000001</ele>
        <time>2016-07-03T09:30:54Z</time>
      </trkpt>
      <trkpt lat="45.838875621557236" lon="7.182109337300062">
        <ele>1678.1199999999999</ele>
        <time>2016-07-03T09:30:56Z</time>
      </trkpt>
      <trkpt lat="45.83890613168478" lon="7.182083018124104">
        <ele>1677.6400000000001</ele>
        <time>2016-07-03T09:31:00Z</time>
      </trkpt>
      <trkpt lat="45.838933372870088" lon="7.182066421955824">
        <ele>1678.1199999999999</ele>
        <time>2016-07-03T09:31:03Z</time>
      </trkpt>
      <trkpt lat="45.839007049798965" lon="7.181958295404911">
        <ele>1679.0799999999999</ele>
        <time>2016-07-03T09:31:15Z</time>
      </trkpt>
      <trkpt lat="45.839055413380265" lon="7.181877410039306">
        <ele>1679.5599999999999</ele>
        <time>2016-07-03T09:31:23Z</time>
      </trkpt>
      <trkpt lat="45.839061280712485" lon="7.181867687031627">
        <ele>1680.04</ele>
        <time>2016-07-03T09:31:24Z</time>
      </trkpt>
      <trkpt lat="45.839119115844369" lon="7.181783448904753">
        <ele>1681</ele>
        <time>2016-07-03T09:31:34Z</time>
      </trkpt>
      <trkpt lat="45.839173765853047" lon="7.181716309860349">
        <ele>1681.96</ele>
        <time>2016-07-03T09:31:42Z</time>
      </trkpt>
      <trkpt lat="45.839258758351207" lon="7.181634251028299">
        <ele>1682.4400000000001</ele>
        <time>2016-07-03T09:31:53Z</time>
      </trkpt>
      <trkpt lat="45.839337632060051" lon="7.181555042043328">
        <ele>1683.8900000000001</ele>
        <time>2016-07-03T09:32:04Z</time>
      </trkpt>
      <trkpt lat="45.839414997026324" lon="7.181485388427973">
        <ele>1683.8900000000001</ele>
        <time>2016-07-03T09:32:13Z</time>
      </trkpt>
      <trkpt lat="45.839477358385921" lon="7.181439874693751">
        <ele>1684.3699999999999</ele>
        <time>2016-07-03T09:32:20Z</time>
      </trkpt>
      <trkpt lat="45.839578444138169" lon="7.181353289633989">
        <ele>1685.3299999999999</ele>
        <time>2016-07-03T09:32:32Z</time>
      </trkpt>
      <trkpt lat="45.839656395837665" lon="7.181266536936164">
        <ele>1686.29</ele>
        <time>2016-07-03T09:32:43Z</time>
      </trkpt>
      <trkpt lat="45.83974021486938" lon="7.181152794510126">
        <ele>1687.25</ele>
        <time>2016-07-03T09:32:56Z</time>
      </trkpt>
      <trkpt lat="45.839750608429313" lon="7.181135946884751">
        <ele>1688.6900000000001</ele>
        <time>2016-07-03T09:32:57Z</time>
      </trkpt>
      <trkpt lat="45.839825626462698" lon="7.181065622717142">
        <ele>1688.6900000000001</ele>
        <time>2016-07-03T09:33:09Z</time>
      </trkpt>
      <trkpt lat="45.839804168790579" lon="7.181149022653699">
        <ele>1690.6199999999999</ele>
        <time>2016-07-03T09:33:18Z</time>
      </trkpt>
      <trkpt lat="45.839813137426972" lon="7.18124533072114">
        <ele>1692.0599999999999</ele>
        <time>2016-07-03T09:33:29Z</time>
      </trkpt>
      <trkpt lat="45.839837696403265" lon="7.181223286315799">
        <ele>1692.54</ele>
        <time>2016-07-03T09:33:32Z</time>
      </trkpt>
      <trkpt lat="45.839928891509771" lon="7.181125385686755">
        <ele>1693.5</ele>
        <time>2016-07-03T09:33:45Z</time>
      </trkpt>
      <trkpt lat="45.840003071352839" lon="7.181044081225991">
        <ele>1694.9400000000001</ele>
        <time>2016-07-03T09:33:55Z</time>
      </trkpt>
      <trkpt lat="45.840123938396573" lon="7.180975181981921">
        <ele>1694.46</ele>
        <time>2016-07-03T09:34:10Z</time>
      </trkpt>
      <trkpt lat="45.84022737108171" lon="7.180904187262058">
        <ele>1695.4200000000001</ele>
        <time>2016-07-03T09:34:22Z</time>
      </trkpt>
      <trkpt lat="45.840254696086049" lon="7.18089647591114">
        <ele>1694.9400000000001</ele>
        <time>2016-07-03T09:34:25Z</time>
      </trkpt>
      <trkpt lat="45.840294174849987" lon="7.180877784267068">
        <ele>1694.9400000000001</ele>
        <time>2016-07-03T09:34:30Z</time>
      </trkpt>
      <trkpt lat="45.840403893962502" lon="7.180785164237022">
        <ele>1695.4200000000001</ele>
        <time>2016-07-03T09:34:42Z</time>
      </trkpt>
      <trkpt lat="45.84051713347435" lon="7.180664716288447">
        <ele>1697.3399999999999</ele>
        <time>2016-07-03T09:34:56Z</time>
      </trkpt>
      <trkpt lat="45.840566251426935" lon="7.180640827864409">
        <ele>1697.3399999999999</ele>
        <time>2016-07-03T09:35:03Z</time>
      </trkpt>
      <trkpt lat="45.840688375756145" lon="7.180631943047047">
        <ele>1698.3099999999999</ele>
        <time>2016-07-03T09:35:15Z</time>
      </trkpt>
      <trkpt lat="45.840748641639948" lon="7.180620962753892">
        <ele>1699.75</ele>
        <time>2016-07-03T09:35:25Z</time>
      </trkpt>
      <trkpt lat="45.840732296928763" lon="7.18070880509913">
        <ele>1700.71</ele>
        <time>2016-07-03T09:35:32Z</time>
      </trkpt>
      <trkpt lat="45.840666834264994" lon="7.180806873366237">
        <ele>1701.1900000000001</ele>
        <time>2016-07-03T09:35:43Z</time>
      </trkpt>
      <trkpt lat="45.840593911707401" lon="7.1809037681669">
        <ele>1702.1500000000001</ele>
        <time>2016-07-03T09:35:54Z</time>
      </trkpt>
      <trkpt lat="45.840519731864333" lon="7.180996974930167">
        <ele>1703.1099999999999</ele>
        <time>2016-07-03T09:36:05Z</time>
      </trkpt>
      <trkpt lat="45.840534567832947" lon="7.181069646030664">
        <ele>1704.55</ele>
        <time>2016-07-03T09:36:17Z</time>
      </trkpt>
      <trkpt lat="45.840611848980188" lon="7.181015834212303">
        <ele>1706.96</ele>
        <time>2016-07-03T09:36:31Z</time>
      </trkpt>
      <trkpt lat="45.840693404898047" lon="7.180988090112805">
        <ele>1708.8800000000001</ele>
        <time>2016-07-03T09:36:45Z</time>
      </trkpt>
      <trkpt lat="45.840811841189861" lon="7.181011978536844">
        <ele>1710.8</ele>
        <time>2016-07-03T09:37:00Z</time>
      </trkpt>
      <trkpt lat="45.84085039794445" lon="7.181017929688096">
        <ele>1712.25</ele>
        <time>2016-07-03T09:37:06Z</time>
      </trkpt>
      <trkpt lat="45.840958943590522" lon="7.181003261357546">
        <ele>1714.1700000000001</ele>
        <time>2016-07-03T09:37:22Z</time>
      </trkpt>
      <trkpt lat="45.841026669368148" lon="7.180994879454374">
        <ele>1716.0899999999999</ele>
        <time>2016-07-03T09:37:31Z</time>
      </trkpt>
      <trkpt lat="45.841045528650284" lon="7.180989598855376">
        <ele>1716.0899999999999</ele>
        <time>2016-07-03T09:37:34Z</time>
      </trkpt>
      <trkpt lat="45.841125994920731" lon="7.180963112041354">
        <ele>1718.49</ele>
        <time>2016-07-03T09:37:46Z</time>
      </trkpt>
      <trkpt lat="45.84120755083859" lon="7.180948192253709">
        <ele>1720.4200000000001</ele>
        <time>2016-07-03T09:37:57Z</time>
      </trkpt>
      <trkpt lat="45.841264128684998" lon="7.180980462580919">
        <ele>1721.8599999999999</ele>
        <time>2016-07-03T09:38:08Z</time>
      </trkpt>
      <trkpt lat="45.841280305758119" lon="7.181012481451035">
        <ele>1722.3399999999999</ele>
        <time>2016-07-03T09:38:17Z</time>
      </trkpt>
      <trkpt lat="45.841332022100687" lon="7.181038549169898">
        <ele>1723.78</ele>
        <time>2016-07-03T09:38:27Z</time>
      </trkpt>
      <trkpt lat="45.841397568583488" lon="7.181049026548863">
        <ele>1725.7</ele>
        <time>2016-07-03T09:38:37Z</time>
      </trkpt>
      <trkpt lat="45.841450123116374" lon="7.181058498099446">
        <ele>1727.1500000000001</ele>
        <time>2016-07-03T09:38:45Z</time>
      </trkpt>
      <trkpt lat="45.841528913006186" lon="7.181046092882752">
        <ele>1728.1099999999999</ele>
        <time>2016-07-03T09:38:55Z</time>
      </trkpt>
      <trkpt lat="45.841546850278974" lon="7.18107283115387">
        <ele>1729.55</ele>
        <time>2016-07-03T09:39:02Z</time>
      </trkpt>
      <trkpt lat="45.841573253273964" lon="7.181051541119814">
        <ele>1730.51</ele>
        <time>2016-07-03T09:39:11Z</time>
      </trkpt>
      <trkpt lat="45.841588592156768" lon="7.181054642423987">
        <ele>1730.51</ele>
        <time>2016-07-03T09:39:23Z</time>
      </trkpt>
      <trkpt lat="45.841624969616532" lon="7.18100787140429">
        <ele>1730.03</ele>
        <time>2016-07-03T09:39:32Z</time>
      </trkpt>
      <trkpt lat="45.841642571613193" lon="7.180992448702455">
        <ele>1730.51</ele>
        <time>2016-07-03T09:39:41Z</time>
      </trkpt>
      <trkpt lat="45.841644499450922" lon="7.180971661582589">
        <ele>1731.47</ele>
        <time>2016-07-03T09:39:47Z</time>
      </trkpt>
      <trkpt lat="45.841679451987147" lon="7.180899074301124">
        <ele>1730.99</ele>
        <time>2016-07-03T09:39:56Z</time>
      </trkpt>
      <trkpt lat="45.841713733971119" lon="7.180858002975583">
        <ele>1731.47</ele>
        <time>2016-07-03T09:40:01Z</time>
      </trkpt>
      <trkpt lat="45.841776849702001" lon="7.18083051033318">
        <ele>1733.3900000000001</ele>
        <time>2016-07-03T09:40:12Z</time>
      </trkpt>
      <trkpt lat="45.841780873015523" lon="7.180828833952546">
        <ele>1733.3900000000001</ele>
        <time>2016-07-03T09:40:13Z</time>
      </trkpt>
      <trkpt lat="45.841811550781131" lon="7.180808046832681">
        <ele>1733.3900000000001</ele>
        <time>2016-07-03T09:40:23Z</time>
      </trkpt>
      <trkpt lat="45.841800319030881" lon="7.180768484249711">
        <ele>1733.3900000000001</ele>
        <time>2016-07-03T09:40:33Z</time>
      </trkpt>
      <trkpt lat="45.841751703992486" lon="7.18086764216423">
        <ele>1733.8800000000001</ele>
        <time>2016-07-03T09:40:43Z</time>
      </trkpt>
      <trkpt lat="45.841703675687313" lon="7.181011727079749">
        <ele>1733.8800000000001</ele>
        <time>2016-07-03T09:40:53Z</time>
      </trkpt>
      <trkpt lat="45.841688252985477" lon="7.181095881387591">
        <ele>1734.8399999999999</ele>
        <time>2016-07-03T09:41:01Z</time>
      </trkpt>
      <trkpt lat="45.84165757521987" lon="7.181191267445684">
        <ele>1736.28</ele>
        <time>2016-07-03T09:41:10Z</time>
      </trkpt>
      <trkpt lat="45.841625304892659" lon="7.18119696713984">
        <ele>1736.76</ele>
        <time>2016-07-03T09:41:20Z</time>
      </trkpt>
      <trkpt lat="45.841608960181475" lon="7.18115983530879">
        <ele>1737.24</ele>
        <time>2016-07-03T09:41:34Z</time>
      </trkpt>
      <trkpt lat="45.841593202203512" lon="7.18112513422966">
        <ele>1734.8399999999999</ele>
        <time>2016-07-03T09:41:45Z</time>
      </trkpt>
      <trkpt lat="45.841564787551761" lon="7.181038884446025">
        <ele>1732.4300000000001</ele>
        <time>2016-07-03T09:41:57Z</time>
      </trkpt>
      <trkpt lat="45.84154425188899" lon="7.18108749948442">
        <ele>1731.95</ele>
        <time>2016-07-03T09:42:16Z</time>
      </trkpt>
      <trkpt lat="45.841571409255266" lon="7.18104986473918">
        <ele>1732.4300000000001</ele>
        <time>2016-07-03T09:42:32Z</time>
      </trkpt>
      <trkpt lat="45.841610385105014" lon="7.181042153388262">
        <ele>1731.95</ele>
        <time>2016-07-03T09:42:43Z</time>
      </trkpt>
      <trkpt lat="45.841602338477969" lon="7.18104986473918">
        <ele>1731.95</ele>
        <time>2016-07-03T09:42:55Z</time>
      </trkpt>
      <trkpt lat="45.841588843613863" lon="7.181078027933836">
        <ele>1733.8800000000001</ele>
        <time>2016-07-03T09:43:03Z</time>
      </trkpt>
      <trkpt lat="45.841572498902678" lon="7.181062186136842">
        <ele>1731.95</ele>
        <time>2016-07-03T09:43:18Z</time>
      </trkpt>
      <trkpt lat="45.841502342373133" lon="7.18101323582232">
        <ele>1729.0699999999999</ele>
        <time>2016-07-03T09:43:29Z</time>
      </trkpt>
      <trkpt lat="45.841477364301682" lon="7.180997226387262">
        <ele>1728.1099999999999</ele>
        <time>2016-07-03T09:43:40Z</time>
      </trkpt>
      <trkpt lat="45.841461438685656" lon="7.180958082899451">
        <ele>1727.1500000000001</ele>
        <time>2016-07-03T09:43:53Z</time>
      </trkpt>
      <trkpt lat="45.84145724773407" lon="7.180943163111806">
        <ele>1727.1500000000001</ele>
        <time>2016-07-03T09:44:06Z</time>
      </trkpt>
      <trkpt lat="45.841385833919048" lon="7.180950790643692">
        <ele>1726.1800000000001</ele>
        <time>2016-07-03T09:44:15Z</time>
      </trkpt>
      <trkpt lat="45.841315174475312" lon="7.181005692109466">
        <ele>1725.22</ele>
        <time>2016-07-03T09:44:22Z</time>
      </trkpt>
      <trkpt lat="45.841255076229572" lon="7.180942576378584">
        <ele>1722.8199999999999</ele>
        <time>2016-07-03T09:44:27Z</time>
      </trkpt>
      <trkpt lat="45.841262536123395" lon="7.180894464254379">
        <ele>1722.3399999999999</ele>
        <time>2016-07-03T09:44:32Z</time>
      </trkpt>
      <trkpt lat="45.841300589963794" lon="7.18085833825171">
        <ele>1721.8599999999999</ele>
        <time>2016-07-03T09:44:41Z</time>
      </trkpt>
      <trkpt lat="45.841251639649272" lon="7.180843921378255">
        <ele>1718.97</ele>
        <time>2016-07-03T09:44:47Z</time>
      </trkpt>
      <trkpt lat="45.841162037104368" lon="7.18083486892283">
        <ele>1716.0899999999999</ele>
        <time>2016-07-03T09:44:55Z</time>
      </trkpt>
      <trkpt lat="45.84115625359118" lon="7.180828750133514">
        <ele>1716.5699999999999</ele>
        <time>2016-07-03T09:44:56Z</time>
      </trkpt>
      <trkpt lat="45.84115625359118" lon="7.180809387937188">
        <ele>1716.5699999999999</ele>
        <time>2016-07-03T09:44:57Z</time>
      </trkpt>
      <trkpt lat="45.841126330196857" lon="7.180696986615658">
        <ele>1713.6900000000001</ele>
        <time>2016-07-03T09:45:06Z</time>
      </trkpt>
      <trkpt lat="45.841085845604539" lon="7.180630601942539">
        <ele>1712.25</ele>
        <time>2016-07-03T09:45:13Z</time>
      </trkpt>
      <trkpt lat="45.841193804517388" lon="7.180432369932532">
        <ele>1711.28</ele>
        <time>2016-07-03T09:45:25Z</time>
      </trkpt>
      <trkpt lat="45.841220794245601" lon="7.180394064635038">
        <ele>1709.3599999999999</ele>
        <time>2016-07-03T09:45:28Z</time>
      </trkpt>
      <trkpt lat="45.841247867792845" lon="7.180340001359582">
        <ele>1709.3599999999999</ele>
        <time>2016-07-03T09:45:32Z</time>
      </trkpt>
      <trkpt lat="45.841342164203525" lon="7.180304042994976">
        <ele>1709.3599999999999</ele>
        <time>2016-07-03T09:45:41Z</time>
      </trkpt>
      <trkpt lat="45.841462779790163" lon="7.180350981652737">
        <ele>1711.76</ele>
        <time>2016-07-03T09:45:50Z</time>
      </trkpt>
      <trkpt lat="45.841473424807191" lon="7.180345198139548">
        <ele>1711.28</ele>
        <time>2016-07-03T09:45:51Z</time>
      </trkpt>
      <trkpt lat="45.841558249667287" lon="7.180329188704491">
        <ele>1713.21</ele>
        <time>2016-07-03T09:45:59Z</time>
      </trkpt>
      <trkpt lat="45.841643828898668" lon="7.180279735475779">
        <ele>1713.6900000000001</ele>
        <time>2016-07-03T09:46:10Z</time>
      </trkpt>
      <trkpt lat="45.841662520542741" lon="7.180271521210671">
        <ele>1714.1700000000001</ele>
        <time>2016-07-03T09:46:12Z</time>
      </trkpt>
      <trkpt lat="45.841707950457931" lon="7.180245453491807">
        <ele>1714.1700000000001</ele>
        <time>2016-07-03T09:46:17Z</time>
      </trkpt>
      <trkpt lat="45.84182227961719" lon="7.180205220356584">
        <ele>1714.6500000000001</ele>
        <time>2016-07-03T09:46:29Z</time>
      </trkpt>
      <trkpt lat="45.841852957382798" lon="7.180187618359923">
        <ele>1715.6099999999999</ele>
        <time>2016-07-03T09:46:33Z</time>
      </trkpt>
      <trkpt lat="45.841916995123029" lon="7.180194407701492">
        <ele>1716.0899999999999</ele>
        <time>2016-07-03T09:46:39Z</time>
      </trkpt>
      <trkpt lat="45.841982960700989" lon="7.180163729935885">
        <ele>1715.1300000000001</ele>
        <time>2016-07-03T09:46:47Z</time>
      </trkpt>
      <trkpt lat="45.842008693143725" lon="7.180153923109174">
        <ele>1715.1300000000001</ele>
        <time>2016-07-03T09:46:50Z</time>
      </trkpt>
      <trkpt lat="45.842049680650234" lon="7.180130956694484">
        <ele>1715.6099999999999</ele>
        <time>2016-07-03T09:46:57Z</time>
      </trkpt>
      <trkpt lat="45.84205680526793" lon="7.180128945037723">
        <ele>1715.6099999999999</ele>
        <time>2016-07-03T09:46:58Z</time>
      </trkpt>
      <trkpt lat="45.842117909342051" lon="7.180131124332547">
        <ele>1715.1300000000001</ele>
        <time>2016-07-03T09:47:04Z</time>
      </trkpt>
      <trkpt lat="45.842176834121346" lon="7.180107738822699">
        <ele>1717.53</ele>
        <time>2016-07-03T09:47:12Z</time>
      </trkpt>
      <trkpt lat="45.842220420017838" lon="7.180094327777624">
        <ele>1718.49</ele>
        <time>2016-07-03T09:47:19Z</time>
      </trkpt>
      <trkpt lat="45.842250678688288" lon="7.180082341656089">
        <ele>1718.01</ele>
        <time>2016-07-03T09:47:22Z</time>
      </trkpt>
      <trkpt lat="45.842337347567081" lon="7.180083179846406">
        <ele>1717.53</ele>
        <time>2016-07-03T09:47:32Z</time>
      </trkpt>
      <trkpt lat="45.842408845201135" lon="7.180066667497158">
        <ele>1716.5699999999999</ele>
        <time>2016-07-03T09:47:41Z</time>
      </trkpt>
      <trkpt lat="45.842423848807812" lon="7.180063482373953">
        <ele>1716.0899999999999</ele>
        <time>2016-07-03T09:47:43Z</time>
      </trkpt>
      <trkpt lat="45.842499705031514" lon="7.180003551766276">
        <ele>1716.0899999999999</ele>
        <time>2016-07-03T09:47:52Z</time>
      </trkpt>
      <trkpt lat="45.842542368918657" lon="7.179969437420368">
        <ele>1716.0899999999999</ele>
        <time>2016-07-03T09:48:01Z</time>
      </trkpt>
      <trkpt lat="45.842556031420827" lon="7.179942782968283">
        <ele>1714.1700000000001</ele>
        <time>2016-07-03T09:48:06Z</time>
      </trkpt>
      <trkpt lat="45.842629708349705" lon="7.179887378588319">
        <ele>1715.1300000000001</ele>
        <time>2016-07-03T09:48:14Z</time>
      </trkpt>
      <trkpt lat="45.84263289347291" lon="7.179885786026716">
        <ele>1715.1300000000001</ele>
        <time>2016-07-03T09:48:15Z</time>
      </trkpt>
      <trkpt lat="45.842701457440853" lon="7.179827531799674">
        <ele>1716.0899999999999</ele>
        <time>2016-07-03T09:48:24Z</time>
      </trkpt>
      <trkpt lat="45.842727944254875" lon="7.179833231493831">
        <ele>1717.53</ele>
        <time>2016-07-03T09:48:30Z</time>
      </trkpt>
      <trkpt lat="45.842699864879251" lon="7.17994655482471">
        <ele>1715.6099999999999</ele>
        <time>2016-07-03T09:48:47Z</time>
      </trkpt>
      <trkpt lat="45.842742444947362" lon="7.179905734956265">
        <ele>1716.0899999999999</ele>
        <time>2016-07-03T09:48:57Z</time>
      </trkpt>
      <trkpt lat="45.842743702232838" lon="7.179886288940907">
        <ele>1717.05</ele>
        <time>2016-07-03T09:49:10Z</time>
      </trkpt>
      <trkpt lat="45.842730710282922" lon="7.179852509871125">
        <ele>1716.0899999999999</ele>
        <time>2016-07-03T09:49:26Z</time>
      </trkpt>
      <trkpt lat="45.842723585665226" lon="7.179873883724213">
        <ele>1715.6099999999999</ele>
        <time>2016-07-03T09:49:33Z</time>
      </trkpt>
      <trkpt lat="45.842738086357713" lon="7.179891318082809">
        <ele>1714.6500000000001</ele>
        <time>2016-07-03T09:49:57Z</time>
      </trkpt>
      <trkpt lat="45.842735068872571" lon="7.179895844310522">
        <ele>1715.1300000000001</ele>
        <time>2016-07-03T09:50:15Z</time>
      </trkpt>
      <trkpt lat="45.842757280915976" lon="7.179891401901841">
        <ele>1715.1300000000001</ele>
        <time>2016-07-03T09:50:37Z</time>
      </trkpt>
      <trkpt lat="45.84273305721581" lon="7.179886121302843">
        <ele>1715.1300000000001</ele>
        <time>2016-07-03T09:50:57Z</time>
      </trkpt>
      <trkpt lat="45.842721993103623" lon="7.179896011948586">
        <ele>1715.1300000000001</ele>
        <time>2016-07-03T09:51:17Z</time>
      </trkpt>
      <trkpt lat="45.842679999768734" lon="7.179877571761608">
        <ele>1714.6500000000001</ele>
        <time>2016-07-03T09:51:42Z</time>
      </trkpt>
      <trkpt lat="45.842704474925995" lon="7.179859299212694">
        <ele>1715.1300000000001</ele>
        <time>2016-07-03T09:51:59Z</time>
      </trkpt>
      <trkpt lat="45.842733811587095" lon="7.179891066625714">
        <ele>1715.6099999999999</ele>
        <time>2016-07-03T09:52:17Z</time>
      </trkpt>
      <trkpt lat="45.84273942746222" lon="7.179858880117536">
        <ele>1716.5699999999999</ele>
        <time>2016-07-03T09:52:24Z</time>
      </trkpt>
      <trkpt lat="45.842753676697612" lon="7.17983759008348">
        <ele>1716.5699999999999</ele>
        <time>2016-07-03T09:52:35Z</time>
      </trkpt>
      <trkpt lat="45.842765243723989" lon="7.179826777428389">
        <ele>1717.53</ele>
        <time>2016-07-03T09:52:45Z</time>
      </trkpt>
      <trkpt lat="45.842791646718979" lon="7.179819736629725">
        <ele>1718.49</ele>
        <time>2016-07-03T09:52:53Z</time>
      </trkpt>
      <trkpt lat="45.842796005308628" lon="7.179817641153932">
        <ele>1718.01</ele>
        <time>2016-07-03T09:53:12Z</time>
      </trkpt>
      <trkpt lat="45.842782007530332" lon="7.179886708036065">
        <ele>1717.53</ele>
        <time>2016-07-03T09:53:24Z</time>
      </trkpt>
      <trkpt lat="45.842781336978078" lon="7.179899867624044">
        <ele>1718.01</ele>
        <time>2016-07-03T09:53:37Z</time>
      </trkpt>
      <trkpt lat="45.842781504616141" lon="7.179888468235731">
        <ele>1718.01</ele>
        <time>2016-07-03T09:53:52Z</time>
      </trkpt>
      <trkpt lat="45.842767423018813" lon="7.179885450750589">
        <ele>1718.97</ele>
        <time>2016-07-03T09:54:08Z</time>
      </trkpt>
      <trkpt lat="45.842785192653537" lon="7.179870447143912">
        <ele>1716.0899999999999</ele>
        <time>2016-07-03T09:54:13Z</time>
      </trkpt>
      <trkpt lat="45.842857947573066" lon="7.179771959781647">
        <ele>1718.97</ele>
        <time>2016-07-03T09:54:24Z</time>
      </trkpt>
      <trkpt lat="45.842894995585084" lon="7.179746478796005">
        <ele>1720.4200000000001</ele>
        <time>2016-07-03T09:54:35Z</time>
      </trkpt>
      <trkpt lat="45.842929529026151" lon="7.179706580936909">
        <ele>1720.9000000000001</ele>
        <time>2016-07-03T09:54:42Z</time>
      </trkpt>
      <trkpt lat="45.843002954497933" lon="7.179672969505191">
        <ele>1722.3399999999999</ele>
        <time>2016-07-03T09:54:52Z</time>
      </trkpt>
      <trkpt lat="45.843069925904274" lon="7.179573141038418">
        <ele>1724.74</ele>
        <time>2016-07-03T09:55:05Z</time>
      </trkpt>
      <trkpt lat="45.843075541779399" lon="7.17956735752523">
        <ele>1724.74</ele>
        <time>2016-07-03T09:55:06Z</time>
      </trkpt>
      <trkpt lat="45.843124911189079" lon="7.179470798000693">
        <ele>1726.6700000000001</ele>
        <time>2016-07-03T09:55:18Z</time>
      </trkpt>
      <trkpt lat="45.843171179294586" lon="7.179383961483836">
        <ele>1729.0699999999999</ele>
        <time>2016-07-03T09:55:28Z</time>
      </trkpt>
      <trkpt lat="45.843218453228474" lon="7.179290670901537">
        <ele>1730.99</ele>
        <time>2016-07-03T09:55:40Z</time>
      </trkpt>
      <trkpt lat="45.843258518725634" lon="7.179221268743277">
        <ele>1731.47</ele>
        <time>2016-07-03T09:55:48Z</time>
      </trkpt>
      <trkpt lat="45.843316772952676" lon="7.179135186597705">
        <ele>1733.3900000000001</ele>
        <time>2016-07-03T09:55:59Z</time>
      </trkpt>
      <trkpt lat="45.843364298343658" lon="7.179054217413068">
        <ele>1734.8399999999999</ele>
        <time>2016-07-03T09:56:09Z</time>
      </trkpt>
      <trkpt lat="45.843406040221453" lon="7.178969141095877">
        <ele>1736.28</ele>
        <time>2016-07-03T09:56:20Z</time>
      </trkpt>
      <trkpt lat="45.843452643603086" lon="7.178865792229772">
        <ele>1735.8</ele>
        <time>2016-07-03T09:56:29Z</time>
      </trkpt>
      <trkpt lat="45.843490110710263" lon="7.178806280717254">
        <ele>1736.76</ele>
        <time>2016-07-03T09:56:34Z</time>
      </trkpt>
      <trkpt lat="45.843496900051832" lon="7.178796976804733">
        <ele>1735.3199999999999</ele>
        <time>2016-07-03T09:56:35Z</time>
      </trkpt>
      <trkpt lat="45.843502935022116" lon="7.178782308474183">
        <ele>1736.76</ele>
        <time>2016-07-03T09:56:36Z</time>
      </trkpt>
      <trkpt lat="45.84357837215066" lon="7.178668482229114">
        <ele>1737.24</ele>
        <time>2016-07-03T09:56:47Z</time>
      </trkpt>
      <trkpt lat="45.843586334958673" lon="7.178658256307244">
        <ele>1738.2</ele>
        <time>2016-07-03T09:56:48Z</time>
      </trkpt>
      <trkpt lat="45.843607038259506" lon="7.178625483065844">
        <ele>1737.72</ele>
        <time>2016-07-03T09:56:51Z</time>
      </trkpt>
      <trkpt lat="45.843718098476529" lon="7.178507633507252">
        <ele>1738.2</ele>
        <time>2016-07-03T09:57:03Z</time>
      </trkpt>
      <trkpt lat="45.843823626637459" lon="7.178400764241815">
        <ele>1739.1600000000001</ele>
        <time>2016-07-03T09:57:16Z</time>
      </trkpt>
      <trkpt lat="45.843859668821096" lon="7.178344689309597">
        <ele>1739.6400000000001</ele>
        <time>2016-07-03T09:57:21Z</time>
      </trkpt>
      <trkpt lat="45.84390040487051" lon="7.178269000723958">
        <ele>1741.0799999999999</ele>
        <time>2016-07-03T09:57:29Z</time>
      </trkpt>
      <trkpt lat="45.843921443447471" lon="7.178275706246495">
        <ele>1742.53</ele>
        <time>2016-07-03T09:57:38Z</time>
      </trkpt>
      <trkpt lat="45.843941811472178" lon="7.178243268281221">
        <ele>1742.53</ele>
        <time>2016-07-03T09:57:41Z</time>
      </trkpt>
      <trkpt lat="45.844021188095212" lon="7.178139584138989">
        <ele>1743.01</ele>
        <time>2016-07-03T09:57:53Z</time>
      </trkpt>
      <trkpt lat="45.844068126752973" lon="7.178084682673216">
        <ele>1743.97</ele>
        <time>2016-07-03T09:58:00Z</time>
      </trkpt>
      <trkpt lat="45.844150604680181" lon="7.17798275873065">
        <ele>1745.8900000000001</ele>
        <time>2016-07-03T09:58:12Z</time>
      </trkpt>
      <trkpt lat="45.844177594408393" lon="7.177952416241169">
        <ele>1745.8900000000001</ele>
        <time>2016-07-03T09:58:15Z</time>
      </trkpt>
      <trkpt lat="45.844226544722915" lon="7.177890641614795">
        <ele>1747.3299999999999</ele>
        <time>2016-07-03T09:58:22Z</time>
      </trkpt>
      <trkpt lat="45.844290247187018" lon="7.17783322557807">
        <ele>1750.22</ele>
        <time>2016-07-03T09:58:31Z</time>
      </trkpt>
      <trkpt lat="45.844293851405382" lon="7.177829118445516">
        <ele>1748.78</ele>
        <time>2016-07-03T09:58:32Z</time>
      </trkpt>
      <trkpt lat="45.844296533614397" lon="7.177826100960374">
        <ele>1747.8099999999999</ele>
        <time>2016-07-03T09:58:33Z</time>
      </trkpt>
      <trkpt lat="45.844301395118237" lon="7.177802799269557">
        <ele>1748.78</ele>
        <time>2016-07-03T09:58:34Z</time>
      </trkpt>
      <trkpt lat="45.844309609383345" lon="7.177788885310292">
        <ele>1749.26</ele>
        <time>2016-07-03T09:58:36Z</time>
      </trkpt>
      <trkpt lat="45.844401475042105" lon="7.17768469825387">
        <ele>1747.8099999999999</ele>
        <time>2016-07-03T09:58:47Z</time>
      </trkpt>
      <trkpt lat="45.84449895657599" lon="7.177566764876247">
        <ele>1747.3299999999999</ele>
        <time>2016-07-03T09:58:59Z</time>
      </trkpt>
      <trkpt lat="45.844611441716552" lon="7.177457800135016">
        <ele>1749.74</ele>
        <time>2016-07-03T09:59:13Z</time>
      </trkpt>
      <trkpt lat="45.844709845259786" lon="7.177362916991115">
        <ele>1749.26</ele>
        <time>2016-07-03T09:59:25Z</time>
      </trkpt>
      <trkpt lat="45.844744127243757" lon="7.177326707169414">
        <ele>1751.1800000000001</ele>
        <time>2016-07-03T09:59:30Z</time>
      </trkpt>
      <trkpt lat="45.844827527180314" lon="7.177230482921004">
        <ele>1751.1800000000001</ele>
        <time>2016-07-03T09:59:42Z</time>
      </trkpt>
      <trkpt lat="45.844931295141578" lon="7.177115650847554">
        <ele>1752.6199999999999</ele>
        <time>2016-07-03T09:59:56Z</time>
      </trkpt>
      <trkpt lat="45.845022322610021" lon="7.177018253132701">
        <ele>1755.02</ele>
        <time>2016-07-03T10:00:09Z</time>
      </trkpt>
      <trkpt lat="45.8451322093606" lon="7.176947090774775">
        <ele>1756.47</ele>
        <time>2016-07-03T10:00:23Z</time>
      </trkpt>
      <trkpt lat="45.845175879076123" lon="7.176919681951404">
        <ele>1756.95</ele>
        <time>2016-07-03T10:00:29Z</time>
      </trkpt>
      <trkpt lat="45.845196666195989" lon="7.176873413845897">
        <ele>1756.95</ele>
        <time>2016-07-03T10:00:33Z</time>
      </trkpt>
      <trkpt lat="45.845330776646733" lon="7.176731759682298">
        <ele>1755.5</ele>
        <time>2016-07-03T10:00:49Z</time>
      </trkpt>
      <trkpt lat="45.845496570691466" lon="7.176612736657262">
        <ele>1755.02</ele>
        <time>2016-07-03T10:01:05Z</time>
      </trkpt>
      <trkpt lat="45.845632692798972" lon="7.176499580964446">
        <ele>1755.02</ele>
        <time>2016-07-03T10:01:20Z</time>
      </trkpt>
      <trkpt lat="45.8457953017205" lon="7.176403272897005">
        <ele>1754.54</ele>
        <time>2016-07-03T10:01:35Z</time>
      </trkpt>
      <trkpt lat="45.845975512638688" lon="7.176294391974807">
        <ele>1754.0599999999999</ele>
        <time>2016-07-03T10:01:50Z</time>
      </trkpt>
      <trkpt lat="45.846089338883758" lon="7.176207890734077">
        <ele>1755.02</ele>
        <time>2016-07-03T10:02:05Z</time>
      </trkpt>
      <trkpt lat="45.846169218420982" lon="7.176145277917385">
        <ele>1757.4300000000001</ele>
        <time>2016-07-03T10:02:17Z</time>
      </trkpt>
      <trkpt lat="45.846258318051696" lon="7.176080150529742">
        <ele>1758.8699999999999</ele>
        <time>2016-07-03T10:02:29Z</time>
      </trkpt>
      <trkpt lat="45.84636015817523" lon="7.176031032577157">
        <ele>1759.8299999999999</ele>
        <time>2016-07-03T10:02:41Z</time>
      </trkpt>
      <trkpt lat="45.846431404352188" lon="7.175951823592186">
        <ele>1761.27</ele>
        <time>2016-07-03T10:02:51Z</time>
      </trkpt>
      <trkpt lat="45.846496447920799" lon="7.175873201340437">
        <ele>1761.27</ele>
        <time>2016-07-03T10:03:01Z</time>
      </trkpt>
      <trkpt lat="45.846542548388243" lon="7.175760045647621">
        <ele>1762.23</ele>
        <time>2016-07-03T10:03:12Z</time>
      </trkpt>
      <trkpt lat="45.846545398235321" lon="7.175739007070661">
        <ele>1762.71</ele>
        <time>2016-07-03T10:03:14Z</time>
      </trkpt>
      <trkpt lat="45.846583535894752" lon="7.175626773387194">
        <ele>1764.1600000000001</ele>
        <time>2016-07-03T10:03:24Z</time>
      </trkpt>
      <trkpt lat="45.846587056294084" lon="7.175597688183188">
        <ele>1764.1600000000001</ele>
        <time>2016-07-03T10:03:26Z</time>
      </trkpt>
      <trkpt lat="45.846631731837988" lon="7.175475060939789">
        <ele>1764.1600000000001</ele>
        <time>2016-07-03T10:03:37Z</time>
      </trkpt>
      <trkpt lat="45.84668898023665" lon="7.175361989066005">
        <ele>1764.6400000000001</ele>
        <time>2016-07-03T10:03:48Z</time>
      </trkpt>
      <trkpt lat="45.846747318282723" lon="7.17523860745132">
        <ele>1765.1199999999999</ele>
        <time>2016-07-03T10:04:00Z</time>
      </trkpt>
      <trkpt lat="45.846784953027964" lon="7.175185466185212">
        <ele>1765.5999999999999</ele>
        <time>2016-07-03T10:04:07Z</time>
      </trkpt>
      <trkpt lat="45.846827449277043" lon="7.17511598020792">
        <ele>1767.04</ele>
        <time>2016-07-03T10:04:16Z</time>
      </trkpt>
      <trkpt lat="45.846868772059679" lon="7.17501481063664">
        <ele>1768</ele>
        <time>2016-07-03T10:04:27Z</time>
      </trkpt>
      <trkpt lat="45.846946388483047" lon="7.174928477033973">
        <ele>1768.48</ele>
        <time>2016-07-03T10:04:38Z</time>
      </trkpt>
      <trkpt lat="45.847010174766183" lon="7.174862427636981">
        <ele>1769.9200000000001</ele>
        <time>2016-07-03T10:04:48Z</time>
      </trkpt>
      <trkpt lat="45.847018975764513" lon="7.174857649952173">
        <ele>1769.9200000000001</ele>
        <time>2016-07-03T10:04:50Z</time>
      </trkpt>
      <trkpt lat="45.847082259133458" lon="7.174763772636652">
        <ele>1771.3699999999999</ele>
        <time>2016-07-03T10:05:01Z</time>
      </trkpt>
      <trkpt lat="45.847146883606911" lon="7.174675092101097">
        <ele>1773.77</ele>
        <time>2016-07-03T10:05:14Z</time>
      </trkpt>
      <trkpt lat="45.847185188904405" lon="7.174605522304773">
        <ele>1775.6900000000001</ele>
        <time>2016-07-03T10:05:24Z</time>
      </trkpt>
      <trkpt lat="45.847251154482365" lon="7.174552800133824">
        <ele>1778.0999999999999</ele>
        <time>2016-07-03T10:05:36Z</time>
      </trkpt>
      <trkpt lat="45.847308989614248" lon="7.174523798748851">
        <ele>1779.54</ele>
        <time>2016-07-03T10:05:46Z</time>
      </trkpt>
      <trkpt lat="45.847375793382525" lon="7.1744538936764">
        <ele>1780.98</ele>
        <time>2016-07-03T10:05:58Z</time>
      </trkpt>
      <trkpt lat="45.847393563017249" lon="7.174431933090091">
        <ele>1782.9000000000001</ele>
        <time>2016-07-03T10:06:02Z</time>
      </trkpt>
      <trkpt lat="45.847460785880685" lon="7.174342665821314">
        <ele>1784.3399999999999</ele>
        <time>2016-07-03T10:06:15Z</time>
      </trkpt>
      <trkpt lat="45.847531277686357" lon="7.174266809597611">
        <ele>1786.27</ele>
        <time>2016-07-03T10:06:28Z</time>
      </trkpt>
      <trkpt lat="45.847601015120745" lon="7.174209728837013">
        <ele>1787.23</ele>
        <time>2016-07-03T10:06:39Z</time>
      </trkpt>
      <trkpt lat="45.847694724798203" lon="7.17417779378593">
        <ele>1788.6700000000001</ele>
        <time>2016-07-03T10:06:51Z</time>
      </trkpt>
      <trkpt lat="45.8477967325598" lon="7.174129765480757">
        <ele>1790.1099999999999</ele>
        <time>2016-07-03T10:07:05Z</time>
      </trkpt>
      <trkpt lat="45.847889687865973" lon="7.174100764095783">
        <ele>1791.55</ele>
        <time>2016-07-03T10:07:17Z</time>
      </trkpt>
      <trkpt lat="45.847910223528743" lon="7.174098752439022">
        <ele>1792.03</ele>
        <time>2016-07-03T10:07:20Z</time>
      </trkpt>
      <trkpt lat="45.848010471090674" lon="7.174069080501795">
        <ele>1793.96</ele>
        <time>2016-07-03T10:07:33Z</time>
      </trkpt>
      <trkpt lat="45.848101666197181" lon="7.174044689163566">
        <ele>1796.8399999999999</ele>
        <time>2016-07-03T10:07:45Z</time>
      </trkpt>
      <trkpt lat="45.848177270963788" lon="7.174019627273083">
        <ele>1798.28</ele>
        <time>2016-07-03T10:07:57Z</time>
      </trkpt>
      <trkpt lat="45.848249439150095" lon="7.173978136852384">
        <ele>1800.21</ele>
        <time>2016-07-03T10:08:09Z</time>
      </trkpt>
      <trkpt lat="45.84831029176712" lon="7.173917703330517">
        <ele>1802.1300000000001</ele>
        <time>2016-07-03T10:08:21Z</time>
      </trkpt>
      <trkpt lat="45.848395703360438" lon="7.173835393041372">
        <ele>1803.5699999999999</ele>
        <time>2016-07-03T10:08:34Z</time>
      </trkpt>
      <trkpt lat="45.848456555977464" lon="7.173739755526185">
        <ele>1805.01</ele>
        <time>2016-07-03T10:08:46Z</time>
      </trkpt>
      <trkpt lat="45.848517576232553" lon="7.17365694232285">
        <ele>1806.45</ele>
        <time>2016-07-03T10:08:57Z</time>
      </trkpt>
      <trkpt lat="45.848540794104338" lon="7.173608997836709">
        <ele>1807.9000000000001</ele>
        <time>2016-07-03T10:09:03Z</time>
      </trkpt>
      <trkpt lat="45.84860784932971" lon="7.173534985631704">
        <ele>1809.3399999999999</ele>
        <time>2016-07-03T10:09:15Z</time>
      </trkpt>
      <trkpt lat="45.848640957847238" lon="7.173456950113177">
        <ele>1810.3</ele>
        <time>2016-07-03T10:09:25Z</time>
      </trkpt>
      <trkpt lat="45.848709102720022" lon="7.173333400860429">
        <ele>1812.22</ele>
        <time>2016-07-03T10:09:37Z</time>
      </trkpt>
      <trkpt lat="45.848780432716012" lon="7.173225106671453">
        <ele>1813.6600000000001</ele>
        <time>2016-07-03T10:09:49Z</time>
      </trkpt>
      <trkpt lat="45.84884874522686" lon="7.173131899908185">
        <ele>1814.6300000000001</ele>
        <time>2016-07-03T10:09:59Z</time>
      </trkpt>
      <trkpt lat="45.848916219547391" lon="7.173010781407356">
        <ele>1816.0699999999999</ele>
        <time>2016-07-03T10:10:12Z</time>
      </trkpt>
      <trkpt lat="45.848981346935034" lon="7.172909695655108">
        <ele>1817.99</ele>
        <time>2016-07-03T10:10:25Z</time>
      </trkpt>
      <trkpt lat="45.849035074934363" lon="7.172827469184995">
        <ele>1819.4300000000001</ele>
        <time>2016-07-03T10:10:35Z</time>
      </trkpt>
      <trkpt lat="45.84907254204154" lon="7.172737699002028">
        <ele>1821.3499999999999</ele>
        <time>2016-07-03T10:10:48Z</time>
      </trkpt>
      <trkpt lat="45.849117804318666" lon="7.172659495845437">
        <ele>1823.76</ele>
        <time>2016-07-03T10:11:00Z</time>
      </trkpt>
      <trkpt lat="45.849150829017162" lon="7.172550866380334">
        <ele>1825.6800000000001</ele>
        <time>2016-07-03T10:11:14Z</time>
      </trkpt>
      <trkpt lat="45.84915904328227" lon="7.172469897195697">
        <ele>1827.5999999999999</ele>
        <time>2016-07-03T10:11:24Z</time>
      </trkpt>
      <trkpt lat="45.849151248112321" lon="7.172355651855469">
        <ele>1830.01</ele>
        <time>2016-07-03T10:11:37Z</time>
      </trkpt>
      <trkpt lat="45.849143955856562" lon="7.172242579981685">
        <ele>1832.4100000000001</ele>
        <time>2016-07-03T10:11:50Z</time>
      </trkpt>
      <trkpt lat="45.849139848724008" lon="7.172089442610741">
        <ele>1833.3699999999999</ele>
        <time>2016-07-03T10:12:02Z</time>
      </trkpt>
      <trkpt lat="45.84915217012167" lon="7.171927085146308">
        <ele>1834.3299999999999</ele>
        <time>2016-07-03T10:12:15Z</time>
      </trkpt>
      <trkpt lat="45.849170191213489" lon="7.171825328841806">
        <ele>1834.3299999999999</ele>
        <time>2016-07-03T10:12:24Z</time>
      </trkpt>
      <trkpt lat="45.849208077415824" lon="7.171785850077868">
        <ele>1835.77</ele>
        <time>2016-07-03T10:12:35Z</time>
      </trkpt>
      <trkpt lat="45.849197097122669" lon="7.171783167868853">
        <ele>1835.77</ele>
        <time>2016-07-03T10:12:48Z</time>
      </trkpt>
      <trkpt lat="45.849181925877929" lon="7.171755423769355">
        <ele>1836.26</ele>
        <time>2016-07-03T10:13:07Z</time>
      </trkpt>
      <trkpt lat="45.849216794595122" lon="7.171703455969691">
        <ele>1837.7</ele>
        <time>2016-07-03T10:13:19Z</time>
      </trkpt>
      <trkpt lat="45.849230540916324" lon="7.171629443764687">
        <ele>1839.6199999999999</ele>
        <time>2016-07-03T10:13:28Z</time>
      </trkpt>
      <trkpt lat="45.849229115992785" lon="7.171513438224793">
        <ele>1841.0599999999999</ele>
        <time>2016-07-03T10:13:38Z</time>
      </trkpt>
      <trkpt lat="45.849251411855221" lon="7.171399276703596">
        <ele>1842.98</ele>
        <time>2016-07-03T10:13:50Z</time>
      </trkpt>
      <trkpt lat="45.849245795980096" lon="7.171320151537657">
        <ele>1843.95</ele>
        <time>2016-07-03T10:13:59Z</time>
      </trkpt>
      <trkpt lat="45.849242610856891" lon="7.171198194846511">
        <ele>1845.8699999999999</ele>
        <time>2016-07-03T10:14:11Z</time>
      </trkpt>
      <trkpt lat="45.84923624061048" lon="7.171102808788419">
        <ele>1847.3099999999999</ele>
        <time>2016-07-03T10:14:21Z</time>
      </trkpt>
      <trkpt lat="45.849248142912984" lon="7.170958137139678">
        <ele>1849.23</ele>
        <time>2016-07-03T10:14:35Z</time>
      </trkpt>
      <trkpt lat="45.849270187318325" lon="7.170853447169066">
        <ele>1851.1600000000001</ele>
        <time>2016-07-03T10:14:46Z</time>
      </trkpt>
      <trkpt lat="45.849312180653214" lon="7.170774741098285">
        <ele>1853.0799999999999</ele>
        <time>2016-07-03T10:14:57Z</time>
      </trkpt>
      <trkpt lat="45.84934763610363" lon="7.170696873217821">
        <ele>1855</ele>
        <time>2016-07-03T10:15:10Z</time>
      </trkpt>
      <trkpt lat="45.849378146231174" lon="7.170593524351716">
        <ele>1856.9200000000001</ele>
        <time>2016-07-03T10:15:22Z</time>
      </trkpt>
      <trkpt lat="45.849423827603459" lon="7.170519763603807">
        <ele>1858.3699999999999</ele>
        <time>2016-07-03T10:15:35Z</time>
      </trkpt>
      <trkpt lat="45.849462719634175" lon="7.170406356453896">
        <ele>1860.77</ele>
        <time>2016-07-03T10:15:49Z</time>
      </trkpt>
      <trkpt lat="45.849509742110968" lon="7.170344581827521">
        <ele>1862.6900000000001</ele>
        <time>2016-07-03T10:16:01Z</time>
      </trkpt>
      <trkpt lat="45.8495425991714" lon="7.170266881585121">
        <ele>1865.0899999999999</ele>
        <time>2016-07-03T10:16:13Z</time>
      </trkpt>
      <trkpt lat="45.84954209625721" lon="7.170184990391135">
        <ele>1867.02</ele>
        <time>2016-07-03T10:16:24Z</time>
      </trkpt>
      <trkpt lat="45.849561458453536" lon="7.170094382017851">
        <ele>1868.46</ele>
        <time>2016-07-03T10:16:36Z</time>
      </trkpt>
      <trkpt lat="45.849623987451196" lon="7.170083737000823">
        <ele>1869.9000000000001</ele>
        <time>2016-07-03T10:16:45Z</time>
      </trkpt>
      <trkpt lat="45.849664472043514" lon="7.170177781954408">
        <ele>1871.8199999999999</ele>
        <time>2016-07-03T10:16:56Z</time>
      </trkpt>
      <trkpt lat="45.849662963300943" lon="7.170263361185789">
        <ele>1873.75</ele>
        <time>2016-07-03T10:17:08Z</time>
      </trkpt>
      <trkpt lat="45.849673105403781" lon="7.17035572975874">
        <ele>1875.1900000000001</ele>
        <time>2016-07-03T10:17:20Z</time>
      </trkpt>
      <trkpt lat="45.849684001877904" lon="7.170284567400813">
        <ele>1876.1500000000001</ele>
        <time>2016-07-03T10:17:29Z</time>
      </trkpt>
      <trkpt lat="45.849695820361376" lon="7.170203933492303">
        <ele>1877.5899999999999</ele>
        <time>2016-07-03T10:17:39Z</time>
      </trkpt>
      <trkpt lat="45.84972926415503" lon="7.170128161087632">
        <ele>1879.51</ele>
        <time>2016-07-03T10:17:50Z</time>
      </trkpt>
      <trkpt lat="45.849746279418468" lon="7.17001173645258">
        <ele>1880.96</ele>
        <time>2016-07-03T10:18:04Z</time>
      </trkpt>
      <trkpt lat="45.849765054881573" lon="7.16991450637579">
        <ele>1882.8800000000001</ele>
        <time>2016-07-03T10:18:14Z</time>
      </trkpt>
      <trkpt lat="45.849819453433156" lon="7.169832279905677">
        <ele>1884.3199999999999</ele>
        <time>2016-07-03T10:18:26Z</time>
      </trkpt>
      <trkpt lat="45.849872846156359" lon="7.16974837705493">
        <ele>1886.24</ele>
        <time>2016-07-03T10:18:37Z</time>
      </trkpt>
      <trkpt lat="45.84990712814033" lon="7.169672939926386">
        <ele>1887.6900000000001</ele>
        <time>2016-07-03T10:18:48Z</time>
      </trkpt>
      <trkpt lat="45.849939733743668" lon="7.16958275064826">
        <ele>1889.6099999999999</ele>
        <time>2016-07-03T10:18:59Z</time>
      </trkpt>
      <trkpt lat="45.850000586360693" lon="7.169483928009868">
        <ele>1891.53</ele>
        <time>2016-07-03T10:19:13Z</time>
      </trkpt>
      <trkpt lat="45.850039143115282" lon="7.169440090656281">
        <ele>1893.45</ele>
        <time>2016-07-03T10:19:23Z</time>
      </trkpt>
      <trkpt lat="45.850105360150337" lon="7.16945325024426">
        <ele>1895.3800000000001</ele>
        <time>2016-07-03T10:19:33Z</time>
      </trkpt>
      <trkpt lat="45.850141402333975" lon="7.169547714293003">
        <ele>1896.3399999999999</ele>
        <time>2016-07-03T10:19:43Z</time>
      </trkpt>
      <trkpt lat="45.850146096199751" lon="7.169647207483649">
        <ele>1898.26</ele>
        <time>2016-07-03T10:19:55Z</time>
      </trkpt>
      <trkpt lat="45.85013385862112" lon="7.16975181363523">
        <ele>1900.1800000000001</ele>
        <time>2016-07-03T10:20:07Z</time>
      </trkpt>
      <trkpt lat="45.850111311301589" lon="7.16984367929399">
        <ele>1901.1400000000001</ele>
        <time>2016-07-03T10:20:16Z</time>
      </trkpt>
      <trkpt lat="45.850050710141659" lon="7.169976700097323">
        <ele>1901.1400000000001</ele>
        <time>2016-07-03T10:20:28Z</time>
      </trkpt>
      <trkpt lat="45.850024055689573" lon="7.170092957094312">
        <ele>1902.5899999999999</ele>
        <time>2016-07-03T10:20:40Z</time>
      </trkpt>
      <trkpt lat="45.850002514198422" lon="7.170222289860249">
        <ele>1903.55</ele>
        <time>2016-07-03T10:20:54Z</time>
      </trkpt>
      <trkpt lat="45.850003268569708" lon="7.170350532978773">
        <ele>1905.47</ele>
        <time>2016-07-03T10:21:09Z</time>
      </trkpt>
      <trkpt lat="45.850024055689573" lon="7.170454636216164">
        <ele>1906.9100000000001</ele>
        <time>2016-07-03T10:21:22Z</time>
      </trkpt>
      <trkpt lat="45.85005565546453" lon="7.170560332015157">
        <ele>1908.8299999999999</ele>
        <time>2016-07-03T10:21:34Z</time>
      </trkpt>
      <trkpt lat="45.850039143115282" lon="7.170610204339027">
        <ele>1909.3199999999999</ele>
        <time>2016-07-03T10:21:44Z</time>
      </trkpt>
      <trkpt lat="45.850060852244496" lon="7.170641552656889">
        <ele>1909.8</ele>
        <time>2016-07-03T10:21:49Z</time>
      </trkpt>
      <trkpt lat="45.850110724568367" lon="7.170725958421826">
        <ele>1911.72</ele>
        <time>2016-07-03T10:22:01Z</time>
      </trkpt>
      <trkpt lat="45.850136624649167" lon="7.170776501297951">
        <ele>1913.1600000000001</ele>
        <time>2016-07-03T10:22:10Z</time>
      </trkpt>
      <trkpt lat="45.850192615762353" lon="7.170881861820817">
        <ele>1915.5599999999999</ele>
        <time>2016-07-03T10:22:25Z</time>
      </trkpt>
      <trkpt lat="45.850257072597742" lon="7.17094355262816">
        <ele>1917.49</ele>
        <time>2016-07-03T10:22:36Z</time>
      </trkpt>
      <trkpt lat="45.850298395380378" lon="7.17097925953567">
        <ele>1918.9300000000001</ele>
        <time>2016-07-03T10:22:45Z</time>
      </trkpt>
      <trkpt lat="45.850343406200409" lon="7.171023348346353">
        <ele>1920.8499999999999</ele>
        <time>2016-07-03T10:22:58Z</time>
      </trkpt>
      <trkpt lat="45.850390261039138" lon="7.171051762998104">
        <ele>1923.25</ele>
        <time>2016-07-03T10:23:10Z</time>
      </trkpt>
      <trkpt lat="45.850427141413093" lon="7.171040195971727">
        <ele>1925.6600000000001</ele>
        <time>2016-07-03T10:23:22Z</time>
      </trkpt>
      <trkpt lat="45.850414987653494" lon="7.171038100495935">
        <ele>1926.1400000000001</ele>
        <time>2016-07-03T10:23:32Z</time>
      </trkpt>
      <trkpt lat="45.850394200533628" lon="7.170936679467559">
        <ele>1927.0999999999999</ele>
        <time>2016-07-03T10:23:43Z</time>
      </trkpt>
      <trkpt lat="45.85041674785316" lon="7.170844813808799">
        <ele>1929.02</ele>
        <time>2016-07-03T10:23:53Z</time>
      </trkpt>
      <trkpt lat="45.85044851526618" lon="7.170742722228169">
        <ele>1929.98</ele>
        <time>2016-07-03T10:24:05Z</time>
      </trkpt>
      <trkpt lat="45.85047148168087" lon="7.170638870447874">
        <ele>1931.9100000000001</ele>
        <time>2016-07-03T10:24:16Z</time>
      </trkpt>
      <trkpt lat="45.850490760058165" lon="7.170567456632853">
        <ele>1932.8699999999999</ele>
        <time>2016-07-03T10:24:26Z</time>
      </trkpt>
      <trkpt lat="45.850521270185709" lon="7.17047207057476">
        <ele>1934.3099999999999</ele>
        <time>2016-07-03T10:24:36Z</time>
      </trkpt>
      <trkpt lat="45.850523617118597" lon="7.170366626232863">
        <ele>1936.23</ele>
        <time>2016-07-03T10:24:48Z</time>
      </trkpt>
      <trkpt lat="45.850579775869846" lon="7.170343827456236">
        <ele>1937.6700000000001</ele>
        <time>2016-07-03T10:25:01Z</time>
      </trkpt>
      <trkpt lat="45.850583799183369" lon="7.170367715880275">
        <ele>1938.1600000000001</ele>
        <time>2016-07-03T10:25:14Z</time>
      </trkpt>
      <trkpt lat="45.850605592131615" lon="7.170456983149052">
        <ele>1939.1199999999999</ele>
        <time>2016-07-03T10:25:25Z</time>
      </trkpt>
      <trkpt lat="45.850635766983032" lon="7.17055706307292">
        <ele>1941.52</ele>
        <time>2016-07-03T10:25:38Z</time>
      </trkpt>
      <trkpt lat="45.85066300816834" lon="7.170620430260897">
        <ele>1943.4400000000001</ele>
        <time>2016-07-03T10:25:48Z</time>
      </trkpt>
      <trkpt lat="45.850722268223763" lon="7.170628141611815">
        <ele>1944.8800000000001</ele>
        <time>2016-07-03T10:25:58Z</time>
      </trkpt>
      <trkpt lat="45.85078471340239" lon="7.170715229585767">
        <ele>1945.8499999999999</ele>
        <time>2016-07-03T10:26:10Z</time>
      </trkpt>
      <trkpt lat="45.850802315399051" lon="7.170771723613143">
        <ele>1946.8099999999999</ele>
        <time>2016-07-03T10:26:16Z</time>
      </trkpt>
      <trkpt lat="45.850826036185026" lon="7.170869624242187">
        <ele>1948.73</ele>
        <time>2016-07-03T10:26:26Z</time>
      </trkpt>
      <trkpt lat="45.850877333432436" lon="7.170912623405457">
        <ele>1950.1700000000001</ele>
        <time>2016-07-03T10:26:37Z</time>
      </trkpt>
      <trkpt lat="45.850929133594036" lon="7.170891668647528">
        <ele>1950.6500000000001</ele>
        <time>2016-07-03T10:26:47Z</time>
      </trkpt>
      <trkpt lat="45.850965343415737" lon="7.170868031680584">
        <ele>1951.1300000000001</ele>
        <time>2016-07-03T10:26:55Z</time>
      </trkpt>
      <trkpt lat="45.85103583522141" lon="7.170809945091605">
        <ele>1953.0599999999999</ele>
        <time>2016-07-03T10:27:09Z</time>
      </trkpt>
      <trkpt lat="45.851081516593695" lon="7.170754373073578">
        <ele>1954.98</ele>
        <time>2016-07-03T10:27:20Z</time>
      </trkpt>
      <trkpt lat="45.85109350271523" lon="7.170654879882932">
        <ele>1956.4200000000001</ele>
        <time>2016-07-03T10:27:33Z</time>
      </trkpt>
      <trkpt lat="45.851095095276833" lon="7.170546082779765">
        <ele>1957.8599999999999</ele>
        <time>2016-07-03T10:27:45Z</time>
      </trkpt>
      <trkpt lat="45.851082103326917" lon="7.170447511598468">
        <ele>1958.8199999999999</ele>
        <time>2016-07-03T10:27:56Z</time>
      </trkpt>
      <trkpt lat="45.851062908768654" lon="7.170385234057903">
        <ele>1960.27</ele>
        <time>2016-07-03T10:28:03Z</time>
      </trkpt>
      <trkpt lat="45.851066093891859" lon="7.170267384499311">
        <ele>1962.1900000000001</ele>
        <time>2016-07-03T10:28:15Z</time>
      </trkpt>
      <trkpt lat="45.851066848263144" lon="7.17015640810132">
        <ele>1963.1500000000001</ele>
        <time>2016-07-03T10:28:25Z</time>
      </trkpt>
      <trkpt lat="45.851071206852794" lon="7.170037720352411">
        <ele>1965.0699999999999</ele>
        <time>2016-07-03T10:28:37Z</time>
      </trkpt>
      <trkpt lat="45.85107984021306" lon="7.169932695105672">
        <ele>1966.03</ele>
        <time>2016-07-03T10:28:48Z</time>
      </trkpt>
      <trkpt lat="45.851102555170655" lon="7.169802272692323">
        <ele>1966.99</ele>
        <time>2016-07-03T10:29:00Z</time>
      </trkpt>
      <trkpt lat="45.851144632324576" lon="7.169669838622212">
        <ele>1968.4400000000001</ele>
        <time>2016-07-03T10:29:12Z</time>
      </trkpt>
      <trkpt lat="45.851188134402037" lon="7.169582918286324">
        <ele>1968.9200000000001</ele>
        <time>2016-07-03T10:29:23Z</time>
      </trkpt>
      <trkpt lat="45.851259715855122" lon="7.169510582461953">
        <ele>1970.3599999999999</ele>
        <time>2016-07-03T10:29:34Z</time>
      </trkpt>
      <trkpt lat="45.851265080273151" lon="7.169419974088669">
        <ele>1971.8</ele>
        <time>2016-07-03T10:29:44Z</time>
      </trkpt>
      <trkpt lat="45.851294668391347" lon="7.169331628829241">
        <ele>1972.76</ele>
        <time>2016-07-03T10:29:55Z</time>
      </trkpt>
      <trkpt lat="45.851338421925902" lon="7.16923238709569">
        <ele>1973.72</ele>
        <time>2016-07-03T10:30:06Z</time>
      </trkpt>
      <trkpt lat="45.851362394168973" lon="7.169209504500032">
        <ele>1974.2</ele>
        <time>2016-07-03T10:30:16Z</time>
      </trkpt>
      <trkpt lat="45.851361555978656" lon="7.169226855039597">
        <ele>1973.24</ele>
        <time>2016-07-03T10:30:23Z</time>
      </trkpt>
      <trkpt lat="45.851366417482495" lon="7.169221071526408">
        <ele>1973.24</ele>
        <time>2016-07-03T10:30:42Z</time>
      </trkpt>
      <trkpt lat="45.851369686424732" lon="7.169231968000531">
        <ele>1973.24</ele>
        <time>2016-07-03T10:31:00Z</time>
      </trkpt>
      <trkpt lat="45.851367255672812" lon="7.169223083183169">
        <ele>1973.24</ele>
        <time>2016-07-03T10:31:19Z</time>
      </trkpt>
      <trkpt lat="45.85136809386313" lon="7.169232806190848">
        <ele>1973.24</ele>
        <time>2016-07-03T10:31:38Z</time>
      </trkpt>
      <trkpt lat="45.851366920396686" lon="7.169238589704037">
        <ele>1973.24</ele>
        <time>2016-07-03T10:31:56Z</time>
      </trkpt>
      <trkpt lat="45.851363483816385" lon="7.169226435944438">
        <ele>1973.72</ele>
        <time>2016-07-03T10:32:17Z</time>
      </trkpt>
      <trkpt lat="45.851364238187671" lon="7.169243702664971">
        <ele>1973.72</ele>
        <time>2016-07-03T10:32:42Z</time>
      </trkpt>
      <trkpt lat="45.85138913244009" lon="7.169248731806874">
        <ele>1973.72</ele>
        <time>2016-07-03T10:33:02Z</time>
      </trkpt>
      <trkpt lat="45.851372368633747" lon="7.169257281348109">
        <ele>1973.72</ele>
        <time>2016-07-03T10:33:22Z</time>
      </trkpt>
      <trkpt lat="45.851356107741594" lon="7.169234566390514">
        <ele>1974.2</ele>
        <time>2016-07-03T10:33:42Z</time>
      </trkpt>
      <trkpt lat="45.851364824920893" lon="7.169241607189179">
        <ele>1973.72</ele>
        <time>2016-07-03T10:34:08Z</time>
      </trkpt>
      <trkpt lat="45.851362980902195" lon="7.169233644381166">
        <ele>1973.72</ele>
        <time>2016-07-03T10:34:22Z</time>
      </trkpt>
      <trkpt lat="45.851352503523231" lon="7.169226603582501">
        <ele>1974.2</ele>
        <time>2016-07-03T10:34:43Z</time>
      </trkpt>
      <trkpt lat="45.851366752758622" lon="7.169227693229914">
        <ele>1974.2</ele>
        <time>2016-07-03T10:35:01Z</time>
      </trkpt>
      <trkpt lat="45.851390222087502" lon="7.169231548905373">
        <ele>1974.2</ele>
        <time>2016-07-03T10:35:23Z</time>
      </trkpt>
      <trkpt lat="45.851362477988005" lon="7.16921235434711">
        <ele>1974.2</ele>
        <time>2016-07-03T10:35:42Z</time>
      </trkpt>
      <trkpt lat="45.851381504908204" lon="7.169222915545106">
        <ele>1974.6900000000001</ele>
        <time>2016-07-03T10:36:04Z</time>
      </trkpt>
      <trkpt lat="45.851360466331244" lon="7.169219227507711">
        <ele>1975.1700000000001</ele>
        <time>2016-07-03T10:36:24Z</time>
      </trkpt>
      <trkpt lat="45.851355018094182" lon="7.169228699058294">
        <ele>1974.6900000000001</ele>
        <time>2016-07-03T10:36:50Z</time>
      </trkpt>
      <trkpt lat="45.851361639797688" lon="7.169232722371817">
        <ele>1974.2</ele>
        <time>2016-07-03T10:37:05Z</time>
      </trkpt>
      <trkpt lat="45.851363399997354" lon="7.169237835332751">
        <ele>1974.2</ele>
        <time>2016-07-03T10:37:22Z</time>
      </trkpt>
      <trkpt lat="45.851381001994014" lon="7.169249067083001">
        <ele>1974.6900000000001</ele>
        <time>2016-07-03T10:37:40Z</time>
      </trkpt>
      <trkpt lat="45.851380582898855" lon="7.169244876131415">
        <ele>1974.2</ele>
        <time>2016-07-03T10:37:54Z</time>
      </trkpt>
      <trkpt lat="45.851384187117219" lon="7.16924118809402">
        <ele>1974.2</ele>
        <time>2016-07-03T10:38:08Z</time>
      </trkpt>
      <trkpt lat="45.85134906694293" lon="7.169213946908712">
        <ele>1974.2</ele>
        <time>2016-07-03T10:38:30Z</time>
      </trkpt>
      <trkpt lat="45.851349150761962" lon="7.169222328811884">
        <ele>1974.6900000000001</ele>
        <time>2016-07-03T10:38:45Z</time>
      </trkpt>
      <trkpt lat="45.851355688646436" lon="7.169229201972485">
        <ele>1974.2</ele>
        <time>2016-07-03T10:39:02Z</time>
      </trkpt>
      <trkpt lat="45.851341020315886" lon="7.169229537248612">
        <ele>1974.2</ele>
        <time>2016-07-03T10:39:30Z</time>
      </trkpt>
      <trkpt lat="45.851351581513882" lon="7.169229872524738">
        <ele>1974.2</ele>
        <time>2016-07-03T10:39:45Z</time>
      </trkpt>
      <trkpt lat="45.851377649232745" lon="7.169249905273318">
        <ele>1974.2</ele>
        <time>2016-07-03T10:40:02Z</time>
      </trkpt>
      <trkpt lat="45.851359628140926" lon="7.169224508106709">
        <ele>1974.6900000000001</ele>
        <time>2016-07-03T10:40:26Z</time>
      </trkpt>
      <trkpt lat="45.851352252066135" lon="7.169233812019229">
        <ele>1975.1700000000001</ele>
        <time>2016-07-03T10:40:54Z</time>
      </trkpt>
      <trkpt lat="45.851347139105201" lon="7.169234063476324">
        <ele>1974.6900000000001</ele>
        <time>2016-07-03T10:41:10Z</time>
      </trkpt>
      <trkpt lat="45.851346803829074" lon="7.169230375438929">
        <ele>1975.1700000000001</ele>
        <time>2016-07-03T10:41:30Z</time>
      </trkpt>
      <trkpt lat="45.851313779130578" lon="7.169200954958797">
        <ele>1975.1700000000001</ele>
        <time>2016-07-03T10:41:56Z</time>
      </trkpt>
      <trkpt lat="45.851306738331914" lon="7.169206319376826">
        <ele>1974.6900000000001</ele>
        <time>2016-07-03T10:42:09Z</time>
      </trkpt>
      <trkpt lat="45.851295003667474" lon="7.169204223901033">
        <ele>1974.6900000000001</ele>
        <time>2016-07-03T10:42:24Z</time>
      </trkpt>
      <trkpt lat="45.85130313411355" lon="7.16921235434711">
        <ele>1975.1700000000001</ele>
        <time>2016-07-03T10:42:42Z</time>
      </trkpt>
      <trkpt lat="45.851318892091513" lon="7.169214030727744">
        <ele>1975.1700000000001</ele>
        <time>2016-07-03T10:42:59Z</time>
      </trkpt>
      <trkpt lat="45.851320652291179" lon="7.169221239164472">
        <ele>1975.6500000000001</ele>
        <time>2016-07-03T10:43:14Z</time>
      </trkpt>
      <trkpt lat="45.851310845464468" lon="7.169219478964806">
        <ele>1976.1300000000001</ele>
        <time>2016-07-03T10:43:37Z</time>
      </trkpt>
      <trkpt lat="45.851351246237755" lon="7.169231297448278">
        <ele>1976.1300000000001</ele>
        <time>2016-07-03T10:43:58Z</time>
      </trkpt>
      <trkpt lat="45.85135786794126" lon="7.169236494228244">
        <ele>1976.1300000000001</ele>
        <time>2016-07-03T10:44:14Z</time>
      </trkpt>
      <trkpt lat="45.851355772465467" lon="7.169243870303035">
        <ele>1975.6500000000001</ele>
        <time>2016-07-03T10:44:27Z</time>
      </trkpt>
      <trkpt lat="45.851327273994684" lon="7.169224675744772">
        <ele>1977.0899999999999</ele>
        <time>2016-07-03T10:44:53Z</time>
      </trkpt>
      <trkpt lat="45.851332554593682" lon="7.169223418459296">
        <ele>1976.6099999999999</ele>
        <time>2016-07-03T10:45:10Z</time>
      </trkpt>
      <trkpt lat="45.851373458281159" lon="7.169226184487343">
        <ele>1977.0899999999999</ele>
        <time>2016-07-03T10:45:28Z</time>
      </trkpt>
      <trkpt lat="45.851371195167303" lon="7.169190226122737">
        <ele>1977.5699999999999</ele>
        <time>2016-07-03T10:45:36Z</time>
      </trkpt>
      <trkpt lat="45.851354263722897" lon="7.169179413467646">
        <ele>1977.0899999999999</ele>
        <time>2016-07-03T10:45:47Z</time>
      </trkpt>
      <trkpt lat="45.851367590948939" lon="7.169167846441269">
        <ele>1977.0899999999999</ele>
        <time>2016-07-03T10:46:08Z</time>
      </trkpt>
      <trkpt lat="45.851381337270141" lon="7.169160805642605">
        <ele>1977.0899999999999</ele>
        <time>2016-07-03T10:46:31Z</time>
      </trkpt>
      <trkpt lat="45.851360382512212" lon="7.169168097898364">
        <ele>1976.6099999999999</ele>
        <time>2016-07-03T10:46:43Z</time>
      </trkpt>
      <trkpt lat="45.851359041407704" lon="7.169162062928081">
        <ele>1976.6099999999999</ele>
        <time>2016-07-03T10:46:56Z</time>
      </trkpt>
      <trkpt lat="45.85135686211288" lon="7.169174971058965">
        <ele>1976.6099999999999</ele>
        <time>2016-07-03T10:47:21Z</time>
      </trkpt>
      <trkpt lat="45.851355101913214" lon="7.169160638004541">
        <ele>1976.6099999999999</ele>
        <time>2016-07-03T10:47:50Z</time>
      </trkpt>
      <trkpt lat="45.851351246237755" lon="7.169184861704707">
        <ele>1977.0899999999999</ele>
        <time>2016-07-03T10:48:08Z</time>
      </trkpt>
      <trkpt lat="45.851345295086503" lon="7.169177150353789">
        <ele>1977.0899999999999</ele>
        <time>2016-07-03T10:48:20Z</time>
      </trkpt>
      <trkpt lat="45.851347893476486" lon="7.169171199202538">
        <ele>1977.5699999999999</ele>
        <time>2016-07-03T10:48:38Z</time>
      </trkpt>
      <trkpt lat="45.851347977295518" lon="7.169191399589181">
        <ele>1977.0899999999999</ele>
        <time>2016-07-03T10:48:49Z</time>
      </trkpt>
      <trkpt lat="45.851351413875818" lon="7.169192992150784">
        <ele>1977.5699999999999</ele>
        <time>2016-07-03T10:49:02Z</time>
      </trkpt>
      <trkpt lat="45.851343031972647" lon="7.169223669916391">
        <ele>1977.0899999999999</ele>
        <time>2016-07-03T10:49:12Z</time>
      </trkpt>
      <trkpt lat="45.85135493427515" lon="7.16921872459352">
        <ele>1977.5699999999999</ele>
        <time>2016-07-03T10:49:29Z</time>
      </trkpt>
      <trkpt lat="45.851357784122229" lon="7.169246468693018">
        <ele>1977.5699999999999</ele>
        <time>2016-07-03T10:49:56Z</time>
      </trkpt>
      <trkpt lat="45.851357700303197" lon="7.169250408187509">
        <ele>1977.5699999999999</ele>
        <time>2016-07-03T10:50:19Z</time>
      </trkpt>
      <trkpt lat="45.851372787728906" lon="7.1692646574229">
        <ele>1977.5699999999999</ele>
        <time>2016-07-03T10:50:35Z</time>
      </trkpt>
      <trkpt lat="45.851361220702529" lon="7.169257365167141">
        <ele>1977.5699999999999</ele>
        <time>2016-07-03T10:51:00Z</time>
      </trkpt>
      <trkpt lat="45.851350240409374" lon="7.169249067083001">
        <ele>1977.5699999999999</ele>
        <time>2016-07-03T10:51:24Z</time>
      </trkpt>
      <trkpt lat="45.851368345320225" lon="7.16926759108901">
        <ele>1978.05</ele>
        <time>2016-07-03T10:51:48Z</time>
      </trkpt>
      <trkpt lat="45.851353257894516" lon="7.169248983263969">
        <ele>1978.05</ele>
        <time>2016-07-03T10:52:17Z</time>
      </trkpt>
      <trkpt lat="45.851349821314216" lon="7.169221993535757">
        <ele>1977.0899999999999</ele>
        <time>2016-07-03T10:52:41Z</time>
      </trkpt>
      <trkpt lat="45.85136029869318" lon="7.169244037941098">
        <ele>1978.05</ele>
        <time>2016-07-03T10:53:11Z</time>
      </trkpt>
      <trkpt lat="45.851364322006702" lon="7.169239595532417">
        <ele>1978.53</ele>
        <time>2016-07-03T10:53:27Z</time>
      </trkpt>
      <trkpt lat="45.851342529058456" lon="7.169190226122737">
        <ele>1978.53</ele>
        <time>2016-07-03T10:53:41Z</time>
      </trkpt>
      <trkpt lat="45.851338002830744" lon="7.169200703501701">
        <ele>1979.01</ele>
        <time>2016-07-03T10:53:55Z</time>
      </trkpt>
      <trkpt lat="45.851353593170643" lon="7.169193411245942">
        <ele>1979.49</ele>
        <time>2016-07-03T10:54:05Z</time>
      </trkpt>
      <trkpt lat="45.851349318400025" lon="7.16920891776681">
        <ele>1979.01</ele>
        <time>2016-07-03T10:54:24Z</time>
      </trkpt>
      <trkpt lat="45.851326184347272" lon="7.169282175600529">
        <ele>1979.01</ele>
        <time>2016-07-03T10:54:36Z</time>
      </trkpt>
      <trkpt lat="45.851335907354951" lon="7.169246887788177">
        <ele>1979.01</ele>
        <time>2016-07-03T10:54:49Z</time>
      </trkpt>
      <trkpt lat="45.85132660344243" lon="7.169249737635255">
        <ele>1978.05</ele>
        <time>2016-07-03T10:55:04Z</time>
      </trkpt>
      <trkpt lat="45.851349234580994" lon="7.169214617460966">
        <ele>1979.01</ele>
        <time>2016-07-03T10:55:13Z</time>
      </trkpt>
      <trkpt lat="45.85135736502707" lon="7.169125769287348">
        <ele>1979.01</ele>
        <time>2016-07-03T10:55:24Z</time>
      </trkpt>
      <trkpt lat="45.851384606212378" lon="7.169035160914064">
        <ele>1980.45</ele>
        <time>2016-07-03T10:55:37Z</time>
      </trkpt>
      <trkpt lat="45.851399945095181" lon="7.168995514512062">
        <ele>1980.9300000000001</ele>
        <time>2016-07-03T10:55:52Z</time>
      </trkpt>
      <trkpt lat="45.851406482979655" lon="7.168892752379179">
        <ele>1981.9000000000001</ele>
        <time>2016-07-03T10:56:03Z</time>
      </trkpt>
      <trkpt lat="45.851396257057786" lon="7.168856961652637">
        <ele>1982.8599999999999</ele>
        <time>2016-07-03T10:56:14Z</time>
      </trkpt>
      <trkpt lat="45.851411763578653" lon="7.168826954439282">
        <ele>1982.8599999999999</ele>
        <time>2016-07-03T10:56:24Z</time>
      </trkpt>
      <trkpt lat="45.851426012814045" lon="7.168746907263994">
        <ele>1983.3399999999999</ele>
        <time>2016-07-03T10:56:32Z</time>
      </trkpt>
      <trkpt lat="45.851462557911873" lon="7.168639870360494">
        <ele>1983.3399999999999</ele>
        <time>2016-07-03T10:56:42Z</time>
      </trkpt>
      <trkpt lat="45.851501366123557" lon="7.168496204540134">
        <ele>1984.3</ele>
        <time>2016-07-03T10:56:54Z</time>
      </trkpt>
      <trkpt lat="45.851548723876476" lon="7.168408278375864">
        <ele>1984.78</ele>
        <time>2016-07-03T10:57:04Z</time>
      </trkpt>
      <trkpt lat="45.851590633392334" lon="7.168331081047654">
        <ele>1985.74</ele>
        <time>2016-07-03T10:57:14Z</time>
      </trkpt>
      <trkpt lat="45.851637069135904" lon="7.168219769373536">
        <ele>1987.1800000000001</ele>
        <time>2016-07-03T10:57:27Z</time>
      </trkpt>
      <trkpt lat="45.851681996136904" lon="7.168112564831972">
        <ele>1988.1400000000001</ele>
        <time>2016-07-03T10:57:39Z</time>
      </trkpt>
      <trkpt lat="45.85169892758131" lon="7.168038049712777">
        <ele>1989.5899999999999</ele>
        <time>2016-07-03T10:57:50Z</time>
      </trkpt>
      <trkpt lat="45.851716864854097" lon="7.167909303680062">
        <ele>1991.03</ele>
        <time>2016-07-03T10:58:02Z</time>
      </trkpt>
      <trkpt lat="45.85173019208014" lon="7.167801596224308">
        <ele>1992.47</ele>
        <time>2016-07-03T10:58:13Z</time>
      </trkpt>
      <trkpt lat="45.851750141009688" lon="7.167688189074397">
        <ele>1993.9100000000001</ele>
        <time>2016-07-03T10:58:27Z</time>
      </trkpt>
      <trkpt lat="45.85176388733089" lon="7.16759204864502">
        <ele>1996.3199999999999</ele>
        <time>2016-07-03T10:58:38Z</time>
      </trkpt>
      <trkpt lat="45.851792637258768" lon="7.16747478581965">
        <ele>1997.76</ele>
        <time>2016-07-03T10:58:51Z</time>
      </trkpt>
      <trkpt lat="45.851810071617365" lon="7.167404042556882">
        <ele>1999.6800000000001</ele>
        <time>2016-07-03T10:59:01Z</time>
      </trkpt>
      <trkpt lat="45.85186991840601" lon="7.167265405878425">
        <ele>2001.1199999999999</ele>
        <time>2016-07-03T10:59:14Z</time>
      </trkpt>
      <trkpt lat="45.851891292259097" lon="7.167193572968245">
        <ele>2002.0799999999999</ele>
        <time>2016-07-03T10:59:26Z</time>
      </trkpt>
      <trkpt lat="45.851913001388311" lon="7.167167086154223">
        <ele>2002.5599999999999</ele>
        <time>2016-07-03T10:59:30Z</time>
      </trkpt>
      <trkpt lat="45.851954910904169" lon="7.16707656159997">
        <ele>2004.01</ele>
        <time>2016-07-03T10:59:43Z</time>
      </trkpt>
      <trkpt lat="45.852035628631711" lon="7.166959047317505">
        <ele>2005.45</ele>
        <time>2016-07-03T10:59:58Z</time>
      </trkpt>
      <trkpt lat="45.852087261155248" lon="7.166853435337544">
        <ele>2006.8900000000001</ele>
        <time>2016-07-03T11:00:11Z</time>
      </trkpt>
      <trkpt lat="45.852164626121521" lon="7.166776321828365">
        <ele>2009.77</ele>
        <time>2016-07-03T11:00:26Z</time>
      </trkpt>
      <trkpt lat="45.85222514346242" lon="7.166701136156917">
        <ele>2011.7</ele>
        <time>2016-07-03T11:00:40Z</time>
      </trkpt>
      <trkpt lat="45.852294461801648" lon="7.16662896797061">
        <ele>2012.6600000000001</ele>
        <time>2016-07-03T11:00:52Z</time>
      </trkpt>
      <trkpt lat="45.852347100153565" lon="7.166569959372282">
        <ele>2014.0999999999999</ele>
        <time>2016-07-03T11:01:03Z</time>
      </trkpt>
      <trkpt lat="45.852397559210658" lon="7.166517488658428">
        <ele>2016.02</ele>
        <time>2016-07-03T11:01:15Z</time>
      </trkpt>
      <trkpt lat="45.852444162592292" lon="7.16649217531085">
        <ele>2019.3900000000001</ele>
        <time>2016-07-03T11:01:25Z</time>
      </trkpt>
      <trkpt lat="45.852494621649384" lon="7.166495276615024">
        <ele>2019.3900000000001</ele>
        <time>2016-07-03T11:01:36Z</time>
      </trkpt>
      <trkpt lat="45.852566538378596" lon="7.166475327685475">
        <ele>2021.3099999999999</ele>
        <time>2016-07-03T11:01:49Z</time>
      </trkpt>
      <trkpt lat="45.85259310901165" lon="7.166462251916528">
        <ele>2022.27</ele>
        <time>2016-07-03T11:01:56Z</time>
      </trkpt>
      <trkpt lat="45.852656308561563" lon="7.166436519473791">
        <ele>2023.71</ele>
        <time>2016-07-03T11:02:08Z</time>
      </trkpt>
      <trkpt lat="45.85270551033318" lon="7.166372230276465">
        <ele>2025.1500000000001</ele>
        <time>2016-07-03T11:02:18Z</time>
      </trkpt>
      <trkpt lat="45.852721435949206" lon="7.166307773441076">
        <ele>2026.5999999999999</ele>
        <time>2016-07-03T11:02:26Z</time>
      </trkpt>
      <trkpt lat="45.852765021845698" lon="7.166236527264118">
        <ele>2027.5599999999999</ele>
        <time>2016-07-03T11:02:37Z</time>
      </trkpt>
      <trkpt lat="45.852797208353877" lon="7.166140554472804">
        <ele>2028.52</ele>
        <time>2016-07-03T11:02:50Z</time>
      </trkpt>
      <trkpt lat="45.852826880291104" lon="7.166035948321223">
        <ele>2029.96</ele>
        <time>2016-07-03T11:03:02Z</time>
      </trkpt>
      <trkpt lat="45.852874489501119" lon="7.165933270007372">
        <ele>2031.4000000000001</ele>
        <time>2016-07-03T11:03:12Z</time>
      </trkpt>
      <trkpt lat="45.852907095104456" lon="7.165854061022401">
        <ele>2032.8399999999999</ele>
        <time>2016-07-03T11:03:21Z</time>
      </trkpt>
      <trkpt lat="45.852955039590597" lon="7.165799075737596">
        <ele>2034.77</ele>
        <time>2016-07-03T11:03:29Z</time>
      </trkpt>
      <trkpt lat="45.852979011833668" lon="7.165804272517562">
        <ele>2036.21</ele>
        <time>2016-07-03T11:03:34Z</time>
      </trkpt>
      <trkpt lat="45.853032572194934" lon="7.165775941684842">
        <ele>2036.6900000000001</ele>
        <time>2016-07-03T11:03:45Z</time>
      </trkpt>
      <trkpt lat="45.853073727339506" lon="7.165743922814727">
        <ele>2037.6500000000001</ele>
        <time>2016-07-03T11:03:51Z</time>
      </trkpt>
      <trkpt lat="45.853129550814629" lon="7.165626492351294">
        <ele>2039.0899999999999</ele>
        <time>2016-07-03T11:04:06Z</time>
      </trkpt>
      <trkpt lat="45.853151511400938" lon="7.165560610592365">
        <ele>2039.5699999999999</ele>
        <time>2016-07-03T11:04:16Z</time>
      </trkpt>
      <trkpt lat="45.85319509729743" lon="7.165470002219081">
        <ele>2040.54</ele>
        <time>2016-07-03T11:04:26Z</time>
      </trkpt>
      <trkpt lat="45.85323566570878" lon="7.165410993620753">
        <ele>2041.5</ele>
        <time>2016-07-03T11:04:35Z</time>
      </trkpt>
      <trkpt lat="45.853259889408946" lon="7.165398001670837">
        <ele>2041.98</ele>
        <time>2016-07-03T11:04:43Z</time>
      </trkpt>
      <trkpt lat="45.853330716490746" lon="7.165297921746969">
        <ele>2042.9400000000001</ele>
        <time>2016-07-03T11:04:56Z</time>
      </trkpt>
      <trkpt lat="45.853386959061027" lon="7.16523639857769">
        <ele>2043.9000000000001</ele>
        <time>2016-07-03T11:05:07Z</time>
      </trkpt>
      <trkpt lat="45.853459965437651" lon="7.165134390816093">
        <ele>2045.3399999999999</ele>
        <time>2016-07-03T11:05:21Z</time>
      </trkpt>
      <trkpt lat="45.853518303483725" lon="7.165054008364677">
        <ele>2046.3</ele>
        <time>2016-07-03T11:05:31Z</time>
      </trkpt>
      <trkpt lat="45.853574713692069" lon="7.164973625913262">
        <ele>2047.26</ele>
        <time>2016-07-03T11:05:42Z</time>
      </trkpt>
      <trkpt lat="45.853644032031298" lon="7.164899697527289">
        <ele>2048.23</ele>
        <time>2016-07-03T11:05:53Z</time>
      </trkpt>
      <trkpt lat="45.853670770302415" lon="7.164844376966357">
        <ele>2049.6700000000001</ele>
        <time>2016-07-03T11:06:04Z</time>
      </trkpt>
      <trkpt lat="45.853672530502081" lon="7.16479953378439">
        <ele>2049.1900000000001</ele>
        <time>2016-07-03T11:06:08Z</time>
      </trkpt>
      <trkpt lat="45.853745620697737" lon="7.16469744220376">
        <ele>2050.6300000000001</ele>
        <time>2016-07-03T11:06:21Z</time>
      </trkpt>
      <trkpt lat="45.853814436122775" lon="7.16463047079742">
        <ele>2052.0700000000002</ele>
        <time>2016-07-03T11:06:33Z</time>
      </trkpt>
      <trkpt lat="45.853872187435627" lon="7.164545813575387">
        <ele>2054.4699999999998</ele>
        <time>2016-07-03T11:06:47Z</time>
      </trkpt>
      <trkpt lat="45.853933710604906" lon="7.164539024233818">
        <ele>2056.4000000000001</ele>
        <time>2016-07-03T11:07:01Z</time>
      </trkpt>
      <trkpt lat="45.853965561836958" lon="7.1645278763026">
        <ele>2058.3200000000002</ele>
        <time>2016-07-03T11:07:10Z</time>
      </trkpt>
      <trkpt lat="45.853968327865005" lon="7.164472471922636">
        <ele>2059.7600000000002</ele>
        <time>2016-07-03T11:07:20Z</time>
      </trkpt>
      <trkpt lat="45.853976290673018" lon="7.164404494687915">
        <ele>2061.1999999999998</ele>
        <time>2016-07-03T11:07:31Z</time>
      </trkpt>
      <trkpt lat="45.854013841599226" lon="7.164363004267216">
        <ele>2062.1700000000001</ele>
        <time>2016-07-03T11:07:41Z</time>
      </trkpt>
      <trkpt lat="45.854033036157489" lon="7.1642723120749">
        <ele>2063.1300000000001</ele>
        <time>2016-07-03T11:07:51Z</time>
      </trkpt>
      <trkpt lat="45.854047620669007" lon="7.164170388132334">
        <ele>2063.6100000000001</ele>
        <time>2016-07-03T11:08:02Z</time>
      </trkpt>
      <trkpt lat="45.854051308706403" lon="7.164121102541685">
        <ele>2063.6100000000001</ele>
        <time>2016-07-03T11:08:06Z</time>
      </trkpt>
      <trkpt lat="45.854088608175516" lon="7.164028063416481">
        <ele>2064.0900000000001</ele>
        <time>2016-07-03T11:08:16Z</time>
      </trkpt>
      <trkpt lat="45.854114172980189" lon="7.163944160565734">
        <ele>2064.5700000000002</ele>
        <time>2016-07-03T11:08:25Z</time>
      </trkpt>
      <trkpt lat="45.854144347831607" lon="7.163805440068245">
        <ele>2066.0100000000002</ele>
        <time>2016-07-03T11:08:38Z</time>
      </trkpt>
      <trkpt lat="45.85418407805264" lon="7.16368549503386">
        <ele>2066.4899999999998</ele>
        <time>2016-07-03T11:08:50Z</time>
      </trkpt>
      <trkpt lat="45.854248115792871" lon="7.163602262735367">
        <ele>2067.4499999999998</ele>
        <time>2016-07-03T11:09:01Z</time>
      </trkpt>
      <trkpt lat="45.854304358363152" lon="7.163501093164086">
        <ele>2067.9299999999998</ele>
        <time>2016-07-03T11:09:13Z</time>
      </trkpt>
      <trkpt lat="45.854349620640278" lon="7.163427332416177">
        <ele>2069.8600000000001</ele>
        <time>2016-07-03T11:09:23Z</time>
      </trkpt>
      <trkpt lat="45.854422627016902" lon="7.163329515606165">
        <ele>2071.7800000000002</ele>
        <time>2016-07-03T11:09:36Z</time>
      </trkpt>
      <trkpt lat="45.854446431621909" lon="7.163279475644231">
        <ele>2072.2600000000002</ele>
        <time>2016-07-03T11:09:43Z</time>
      </trkpt>
      <trkpt lat="45.854506194591522" lon="7.163159279152751">
        <ele>2072.7399999999998</ele>
        <time>2016-07-03T11:09:55Z</time>
      </trkpt>
      <trkpt lat="45.8545764349401" lon="7.16307227499783">
        <ele>2074.1799999999998</ele>
        <time>2016-07-03T11:10:08Z</time>
      </trkpt>
      <trkpt lat="45.85460526868701" lon="7.163054589182138">
        <ele>2074.6599999999999</ele>
        <time>2016-07-03T11:10:20Z</time>
      </trkpt>
      <trkpt lat="45.854683052748442" lon="7.163038495928049">
        <ele>2077.0700000000002</ele>
        <time>2016-07-03T11:10:33Z</time>
      </trkpt>
      <trkpt lat="45.854750024154782" lon="7.162965573370457">
        <ele>2077.5500000000002</ele>
        <time>2016-07-03T11:10:45Z</time>
      </trkpt>
      <trkpt lat="45.854811714962125" lon="7.162884017452598">
        <ele>2078.0300000000002</ele>
        <time>2016-07-03T11:10:55Z</time>
      </trkpt>
      <trkpt lat="45.85487843491137" lon="7.162804137915373">
        <ele>2078.5100000000002</ele>
        <time>2016-07-03T11:11:05Z</time>
      </trkpt>
      <trkpt lat="45.854904083535075" lon="7.162763485684991">
        <ele>2078.5100000000002</ele>
        <time>2016-07-03T11:11:09Z</time>
      </trkpt>
      <trkpt lat="45.854975916445255" lon="7.162691820412874">
        <ele>2079.9499999999998</ele>
        <time>2016-07-03T11:11:20Z</time>
      </trkpt>
      <trkpt lat="45.855045905336738" lon="7.162617975845933">
        <ele>2080.9099999999999</ele>
        <time>2016-07-03T11:11:31Z</time>
      </trkpt>
      <trkpt lat="45.855120252817869" lon="7.162543628364801">
        <ele>2081.8699999999999</ele>
        <time>2016-07-03T11:11:44Z</time>
      </trkpt>
      <trkpt lat="45.855202982202172" lon="7.162499707192183">
        <ele>2083.3099999999999</ele>
        <time>2016-07-03T11:11:57Z</time>
      </trkpt>
      <trkpt lat="45.8552619908005" lon="7.162452768534422">
        <ele>2084.2800000000002</ele>
        <time>2016-07-03T11:12:07Z</time>
      </trkpt>
      <trkpt lat="45.855355616658926" lon="7.162417145445943">
        <ele>2085.2399999999998</ele>
        <time>2016-07-03T11:12:19Z</time>
      </trkpt>
      <trkpt lat="45.855401717126369" lon="7.162387724965811">
        <ele>2086.6799999999998</ele>
        <time>2016-07-03T11:12:31Z</time>
      </trkpt>
      <trkpt lat="45.855472292751074" lon="7.16235444881022">
        <ele>2088.1199999999999</ele>
        <time>2016-07-03T11:12:42Z</time>
      </trkpt>
      <trkpt lat="45.855527529492974" lon="7.162325112149119">
        <ele>2089.5599999999999</ele>
        <time>2016-07-03T11:12:53Z</time>
      </trkpt>
      <trkpt lat="45.85558058694005" lon="7.162278341129422">
        <ele>2091</ele>
        <time>2016-07-03T11:13:03Z</time>
      </trkpt>
      <trkpt lat="45.855614366009831" lon="7.162239700555801">
        <ele>2092.4499999999998</ele>
        <time>2016-07-03T11:13:14Z</time>
      </trkpt>
      <trkpt lat="45.855702711269259" lon="7.162192929536104">
        <ele>2094.3699999999999</ele>
        <time>2016-07-03T11:13:28Z</time>
      </trkpt>
      <trkpt lat="45.855812095105648" lon="7.162205250933766">
        <ele>2096.29</ele>
        <time>2016-07-03T11:13:41Z</time>
      </trkpt>
      <trkpt lat="45.855884766206145" lon="7.16217708773911">
        <ele>2098.6999999999998</ele>
        <time>2016-07-03T11:13:54Z</time>
      </trkpt>
      <trkpt lat="45.85591921582818" lon="7.162201730534434">
        <ele>2099.1799999999998</ele>
        <time>2016-07-03T11:14:07Z</time>
      </trkpt>
      <trkpt lat="45.855966825038195" lon="7.162165101617575">
        <ele>2099.6599999999999</ele>
        <time>2016-07-03T11:14:18Z</time>
      </trkpt>
      <trkpt lat="45.856033712625504" lon="7.162118162959814">
        <ele>2101.5799999999999</ele>
        <time>2016-07-03T11:14:31Z</time>
      </trkpt>
      <trkpt lat="45.856137815862894" lon="7.162118749693036">
        <ele>2104.46</ele>
        <time>2016-07-03T11:14:46Z</time>
      </trkpt>
      <trkpt lat="45.856192382052541" lon="7.162102069705725">
        <ele>2105.9099999999999</ele>
        <time>2016-07-03T11:14:57Z</time>
      </trkpt>
      <trkpt lat="45.856255162507296" lon="7.162034679204226">
        <ele>2107.3499999999999</ele>
        <time>2016-07-03T11:15:09Z</time>
      </trkpt>
      <trkpt lat="45.856324732303619" lon="7.16202755458653">
        <ele>2107.8299999999999</ele>
        <time>2016-07-03T11:15:22Z</time>
      </trkpt>
      <trkpt lat="45.856367480009794" lon="7.162016909569502">
        <ele>2111.6700000000001</ele>
        <time>2016-07-03T11:15:32Z</time>
      </trkpt>
      <trkpt lat="45.856437971815467" lon="7.162050772458315">
        <ele>2111.1900000000001</ele>
        <time>2016-07-03T11:15:44Z</time>
      </trkpt>
      <trkpt lat="45.856479713693261" lon="7.162022860720754">
        <ele>2112.1500000000001</ele>
        <time>2016-07-03T11:15:57Z</time>
      </trkpt>
      <trkpt lat="45.856463117524981" lon="7.162012048065662">
        <ele>2112.6300000000001</ele>
        <time>2016-07-03T11:16:14Z</time>
      </trkpt>
      <trkpt lat="45.856481557711959" lon="7.161993188783526">
        <ele>2112.6300000000001</ele>
        <time>2016-07-03T11:16:26Z</time>
      </trkpt>
      <trkpt lat="45.856520365923643" lon="7.161981035023928">
        <ele>2113.1199999999999</ele>
        <time>2016-07-03T11:16:31Z</time>
      </trkpt>
      <trkpt lat="45.85661256685853" lon="7.161915572360158">
        <ele>2114.0799999999999</ele>
        <time>2016-07-03T11:16:44Z</time>
      </trkpt>
      <trkpt lat="45.856691608205438" lon="7.161893025040627">
        <ele>2116</ele>
        <time>2016-07-03T11:16:56Z</time>
      </trkpt>
      <trkpt lat="45.856762770563364" lon="7.161836698651314">
        <ele>2117.4400000000001</ele>
        <time>2016-07-03T11:17:08Z</time>
      </trkpt>
      <trkpt lat="45.856839632615447" lon="7.161822030320764">
        <ele>2119.3600000000001</ele>
        <time>2016-07-03T11:17:19Z</time>
      </trkpt>
      <trkpt lat="45.856904005631804" lon="7.161795794963837">
        <ele>2120.8099999999999</ele>
        <time>2016-07-03T11:17:29Z</time>
      </trkpt>
      <trkpt lat="45.856967121362686" lon="7.161789927631617">
        <ele>2122.25</ele>
        <time>2016-07-03T11:17:42Z</time>
      </trkpt>
      <trkpt lat="45.857053874060512" lon="7.161768637597561">
        <ele>2123.6900000000001</ele>
        <time>2016-07-03T11:17:55Z</time>
      </trkpt>
      <trkpt lat="45.857149930670857" lon="7.161727398633957">
        <ele>2125.6100000000001</ele>
        <time>2016-07-03T11:18:08Z</time>
      </trkpt>
      <trkpt lat="45.857221679762006" lon="7.16171775944531">
        <ele>2127.0500000000002</ele>
        <time>2016-07-03T11:18:18Z</time>
      </trkpt>
      <trkpt lat="45.857313964515924" lon="7.161692278459668">
        <ele>2128.5</ele>
        <time>2016-07-03T11:18:30Z</time>
      </trkpt>
      <trkpt lat="45.857379343360662" lon="7.161683309823275">
        <ele>2129.9400000000001</ele>
        <time>2016-07-03T11:18:42Z</time>
      </trkpt>
      <trkpt lat="45.857393341138959" lon="7.161683812737465">
        <ele>2129.9400000000001</ele>
        <time>2016-07-03T11:18:56Z</time>
      </trkpt>
      <trkpt lat="45.857476992532611" lon="7.161633772775531">
        <ele>2130.4200000000001</ele>
        <time>2016-07-03T11:19:12Z</time>
      </trkpt>
      <trkpt lat="45.85755025036633" lon="7.161548025906086">
        <ele>2132.8200000000002</ele>
        <time>2016-07-03T11:19:24Z</time>
      </trkpt>
      <trkpt lat="45.857583275064826" lon="7.161485413089395">
        <ele>2133.7800000000002</ele>
        <time>2016-07-03T11:19:32Z</time>
      </trkpt>
      <trkpt lat="45.857594506815076" lon="7.161474013701081">
        <ele>2135.23</ele>
        <time>2016-07-03T11:19:33Z</time>
      </trkpt>
      <trkpt lat="45.857634739950299" lon="7.1614436712116">
        <ele>2135.23</ele>
        <time>2016-07-03T11:19:40Z</time>
      </trkpt>
      <trkpt lat="45.857728952541947" lon="7.161417519673705">
        <ele>2136.6700000000001</ele>
        <time>2016-07-03T11:19:51Z</time>
      </trkpt>
      <trkpt lat="45.857805563136935" lon="7.161355912685394">
        <ele>2137.6300000000001</ele>
        <time>2016-07-03T11:20:03Z</time>
      </trkpt>
      <trkpt lat="45.857828697189689" lon="7.161332443356514">
        <ele>2138.1100000000001</ele>
        <time>2016-07-03T11:20:07Z</time>
      </trkpt>
      <trkpt lat="45.85788200609386" lon="7.161279302090406">
        <ele>2139.5500000000002</ele>
        <time>2016-07-03T11:20:16Z</time>
      </trkpt>
      <trkpt lat="45.857957191765308" lon="7.161221215501428">
        <ele>2140.9899999999998</ele>
        <time>2016-07-03T11:20:28Z</time>
      </trkpt>
      <trkpt lat="45.858026258647442" lon="7.161161787807941">
        <ele>2142.4400000000001</ele>
        <time>2016-07-03T11:20:38Z</time>
      </trkpt>
      <trkpt lat="45.858094738796353" lon="7.16110554523766">
        <ele>2144.3600000000001</ele>
        <time>2016-07-03T11:20:50Z</time>
      </trkpt>
      <trkpt lat="45.858156345784664" lon="7.161080986261368">
        <ele>2145.3200000000002</ele>
        <time>2016-07-03T11:21:00Z</time>
      </trkpt>
      <trkpt lat="45.85818693973124" lon="7.16106103733182">
        <ele>2146.2800000000002</ele>
        <time>2016-07-03T11:21:06Z</time>
      </trkpt>
      <trkpt lat="45.858266232535243" lon="7.161016194149852">
        <ele>2146.7600000000002</ele>
        <time>2016-07-03T11:21:16Z</time>
      </trkpt>
      <trkpt lat="45.858294479548931" lon="7.161014350131154">
        <ele>2148.1999999999998</ele>
        <time>2016-07-03T11:21:21Z</time>
      </trkpt>
      <trkpt lat="45.858380058780313" lon="7.161016026511788">
        <ele>2149.1599999999999</ele>
        <time>2016-07-03T11:21:32Z</time>
      </trkpt>
      <trkpt lat="45.858394475653768" lon="7.161019966006279">
        <ele>2150.6100000000001</ele>
        <time>2016-07-03T11:21:34Z</time>
      </trkpt>
      <trkpt lat="45.858476031571627" lon="7.161026252433658">
        <ele>2149.6500000000001</ele>
        <time>2016-07-03T11:21:45Z</time>
      </trkpt>
      <trkpt lat="45.858556581661105" lon="7.161035556346178">
        <ele>2150.1300000000001</ele>
        <time>2016-07-03T11:21:55Z</time>
      </trkpt>
      <trkpt lat="45.858632186427712" lon="7.161003369837999">
        <ele>2150.1300000000001</ele>
        <time>2016-07-03T11:22:05Z</time>
      </trkpt>
      <trkpt lat="45.858724638819695" lon="7.160972524434328">
        <ele>2151.0900000000001</ele>
        <time>2016-07-03T11:22:16Z</time>
      </trkpt>
      <trkpt lat="45.858805691823363" lon="7.160988617688417">
        <ele>2151.5700000000002</ele>
        <time>2016-07-03T11:22:26Z</time>
      </trkpt>
      <trkpt lat="45.858906526118517" lon="7.161012338474393">
        <ele>2153.0100000000002</ele>
        <time>2016-07-03T11:22:39Z</time>
      </trkpt>
      <trkpt lat="45.858943406492472" lon="7.16104251332581">
        <ele>2152.5300000000002</ele>
        <time>2016-07-03T11:22:48Z</time>
      </trkpt>
      <trkpt lat="45.858930665999651" lon="7.161069335415959">
        <ele>2153.4899999999998</ele>
        <time>2016-07-03T11:23:05Z</time>
      </trkpt>
      <trkpt lat="45.858949273824692" lon="7.161043770611286">
        <ele>2153.9699999999998</ele>
        <time>2016-07-03T11:23:15Z</time>
      </trkpt>
      <trkpt lat="45.859001660719514" lon="7.161049721762538">
        <ele>2153.9699999999998</ele>
        <time>2016-07-03T11:23:24Z</time>
      </trkpt>
      <trkpt lat="45.85907768458128" lon="7.16105667874217">
        <ele>2157.3400000000001</ele>
        <time>2016-07-03T11:23:35Z</time>
      </trkpt>
      <trkpt lat="45.859137028455734" lon="7.161034215241671">
        <ele>2156.3699999999999</ele>
        <time>2016-07-03T11:23:44Z</time>
      </trkpt>
      <trkpt lat="45.859180279076099" lon="7.160994904115796">
        <ele>2156.3699999999999</ele>
        <time>2016-07-03T11:23:50Z</time>
      </trkpt>
      <trkpt lat="45.859227888286114" lon="7.160948636010289">
        <ele>2156.8600000000001</ele>
        <time>2016-07-03T11:23:57Z</time>
      </trkpt>
      <trkpt lat="45.859273318201303" lon="7.160837156698108">
        <ele>2158.3000000000002</ele>
        <time>2016-07-03T11:24:08Z</time>
      </trkpt>
      <trkpt lat="45.859284633770585" lon="7.160773538053036">
        <ele>2158.7800000000002</ele>
        <time>2016-07-03T11:24:13Z</time>
      </trkpt>
      <trkpt lat="45.859295865520835" lon="7.160753002390266">
        <ele>2158.7800000000002</ele>
        <time>2016-07-03T11:24:15Z</time>
      </trkpt>
      <trkpt lat="45.859312042593956" lon="7.160638337954879">
        <ele>2160.2199999999998</ele>
        <time>2016-07-03T11:24:25Z</time>
      </trkpt>
      <trkpt lat="45.859332997351885" lon="7.160510011017323">
        <ele>2161.6599999999999</ele>
        <time>2016-07-03T11:24:35Z</time>
      </trkpt>
      <trkpt lat="45.859356131404638" lon="7.160413535311818">
        <ele>2163.5799999999999</ele>
        <time>2016-07-03T11:24:43Z</time>
      </trkpt>
      <trkpt lat="45.859398543834686" lon="7.160336840897799">
        <ele>2164.5500000000002</ele>
        <time>2016-07-03T11:24:52Z</time>
      </trkpt>
      <trkpt lat="45.859466772526503" lon="7.160272216424346">
        <ele>2165.0300000000002</ele>
        <time>2016-07-03T11:25:02Z</time>
      </trkpt>
      <trkpt lat="45.859503736719489" lon="7.160248411819339">
        <ele>2165.9899999999998</ele>
        <time>2016-07-03T11:25:07Z</time>
      </trkpt>
      <trkpt lat="45.859608510509133" lon="7.160237347707152">
        <ele>2165.9899999999998</ele>
        <time>2016-07-03T11:25:19Z</time>
      </trkpt>
      <trkpt lat="45.859698029235005" lon="7.160222930833697">
        <ele>2166.4699999999998</ele>
        <time>2016-07-03T11:25:29Z</time>
      </trkpt>
      <trkpt lat="45.859764162451029" lon="7.160227876156569">
        <ele>2167.4299999999998</ele>
        <time>2016-07-03T11:25:37Z</time>
      </trkpt>
      <trkpt lat="45.859841108322144" lon="7.160213040187955">
        <ele>2167.9099999999999</ele>
        <time>2016-07-03T11:25:49Z</time>
      </trkpt>
      <trkpt lat="45.859858710318804" lon="7.160238018259406">
        <ele>2167.9099999999999</ele>
        <time>2016-07-03T11:25:59Z</time>
      </trkpt>
      <trkpt lat="45.85988880135119" lon="7.16018445789814">
        <ele>2168.8699999999999</ele>
        <time>2016-07-03T11:26:10Z</time>
      </trkpt>
      <trkpt lat="45.859969351440668" lon="7.160151768475771">
        <ele>2170.79</ele>
        <time>2016-07-03T11:26:20Z</time>
      </trkpt>
      <trkpt lat="45.860044956207275" lon="7.160141794010997">
        <ele>2172.7199999999998</ele>
        <time>2016-07-03T11:26:29Z</time>
      </trkpt>
      <trkpt lat="45.860114861279726" lon="7.160114049911499">
        <ele>2174.1599999999999</ele>
        <time>2016-07-03T11:26:39Z</time>
      </trkpt>
      <trkpt lat="45.860206726938486" lon="7.16008085757494">
        <ele>2175.1199999999999</ele>
        <time>2016-07-03T11:26:51Z</time>
      </trkpt>
      <trkpt lat="45.860239583998919" lon="7.160071972757578">
        <ele>2175.5999999999999</ele>
        <time>2016-07-03T11:26:55Z</time>
      </trkpt>
      <trkpt lat="45.86026749573648" lon="7.160072391852737">
        <ele>2176.0799999999999</ele>
        <time>2016-07-03T11:26:58Z</time>
      </trkpt>
      <trkpt lat="45.860355421900749" lon="7.160062752664089">
        <ele>2177.52</ele>
        <time>2016-07-03T11:27:09Z</time>
      </trkpt>
      <trkpt lat="45.860414681956172" lon="7.160049928352237">
        <ele>2178.9699999999998</ele>
        <time>2016-07-03T11:27:18Z</time>
      </trkpt>
      <trkpt lat="45.860496824607253" lon="7.160037439316511">
        <ele>2179.9299999999998</ele>
        <time>2016-07-03T11:27:29Z</time>
      </trkpt>
      <trkpt lat="45.860575111582875" lon="7.160026794299483">
        <ele>2180.8899999999999</ele>
        <time>2016-07-03T11:27:42Z</time>
      </trkpt>
      <trkpt lat="45.860612075775862" lon="7.159999720752239">
        <ele>2182.3299999999999</ele>
        <time>2016-07-03T11:27:49Z</time>
      </trkpt>
      <trkpt lat="45.860660942271352" lon="7.159952027723193">
        <ele>2184.73</ele>
        <time>2016-07-03T11:27:57Z</time>
      </trkpt>
      <trkpt lat="45.860673012211919" lon="7.159936605021358">
        <ele>2182.8099999999999</ele>
        <time>2016-07-03T11:27:59Z</time>
      </trkpt>
      <trkpt lat="45.860706456005573" lon="7.159900646656752">
        <ele>2185.6900000000001</ele>
        <time>2016-07-03T11:28:05Z</time>
      </trkpt>
      <trkpt lat="45.860750041902065" lon="7.159802243113518">
        <ele>2187.1399999999999</ele>
        <time>2016-07-03T11:28:16Z</time>
      </trkpt>
      <trkpt lat="45.860752640292048" lon="7.159795621410012">
        <ele>2188.0999999999999</ele>
        <time>2016-07-03T11:28:18Z</time>
      </trkpt>
      <trkpt lat="45.860749371349812" lon="7.159791849553585">
        <ele>2186.6599999999999</ele>
        <time>2016-07-03T11:28:20Z</time>
      </trkpt>
      <trkpt lat="45.860749538987875" lon="7.159808529540896">
        <ele>2188.5799999999999</ele>
        <time>2016-07-03T11:28:24Z</time>
      </trkpt>
      <trkpt lat="45.860786084085703" lon="7.15975983068347">
        <ele>2189.54</ele>
        <time>2016-07-03T11:28:34Z</time>
      </trkpt>
      <trkpt lat="45.860836040228605" lon="7.159694116562605">
        <ele>2190.5</ele>
        <time>2016-07-03T11:28:42Z</time>
      </trkpt>
      <trkpt lat="45.860857665538788" lon="7.15964843519032">
        <ele>2191.9400000000001</ele>
        <time>2016-07-03T11:28:47Z</time>
      </trkpt>
      <trkpt lat="45.860902089625597" lon="7.159590013325214">
        <ele>2193.3899999999999</ele>
        <time>2016-07-03T11:28:54Z</time>
      </trkpt>
      <trkpt lat="45.860923882573843" lon="7.159572411328554">
        <ele>2193.8699999999999</ele>
        <time>2016-07-03T11:28:57Z</time>
      </trkpt>
      <trkpt lat="45.860988087952137" lon="7.159516755491495">
        <ele>2195.3099999999999</ele>
        <time>2016-07-03T11:29:06Z</time>
      </trkpt>
      <trkpt lat="45.860994625836611" lon="7.159511726349592">
        <ele>2195.3099999999999</ele>
        <time>2016-07-03T11:29:07Z</time>
      </trkpt>
      <trkpt lat="45.861069057136774" lon="7.159473672509193">
        <ele>2197.23</ele>
        <time>2016-07-03T11:29:18Z</time>
      </trkpt>
      <trkpt lat="45.861157737672329" lon="7.159457998350263">
        <ele>2199.6300000000001</ele>
        <time>2016-07-03T11:29:29Z</time>
      </trkpt>
      <trkpt lat="45.861226385459304" lon="7.159436037763953">
        <ele>2200.5900000000001</ele>
        <time>2016-07-03T11:29:39Z</time>
      </trkpt>
      <trkpt lat="45.861306767910719" lon="7.159417932853103">
        <ele>2203</ele>
        <time>2016-07-03T11:29:50Z</time>
      </trkpt>
      <trkpt lat="45.861347755417228" lon="7.159394379705191">
        <ele>2201.5599999999999</ele>
        <time>2016-07-03T11:30:00Z</time>
      </trkpt>
      <trkpt lat="45.861380696296692" lon="7.159410640597343">
        <ele>2203</ele>
        <time>2016-07-03T11:30:15Z</time>
      </trkpt>
      <trkpt lat="45.861464934423566" lon="7.159403935074806">
        <ele>2203.96</ele>
        <time>2016-07-03T11:30:25Z</time>
      </trkpt>
      <trkpt lat="45.861536934971809" lon="7.159391781315208">
        <ele>2206.3600000000001</ele>
        <time>2016-07-03T11:30:34Z</time>
      </trkpt>
      <trkpt lat="45.861558308824897" lon="7.159386835992336">
        <ele>2206.3600000000001</ele>
        <time>2016-07-03T11:30:37Z</time>
      </trkpt>
      <trkpt lat="45.861601727083325" lon="7.15940410271287">
        <ele>2206.3600000000001</ele>
        <time>2016-07-03T11:30:43Z</time>
      </trkpt>
      <trkpt lat="45.861622430384159" lon="7.159417597576976">
        <ele>2206.3600000000001</ele>
        <time>2016-07-03T11:30:48Z</time>
      </trkpt>
      <trkpt lat="45.861635087057948" lon="7.159419944509864">
        <ele>2205.8800000000001</ele>
        <time>2016-07-03T11:30:50Z</time>
      </trkpt>
      <trkpt lat="45.861708261072636" lon="7.159415669739246">
        <ele>2205.4000000000001</ele>
        <time>2016-07-03T11:31:02Z</time>
      </trkpt>
      <trkpt lat="45.861745979636908" lon="7.159439222887158">
        <ele>2205.8800000000001</ele>
        <time>2016-07-03T11:31:16Z</time>
      </trkpt>
      <trkpt lat="45.861792080104351" lon="7.159409467130899">
        <ele>2207.3200000000002</ele>
        <time>2016-07-03T11:31:27Z</time>
      </trkpt>
      <trkpt lat="45.861851926892996" lon="7.159388428553939">
        <ele>2210.21</ele>
        <time>2016-07-03T11:31:39Z</time>
      </trkpt>
      <trkpt lat="45.861860811710358" lon="7.159387255087495">
        <ele>2209.73</ele>
        <time>2016-07-03T11:31:40Z</time>
      </trkpt>
      <trkpt lat="45.861891405656934" lon="7.1593645401299">
        <ele>2211.1700000000001</ele>
        <time>2016-07-03T11:31:48Z</time>
      </trkpt>
      <trkpt lat="45.861905906349421" lon="7.159395134076476">
        <ele>2209.25</ele>
        <time>2016-07-03T11:32:08Z</time>
      </trkpt>
      <trkpt lat="45.861899703741074" lon="7.159424470737577">
        <ele>2210.6900000000001</ele>
        <time>2016-07-03T11:32:22Z</time>
      </trkpt>
      <trkpt lat="45.86188780143857" lon="7.159417932853103">
        <ele>2209.25</ele>
        <time>2016-07-03T11:32:25Z</time>
      </trkpt>
      <trkpt lat="45.861895428970456" lon="7.159410389140248">
        <ele>2206.8400000000001</ele>
        <time>2016-07-03T11:32:31Z</time>
      </trkpt>
      <trkpt lat="45.861894590780139" lon="7.159407455474138">
        <ele>2210.21</ele>
        <time>2016-07-03T11:32:32Z</time>
      </trkpt>
      <trkpt lat="45.861890651285648" lon="7.159414328634739">
        <ele>2209.25</ele>
        <time>2016-07-03T11:32:33Z</time>
      </trkpt>
      <trkpt lat="45.861922251060605" lon="7.159390272572637">
        <ele>2210.6900000000001</ele>
        <time>2016-07-03T11:32:45Z</time>
      </trkpt>
      <trkpt lat="45.861925603821874" lon="7.159386919811368">
        <ele>2211.6500000000001</ele>
        <time>2016-07-03T11:32:55Z</time>
      </trkpt>
      <trkpt lat="45.861907666549087" lon="7.159412316977978">
        <ele>2208.77</ele>
        <time>2016-07-03T11:33:00Z</time>
      </trkpt>
      <trkpt lat="45.861912192776799" lon="7.159453807398677">
        <ele>2209.25</ele>
        <time>2016-07-03T11:33:19Z</time>
      </trkpt>
      <trkpt lat="45.861891657114029" lon="7.159473756328225">
        <ele>2208.77</ele>
        <time>2016-07-03T11:33:47Z</time>
      </trkpt>
      <trkpt lat="45.861895345151424" lon="7.159452717751265">
        <ele>2209.25</ele>
        <time>2016-07-03T11:34:13Z</time>
      </trkpt>
      <trkpt lat="45.861881012097001" lon="7.159462105482817">
        <ele>2209.25</ele>
        <time>2016-07-03T11:34:45Z</time>
      </trkpt>
      <trkpt lat="45.861890064552426" lon="7.159459423273802">
        <ele>2209.25</ele>
        <time>2016-07-03T11:35:10Z</time>
      </trkpt>
      <trkpt lat="45.861882856115699" lon="7.159472079947591">
        <ele>2209.25</ele>
        <time>2016-07-03T11:35:40Z</time>
      </trkpt>
      <trkpt lat="45.861884448677301" lon="7.159452298656106">
        <ele>2211.1700000000001</ele>
        <time>2016-07-03T11:35:43Z</time>
      </trkpt>
      <trkpt lat="45.861907079815865" lon="7.159419190138578">
        <ele>2211.6500000000001</ele>
        <time>2016-07-03T11:35:56Z</time>
      </trkpt>
      <trkpt lat="45.861917305737734" lon="7.15942463837564">
        <ele>2211.1700000000001</ele>
        <time>2016-07-03T11:36:09Z</time>
      </trkpt>
      <trkpt lat="45.861920323222876" lon="7.159434864297509">
        <ele>2211.6500000000001</ele>
        <time>2016-07-03T11:36:10Z</time>
      </trkpt>
      <trkpt lat="45.861948486417532" lon="7.159458165988326">
        <ele>2212.6100000000001</ele>
        <time>2016-07-03T11:36:14Z</time>
      </trkpt>
      <trkpt lat="45.861955108121037" lon="7.159463195130229">
        <ele>2212.1300000000001</ele>
        <time>2016-07-03T11:36:15Z</time>
      </trkpt>
      <trkpt lat="45.862052673473954" lon="7.159569812938571">
        <ele>2210.21</ele>
        <time>2016-07-03T11:36:27Z</time>
      </trkpt>
      <trkpt lat="45.862095253542066" lon="7.15964013710618">
        <ele>2210.6900000000001</ele>
        <time>2016-07-03T11:36:37Z</time>
      </trkpt>
      <trkpt lat="45.862110843881965" lon="7.159637371078134">
        <ele>2210.6900000000001</ele>
        <time>2016-07-03T11:36:39Z</time>
      </trkpt>
      <trkpt lat="45.862137246876955" lon="7.159597054123879">
        <ele>2212.1300000000001</ele>
        <time>2016-07-03T11:36:43Z</time>
      </trkpt>
      <trkpt lat="45.862203799188137" lon="7.159510552883148">
        <ele>2211.6500000000001</ele>
        <time>2016-07-03T11:36:53Z</time>
      </trkpt>
      <trkpt lat="45.86226113140583" lon="7.159410724416375">
        <ele>2213.0900000000001</ele>
        <time>2016-07-03T11:37:04Z</time>
      </trkpt>
      <trkpt lat="45.862298849970102" lon="7.159364456310868">
        <ele>2213.0900000000001</ele>
        <time>2016-07-03T11:37:10Z</time>
      </trkpt>
      <trkpt lat="45.862321481108665" lon="7.159349117428064">
        <ele>2213.0900000000001</ele>
        <time>2016-07-03T11:37:13Z</time>
      </trkpt>
      <trkpt lat="45.862402785569429" lon="7.159293293952942">
        <ele>2214.0500000000002</ele>
        <time>2016-07-03T11:37:23Z</time>
      </trkpt>
      <trkpt lat="45.862450730055571" lon="7.15924778021872">
        <ele>2213.0900000000001</ele>
        <time>2016-07-03T11:37:29Z</time>
      </trkpt>
      <trkpt lat="45.862462213262916" lon="7.159211654216051">
        <ele>2213.5700000000002</ele>
        <time>2016-07-03T11:37:32Z</time>
      </trkpt>
      <trkpt lat="45.862476797774434" lon="7.159191537648439">
        <ele>2213.5700000000002</ele>
        <time>2016-07-03T11:37:34Z</time>
      </trkpt>
      <trkpt lat="45.862514851614833" lon="7.159148706123233">
        <ele>2214.5300000000002</ele>
        <time>2016-07-03T11:37:39Z</time>
      </trkpt>
      <trkpt lat="45.862529268488288" lon="7.159126661717892">
        <ele>2214.0500000000002</ele>
        <time>2016-07-03T11:37:41Z</time>
      </trkpt>
      <trkpt lat="45.862581739202142" lon="7.15907134115696">
        <ele>2214.0500000000002</ele>
        <time>2016-07-03T11:37:48Z</time>
      </trkpt>
      <trkpt lat="45.862609734758735" lon="7.158975955098867">
        <ele>2213.5700000000002</ele>
        <time>2016-07-03T11:37:56Z</time>
      </trkpt>
      <trkpt lat="45.862608226016164" lon="7.158946450799704">
        <ele>2213.5700000000002</ele>
        <time>2016-07-03T11:37:58Z</time>
      </trkpt>
      <trkpt lat="45.862631443887949" lon="7.15881678275764">
        <ele>2214.5300000000002</ele>
        <time>2016-07-03T11:38:09Z</time>
      </trkpt>
      <trkpt lat="45.862631276249886" lon="7.158791972324252">
        <ele>2214.5300000000002</ele>
        <time>2016-07-03T11:38:11Z</time>
      </trkpt>
      <trkpt lat="45.862650973722339" lon="7.158677978441119">
        <ele>2215.98</ele>
        <time>2016-07-03T11:38:21Z</time>
      </trkpt>
      <trkpt lat="45.862685758620501" lon="7.158613605424762">
        <ele>2217.4200000000001</ele>
        <time>2016-07-03T11:38:30Z</time>
      </trkpt>
      <trkpt lat="45.862708892673254" lon="7.158545879647136">
        <ele>2218.8600000000001</ele>
        <time>2016-07-03T11:38:39Z</time>
      </trkpt>
      <trkpt lat="45.862723141908646" lon="7.158471364527941">
        <ele>2220.7800000000002</ele>
        <time>2016-07-03T11:38:49Z</time>
      </trkpt>
      <trkpt lat="45.862785251811147" lon="7.15842392295599">
        <ele>2221.7399999999998</ele>
        <time>2016-07-03T11:38:58Z</time>
      </trkpt>
      <trkpt lat="45.862865215167403" lon="7.158393580466509">
        <ele>2223.6700000000001</ele>
        <time>2016-07-03T11:39:09Z</time>
      </trkpt>
      <trkpt lat="45.862951800227165" lon="7.158408332616091">
        <ele>2225.5900000000001</ele>
        <time>2016-07-03T11:39:22Z</time>
      </trkpt>
      <trkpt lat="45.863015921786427" lon="7.158411266282201">
        <ele>2227.0300000000002</ele>
        <time>2016-07-03T11:39:33Z</time>
      </trkpt>
      <trkpt lat="45.863090772181749" lon="7.158398358151317">
        <ele>2229.4299999999998</ele>
        <time>2016-07-03T11:39:47Z</time>
      </trkpt>
      <trkpt lat="45.863135615363717" lon="7.158414870500565">
        <ele>2230.8800000000001</ele>
        <time>2016-07-03T11:39:57Z</time>
      </trkpt>
      <trkpt lat="45.863231420516968" lon="7.158399363979697">
        <ele>2233.7600000000002</ele>
        <time>2016-07-03T11:40:12Z</time>
      </trkpt>
      <trkpt lat="45.863308701664209" lon="7.158304145559669">
        <ele>2233.7600000000002</ele>
        <time>2016-07-03T11:40:24Z</time>
      </trkpt>
      <trkpt lat="45.863311467692256" lon="7.158259302377701">
        <ele>2234.7199999999998</ele>
        <time>2016-07-03T11:40:29Z</time>
      </trkpt>
      <trkpt lat="45.863310294225812" lon="7.158176405355334">
        <ele>2237.1300000000001</ele>
        <time>2016-07-03T11:40:40Z</time>
      </trkpt>
      <trkpt lat="45.863311970606446" lon="7.158059729263187">
        <ele>2238.5700000000002</ele>
        <time>2016-07-03T11:40:52Z</time>
      </trkpt>
      <trkpt lat="45.863339798524976" lon="7.157965516671538">
        <ele>2240.0100000000002</ele>
        <time>2016-07-03T11:41:04Z</time>
      </trkpt>
      <trkpt lat="45.863363016396761" lon="7.157878680154681">
        <ele>2240.9699999999998</ele>
        <time>2016-07-03T11:41:12Z</time>
      </trkpt>
      <trkpt lat="45.863408949226141" lon="7.157805003225803">
        <ele>2242.8899999999999</ele>
        <time>2016-07-03T11:41:21Z</time>
      </trkpt>
      <trkpt lat="45.86347047239542" lon="7.157823024317622">
        <ele>2244.3299999999999</ele>
        <time>2016-07-03T11:41:33Z</time>
      </trkpt>
      <trkpt lat="45.863521602004766" lon="7.157854372635484">
        <ele>2245.7800000000002</ele>
        <time>2016-07-03T11:41:43Z</time>
      </trkpt>
      <trkpt lat="45.863586226478219" lon="7.15788153000176">
        <ele>2247.2199999999998</ele>
        <time>2016-07-03T11:41:54Z</time>
      </trkpt>
      <trkpt lat="45.863648001104593" lon="7.157909609377384">
        <ele>2251.0599999999999</ele>
        <time>2016-07-03T11:42:04Z</time>
      </trkpt>
      <trkpt lat="45.863683540374041" lon="7.157920505851507">
        <ele>2250.5799999999999</ele>
        <time>2016-07-03T11:42:10Z</time>
      </trkpt>
      <trkpt lat="45.863717067986727" lon="7.157905586063862">
        <ele>2251.0599999999999</ele>
        <time>2016-07-03T11:42:15Z</time>
      </trkpt>
      <trkpt lat="45.863760653883219" lon="7.157821515575051">
        <ele>2251.0599999999999</ele>
        <time>2016-07-03T11:42:26Z</time>
      </trkpt>
      <trkpt lat="45.863738274201751" lon="7.157739289104939">
        <ele>2252.5100000000002</ele>
        <time>2016-07-03T11:42:36Z</time>
      </trkpt>
      <trkpt lat="45.863759061321616" lon="7.157632000744343">
        <ele>2254.9099999999999</ele>
        <time>2016-07-03T11:42:47Z</time>
      </trkpt>
      <trkpt lat="45.863768365234137" lon="7.157593192532659">
        <ele>2255.3899999999999</ele>
        <time>2016-07-03T11:42:51Z</time>
      </trkpt>
      <trkpt lat="45.863761659711599" lon="7.157505601644516">
        <ele>2255.8699999999999</ele>
        <time>2016-07-03T11:43:03Z</time>
      </trkpt>
      <trkpt lat="45.863775154575706" lon="7.157452292740345">
        <ele>2257.79</ele>
        <time>2016-07-03T11:43:14Z</time>
      </trkpt>
      <trkpt lat="45.86383106186986" lon="7.157390769571066">
        <ele>2259.2399999999998</ele>
        <time>2016-07-03T11:43:24Z</time>
      </trkpt>
      <trkpt lat="45.863896356895566" lon="7.157334107905626">
        <ele>2260.1999999999998</ele>
        <time>2016-07-03T11:43:37Z</time>
      </trkpt>
      <trkpt lat="45.863983947783709" lon="7.157249450683594">
        <ele>2263.0799999999999</ele>
        <time>2016-07-03T11:43:50Z</time>
      </trkpt>
      <trkpt lat="45.864089978858829" lon="7.157190861180425">
        <ele>2265</ele>
        <time>2016-07-03T11:44:06Z</time>
      </trkpt>
      <trkpt lat="45.864138174802065" lon="7.157205026596785">
        <ele>2267.4099999999999</ele>
        <time>2016-07-03T11:44:19Z</time>
      </trkpt>
      <trkpt lat="45.864144125953317" lon="7.15720578096807">
        <ele>2267.4099999999999</ele>
        <time>2016-07-03T11:44:20Z</time>
      </trkpt>
      <trkpt lat="45.864151082932949" lon="7.1572111453861">
        <ele>2267.4099999999999</ele>
        <time>2016-07-03T11:44:21Z</time>
      </trkpt>
      <trkpt lat="45.864174216985703" lon="7.157212905585766">
        <ele>2268.8499999999999</ele>
        <time>2016-07-03T11:44:23Z</time>
      </trkpt>
      <trkpt lat="45.864239176735282" lon="7.157222544774413">
        <ele>2270.29</ele>
        <time>2016-07-03T11:44:33Z</time>
      </trkpt>
      <trkpt lat="45.864247223362327" lon="7.157209133729339">
        <ele>2268.8499999999999</ele>
        <time>2016-07-03T11:44:35Z</time>
      </trkpt>
      <trkpt lat="45.864339591935277" lon="7.157144593074918">
        <ele>2267.8899999999999</ele>
        <time>2016-07-03T11:44:48Z</time>
      </trkpt>
      <trkpt lat="45.864338837563992" lon="7.157167140394449">
        <ele>2269.3299999999999</ele>
        <time>2016-07-03T11:44:59Z</time>
      </trkpt>
      <trkpt lat="45.864371275529265" lon="7.157164542004466">
        <ele>2269.8099999999999</ele>
        <time>2016-07-03T11:45:09Z</time>
      </trkpt>
      <trkpt lat="45.864375131204724" lon="7.157166050747037">
        <ele>2270.29</ele>
        <time>2016-07-03T11:45:21Z</time>
      </trkpt>
      <trkpt lat="45.864372113719583" lon="7.157150711864233">
        <ele>2271.25</ele>
        <time>2016-07-03T11:45:38Z</time>
      </trkpt>
      <trkpt lat="45.864402120932937" lon="7.157081309705973">
        <ele>2270.29</ele>
        <time>2016-07-03T11:45:49Z</time>
      </trkpt>
      <trkpt lat="45.864454340189695" lon="7.157008890062571">
        <ele>2271.73</ele>
        <time>2016-07-03T11:45:59Z</time>
      </trkpt>
      <trkpt lat="45.864531956613064" lon="7.156973518431187">
        <ele>2271.25</ele>
        <time>2016-07-03T11:46:10Z</time>
      </trkpt>
      <trkpt lat="45.864539248868823" lon="7.156968824565411">
        <ele>2271.73</ele>
        <time>2016-07-03T11:46:11Z</time>
      </trkpt>
      <trkpt lat="45.864626672118902" lon="7.156931608915329">
        <ele>2272.6900000000001</ele>
        <time>2016-07-03T11:46:24Z</time>
      </trkpt>
      <trkpt lat="45.864694146439433" lon="7.156889364123344">
        <ele>2274.6199999999999</ele>
        <time>2016-07-03T11:46:36Z</time>
      </trkpt>
      <trkpt lat="45.864763548597693" lon="7.156860362738371">
        <ele>2276.0599999999999</ele>
        <time>2016-07-03T11:46:45Z</time>
      </trkpt>
      <trkpt lat="45.864810235798359" lon="7.156793307512999">
        <ele>2277.02</ele>
        <time>2016-07-03T11:46:55Z</time>
      </trkpt>
      <trkpt lat="45.864849211648107" lon="7.156797079369426">
        <ele>2276.54</ele>
        <time>2016-07-03T11:47:05Z</time>
      </trkpt>
      <trkpt lat="45.864853654056787" lon="7.156790876761079">
        <ele>2277.98</ele>
        <time>2016-07-03T11:47:23Z</time>
      </trkpt>
      <trkpt lat="45.864829765632749" lon="7.156791631132364">
        <ele>2278.46</ele>
        <time>2016-07-03T11:47:35Z</time>
      </trkpt>
      <trkpt lat="45.864872094243765" lon="7.156743351370096">
        <ele>2277.98</ele>
        <time>2016-07-03T11:47:44Z</time>
      </trkpt>
      <trkpt lat="45.864939987659454" lon="7.156680151820183">
        <ele>2279.4200000000001</ele>
        <time>2016-07-03T11:47:53Z</time>
      </trkpt>
      <trkpt lat="45.86494367569685" lon="7.156675793230534">
        <ele>2279.4200000000001</ele>
        <time>2016-07-03T11:47:54Z</time>
      </trkpt>
      <trkpt lat="45.86500427685678" lon="7.15660136193037">
        <ele>2280.3800000000001</ele>
        <time>2016-07-03T11:48:05Z</time>
      </trkpt>
      <trkpt lat="45.865010395646095" lon="7.156594907864928">
        <ele>2280.8699999999999</ele>
        <time>2016-07-03T11:48:06Z</time>
      </trkpt>
      <trkpt lat="45.86509371176362" lon="7.156543275341392">
        <ele>2282.3099999999999</ele>
        <time>2016-07-03T11:48:17Z</time>
      </trkpt>
      <trkpt lat="45.865110140293837" lon="7.156531289219856">
        <ele>2281.8299999999999</ele>
        <time>2016-07-03T11:48:20Z</time>
      </trkpt>
      <trkpt lat="45.865192953497171" lon="7.1564581990242">
        <ele>2282.79</ele>
        <time>2016-07-03T11:48:33Z</time>
      </trkpt>
      <trkpt lat="45.865266462787986" lon="7.156409835442901">
        <ele>2283.27</ele>
        <time>2016-07-03T11:48:45Z</time>
      </trkpt>
      <trkpt lat="45.865329494699836" lon="7.156365411356092">
        <ele>2285.6700000000001</ele>
        <time>2016-07-03T11:48:56Z</time>
      </trkpt>
      <trkpt lat="45.865412056446075" lon="7.15628863312304">
        <ele>2287.1100000000001</ele>
        <time>2016-07-03T11:49:09Z</time>
      </trkpt>
      <trkpt lat="45.865468718111515" lon="7.156249573454261">
        <ele>2287.5900000000001</ele>
        <time>2016-07-03T11:49:16Z</time>
      </trkpt>
      <trkpt lat="45.865561757236719" lon="7.156190983951092">
        <ele>2288.0799999999999</ele>
        <time>2016-07-03T11:49:27Z</time>
      </trkpt>
      <trkpt lat="45.865679522976279" lon="7.156182266771793">
        <ele>2290</ele>
        <time>2016-07-03T11:49:40Z</time>
      </trkpt>
      <trkpt lat="45.865764766931534" lon="7.156171286478639">
        <ele>2290</ele>
        <time>2016-07-03T11:49:50Z</time>
      </trkpt>
      <trkpt lat="45.865859901532531" lon="7.15613080188632">
        <ele>2290.48</ele>
        <time>2016-07-03T11:50:02Z</time>
      </trkpt>
      <trkpt lat="45.865905750542879" lon="7.156130382791162">
        <ele>2290.96</ele>
        <time>2016-07-03T11:50:08Z</time>
      </trkpt>
      <trkpt lat="45.865986049175262" lon="7.156140273436904">
        <ele>2292.4000000000001</ele>
        <time>2016-07-03T11:50:19Z</time>
      </trkpt>
      <trkpt lat="45.866078417748213" lon="7.156144212931395">
        <ele>2294.3200000000002</ele>
        <time>2016-07-03T11:50:32Z</time>
      </trkpt>
      <trkpt lat="45.866135749965906" lon="7.156132645905018">
        <ele>2295.2800000000002</ele>
        <time>2016-07-03T11:50:42Z</time>
      </trkpt>
      <trkpt lat="45.866203978657722" lon="7.156151253730059">
        <ele>2295.77</ele>
        <time>2016-07-03T11:50:52Z</time>
      </trkpt>
      <trkpt lat="45.866277990862727" lon="7.1561767347157">
        <ele>2297.21</ele>
        <time>2016-07-03T11:51:03Z</time>
      </trkpt>
      <trkpt lat="45.866361558437347" lon="7.156202802434564">
        <ele>2299.1300000000001</ele>
        <time>2016-07-03T11:51:15Z</time>
      </trkpt>
      <trkpt lat="45.866408329457045" lon="7.156234066933394">
        <ele>2300.5700000000002</ele>
        <time>2016-07-03T11:51:24Z</time>
      </trkpt>
      <trkpt lat="45.866459123790264" lon="7.156236413866282">
        <ele>2302.0100000000002</ele>
        <time>2016-07-03T11:51:34Z</time>
      </trkpt>
      <trkpt lat="45.866538416594267" lon="7.156280586495996">
        <ele>2303.46</ele>
        <time>2016-07-03T11:51:46Z</time>
      </trkpt>
      <trkpt lat="45.866602538153529" lon="7.15630472637713">
        <ele>2304.4200000000001</ele>
        <time>2016-07-03T11:51:57Z</time>
      </trkpt>
      <trkpt lat="45.866657271981239" lon="7.15631646104157">
        <ele>2305.8600000000001</ele>
        <time>2016-07-03T11:52:07Z</time>
      </trkpt>
      <trkpt lat="45.866732457652688" lon="7.156313108280301">
        <ele>2307.3000000000002</ele>
        <time>2016-07-03T11:52:17Z</time>
      </trkpt>
      <trkpt lat="45.866746958345175" lon="7.156304894015193">
        <ele>2306.8200000000002</ele>
        <time>2016-07-03T11:52:20Z</time>
      </trkpt>
      <trkpt lat="45.866829352453351" lon="7.156264074146748">
        <ele>2307.7800000000002</ele>
        <time>2016-07-03T11:52:30Z</time>
      </trkpt>
      <trkpt lat="45.86689867079258" lon="7.156229540705681">
        <ele>2308.2600000000002</ele>
        <time>2016-07-03T11:52:42Z</time>
      </trkpt>
      <trkpt lat="45.866944771260023" lon="7.156191905960441">
        <ele>2309.6999999999998</ele>
        <time>2016-07-03T11:52:52Z</time>
      </trkpt>
      <trkpt lat="45.86702766828239" lon="7.156135914847255">
        <ele>2309.6999999999998</ele>
        <time>2016-07-03T11:53:04Z</time>
      </trkpt>
      <trkpt lat="45.867037558928132" lon="7.156119905412197">
        <ele>2310.1900000000001</ele>
        <time>2016-07-03T11:53:08Z</time>
      </trkpt>
      <trkpt lat="45.867069829255342" lon="7.156078917905688">
        <ele>2310.6700000000001</ele>
        <time>2016-07-03T11:53:17Z</time>
      </trkpt>
      <trkpt lat="45.86710293777287" lon="7.156047401949763">
        <ele>2311.1500000000001</ele>
        <time>2016-07-03T11:53:28Z</time>
      </trkpt>
      <trkpt lat="45.867127161473036" lon="7.156018652021885">
        <ele>2311.1500000000001</ele>
        <time>2016-07-03T11:53:38Z</time>
      </trkpt>
      <trkpt lat="45.867150211706758" lon="7.156008761376143">
        <ele>2311.6300000000001</ele>
        <time>2016-07-03T11:53:48Z</time>
      </trkpt>
      <trkpt lat="45.86715079843998" lon="7.15598956681788">
        <ele>2311.1500000000001</ele>
        <time>2016-07-03T11:53:55Z</time>
      </trkpt>
      <trkpt lat="45.867173010483384" lon="7.156050000339747">
        <ele>2312.5900000000001</ele>
        <time>2016-07-03T11:54:03Z</time>
      </trkpt>
      <trkpt lat="45.867175608873367" lon="7.156058382242918">
        <ele>2312.5900000000001</ele>
        <time>2016-07-03T11:54:04Z</time>
      </trkpt>
      <trkpt lat="45.867234198376536" lon="7.156095849350095">
        <ele>2311.6300000000001</ele>
        <time>2016-07-03T11:54:13Z</time>
      </trkpt>
      <trkpt lat="45.867284322157502" lon="7.156078414991498">
        <ele>2313.0700000000002</ele>
        <time>2016-07-03T11:54:23Z</time>
      </trkpt>
      <trkpt lat="45.867314161732793" lon="7.156070536002517">
        <ele>2313.5500000000002</ele>
        <time>2016-07-03T11:54:32Z</time>
      </trkpt>
      <trkpt lat="45.867379456758499" lon="7.156051341444254">
        <ele>2314.5100000000002</ele>
        <time>2016-07-03T11:54:45Z</time>
      </trkpt>
      <trkpt lat="45.867442488670349" lon="7.156130131334066">
        <ele>2315.9499999999998</ele>
        <time>2016-07-03T11:54:57Z</time>
      </trkpt>
      <trkpt lat="45.86745916865766" lon="7.156160473823547">
        <ele>2315.9499999999998</ele>
        <time>2016-07-03T11:55:07Z</time>
      </trkpt>
      <trkpt lat="45.867460845038295" lon="7.156156115233898">
        <ele>2315.4699999999998</ele>
        <time>2016-07-03T11:55:17Z</time>
      </trkpt>
      <trkpt lat="45.867474004626274" lon="7.156154187396169">
        <ele>2315.9499999999998</ele>
        <time>2016-07-03T11:55:33Z</time>
      </trkpt>
      <trkpt lat="45.86745179258287" lon="7.156139183789492">
        <ele>2316.4299999999998</ele>
        <time>2016-07-03T11:55:48Z</time>
      </trkpt>
      <trkpt lat="45.867449780926108" lon="7.156122671440244">
        <ele>2316.9099999999999</ele>
        <time>2016-07-03T11:56:04Z</time>
      </trkpt>
      <trkpt lat="45.867474591359496" lon="7.156171202659607">
        <ele>2316.4299999999998</ele>
        <time>2016-07-03T11:56:16Z</time>
      </trkpt>
      <trkpt lat="45.867493618279696" lon="7.156226523220539">
        <ele>2317.4000000000001</ele>
        <time>2016-07-03T11:56:29Z</time>
      </trkpt>
      <trkpt lat="45.867519518360496" lon="7.156240688636899">
        <ele>2317.4000000000001</ele>
        <time>2016-07-03T11:56:44Z</time>
      </trkpt>
      <trkpt lat="45.86753049865365" lon="7.156256278976798">
        <ele>2317.4000000000001</ele>
        <time>2016-07-03T11:57:05Z</time>
      </trkpt>
      <trkpt lat="45.867525804787874" lon="7.156250411644578">
        <ele>2317.4000000000001</ele>
        <time>2016-07-03T11:57:16Z</time>
      </trkpt>
      <trkpt lat="45.867519434541464" lon="7.15624219737947">
        <ele>2317.4000000000001</ele>
        <time>2016-07-03T11:57:26Z</time>
      </trkpt>
      <trkpt lat="45.867520608007908" lon="7.156242784112692">
        <ele>2317.4000000000001</ele>
        <time>2016-07-03T11:57:30Z</time>
      </trkpt>
      <trkpt lat="45.867519434541464" lon="7.15624219737947">
        <ele>2319.8000000000002</ele>
        <time>2016-07-03T11:57:39Z</time>
      </trkpt>
      <trkpt lat="45.867559080943465" lon="7.156294584274292">
        <ele>2317.8800000000001</ele>
        <time>2016-07-03T11:57:47Z</time>
      </trkpt>
      <trkpt lat="45.867486828938127" lon="7.156245214864612">
        <ele>2317.4000000000001</ele>
        <time>2016-07-03T11:57:58Z</time>
      </trkpt>
      <trkpt lat="45.867522535845637" lon="7.156269438564777">
        <ele>2317.8800000000001</ele>
        <time>2016-07-03T11:58:09Z</time>
      </trkpt>
      <trkpt lat="45.867544077336788" lon="7.15627052821219">
        <ele>2317.4000000000001</ele>
        <time>2016-07-03T11:58:29Z</time>
      </trkpt>
      <trkpt lat="45.867543909698725" lon="7.156333811581135">
        <ele>2318.8400000000001</ele>
        <time>2016-07-03T11:58:39Z</time>
      </trkpt>
      <trkpt lat="45.867596883326769" lon="7.156458953395486">
        <ele>2320.7600000000002</ele>
        <time>2016-07-03T11:58:51Z</time>
      </trkpt>
      <trkpt lat="45.867654550820589" lon="7.156593063846231">
        <ele>2321.7199999999998</ele>
        <time>2016-07-03T11:59:03Z</time>
      </trkpt>
      <trkpt lat="45.86767659522593" lon="7.156650060787797">
        <ele>2322.1999999999998</ele>
        <time>2016-07-03T11:59:12Z</time>
      </trkpt>
      <trkpt lat="45.867677684873343" lon="7.156727509573102">
        <ele>2323.6399999999999</ele>
        <time>2016-07-03T11:59:24Z</time>
      </trkpt>
      <trkpt lat="45.867672991007566" lon="7.156799007207155">
        <ele>2324.1199999999999</ele>
        <time>2016-07-03T11:59:43Z</time>
      </trkpt>
      <trkpt lat="45.867685312405229" lon="7.156826918944717">
        <ele>2325.5700000000002</ele>
        <time>2016-07-03T11:59:46Z</time>
      </trkpt>
      <trkpt lat="45.867721438407898" lon="7.156897662207484">
        <ele>2327.0100000000002</ele>
        <time>2016-07-03T11:59:56Z</time>
      </trkpt>
      <trkpt lat="45.867782961577177" lon="7.156939655542374">
        <ele>2328.9299999999998</ele>
        <time>2016-07-03T12:00:07Z</time>
      </trkpt>
      <trkpt lat="45.867849262431264" lon="7.156978296115995">
        <ele>2329.8899999999999</ele>
        <time>2016-07-03T12:00:15Z</time>
      </trkpt>
      <trkpt lat="45.867921765893698" lon="7.157004699110985">
        <ele>2331.3299999999999</ele>
        <time>2016-07-03T12:00:25Z</time>
      </trkpt>
      <trkpt lat="45.867983959615231" lon="7.157019786536694">
        <ele>2332.7800000000002</ele>
        <time>2016-07-03T12:00:35Z</time>
      </trkpt>
      <trkpt lat="45.868056295439601" lon="7.157046776264906">
        <ele>2333.7399999999998</ele>
        <time>2016-07-03T12:00:46Z</time>
      </trkpt>
      <trkpt lat="45.868129804730415" lon="7.157054990530014">
        <ele>2335.1799999999998</ele>
        <time>2016-07-03T12:00:57Z</time>
      </trkpt>
      <trkpt lat="45.868213959038258" lon="7.157063959166408">
        <ele>2337.0999999999999</ele>
        <time>2016-07-03T12:01:10Z</time>
      </trkpt>
      <trkpt lat="45.868281349539757" lon="7.15705675072968">
        <ele>2338.0599999999999</ele>
        <time>2016-07-03T12:01:21Z</time>
      </trkpt>
      <trkpt lat="45.868371119722724" lon="7.157040238380432">
        <ele>2339.5100000000002</ele>
        <time>2016-07-03T12:01:32Z</time>
      </trkpt>
      <trkpt lat="45.868436582386494" lon="7.157018277794123">
        <ele>2340.9499999999998</ele>
        <time>2016-07-03T12:01:43Z</time>
      </trkpt>
      <trkpt lat="45.868508834391832" lon="7.157011069357395">
        <ele>2341.4299999999998</ele>
        <time>2016-07-03T12:01:54Z</time>
      </trkpt>
      <trkpt lat="45.868584690615535" lon="7.157025653868914">
        <ele>2342.8699999999999</ele>
        <time>2016-07-03T12:02:04Z</time>
      </trkpt>
      <trkpt lat="45.868665240705013" lon="7.157069742679596">
        <ele>2344.3099999999999</ele>
        <time>2016-07-03T12:02:16Z</time>
      </trkpt>
      <trkpt lat="45.868743946775794" lon="7.157134786248207">
        <ele>2345.75</ele>
        <time>2016-07-03T12:02:26Z</time>
      </trkpt>
      <trkpt lat="45.868820725008845" lon="7.157163703814149">
        <ele>2347.1999999999998</ele>
        <time>2016-07-03T12:02:37Z</time>
      </trkpt>
      <trkpt lat="45.868871435523033" lon="7.157182563096285">
        <ele>2349.1199999999999</ele>
        <time>2016-07-03T12:02:48Z</time>
      </trkpt>
      <trkpt lat="45.868940250948071" lon="7.157208127900958">
        <ele>2351.04</ele>
        <time>2016-07-03T12:02:59Z</time>
      </trkpt>
      <trkpt lat="45.869010742753744" lon="7.157233441248536">
        <ele>2352.48</ele>
        <time>2016-07-03T12:03:10Z</time>
      </trkpt>
      <trkpt lat="45.869076456874609" lon="7.157291192561388">
        <ele>2354.4099999999999</ele>
        <time>2016-07-03T12:03:20Z</time>
      </trkpt>
      <trkpt lat="45.869114762172103" lon="7.157314494252205">
        <ele>2355.3699999999999</ele>
        <time>2016-07-03T12:03:30Z</time>
      </trkpt>
      <trkpt lat="45.869156755506992" lon="7.157344585284591">
        <ele>2357.29</ele>
        <time>2016-07-03T12:03:38Z</time>
      </trkpt>
      <trkpt lat="45.869221044704318" lon="7.157355900853872">
        <ele>2358.73</ele>
        <time>2016-07-03T12:03:48Z</time>
      </trkpt>
      <trkpt lat="45.869269073009491" lon="7.157390350475907">
        <ele>2359.6900000000001</ele>
        <time>2016-07-03T12:03:58Z</time>
      </trkpt>
      <trkpt lat="45.86928952485323" lon="7.157406276091933">
        <ele>2360.6500000000001</ele>
        <time>2016-07-03T12:04:08Z</time>
      </trkpt>
      <trkpt lat="45.869298158213496" lon="7.157395547255874">
        <ele>2360.6500000000001</ele>
        <time>2016-07-03T12:04:17Z</time>
      </trkpt>
      <trkpt lat="45.869305115193129" lon="7.157399738207459">
        <ele>2360.1700000000001</ele>
        <time>2016-07-03T12:04:30Z</time>
      </trkpt>
      <trkpt lat="45.869297990575433" lon="7.157398564741015">
        <ele>2360.1700000000001</ele>
        <time>2016-07-03T12:04:41Z</time>
      </trkpt>
      <trkpt lat="45.869307210668921" lon="7.157469810917974">
        <ele>2359.6900000000001</ele>
        <time>2016-07-03T12:04:47Z</time>
      </trkpt>
      <trkpt lat="45.869322884827852" lon="7.157501326873899">
        <ele>2359.6900000000001</ele>
        <time>2016-07-03T12:04:49Z</time>
      </trkpt>
      <trkpt lat="45.869390107691288" lon="7.157562347128987">
        <ele>2360.6500000000001</ele>
        <time>2016-07-03T12:04:57Z</time>
      </trkpt>
      <trkpt lat="45.869419611990452" lon="7.15759520418942">
        <ele>2360.6500000000001</ele>
        <time>2016-07-03T12:05:01Z</time>
      </trkpt>
      <trkpt lat="45.869451127946377" lon="7.157708946615458">
        <ele>2360.6500000000001</ele>
        <time>2016-07-03T12:05:11Z</time>
      </trkpt>
      <trkpt lat="45.869476106017828" lon="7.157788574695587">
        <ele>2360.6500000000001</ele>
        <time>2016-07-03T12:05:19Z</time>
      </trkpt>
      <trkpt lat="45.869494965299964" lon="7.157890917733312">
        <ele>2362.5799999999999</ele>
        <time>2016-07-03T12:05:28Z</time>
      </trkpt>
      <trkpt lat="45.869512483477592" lon="7.157915392890573">
        <ele>2363.0599999999999</ele>
        <time>2016-07-03T12:05:31Z</time>
      </trkpt>
      <trkpt lat="45.869539305567741" lon="7.15799636207521">
        <ele>2364.02</ele>
        <time>2016-07-03T12:05:40Z</time>
      </trkpt>
      <trkpt lat="45.869527403265238" lon="7.15800616890192">
        <ele>2364.02</ele>
        <time>2016-07-03T12:05:51Z</time>
      </trkpt>
      <trkpt lat="45.869529331102967" lon="7.158009689301252">
        <ele>2364.02</ele>
        <time>2016-07-03T12:05:56Z</time>
      </trkpt>
      <trkpt lat="45.869525475427508" lon="7.158004660159349">
        <ele>2362.5799999999999</ele>
        <time>2016-07-03T12:06:03Z</time>
      </trkpt>
      <trkpt lat="45.86952606216073" lon="7.158002564683557">
        <ele>2363.0599999999999</ele>
        <time>2016-07-03T12:06:25Z</time>
      </trkpt>
      <trkpt lat="45.869517680257559" lon="7.157981358468533">
        <ele>2362.5799999999999</ele>
        <time>2016-07-03T12:06:56Z</time>
      </trkpt>
      <trkpt lat="45.869509633630514" lon="7.157952859997749">
        <ele>2362.5799999999999</ele>
        <time>2016-07-03T12:07:28Z</time>
      </trkpt>
      <trkpt lat="45.869514914229512" lon="7.157985046505928">
        <ele>2363.0599999999999</ele>
        <time>2016-07-03T12:07:51Z</time>
      </trkpt>
      <trkpt lat="45.869513656944036" lon="7.158003654330969">
        <ele>2363.0599999999999</ele>
        <time>2016-07-03T12:08:16Z</time>
      </trkpt>
      <trkpt lat="45.869518266990781" lon="7.158024609088898">
        <ele>2364.02</ele>
        <time>2016-07-03T12:08:28Z</time>
      </trkpt>
      <trkpt lat="45.869523379951715" lon="7.15801396407187">
        <ele>2363.54</ele>
        <time>2016-07-03T12:08:49Z</time>
      </trkpt>
      <trkpt lat="45.869534444063902" lon="7.158017316833139">
        <ele>2363.54</ele>
        <time>2016-07-03T12:09:10Z</time>
      </trkpt>
      <trkpt lat="45.869525643065572" lon="7.157998206093907">
        <ele>2364.02</ele>
        <time>2016-07-03T12:09:30Z</time>
      </trkpt>
      <trkpt lat="45.869525643065572" lon="7.157999211922288">
        <ele>2364.02</ele>
        <time>2016-07-03T12:09:32Z</time>
      </trkpt>
      <trkpt lat="45.869545508176088" lon="7.158001475036144">
        <ele>2364.5</ele>
        <time>2016-07-03T12:09:40Z</time>
      </trkpt>
      <trkpt lat="45.869527067989111" lon="7.158020837232471">
        <ele>2364.5</ele>
        <time>2016-07-03T12:09:52Z</time>
      </trkpt>
      <trkpt lat="45.869501838460565" lon="7.158011868596077">
        <ele>2365.46</ele>
        <time>2016-07-03T12:10:05Z</time>
      </trkpt>
      <trkpt lat="45.869465796276927" lon="7.158034667372704">
        <ele>2364.98</ele>
        <time>2016-07-03T12:10:24Z</time>
      </trkpt>
      <trkpt lat="45.869501503184438" lon="7.158012120053172">
        <ele>2364.5</ele>
        <time>2016-07-03T12:10:39Z</time>
      </trkpt>
      <trkpt lat="45.869538886472583" lon="7.15801689773798">
        <ele>2365.46</ele>
        <time>2016-07-03T12:10:54Z</time>
      </trkpt>
      <trkpt lat="45.869559841230512" lon="7.158033661544323">
        <ele>2364.98</ele>
        <time>2016-07-03T12:11:15Z</time>
      </trkpt>
      <trkpt lat="45.86953679099679" lon="7.158012455329299">
        <ele>2364.98</ele>
        <time>2016-07-03T12:11:40Z</time>
      </trkpt>
      <trkpt lat="45.869532600045204" lon="7.158026536926627">
        <ele>2364.98</ele>
        <time>2016-07-03T12:11:53Z</time>
      </trkpt>
      <trkpt lat="45.869541820138693" lon="7.158024692907929">
        <ele>2364.5</ele>
        <time>2016-07-03T12:12:08Z</time>
      </trkpt>
      <trkpt lat="45.869553219527006" lon="7.158028800040484">
        <ele>2365.46</ele>
        <time>2016-07-03T12:12:20Z</time>
      </trkpt>
      <trkpt lat="45.869571827352047" lon="7.158050760626793">
        <ele>2365.46</ele>
        <time>2016-07-03T12:12:42Z</time>
      </trkpt>
      <trkpt lat="45.869585908949375" lon="7.158043552190065">
        <ele>2364.98</ele>
        <time>2016-07-03T12:13:03Z</time>
      </trkpt>
      <trkpt lat="45.869599739089608" lon="7.158158048987389">
        <ele>2365.9400000000001</ele>
        <time>2016-07-03T12:13:15Z</time>
      </trkpt>
      <trkpt lat="45.869599906727672" lon="7.158168274909258">
        <ele>2365.9400000000001</ele>
        <time>2016-07-03T12:13:16Z</time>
      </trkpt>
      <trkpt lat="45.869619939476252" lon="7.158271539956331">
        <ele>2366.9000000000001</ele>
        <time>2016-07-03T12:13:26Z</time>
      </trkpt>
      <trkpt lat="45.869617508724332" lon="7.158354017883539">
        <ele>2367.3800000000001</ele>
        <time>2016-07-03T12:13:33Z</time>
      </trkpt>
      <trkpt lat="45.86960518732667" lon="7.158419229090214">
        <ele>2368.3499999999999</ele>
        <time>2016-07-03T12:13:39Z</time>
      </trkpt>
      <trkpt lat="45.869595883414149" lon="7.158454935997725">
        <ele>2368.3499999999999</ele>
        <time>2016-07-03T12:13:42Z</time>
      </trkpt>
      <trkpt lat="45.869586411863565" lon="7.158516542986035">
        <ele>2368.3499999999999</ele>
        <time>2016-07-03T12:13:47Z</time>
      </trkpt>
      <trkpt lat="45.869569731876254" lon="7.158626681193709">
        <ele>2369.79</ele>
        <time>2016-07-03T12:13:56Z</time>
      </trkpt>
      <trkpt lat="45.869542825967073" lon="7.158723156899214">
        <ele>2371.23</ele>
        <time>2016-07-03T12:14:06Z</time>
      </trkpt>
      <trkpt lat="45.869508376345038" lon="7.158830948174">
        <ele>2373.1500000000001</ele>
        <time>2016-07-03T12:14:20Z</time>
      </trkpt>
      <trkpt lat="45.869503431022167" lon="7.158836480230093">
        <ele>2373.1500000000001</ele>
        <time>2016-07-03T12:14:21Z</time>
      </trkpt>
      <trkpt lat="45.869460850954056" lon="7.158925160765648">
        <ele>2375.0700000000002</ele>
        <time>2016-07-03T12:14:32Z</time>
      </trkpt>
      <trkpt lat="45.86943126283586" lon="7.159015266224742">
        <ele>2376.52</ele>
        <time>2016-07-03T12:14:42Z</time>
      </trkpt>
      <trkpt lat="45.869400668889284" lon="7.159096067771316">
        <ele>2377.96</ele>
        <time>2016-07-03T12:14:53Z</time>
      </trkpt>
      <trkpt lat="45.869381641969085" lon="7.159205619245768">
        <ele>2379.4000000000001</ele>
        <time>2016-07-03T12:15:03Z</time>
      </trkpt>
      <trkpt lat="45.869354484602809" lon="7.159321876242757">
        <ele>2381.3200000000002</ele>
        <time>2016-07-03T12:15:14Z</time>
      </trkpt>
      <trkpt lat="45.869347862899303" lon="7.159436205402017">
        <ele>2381.8000000000002</ele>
        <time>2016-07-03T12:15:25Z</time>
      </trkpt>
      <trkpt lat="45.869351383298635" lon="7.159551624208689">
        <ele>2382.7600000000002</ele>
        <time>2016-07-03T12:15:35Z</time>
      </trkpt>
      <trkpt lat="45.869358172640204" lon="7.159658074378967">
        <ele>2383.73</ele>
        <time>2016-07-03T12:15:45Z</time>
      </trkpt>
      <trkpt lat="45.869353730231524" lon="7.159724626690149">
        <ele>2384.6900000000001</ele>
        <time>2016-07-03T12:15:51Z</time>
      </trkpt>
      <trkpt lat="45.869354652240872" lon="7.159790340811014">
        <ele>2384.6900000000001</ele>
        <time>2016-07-03T12:15:57Z</time>
      </trkpt>
      <trkpt lat="45.869324561208487" lon="7.159911459311843">
        <ele>2385.6500000000001</ele>
        <time>2016-07-03T12:16:07Z</time>
      </trkpt>
      <trkpt lat="45.869285920634866" lon="7.160032577812672">
        <ele>2387.5700000000002</ele>
        <time>2016-07-03T12:16:19Z</time>
      </trkpt>
      <trkpt lat="45.869250632822514" lon="7.160109104588628">
        <ele>2389.0100000000002</ele>
        <time>2016-07-03T12:16:29Z</time>
      </trkpt>
      <trkpt lat="45.86918793618679" lon="7.160176495090127">
        <ele>2390.46</ele>
        <time>2016-07-03T12:16:39Z</time>
      </trkpt>
      <trkpt lat="45.869174776598811" lon="7.160268528386951">
        <ele>2391.4200000000001</ele>
        <time>2016-07-03T12:16:48Z</time>
      </trkpt>
      <trkpt lat="45.869161114096642" lon="7.160286800935864">
        <ele>2391.4200000000001</ele>
        <time>2016-07-03T12:16:51Z</time>
      </trkpt>
      <trkpt lat="45.869117109104991" lon="7.160389479249716">
        <ele>2393.3400000000001</ele>
        <time>2016-07-03T12:17:03Z</time>
      </trkpt>
      <trkpt lat="45.86910679936409" lon="7.160488637164235">
        <ele>2394.7800000000002</ele>
        <time>2016-07-03T12:17:13Z</time>
      </trkpt>
      <trkpt lat="45.869080144912004" lon="7.160568265244365">
        <ele>2395.7399999999998</ele>
        <time>2016-07-03T12:17:24Z</time>
      </trkpt>
      <trkpt lat="45.86904963478446" lon="7.160673374310136">
        <ele>2396.6999999999998</ele>
        <time>2016-07-03T12:17:35Z</time>
      </trkpt>
      <trkpt lat="45.869012754410505" lon="7.160726767033339">
        <ele>2398.1500000000001</ele>
        <time>2016-07-03T12:17:45Z</time>
      </trkpt>
      <trkpt lat="45.868996325880289" lon="7.160735065117478">
        <ele>2398.6300000000001</ele>
        <time>2016-07-03T12:17:47Z</time>
      </trkpt>
      <trkpt lat="45.868922900408506" lon="7.160819806158543">
        <ele>2399.5900000000001</ele>
        <time>2016-07-03T12:17:59Z</time>
      </trkpt>
      <trkpt lat="45.868900520727038" lon="7.160868505015969">
        <ele>2400.5500000000002</ele>
        <time>2016-07-03T12:18:09Z</time>
      </trkpt>
      <trkpt lat="45.868872441351414" lon="7.160936901345849">
        <ele>2401.9899999999998</ele>
        <time>2016-07-03T12:18:18Z</time>
      </trkpt>
      <trkpt lat="45.868821814656258" lon="7.161018457263708">
        <ele>2403.4299999999998</ele>
        <time>2016-07-03T12:18:28Z</time>
      </trkpt>
      <trkpt lat="45.868787867948413" lon="7.161077130585909">
        <ele>2405.3600000000001</ele>
        <time>2016-07-03T12:18:36Z</time>
      </trkpt>
      <trkpt lat="45.868773618713021" lon="7.161112502217293">
        <ele>2404.8800000000001</ele>
        <time>2016-07-03T12:18:39Z</time>
      </trkpt>
      <trkpt lat="45.868731122463942" lon="7.161194141954184">
        <ele>2406.3200000000002</ele>
        <time>2016-07-03T12:18:50Z</time>
      </trkpt>
      <trkpt lat="45.868679825216532" lon="7.161258263513446">
        <ele>2407.2800000000002</ele>
        <time>2016-07-03T12:19:02Z</time>
      </trkpt>
      <trkpt lat="45.868637496605515" lon="7.161286929622293">
        <ele>2408.7199999999998</ele>
        <time>2016-07-03T12:19:10Z</time>
      </trkpt>
      <trkpt lat="45.868568681180477" lon="7.161343423649669">
        <ele>2410.6399999999999</ele>
        <time>2016-07-03T12:19:23Z</time>
      </trkpt>
      <trkpt lat="45.868512438610196" lon="7.161393044516444">
        <ele>2413.0500000000002</ele>
        <time>2016-07-03T12:19:36Z</time>
      </trkpt>
      <trkpt lat="45.868447059765458" lon="7.161422297358513">
        <ele>2414.4899999999998</ele>
        <time>2016-07-03T12:19:47Z</time>
      </trkpt>
      <trkpt lat="45.868396097794175" lon="7.161463536322117">
        <ele>2416.4099999999999</ele>
        <time>2016-07-03T12:19:58Z</time>
      </trkpt>
      <trkpt lat="45.868336083367467" lon="7.161489687860012">
        <ele>2418.3299999999999</ele>
        <time>2016-07-03T12:20:11Z</time>
      </trkpt>
      <trkpt lat="45.868321917951107" lon="7.161500081419945">
        <ele>2419.7800000000002</ele>
        <time>2016-07-03T12:20:17Z</time>
      </trkpt>
      <trkpt lat="45.86827757768333" lon="7.161574009805918">
        <ele>2420.2600000000002</ele>
        <time>2016-07-03T12:20:27Z</time>
      </trkpt>
      <trkpt lat="45.868275230750442" lon="7.161631425842643">
        <ele>2420.7399999999998</ele>
        <time>2016-07-03T12:20:38Z</time>
      </trkpt>
      <trkpt lat="45.868271794170141" lon="7.161634862422943">
        <ele>2420.2600000000002</ele>
        <time>2016-07-03T12:20:45Z</time>
      </trkpt>
      <trkpt lat="45.868261316791177" lon="7.161711053922772">
        <ele>2421.6999999999998</ele>
        <time>2016-07-03T12:20:54Z</time>
      </trkpt>
      <trkpt lat="45.86823315359652" lon="7.161700157448649">
        <ele>2422.6599999999999</ele>
        <time>2016-07-03T12:21:04Z</time>
      </trkpt>
      <trkpt lat="45.868220496922731" lon="7.161665875464678">
        <ele>2422.6599999999999</ele>
        <time>2016-07-03T12:21:21Z</time>
      </trkpt>
      <trkpt lat="45.868234494701028" lon="7.161722453311086">
        <ele>2423.1399999999999</ele>
        <time>2016-07-03T12:21:35Z</time>
      </trkpt>
      <trkpt lat="45.868201302364469" lon="7.161764111369848">
        <ele>2424.0999999999999</ele>
        <time>2016-07-03T12:21:45Z</time>
      </trkpt>
      <trkpt lat="45.868187388405204" lon="7.16175539419055">
        <ele>2424.5799999999999</ele>
        <time>2016-07-03T12:21:56Z</time>
      </trkpt>
      <trkpt lat="45.868177833035588" lon="7.161775762215257">
        <ele>2425.0599999999999</ele>
        <time>2016-07-03T12:22:11Z</time>
      </trkpt>
      <trkpt lat="45.868145478889346" lon="7.161806775256991">
        <ele>2426.5</ele>
        <time>2016-07-03T12:22:21Z</time>
      </trkpt>
      <trkpt lat="45.868107173591852" lon="7.161860335618258">
        <ele>2427.4699999999998</ele>
        <time>2016-07-03T12:22:31Z</time>
      </trkpt>
      <trkpt lat="45.868054535239935" lon="7.161896461620927">
        <ele>2429.3899999999999</ele>
        <time>2016-07-03T12:22:41Z</time>
      </trkpt>
      <trkpt lat="45.868013380095363" lon="7.161914985626936">
        <ele>2429.8699999999999</ele>
        <time>2016-07-03T12:22:47Z</time>
      </trkpt>
      <trkpt lat="45.867939786985517" lon="7.16192252933979">
        <ele>2431.79</ele>
        <time>2016-07-03T12:22:59Z</time>
      </trkpt>
      <trkpt lat="45.867930902168155" lon="7.161939460784197">
        <ele>2431.3099999999999</ele>
        <time>2016-07-03T12:23:01Z</time>
      </trkpt>
      <trkpt lat="45.867944816127419" lon="7.161943735554814">
        <ele>2433.23</ele>
        <time>2016-07-03T12:23:12Z</time>
      </trkpt>
      <trkpt lat="45.867959568277001" lon="7.161968126893044">
        <ele>2435.1599999999999</ele>
        <time>2016-07-03T12:23:24Z</time>
      </trkpt>
      <trkpt lat="45.867976248264313" lon="7.162037948146462">
        <ele>2436.1199999999999</ele>
        <time>2016-07-03T12:23:34Z</time>
      </trkpt>
      <trkpt lat="45.867948085069656" lon="7.1621257904917">
        <ele>2437.5599999999999</ele>
        <time>2016-07-03T12:23:44Z</time>
      </trkpt>
      <trkpt lat="45.867885975167155" lon="7.16223232448101">
        <ele>2436.1199999999999</ele>
        <time>2016-07-03T12:23:54Z</time>
      </trkpt>
      <trkpt lat="45.867861919105053" lon="7.162233665585518">
        <ele>2435.1599999999999</ele>
        <time>2016-07-03T12:23:56Z</time>
      </trkpt>
      <trkpt lat="45.867827385663986" lon="7.162281358614564">
        <ele>2433.23</ele>
        <time>2016-07-03T12:24:01Z</time>
      </trkpt>
      <trkpt lat="45.867776423692703" lon="7.162368195131421">
        <ele>2432.75</ele>
        <time>2016-07-03T12:24:13Z</time>
      </trkpt>
      <trkpt lat="45.867725294083357" lon="7.162440363317728">
        <ele>2433.71</ele>
        <time>2016-07-03T12:24:23Z</time>
      </trkpt>
      <trkpt lat="45.867723114788532" lon="7.162447236478329">
        <ele>2433.71</ele>
        <time>2016-07-03T12:24:24Z</time>
      </trkpt>
      <trkpt lat="45.867692939937115" lon="7.162499120458961">
        <ele>2435.1599999999999</ele>
        <time>2016-07-03T12:24:36Z</time>
      </trkpt>
      <trkpt lat="45.867734011262655" lon="7.162533737719059">
        <ele>2436.1199999999999</ele>
        <time>2016-07-03T12:24:48Z</time>
      </trkpt>
      <trkpt lat="45.867756558582187" lon="7.162578497081995">
        <ele>2438.52</ele>
        <time>2016-07-03T12:24:56Z</time>
      </trkpt>
      <trkpt lat="45.867777429521084" lon="7.162630381062627">
        <ele>2441.8899999999999</ele>
        <time>2016-07-03T12:25:05Z</time>
      </trkpt>
      <trkpt lat="45.867774998769164" lon="7.162640439346433">
        <ele>2441.8899999999999</ele>
        <time>2016-07-03T12:25:06Z</time>
      </trkpt>
      <trkpt lat="45.867756810039282" lon="7.162718810141087">
        <ele>2441.8899999999999</ele>
        <time>2016-07-03T12:25:16Z</time>
      </trkpt>
      <trkpt lat="45.867750020697713" lon="7.162756528705359">
        <ele>2443.8099999999999</ele>
        <time>2016-07-03T12:25:25Z</time>
      </trkpt>
      <trkpt lat="45.867759240791202" lon="7.162752756848931">
        <ele>2444.77</ele>
        <time>2016-07-03T12:25:27Z</time>
      </trkpt>
      <trkpt lat="45.867753122001886" lon="7.162789553403854">
        <ele>2447.1700000000001</ele>
        <time>2016-07-03T12:25:35Z</time>
      </trkpt>
      <trkpt lat="45.867735184729099" lon="7.162801623344421">
        <ele>2446.21</ele>
        <time>2016-07-03T12:25:42Z</time>
      </trkpt>
      <trkpt lat="45.867733424529433" lon="7.162804808467627">
        <ele>2447.1700000000001</ele>
        <time>2016-07-03T12:25:44Z</time>
      </trkpt>
      <trkpt lat="45.867777178063989" lon="7.162818219512701">
        <ele>2449.0999999999999</ele>
        <time>2016-07-03T12:25:54Z</time>
      </trkpt>
      <trkpt lat="45.86780165322125" lon="7.162789637222886">
        <ele>2449.5799999999999</ele>
        <time>2016-07-03T12:26:04Z</time>
      </trkpt>
      <trkpt lat="45.867813136428595" lon="7.162795420736074">
        <ele>2450.0599999999999</ele>
        <time>2016-07-03T12:26:14Z</time>
      </trkpt>
      <trkpt lat="45.867881868034601" lon="7.162792067974806">
        <ele>2451.02</ele>
        <time>2016-07-03T12:26:28Z</time>
      </trkpt>
      <trkpt lat="45.867947582155466" lon="7.162810256704688">
        <ele>2452.9400000000001</ele>
        <time>2016-07-03T12:26:40Z</time>
      </trkpt>
      <trkpt lat="45.867998795583844" lon="7.162840180099011">
        <ele>2454.3800000000001</ele>
        <time>2016-07-03T12:26:49Z</time>
      </trkpt>
      <trkpt lat="45.868035173043609" lon="7.162878653034568">
        <ele>2456.3099999999999</ele>
        <time>2016-07-03T12:26:58Z</time>
      </trkpt>
      <trkpt lat="45.868049003183842" lon="7.162953419610858">
        <ele>2459.6700000000001</ele>
        <time>2016-07-03T12:27:06Z</time>
      </trkpt>
      <trkpt lat="45.868056295439601" lon="7.162996837869287">
        <ele>2457.75</ele>
        <time>2016-07-03T12:27:14Z</time>
      </trkpt>
      <trkpt lat="45.868054619058967" lon="7.163091469556093">
        <ele>2459.6700000000001</ele>
        <time>2016-07-03T12:27:23Z</time>
      </trkpt>
      <trkpt lat="45.868074903264642" lon="7.163220634683967">
        <ele>2460.6300000000001</ele>
        <time>2016-07-03T12:27:35Z</time>
      </trkpt>
      <trkpt lat="45.86807825602591" lon="7.163228262215853">
        <ele>2463.52</ele>
        <time>2016-07-03T12:27:36Z</time>
      </trkpt>
      <trkpt lat="45.868096780031919" lon="7.163286935538054">
        <ele>2460.6300000000001</ele>
        <time>2016-07-03T12:27:42Z</time>
      </trkpt>
      <trkpt lat="45.868115974590182" lon="7.163289366289973">
        <ele>2460.6300000000001</ele>
        <time>2016-07-03T12:27:47Z</time>
      </trkpt>
      <trkpt lat="45.86813491769135" lon="7.163316607475281">
        <ele>2461.5900000000001</ele>
        <time>2016-07-03T12:27:55Z</time>
      </trkpt>
      <trkpt lat="45.868152184411883" lon="7.163346530869603">
        <ele>2461.1100000000001</ele>
        <time>2016-07-03T12:28:05Z</time>
      </trkpt>
      <trkpt lat="45.868134582415223" lon="7.163355750963092">
        <ele>2458.71</ele>
        <time>2016-07-03T12:28:16Z</time>
      </trkpt>
      <trkpt lat="45.868142796680331" lon="7.163355499505997">
        <ele>2460.6300000000001</ele>
        <time>2016-07-03T12:28:23Z</time>
      </trkpt>
      <trkpt lat="45.868164170533419" lon="7.16337569989264">
        <ele>2460.1500000000001</ele>
        <time>2016-07-03T12:28:27Z</time>
      </trkpt>
      <trkpt lat="45.868220329284668" lon="7.163432948291302">
        <ele>2460.1500000000001</ele>
        <time>2016-07-03T12:28:34Z</time>
      </trkpt>
      <trkpt lat="45.868235332891345" lon="7.16356378979981">
        <ele>2457.27</ele>
        <time>2016-07-03T12:28:42Z</time>
      </trkpt>
      <trkpt lat="45.868226112797856" lon="7.163623552769423">
        <ele>2457.75</ele>
        <time>2016-07-03T12:28:46Z</time>
      </trkpt>
      <trkpt lat="45.868211863562465" lon="7.163649788126349">
        <ele>2457.75</ele>
        <time>2016-07-03T12:28:48Z</time>
      </trkpt>
      <trkpt lat="45.868196859955788" lon="7.1638164203614">
        <ele>2455.8200000000002</ele>
        <time>2016-07-03T12:29:00Z</time>
      </trkpt>
      <trkpt lat="45.868186466395855" lon="7.163903089240193">
        <ele>2455.8200000000002</ele>
        <time>2016-07-03T12:29:12Z</time>
      </trkpt>
      <trkpt lat="45.868192249909043" lon="7.163933515548706">
        <ele>2456.3099999999999</ele>
        <time>2016-07-03T12:29:28Z</time>
      </trkpt>
      <trkpt lat="45.868195686489344" lon="7.163936533033848">
        <ele>2456.3099999999999</ele>
        <time>2016-07-03T12:29:29Z</time>
      </trkpt>
      <trkpt lat="45.868252934888005" lon="7.163984561339021">
        <ele>2459.1900000000001</ele>
        <time>2016-07-03T12:29:39Z</time>
      </trkpt>
      <trkpt lat="45.868258215487003" lon="7.163987495005131">
        <ele>2458.71</ele>
        <time>2016-07-03T12:29:40Z</time>
      </trkpt>
      <trkpt lat="45.868318732827902" lon="7.16400601901114">
        <ele>2461.5900000000001</ele>
        <time>2016-07-03T12:29:50Z</time>
      </trkpt>
      <trkpt lat="45.868341950699687" lon="7.164015742018819">
        <ele>2462.0700000000002</ele>
        <time>2016-07-03T12:29:54Z</time>
      </trkpt>
      <trkpt lat="45.868395930156112" lon="7.16406318359077">
        <ele>2462.5500000000002</ele>
        <time>2016-07-03T12:30:02Z</time>
      </trkpt>
      <trkpt lat="45.868400456383824" lon="7.164104925468564">
        <ele>2462.5500000000002</ele>
        <time>2016-07-03T12:30:11Z</time>
      </trkpt>
      <trkpt lat="45.868411269038916" lon="7.164142644032836">
        <ele>2463.04</ele>
        <time>2016-07-03T12:30:26Z</time>
      </trkpt>
      <trkpt lat="45.868421327322721" lon="7.164164772257209">
        <ele>2462.5500000000002</ele>
        <time>2016-07-03T12:30:30Z</time>
      </trkpt>
      <trkpt lat="45.868424093350768" lon="7.164203748106957">
        <ele>2457.27</ele>
        <time>2016-07-03T12:30:33Z</time>
      </trkpt>
      <trkpt lat="45.868425015360117" lon="7.164213638752699">
        <ele>2458.23</ele>
        <time>2016-07-03T12:30:34Z</time>
      </trkpt>
      <trkpt lat="45.868426356464624" lon="7.164222942665219">
        <ele>2459.1900000000001</ele>
        <time>2016-07-03T12:30:42Z</time>
      </trkpt>
      <trkpt lat="45.868444964289665" lon="7.164253201335669">
        <ele>2458.23</ele>
        <time>2016-07-03T12:30:57Z</time>
      </trkpt>
      <trkpt lat="45.868427697569132" lon="7.164359232410789">
        <ele>2455.8200000000002</ele>
        <time>2016-07-03T12:31:07Z</time>
      </trkpt>
      <trkpt lat="45.868429625406861" lon="7.164383707568049">
        <ele>2455.3400000000001</ele>
        <time>2016-07-03T12:31:13Z</time>
      </trkpt>
      <trkpt lat="45.868403809145093" lon="7.164433412253857">
        <ele>2454.8600000000001</ele>
        <time>2016-07-03T12:31:24Z</time>
      </trkpt>
      <trkpt lat="45.868408251553774" lon="7.164440453052521">
        <ele>2454.8600000000001</ele>
        <time>2016-07-03T12:31:40Z</time>
      </trkpt>
      <trkpt lat="45.868420237675309" lon="7.164429388940334">
        <ele>2455.3400000000001</ele>
        <time>2016-07-03T12:31:56Z</time>
      </trkpt>
      <trkpt lat="45.868432391434908" lon="7.164437351748347">
        <ele>2455.8200000000002</ele>
        <time>2016-07-03T12:32:13Z</time>
      </trkpt>
      <trkpt lat="45.868407664820552" lon="7.164471130818129">
        <ele>2456.3099999999999</ele>
        <time>2016-07-03T12:32:24Z</time>
      </trkpt>
      <trkpt lat="45.868377573788166" lon="7.164511363953352">
        <ele>2453.9000000000001</ele>
        <time>2016-07-03T12:32:35Z</time>
      </trkpt>
      <trkpt lat="45.868358630686998" lon="7.16454841196537">
        <ele>2455.3400000000001</ele>
        <time>2016-07-03T12:32:40Z</time>
      </trkpt>
      <trkpt lat="45.868370197713375" lon="7.164612868800759">
        <ele>2455.8200000000002</ele>
        <time>2016-07-03T12:32:50Z</time>
      </trkpt>
      <trkpt lat="45.868368437513709" lon="7.164678750559688">
        <ele>2452.9400000000001</ele>
        <time>2016-07-03T12:32:59Z</time>
      </trkpt>
      <trkpt lat="45.868348237127066" lon="7.164710434153676">
        <ele>2451.98</ele>
        <time>2016-07-03T12:33:07Z</time>
      </trkpt>
      <trkpt lat="45.868341196328402" lon="7.164739267900586">
        <ele>2452.9400000000001</ele>
        <time>2016-07-03T12:33:11Z</time>
      </trkpt>
      <trkpt lat="45.868364498019218" lon="7.164857117459178">
        <ele>2451.98</ele>
        <time>2016-07-03T12:33:21Z</time>
      </trkpt>
      <trkpt lat="45.868347901850939" lon="7.164899613708258">
        <ele>2451.02</ele>
        <time>2016-07-03T12:33:24Z</time>
      </trkpt>
      <trkpt lat="45.868320912122726" lon="7.164962310343981">
        <ele>2449.0999999999999</ele>
        <time>2016-07-03T12:33:29Z</time>
      </trkpt>
      <trkpt lat="45.86835041642189" lon="7.165106227621436">
        <ele>2449.5799999999999</ele>
        <time>2016-07-03T12:33:40Z</time>
      </trkpt>
      <trkpt lat="45.868321498855948" lon="7.165231369435787">
        <ele>2449.0999999999999</ele>
        <time>2016-07-03T12:33:52Z</time>
      </trkpt>
      <trkpt lat="45.868279337882996" lon="7.165245031937957">
        <ele>2449.0999999999999</ele>
        <time>2016-07-03T12:34:01Z</time>
      </trkpt>
      <trkpt lat="45.868284953758121" lon="7.165224999189377">
        <ele>2448.6199999999999</ele>
        <time>2016-07-03T12:34:07Z</time>
      </trkpt>
      <trkpt lat="45.868236506357789" lon="7.165257353335619">
        <ele>2449.0999999999999</ele>
        <time>2016-07-03T12:34:16Z</time>
      </trkpt>
      <trkpt lat="45.868209097534418" lon="7.165271267294884">
        <ele>2449.5799999999999</ele>
        <time>2016-07-03T12:34:29Z</time>
      </trkpt>
      <trkpt lat="45.86820968426764" lon="7.165241092443466">
        <ele>2449.5799999999999</ele>
        <time>2016-07-03T12:34:40Z</time>
      </trkpt>
      <trkpt lat="45.868212366476655" lon="7.165255844593048">
        <ele>2449.5799999999999</ele>
        <time>2016-07-03T12:34:59Z</time>
      </trkpt>
      <trkpt lat="45.868190238252282" lon="7.165246540680528">
        <ele>2449.5799999999999</ele>
        <time>2016-07-03T12:35:17Z</time>
      </trkpt>
      <trkpt lat="45.868161907419562" lon="7.165302447974682">
        <ele>2450.54</ele>
        <time>2016-07-03T12:35:27Z</time>
      </trkpt>
      <trkpt lat="45.868164505809546" lon="7.165384339168668">
        <ele>2450.54</ele>
        <time>2016-07-03T12:35:39Z</time>
      </trkpt>
      <trkpt lat="45.868158973753452" lon="7.165400180965662">
        <ele>2451.02</ele>
        <time>2016-07-03T12:35:50Z</time>
      </trkpt>
      <trkpt lat="45.868135839700699" lon="7.165387608110905">
        <ele>2451.02</ele>
        <time>2016-07-03T12:36:04Z</time>
      </trkpt>
      <trkpt lat="45.868068365380168" lon="7.165160290896893">
        <ele>2451.02</ele>
        <time>2016-07-03T12:36:22Z</time>
      </trkpt>
      <trkpt lat="45.868040956556797" lon="7.165048057213426">
        <ele>2451.98</ele>
        <time>2016-07-03T12:36:43Z</time>
      </trkpt>
      <trkpt lat="45.868041710928082" lon="7.165041184052825">
        <ele>2451.02</ele>
        <time>2016-07-03T12:36:55Z</time>
      </trkpt>
      <trkpt lat="45.868081105872989" lon="7.165169762447476">
        <ele>2450.54</ele>
        <time>2016-07-03T12:37:08Z</time>
      </trkpt>
      <trkpt lat="45.868080351501703" lon="7.165117207914591">
        <ele>2450.54</ele>
        <time>2016-07-03T12:37:25Z</time>
      </trkpt>
      <trkpt lat="45.868113124743104" lon="7.16514696367085">
        <ele>2451.02</ele>
        <time>2016-07-03T12:37:41Z</time>
      </trkpt>
      <trkpt lat="45.868105664849281" lon="7.165224999189377">
        <ele>2450.54</ele>
        <time>2016-07-03T12:37:57Z</time>
      </trkpt>
      <trkpt lat="45.868110442534089" lon="7.16527839191258">
        <ele>2450.54</ele>
        <time>2016-07-03T12:38:15Z</time>
      </trkpt>
      <trkpt lat="45.868125194683671" lon="7.165254754945636">
        <ele>2450.0599999999999</ele>
        <time>2016-07-03T12:38:34Z</time>
      </trkpt>
      <trkpt lat="45.868132654577494" lon="7.165226005017757">
        <ele>2450.0599999999999</ele>
        <time>2016-07-03T12:38:51Z</time>
      </trkpt>
      <trkpt lat="45.868118153885007" lon="7.165183592587709">
        <ele>2450.54</ele>
        <time>2016-07-03T12:39:10Z</time>
      </trkpt>
      <trkpt lat="45.86810264736414" lon="7.165180910378695">
        <ele>2451.02</ele>
        <time>2016-07-03T12:39:29Z</time>
      </trkpt>
      <trkpt lat="45.868088649585843" lon="7.165269339457154">
        <ele>2451.02</ele>
        <time>2016-07-03T12:39:49Z</time>
      </trkpt>
      <trkpt lat="45.868082279339433" lon="7.165216701105237">
        <ele>2450.54</ele>
        <time>2016-07-03T12:40:11Z</time>
      </trkpt>
      <trkpt lat="45.868060905486345" lon="7.165135145187378">
        <ele>2451.5</ele>
        <time>2016-07-03T12:40:35Z</time>
      </trkpt>
      <trkpt lat="45.868071801960468" lon="7.165065407752991">
        <ele>2451.5</ele>
        <time>2016-07-03T12:41:02Z</time>
      </trkpt>
      <trkpt lat="45.868060318753123" lon="7.16507219709456">
        <ele>2451.98</ele>
        <time>2016-07-03T12:41:22Z</time>
      </trkpt>
      <trkpt lat="45.868071299046278" lon="7.16510740108788">
        <ele>2451.5</ele>
        <time>2016-07-03T12:41:41Z</time>
      </trkpt>
      <trkpt lat="45.868073729798198" lon="7.165147298946977">
        <ele>2451.5</ele>
        <time>2016-07-03T12:42:00Z</time>
      </trkpt>
      <trkpt lat="45.868105832487345" lon="7.165196500718594">
        <ele>2451.5</ele>
        <time>2016-07-03T12:42:18Z</time>
      </trkpt>
      <trkpt lat="45.868112873286009" lon="7.165231956169009">
        <ele>2451.98</ele>
        <time>2016-07-03T12:42:40Z</time>
      </trkpt>
      <trkpt lat="45.8681202493608" lon="7.165223490446806">
        <ele>2451.98</ele>
        <time>2016-07-03T12:42:58Z</time>
      </trkpt>
      <trkpt lat="45.868114130571485" lon="7.165218712761998">
        <ele>2451.98</ele>
        <time>2016-07-03T12:43:17Z</time>
      </trkpt>
      <trkpt lat="45.868077417835593" lon="7.165118465200067">
        <ele>2452.9400000000001</ele>
        <time>2016-07-03T12:43:40Z</time>
      </trkpt>
      <trkpt lat="45.868055792525411" lon="7.165076471865177">
        <ele>2452.9400000000001</ele>
        <time>2016-07-03T12:43:59Z</time>
      </trkpt>
      <trkpt lat="45.868064677342772" lon="7.165067922323942">
        <ele>2452.46</ele>
        <time>2016-07-03T12:44:20Z</time>
      </trkpt>
      <trkpt lat="45.868077501654625" lon="7.165161380544305">
        <ele>2452.9400000000001</ele>
        <time>2016-07-03T12:44:42Z</time>
      </trkpt>
      <trkpt lat="45.868090828880668" lon="7.165138581767678">
        <ele>2452.46</ele>
        <time>2016-07-03T12:45:01Z</time>
      </trkpt>
      <trkpt lat="45.868090996518731" lon="7.165063982829452">
        <ele>2452.46</ele>
        <time>2016-07-03T12:45:14Z</time>
      </trkpt>
      <trkpt lat="45.868083285167813" lon="7.164933308959007">
        <ele>2452.9400000000001</ele>
        <time>2016-07-03T12:45:34Z</time>
      </trkpt>
      <trkpt lat="45.868109939619899" lon="7.165091894567013">
        <ele>2452.9400000000001</ele>
        <time>2016-07-03T12:45:50Z</time>
      </trkpt>
      <trkpt lat="45.868132989853621" lon="7.165191974490881">
        <ele>2452.9400000000001</ele>
        <time>2016-07-03T12:46:11Z</time>
      </trkpt>
      <trkpt lat="45.868117399513721" lon="7.165205385535955">
        <ele>2453.4200000000001</ele>
        <time>2016-07-03T12:46:32Z</time>
      </trkpt>
      <trkpt lat="45.868104323744774" lon="7.165227262303233">
        <ele>2453.4200000000001</ele>
        <time>2016-07-03T12:46:51Z</time>
      </trkpt>
      <trkpt lat="45.868069957941771" lon="7.165206642821431">
        <ele>2453.4200000000001</ele>
        <time>2016-07-03T12:47:06Z</time>
      </trkpt>
      <trkpt lat="45.868126200512052" lon="7.165303118526936">
        <ele>2452.9400000000001</ele>
        <time>2016-07-03T12:47:14Z</time>
      </trkpt>
      <trkpt lat="45.868114214390516" lon="7.165342094376683">
        <ele>2452.9400000000001</ele>
        <time>2016-07-03T12:47:22Z</time>
      </trkpt>
      <trkpt lat="45.868136174976826" lon="7.165336310863495">
        <ele>2452.9400000000001</ele>
        <time>2016-07-03T12:47:49Z</time>
      </trkpt>
      <trkpt lat="45.868128212168813" lon="7.16531896032393">
        <ele>2453.4200000000001</ele>
        <time>2016-07-03T12:48:05Z</time>
      </trkpt>
      <trkpt lat="45.868125529959798" lon="7.165313428267837">
        <ele>2453.9000000000001</ele>
        <time>2016-07-03T12:48:30Z</time>
      </trkpt>
      <trkpt lat="45.868119075894356" lon="7.165307644754648">
        <ele>2454.3800000000001</ele>
        <time>2016-07-03T12:48:51Z</time>
      </trkpt>
      <trkpt lat="45.868130894377828" lon="7.165306890383363">
        <ele>2453.9000000000001</ele>
        <time>2016-07-03T12:49:14Z</time>
      </trkpt>
      <trkpt lat="45.86812661960721" lon="7.16531602665782">
        <ele>2453.9000000000001</ele>
        <time>2016-07-03T12:49:30Z</time>
      </trkpt>
      <trkpt lat="45.868126954883337" lon="7.165320301428437">
        <ele>2453.9000000000001</ele>
        <time>2016-07-03T12:49:46Z</time>
      </trkpt>
      <trkpt lat="45.868127793073654" lon="7.165326923131943">
        <ele>2453.9000000000001</ele>
        <time>2016-07-03T12:50:14Z</time>
      </trkpt>
      <trkpt lat="45.868118489161134" lon="7.165320301428437">
        <ele>2453.9000000000001</ele>
        <time>2016-07-03T12:50:34Z</time>
      </trkpt>
      <trkpt lat="45.868116645142436" lon="7.16531946323812">
        <ele>2454.3800000000001</ele>
        <time>2016-07-03T12:50:45Z</time>
      </trkpt>
      <trkpt lat="45.868106251582503" lon="7.165292808786035">
        <ele>2454.3800000000001</ele>
        <time>2016-07-03T12:51:02Z</time>
      </trkpt>
      <trkpt lat="45.868110191076994" lon="7.165303789079189">
        <ele>2454.8600000000001</ele>
        <time>2016-07-03T12:51:21Z</time>
      </trkpt>
      <trkpt lat="45.868101557716727" lon="7.165307141840458">
        <ele>2454.8600000000001</ele>
        <time>2016-07-03T12:51:36Z</time>
      </trkpt>
      <trkpt lat="45.868100048974156" lon="7.165275206789374">
        <ele>2454.8600000000001</ele>
        <time>2016-07-03T12:52:00Z</time>
      </trkpt>
      <trkpt lat="45.868120668455958" lon="7.165300436317921">
        <ele>2454.8600000000001</ele>
        <time>2016-07-03T12:52:17Z</time>
      </trkpt>
      <trkpt lat="45.868100300431252" lon="7.165301693603396">
        <ele>2454.8600000000001</ele>
        <time>2016-07-03T12:52:39Z</time>
      </trkpt>
      <trkpt lat="45.868109855800867" lon="7.165294149890542">
        <ele>2454.8600000000001</ele>
        <time>2016-07-03T12:52:58Z</time>
      </trkpt>
      <trkpt lat="45.868114633485675" lon="7.16531116515398">
        <ele>2454.3800000000001</ele>
        <time>2016-07-03T12:53:24Z</time>
      </trkpt>
      <trkpt lat="45.868117902427912" lon="7.165300184860826">
        <ele>2454.8600000000001</ele>
        <time>2016-07-03T12:53:44Z</time>
      </trkpt>
      <trkpt lat="45.868111280724406" lon="7.165304459631443">
        <ele>2454.8600000000001</ele>
        <time>2016-07-03T12:54:04Z</time>
      </trkpt>
      <trkpt lat="45.868115723133087" lon="7.165300687775016">
        <ele>2455.3400000000001</ele>
        <time>2016-07-03T12:54:28Z</time>
      </trkpt>
      <trkpt lat="45.868128379806876" lon="7.165295826271176">
        <ele>2454.8600000000001</ele>
        <time>2016-07-03T12:54:46Z</time>
      </trkpt>
      <trkpt lat="45.868140868842602" lon="7.16530772857368">
        <ele>2455.8200000000002</ele>
        <time>2016-07-03T12:55:07Z</time>
      </trkpt>
      <trkpt lat="45.868128715083003" lon="7.165302196517587">
        <ele>2455.3400000000001</ele>
        <time>2016-07-03T12:55:21Z</time>
      </trkpt>
      <trkpt lat="45.868124691769481" lon="7.165325749665499">
        <ele>2455.3400000000001</ele>
        <time>2016-07-03T12:55:48Z</time>
      </trkpt>
      <trkpt lat="45.868121758103371" lon="7.165298173204064">
        <ele>2455.8200000000002</ele>
        <time>2016-07-03T12:56:09Z</time>
      </trkpt>
      <trkpt lat="45.868122428655624" lon="7.165301023051143">
        <ele>2457.27</ele>
        <time>2016-07-03T12:56:11Z</time>
      </trkpt>
      <trkpt lat="45.868123769760132" lon="7.165299849584699">
        <ele>2455.8200000000002</ele>
        <time>2016-07-03T12:56:24Z</time>
      </trkpt>
      <trkpt lat="45.86812418885529" lon="7.165297670289874">
        <ele>2455.8200000000002</ele>
        <time>2016-07-03T12:56:49Z</time>
      </trkpt>
      <trkpt lat="45.868105161935091" lon="7.165261544287205">
        <ele>2456.79</ele>
        <time>2016-07-03T12:57:15Z</time>
      </trkpt>
      <trkpt lat="45.868112370371819" lon="7.165278643369675">
        <ele>2456.79</ele>
        <time>2016-07-03T12:57:39Z</time>
      </trkpt>
      <trkpt lat="45.868117986246943" lon="7.165286773815751">
        <ele>2456.79</ele>
        <time>2016-07-03T12:57:59Z</time>
      </trkpt>
      <trkpt lat="45.868111616000533" lon="7.165260538458824">
        <ele>2456.3099999999999</ele>
        <time>2016-07-03T12:58:16Z</time>
      </trkpt>
      <trkpt lat="45.868104491382837" lon="7.165216114372015">
        <ele>2457.27</ele>
        <time>2016-07-03T12:58:38Z</time>
      </trkpt>
      <trkpt lat="45.868102815002203" lon="7.165221478790045">
        <ele>2456.79</ele>
        <time>2016-07-03T12:59:02Z</time>
      </trkpt>
      <trkpt lat="45.868091164156795" lon="7.165260119363666">
        <ele>2456.79</ele>
        <time>2016-07-03T12:59:33Z</time>
      </trkpt>
      <trkpt lat="45.868101976811886" lon="7.165265316143632">
        <ele>2456.79</ele>
        <time>2016-07-03T12:59:58Z</time>
      </trkpt>
      <trkpt lat="45.868103066459298" lon="7.165261041373015">
        <ele>2458.23</ele>
        <time>2016-07-03T13:00:14Z</time>
      </trkpt>
      <trkpt lat="45.868100970983505" lon="7.16529356315732">
        <ele>2457.27</ele>
        <time>2016-07-03T13:00:37Z</time>
      </trkpt>
      <trkpt lat="45.868109185248613" lon="7.165288031101227">
        <ele>2457.27</ele>
        <time>2016-07-03T13:00:56Z</time>
      </trkpt>
      <trkpt lat="45.868132654577494" lon="7.165316361933947">
        <ele>2457.27</ele>
        <time>2016-07-03T13:01:21Z</time>
      </trkpt>
      <trkpt lat="45.868124943226576" lon="7.165290378034115">
        <ele>2457.27</ele>
        <time>2016-07-03T13:01:38Z</time>
      </trkpt>
      <trkpt lat="45.868119997903705" lon="7.165280403569341">
        <ele>2457.75</ele>
        <time>2016-07-03T13:01:56Z</time>
      </trkpt>
      <trkpt lat="45.86812418885529" lon="7.165283840149641">
        <ele>2458.23</ele>
        <time>2016-07-03T13:02:16Z</time>
      </trkpt>
      <trkpt lat="45.868142629042268" lon="7.16531309299171">
        <ele>2458.71</ele>
        <time>2016-07-03T13:02:35Z</time>
      </trkpt>
      <trkpt lat="45.868151849135756" lon="7.165312254801393">
        <ele>2458.23</ele>
        <time>2016-07-03T13:03:06Z</time>
      </trkpt>
      <trkpt lat="45.868128295987844" lon="7.165311500430107">
        <ele>2459.1900000000001</ele>
        <time>2016-07-03T13:03:31Z</time>
      </trkpt>
      <trkpt lat="45.868125865235925" lon="7.165295910090208">
        <ele>2459.1900000000001</ele>
        <time>2016-07-03T13:03:52Z</time>
      </trkpt>
      <trkpt lat="45.868112705647945" lon="7.165290461853147">
        <ele>2459.6700000000001</ele>
        <time>2016-07-03T13:04:14Z</time>
      </trkpt>
      <trkpt lat="45.868116896599531" lon="7.165286103263497">
        <ele>2459.1900000000001</ele>
        <time>2016-07-03T13:04:37Z</time>
      </trkpt>
      <trkpt lat="45.868115890771151" lon="7.165273949503899">
        <ele>2459.1900000000001</ele>
        <time>2016-07-03T13:04:56Z</time>
      </trkpt>
      <trkpt lat="45.868112789466977" lon="7.165283001959324">
        <ele>2459.6700000000001</ele>
        <time>2016-07-03T13:05:14Z</time>
      </trkpt>
      <trkpt lat="45.868122344836593" lon="7.165313176810741">
        <ele>2459.6700000000001</ele>
        <time>2016-07-03T13:05:36Z</time>
      </trkpt>
      <trkpt lat="45.868139695376158" lon="7.165349805727601">
        <ele>2460.1500000000001</ele>
        <time>2016-07-03T13:06:01Z</time>
      </trkpt>
      <trkpt lat="45.868140030652285" lon="7.165348548442125">
        <ele>2460.1500000000001</ele>
        <time>2016-07-03T13:06:23Z</time>
      </trkpt>
      <trkpt lat="45.868150424212217" lon="7.165321810171008">
        <ele>2461.1100000000001</ele>
        <time>2016-07-03T13:06:35Z</time>
      </trkpt>
      <trkpt lat="45.868145478889346" lon="7.165350979194045">
        <ele>2461.1100000000001</ele>
        <time>2016-07-03T13:06:43Z</time>
      </trkpt>
      <trkpt lat="45.868124691769481" lon="7.165402360260487">
        <ele>2461.5900000000001</ele>
        <time>2016-07-03T13:06:57Z</time>
      </trkpt>
      <trkpt lat="45.868148077279329" lon="7.165379142388701">
        <ele>2461.1100000000001</ele>
        <time>2016-07-03T13:07:10Z</time>
      </trkpt>
      <trkpt lat="45.868152771145105" lon="7.165447873994708">
        <ele>2461.1100000000001</ele>
        <time>2016-07-03T13:07:15Z</time>
      </trkpt>
      <trkpt lat="45.868140365928411" lon="7.165510151535273">
        <ele>2463.04</ele>
        <time>2016-07-03T13:07:22Z</time>
      </trkpt>
      <trkpt lat="45.86816081777215" lon="7.165529513731599">
        <ele>2461.5900000000001</ele>
        <time>2016-07-03T13:07:36Z</time>
      </trkpt>
      <trkpt lat="45.868161572143435" lon="7.16552616097033">
        <ele>2458.71</ele>
        <time>2016-07-03T13:07:50Z</time>
      </trkpt>
      <trkpt lat="45.868145897984505" lon="7.165495650842786">
        <ele>2462.0700000000002</ele>
        <time>2016-07-03T13:07:55Z</time>
      </trkpt>
      <trkpt lat="45.86814665235579" lon="7.165483077988029">
        <ele>2461.5900000000001</ele>
        <time>2016-07-03T13:07:56Z</time>
      </trkpt>
      <trkpt lat="45.868130810558796" lon="7.165353912860155">
        <ele>2460.6300000000001</ele>
        <time>2016-07-03T13:08:07Z</time>
      </trkpt>
      <trkpt lat="45.868161655962467" lon="7.165346620604396">
        <ele>2460.6300000000001</ele>
        <time>2016-07-03T13:08:18Z</time>
      </trkpt>
      <trkpt lat="45.868163080886006" lon="7.165317367762327">
        <ele>2460.1500000000001</ele>
        <time>2016-07-03T13:08:28Z</time>
      </trkpt>
      <trkpt lat="45.868271458894014" lon="7.165344022214413">
        <ele>2460.1500000000001</ele>
        <time>2016-07-03T13:08:39Z</time>
      </trkpt>
      <trkpt lat="45.86826634593308" lon="7.165361372753978">
        <ele>2460.1500000000001</ele>
        <time>2016-07-03T13:08:46Z</time>
      </trkpt>
      <trkpt lat="45.868298197165132" lon="7.165346285328269">
        <ele>2460.6300000000001</ele>
        <time>2016-07-03T13:09:02Z</time>
      </trkpt>
      <trkpt lat="45.868338597938418" lon="7.165325414389372">
        <ele>2460.1500000000001</ele>
        <time>2016-07-03T13:09:11Z</time>
      </trkpt>
      <trkpt lat="45.868422752246261" lon="7.165275374427438">
        <ele>2460.6300000000001</ele>
        <time>2016-07-03T13:09:20Z</time>
      </trkpt>
      <trkpt lat="45.868478240445256" lon="7.165242517367005">
        <ele>2460.1500000000001</ele>
        <time>2016-07-03T13:09:26Z</time>
      </trkpt>
      <trkpt lat="45.868501039221883" lon="7.165242349728942">
        <ele>2460.1500000000001</ele>
        <time>2016-07-03T13:09:28Z</time>
      </trkpt>
      <trkpt lat="45.868562143296003" lon="7.165229860693216">
        <ele>2460.6300000000001</ele>
        <time>2016-07-03T13:09:35Z</time>
      </trkpt>
      <trkpt lat="45.868689632043242" lon="7.165318876504898">
        <ele>2460.6300000000001</ele>
        <time>2016-07-03T13:09:46Z</time>
      </trkpt>
      <trkpt lat="45.868704468011856" lon="7.165365647524595">
        <ele>2458.71</ele>
        <time>2016-07-03T13:09:53Z</time>
      </trkpt>
      <trkpt lat="45.868814690038562" lon="7.165410574525595">
        <ele>2460.1500000000001</ele>
        <time>2016-07-03T13:10:04Z</time>
      </trkpt>
      <trkpt lat="45.868917955085635" lon="7.165545439347625">
        <ele>2460.6300000000001</ele>
        <time>2016-07-03T13:10:17Z</time>
      </trkpt>
      <trkpt lat="45.869014682248235" lon="7.165629342198372">
        <ele>2461.5900000000001</ele>
        <time>2016-07-03T13:10:27Z</time>
      </trkpt>
      <trkpt lat="45.869082575663924" lon="7.165778204798698">
        <ele>2460.1500000000001</ele>
        <time>2016-07-03T13:10:38Z</time>
      </trkpt>
      <trkpt lat="45.869145356118679" lon="7.165965875610709">
        <ele>2461.1100000000001</ele>
        <time>2016-07-03T13:10:51Z</time>
      </trkpt>
      <trkpt lat="45.86922112852335" lon="7.166214566677809">
        <ele>2461.5900000000001</ele>
        <time>2016-07-03T13:11:08Z</time>
      </trkpt>
      <trkpt lat="45.86925096809864" lon="7.166418917477131">
        <ele>2461.5900000000001</ele>
        <time>2016-07-03T13:11:21Z</time>
      </trkpt>
      <trkpt lat="45.86925046518445" lon="7.166608264669776">
        <ele>2462.0700000000002</ele>
        <time>2016-07-03T13:11:33Z</time>
      </trkpt>
      <trkpt lat="45.869259936735034" lon="7.166786715388298">
        <ele>2462.5500000000002</ele>
        <time>2016-07-03T13:11:45Z</time>
      </trkpt>
      <trkpt lat="45.869259098544717" lon="7.166890231892467">
        <ele>2462.5500000000002</ele>
        <time>2016-07-03T13:11:51Z</time>
      </trkpt>
      <trkpt lat="45.869258344173431" lon="7.166923843324184">
        <ele>2464</ele>
        <time>2016-07-03T13:11:53Z</time>
      </trkpt>
      <trkpt lat="45.869240490719676" lon="7.16703062877059">
        <ele>2463.04</ele>
        <time>2016-07-03T13:12:01Z</time>
      </trkpt>
      <trkpt lat="45.869278544560075" lon="7.167216623201966">
        <ele>2463.04</ele>
        <time>2016-07-03T13:12:14Z</time>
      </trkpt>
      <trkpt lat="45.869316095486283" lon="7.167335227131844">
        <ele>2464</ele>
        <time>2016-07-03T13:12:24Z</time>
      </trkpt>
      <trkpt lat="45.869334451854229" lon="7.167354337871075">
        <ele>2464</ele>
        <time>2016-07-03T13:12:30Z</time>
      </trkpt>
      <trkpt lat="45.869347443804145" lon="7.167378142476082">
        <ele>2464.48</ele>
        <time>2016-07-03T13:12:32Z</time>
      </trkpt>
      <trkpt lat="45.869355909526348" lon="7.167420722544193">
        <ele>2464.48</ele>
        <time>2016-07-03T13:12:35Z</time>
      </trkpt>
      <trkpt lat="45.86935942992568" lon="7.167474031448364">
        <ele>2464</ele>
        <time>2016-07-03T13:12:39Z</time>
      </trkpt>
      <trkpt lat="45.869399160146713" lon="7.167605962604284">
        <ele>2465.4400000000001</ele>
        <time>2016-07-03T13:12:50Z</time>
      </trkpt>
      <trkpt lat="45.869435621425509" lon="7.167758848518133">
        <ele>2465.9200000000001</ele>
        <time>2016-07-03T13:13:02Z</time>
      </trkpt>
      <trkpt lat="45.869468981400132" lon="7.167908046394587">
        <ele>2465.9200000000001</ele>
        <time>2016-07-03T13:13:13Z</time>
      </trkpt>
      <trkpt lat="45.869513908401132" lon="7.16802547685802">
        <ele>2466.8800000000001</ele>
        <time>2016-07-03T13:13:23Z</time>
      </trkpt>
      <trkpt lat="45.869538299739361" lon="7.16817987151444">
        <ele>2466.4000000000001</ele>
        <time>2016-07-03T13:13:33Z</time>
      </trkpt>
      <trkpt lat="45.869565960019827" lon="7.168355388566852">
        <ele>2467.3600000000001</ele>
        <time>2016-07-03T13:13:45Z</time>
      </trkpt>
      <trkpt lat="45.869579622521996" lon="7.168501568958163">
        <ele>2468.3200000000002</ele>
        <time>2016-07-03T13:13:55Z</time>
      </trkpt>
      <trkpt lat="45.869583562016487" lon="7.16863626614213">
        <ele>2469.2800000000002</ele>
        <time>2016-07-03T13:14:04Z</time>
      </trkpt>
      <trkpt lat="45.869571240618825" lon="7.168800132349134">
        <ele>2470.2399999999998</ele>
        <time>2016-07-03T13:14:15Z</time>
      </trkpt>
      <trkpt lat="45.869546514004469" lon="7.16893189586699">
        <ele>2470.73</ele>
        <time>2016-07-03T13:14:26Z</time>
      </trkpt>
      <trkpt lat="45.869518099352717" lon="7.169115543365479">
        <ele>2472.1700000000001</ele>
        <time>2016-07-03T13:14:39Z</time>
      </trkpt>
      <trkpt lat="45.869491612538695" lon="7.169274715706706">
        <ele>2472.6500000000001</ele>
        <time>2016-07-03T13:14:50Z</time>
      </trkpt>
      <trkpt lat="45.869473339989781" lon="7.169452244415879">
        <ele>2473.1300000000001</ele>
        <time>2016-07-03T13:15:02Z</time>
      </trkpt>
      <trkpt lat="45.86943905800581" lon="7.169653913006187">
        <ele>2473.6100000000001</ele>
        <time>2016-07-03T13:15:16Z</time>
      </trkpt>
      <trkpt lat="45.869401674717665" lon="7.169821048155427">
        <ele>2475.5300000000002</ele>
        <time>2016-07-03T13:15:28Z</time>
      </trkpt>
      <trkpt lat="45.869333613663912" lon="7.170004947111011">
        <ele>2476.0100000000002</ele>
        <time>2016-07-03T13:15:42Z</time>
      </trkpt>
      <trkpt lat="45.869329171255231" lon="7.170019196346402">
        <ele>2476.0100000000002</ele>
        <time>2016-07-03T13:15:43Z</time>
      </trkpt>
      <trkpt lat="45.869253315031528" lon="7.170146349817514">
        <ele>2477.4499999999998</ele>
        <time>2016-07-03T13:15:54Z</time>
      </trkpt>
      <trkpt lat="45.869190199300647" lon="7.170256404206157">
        <ele>2477.4499999999998</ele>
        <time>2016-07-03T13:16:04Z</time>
      </trkpt>
      <trkpt lat="45.869111409410834" lon="7.170382048934698">
        <ele>2478.4200000000001</ele>
        <time>2016-07-03T13:16:16Z</time>
      </trkpt>
      <trkpt lat="45.869054161012173" lon="7.170469220727682">
        <ele>2479.3800000000001</ele>
        <time>2016-07-03T13:16:25Z</time>
      </trkpt>
      <trkpt lat="45.869038822129369" lon="7.170531582087278">
        <ele>2479.3800000000001</ele>
        <time>2016-07-03T13:16:35Z</time>
      </trkpt>
      <trkpt lat="45.869056340306997" lon="7.170585561543703">
        <ele>2480.8200000000002</ele>
        <time>2016-07-03T13:16:49Z</time>
      </trkpt>
    </trkseg>
  </trk>

</gpx>